<?xml version='1.0' encoding='UTF-8'?><gpx version="1.1" creator="JPX - https://github.com/jenetics/jpx" xmlns="http://www.topografix.com/GPX/1/1"><trk><trkseg><trkpt lat="42.21487351106118" lon="13.820400208524333"><ele>319.0</ele><time>2026-05-02T07:13:02.178Z</time></trkpt><trkpt lat="42.21494672010259" lon="13.82041233002564"><ele>319.0</ele><time>2026-05-02T07:13:10.178Z</time></trkpt><trkpt lat="42.21504438259126" lon="13.82037844155449"><ele>319.0</ele><time>2026-05-02T07:14:18.999Z</time></trkpt><trkpt lat="42.21522049268215" lon="13.820329963977478"><ele>319.0</ele><time>2026-05-02T07:14:22.999Z</time></trkpt><trkpt lat="42.21528037067903" lon="13.820277846541922"><ele>319.0</ele><time>2026-05-02T07:14:24.999Z</time></trkpt><trkpt lat="42.2153605370218" lon="13.820221018240396"><ele>319.0</ele><time>2026-05-02T07:14:26.999Z</time></trkpt><trkpt lat="42.215456966015154" lon="13.820121532489285"><ele>319.0</ele><time>2026-05-02T07:14:28.999Z</time></trkpt><trkpt lat="42.2155039455679" lon="13.820054631827158"><ele>319.0</ele><time>2026-05-02T07:14:29.999Z</time></trkpt><trkpt lat="42.21555054934163" lon="13.819987345166693"><ele>319.0</ele><time>2026-05-02T07:14:30.999Z</time></trkpt><trkpt lat="42.215611344051304" lon="13.819898866654995"><ele>319.0</ele><time>2026-05-02T07:14:31.999Z</time></trkpt><trkpt lat="42.21567019957296" lon="13.819809697171774"><ele>319.0</ele><time>2026-05-02T07:14:32.999Z</time></trkpt><trkpt lat="42.21572934003711" lon="13.819718795952118"><ele>319.0</ele><time>2026-05-02T07:14:33.998Z</time></trkpt><trkpt lat="42.21578706869625" lon="13.819626901726767"><ele>319.0</ele><time>2026-05-02T07:14:34.998Z</time></trkpt><trkpt lat="42.215844317797966" lon="13.819534893854948"><ele>319.0</ele><time>2026-05-02T07:14:35.998Z</time></trkpt><trkpt lat="42.21590509693284" lon="13.819435214014652"><ele>319.0</ele><time>2026-05-02T07:14:36.998Z</time></trkpt><trkpt lat="42.21595806335901" lon="13.8193631266138"><ele>319.0</ele><time>2026-05-02T07:14:37.998Z</time></trkpt><trkpt lat="42.21605755282207" lon="13.819287355526956"><ele>319.0</ele><time>2026-05-02T07:14:39.998Z</time></trkpt><trkpt lat="42.216097881432525" lon="13.819216260432652"><ele>319.0</ele><time>2026-05-02T07:14:41.998Z</time></trkpt><trkpt lat="42.21616811799841" lon="13.819188032464314"><ele>319.0</ele><time>2026-05-02T07:15:30Z</time></trkpt><trkpt lat="42.21609169535879" lon="13.819181789366011"><ele>319.0</ele><time>2026-05-02T07:17:24Z</time></trkpt><trkpt lat="42.21603519699517" lon="13.819140907678772"><ele>319.0</ele><time>2026-05-02T07:19:01.999Z</time></trkpt><trkpt lat="42.215998480161005" lon="13.819215987091964"><ele>319.0</ele><time>2026-05-02T07:19:02.999Z</time></trkpt><trkpt lat="42.21596479361849" lon="13.819298652733663"><ele>319.0</ele><time>2026-05-02T07:19:03.999Z</time></trkpt><trkpt lat="42.21592074334884" lon="13.819373667141356"><ele>319.0</ele><time>2026-05-02T07:19:04.999Z</time></trkpt><trkpt lat="42.21586618306326" lon="13.81944829105884"><ele>319.0</ele><time>2026-05-02T07:19:05.999Z</time></trkpt><trkpt lat="42.21580893566744" lon="13.819515700576533"><ele>319.0</ele><time>2026-05-02T07:19:06.999Z</time></trkpt><trkpt lat="42.21575876427443" lon="13.819597500296892"><ele>319.0</ele><time>2026-05-02T07:19:07.999Z</time></trkpt><trkpt lat="42.21570454522521" lon="13.819683026476508"><ele>319.0</ele><time>2026-05-02T07:19:08.999Z</time></trkpt><trkpt lat="42.21565100534261" lon="13.819766398760384"><ele>319.0</ele><time>2026-05-02T07:19:09.999Z</time></trkpt><trkpt lat="42.21559830963658" lon="13.819846841479958"><ele>319.0</ele><time>2026-05-02T07:19:10.999Z</time></trkpt><trkpt lat="42.21554539967116" lon="13.81992665659314"><ele>319.0</ele><time>2026-05-02T07:19:11.999Z</time></trkpt><trkpt lat="42.215490881797464" lon="13.820006210886591"><ele>319.0</ele><time>2026-05-02T07:19:12.999Z</time></trkpt><trkpt lat="42.21543180690805" lon="13.820086399808549"><ele>319.0</ele><time>2026-05-02T07:19:13.999Z</time></trkpt><trkpt lat="42.2153756517407" lon="13.820169476292525"><ele>319.0</ele><time>2026-05-02T07:19:14.999Z</time></trkpt><trkpt lat="42.215321558156155" lon="13.820254105254808"><ele>319.0</ele><time>2026-05-02T07:19:15.999Z</time></trkpt><trkpt lat="42.2152654888567" lon="13.820335482889481"><ele>319.0</ele><time>2026-05-02T07:19:16.999Z</time></trkpt><trkpt lat="42.215206246289625" lon="13.82042151098646"><ele>319.0</ele><time>2026-05-02T07:19:17.999Z</time></trkpt><trkpt lat="42.21514793346353" lon="13.820510775025756"><ele>319.0</ele><time>2026-05-02T07:19:19Z</time></trkpt><trkpt lat="42.215088110616286" lon="13.820600983267646"><ele>319.0</ele><time>2026-05-02T07:19:20Z</time></trkpt><trkpt lat="42.215029613260704" lon="13.820688605085053"><ele>319.0</ele><time>2026-05-02T07:19:21Z</time></trkpt><trkpt lat="42.21497408523723" lon="13.820764414786364"><ele>319.0</ele><time>2026-05-02T07:19:22Z</time></trkpt><trkpt lat="42.214924880520755" lon="13.820838513368082"><ele>319.0</ele><time>2026-05-02T07:19:23Z</time></trkpt><trkpt lat="42.214881987412646" lon="13.820910635347788"><ele>319.0</ele><time>2026-05-02T07:19:24Z</time></trkpt><trkpt lat="42.21479832442262" lon="13.82103001870924"><ele>319.0</ele><time>2026-05-02T07:19:26Z</time></trkpt><trkpt lat="42.214757187359886" lon="13.821097235369692"><ele>319.0</ele><time>2026-05-02T07:19:27Z</time></trkpt><trkpt lat="42.21470805949948" lon="13.821180303947523"><ele>319.0</ele><time>2026-05-02T07:19:28Z</time></trkpt><trkpt lat="42.21465395584639" lon="13.82126799305833"><ele>319.0</ele><time>2026-05-02T07:19:29Z</time></trkpt><trkpt lat="42.2145899746326" lon="13.821364530571081"><ele>319.0</ele><time>2026-05-02T07:19:30Z</time></trkpt><trkpt lat="42.21453349634901" lon="13.821453055470935"><ele>319.0</ele><time>2026-05-02T07:19:31Z</time></trkpt><trkpt lat="42.21447654986373" lon="13.821547332061247"><ele>319.0</ele><time>2026-05-02T07:19:32Z</time></trkpt><trkpt lat="42.21441276291773" lon="13.821638075550204"><ele>319.0</ele><time>2026-05-02T07:19:33Z</time></trkpt><trkpt lat="42.21434370115879" lon="13.821725349644144"><ele>319.0</ele><time>2026-05-02T07:19:34Z</time></trkpt><trkpt lat="42.21426006359502" lon="13.821797393740336"><ele>318.59999999999997</ele><time>2026-05-02T07:19:35Z</time></trkpt><trkpt lat="42.214201695056914" lon="13.821865641961825"><ele>318.2</ele><time>2026-05-02T07:19:36Z</time></trkpt><trkpt lat="42.21414238698328" lon="13.821924372697126"><ele>317.79999999999995</ele><time>2026-05-02T07:19:37Z</time></trkpt><trkpt lat="42.21404109964153" lon="13.821990473925274"><ele>317.4</ele><time>2026-05-02T07:19:39Z</time></trkpt><trkpt lat="42.21397348794948" lon="13.822095461237005"><ele>317.0</ele><time>2026-05-02T07:19:41Z</time></trkpt><trkpt lat="42.21399708875317" lon="13.822245260302731"><ele>317.0</ele><time>2026-05-02T07:19:43Z</time></trkpt><trkpt lat="42.21404728962239" lon="13.822310769123138"><ele>317.0</ele><time>2026-05-02T07:19:44Z</time></trkpt><trkpt lat="42.2141058082395" lon="13.822371374731674"><ele>317.0</ele><time>2026-05-02T07:19:45Z</time></trkpt><trkpt lat="42.21415264925925" lon="13.822443971135586"><ele>317.0</ele><time>2026-05-02T07:19:46Z</time></trkpt><trkpt lat="42.21419078737245" lon="13.822527481082114"><ele>317.0</ele><time>2026-05-02T07:19:47Z</time></trkpt><trkpt lat="42.214234884802885" lon="13.822604089607598"><ele>317.0</ele><time>2026-05-02T07:19:48Z</time></trkpt><trkpt lat="42.21429332724287" lon="13.822674158326338"><ele>317.0</ele><time>2026-05-02T07:19:49Z</time></trkpt><trkpt lat="42.21435218737713" lon="13.822738932357526"><ele>317.0</ele><time>2026-05-02T07:19:50Z</time></trkpt><trkpt lat="42.21442294761852" lon="13.822792244591954"><ele>317.0</ele><time>2026-05-02T07:19:51Z</time></trkpt><trkpt lat="42.214508817812664" lon="13.822820199564761"><ele>317.0</ele><time>2026-05-02T07:19:52Z</time></trkpt><trkpt lat="42.21459724426273" lon="13.822822857362329"><ele>317.0</ele><time>2026-05-02T07:19:53Z</time></trkpt><trkpt lat="42.21469873609349" lon="13.822788346010176"><ele>317.0</ele><time>2026-05-02T07:19:54Z</time></trkpt><trkpt lat="42.21480525733004" lon="13.82273341727189"><ele>317.0</ele><time>2026-05-02T07:19:55Z</time></trkpt><trkpt lat="42.214904019676126" lon="13.822664547619235"><ele>317.0</ele><time>2026-05-02T07:19:56Z</time></trkpt><trkpt lat="42.21500640957282" lon="13.822600470584689"><ele>317.0</ele><time>2026-05-02T07:19:57Z</time></trkpt><trkpt lat="42.2151119917132" lon="13.822544237498931"><ele>317.0</ele><time>2026-05-02T07:19:58Z</time></trkpt><trkpt lat="42.21520483719075" lon="13.822493012642987"><ele>317.0</ele><time>2026-05-02T07:19:59Z</time></trkpt><trkpt lat="42.21529586928483" lon="13.822434718683308"><ele>317.0</ele><time>2026-05-02T07:19:59.999Z</time></trkpt><trkpt lat="42.21538248392646" lon="13.822381754457494"><ele>317.0</ele><time>2026-05-02T07:20:00.999Z</time></trkpt><trkpt lat="42.21546517791718" lon="13.82234195654155"><ele>317.0</ele><time>2026-05-02T07:20:01.999Z</time></trkpt><trkpt lat="42.21554607232368" lon="13.822318568399012"><ele>317.0</ele><time>2026-05-02T07:20:02.999Z</time></trkpt><trkpt lat="42.21562208795876" lon="13.822313077483189"><ele>317.0</ele><time>2026-05-02T07:20:03.999Z</time></trkpt><trkpt lat="42.21569688261999" lon="13.822317931583916"><ele>317.0</ele><time>2026-05-02T07:20:04.999Z</time></trkpt><trkpt lat="42.21577341165021" lon="13.82234061679098"><ele>316.6666666666667</ele><time>2026-05-02T07:20:05.999Z</time></trkpt><trkpt lat="42.2158459649665" lon="13.822380638586628"><ele>316.33333333333337</ele><time>2026-05-02T07:20:06.999Z</time></trkpt><trkpt lat="42.215922326241746" lon="13.822439559599717"><ele>316.0</ele><time>2026-05-02T07:20:07.999Z</time></trkpt><trkpt lat="42.215986766244434" lon="13.822529180684574"><ele>315.6666666666667</ele><time>2026-05-02T07:20:08.999Z</time></trkpt><trkpt lat="42.2160376373563" lon="13.822632065306028"><ele>315.3333333333333</ele><time>2026-05-02T07:20:09.999Z</time></trkpt><trkpt lat="42.216080315484824" lon="13.82274085296371"><ele>315.0</ele><time>2026-05-02T07:20:10.999Z</time></trkpt><trkpt lat="42.216115959364664" lon="13.822851275162353"><ele>314.6</ele><time>2026-05-02T07:20:11.999Z</time></trkpt><trkpt lat="42.21615858579343" lon="13.82295942991558"><ele>314.2</ele><time>2026-05-02T07:20:12.999Z</time></trkpt><trkpt lat="42.21621078235527" lon="13.82306615662976"><ele>313.8</ele><time>2026-05-02T07:20:13.999Z</time></trkpt><trkpt lat="42.216270453475715" lon="13.82318115416824"><ele>313.4</ele><time>2026-05-02T07:20:14.999Z</time></trkpt><trkpt lat="42.21632365005186" lon="13.82330172407727"><ele>313.0</ele><time>2026-05-02T07:20:15.999Z</time></trkpt><trkpt lat="42.21637052545552" lon="13.82342753314497"><ele>313.16666666666663</ele><time>2026-05-02T07:20:16.999Z</time></trkpt><trkpt lat="42.21641795748307" lon="13.823550146727591"><ele>313.3333333333333</ele><time>2026-05-02T07:20:17.999Z</time></trkpt><trkpt lat="42.21646907373082" lon="13.823662283847629"><ele>313.5</ele><time>2026-05-02T07:20:18.999Z</time></trkpt><trkpt lat="42.21651689003502" lon="13.823761656583926"><ele>313.6666666666667</ele><time>2026-05-02T07:20:19.999Z</time></trkpt><trkpt lat="42.21655575027775" lon="13.823854343599924"><ele>313.83333333333337</ele><time>2026-05-02T07:20:20.999Z</time></trkpt><trkpt lat="42.216593092351026" lon="13.823942809956824"><ele>314.0</ele><time>2026-05-02T07:20:21.999Z</time></trkpt><trkpt lat="42.21663544957691" lon="13.824044495415981"><ele>314.83333333333337</ele><time>2026-05-02T07:20:22.999Z</time></trkpt><trkpt lat="42.216675036955806" lon="13.824137102288343"><ele>315.6666666666667</ele><time>2026-05-02T07:20:23.999Z</time></trkpt><trkpt lat="42.21671041616716" lon="13.8242116348746"><ele>316.5</ele><time>2026-05-02T07:20:24.999Z</time></trkpt><trkpt lat="42.21676792701422" lon="13.824348376812821"><ele>317.3333333333333</ele><time>2026-05-02T07:20:26.999Z</time></trkpt><trkpt lat="42.216828691065196" lon="13.824495083677913"><ele>318.16666666666663</ele><time>2026-05-02T07:20:28.999Z</time></trkpt><trkpt lat="42.2168622855067" lon="13.824568121829795"><ele>319.0</ele><time>2026-05-02T07:20:29.999Z</time></trkpt><trkpt lat="42.21692244765977" lon="13.82471007400043"><ele>319.6</ele><time>2026-05-02T07:20:31.999Z</time></trkpt><trkpt lat="42.21697419680786" lon="13.824850173037692"><ele>320.2</ele><time>2026-05-02T07:20:33.999Z</time></trkpt><trkpt lat="42.21701261673663" lon="13.824989440474248"><ele>320.8</ele><time>2026-05-02T07:20:35.999Z</time></trkpt><trkpt lat="42.21705805583327" lon="13.825054025431614"><ele>321.40000000000003</ele><time>2026-05-02T07:20:36.999Z</time></trkpt><trkpt lat="42.2171351924341" lon="13.825098696813958"><ele>322.0</ele><time>2026-05-02T07:20:37.999Z</time></trkpt><trkpt lat="42.21723354618338" lon="13.825125981372999"><ele>323.8</ele><time>2026-05-02T07:20:38.999Z</time></trkpt><trkpt lat="42.217347085653074" lon="13.825150016383589"><ele>325.6</ele><time>2026-05-02T07:20:39.999Z</time></trkpt><trkpt lat="42.21745736846596" lon="13.825168220275229"><ele>327.40000000000003</ele><time>2026-05-02T07:20:40.999Z</time></trkpt><trkpt lat="42.21756277872319" lon="13.825184011768414"><ele>329.20000000000005</ele><time>2026-05-02T07:20:41.999Z</time></trkpt><trkpt lat="42.21764200576532" lon="13.825232492233102"><ele>331.0</ele><time>2026-05-02T07:20:42.999Z</time></trkpt><trkpt lat="42.21770298770464" lon="13.825322740165442"><ele>331.0</ele><time>2026-05-02T07:20:43.999Z</time></trkpt><trkpt lat="42.217739255457836" lon="13.825434963375553"><ele>331.0</ele><time>2026-05-02T07:20:44.999Z</time></trkpt><trkpt lat="42.21775039781403" lon="13.825552988835613"><ele>331.0</ele><time>2026-05-02T07:20:45.999Z</time></trkpt><trkpt lat="42.217723768053446" lon="13.825667137144487"><ele>331.0</ele><time>2026-05-02T07:20:46.999Z</time></trkpt><trkpt lat="42.217675865279865" lon="13.825777597336058"><ele>331.0</ele><time>2026-05-02T07:20:47.999Z</time></trkpt><trkpt lat="42.21760287375243" lon="13.825883255188655"><ele>331.0</ele><time>2026-05-02T07:20:48.999Z</time></trkpt><trkpt lat="42.21752948168379" lon="13.825977914745538"><ele>331.0</ele><time>2026-05-02T07:20:49.999Z</time></trkpt><trkpt lat="42.21745804183678" lon="13.82607281023032"><ele>331.0</ele><time>2026-05-02T07:20:50.999Z</time></trkpt><trkpt lat="42.21739321420786" lon="13.82617028701263"><ele>331.0</ele><time>2026-05-02T07:20:51.999Z</time></trkpt><trkpt lat="42.21733997711751" lon="13.826261512953161"><ele>331.0</ele><time>2026-05-02T07:20:52.999Z</time></trkpt><trkpt lat="42.21731716677214" lon="13.826342329385184"><ele>331.0</ele><time>2026-05-02T07:20:53.999Z</time></trkpt><trkpt lat="42.217365156401065" lon="13.826497278840927"><ele>333.20000000000005</ele><time>2026-05-02T07:20:55.999Z</time></trkpt><trkpt lat="42.2174334712545" lon="13.826558225058378"><ele>335.40000000000003</ele><time>2026-05-02T07:20:56.999Z</time></trkpt><trkpt lat="42.217525681277316" lon="13.82660790533313"><ele>337.6</ele><time>2026-05-02T07:20:57.999Z</time></trkpt><trkpt lat="42.217616734698716" lon="13.826657702621775"><ele>339.8</ele><time>2026-05-02T07:20:58.999Z</time></trkpt><trkpt lat="42.21770147776371" lon="13.826711440195314"><ele>342.0</ele><time>2026-05-02T07:20:59.999Z</time></trkpt><trkpt lat="42.21777454854281" lon="13.826774818109294"><ele>343.40000000000003</ele><time>2026-05-02T07:21:00.999Z</time></trkpt><trkpt lat="42.217834062470445" lon="13.826852095085188"><ele>344.8</ele><time>2026-05-02T07:21:01.999Z</time></trkpt><trkpt lat="42.21786781806541" lon="13.826952313210967"><ele>346.2</ele><time>2026-05-02T07:21:02.999Z</time></trkpt><trkpt lat="42.21787807828693" lon="13.827082064725074"><ele>347.6</ele><time>2026-05-02T07:21:03.999Z</time></trkpt><trkpt lat="42.217872349224315" lon="13.827229520347107"><ele>349.0</ele><time>2026-05-02T07:21:04.999Z</time></trkpt><trkpt lat="42.21786525977888" lon="13.827352360807154"><ele>349.0</ele><time>2026-05-02T07:21:05.999Z</time></trkpt><trkpt lat="42.21784621946376" lon="13.827446018071335"><ele>349.0</ele><time>2026-05-02T07:21:06.999Z</time></trkpt><trkpt lat="42.217854157690574" lon="13.827608845808879"><ele>349.0</ele><time>2026-05-02T07:21:08.999Z</time></trkpt><trkpt lat="42.21786283955935" lon="13.827755472897964"><ele>349.0</ele><time>2026-05-02T07:21:10.999Z</time></trkpt><trkpt lat="42.21787322829942" lon="13.82791918426971"><ele>349.0</ele><time>2026-05-02T07:21:12.999Z</time></trkpt><trkpt lat="42.21789544052324" lon="13.82800553607277"><ele>349.99999999999994</ele><time>2026-05-02T07:21:13.999Z</time></trkpt><trkpt lat="42.21790273092021" lon="13.82809922350385"><ele>351.0</ele><time>2026-05-02T07:21:14.999Z</time></trkpt><trkpt lat="42.21790903136341" lon="13.82819016014879"><ele>352.0</ele><time>2026-05-02T07:21:15.999Z</time></trkpt><trkpt lat="42.21791519812029" lon="13.828280385630807"><ele>353.0</ele><time>2026-05-02T07:21:16.999Z</time></trkpt><trkpt lat="42.21792207431936" lon="13.828373475548604"><ele>354.0</ele><time>2026-05-02T07:21:17.999Z</time></trkpt><trkpt lat="42.21793064151493" lon="13.828463303660708"><ele>354.99999999999994</ele><time>2026-05-02T07:21:18.999Z</time></trkpt><trkpt lat="42.21792406302254" lon="13.828559771215284"><ele>356.0</ele><time>2026-05-02T07:21:19.999Z</time></trkpt><trkpt lat="42.21793233951214" lon="13.828654059821089"><ele>357.0</ele><time>2026-05-02T07:21:20.999Z</time></trkpt><trkpt lat="42.2179442541326" lon="13.828789795262365"><ele>358.0</ele><time>2026-05-02T07:21:22.999Z</time></trkpt><trkpt lat="42.217980578573" lon="13.82890699807081"><ele>359.0</ele><time>2026-05-02T07:21:25Z</time></trkpt><trkpt lat="42.21799505381036" lon="13.829055533044835"><ele>360.0</ele><time>2026-05-02T07:21:27Z</time></trkpt><trkpt lat="42.21801013748006" lon="13.82920385812429"><ele>361.0</ele><time>2026-05-02T07:21:29Z</time></trkpt><trkpt lat="42.21802592850752" lon="13.829361780288098"><ele>361.5</ele><time>2026-05-02T07:21:31Z</time></trkpt><trkpt lat="42.21803342158581" lon="13.829519533588517"><ele>362.0</ele><time>2026-05-02T07:21:33Z</time></trkpt><trkpt lat="42.21803043096693" lon="13.829605876600933"><ele>362.5</ele><time>2026-05-02T07:21:34Z</time></trkpt><trkpt lat="42.21801004065718" lon="13.829766131402605"><ele>363.0</ele><time>2026-05-02T07:21:36Z</time></trkpt><trkpt lat="42.21799624490168" lon="13.829854582945545"><ele>363.5</ele><time>2026-05-02T07:21:37Z</time></trkpt><trkpt lat="42.217974895605025" lon="13.829958070301776"><ele>364.0</ele><time>2026-05-02T07:21:38Z</time></trkpt><trkpt lat="42.21794421851815" lon="13.830064666666509"><ele>364.8333333333333</ele><time>2026-05-02T07:21:39Z</time></trkpt><trkpt lat="42.217905254388" lon="13.830165831564377"><ele>365.66666666666663</ele><time>2026-05-02T07:21:40Z</time></trkpt><trkpt lat="42.21786542247894" lon="13.83025738387463"><ele>366.5</ele><time>2026-05-02T07:21:41Z</time></trkpt><trkpt lat="42.2178286466803" lon="13.830346050693562"><ele>367.3333333333333</ele><time>2026-05-02T07:21:42Z</time></trkpt><trkpt lat="42.217799709297545" lon="13.830421871882866"><ele>368.1666666666667</ele><time>2026-05-02T07:21:43Z</time></trkpt><trkpt lat="42.21773580852148" lon="13.830538772511993"><ele>369.0</ele><time>2026-05-02T07:21:45Z</time></trkpt><trkpt lat="42.217709663119884" lon="13.830619725813646"><ele>369.0</ele><time>2026-05-02T07:21:46Z</time></trkpt><trkpt lat="42.21768208378171" lon="13.83070732668665"><ele>369.0</ele><time>2026-05-02T07:21:47Z</time></trkpt><trkpt lat="42.217654570754235" lon="13.830798264096831"><ele>369.0</ele><time>2026-05-02T07:21:48Z</time></trkpt><trkpt lat="42.21762618305747" lon="13.83089405027023"><ele>369.0</ele><time>2026-05-02T07:21:49Z</time></trkpt><trkpt lat="42.217598272872685" lon="13.830991337590884"><ele>369.0</ele><time>2026-05-02T07:21:50Z</time></trkpt><trkpt lat="42.217587858900266" lon="13.83109273354379"><ele>369.0</ele><time>2026-05-02T07:21:51Z</time></trkpt><trkpt lat="42.2175605921556" lon="13.831174253958393"><ele>369.0</ele><time>2026-05-02T07:21:52Z</time></trkpt><trkpt lat="42.21754240823568" lon="13.831257483854772"><ele>369.6</ele><time>2026-05-02T07:21:54Z</time></trkpt><trkpt lat="42.21756363640633" lon="13.831358425698681"><ele>370.2</ele><time>2026-05-02T07:22:40.999Z</time></trkpt><trkpt lat="42.21762854631999" lon="13.831402431552053"><ele>370.8</ele><time>2026-05-02T07:22:42.999Z</time></trkpt><trkpt lat="42.21773989013127" lon="13.831448899176202"><ele>371.40000000000003</ele><time>2026-05-02T07:22:44.999Z</time></trkpt><trkpt lat="42.217863674099874" lon="13.831463160553575"><ele>372.0</ele><time>2026-05-02T07:22:46.999Z</time></trkpt><trkpt lat="42.21798384265983" lon="13.831481208985444"><ele>372.0</ele><time>2026-05-02T07:22:48.999Z</time></trkpt><trkpt lat="42.21809777550358" lon="13.831502805109272"><ele>372.0</ele><time>2026-05-02T07:22:50.999Z</time></trkpt><trkpt lat="42.21819819545294" lon="13.831495450090745"><ele>372.0</ele><time>2026-05-02T07:22:52.999Z</time></trkpt><trkpt lat="42.21827374864597" lon="13.831394183808644"><ele>372.0</ele><time>2026-05-02T07:22:54.999Z</time></trkpt><trkpt lat="42.21828399712745" lon="13.831232294981449"><ele>372.0</ele><time>2026-05-02T07:22:56.999Z</time></trkpt><trkpt lat="42.2182218723039" lon="13.831110056002194"><ele>372.0</ele><time>2026-05-02T07:22:58.999Z</time></trkpt><trkpt lat="42.218147057713665" lon="13.831026570975695"><ele>372.0</ele><time>2026-05-02T07:23:00.999Z</time></trkpt><trkpt lat="42.218184234610824" lon="13.830911394248325"><ele>372.0</ele><time>2026-05-02T07:23:02.999Z</time></trkpt><trkpt lat="42.21822552170813" lon="13.830821822264157"><ele>372.0</ele><time>2026-05-02T07:23:04.999Z</time></trkpt><trkpt lat="42.218253309460685" lon="13.830677109798955"><ele>372.0</ele><time>2026-05-02T07:23:06.999Z</time></trkpt><trkpt lat="42.21827585940156" lon="13.830533056563338"><ele>370.6</ele><time>2026-05-02T07:23:08.999Z</time></trkpt><trkpt lat="42.21827781745058" lon="13.830402511572405"><ele>369.20000000000005</ele><time>2026-05-02T07:23:13.999Z</time></trkpt><trkpt lat="42.21834758161834" lon="13.830358308182717"><ele>367.8</ele><time>2026-05-02T07:23:16.999Z</time></trkpt><trkpt lat="42.21842149402364" lon="13.830388830850557"><ele>366.4</ele><time>2026-05-02T07:23:18.999Z</time></trkpt><trkpt lat="42.21853954074084" lon="13.830459412979753"><ele>365.0</ele><time>2026-05-02T07:23:21.999Z</time></trkpt><trkpt lat="42.21860957379049" lon="13.830514967933617"><ele>365.0</ele><time>2026-05-02T07:23:22.999Z</time></trkpt><trkpt lat="42.218720556412045" lon="13.830553003097409"><ele>365.0</ele><time>2026-05-02T07:23:25.999Z</time></trkpt><trkpt lat="42.21883979505217" lon="13.830622102215472"><ele>365.0</ele><time>2026-05-02T07:23:27.999Z</time></trkpt><trkpt lat="42.21893625432977" lon="13.830626665174677"><ele>365.0</ele><time>2026-05-02T07:23:30Z</time></trkpt><trkpt lat="42.219002173423526" lon="13.83068206305253"><ele>365.0</ele><time>2026-05-02T07:23:32Z</time></trkpt><trkpt lat="42.219066994578355" lon="13.830642414909098"><ele>367.4</ele><time>2026-05-02T07:23:35Z</time></trkpt><trkpt lat="42.2191386853382" lon="13.830573061567332"><ele>369.8</ele><time>2026-05-02T07:23:38Z</time></trkpt><trkpt lat="42.21920258993944" lon="13.83049512807963"><ele>372.20000000000005</ele><time>2026-05-02T07:23:40Z</time></trkpt><trkpt lat="42.21925291436114" lon="13.830437133280908"><ele>374.6</ele><time>2026-05-02T07:23:42Z</time></trkpt><trkpt lat="42.219316442215074" lon="13.830369604194237"><ele>377.0</ele><time>2026-05-02T07:23:44Z</time></trkpt><trkpt lat="42.219440082292735" lon="13.830310546750312"><ele>377.0</ele><time>2026-05-02T07:23:47Z</time></trkpt><trkpt lat="42.21952158898902" lon="13.830325417563069"><ele>377.0</ele><time>2026-05-02T07:23:50Z</time></trkpt><trkpt lat="42.219594017802486" lon="13.830305626799474"><ele>377.0</ele><time>2026-05-02T07:23:52Z</time></trkpt><trkpt lat="42.21964389184247" lon="13.830252336815041"><ele>377.0</ele><time>2026-05-02T07:23:54Z</time></trkpt><trkpt lat="42.21974997260141" lon="13.83023120869107"><ele>377.0</ele><time>2026-05-02T07:23:56Z</time></trkpt><trkpt lat="42.21987395815435" lon="13.830232243881762"><ele>378.0</ele><time>2026-05-02T07:23:58Z</time></trkpt><trkpt lat="42.21996411450001" lon="13.830211137622351"><ele>379.0</ele><time>2026-05-02T07:24:01Z</time></trkpt><trkpt lat="42.220062325961074" lon="13.830203519164856"><ele>380.0</ele><time>2026-05-02T07:24:04Z</time></trkpt><trkpt lat="42.22014456839144" lon="13.830247053880731"><ele>381.0</ele><time>2026-05-02T07:24:06Z</time></trkpt><trkpt lat="42.22020201010789" lon="13.830130210689784"><ele>382.0</ele><time>2026-05-02T07:24:36.999Z</time></trkpt><trkpt lat="42.220250612012066" lon="13.83005987342773"><ele>382.0</ele><time>2026-05-02T07:24:37.999Z</time></trkpt><trkpt lat="42.220311379621535" lon="13.829966247237119"><ele>382.0</ele><time>2026-05-02T07:24:39.999Z</time></trkpt><trkpt lat="42.2203819573702" lon="13.829847337285207"><ele>382.0</ele><time>2026-05-02T07:24:41.999Z</time></trkpt><trkpt lat="42.22046913199705" lon="13.829731914144308"><ele>382.0</ele><time>2026-05-02T07:24:43.999Z</time></trkpt><trkpt lat="42.22052531681913" lon="13.829674135868412"><ele>382.0</ele><time>2026-05-02T07:24:44.999Z</time></trkpt><trkpt lat="42.220578105969224" lon="13.82961640033485"><ele>382.0</ele><time>2026-05-02T07:24:45.999Z</time></trkpt><trkpt lat="42.22063161224097" lon="13.829570279987749"><ele>382.0</ele><time>2026-05-02T07:24:46.999Z</time></trkpt><trkpt lat="42.22068683523763" lon="13.829526871681693"><ele>382.0</ele><time>2026-05-02T07:24:47.999Z</time></trkpt><trkpt lat="42.22074159681559" lon="13.829481877987057"><ele>382.0</ele><time>2026-05-02T07:24:48.999Z</time></trkpt><trkpt lat="42.220795200689004" lon="13.829432986512494"><ele>382.0</ele><time>2026-05-02T07:24:49.999Z</time></trkpt><trkpt lat="42.22085497913576" lon="13.829391825359583"><ele>382.0</ele><time>2026-05-02T07:24:50.999Z</time></trkpt><trkpt lat="42.22092045221078" lon="13.829346356396297"><ele>382.0</ele><time>2026-05-02T07:24:51.999Z</time></trkpt><trkpt lat="42.22098640966632" lon="13.829301049466006"><ele>381.0</ele><time>2026-05-02T07:24:52.999Z</time></trkpt><trkpt lat="42.22104751433009" lon="13.829260221827647"><ele>380.0</ele><time>2026-05-02T07:24:53.999Z</time></trkpt><trkpt lat="42.221140984678854" lon="13.829199875885834"><ele>379.0</ele><time>2026-05-02T07:24:55.999Z</time></trkpt><trkpt lat="42.221205544625" lon="13.829129704898149"><ele>378.0</ele><time>2026-05-02T07:24:57.999Z</time></trkpt><trkpt lat="42.22123640511988" lon="13.829054237123204"><ele>377.0</ele><time>2026-05-02T07:24:59.999Z</time></trkpt><trkpt lat="42.221282067282175" lon="13.828911177599208"><ele>376.0</ele><time>2026-05-02T07:25:01.999Z</time></trkpt><trkpt lat="42.221337868598575" lon="13.828858338118602"><ele>376.0</ele><time>2026-05-02T07:25:02.999Z</time></trkpt><trkpt lat="42.221393589115685" lon="13.828805568258945"><ele>376.0</ele><time>2026-05-02T07:25:03.999Z</time></trkpt><trkpt lat="42.22146223366734" lon="13.82868121936054"><ele>376.0</ele><time>2026-05-02T07:25:05.999Z</time></trkpt><trkpt lat="42.221505627795864" lon="13.828613914942704"><ele>376.0</ele><time>2026-05-02T07:25:06.999Z</time></trkpt><trkpt lat="42.221559147041766" lon="13.828558077350179"><ele>376.0</ele><time>2026-05-02T07:25:07.999Z</time></trkpt><trkpt lat="42.221677472658016" lon="13.828494283898406"><ele>376.0</ele><time>2026-05-02T07:25:09.999Z</time></trkpt><trkpt lat="42.221729466009684" lon="13.828439840307698"><ele>374.66666666666663</ele><time>2026-05-02T07:25:11.999Z</time></trkpt><trkpt lat="42.22172225498186" lon="13.828349895954764"><ele>373.3333333333333</ele><time>2026-05-02T07:25:13.999Z</time></trkpt><trkpt lat="42.22175249602126" lon="13.828263035236604"><ele>372.0</ele><time>2026-05-02T07:25:15.999Z</time></trkpt><trkpt lat="42.22180694366318" lon="13.828210548403579"><ele>370.6666666666667</ele><time>2026-05-02T07:25:17.999Z</time></trkpt><trkpt lat="42.22181876562265" lon="13.82810242256899"><ele>369.33333333333337</ele><time>2026-05-02T07:25:19.999Z</time></trkpt><trkpt lat="42.22186174241486" lon="13.828021848263651"><ele>368.0</ele><time>2026-05-02T07:25:21.999Z</time></trkpt><trkpt lat="42.221949871743504" lon="13.827959117228929"><ele>368.0</ele><time>2026-05-02T07:25:23.999Z</time></trkpt><trkpt lat="42.22205398730521" lon="13.827860683606982"><ele>368.0</ele><time>2026-05-02T07:25:25.999Z</time></trkpt><trkpt lat="42.22215560665218" lon="13.827824607656328"><ele>368.0</ele><time>2026-05-02T07:25:27.999Z</time></trkpt><trkpt lat="42.22224805018676" lon="13.827782907765966"><ele>368.0</ele><time>2026-05-02T07:25:29.999Z</time></trkpt><trkpt lat="42.222345802219095" lon="13.827711725439748"><ele>368.0</ele><time>2026-05-02T07:25:31.999Z</time></trkpt><trkpt lat="42.222449400040084" lon="13.827641765454883"><ele>367.0</ele><time>2026-05-02T07:25:33.999Z</time></trkpt><trkpt lat="42.22251011166703" lon="13.827610723969284"><ele>366.0</ele><time>2026-05-02T07:25:35Z</time></trkpt><trkpt lat="42.22260168504446" lon="13.82759749869939"><ele>365.0</ele><time>2026-05-02T07:25:37Z</time></trkpt><trkpt lat="42.222665447927305" lon="13.827512369211775"><ele>364.0</ele><time>2026-05-02T07:25:39Z</time></trkpt><trkpt lat="42.22273226515829" lon="13.827463724152599"><ele>363.0</ele><time>2026-05-02T07:25:41Z</time></trkpt><trkpt lat="42.22281943714058" lon="13.827479474213776"><ele>362.0</ele><time>2026-05-02T07:25:43Z</time></trkpt><trkpt lat="42.2228880041037" lon="13.827504339693975"><ele>362.0</ele><time>2026-05-02T07:25:45Z</time></trkpt><trkpt lat="42.222976597493215" lon="13.827500643362209"><ele>362.0</ele><time>2026-05-02T07:25:48Z</time></trkpt><trkpt lat="42.22306526358211" lon="13.827500558570472"><ele>362.0</ele><time>2026-05-02T07:25:50Z</time></trkpt><trkpt lat="42.223155397240525" lon="13.827478933732358"><ele>362.0</ele><time>2026-05-02T07:25:52Z</time></trkpt><trkpt lat="42.223236977453276" lon="13.827457083972925"><ele>362.0</ele><time>2026-05-02T07:25:54Z</time></trkpt><trkpt lat="42.22330505300511" lon="13.82739361999545"><ele>362.0</ele><time>2026-05-02T07:25:56Z</time></trkpt><trkpt lat="42.22337683242167" lon="13.827332600248175"><ele>364.20000000000005</ele><time>2026-05-02T07:25:58Z</time></trkpt><trkpt lat="42.223504295946086" lon="13.827320022668122"><ele>366.4</ele><time>2026-05-02T07:26:00Z</time></trkpt><trkpt lat="42.223576135558766" lon="13.827297248976459"><ele>368.6</ele><time>2026-05-02T07:26:01Z</time></trkpt><trkpt lat="42.22368479788148" lon="13.827263013891335"><ele>370.79999999999995</ele><time>2026-05-02T07:26:03Z</time></trkpt><trkpt lat="42.22374500705118" lon="13.827205455856731"><ele>373.0</ele><time>2026-05-02T07:26:05Z</time></trkpt><trkpt lat="42.22378995136725" lon="13.827088866410236"><ele>373.0</ele><time>2026-05-02T07:26:07Z</time></trkpt><trkpt lat="42.22376492114825" lon="13.826975676366576"><ele>373.0</ele><time>2026-05-02T07:26:09Z</time></trkpt><trkpt lat="42.22377477288165" lon="13.826840645936764"><ele>373.0</ele><time>2026-05-02T07:26:11Z</time></trkpt><trkpt lat="42.22378647329378" lon="13.826701314359953"><ele>373.0</ele><time>2026-05-02T07:26:13Z</time></trkpt><trkpt lat="42.223776156534186" lon="13.826594594551354"><ele>373.0</ele><time>2026-05-02T07:26:15Z</time></trkpt><trkpt lat="42.22372839901377" lon="13.826484088162228"><ele>369.79999999999995</ele><time>2026-05-02T07:26:17Z</time></trkpt><trkpt lat="42.223686470600484" lon="13.82636254430033"><ele>366.6</ele><time>2026-05-02T07:26:19Z</time></trkpt><trkpt lat="42.22366254311061" lon="13.826270461858554"><ele>363.4</ele><time>2026-05-02T07:26:21Z</time></trkpt><trkpt lat="42.22364554230476" lon="13.826137701500878"><ele>360.20000000000005</ele><time>2026-05-02T07:26:23Z</time></trkpt><trkpt lat="42.223622862613524" lon="13.825973826501013"><ele>357.0</ele><time>2026-05-02T07:26:25Z</time></trkpt><trkpt lat="42.22362733556856" lon="13.82583865238922"><ele>356.3333333333333</ele><time>2026-05-02T07:26:27Z</time></trkpt><trkpt lat="42.223601075502586" lon="13.82574847286494"><ele>355.6666666666667</ele><time>2026-05-02T07:26:29Z</time></trkpt><trkpt lat="42.223547108875714" lon="13.825688399223976"><ele>355.0</ele><time>2026-05-02T07:26:31Z</time></trkpt><trkpt lat="42.223596871528684" lon="13.825585704015266"><ele>354.33333333333337</ele><time>2026-05-02T07:26:33.999Z</time></trkpt><trkpt lat="42.22366686731548" lon="13.825543183514647"><ele>353.6666666666667</ele><time>2026-05-02T07:26:35.999Z</time></trkpt><trkpt lat="42.22371338364188" lon="13.825447284305152"><ele>353.0</ele><time>2026-05-02T07:26:38.999Z</time></trkpt><trkpt lat="42.22375110894395" lon="13.825336344384493"><ele>353.0</ele><time>2026-05-02T07:26:41.999Z</time></trkpt><trkpt lat="42.223760258814416" lon="13.825238669775132"><ele>353.0</ele><time>2026-05-02T07:26:44.999Z</time></trkpt><trkpt lat="42.223824749335925" lon="13.825195171400253"><ele>353.0</ele><time>2026-05-02T07:26:46.999Z</time></trkpt><trkpt lat="42.2239038807425" lon="13.825103484407512"><ele>353.0</ele><time>2026-05-02T07:26:48.999Z</time></trkpt><trkpt lat="42.223984599698845" lon="13.825021198385993"><ele>353.0</ele><time>2026-05-02T07:26:50.999Z</time></trkpt><trkpt lat="42.22407192334794" lon="13.824973907093604"><ele>353.0</ele><time>2026-05-02T07:26:52.999Z</time></trkpt><trkpt lat="42.224160468884484" lon="13.824921714756456"><ele>353.33333333333337</ele><time>2026-05-02T07:26:54.999Z</time></trkpt><trkpt lat="42.224256053064614" lon="13.824914525356796"><ele>353.6666666666667</ele><time>2026-05-02T07:26:56.999Z</time></trkpt><trkpt lat="42.224334484029974" lon="13.824903522839625"><ele>354.0</ele><time>2026-05-02T07:26:58.999Z</time></trkpt><trkpt lat="42.224427683183826" lon="13.824924448195357"><ele>354.3333333333333</ele><time>2026-05-02T07:27:00.999Z</time></trkpt><trkpt lat="42.224492103463774" lon="13.824953425842024"><ele>354.66666666666663</ele><time>2026-05-02T07:27:01.999Z</time></trkpt><trkpt lat="42.22456703555046" lon="13.824990117839912"><ele>355.0</ele><time>2026-05-02T07:27:03.999Z</time></trkpt><trkpt lat="42.22465522190343" lon="13.825020355734484"><ele>355.0</ele><time>2026-05-02T07:27:05.999Z</time></trkpt><trkpt lat="42.22472061366528" lon="13.825071482940231"><ele>355.0</ele><time>2026-05-02T07:27:06.999Z</time></trkpt><trkpt lat="42.22478696809412" lon="13.825113637094653"><ele>355.0</ele><time>2026-05-02T07:27:07.999Z</time></trkpt><trkpt lat="42.22485200751804" lon="13.825151962139266"><ele>355.0</ele><time>2026-05-02T07:27:08.999Z</time></trkpt><trkpt lat="42.224914931599514" lon="13.825166701787131"><ele>355.0</ele><time>2026-05-02T07:27:09.999Z</time></trkpt><trkpt lat="42.22497814284227" lon="13.825183225087743"><ele>355.0</ele><time>2026-05-02T07:27:10.999Z</time></trkpt><trkpt lat="42.225076238485755" lon="13.82523169831821"><ele>357.2</ele><time>2026-05-02T07:27:12.999Z</time></trkpt><trkpt lat="42.22516995377166" lon="13.825310609931552"><ele>359.4</ele><time>2026-05-02T07:27:14.999Z</time></trkpt><trkpt lat="42.22526952063475" lon="13.825389891145617"><ele>361.6</ele><time>2026-05-02T07:27:16.999Z</time></trkpt><trkpt lat="42.22537666001183" lon="13.825441507649531"><ele>363.8</ele><time>2026-05-02T07:27:18.999Z</time></trkpt><trkpt lat="42.22548049096015" lon="13.825489197719964"><ele>366.0</ele><time>2026-05-02T07:27:20.999Z</time></trkpt><trkpt lat="42.22553205329613" lon="13.82556719478607"><ele>366.0</ele><time>2026-05-02T07:27:23.999Z</time></trkpt><trkpt lat="42.22555125206398" lon="13.825654176139045"><ele>366.0</ele><time>2026-05-02T07:27:24.999Z</time></trkpt><trkpt lat="42.22563442010548" lon="13.825683881119135"><ele>366.0</ele><time>2026-05-02T07:27:26.999Z</time></trkpt><trkpt lat="42.22574657214649" lon="13.825691846888407"><ele>366.0</ele><time>2026-05-02T07:27:29.999Z</time></trkpt><trkpt lat="42.22583895241116" lon="13.825706348861646"><ele>366.0</ele><time>2026-05-02T07:27:31.999Z</time></trkpt><trkpt lat="42.22595974692759" lon="13.82572060978038"><ele>365.8333333333333</ele><time>2026-05-02T07:27:33.999Z</time></trkpt><trkpt lat="42.226038677463784" lon="13.825743431813777"><ele>365.6666666666667</ele><time>2026-05-02T07:27:34.999Z</time></trkpt><trkpt lat="42.22612707504271" lon="13.825769163787129"><ele>365.5</ele><time>2026-05-02T07:27:36.999Z</time></trkpt><trkpt lat="42.226216618222026" lon="13.825792972055497"><ele>365.33333333333337</ele><time>2026-05-02T07:27:38.999Z</time></trkpt><trkpt lat="42.22629519065671" lon="13.825770416782674"><ele>365.1666666666667</ele><time>2026-05-02T07:27:41Z</time></trkpt><trkpt lat="42.22637496177487" lon="13.825745949292259"><ele>365.0</ele><time>2026-05-02T07:27:43Z</time></trkpt><trkpt lat="42.226467319778436" lon="13.82573801755563"><ele>366.6</ele><time>2026-05-02T07:27:45Z</time></trkpt><trkpt lat="42.22653929723841" lon="13.825728993792662"><ele>368.2</ele><time>2026-05-02T07:27:46Z</time></trkpt><trkpt lat="42.22665073488718" lon="13.825711778896013"><ele>369.79999999999995</ele><time>2026-05-02T07:27:48Z</time></trkpt><trkpt lat="42.226745530988445" lon="13.825686979082695"><ele>371.4</ele><time>2026-05-02T07:27:50Z</time></trkpt><trkpt lat="42.22683842755438" lon="13.82568020841284"><ele>373.0</ele><time>2026-05-02T07:27:52Z</time></trkpt><trkpt lat="42.22691107311704" lon="13.825638560894646"><ele>373.0</ele><time>2026-05-02T07:27:54Z</time></trkpt><trkpt lat="42.22697217614178" lon="13.825613931572919"><ele>373.0</ele><time>2026-05-02T07:27:56Z</time></trkpt><trkpt lat="42.227053378857356" lon="13.825603618743308"><ele>373.0</ele><time>2026-05-02T07:27:58Z</time></trkpt><trkpt lat="42.227156698374166" lon="13.82555501508107"><ele>373.0</ele><time>2026-05-02T07:28:00Z</time></trkpt><trkpt lat="42.227239816100465" lon="13.82554904813442"><ele>373.0</ele><time>2026-05-02T07:28:02Z</time></trkpt><trkpt lat="42.22730330158514" lon="13.825531550643671"><ele>373.0</ele><time>2026-05-02T07:28:05Z</time></trkpt><trkpt lat="42.227385730969445" lon="13.82553428228001"><ele>374.5</ele><time>2026-05-02T07:28:07Z</time></trkpt><trkpt lat="42.227450480588395" lon="13.825535448692907"><ele>376.0</ele><time>2026-05-02T07:28:09Z</time></trkpt><trkpt lat="42.22751496319771" lon="13.825526677020987"><ele>377.5</ele><time>2026-05-02T07:28:11Z</time></trkpt><trkpt lat="42.22758814969763" lon="13.82547608716865"><ele>379.0</ele><time>2026-05-02T07:28:14Z</time></trkpt><trkpt lat="42.227690365551545" lon="13.825502354933924"><ele>380.5</ele><time>2026-05-02T07:28:16Z</time></trkpt><trkpt lat="42.22777875871574" lon="13.825508316721173"><ele>382.0</ele><time>2026-05-02T07:28:18Z</time></trkpt><trkpt lat="42.22789092783871" lon="13.825515727588284"><ele>382.0</ele><time>2026-05-02T07:28:20Z</time></trkpt><trkpt lat="42.22797030599302" lon="13.825545286264278"><ele>382.0</ele><time>2026-05-02T07:28:22Z</time></trkpt><trkpt lat="42.22801591238082" lon="13.825610829054787"><ele>382.0</ele><time>2026-05-02T07:28:24Z</time></trkpt><trkpt lat="42.228076309588936" lon="13.82564213053644"><ele>382.0</ele><time>2026-05-02T07:28:27Z</time></trkpt><trkpt lat="42.22815187055584" lon="13.825684132603007"><ele>382.0</ele><time>2026-05-02T07:28:29Z</time></trkpt><trkpt lat="42.22822673014218" lon="13.825773540837702"><ele>382.0</ele><time>2026-05-02T07:28:32Z</time></trkpt><trkpt lat="42.22836911565846" lon="13.825880780378588"><ele>384.0</ele><time>2026-05-02T07:28:34Z</time></trkpt><trkpt lat="42.22843859486499" lon="13.825917959674381"><ele>386.0</ele><time>2026-05-02T07:28:36Z</time></trkpt><trkpt lat="42.22851313670836" lon="13.825962274646516"><ele>388.0</ele><time>2026-05-02T07:28:38.999Z</time></trkpt><trkpt lat="42.228576726262" lon="13.825973533354077"><ele>390.0</ele><time>2026-05-02T07:28:43.999Z</time></trkpt><trkpt lat="42.22862673796791" lon="13.825919739919142"><ele>392.00000000000006</ele><time>2026-05-02T07:29:51Z</time></trkpt><trkpt lat="42.228618158689876" lon="13.825821245549514"><ele>394.0</ele><time>2026-05-02T07:29:54Z</time></trkpt><trkpt lat="42.22860832307793" lon="13.825694257600452"><ele>394.00000000000006</ele><time>2026-05-02T07:29:57Z</time></trkpt><trkpt lat="42.22862645734117" lon="13.825601280285277"><ele>394.0</ele><time>2026-05-02T07:29:59Z</time></trkpt><trkpt lat="42.228653569992105" lon="13.825515930880375"><ele>394.0</ele><time>2026-05-02T07:30:01Z</time></trkpt><trkpt lat="42.22869731959461" lon="13.825411089116164"><ele>394.0</ele><time>2026-05-02T07:30:04Z</time></trkpt><trkpt lat="42.22872146996702" lon="13.825324553387937"><ele>394.00000000000006</ele><time>2026-05-02T07:30:06Z</time></trkpt><trkpt lat="42.22873926230142" lon="13.825228245778431"><ele>394.0</ele><time>2026-05-02T07:30:08Z</time></trkpt><trkpt lat="42.228822143757036" lon="13.82518023801824"><ele>394.0</ele><time>2026-05-02T07:30:12Z</time></trkpt><trkpt lat="42.22889521559374" lon="13.825177769451466"><ele>394.0</ele><time>2026-05-02T07:30:14Z</time></trkpt><trkpt lat="42.228973264126054" lon="13.825139934325199"><ele>394.0</ele><time>2026-05-02T07:30:15Z</time></trkpt><trkpt lat="42.22907392688859" lon="13.825109438639053"><ele>394.0</ele><time>2026-05-02T07:30:16Z</time></trkpt><trkpt lat="42.22921873384966" lon="13.825090447545646"><ele>394.0</ele><time>2026-05-02T07:30:18Z</time></trkpt><trkpt lat="42.22931107019948" lon="13.82508988822888"><ele>391.83333333333337</ele><time>2026-05-02T07:30:19Z</time></trkpt><trkpt lat="42.22939451934321" lon="13.825090863787532"><ele>389.6666666666667</ele><time>2026-05-02T07:30:20Z</time></trkpt><trkpt lat="42.229485712094665" lon="13.825093972470942"><ele>387.5</ele><time>2026-05-02T07:30:21Z</time></trkpt><trkpt lat="42.229548553677084" lon="13.82510804323248"><ele>385.33333333333337</ele><time>2026-05-02T07:30:22Z</time></trkpt><trkpt lat="42.22963422728644" lon="13.825109195992312"><ele>383.1666666666667</ele><time>2026-05-02T07:30:24Z</time></trkpt><trkpt lat="42.22973998744968" lon="13.825119975072653"><ele>381.0</ele><time>2026-05-02T07:30:26Z</time></trkpt><trkpt lat="42.22987111799812" lon="13.825119580239516"><ele>381.0</ele><time>2026-05-02T07:30:28Z</time></trkpt><trkpt lat="42.229934746478186" lon="13.82512474820842"><ele>381.0</ele><time>2026-05-02T07:30:29Z</time></trkpt><trkpt lat="42.23001107661229" lon="13.825111472123513"><ele>381.0</ele><time>2026-05-02T07:30:31Z</time></trkpt><trkpt lat="42.23000249204511" lon="13.825011527217335"><ele>381.0</ele><time>2026-05-02T07:30:36Z</time></trkpt><trkpt lat="42.229984299645444" lon="13.824917857289824"><ele>381.0</ele><time>2026-05-02T07:30:40Z</time></trkpt><trkpt lat="42.22994780277223" lon="13.82483233471585"><ele>381.0</ele><time>2026-05-02T07:30:41.999Z</time></trkpt><trkpt lat="42.22993262133372" lon="13.824733004547198"><ele>381.0</ele><time>2026-05-02T07:30:44.999Z</time></trkpt><trkpt lat="42.230003590843175" lon="13.824689949068752"><ele>381.0</ele><time>2026-05-02T07:30:46.999Z</time></trkpt><trkpt lat="42.23014736461225" lon="13.824649096964933"><ele>381.0</ele><time>2026-05-02T07:30:48.999Z</time></trkpt><trkpt lat="42.23022037525637" lon="13.824604120425272"><ele>381.0</ele><time>2026-05-02T07:30:49.999Z</time></trkpt><trkpt lat="42.23030657219946" lon="13.824556963801257"><ele>381.0</ele><time>2026-05-02T07:30:51.999Z</time></trkpt><trkpt lat="42.23034112763956" lon="13.824677190861916"><ele>381.0</ele><time>2026-05-02T07:30:54.999Z</time></trkpt><trkpt lat="42.23038607229766" lon="13.82475336997983"><ele>381.0</ele><time>2026-05-02T07:31:17.999Z</time></trkpt><trkpt lat="42.23042712588358" lon="13.824822756677374"><ele>381.0</ele><time>2026-05-02T07:32:06Z</time></trkpt><trkpt lat="42.23050418095895" lon="13.824833517578618"><ele>381.0</ele><time>2026-05-02T07:34:52Z</time></trkpt><trkpt lat="42.23060797898778" lon="13.824808365896327"><ele>381.0</ele><time>2026-05-02T07:34:53.999Z</time></trkpt><trkpt lat="42.23071399147296" lon="13.824783000370907"><ele>381.0</ele><time>2026-05-02T07:34:55.999Z</time></trkpt><trkpt lat="42.23081750630879" lon="13.824783990367083"><ele>383.1428571428571</ele><time>2026-05-02T07:34:57.999Z</time></trkpt><trkpt lat="42.23090665166466" lon="13.824801238882934"><ele>385.28571428571433</ele><time>2026-05-02T07:34:59.999Z</time></trkpt><trkpt lat="42.230970507249275" lon="13.824785514539101"><ele>387.42857142857144</ele><time>2026-05-02T07:35:00.999Z</time></trkpt><trkpt lat="42.23103134815316" lon="13.824760733669871"><ele>389.57142857142856</ele><time>2026-05-02T07:35:01.999Z</time></trkpt><trkpt lat="42.231119049741096" lon="13.82474212100062"><ele>391.71428571428567</ele><time>2026-05-02T07:35:03.999Z</time></trkpt><trkpt lat="42.231176971573134" lon="13.82477882570254"><ele>393.8571428571429</ele><time>2026-05-02T07:35:06.999Z</time></trkpt><trkpt lat="42.23118260278363" lon="13.824882788048862"><ele>396.0</ele><time>2026-05-02T07:35:09.999Z</time></trkpt><trkpt lat="42.23123290401356" lon="13.824958165049392"><ele>396.0</ele><time>2026-05-02T07:35:13.999Z</time></trkpt><trkpt lat="42.23125709077902" lon="13.82504892711056"><ele>396.0</ele><time>2026-05-02T07:35:17.999Z</time></trkpt><trkpt lat="42.23129158286184" lon="13.825128079719603"><ele>396.0</ele><time>2026-05-02T07:35:20.999Z</time></trkpt><trkpt lat="42.23134145367216" lon="13.825190994579868"><ele>396.0</ele><time>2026-05-02T07:35:24.999Z</time></trkpt><trkpt lat="42.23140778523102" lon="13.825244882870612"><ele>396.0</ele><time>2026-05-02T07:35:27.999Z</time></trkpt><trkpt lat="42.23149952737524" lon="13.82532312823956"><ele>396.0</ele><time>2026-05-02T07:35:30.999Z</time></trkpt><trkpt lat="42.231639295828394" lon="13.825379231320673"><ele>402.8333333333333</ele><time>2026-05-02T07:35:33.999Z</time></trkpt><trkpt lat="42.23170158029398" lon="13.825416523278658"><ele>409.66666666666663</ele><time>2026-05-02T07:35:34.999Z</time></trkpt><trkpt lat="42.2317682058572" lon="13.825456105173949"><ele>416.5</ele><time>2026-05-02T07:35:35.999Z</time></trkpt><trkpt lat="42.23187212589607" lon="13.82545289451447"><ele>423.3333333333333</ele><time>2026-05-02T07:35:37.999Z</time></trkpt><trkpt lat="42.23196154394039" lon="13.825461249297426"><ele>430.16666666666663</ele><time>2026-05-02T07:35:39.999Z</time></trkpt><trkpt lat="42.23205559179335" lon="13.825450318447157"><ele>437.0</ele><time>2026-05-02T07:35:42.999Z</time></trkpt><trkpt lat="42.23225095446004" lon="13.825433609127792"><ele>437.40000000000003</ele><time>2026-05-02T07:35:44.999Z</time></trkpt><trkpt lat="42.23236086043064" lon="13.825406661801999"><ele>437.80000000000007</ele><time>2026-05-02T07:35:46.999Z</time></trkpt><trkpt lat="42.23244531257732" lon="13.825391326392488"><ele>438.2</ele><time>2026-05-02T07:35:48.999Z</time></trkpt><trkpt lat="42.23252307815502" lon="13.825389399652146"><ele>438.6</ele><time>2026-05-02T07:35:50.999Z</time></trkpt><trkpt lat="42.232617225219805" lon="13.825393333071599"><ele>439.0</ele><time>2026-05-02T07:35:52.999Z</time></trkpt><trkpt lat="42.23272459947986" lon="13.825375893553197"><ele>439.0</ele><time>2026-05-02T07:35:54.999Z</time></trkpt><trkpt lat="42.23282015749174" lon="13.82537706482995"><ele>439.0</ele><time>2026-05-02T07:35:56.999Z</time></trkpt><trkpt lat="42.232927001531515" lon="13.82534904383872"><ele>439.0</ele><time>2026-05-02T07:35:58.999Z</time></trkpt><trkpt lat="42.23304135033366" lon="13.825339671870912"><ele>439.0</ele><time>2026-05-02T07:36:00.999Z</time></trkpt><trkpt lat="42.233159137128624" lon="13.825317655572809"><ele>439.0</ele><time>2026-05-02T07:36:03Z</time></trkpt><trkpt lat="42.23322654464657" lon="13.825300220256313"><ele>439.6</ele><time>2026-05-02T07:36:04Z</time></trkpt><trkpt lat="42.233322856518264" lon="13.825301425360959"><ele>440.2</ele><time>2026-05-02T07:36:06Z</time></trkpt><trkpt lat="42.23337699946245" lon="13.82540617199803"><ele>440.80000000000007</ele><time>2026-05-02T07:36:08Z</time></trkpt><trkpt lat="42.23345469949536" lon="13.825496347159444"><ele>441.40000000000003</ele><time>2026-05-02T07:36:10Z</time></trkpt><trkpt lat="42.23351867174621" lon="13.825586700001809"><ele>442.0</ele><time>2026-05-02T07:36:12Z</time></trkpt><trkpt lat="42.233585806648286" lon="13.825661089481914"><ele>442.0</ele><time>2026-05-02T07:36:14Z</time></trkpt><trkpt lat="42.233676431544914" lon="13.825735846604466"><ele>442.00000000000006</ele><time>2026-05-02T07:36:17Z</time></trkpt><trkpt lat="42.23379247767324" lon="13.825800296187742"><ele>442.00000000000006</ele><time>2026-05-02T07:36:19Z</time></trkpt><trkpt lat="42.233893208872416" lon="13.825829918506138"><ele>442.0</ele><time>2026-05-02T07:36:21Z</time></trkpt><trkpt lat="42.23396782006305" lon="13.825836574640823"><ele>442.0</ele><time>2026-05-02T07:36:23Z</time></trkpt><trkpt lat="42.23400333305349" lon="13.825918185161138"><ele>446.6666666666667</ele><time>2026-05-02T07:36:26Z</time></trkpt><trkpt lat="42.23402143138836" lon="13.82604677276443"><ele>451.33333333333337</ele><time>2026-05-02T07:36:31Z</time></trkpt><trkpt lat="42.234047820445724" lon="13.826140135755793"><ele>456.0</ele><time>2026-05-02T07:36:33Z</time></trkpt><trkpt lat="42.234079340037326" lon="13.82624742395489"><ele>460.66666666666663</ele><time>2026-05-02T07:36:36Z</time></trkpt><trkpt lat="42.234097640892884" lon="13.826330109926156"><ele>465.3333333333333</ele><time>2026-05-02T07:36:39Z</time></trkpt><trkpt lat="42.23413194716825" lon="13.826412819847075"><ele>470.0</ele><time>2026-05-02T07:36:53.999Z</time></trkpt><trkpt lat="42.23420124717744" lon="13.826437660045793"><ele>470.0</ele><time>2026-05-02T07:36:56.999Z</time></trkpt><trkpt lat="42.234286483105784" lon="13.826474378187417"><ele>469.99999999999994</ele><time>2026-05-02T07:36:58.999Z</time></trkpt><trkpt lat="42.23435054091666" lon="13.826502260767555"><ele>470.0</ele><time>2026-05-02T07:37:00.999Z</time></trkpt><trkpt lat="42.23442692162888" lon="13.826504420870554"><ele>470.0</ele><time>2026-05-02T07:37:02.999Z</time></trkpt><trkpt lat="42.234493351647416" lon="13.826488601428792"><ele>469.99999999999994</ele><time>2026-05-02T07:37:05.999Z</time></trkpt><trkpt lat="42.234553303244056" lon="13.826453426375231"><ele>470.0</ele><time>2026-05-02T07:37:07.999Z</time></trkpt><trkpt lat="42.23461504862832" lon="13.826408845934573"><ele>470.0</ele><time>2026-05-02T07:37:16.999Z</time></trkpt><trkpt lat="42.23466742688643" lon="13.826328588500374"><ele>469.99999999999994</ele><time>2026-05-02T07:37:19.999Z</time></trkpt><trkpt lat="42.23472457642913" lon="13.826268278390167"><ele>470.0</ele><time>2026-05-02T07:37:22.999Z</time></trkpt><trkpt lat="42.23478405158431" lon="13.82622003509667"><ele>470.0</ele><time>2026-05-02T07:37:25.999Z</time></trkpt><trkpt lat="42.23482473274501" lon="13.826119543728787"><ele>470.0</ele><time>2026-05-02T07:37:29.999Z</time></trkpt><trkpt lat="42.23483254380396" lon="13.826032923175157"><ele>469.99999999999994</ele><time>2026-05-02T07:37:40.999Z</time></trkpt><trkpt lat="42.234873517802946" lon="13.825930380978816"><ele>470.0</ele><time>2026-05-02T07:37:51.999Z</time></trkpt><trkpt lat="42.234913976785705" lon="13.825807471601427"><ele>467.3333333333333</ele><time>2026-05-02T07:37:53.999Z</time></trkpt><trkpt lat="42.23495764975187" lon="13.825704018508478"><ele>464.66666666666663</ele><time>2026-05-02T07:37:55.999Z</time></trkpt><trkpt lat="42.23498993313944" lon="13.82558587117649"><ele>462.0</ele><time>2026-05-02T07:37:57.999Z</time></trkpt><trkpt lat="42.235006381259424" lon="13.825498182168403"><ele>459.33333333333337</ele><time>2026-05-02T07:37:59.999Z</time></trkpt><trkpt lat="42.23502808753418" lon="13.825412268457576"><ele>456.6666666666667</ele><time>2026-05-02T07:38:01.999Z</time></trkpt><trkpt lat="42.235071503317386" lon="13.825341686193983"><ele>454.0</ele><time>2026-05-02T07:38:03.999Z</time></trkpt><trkpt lat="42.23510146312457" lon="13.825257137987938"><ele>450.2</ele><time>2026-05-02T07:38:05.999Z</time></trkpt><trkpt lat="42.23509497903875" lon="13.82512960924417"><ele>446.4</ele><time>2026-05-02T07:38:09Z</time></trkpt><trkpt lat="42.23509135475302" lon="13.824953520128112"><ele>442.6</ele><time>2026-05-02T07:38:11Z</time></trkpt><trkpt lat="42.23509313620972" lon="13.824840696848181"><ele>438.8</ele><time>2026-05-02T07:38:13Z</time></trkpt><trkpt lat="42.23509211168734" lon="13.824731167243417"><ele>435.0</ele><time>2026-05-02T07:38:15Z</time></trkpt><trkpt lat="42.23508803988842" lon="13.824607401948752"><ele>435.0</ele><time>2026-05-02T07:38:17Z</time></trkpt><trkpt lat="42.23510555593255" lon="13.824483369757523"><ele>435.0</ele><time>2026-05-02T07:38:19Z</time></trkpt><trkpt lat="42.2351289822926" lon="13.824367475321564"><ele>435.0</ele><time>2026-05-02T07:38:21Z</time></trkpt><trkpt lat="42.23514625760963" lon="13.824249466257537"><ele>435.0</ele><time>2026-05-02T07:38:23Z</time></trkpt><trkpt lat="42.2351507381971" lon="13.824133169511029"><ele>435.0</ele><time>2026-05-02T07:38:25Z</time></trkpt><trkpt lat="42.23515337069152" lon="13.824027419949527"><ele>435.0</ele><time>2026-05-02T07:38:27Z</time></trkpt><trkpt lat="42.235154858105275" lon="13.823934970991834"><ele>432.1666666666667</ele><time>2026-05-02T07:38:29Z</time></trkpt><trkpt lat="42.235171958888884" lon="13.823809326603444"><ele>429.33333333333337</ele><time>2026-05-02T07:38:31Z</time></trkpt><trkpt lat="42.23515811185589" lon="13.823698893195916"><ele>426.5</ele><time>2026-05-02T07:38:33Z</time></trkpt><trkpt lat="42.23515341655985" lon="13.823574197543953"><ele>423.6666666666667</ele><time>2026-05-02T07:38:35Z</time></trkpt><trkpt lat="42.235160544066076" lon="13.823458434758225"><ele>420.83333333333337</ele><time>2026-05-02T07:38:37Z</time></trkpt><trkpt lat="42.23516418373021" lon="13.823362540566862"><ele>418.0</ele><time>2026-05-02T07:38:39Z</time></trkpt><trkpt lat="42.235207630894195" lon="13.82328047577347"><ele>415.85714285714283</ele><time>2026-05-02T07:38:41Z</time></trkpt><trkpt lat="42.23528052310275" lon="13.82324372674598"><ele>413.71428571428567</ele><time>2026-05-02T07:38:43Z</time></trkpt><trkpt lat="42.2353546473398" lon="13.823269992055629"><ele>411.57142857142856</ele><time>2026-05-02T07:38:46Z</time></trkpt><trkpt lat="42.235416957035596" lon="13.823227183369724"><ele>409.42857142857144</ele><time>2026-05-02T07:38:49Z</time></trkpt><trkpt lat="42.23541837920374" lon="13.82313688349454"><ele>407.2857142857143</ele><time>2026-05-02T07:38:51Z</time></trkpt><trkpt lat="42.23540811002175" lon="13.823026448214435"><ele>405.14285714285717</ele><time>2026-05-02T07:38:53Z</time></trkpt><trkpt lat="42.23539476144784" lon="13.822931229373108"><ele>403.0</ele><time>2026-05-02T07:38:54.999Z</time></trkpt><trkpt lat="42.23540496413982" lon="13.822831581758217"><ele>403.00000000000006</ele><time>2026-05-02T07:38:56.999Z</time></trkpt><trkpt lat="42.235430783869134" lon="13.82272142734985"><ele>403.0</ele><time>2026-05-02T07:38:58.999Z</time></trkpt><trkpt lat="42.235454050464696" lon="13.822612013726722"><ele>403.0</ele><time>2026-05-02T07:39:00.999Z</time></trkpt><trkpt lat="42.23545368743149" lon="13.82250475566722"><ele>403.0</ele><time>2026-05-02T07:39:02.999Z</time></trkpt><trkpt lat="42.23544493490281" lon="13.822409757057757"><ele>403.00000000000006</ele><time>2026-05-02T07:39:04.999Z</time></trkpt><trkpt lat="42.2354406143045" lon="13.822313874628703"><ele>403.0</ele><time>2026-05-02T07:39:06.999Z</time></trkpt><trkpt lat="42.23549698494122" lon="13.822208162507092"><ele>401.83333333333337</ele><time>2026-05-02T07:39:08.999Z</time></trkpt><trkpt lat="42.23555854092341" lon="13.822115040670196"><ele>400.6666666666667</ele><time>2026-05-02T07:39:10.999Z</time></trkpt><trkpt lat="42.235594674890805" lon="13.822039347687026"><ele>399.5</ele><time>2026-05-02T07:39:12.999Z</time></trkpt><trkpt lat="42.2356727834651" lon="13.822006082753152"><ele>398.33333333333337</ele><time>2026-05-02T07:39:15.999Z</time></trkpt><trkpt lat="42.235773927877695" lon="13.822023151970136"><ele>397.1666666666667</ele><time>2026-05-02T07:39:17.999Z</time></trkpt><trkpt lat="42.23583753089475" lon="13.822015648013434"><ele>396.0</ele><time>2026-05-02T07:39:19.999Z</time></trkpt><trkpt lat="42.23592146278824" lon="13.822000723086559"><ele>395.5</ele><time>2026-05-02T07:39:22.999Z</time></trkpt><trkpt lat="42.23599918755073" lon="13.82198339756881"><ele>395.0</ele><time>2026-05-02T07:40:23Z</time></trkpt><trkpt lat="42.23609474262019" lon="13.821945955707095"><ele>394.5</ele><time>2026-05-02T07:40:26Z</time></trkpt><trkpt lat="42.236162388020794" lon="13.82189944686726"><ele>394.0</ele><time>2026-05-02T07:40:28Z</time></trkpt><trkpt lat="42.236230812238745" lon="13.821854726753473"><ele>393.5</ele><time>2026-05-02T07:40:30Z</time></trkpt><trkpt lat="42.23628963141193" lon="13.821809271502945"><ele>393.0</ele><time>2026-05-02T07:40:32Z</time></trkpt><trkpt lat="42.23636094118998" lon="13.82175914609707"><ele>390.0</ele><time>2026-05-02T07:40:34Z</time></trkpt><trkpt lat="42.236428434319556" lon="13.821671421799332"><ele>387.0</ele><time>2026-05-02T07:40:36Z</time></trkpt><trkpt lat="42.23645759112048" lon="13.821545720029963"><ele>384.0</ele><time>2026-05-02T07:40:38Z</time></trkpt><trkpt lat="42.23645417349012" lon="13.821421466224038"><ele>381.0</ele><time>2026-05-02T07:40:40Z</time></trkpt><trkpt lat="42.23646291611277" lon="13.821291294485677"><ele>378.0</ele><time>2026-05-02T07:40:42Z</time></trkpt><trkpt lat="42.23644204358615" lon="13.821163996888668"><ele>378.0</ele><time>2026-05-02T07:40:44Z</time></trkpt><trkpt lat="42.236405611065386" lon="13.821058754345042"><ele>378.0</ele><time>2026-05-02T07:40:46Z</time></trkpt><trkpt lat="42.236424669074744" lon="13.820968535921857"><ele>378.0</ele><time>2026-05-02T07:40:48Z</time></trkpt><trkpt lat="42.23651151882536" lon="13.820965088477468"><ele>378.0</ele><time>2026-05-02T07:40:50Z</time></trkpt><trkpt lat="42.2365678052702" lon="13.821044124144803"><ele>378.0</ele><time>2026-05-02T07:40:52Z</time></trkpt><trkpt lat="42.236646156097784" lon="13.821097616361648"><ele>378.0</ele><time>2026-05-02T07:40:55.999Z</time></trkpt><trkpt lat="42.236711282611616" lon="13.82103055362266"><ele>375.4</ele><time>2026-05-02T07:40:57.999Z</time></trkpt><trkpt lat="42.23677488093461" lon="13.820946130120449"><ele>372.79999999999995</ele><time>2026-05-02T07:40:59.999Z</time></trkpt><trkpt lat="42.236861447004934" lon="13.820877286991657"><ele>370.2</ele><time>2026-05-02T07:41:01.999Z</time></trkpt><trkpt lat="42.23695010728982" lon="13.820825928098454"><ele>367.6</ele><time>2026-05-02T07:41:03.999Z</time></trkpt><trkpt lat="42.23704546818035" lon="13.820858893580835"><ele>365.0</ele><time>2026-05-02T07:41:05.999Z</time></trkpt><trkpt lat="42.23711352815969" lon="13.820869943901656"><ele>365.0</ele><time>2026-05-02T07:41:07.999Z</time></trkpt><trkpt lat="42.23714730836715" lon="13.820796503307134"><ele>365.0</ele><time>2026-05-02T07:41:09.999Z</time></trkpt><trkpt lat="42.23714040049371" lon="13.820699032789687"><ele>365.0</ele><time>2026-05-02T07:41:26.999Z</time></trkpt><trkpt lat="42.23711275618497" lon="13.820599755559893"><ele>365.0</ele><time>2026-05-02T07:41:28.999Z</time></trkpt><trkpt lat="42.23707973488722" lon="13.820495099759198"><ele>365.0</ele><time>2026-05-02T07:41:30.999Z</time></trkpt><trkpt lat="42.23704802984359" lon="13.820386708454112"><ele>365.0</ele><time>2026-05-02T07:41:32.999Z</time></trkpt><trkpt lat="42.23703972648203" lon="13.820272809818995"><ele>365.0</ele><time>2026-05-02T07:41:34.999Z</time></trkpt><trkpt lat="42.23704956339253" lon="13.820150751674838"><ele>365.0</ele><time>2026-05-02T07:41:36.999Z</time></trkpt><trkpt lat="42.23701713608969" lon="13.820029715812161"><ele>365.0</ele><time>2026-05-02T07:41:38.999Z</time></trkpt><trkpt lat="42.23698290243526" lon="13.819918595746483"><ele>365.0</ele><time>2026-05-02T07:41:40.999Z</time></trkpt><trkpt lat="42.23695692588284" lon="13.819804038185163"><ele>365.0</ele><time>2026-05-02T07:41:42.999Z</time></trkpt><trkpt lat="42.236902446590896" lon="13.81971950740362"><ele>365.0</ele><time>2026-05-02T07:41:44.999Z</time></trkpt><trkpt lat="42.2368748046117" lon="13.81964094421303"><ele>363.5</ele><time>2026-05-02T07:41:47.999Z</time></trkpt><trkpt lat="42.23695200423853" lon="13.81962697106934"><ele>362.0</ele><time>2026-05-02T07:41:49.999Z</time></trkpt><trkpt lat="42.237036110258124" lon="13.819640429976102"><ele>360.5</ele><time>2026-05-02T07:41:50.999Z</time></trkpt><trkpt lat="42.23712492226756" lon="13.81964842619649"><ele>359.0</ele><time>2026-05-02T07:41:51.999Z</time></trkpt><trkpt lat="42.23720251536959" lon="13.819639429080501"><ele>357.5</ele><time>2026-05-02T07:41:52.999Z</time></trkpt><trkpt lat="42.237289024668854" lon="13.819615952882087"><ele>356.0</ele><time>2026-05-02T07:41:54.999Z</time></trkpt><trkpt lat="42.23737063471325" lon="13.819585534017499"><ele>356.0</ele><time>2026-05-02T07:41:56.999Z</time></trkpt><trkpt lat="42.23743687206251" lon="13.819566107235502"><ele>356.0</ele><time>2026-05-02T07:41:57.999Z</time></trkpt><trkpt lat="42.23754139058269" lon="13.819604612797415"><ele>356.0</ele><time>2026-05-02T07:41:59.999Z</time></trkpt><trkpt lat="42.23760885891334" lon="13.819718464724724"><ele>356.0</ele><time>2026-05-02T07:42:01.999Z</time></trkpt><trkpt lat="42.23766121909835" lon="13.819782672590126"><ele>356.0</ele><time>2026-05-02T07:42:02.999Z</time></trkpt><trkpt lat="42.23772635898702" lon="13.819818681130384"><ele>356.0</ele><time>2026-05-02T07:42:03.999Z</time></trkpt><trkpt lat="42.23779371478875" lon="13.81982895574119"><ele>356.0</ele><time>2026-05-02T07:42:04.999Z</time></trkpt><trkpt lat="42.23785679109929" lon="13.819805290857389"><ele>356.0</ele><time>2026-05-02T07:42:05.998Z</time></trkpt><trkpt lat="42.23791317171774" lon="13.819754401013713"><ele>356.0</ele><time>2026-05-02T07:42:06.998Z</time></trkpt><trkpt lat="42.23798269137454" lon="13.819692117889526"><ele>356.0</ele><time>2026-05-02T07:42:07.998Z</time></trkpt><trkpt lat="42.23807526926364" lon="13.819631581118234"><ele>356.0</ele><time>2026-05-02T07:42:08.998Z</time></trkpt><trkpt lat="42.238185302217744" lon="13.81958602610221"><ele>356.0</ele><time>2026-05-02T07:42:09.998Z</time></trkpt><trkpt lat="42.238294151437245" lon="13.81953852286112"><ele>356.6</ele><time>2026-05-02T07:42:10.998Z</time></trkpt><trkpt lat="42.23839941462868" lon="13.819474602516982"><ele>357.20000000000005</ele><time>2026-05-02T07:42:11.998Z</time></trkpt><trkpt lat="42.238467749767956" lon="13.819398794668835"><ele>357.79999999999995</ele><time>2026-05-02T07:42:12.998Z</time></trkpt><trkpt lat="42.23854495852149" lon="13.819314999435026"><ele>358.4</ele><time>2026-05-02T07:42:13.998Z</time></trkpt><trkpt lat="42.238607084882645" lon="13.819206079568975"><ele>359.0</ele><time>2026-05-02T07:42:14.998Z</time></trkpt><trkpt lat="42.23866589122549" lon="13.81908125438503"><ele>359.33333333333337</ele><time>2026-05-02T07:42:15.998Z</time></trkpt><trkpt lat="42.23872490673758" lon="13.818969750982491"><ele>359.6666666666667</ele><time>2026-05-02T07:42:16.998Z</time></trkpt><trkpt lat="42.238782990113215" lon="13.818882521158274"><ele>360.0</ele><time>2026-05-02T07:42:17.998Z</time></trkpt><trkpt lat="42.23884881698553" lon="13.818826299523556"><ele>360.3333333333333</ele><time>2026-05-02T07:42:18.998Z</time></trkpt><trkpt lat="42.2389331021859" lon="13.818792689074527"><ele>360.66666666666663</ele><time>2026-05-02T07:42:20Z</time></trkpt><trkpt lat="42.23902430681516" lon="13.818777107658764"><ele>361.0</ele><time>2026-05-02T07:42:21Z</time></trkpt><trkpt lat="42.23910810949668" lon="13.818775283712025"><ele>361.0</ele><time>2026-05-02T07:42:22Z</time></trkpt><trkpt lat="42.23917872058361" lon="13.818765692101012"><ele>361.0</ele><time>2026-05-02T07:42:23Z</time></trkpt><trkpt lat="42.23926259141485" lon="13.818700617524685"><ele>361.0</ele><time>2026-05-02T07:42:25Z</time></trkpt><trkpt lat="42.239286415321686" lon="13.818581906463567"><ele>361.0</ele><time>2026-05-02T07:42:27Z</time></trkpt><trkpt lat="42.23934417186464" lon="13.818504578086332"><ele>361.0</ele><time>2026-05-02T07:42:29Z</time></trkpt><trkpt lat="42.23941295808721" lon="13.818522370711287"><ele>361.0</ele><time>2026-05-02T07:42:30Z</time></trkpt><trkpt lat="42.239487298568605" lon="13.818551640424964"><ele>361.0</ele><time>2026-05-02T07:42:31Z</time></trkpt><trkpt lat="42.23956408022184" lon="13.818577439876822"><ele>361.0</ele><time>2026-05-02T07:42:32Z</time></trkpt><trkpt lat="42.23963954163543" lon="13.818609432075666"><ele>361.0</ele><time>2026-05-02T07:42:33Z</time></trkpt><trkpt lat="42.239713678774905" lon="13.818658550849518"><ele>361.0</ele><time>2026-05-02T07:42:34Z</time></trkpt><trkpt lat="42.239778712761705" lon="13.818691670320803"><ele>361.0</ele><time>2026-05-02T07:42:35Z</time></trkpt><trkpt lat="42.23984823882394" lon="13.818718629852645"><ele>361.0</ele><time>2026-05-02T07:42:36Z</time></trkpt><trkpt lat="42.23991484465712" lon="13.818730193822091"><ele>361.0</ele><time>2026-05-02T07:42:37Z</time></trkpt><trkpt lat="42.240026413639306" lon="13.818719517644258"><ele>361.0</ele><time>2026-05-02T07:42:39Z</time></trkpt><trkpt lat="42.24010363428164" lon="13.81869701810701"><ele>361.0</ele><time>2026-05-02T07:42:41Z</time></trkpt><trkpt lat="42.24016214629396" lon="13.818740619126537"><ele>361.0</ele><time>2026-05-02T07:42:43Z</time></trkpt><trkpt lat="42.2402014746397" lon="13.81891657155487"><ele>361.0</ele><time>2026-05-02T07:42:45Z</time></trkpt><trkpt lat="42.240199360878044" lon="13.819031435589675"><ele>361.0</ele><time>2026-05-02T07:42:46Z</time></trkpt><trkpt lat="42.240237936492754" lon="13.819144077161521"><ele>361.0</ele><time>2026-05-02T07:42:48Z</time></trkpt><trkpt lat="42.2403345986713" lon="13.819096820418741"><ele>361.0</ele><time>2026-05-02T07:42:54Z</time></trkpt><trkpt lat="42.240470367317066" lon="13.819016808669367"><ele>361.0</ele><time>2026-05-02T07:42:56Z</time></trkpt><trkpt lat="42.240558582064565" lon="13.81896565364645"><ele>361.0</ele><time>2026-05-02T07:42:57Z</time></trkpt><trkpt lat="42.240639653967506" lon="13.818892122507586"><ele>362.25</ele><time>2026-05-02T07:42:57.999Z</time></trkpt><trkpt lat="42.24071134361193" lon="13.818806111257487"><ele>363.5</ele><time>2026-05-02T07:42:58.999Z</time></trkpt><trkpt lat="42.240787296662226" lon="13.81871885350506"><ele>364.75</ele><time>2026-05-02T07:42:59.999Z</time></trkpt><trkpt lat="42.24088212594863" lon="13.818618254793924"><ele>366.0</ele><time>2026-05-02T07:43:00.999Z</time></trkpt><trkpt lat="42.24099221768386" lon="13.818516303954448"><ele>363.8</ele><time>2026-05-02T07:43:01.999Z</time></trkpt><trkpt lat="42.24110273717921" lon="13.818414128210517"><ele>361.6</ele><time>2026-05-02T07:43:02.999Z</time></trkpt><trkpt lat="42.2411901602124" lon="13.818340623405463"><ele>359.4</ele><time>2026-05-02T07:43:03.999Z</time></trkpt><trkpt lat="42.241270738332965" lon="13.818282298856348"><ele>357.2</ele><time>2026-05-02T07:43:04.999Z</time></trkpt><trkpt lat="42.241351977738425" lon="13.818235957874558"><ele>355.0</ele><time>2026-05-02T07:43:05.999Z</time></trkpt><trkpt lat="42.24145473560937" lon="13.818184868219335"><ele>357.2</ele><time>2026-05-02T07:43:06.999Z</time></trkpt><trkpt lat="42.24155989630905" lon="13.818135829395443"><ele>359.4</ele><time>2026-05-02T07:43:07.999Z</time></trkpt><trkpt lat="42.24165355905467" lon="13.818100378382782"><ele>361.6</ele><time>2026-05-02T07:43:08.999Z</time></trkpt><trkpt lat="42.241742670322765" lon="13.818066344594895"><ele>363.8</ele><time>2026-05-02T07:43:09.999Z</time></trkpt><trkpt lat="42.24182012093021" lon="13.818032440281682"><ele>366.0</ele><time>2026-05-02T07:43:10.999Z</time></trkpt><trkpt lat="42.24189947154377" lon="13.818019976279809"><ele>366.0</ele><time>2026-05-02T07:43:11.999Z</time></trkpt><trkpt lat="42.242008543217686" lon="13.818022739357973"><ele>366.0</ele><time>2026-05-02T07:43:12.999Z</time></trkpt><trkpt lat="42.242134566828064" lon="13.818015232949913"><ele>366.0</ele><time>2026-05-02T07:43:13.999Z</time></trkpt><trkpt lat="42.24224857106961" lon="13.81800579971274"><ele>366.0</ele><time>2026-05-02T07:43:14.999Z</time></trkpt><trkpt lat="42.242352160480685" lon="13.817978948511575"><ele>366.20000000000005</ele><time>2026-05-02T07:43:15.999Z</time></trkpt><trkpt lat="42.242453619102655" lon="13.81792530926722"><ele>366.40000000000003</ele><time>2026-05-02T07:43:16.999Z</time></trkpt><trkpt lat="42.24255979020376" lon="13.817870260535612"><ele>366.6</ele><time>2026-05-02T07:43:17.999Z</time></trkpt><trkpt lat="42.24266314778263" lon="13.817821087863864"><ele>366.8</ele><time>2026-05-02T07:43:18.999Z</time></trkpt><trkpt lat="42.242773736025036" lon="13.817779395221695"><ele>367.0</ele><time>2026-05-02T07:43:19.999Z</time></trkpt><trkpt lat="42.24288121548071" lon="13.817754041823598"><ele>367.0</ele><time>2026-05-02T07:43:20.999Z</time></trkpt><trkpt lat="42.24298333553152" lon="13.81774127345575"><ele>367.0</ele><time>2026-05-02T07:43:21.999Z</time></trkpt><trkpt lat="42.24309145422871" lon="13.817738538966108"><ele>367.0</ele><time>2026-05-02T07:43:22.999Z</time></trkpt><trkpt lat="42.24322155270841" lon="13.817749300472483"><ele>367.0</ele><time>2026-05-02T07:43:23.999Z</time></trkpt><trkpt lat="42.243349495848335" lon="13.817756554116059"><ele>366.75</ele><time>2026-05-02T07:43:24.999Z</time></trkpt><trkpt lat="42.24346366275757" lon="13.81775632360609"><ele>366.5</ele><time>2026-05-02T07:43:25.999Z</time></trkpt><trkpt lat="42.24358122818" lon="13.817760229932498"><ele>366.25</ele><time>2026-05-02T07:43:26.999Z</time></trkpt><trkpt lat="42.24371384187236" lon="13.817786845852192"><ele>366.0</ele><time>2026-05-02T07:43:27.999Z</time></trkpt><trkpt lat="42.24384922842231" lon="13.817817077762491"><ele>365.25</ele><time>2026-05-02T07:43:28.999Z</time></trkpt><trkpt lat="42.243982130382676" lon="13.817851097674474"><ele>364.5</ele><time>2026-05-02T07:43:29.999Z</time></trkpt><trkpt lat="42.24411339820184" lon="13.817888234605414"><ele>363.75</ele><time>2026-05-02T07:43:30.999Z</time></trkpt><trkpt lat="42.24424167907994" lon="13.817918126373115"><ele>363.0</ele><time>2026-05-02T07:43:31.999Z</time></trkpt><trkpt lat="42.24436014804095" lon="13.817926831308677"><ele>363.0</ele><time>2026-05-02T07:43:32.999Z</time></trkpt><trkpt lat="42.24447334809058" lon="13.81793121469136"><ele>363.0</ele><time>2026-05-02T07:43:33.999Z</time></trkpt><trkpt lat="42.24458192924778" lon="13.817934780638145"><ele>363.0</ele><time>2026-05-02T07:43:34.999Z</time></trkpt><trkpt lat="42.244687573231566" lon="13.81794010698561"><ele>363.0</ele><time>2026-05-02T07:43:35.999Z</time></trkpt><trkpt lat="42.24479156794069" lon="13.817951467135225"><ele>363.0</ele><time>2026-05-02T07:43:36.999Z</time></trkpt><trkpt lat="42.24490195612649" lon="13.817968092854628"><ele>361.75</ele><time>2026-05-02T07:43:37.999Z</time></trkpt><trkpt lat="42.24501953485117" lon="13.817978628680804"><ele>360.5</ele><time>2026-05-02T07:43:38.999Z</time></trkpt><trkpt lat="42.245132869814896" lon="13.817982153423175"><ele>359.25</ele><time>2026-05-02T07:43:39.999Z</time></trkpt><trkpt lat="42.24524462992139" lon="13.817999373473437"><ele>358.0</ele><time>2026-05-02T07:43:40.999Z</time></trkpt><trkpt lat="42.24535813143845" lon="13.817951608760888"><ele>358.0</ele><time>2026-05-02T07:43:41.999Z</time></trkpt><trkpt lat="42.245472895248646" lon="13.817919984253663"><ele>358.0</ele><time>2026-05-02T07:43:42.999Z</time></trkpt><trkpt lat="42.2455951073832" lon="13.817924319318548"><ele>358.0</ele><time>2026-05-02T07:43:43.999Z</time></trkpt><trkpt lat="42.245713844547836" lon="13.81786258259127"><ele>358.0</ele><time>2026-05-02T07:43:44.999Z</time></trkpt><trkpt lat="42.245812839882916" lon="13.817781514937698"><ele>358.25</ele><time>2026-05-02T07:43:45.999Z</time></trkpt><trkpt lat="42.24591341067245" lon="13.817723866138762"><ele>358.5</ele><time>2026-05-02T07:43:46.999Z</time></trkpt><trkpt lat="42.246008837906125" lon="13.817615504508963"><ele>358.75</ele><time>2026-05-02T07:43:47.999Z</time></trkpt><trkpt lat="42.24611791425725" lon="13.817520037934086"><ele>359.0</ele><time>2026-05-02T07:43:48.999Z</time></trkpt><trkpt lat="42.24623556569286" lon="13.817428965636202"><ele>358.75</ele><time>2026-05-02T07:43:49.999Z</time></trkpt><trkpt lat="42.24634064561713" lon="13.81736647245078"><ele>358.5</ele><time>2026-05-02T07:43:50.999Z</time></trkpt><trkpt lat="42.24645514932754" lon="13.817288218265906"><ele>358.25</ele><time>2026-05-02T07:43:51.999Z</time></trkpt><trkpt lat="42.24657616783777" lon="13.81720594671463"><ele>358.0</ele><time>2026-05-02T07:43:52.999Z</time></trkpt><trkpt lat="42.246695245721746" lon="13.817131960475002"><ele>358.0</ele><time>2026-05-02T07:43:53.999Z</time></trkpt><trkpt lat="42.24680266094044" lon="13.81706759991196"><ele>358.0</ele><time>2026-05-02T07:43:54.999Z</time></trkpt><trkpt lat="42.2468992503404" lon="13.817009725898204"><ele>358.0</ele><time>2026-05-02T07:43:55.999Z</time></trkpt><trkpt lat="42.247000496245256" lon="13.816952190254783"><ele>358.0</ele><time>2026-05-02T07:43:56.999Z</time></trkpt><trkpt lat="42.24709418005126" lon="13.81688622967637"><ele>358.0</ele><time>2026-05-02T07:43:57.999Z</time></trkpt><trkpt lat="42.24719947804448" lon="13.816836650454944"><ele>358.25</ele><time>2026-05-02T07:43:58.999Z</time></trkpt><trkpt lat="42.24729631086547" lon="13.816764767166903"><ele>358.5</ele><time>2026-05-02T07:43:59.999Z</time></trkpt><trkpt lat="42.24739280438463" lon="13.816699595766284"><ele>358.75</ele><time>2026-05-02T07:44:00.999Z</time></trkpt><trkpt lat="42.24750487549775" lon="13.816642589328625"><ele>359.0</ele><time>2026-05-02T07:44:01.999Z</time></trkpt><trkpt lat="42.247638764422504" lon="13.816587743753395"><ele>359.0</ele><time>2026-05-02T07:44:02.999Z</time></trkpt><trkpt lat="42.24777145092702" lon="13.816511242940681"><ele>359.0</ele><time>2026-05-02T07:44:03.999Z</time></trkpt><trkpt lat="42.247931722239436" lon="13.816460568999437"><ele>359.0</ele><time>2026-05-02T07:44:04.999Z</time></trkpt><trkpt lat="42.24810981235912" lon="13.816440606868735"><ele>361.6666666666667</ele><time>2026-05-02T07:44:05.999Z</time></trkpt><trkpt lat="42.248263404396724" lon="13.816419878860701"><ele>364.3333333333333</ele><time>2026-05-02T07:44:06.999Z</time></trkpt><trkpt lat="42.24839997179015" lon="13.816400829136454"><ele>367.0</ele><time>2026-05-02T07:44:07.999Z</time></trkpt><trkpt lat="42.24856694858919" lon="13.81637410618846"><ele>367.0</ele><time>2026-05-02T07:44:08.999Z</time></trkpt><trkpt lat="42.24870561873574" lon="13.816315751385206"><ele>367.0</ele><time>2026-05-02T07:44:09.999Z</time></trkpt><trkpt lat="42.24885538742734" lon="13.816294322266799"><ele>367.0</ele><time>2026-05-02T07:44:10.998Z</time></trkpt><trkpt lat="42.24902242219025" lon="13.816269868467622"><ele>368.0</ele><time>2026-05-02T07:44:11.998Z</time></trkpt><trkpt lat="42.24916593935667" lon="13.816253040051135"><ele>369.0</ele><time>2026-05-02T07:44:12.998Z</time></trkpt><trkpt lat="42.24928810125224" lon="13.816247398634445"><ele>370.0</ele><time>2026-05-02T07:44:13.998Z</time></trkpt><trkpt lat="42.2493965576496" lon="13.816240793891915"><ele>371.0</ele><time>2026-05-02T07:44:14.998Z</time></trkpt><trkpt lat="42.249500890928644" lon="13.816225816162556"><ele>371.0</ele><time>2026-05-02T07:44:15.998Z</time></trkpt><trkpt lat="42.24959926592738" lon="13.816210212951967"><ele>371.0</ele><time>2026-05-02T07:44:16.998Z</time></trkpt><trkpt lat="42.24969136494233" lon="13.816213207388206"><ele>371.0</ele><time>2026-05-02T07:44:17.998Z</time></trkpt><trkpt lat="42.24977147390332" lon="13.816228105976512"><ele>371.0</ele><time>2026-05-02T07:44:18.998Z</time></trkpt><trkpt lat="42.24986548125831" lon="13.816225041198072"><ele>371.0</ele><time>2026-05-02T07:44:19.998Z</time></trkpt><trkpt lat="42.24995944298944" lon="13.816230596378574"><ele>371.6</ele><time>2026-05-02T07:44:20.998Z</time></trkpt><trkpt lat="42.25005041544213" lon="13.816242440033587"><ele>372.20000000000005</ele><time>2026-05-02T07:44:21.998Z</time></trkpt><trkpt lat="42.25014025422751" lon="13.816251758697883"><ele>372.79999999999995</ele><time>2026-05-02T07:44:22.998Z</time></trkpt><trkpt lat="42.25023114624159" lon="13.816242445575334"><ele>373.4</ele><time>2026-05-02T07:44:23.998Z</time></trkpt><trkpt lat="42.250321275205266" lon="13.816202101175634"><ele>374.0</ele><time>2026-05-02T07:44:24.998Z</time></trkpt><trkpt lat="42.25040813938088" lon="13.816140938520126"><ele>374.0</ele><time>2026-05-02T07:44:26Z</time></trkpt><trkpt lat="42.250498620547766" lon="13.81608305834023"><ele>374.0</ele><time>2026-05-02T07:44:27Z</time></trkpt><trkpt lat="42.25058286873532" lon="13.816020760173462"><ele>374.0</ele><time>2026-05-02T07:44:28Z</time></trkpt><trkpt lat="42.250656192130414" lon="13.815944995799656"><ele>374.0</ele><time>2026-05-02T07:44:29Z</time></trkpt><trkpt lat="42.25071907752381" lon="13.815862958686413"><ele>374.0</ele><time>2026-05-02T07:44:30Z</time></trkpt><trkpt lat="42.25077092459425" lon="13.815787455453876"><ele>374.0</ele><time>2026-05-02T07:44:31Z</time></trkpt><trkpt lat="42.250832445371216" lon="13.815718032652242"><ele>374.0</ele><time>2026-05-02T07:44:32Z</time></trkpt><trkpt lat="42.25090461785856" lon="13.815657043993737"><ele>374.0</ele><time>2026-05-02T07:44:33Z</time></trkpt><trkpt lat="42.250998914143615" lon="13.815618690494185"><ele>374.0</ele><time>2026-05-02T07:44:34Z</time></trkpt><trkpt lat="42.25106982220639" lon="13.815549092152738"><ele>374.0</ele><time>2026-05-02T07:44:35Z</time></trkpt><trkpt lat="42.25112841199689" lon="13.81550070286207"><ele>374.0</ele><time>2026-05-02T07:44:36Z</time></trkpt><trkpt lat="42.25119332639956" lon="13.815420662199468"><ele>374.0</ele><time>2026-05-02T07:44:37Z</time></trkpt><trkpt lat="42.25125499439188" lon="13.815309728871213"><ele>374.0</ele><time>2026-05-02T07:44:38Z</time></trkpt><trkpt lat="42.25130520342593" lon="13.815206114575055"><ele>374.0</ele><time>2026-05-02T07:44:39Z</time></trkpt><trkpt lat="42.25133873041631" lon="13.815122133075274"><ele>374.0</ele><time>2026-05-02T07:44:40Z</time></trkpt><trkpt lat="42.25134751973309" lon="13.815024252002924"><ele>374.0</ele><time>2026-05-02T07:44:41Z</time></trkpt><trkpt lat="42.2513538403309" lon="13.814905897000111"><ele>374.0</ele><time>2026-05-02T07:44:42Z</time></trkpt><trkpt lat="42.25136836659541" lon="13.814793546607012"><ele>374.1666666666667</ele><time>2026-05-02T07:44:43Z</time></trkpt><trkpt lat="42.25139458533318" lon="13.814707269988903"><ele>374.33333333333337</ele><time>2026-05-02T07:44:44Z</time></trkpt><trkpt lat="42.25139592416179" lon="13.81459488289959"><ele>374.5</ele><time>2026-05-02T07:44:46Z</time></trkpt><trkpt lat="42.2513495442161" lon="13.814494911063862"><ele>374.6666666666667</ele><time>2026-05-02T07:44:48Z</time></trkpt><trkpt lat="42.251419748994806" lon="13.81436685516279"><ele>374.8333333333333</ele><time>2026-05-02T07:44:50Z</time></trkpt><trkpt lat="42.25149493253336" lon="13.814313276568855"><ele>375.0</ele><time>2026-05-02T07:44:51Z</time></trkpt><trkpt lat="42.25156664843307" lon="13.814252546719771"><ele>375.0</ele><time>2026-05-02T07:44:52Z</time></trkpt><trkpt lat="42.25163659575538" lon="13.814179292517"><ele>375.0</ele><time>2026-05-02T07:44:53Z</time></trkpt><trkpt lat="42.2517019187267" lon="13.81409546232787"><ele>375.0</ele><time>2026-05-02T07:44:54Z</time></trkpt><trkpt lat="42.251773774531905" lon="13.814017251120465"><ele>375.0</ele><time>2026-05-02T07:44:55Z</time></trkpt><trkpt lat="42.251851193592906" lon="13.813943898156664"><ele>375.0</ele><time>2026-05-02T07:44:56Z</time></trkpt><trkpt lat="42.25194336703073" lon="13.813884891156558"><ele>375.0</ele><time>2026-05-02T07:44:57Z</time></trkpt><trkpt lat="42.25204135620792" lon="13.813832442899491"><ele>375.0</ele><time>2026-05-02T07:44:57.999Z</time></trkpt><trkpt lat="42.25213896336288" lon="13.813789450454777"><ele>375.0</ele><time>2026-05-02T07:44:58.999Z</time></trkpt><trkpt lat="42.252241712242395" lon="13.813763683717546"><ele>375.0</ele><time>2026-05-02T07:44:59.999Z</time></trkpt><trkpt lat="42.25233744450505" lon="13.813747360523504"><ele>375.0</ele><time>2026-05-02T07:45:00.999Z</time></trkpt><trkpt lat="42.25243505476872" lon="13.813746140278834"><ele>376.2</ele><time>2026-05-02T07:45:01.999Z</time></trkpt><trkpt lat="42.252543814094146" lon="13.813757088093467"><ele>377.4</ele><time>2026-05-02T07:45:02.999Z</time></trkpt><trkpt lat="42.25264628248742" lon="13.813775917084493"><ele>378.6</ele><time>2026-05-02T07:45:03.999Z</time></trkpt><trkpt lat="42.252743859137205" lon="13.813786789466581"><ele>379.8</ele><time>2026-05-02T07:45:04.999Z</time></trkpt><trkpt lat="42.25284075652536" lon="13.81379795895632"><ele>381.0</ele><time>2026-05-02T07:45:05.999Z</time></trkpt><trkpt lat="42.25294686580074" lon="13.813772033751722"><ele>381.0</ele><time>2026-05-02T07:45:06.999Z</time></trkpt><trkpt lat="42.25303733390917" lon="13.813771757540913"><ele>381.0</ele><time>2026-05-02T07:45:07.999Z</time></trkpt><trkpt lat="42.25312369026954" lon="13.813763836232926"><ele>381.0</ele><time>2026-05-02T07:45:08.999Z</time></trkpt><trkpt lat="42.25318742862341" lon="13.813753710037407"><ele>381.0</ele><time>2026-05-02T07:45:09.999Z</time></trkpt><trkpt lat="42.25337739739441" lon="13.813750033031058"><ele>381.0</ele><time>2026-05-02T07:45:11.999Z</time></trkpt><trkpt lat="42.25346171180886" lon="13.8137423198433"><ele>382.4</ele><time>2026-05-02T07:45:12.999Z</time></trkpt><trkpt lat="42.25353946263052" lon="13.813754801591402"><ele>383.8</ele><time>2026-05-02T07:45:13.999Z</time></trkpt><trkpt lat="42.25362918565157" lon="13.813778398166841"><ele>385.2</ele><time>2026-05-02T07:45:14.999Z</time></trkpt><trkpt lat="42.25374002773395" lon="13.8137966872245"><ele>386.59999999999997</ele><time>2026-05-02T07:45:15.999Z</time></trkpt><trkpt lat="42.25385471332616" lon="13.813796331225761"><ele>388.0</ele><time>2026-05-02T07:45:16.999Z</time></trkpt><trkpt lat="42.2539683880088" lon="13.81379401644611"><ele>388.83333333333337</ele><time>2026-05-02T07:45:17.999Z</time></trkpt><trkpt lat="42.25406425324063" lon="13.813794237567336"><ele>389.6666666666667</ele><time>2026-05-02T07:45:18.999Z</time></trkpt><trkpt lat="42.25416605148466" lon="13.813834275581778"><ele>390.5</ele><time>2026-05-02T07:45:20.999Z</time></trkpt><trkpt lat="42.25422412411647" lon="13.813889856340904"><ele>391.33333333333337</ele><time>2026-05-02T07:45:22.999Z</time></trkpt><trkpt lat="42.254315127941695" lon="13.813916400706464"><ele>392.1666666666667</ele><time>2026-05-02T07:47:30.999Z</time></trkpt><trkpt lat="42.25438734702047" lon="13.813886680331773"><ele>393.0</ele><time>2026-05-02T07:47:31.999Z</time></trkpt><trkpt lat="42.254460424181175" lon="13.813841631235452"><ele>393.0</ele><time>2026-05-02T07:47:32.999Z</time></trkpt><trkpt lat="42.25454419533366" lon="13.813797119928282"><ele>393.0</ele><time>2026-05-02T07:47:33.999Z</time></trkpt><trkpt lat="42.254618435186835" lon="13.813761517391512"><ele>393.0</ele><time>2026-05-02T07:47:34.999Z</time></trkpt><trkpt lat="42.25468940663848" lon="13.813731333741087"><ele>393.0</ele><time>2026-05-02T07:47:35.999Z</time></trkpt><trkpt lat="42.25476001732029" lon="13.813708412189614"><ele>393.0</ele><time>2026-05-02T07:47:36.999Z</time></trkpt><trkpt lat="42.25481842763523" lon="13.813653702666098"><ele>393.0</ele><time>2026-05-02T07:47:37.999Z</time></trkpt><trkpt lat="42.25488629101872" lon="13.813630542417988"><ele>393.4</ele><time>2026-05-02T07:47:38.999Z</time></trkpt><trkpt lat="42.25494320676468" lon="13.813583389619545"><ele>393.79999999999995</ele><time>2026-05-02T07:47:39.999Z</time></trkpt><trkpt lat="42.25503428392854" lon="13.813476531832954"><ele>394.2</ele><time>2026-05-02T07:47:41.999Z</time></trkpt><trkpt lat="42.255103884899555" lon="13.81336977027762"><ele>394.6</ele><time>2026-05-02T07:47:43.999Z</time></trkpt><trkpt lat="42.2551226748725" lon="13.813223449934137"><ele>395.0</ele><time>2026-05-02T07:47:45.999Z</time></trkpt><trkpt lat="42.255144452661675" lon="13.813043576866045"><ele>394.3333333333333</ele><time>2026-05-02T07:47:47.999Z</time></trkpt><trkpt lat="42.255147226123746" lon="13.81294970970556"><ele>393.66666666666663</ele><time>2026-05-02T07:47:48.999Z</time></trkpt><trkpt lat="42.25513391789027" lon="13.81281213184767"><ele>393.0</ele><time>2026-05-02T07:47:50.999Z</time></trkpt><trkpt lat="42.2551299417446" lon="13.81269188963463"><ele>392.33333333333337</ele><time>2026-05-02T07:47:52.999Z</time></trkpt><trkpt lat="42.25511687977876" lon="13.812576157544662"><ele>391.6666666666667</ele><time>2026-05-02T07:47:54.999Z</time></trkpt><trkpt lat="42.255064546196465" lon="13.812468929390898"><ele>391.0</ele><time>2026-05-02T07:47:56.999Z</time></trkpt><trkpt lat="42.25496746668539" lon="13.81234559106975"><ele>391.00000000000006</ele><time>2026-05-02T07:47:58.999Z</time></trkpt><trkpt lat="42.25491602528535" lon="13.812270897642332"><ele>391.0</ele><time>2026-05-02T07:47:59.999Z</time></trkpt><trkpt lat="42.25486737055937" lon="13.812188875339245"><ele>391.0</ele><time>2026-05-02T07:48:00.999Z</time></trkpt><trkpt lat="42.2548186101546" lon="13.812102512506208"><ele>391.0</ele><time>2026-05-02T07:48:01.999Z</time></trkpt><trkpt lat="42.254775434973574" lon="13.81202579497982"><ele>391.00000000000006</ele><time>2026-05-02T07:48:02.999Z</time></trkpt><trkpt lat="42.25472382909595" lon="13.811912130654084"><ele>391.0</ele><time>2026-05-02T07:48:04.999Z</time></trkpt><trkpt lat="42.25469649339787" lon="13.811817209833757"><ele>390.5</ele><time>2026-05-02T07:48:06.999Z</time></trkpt><trkpt lat="42.254816287797524" lon="13.811688809600392"><ele>390.0</ele><time>2026-05-02T07:48:07.999Z</time></trkpt><trkpt lat="42.25489694046142" lon="13.811570145787766"><ele>389.5</ele><time>2026-05-02T07:48:08.999Z</time></trkpt><trkpt lat="42.254979484016935" lon="13.81145165024678"><ele>389.0</ele><time>2026-05-02T07:48:09.999Z</time></trkpt><trkpt lat="42.25505335305839" lon="13.811317447576778"><ele>389.0</ele><time>2026-05-02T07:48:10.998Z</time></trkpt><trkpt lat="42.255126220932624" lon="13.811157310149165"><ele>389.0</ele><time>2026-05-02T07:48:11.998Z</time></trkpt><trkpt lat="42.255201567345715" lon="13.811009730086322"><ele>389.0</ele><time>2026-05-02T07:48:12.998Z</time></trkpt><trkpt lat="42.25525970906009" lon="13.8108834982295"><ele>389.0</ele><time>2026-05-02T07:48:13.998Z</time></trkpt><trkpt lat="42.25531037902229" lon="13.810752221973141"><ele>388.5</ele><time>2026-05-02T07:48:14.998Z</time></trkpt><trkpt lat="42.25534845456184" lon="13.810629836675837"><ele>388.0</ele><time>2026-05-02T07:48:15.998Z</time></trkpt><trkpt lat="42.25539392676278" lon="13.81050315289756"><ele>387.5</ele><time>2026-05-02T07:48:16.998Z</time></trkpt><trkpt lat="42.255474878289476" lon="13.810364470042867"><ele>387.0</ele><time>2026-05-02T07:48:17.998Z</time></trkpt><trkpt lat="42.25556644888244" lon="13.810235042726521"><ele>387.25</ele><time>2026-05-02T07:48:18.998Z</time></trkpt><trkpt lat="42.25565418017197" lon="13.810113736453815"><ele>387.5</ele><time>2026-05-02T07:48:19.998Z</time></trkpt><trkpt lat="42.25574637968647" lon="13.810005436003198"><ele>387.75</ele><time>2026-05-02T07:48:20.998Z</time></trkpt><trkpt lat="42.255828010002766" lon="13.809881189529762"><ele>388.0</ele><time>2026-05-02T07:48:21.998Z</time></trkpt><trkpt lat="42.255902882397514" lon="13.809736389118155"><ele>388.0</ele><time>2026-05-02T07:48:22.998Z</time></trkpt><trkpt lat="42.25597869062169" lon="13.809601162148303"><ele>388.0</ele><time>2026-05-02T07:48:23.998Z</time></trkpt><trkpt lat="42.25604369960568" lon="13.809479470689809"><ele>388.0</ele><time>2026-05-02T07:48:24.998Z</time></trkpt><trkpt lat="42.25610140662339" lon="13.809369623740707"><ele>388.0</ele><time>2026-05-02T07:48:25.998Z</time></trkpt><trkpt lat="42.25614591370449" lon="13.809287186131874"><ele>388.0</ele><time>2026-05-02T07:48:26.998Z</time></trkpt><trkpt lat="42.25618905723568" lon="13.809202518585439"><ele>387.83333333333337</ele><time>2026-05-02T07:48:27.998Z</time></trkpt><trkpt lat="42.25623433602771" lon="13.809129351895875"><ele>387.6666666666667</ele><time>2026-05-02T07:48:28.998Z</time></trkpt><trkpt lat="42.256282618558856" lon="13.809060262713285"><ele>387.5</ele><time>2026-05-02T07:48:29.998Z</time></trkpt><trkpt lat="42.256373464912784" lon="13.808979756516145"><ele>387.33333333333337</ele><time>2026-05-02T07:48:31.998Z</time></trkpt><trkpt lat="42.25644331175513" lon="13.808905628236463"><ele>387.1666666666667</ele><time>2026-05-02T07:48:33.998Z</time></trkpt><trkpt lat="42.25649432297336" lon="13.808842348406639"><ele>387.0</ele><time>2026-05-02T07:48:35.998Z</time></trkpt><trkpt lat="42.25657166872097" lon="13.808757839909644"><ele>387.0</ele><time>2026-05-02T07:48:39Z</time></trkpt><trkpt lat="42.256649923751375" lon="13.808660536396273"><ele>387.0</ele><time>2026-05-02T07:48:41Z</time></trkpt><trkpt lat="42.25670768181628" lon="13.808604448170284"><ele>387.0</ele><time>2026-05-02T07:48:42Z</time></trkpt><trkpt lat="42.25677966905525" lon="13.808569779384694"><ele>387.0</ele><time>2026-05-02T07:48:43Z</time></trkpt><trkpt lat="42.25684025238897" lon="13.808507839329458"><ele>387.0</ele><time>2026-05-02T07:48:44Z</time></trkpt><trkpt lat="42.25690528090227" lon="13.808450500505744"><ele>387.0</ele><time>2026-05-02T07:48:45Z</time></trkpt><trkpt lat="42.256982261257875" lon="13.808382375708609"><ele>386.25</ele><time>2026-05-02T07:48:46Z</time></trkpt><trkpt lat="42.25707351274758" lon="13.808300605554203"><ele>385.5</ele><time>2026-05-02T07:48:47Z</time></trkpt><trkpt lat="42.2571685420167" lon="13.808211979214784"><ele>384.75</ele><time>2026-05-02T07:48:48Z</time></trkpt><trkpt lat="42.25726137225885" lon="13.808121440207282"><ele>384.0</ele><time>2026-05-02T07:48:49Z</time></trkpt><trkpt lat="42.25735755190533" lon="13.80802780574"><ele>384.0</ele><time>2026-05-02T07:48:50Z</time></trkpt><trkpt lat="42.25751566693866" lon="13.808067969977495"><ele>384.0</ele><time>2026-05-02T07:48:51Z</time></trkpt><trkpt lat="42.25762254971317" lon="13.807997566178427"><ele>384.0</ele><time>2026-05-02T07:48:52Z</time></trkpt><trkpt lat="42.257727977621045" lon="13.807912189767274"><ele>384.0</ele><time>2026-05-02T07:48:53Z</time></trkpt><trkpt lat="42.25778230389422" lon="13.807723040156976"><ele>382.5</ele><time>2026-05-02T07:48:54Z</time></trkpt><trkpt lat="42.25787750996974" lon="13.807631161100609"><ele>381.0</ele><time>2026-05-02T07:48:55Z</time></trkpt><trkpt lat="42.2579810528732" lon="13.807529419867121"><ele>379.5</ele><time>2026-05-02T07:48:56Z</time></trkpt><trkpt lat="42.25808195236187" lon="13.807437125041282"><ele>378.0</ele><time>2026-05-02T07:48:57Z</time></trkpt><trkpt lat="42.25823000820378" lon="13.80743313388543"><ele>378.0</ele><time>2026-05-02T07:48:58Z</time></trkpt><trkpt lat="42.25831512338029" lon="13.807285336827183"><ele>378.0</ele><time>2026-05-02T07:48:59Z</time></trkpt><trkpt lat="42.25843479449283" lon="13.807232162692873"><ele>378.0</ele><time>2026-05-02T07:49:00Z</time></trkpt><trkpt lat="42.25856415835128" lon="13.80720102773361"><ele>378.0</ele><time>2026-05-02T07:49:01Z</time></trkpt><trkpt lat="42.258677035487466" lon="13.80717964894726"><ele>378.0</ele><time>2026-05-02T07:49:02Z</time></trkpt><trkpt lat="42.2587872223278" lon="13.807140412864266"><ele>378.0</ele><time>2026-05-02T07:49:03Z</time></trkpt><trkpt lat="42.25890373820066" lon="13.807090476262173"><ele>378.0</ele><time>2026-05-02T07:49:04Z</time></trkpt><trkpt lat="42.25901865787086" lon="13.807040202486984"><ele>378.0</ele><time>2026-05-02T07:49:05Z</time></trkpt><trkpt lat="42.259129605435675" lon="13.806986083397158"><ele>377.75</ele><time>2026-05-02T07:49:05.999Z</time></trkpt><trkpt lat="42.25923484765141" lon="13.806913806661477"><ele>377.5</ele><time>2026-05-02T07:49:06.999Z</time></trkpt><trkpt lat="42.25936718224874" lon="13.806811616157775"><ele>377.25</ele><time>2026-05-02T07:49:07.999Z</time></trkpt><trkpt lat="42.25950844086707" lon="13.806720275500926"><ele>377.0</ele><time>2026-05-02T07:49:08.999Z</time></trkpt><trkpt lat="42.25964482265071" lon="13.806658543640834"><ele>377.0</ele><time>2026-05-02T07:49:09.999Z</time></trkpt><trkpt lat="42.259769530692196" lon="13.806599122420126"><ele>377.0</ele><time>2026-05-02T07:49:10.999Z</time></trkpt><trkpt lat="42.25988430834754" lon="13.806540763956955"><ele>377.0</ele><time>2026-05-02T07:49:11.999Z</time></trkpt><trkpt lat="42.25999297344986" lon="13.806479772253764"><ele>377.0</ele><time>2026-05-02T07:49:12.999Z</time></trkpt><trkpt lat="42.26008973191861" lon="13.806416910679095"><ele>377.0</ele><time>2026-05-02T07:49:13.999Z</time></trkpt><trkpt lat="42.260178652913595" lon="13.806345293777849"><ele>377.0</ele><time>2026-05-02T07:49:14.999Z</time></trkpt><trkpt lat="42.26028866943148" lon="13.806223553607955"><ele>377.0</ele><time>2026-05-02T07:49:15.999Z</time></trkpt><trkpt lat="42.26040327112605" lon="13.80614819903673"><ele>377.0</ele><time>2026-05-02T07:49:16.999Z</time></trkpt><trkpt lat="42.26052924045271" lon="13.806070092447284"><ele>377.0</ele><time>2026-05-02T07:49:17.999Z</time></trkpt><trkpt lat="42.26063981555621" lon="13.80599781774007"><ele>377.0</ele><time>2026-05-02T07:49:18.999Z</time></trkpt><trkpt lat="42.260741524366544" lon="13.805930682404366"><ele>377.0</ele><time>2026-05-02T07:49:19.999Z</time></trkpt><trkpt lat="42.26082712562215" lon="13.805876107317593"><ele>377.0</ele><time>2026-05-02T07:49:20.999Z</time></trkpt><trkpt lat="42.26091163068865" lon="13.805826815783755"><ele>377.0</ele><time>2026-05-02T07:49:21.999Z</time></trkpt><trkpt lat="42.26098851893247" lon="13.805790407566635"><ele>376.40000000000003</ele><time>2026-05-02T07:49:22.999Z</time></trkpt><trkpt lat="42.26105311937617" lon="13.805761123826805"><ele>375.8</ele><time>2026-05-02T07:49:23.999Z</time></trkpt><trkpt lat="42.26112125688982" lon="13.805733292614228"><ele>375.2</ele><time>2026-05-02T07:49:24.999Z</time></trkpt><trkpt lat="42.26119160478009" lon="13.805700253646048"><ele>374.6</ele><time>2026-05-02T07:49:25.999Z</time></trkpt><trkpt lat="42.261273276392174" lon="13.805604459277728"><ele>374.0</ele><time>2026-05-02T07:49:26.999Z</time></trkpt><trkpt lat="42.26139678700654" lon="13.805561109518898"><ele>373.25</ele><time>2026-05-02T07:49:27.999Z</time></trkpt><trkpt lat="42.26154409226723" lon="13.805536434551822"><ele>372.5</ele><time>2026-05-02T07:49:28.999Z</time></trkpt><trkpt lat="42.261662683206744" lon="13.805487618854503"><ele>371.75</ele><time>2026-05-02T07:49:29.999Z</time></trkpt><trkpt lat="42.26178344005777" lon="13.805441920720071"><ele>371.0</ele><time>2026-05-02T07:49:30.999Z</time></trkpt><trkpt lat="42.261895820163645" lon="13.805399980386952"><ele>371.0</ele><time>2026-05-02T07:49:31.999Z</time></trkpt><trkpt lat="42.26200282445854" lon="13.805360046395705"><ele>371.0</ele><time>2026-05-02T07:49:32.999Z</time></trkpt><trkpt lat="42.262100999987446" lon="13.805327787050402"><ele>371.0</ele><time>2026-05-02T07:49:33.999Z</time></trkpt><trkpt lat="42.26219203205527" lon="13.805303468895909"><ele>371.0</ele><time>2026-05-02T07:49:34.999Z</time></trkpt><trkpt lat="42.262291247611465" lon="13.805252682765332"><ele>371.0</ele><time>2026-05-02T07:49:36.999Z</time></trkpt><trkpt lat="42.26235311538839" lon="13.805288845509763"><ele>370.75</ele><time>2026-05-02T07:49:39.999Z</time></trkpt><trkpt lat="42.262484056254166" lon="13.805328325643739"><ele>370.5</ele><time>2026-05-02T07:49:41.999Z</time></trkpt><trkpt lat="42.26257888789725" lon="13.805316833665444"><ele>370.25</ele><time>2026-05-02T07:49:42.999Z</time></trkpt><trkpt lat="42.26269586874349" lon="13.805278178183157"><ele>370.0</ele><time>2026-05-02T07:49:43.999Z</time></trkpt><trkpt lat="42.262830545623515" lon="13.805228220693492"><ele>370.0</ele><time>2026-05-02T07:49:44.999Z</time></trkpt><trkpt lat="42.26301659908503" lon="13.805181821114962"><ele>370.0</ele><time>2026-05-02T07:49:45.999Z</time></trkpt><trkpt lat="42.26320943810652" lon="13.805139985344132"><ele>370.0</ele><time>2026-05-02T07:49:46.999Z</time></trkpt><trkpt lat="42.26338091400505" lon="13.80510482887184"><ele>368.3333333333333</ele><time>2026-05-02T07:49:47.999Z</time></trkpt><trkpt lat="42.26354634506752" lon="13.805081266488033"><ele>366.6666666666667</ele><time>2026-05-02T07:49:48.999Z</time></trkpt><trkpt lat="42.2637016609185" lon="13.805054024609344"><ele>365.0</ele><time>2026-05-02T07:49:49.999Z</time></trkpt><trkpt lat="42.263848935968234" lon="13.805027771955132"><ele>364.25</ele><time>2026-05-02T07:49:50.999Z</time></trkpt><trkpt lat="42.26399186477585" lon="13.805009974567541"><ele>363.5</ele><time>2026-05-02T07:49:51.999Z</time></trkpt><trkpt lat="42.26413273756032" lon="13.805006052759788"><ele>362.75</ele><time>2026-05-02T07:49:52.999Z</time></trkpt><trkpt lat="42.264276784872905" lon="13.805008676324618"><ele>362.0</ele><time>2026-05-02T07:49:53.999Z</time></trkpt><trkpt lat="42.264422603646814" lon="13.805004097866407"><ele>362.0</ele><time>2026-05-02T07:49:54.999Z</time></trkpt><trkpt lat="42.26457526816508" lon="13.804981461561054"><ele>362.0</ele><time>2026-05-02T07:49:55.999Z</time></trkpt><trkpt lat="42.2647396440491" lon="13.804944687939457"><ele>362.0</ele><time>2026-05-02T07:49:56.999Z</time></trkpt><trkpt lat="42.2649137910053" lon="13.804894373284043"><ele>360.6666666666667</ele><time>2026-05-02T07:49:57.999Z</time></trkpt><trkpt lat="42.26510485503199" lon="13.804833597346045"><ele>359.3333333333333</ele><time>2026-05-02T07:49:58.999Z</time></trkpt><trkpt lat="42.265296794771324" lon="13.804764728656718"><ele>358.0</ele><time>2026-05-02T07:49:59.999Z</time></trkpt><trkpt lat="42.26547310456102" lon="13.804724537395488"><ele>357.3333333333333</ele><time>2026-05-02T07:50:00.999Z</time></trkpt><trkpt lat="42.26563916803469" lon="13.804665548261605"><ele>356.6666666666667</ele><time>2026-05-02T07:50:01.999Z</time></trkpt><trkpt lat="42.26579411010264" lon="13.804608229037148"><ele>356.0</ele><time>2026-05-02T07:50:02.999Z</time></trkpt><trkpt lat="42.26593238045067" lon="13.804554849306134"><ele>356.0</ele><time>2026-05-02T07:50:03.999Z</time></trkpt><trkpt lat="42.26606204494097" lon="13.804489205757593"><ele>356.0</ele><time>2026-05-02T07:50:04.999Z</time></trkpt><trkpt lat="42.2661864359422" lon="13.804443805917868"><ele>356.0</ele><time>2026-05-02T07:50:05.999Z</time></trkpt><trkpt lat="42.2663008309261" lon="13.804391300753982"><ele>356.0</ele><time>2026-05-02T07:50:06.999Z</time></trkpt><trkpt lat="42.26641130233857" lon="13.804317230096135"><ele>355.75</ele><time>2026-05-02T07:50:07.999Z</time></trkpt><trkpt lat="42.266538075556305" lon="13.804240538372838"><ele>355.5</ele><time>2026-05-02T07:50:08.999Z</time></trkpt><trkpt lat="42.266659910473756" lon="13.804130987912272"><ele>355.25</ele><time>2026-05-02T07:50:09.999Z</time></trkpt><trkpt lat="42.266748314801355" lon="13.804016644062843"><ele>355.0</ele><time>2026-05-02T07:50:10.999Z</time></trkpt><trkpt lat="42.2668441948343" lon="13.803941323535353"><ele>355.0</ele><time>2026-05-02T07:50:11.999Z</time></trkpt><trkpt lat="42.26692723799808" lon="13.803836178929732"><ele>355.0</ele><time>2026-05-02T07:50:12.999Z</time></trkpt><trkpt lat="42.267004726140506" lon="13.803717258953784"><ele>355.0</ele><time>2026-05-02T07:50:13.999Z</time></trkpt><trkpt lat="42.26707060370851" lon="13.80360846913889"><ele>355.0</ele><time>2026-05-02T07:50:14.999Z</time></trkpt><trkpt lat="42.267121657765706" lon="13.803516120535383"><ele>355.0</ele><time>2026-05-02T07:50:15.999Z</time></trkpt><trkpt lat="42.26716744603006" lon="13.803419518922196"><ele>355.4</ele><time>2026-05-02T07:50:16.999Z</time></trkpt><trkpt lat="42.26722279397153" lon="13.803303249548703"><ele>355.8</ele><time>2026-05-02T07:50:17.998Z</time></trkpt><trkpt lat="42.26728483182638" lon="13.803165684941925"><ele>356.20000000000005</ele><time>2026-05-02T07:50:18.998Z</time></trkpt><trkpt lat="42.26733419267378" lon="13.803060168392188"><ele>356.6</ele><time>2026-05-02T07:50:19.998Z</time></trkpt><trkpt lat="42.267386003050895" lon="13.802956278581112"><ele>357.0</ele><time>2026-05-02T07:50:20.998Z</time></trkpt><trkpt lat="42.267433156403726" lon="13.802859505018363"><ele>357.0</ele><time>2026-05-02T07:50:21.998Z</time></trkpt><trkpt lat="42.26746772659607" lon="13.80278658258857"><ele>357.0</ele><time>2026-05-02T07:50:22.998Z</time></trkpt><trkpt lat="42.26750564442108" lon="13.802693707532494"><ele>357.0</ele><time>2026-05-02T07:50:25.998Z</time></trkpt><trkpt lat="42.26743715716025" lon="13.80257164627407"><ele>357.0</ele><time>2026-05-02T07:50:27.998Z</time></trkpt><trkpt lat="42.267402770419054" lon="13.802475161585797"><ele>357.0</ele><time>2026-05-02T07:50:28.998Z</time></trkpt><trkpt lat="42.26731383207827" lon="13.802386932548119"><ele>357.0</ele><time>2026-05-02T07:50:29.998Z</time></trkpt><trkpt lat="42.26721968515011" lon="13.802278404770911"><ele>354.5</ele><time>2026-05-02T07:50:30.998Z</time></trkpt><trkpt lat="42.26713800448714" lon="13.802147009962255"><ele>352.0</ele><time>2026-05-02T07:50:31.998Z</time></trkpt><trkpt lat="42.267052757892074" lon="13.802020352673063"><ele>349.5</ele><time>2026-05-02T07:50:32.998Z</time></trkpt><trkpt lat="42.26697205183546" lon="13.801895804048891"><ele>347.0</ele><time>2026-05-02T07:50:33.998Z</time></trkpt><trkpt lat="42.2668907990508" lon="13.801772278773738"><ele>346.0</ele><time>2026-05-02T07:50:34.998Z</time></trkpt><trkpt lat="42.26681407336471" lon="13.801656840170129"><ele>345.0</ele><time>2026-05-02T07:50:35.998Z</time></trkpt><trkpt lat="42.26673624450276" lon="13.801533148064882"><ele>344.0</ele><time>2026-05-02T07:50:36.998Z</time></trkpt><trkpt lat="42.26666732975975" lon="13.80139651116363"><ele>343.0</ele><time>2026-05-02T07:50:37.998Z</time></trkpt><trkpt lat="42.26657682001694" lon="13.801292668712659"><ele>343.0</ele><time>2026-05-02T07:50:38.998Z</time></trkpt><trkpt lat="42.266499346620265" lon="13.80117235927061"><ele>343.0</ele><time>2026-05-02T07:50:39.998Z</time></trkpt><trkpt lat="42.266416389270475" lon="13.801055427772472"><ele>343.0</ele><time>2026-05-02T07:50:40.998Z</time></trkpt><trkpt lat="42.26633108144823" lon="13.800949731927188"><ele>343.0</ele><time>2026-05-02T07:50:41.998Z</time></trkpt><trkpt lat="42.266251450692856" lon="13.800841553368196"><ele>342.25</ele><time>2026-05-02T07:50:43Z</time></trkpt><trkpt lat="42.266174106004605" lon="13.800728785703638"><ele>341.5</ele><time>2026-05-02T07:50:44Z</time></trkpt><trkpt lat="42.26608798311146" lon="13.80060238626706"><ele>340.75</ele><time>2026-05-02T07:50:45Z</time></trkpt><trkpt lat="42.26601001803276" lon="13.800519144387001"><ele>340.0</ele><time>2026-05-02T07:50:46Z</time></trkpt><trkpt lat="42.26593463026013" lon="13.80041093099997"><ele>340.0</ele><time>2026-05-02T07:50:47Z</time></trkpt><trkpt lat="42.26585352471179" lon="13.800307224473856"><ele>340.0</ele><time>2026-05-02T07:50:48Z</time></trkpt><trkpt lat="42.2657690633321" lon="13.800212560844898"><ele>340.0</ele><time>2026-05-02T07:50:49Z</time></trkpt><trkpt lat="42.26568697740788" lon="13.80011307888155"><ele>340.0</ele><time>2026-05-02T07:50:50Z</time></trkpt><trkpt lat="42.26560768779051" lon="13.800007223963096"><ele>340.0</ele><time>2026-05-02T07:50:51Z</time></trkpt><trkpt lat="42.26553520097766" lon="13.79990373062522"><ele>339.2</ele><time>2026-05-02T07:50:52Z</time></trkpt><trkpt lat="42.265472698684576" lon="13.799810267653578"><ele>338.4</ele><time>2026-05-02T07:50:53Z</time></trkpt><trkpt lat="42.26543079099409" lon="13.799695409230363"><ele>337.6</ele><time>2026-05-02T07:50:54Z</time></trkpt><trkpt lat="42.26538101065655" lon="13.799577988711889"><ele>336.8</ele><time>2026-05-02T07:50:55Z</time></trkpt><trkpt lat="42.26532279180535" lon="13.799461198904671"><ele>336.0</ele><time>2026-05-02T07:50:56Z</time></trkpt><trkpt lat="42.26527759932622" lon="13.799320185537477"><ele>334.6</ele><time>2026-05-02T07:50:57Z</time></trkpt><trkpt lat="42.265220380111955" lon="13.799181894075163"><ele>333.20000000000005</ele><time>2026-05-02T07:50:58Z</time></trkpt><trkpt lat="42.26517846300545" lon="13.799039799775924"><ele>331.79999999999995</ele><time>2026-05-02T07:50:59Z</time></trkpt><trkpt lat="42.265131735552046" lon="13.798907901038337"><ele>330.4</ele><time>2026-05-02T07:51:00Z</time></trkpt><trkpt lat="42.26508625920717" lon="13.798781003554607"><ele>329.0</ele><time>2026-05-02T07:51:01Z</time></trkpt><trkpt lat="42.26503996090853" lon="13.798649712063666"><ele>329.0</ele><time>2026-05-02T07:51:02Z</time></trkpt><trkpt lat="42.26497621740805" lon="13.798523231040916"><ele>329.0</ele><time>2026-05-02T07:51:03Z</time></trkpt><trkpt lat="42.26493161045012" lon="13.798379873687464"><ele>329.0</ele><time>2026-05-02T07:51:04Z</time></trkpt><trkpt lat="42.26491982563587" lon="13.798228112791243"><ele>329.0</ele><time>2026-05-02T07:51:05Z</time></trkpt><trkpt lat="42.26489039585294" lon="13.798076756901684"><ele>328.79999999999995</ele><time>2026-05-02T07:51:06Z</time></trkpt><trkpt lat="42.26488004076399" lon="13.797919538913106"><ele>328.59999999999997</ele><time>2026-05-02T07:51:07Z</time></trkpt><trkpt lat="42.264864886156396" lon="13.797767660751187"><ele>328.4</ele><time>2026-05-02T07:51:08Z</time></trkpt><trkpt lat="42.264857125381546" lon="13.797629484647343"><ele>328.2</ele><time>2026-05-02T07:51:09Z</time></trkpt><trkpt lat="42.264843666155464" lon="13.797505233366849"><ele>328.0</ele><time>2026-05-02T07:51:10Z</time></trkpt><trkpt lat="42.264818851242296" lon="13.797365816985455"><ele>328.0</ele><time>2026-05-02T07:51:10.999Z</time></trkpt><trkpt lat="42.26478041912723" lon="13.797214529108208"><ele>328.0</ele><time>2026-05-02T07:51:11.999Z</time></trkpt><trkpt lat="42.26471454803465" lon="13.797064326559969"><ele>328.0</ele><time>2026-05-02T07:51:12.999Z</time></trkpt><trkpt lat="42.264625625393485" lon="13.796933313730522"><ele>328.0</ele><time>2026-05-02T07:51:13.999Z</time></trkpt><trkpt lat="42.264530910914914" lon="13.79681731099692"><ele>329.75</ele><time>2026-05-02T07:51:14.999Z</time></trkpt><trkpt lat="42.26442943563621" lon="13.79671233263363"><ele>331.5</ele><time>2026-05-02T07:51:15.999Z</time></trkpt><trkpt lat="42.26431962670877" lon="13.796635682559113"><ele>333.25</ele><time>2026-05-02T07:51:16.999Z</time></trkpt><trkpt lat="42.26419724886101" lon="13.796595846504193"><ele>335.0</ele><time>2026-05-02T07:51:17.999Z</time></trkpt><trkpt lat="42.26408658277962" lon="13.796557511859172"><ele>335.0</ele><time>2026-05-02T07:51:18.999Z</time></trkpt><trkpt lat="42.26400013874904" lon="13.79653814172291"><ele>335.0</ele><time>2026-05-02T07:51:19.999Z</time></trkpt><trkpt lat="42.26392145385035" lon="13.796522044189391"><ele>335.0</ele><time>2026-05-02T07:51:20.999Z</time></trkpt><trkpt lat="42.26384836019313" lon="13.796507549094514"><ele>335.0</ele><time>2026-05-02T07:51:21.999Z</time></trkpt><trkpt lat="42.26378395906638" lon="13.796494777747743"><ele>335.0</ele><time>2026-05-02T07:51:22.999Z</time></trkpt><trkpt lat="42.26365737233693" lon="13.796480437111802"><ele>335.0</ele><time>2026-05-02T07:51:24.999Z</time></trkpt><trkpt lat="42.26359077206166" lon="13.796463106262737"><ele>336.0</ele><time>2026-05-02T07:51:25.999Z</time></trkpt><trkpt lat="42.26347516578171" lon="13.796448400337788"><ele>337.0</ele><time>2026-05-02T07:51:27.999Z</time></trkpt><trkpt lat="42.263358533905325" lon="13.796419115055167"><ele>338.0</ele><time>2026-05-02T07:51:29.999Z</time></trkpt><trkpt lat="42.263233687126124" lon="13.796392653558398"><ele>339.0</ele><time>2026-05-02T07:51:31.999Z</time></trkpt><trkpt lat="42.263112240725015" lon="13.796365178546974"><ele>339.8333333333333</ele><time>2026-05-02T07:51:33.999Z</time></trkpt><trkpt lat="42.26299461614231" lon="13.796347004446744"><ele>340.6666666666667</ele><time>2026-05-02T07:51:35.999Z</time></trkpt><trkpt lat="42.26292372793434" lon="13.796339878919435"><ele>341.5</ele><time>2026-05-02T07:51:36.999Z</time></trkpt><trkpt lat="42.262850836665336" lon="13.796321160543869"><ele>342.33333333333337</ele><time>2026-05-02T07:51:37.999Z</time></trkpt><trkpt lat="42.26278408830443" lon="13.796324887158912"><ele>343.1666666666667</ele><time>2026-05-02T07:51:38.999Z</time></trkpt><trkpt lat="42.26270428236569" lon="13.796310876721293"><ele>344.0</ele><time>2026-05-02T07:51:39.999Z</time></trkpt><trkpt lat="42.26263126568395" lon="13.796303464598626"><ele>344.0</ele><time>2026-05-02T07:51:40.999Z</time></trkpt><trkpt lat="42.262557983150494" lon="13.79627910051309"><ele>344.0</ele><time>2026-05-02T07:51:41.999Z</time></trkpt><trkpt lat="42.26248621973378" lon="13.79623486118521"><ele>344.0</ele><time>2026-05-02T07:51:42.999Z</time></trkpt><trkpt lat="42.26243221399024" lon="13.796157304104083"><ele>344.0</ele><time>2026-05-02T07:51:43.999Z</time></trkpt><trkpt lat="42.26236415548332" lon="13.796107969878987"><ele>344.0</ele><time>2026-05-02T07:51:44.999Z</time></trkpt><trkpt lat="42.26230665685877" lon="13.79603774092462"><ele>344.0</ele><time>2026-05-02T07:51:45.999Z</time></trkpt><trkpt lat="42.26225483631987" lon="13.795965895476542"><ele>345.4</ele><time>2026-05-02T07:51:46.999Z</time></trkpt><trkpt lat="42.26218035137834" lon="13.795849924381901"><ele>346.79999999999995</ele><time>2026-05-02T07:51:48.999Z</time></trkpt><trkpt lat="42.26203422210982" lon="13.795865036166038"><ele>348.20000000000005</ele><time>2026-05-02T07:51:52.999Z</time></trkpt><trkpt lat="42.26198688360577" lon="13.795953894170847"><ele>349.6</ele><time>2026-05-02T07:51:54.999Z</time></trkpt><trkpt lat="42.261949775755895" lon="13.796049377626925"><ele>351.0</ele><time>2026-05-02T07:51:56.999Z</time></trkpt><trkpt lat="42.26197088498115" lon="13.796133709584579"><ele>351.3333333333333</ele><time>2026-05-02T07:51:57.999Z</time></trkpt><trkpt lat="42.26190065131357" lon="13.796166910783288"><ele>351.6666666666667</ele><time>2026-05-02T07:51:58.999Z</time></trkpt><trkpt lat="42.26185673363501" lon="13.79625637112053"><ele>352.0</ele><time>2026-05-02T07:52:00.999Z</time></trkpt><trkpt lat="42.261811976968005" lon="13.796333370117187"><ele>352.33333333333337</ele><time>2026-05-02T07:52:02.999Z</time></trkpt><trkpt lat="42.26174359562898" lon="13.796410041158218"><ele>352.6666666666667</ele><time>2026-05-02T07:52:04.999Z</time></trkpt><trkpt lat="42.26164325388549" lon="13.796475081826417"><ele>353.0</ele><time>2026-05-02T07:52:06.999Z</time></trkpt><trkpt lat="42.2615790573037" lon="13.796510782417725"><ele>353.0</ele><time>2026-05-02T07:52:07.999Z</time></trkpt><trkpt lat="42.26150498242407" lon="13.796545640894935"><ele>353.0</ele><time>2026-05-02T07:52:08.999Z</time></trkpt><trkpt lat="42.26141503540871" lon="13.796586212365067"><ele>353.0</ele><time>2026-05-02T07:52:09.999Z</time></trkpt><trkpt lat="42.261311014792355" lon="13.796630069577697"><ele>353.0</ele><time>2026-05-02T07:52:10.999Z</time></trkpt><trkpt lat="42.26123545125111" lon="13.796660513636157"><ele>353.0</ele><time>2026-05-02T07:52:11.999Z</time></trkpt><trkpt lat="42.261174541922045" lon="13.796687651744177"><ele>353.0</ele><time>2026-05-02T07:52:12.999Z</time></trkpt><trkpt lat="42.26107202850531" lon="13.79674761244065"><ele>354.0</ele><time>2026-05-02T07:52:14.999Z</time></trkpt><trkpt lat="42.26102950335465" lon="13.796825055097319"><ele>355.0</ele><time>2026-05-02T07:52:15.999Z</time></trkpt><trkpt lat="42.26091699505773" lon="13.796895353465702"><ele>356.0</ele><time>2026-05-02T07:52:17.999Z</time></trkpt><trkpt lat="42.260855013219285" lon="13.79692808833114"><ele>357.0</ele><time>2026-05-02T07:52:18.999Z</time></trkpt><trkpt lat="42.260784222421556" lon="13.796948553387264"><ele>358.0</ele><time>2026-05-02T07:52:19.998Z</time></trkpt><trkpt lat="42.2606955120946" lon="13.796959326644915"><ele>359.0</ele><time>2026-05-02T07:52:20.998Z</time></trkpt><trkpt lat="42.260596894344566" lon="13.796947236267727"><ele>360.2</ele><time>2026-05-02T07:52:21.998Z</time></trkpt><trkpt lat="42.260492110056454" lon="13.796925468447531"><ele>361.4</ele><time>2026-05-02T07:52:22.998Z</time></trkpt><trkpt lat="42.26038994580864" lon="13.796905866454022"><ele>362.6</ele><time>2026-05-02T07:52:23.998Z</time></trkpt><trkpt lat="42.26027929509242" lon="13.79688981961806"><ele>363.8</ele><time>2026-05-02T07:52:24.998Z</time></trkpt><trkpt lat="42.26015946918013" lon="13.796872396107796"><ele>365.0</ele><time>2026-05-02T07:52:25.998Z</time></trkpt><trkpt lat="42.260021809492834" lon="13.796850524942617"><ele>365.5</ele><time>2026-05-02T07:52:26.998Z</time></trkpt><trkpt lat="42.2598797404498" lon="13.796825432809566"><ele>366.0</ele><time>2026-05-02T07:52:27.998Z</time></trkpt><trkpt lat="42.259734590918576" lon="13.796806461530641"><ele>366.5</ele><time>2026-05-02T07:52:28.998Z</time></trkpt><trkpt lat="42.259597933220256" lon="13.796783024514921"><ele>367.0</ele><time>2026-05-02T07:52:29.998Z</time></trkpt><trkpt lat="42.25946752092244" lon="13.79675512258994"><ele>368.25</ele><time>2026-05-02T07:52:30.998Z</time></trkpt><trkpt lat="42.25934563344699" lon="13.79672159693552"><ele>369.5</ele><time>2026-05-02T07:52:31.998Z</time></trkpt><trkpt lat="42.25922756719079" lon="13.796685080679861"><ele>370.75</ele><time>2026-05-02T07:52:32.998Z</time></trkpt><trkpt lat="42.25910705880691" lon="13.796639655270992"><ele>372.0</ele><time>2026-05-02T07:52:33.998Z</time></trkpt><trkpt lat="42.25899378332754" lon="13.796600358196786"><ele>375.0</ele><time>2026-05-02T07:52:34.998Z</time></trkpt><trkpt lat="42.258875187118235" lon="13.796548455097557"><ele>378.0</ele><time>2026-05-02T07:52:35.998Z</time></trkpt><trkpt lat="42.25875887984293" lon="13.796498707805595"><ele>381.0</ele><time>2026-05-02T07:52:36.998Z</time></trkpt><trkpt lat="42.2586411327522" lon="13.796463955816666"><ele>384.0</ele><time>2026-05-02T07:52:37.998Z</time></trkpt><trkpt lat="42.258513718460115" lon="13.796465205537814"><ele>384.0</ele><time>2026-05-02T07:52:38.998Z</time></trkpt><trkpt lat="42.258385359533904" lon="13.796489310253342"><ele>384.0</ele><time>2026-05-02T07:52:39.998Z</time></trkpt><trkpt lat="42.258259196984994" lon="13.796515219955312"><ele>384.0</ele><time>2026-05-02T07:52:40.998Z</time></trkpt><trkpt lat="42.258137695579165" lon="13.796538429997646"><ele>384.0</ele><time>2026-05-02T07:52:41.998Z</time></trkpt><trkpt lat="42.25801450574739" lon="13.796558383096217"><ele>386.75</ele><time>2026-05-02T07:52:42.998Z</time></trkpt><trkpt lat="42.25789856360782" lon="13.796577200488823"><ele>389.5</ele><time>2026-05-02T07:52:43.998Z</time></trkpt><trkpt lat="42.257784404544275" lon="13.796585842634414"><ele>392.25</ele><time>2026-05-02T07:52:44.998Z</time></trkpt><trkpt lat="42.25766163168576" lon="13.796576104354997"><ele>395.0</ele><time>2026-05-02T07:52:45.998Z</time></trkpt><trkpt lat="42.25753525522855" lon="13.796552228079566"><ele>395.0</ele><time>2026-05-02T07:52:46.998Z</time></trkpt><trkpt lat="42.25740924089396" lon="13.796531066181755"><ele>395.0</ele><time>2026-05-02T07:52:47.998Z</time></trkpt><trkpt lat="42.25729020579226" lon="13.796529913423926"><ele>395.0</ele><time>2026-05-02T07:52:49Z</time></trkpt><trkpt lat="42.25717860372671" lon="13.796532701815917"><ele>395.0</ele><time>2026-05-02T07:52:50Z</time></trkpt><trkpt lat="42.257066761210886" lon="13.796529157946672"><ele>397.4</ele><time>2026-05-02T07:52:51Z</time></trkpt><trkpt lat="42.256956648193146" lon="13.796515301626162"><ele>399.8</ele><time>2026-05-02T07:52:52Z</time></trkpt><trkpt lat="42.25684610982134" lon="13.79652264133482"><ele>402.20000000000005</ele><time>2026-05-02T07:52:53Z</time></trkpt><trkpt lat="42.256743862843074" lon="13.796560263135206"><ele>404.6</ele><time>2026-05-02T07:52:54Z</time></trkpt><trkpt lat="42.2566448874839" lon="13.796606083773284"><ele>407.0</ele><time>2026-05-02T07:52:55Z</time></trkpt><trkpt lat="42.25654283928691" lon="13.796653033409568"><ele>409.0</ele><time>2026-05-02T07:52:56Z</time></trkpt><trkpt lat="42.25644246939923" lon="13.79670041145787"><ele>411.0</ele><time>2026-05-02T07:52:57Z</time></trkpt><trkpt lat="42.25634844839957" lon="13.796739745137703"><ele>413.0</ele><time>2026-05-02T07:52:58Z</time></trkpt><trkpt lat="42.25624827481035" lon="13.796766684242465"><ele>415.0</ele><time>2026-05-02T07:52:59Z</time></trkpt><trkpt lat="42.25614661444907" lon="13.796767979655742"><ele>417.0</ele><time>2026-05-02T07:53:00Z</time></trkpt><trkpt lat="42.25603549821295" lon="13.796758690822308"><ele>417.0</ele><time>2026-05-02T07:53:01Z</time></trkpt><trkpt lat="42.25592055803083" lon="13.7967385752491"><ele>417.0</ele><time>2026-05-02T07:53:02Z</time></trkpt><trkpt lat="42.25580819416931" lon="13.796709340259726"><ele>417.0</ele><time>2026-05-02T07:53:03Z</time></trkpt><trkpt lat="42.25569635304615" lon="13.796683831082637"><ele>417.0</ele><time>2026-05-02T07:53:04Z</time></trkpt><trkpt lat="42.25559045871459" lon="13.796648328545858"><ele>418.40000000000003</ele><time>2026-05-02T07:53:05Z</time></trkpt><trkpt lat="42.25548623453842" lon="13.796600271933132"><ele>419.8</ele><time>2026-05-02T07:53:06Z</time></trkpt><trkpt lat="42.25538443738552" lon="13.796540128807028"><ele>421.2</ele><time>2026-05-02T07:53:07Z</time></trkpt><trkpt lat="42.25528867979043" lon="13.796473459254107"><ele>422.6</ele><time>2026-05-02T07:53:08Z</time></trkpt><trkpt lat="42.25518700260112" lon="13.796405556778824"><ele>424.0</ele><time>2026-05-02T07:53:09Z</time></trkpt><trkpt lat="42.255073662737196" lon="13.79634610163713"><ele>424.0</ele><time>2026-05-02T07:53:10Z</time></trkpt><trkpt lat="42.25495213007727" lon="13.796287153403126"><ele>424.0</ele><time>2026-05-02T07:53:11Z</time></trkpt><trkpt lat="42.25485131816034" lon="13.796212657903803"><ele>424.0</ele><time>2026-05-02T07:53:12Z</time></trkpt><trkpt lat="42.25475541834331" lon="13.796121322947688"><ele>424.0</ele><time>2026-05-02T07:53:13Z</time></trkpt><trkpt lat="42.25466286215475" lon="13.79601927907436"><ele>426.0</ele><time>2026-05-02T07:53:13.999Z</time></trkpt><trkpt lat="42.254563242064215" lon="13.795921748407181"><ele>428.0</ele><time>2026-05-02T07:53:14.999Z</time></trkpt><trkpt lat="42.25446462775544" lon="13.795826954938505"><ele>430.0</ele><time>2026-05-02T07:53:15.999Z</time></trkpt><trkpt lat="42.254385803497705" lon="13.795727222194026"><ele>432.0</ele><time>2026-05-02T07:53:16.999Z</time></trkpt><trkpt lat="42.25430738208516" lon="13.795626982372351"><ele>432.0</ele><time>2026-05-02T07:53:17.999Z</time></trkpt><trkpt lat="42.25423779324588" lon="13.795533269465256"><ele>432.0</ele><time>2026-05-02T07:53:18.999Z</time></trkpt><trkpt lat="42.25417495966604" lon="13.79545319448796"><ele>432.0</ele><time>2026-05-02T07:53:19.999Z</time></trkpt><trkpt lat="42.25412387449697" lon="13.795391310614152"><ele>432.0</ele><time>2026-05-02T07:53:20.999Z</time></trkpt><trkpt lat="42.254036376246496" lon="13.795297362163234"><ele>432.0</ele><time>2026-05-02T07:53:22.999Z</time></trkpt><trkpt lat="42.253974090304474" lon="13.795275851724616"><ele>432.0</ele><time>2026-05-02T07:53:24.999Z</time></trkpt><trkpt lat="42.25387205712649" lon="13.795227829942426"><ele>433.20000000000005</ele><time>2026-05-02T07:53:27.999Z</time></trkpt><trkpt lat="42.2538027833382" lon="13.795145891111405"><ele>434.40000000000003</ele><time>2026-05-02T07:53:29.999Z</time></trkpt><trkpt lat="42.25375698425435" lon="13.795008838841737"><ele>435.59999999999997</ele><time>2026-05-02T07:53:31.999Z</time></trkpt><trkpt lat="42.253691294190666" lon="13.79487803491439"><ele>436.79999999999995</ele><time>2026-05-02T07:53:33.999Z</time></trkpt><trkpt lat="42.25360976334507" lon="13.794755044629806"><ele>438.0</ele><time>2026-05-02T07:53:35.999Z</time></trkpt><trkpt lat="42.25353829450946" lon="13.794644353512423"><ele>438.0</ele><time>2026-05-02T07:53:37.999Z</time></trkpt><trkpt lat="42.253478282004785" lon="13.794513561585742"><ele>437.99999999999994</ele><time>2026-05-02T07:53:39.999Z</time></trkpt><trkpt lat="42.253407083261585" lon="13.794386501981068"><ele>437.99999999999994</ele><time>2026-05-02T07:53:41.999Z</time></trkpt><trkpt lat="42.253367385389666" lon="13.794315206605233"><ele>438.0</ele><time>2026-05-02T07:53:42.999Z</time></trkpt><trkpt lat="42.25331169673458" lon="13.794192576929595"><ele>438.0</ele><time>2026-05-02T07:53:44.999Z</time></trkpt><trkpt lat="42.25324851821834" lon="13.794131015114823"><ele>440.0</ele><time>2026-05-02T07:53:47.999Z</time></trkpt><trkpt lat="42.253185784220285" lon="13.794090908892935"><ele>442.0</ele><time>2026-05-02T07:54:41.998Z</time></trkpt><trkpt lat="42.25313191833941" lon="13.794039052720496"><ele>444.0</ele><time>2026-05-02T07:54:46.998Z</time></trkpt><trkpt lat="42.25309285320515" lon="13.793962714476471"><ele>446.0</ele><time>2026-05-02T07:56:06.999Z</time></trkpt><trkpt lat="42.25303243547742" lon="13.793927456889968"><ele>448.0</ele><time>2026-05-02T07:56:19.999Z</time></trkpt><trkpt lat="42.252954127020054" lon="13.793819110635281"><ele>450.0</ele><time>2026-05-02T07:56:36.998Z</time></trkpt><trkpt lat="42.25291868439138" lon="13.793733129378115"><ele>450.00000000000006</ele><time>2026-05-02T07:56:40.998Z</time></trkpt><trkpt lat="42.25287399843642" lon="13.793623077676187"><ele>450.0</ele><time>2026-05-02T07:56:43.998Z</time></trkpt><trkpt lat="42.25281846832748" lon="13.793573019417957"><ele>450.00000000000006</ele><time>2026-05-02T07:56:47.998Z</time></trkpt><trkpt lat="42.25278836603374" lon="13.793472670642156"><ele>450.00000000000006</ele><time>2026-05-02T07:56:56.998Z</time></trkpt><trkpt lat="42.252759787478" lon="13.793380092627109"><ele>450.0</ele><time>2026-05-02T07:57:03Z</time></trkpt><trkpt lat="42.25274214568185" lon="13.79329794932614"><ele>450.00000000000006</ele><time>2026-05-02T07:57:08Z</time></trkpt><trkpt lat="42.2527258888336" lon="13.79321444000641"><ele>450.00000000000006</ele><time>2026-05-02T07:59:00.998Z</time></trkpt><trkpt lat="42.252709514258726" lon="13.793130854370995"><ele>453.28571428571433</ele><time>2026-05-02T07:59:15Z</time></trkpt><trkpt lat="42.252707728579864" lon="13.793032605327243"><ele>456.57142857142856</ele><time>2026-05-02T08:00:03.999Z</time></trkpt><trkpt lat="42.252665448297044" lon="13.792945601345677"><ele>459.8571428571429</ele><time>2026-05-02T08:00:07.999Z</time></trkpt><trkpt lat="42.252636535431556" lon="13.792853399882516"><ele>463.14285714285717</ele><time>2026-05-02T08:00:14.999Z</time></trkpt><trkpt lat="42.25264313996698" lon="13.792764079163522"><ele>466.42857142857144</ele><time>2026-05-02T08:00:23.999Z</time></trkpt><trkpt lat="42.252614761604" lon="13.79266339681784"><ele>469.7142857142857</ele><time>2026-05-02T08:00:41.998Z</time></trkpt><trkpt lat="42.25258108237113" lon="13.792583201127455"><ele>473.0</ele><time>2026-05-02T08:00:45.998Z</time></trkpt><trkpt lat="42.25255385177893" lon="13.79249847802942"><ele>476.0</ele><time>2026-05-02T08:00:47.998Z</time></trkpt><trkpt lat="42.25251841978309" lon="13.792411472234093"><ele>479.0</ele><time>2026-05-02T08:00:49.998Z</time></trkpt><trkpt lat="42.252480520643466" lon="13.792322973135933"><ele>482.0</ele><time>2026-05-02T08:00:52.998Z</time></trkpt><trkpt lat="42.25246658216712" lon="13.792229578450193"><ele>485.0</ele><time>2026-05-02T08:00:56.998Z</time></trkpt><trkpt lat="42.252443337875754" lon="13.792146099735156"><ele>488.0</ele><time>2026-05-02T08:00:59.998Z</time></trkpt><trkpt lat="42.25241314877201" lon="13.792036762904761"><ele>491.0</ele><time>2026-05-02T08:01:03.998Z</time></trkpt><trkpt lat="42.252392401516786" lon="13.791955830267971"><ele>494.0</ele><time>2026-05-02T08:01:06.998Z</time></trkpt><trkpt lat="42.25235676466151" lon="13.791885204418929"><ele>495.14285714285717</ele><time>2026-05-02T08:01:09.998Z</time></trkpt><trkpt lat="42.25234225933916" lon="13.791800922731856"><ele>496.2857142857142</ele><time>2026-05-02T08:01:11.998Z</time></trkpt><trkpt lat="42.252312874415445" lon="13.79172064778664"><ele>497.4285714285714</ele><time>2026-05-02T08:01:12.999Z</time></trkpt><trkpt lat="42.252256426228165" lon="13.791654669780826"><ele>498.57142857142856</ele><time>2026-05-02T08:01:14.999Z</time></trkpt><trkpt lat="42.25217309141726" lon="13.791622392056214"><ele>499.71428571428567</ele><time>2026-05-02T08:01:59.999Z</time></trkpt><trkpt lat="42.25212129083702" lon="13.791560783373043"><ele>500.8571428571428</ele><time>2026-05-02T08:02:01.999Z</time></trkpt><trkpt lat="42.252114777917846" lon="13.791466383376147"><ele>501.99999999999994</ele><time>2026-05-02T08:02:03.999Z</time></trkpt><trkpt lat="42.252086471964404" lon="13.791389315303352"><ele>502.00000000000006</ele><time>2026-05-02T08:02:05.999Z</time></trkpt><trkpt lat="42.252031215622665" lon="13.791340142471462"><ele>502.0</ele><time>2026-05-02T08:02:21.999Z</time></trkpt><trkpt lat="42.251993461785275" lon="13.791247018200508"><ele>502.0</ele><time>2026-05-02T08:03:16.998Z</time></trkpt><trkpt lat="42.251923937419924" lon="13.791159417266483"><ele>502.0</ele><time>2026-05-02T08:03:19.999Z</time></trkpt><trkpt lat="42.25190378315813" lon="13.791072461620479"><ele>502.00000000000006</ele><time>2026-05-02T08:03:21.999Z</time></trkpt><trkpt lat="42.25188676796838" lon="13.790969460843485"><ele>502.0</ele><time>2026-05-02T08:03:24.999Z</time></trkpt><trkpt lat="42.25185633069598" lon="13.790880775737039"><ele>505.83333333333337</ele><time>2026-05-02T08:03:28.999Z</time></trkpt><trkpt lat="42.25181344300743" lon="13.790780861044444"><ele>509.6666666666667</ele><time>2026-05-02T08:04:03.999Z</time></trkpt><trkpt lat="42.25177356543917" lon="13.790694327760644"><ele>513.5</ele><time>2026-05-02T08:04:05.999Z</time></trkpt><trkpt lat="42.251720283331075" lon="13.790633105979643"><ele>517.3333333333334</ele><time>2026-05-02T08:04:07.999Z</time></trkpt><trkpt lat="42.25166497843272" lon="13.790548015297407"><ele>521.1666666666666</ele><time>2026-05-02T08:04:09.999Z</time></trkpt><trkpt lat="42.25161303766591" lon="13.790489726034933"><ele>525.0</ele><time>2026-05-02T08:04:11.999Z</time></trkpt><trkpt lat="42.25155957819552" lon="13.79042692561996"><ele>525.0</ele><time>2026-05-02T08:04:13.999Z</time></trkpt><trkpt lat="42.251502094008295" lon="13.790366412854965"><ele>525.0</ele><time>2026-05-02T08:04:15.999Z</time></trkpt><trkpt lat="42.25144299457821" lon="13.790290567054694"><ele>525.0</ele><time>2026-05-02T08:04:17.999Z</time></trkpt><trkpt lat="42.25140353486146" lon="13.790214871048503"><ele>525.0</ele><time>2026-05-02T08:04:19.999Z</time></trkpt><trkpt lat="42.25136931754916" lon="13.790118991234644"><ele>525.0</ele><time>2026-05-02T08:04:22.999Z</time></trkpt><trkpt lat="42.25129816088174" lon="13.790088647308163"><ele>525.0</ele><time>2026-05-02T08:04:25.999Z</time></trkpt><trkpt lat="42.25123633689063" lon="13.790053256786614"><ele>525.0</ele><time>2026-05-02T08:04:28.999Z</time></trkpt><trkpt lat="42.25118933457265" lon="13.789985574793127"><ele>528.6666666666666</ele><time>2026-05-02T08:04:33.999Z</time></trkpt><trkpt lat="42.251126012859814" lon="13.78995228387266"><ele>532.3333333333334</ele><time>2026-05-02T08:04:39.999Z</time></trkpt><trkpt lat="42.251060396803396" lon="13.789920367836913"><ele>536.0</ele><time>2026-05-02T08:04:52.998Z</time></trkpt><trkpt lat="42.2509942906935" lon="13.789862656052629"><ele>539.6666666666667</ele><time>2026-05-02T08:04:55.998Z</time></trkpt><trkpt lat="42.25092446436873" lon="13.789822043527371"><ele>543.3333333333334</ele><time>2026-05-02T08:04:57.998Z</time></trkpt><trkpt lat="42.2509091062529" lon="13.789703106627947"><ele>547.0</ele><time>2026-05-02T08:04:59.998Z</time></trkpt><trkpt lat="42.250870076236495" lon="13.789596274790016"><ele>547.0</ele><time>2026-05-02T08:05:03.998Z</time></trkpt><trkpt lat="42.250809513401116" lon="13.78956195259135"><ele>547.0</ele><time>2026-05-02T08:05:06.998Z</time></trkpt><trkpt lat="42.25075846808407" lon="13.789503263528141"><ele>547.0</ele><time>2026-05-02T08:05:09.998Z</time></trkpt><trkpt lat="42.250695985964754" lon="13.789453146896015"><ele>547.0</ele><time>2026-05-02T08:05:12.998Z</time></trkpt><trkpt lat="42.25061050578494" lon="13.789425054870534"><ele>547.0</ele><time>2026-05-02T08:06:17.999Z</time></trkpt><trkpt lat="42.25054787754698" lon="13.78939857869241"><ele>547.0</ele><time>2026-05-02T08:06:19.999Z</time></trkpt><trkpt lat="42.25046416270961" lon="13.789367477731767"><ele>547.0</ele><time>2026-05-02T08:06:23.999Z</time></trkpt><trkpt lat="42.25037969632624" lon="13.789334708176234"><ele>549.8000000000001</ele><time>2026-05-02T08:06:26.999Z</time></trkpt><trkpt lat="42.25029770629937" lon="13.789295745181608"><ele>552.6</ele><time>2026-05-02T08:06:29.999Z</time></trkpt><trkpt lat="42.25024250458006" lon="13.789245055665166"><ele>555.4000000000001</ele><time>2026-05-02T08:06:31.999Z</time></trkpt><trkpt lat="42.25016402293596" lon="13.789169414731308"><ele>558.2</ele><time>2026-05-02T08:06:34.999Z</time></trkpt><trkpt lat="42.25010850860622" lon="13.789058234557649"><ele>561.0</ele><time>2026-05-02T08:06:36.999Z</time></trkpt><trkpt lat="42.25004553337015" lon="13.788913256977303"><ele>561.0</ele><time>2026-05-02T08:06:38.999Z</time></trkpt><trkpt lat="42.24998378305793" lon="13.788801827487925"><ele>561.0</ele><time>2026-05-02T08:06:40.999Z</time></trkpt><trkpt lat="42.24991481359888" lon="13.788692545455028"><ele>561.0</ele><time>2026-05-02T08:06:42.999Z</time></trkpt><trkpt lat="42.249845621221354" lon="13.788625315892261"><ele>561.0</ele><time>2026-05-02T08:06:44.998Z</time></trkpt><trkpt lat="42.24975207881624" lon="13.788555035798828"><ele>561.0</ele><time>2026-05-02T08:06:46.998Z</time></trkpt><trkpt lat="42.249648712368796" lon="13.788450084305415"><ele>564.6</ele><time>2026-05-02T08:06:48.998Z</time></trkpt><trkpt lat="42.24959409717884" lon="13.788403999701213"><ele>568.2</ele><time>2026-05-02T08:06:49.998Z</time></trkpt><trkpt lat="42.249527710376924" lon="13.788314464746739"><ele>571.8</ele><time>2026-05-02T08:06:51.998Z</time></trkpt><trkpt lat="42.249453835073005" lon="13.78822566572211"><ele>575.4</ele><time>2026-05-02T08:06:53.998Z</time></trkpt><trkpt lat="42.24938232281251" lon="13.788129653214977"><ele>579.0</ele><time>2026-05-02T08:06:55.998Z</time></trkpt><trkpt lat="42.249310044121444" lon="13.788037825930076"><ele>578.9999999999999</ele><time>2026-05-02T08:06:57.998Z</time></trkpt><trkpt lat="42.249248970534836" lon="13.787978482487917"><ele>579.0</ele><time>2026-05-02T08:06:59.998Z</time></trkpt><trkpt lat="42.2491832302485" lon="13.787924889587682"><ele>579.0</ele><time>2026-05-02T08:07:03.998Z</time></trkpt><trkpt lat="42.24913227538362" lon="13.78787342271181"><ele>579.0</ele><time>2026-05-02T08:07:05.998Z</time></trkpt><trkpt lat="42.24909191520989" lon="13.787788138084238"><ele>579.0</ele><time>2026-05-02T08:07:07.998Z</time></trkpt><trkpt lat="42.249061451250775" lon="13.78770930679003"><ele>578.9999999999999</ele><time>2026-05-02T08:07:09.998Z</time></trkpt><trkpt lat="42.24900759284402" lon="13.78766187605149"><ele>579.0</ele><time>2026-05-02T08:07:12.998Z</time></trkpt><trkpt lat="42.24892403927039" lon="13.787623135355492"><ele>583.0</ele><time>2026-05-02T08:07:15.998Z</time></trkpt><trkpt lat="42.2488500039174" lon="13.787646379903146"><ele>587.0</ele><time>2026-05-02T08:07:18.999Z</time></trkpt><trkpt lat="42.2487330483564" lon="13.787585923402327"><ele>591.0</ele><time>2026-05-02T08:07:21.999Z</time></trkpt><trkpt lat="42.24866761994216" lon="13.787552962573693"><ele>595.0</ele><time>2026-05-02T08:07:25.999Z</time></trkpt><trkpt lat="42.24860661733872" lon="13.78748846184399"><ele>599.0</ele><time>2026-05-02T08:07:29.999Z</time></trkpt><trkpt lat="42.24855782994676" lon="13.787419770097484"><ele>603.0</ele><time>2026-05-02T08:07:38Z</time></trkpt><trkpt lat="42.248484436467734" lon="13.787381274693582"><ele>603.0</ele><time>2026-05-02T08:07:42Z</time></trkpt><trkpt lat="42.24842306828237" lon="13.787356301684921"><ele>603.0</ele><time>2026-05-02T08:07:44Z</time></trkpt><trkpt lat="42.24835335764469" lon="13.787296664822343"><ele>603.0</ele><time>2026-05-02T08:07:46Z</time></trkpt><trkpt lat="42.248273936278814" lon="13.787321237129438"><ele>603.0</ele><time>2026-05-02T08:07:50Z</time></trkpt><trkpt lat="42.2482158217115" lon="13.787273272915108"><ele>603.0</ele><time>2026-05-02T08:07:52Z</time></trkpt><trkpt lat="42.248116594101226" lon="13.787262755639455"><ele>603.0</ele><time>2026-05-02T08:07:55Z</time></trkpt><trkpt lat="42.248031557124754" lon="13.787319593821545"><ele>606.1666666666666</ele><time>2026-05-02T08:07:57Z</time></trkpt><trkpt lat="42.247959136125964" lon="13.787320105913054"><ele>609.3333333333334</ele><time>2026-05-02T08:07:58Z</time></trkpt><trkpt lat="42.24787583065481" lon="13.787376004675004"><ele>612.5</ele><time>2026-05-02T08:08:01Z</time></trkpt><trkpt lat="42.24781019176839" lon="13.787432093402183"><ele>615.6666666666667</ele><time>2026-05-02T08:08:03Z</time></trkpt><trkpt lat="42.24771239725309" lon="13.78745023470847"><ele>618.8333333333334</ele><time>2026-05-02T08:08:06Z</time></trkpt><trkpt lat="42.247634752931404" lon="13.787473657231192"><ele>622.0</ele><time>2026-05-02T08:08:08Z</time></trkpt><trkpt lat="42.247551956477835" lon="13.787507456038878"><ele>622.0</ele><time>2026-05-02T08:08:10Z</time></trkpt><trkpt lat="42.247496199508525" lon="13.787563387650646"><ele>622.0</ele><time>2026-05-02T08:08:12Z</time></trkpt><trkpt lat="42.24741240346979" lon="13.787564098130732"><ele>622.0</ele><time>2026-05-02T08:08:14Z</time></trkpt><trkpt lat="42.247349981995534" lon="13.787587172041162"><ele>622.0</ele><time>2026-05-02T08:08:17Z</time></trkpt><trkpt lat="42.2472834765573" lon="13.787596854329763"><ele>622.0</ele><time>2026-05-02T08:08:21Z</time></trkpt><trkpt lat="42.24716040921409" lon="13.787616261417183"><ele>622.0</ele><time>2026-05-02T08:08:24Z</time></trkpt><trkpt lat="42.24708553550174" lon="13.787646322843084"><ele>623.8571428571428</ele><time>2026-05-02T08:08:27Z</time></trkpt><trkpt lat="42.24700492004189" lon="13.787624750895379"><ele>625.7142857142858</ele><time>2026-05-02T08:08:30Z</time></trkpt><trkpt lat="42.246926363728186" lon="13.78764012845902"><ele>627.5714285714286</ele><time>2026-05-02T08:08:33Z</time></trkpt><trkpt lat="42.24684282615528" lon="13.787630574177623"><ele>629.4285714285713</ele><time>2026-05-02T08:08:36Z</time></trkpt><trkpt lat="42.24677657610548" lon="13.787668288752652"><ele>631.2857142857142</ele><time>2026-05-02T08:08:38Z</time></trkpt><trkpt lat="42.246728445446436" lon="13.787723421059889"><ele>633.1428571428571</ele><time>2026-05-02T08:08:40Z</time></trkpt><trkpt lat="42.246664327190906" lon="13.78772962747088"><ele>635.0</ele><time>2026-05-02T08:08:42Z</time></trkpt><trkpt lat="42.24656898497921" lon="13.7877164306793"><ele>635.0</ele><time>2026-05-02T08:08:44Z</time></trkpt><trkpt lat="42.246495868644" lon="13.787754871691028"><ele>635.0</ele><time>2026-05-02T08:08:47Z</time></trkpt><trkpt lat="42.24642624502756" lon="13.787782845336652"><ele>635.0</ele><time>2026-05-02T08:08:51Z</time></trkpt><trkpt lat="42.24636621867481" lon="13.787818960995919"><ele>635.0</ele><time>2026-05-02T08:08:53.999Z</time></trkpt><trkpt lat="42.24628162289921" lon="13.787856260554525"><ele>635.0</ele><time>2026-05-02T08:08:56.999Z</time></trkpt><trkpt lat="42.24621347776339" lon="13.787859255470671"><ele>635.0</ele><time>2026-05-02T08:08:59.999Z</time></trkpt><trkpt lat="42.24613318715138" lon="13.787883899690783"><ele>638.5</ele><time>2026-05-02T08:09:02.999Z</time></trkpt><trkpt lat="42.246048409638604" lon="13.787921685438022"><ele>642.0</ele><time>2026-05-02T08:09:05.999Z</time></trkpt><trkpt lat="42.24596961551933" lon="13.787951070174055"><ele>645.5</ele><time>2026-05-02T08:09:06.999Z</time></trkpt><trkpt lat="42.24588824923994" lon="13.787926895491555"><ele>649.0</ele><time>2026-05-02T08:09:09.999Z</time></trkpt><trkpt lat="42.245815210312735" lon="13.787940645755683"><ele>652.5</ele><time>2026-05-02T08:10:05Z</time></trkpt><trkpt lat="42.24573599085629" lon="13.787931528061959"><ele>656.0</ele><time>2026-05-02T08:10:10Z</time></trkpt><trkpt lat="42.24566838396127" lon="13.787935505209632"><ele>658.6666666666666</ele><time>2026-05-02T08:10:13Z</time></trkpt><trkpt lat="42.24558594458443" lon="13.787928645914265"><ele>661.3333333333333</ele><time>2026-05-02T08:10:16Z</time></trkpt><trkpt lat="42.24552104179104" lon="13.78796919479084"><ele>664.0</ele><time>2026-05-02T08:10:18Z</time></trkpt><trkpt lat="42.24545266318855" lon="13.787988651728403"><ele>666.6666666666666</ele><time>2026-05-02T08:10:20Z</time></trkpt><trkpt lat="42.245356568461645" lon="13.788003111820258"><ele>669.3333333333334</ele><time>2026-05-02T08:10:23Z</time></trkpt><trkpt lat="42.24527161586082" lon="13.788006808091666"><ele>672.0</ele><time>2026-05-02T08:10:25Z</time></trkpt><trkpt lat="42.24520966858257" lon="13.788040620356568"><ele>672.0</ele><time>2026-05-02T08:10:29Z</time></trkpt><trkpt lat="42.24514241530564" lon="13.788055048785932"><ele>672.0</ele><time>2026-05-02T08:18:17Z</time></trkpt><trkpt lat="42.24503950836499" lon="13.788006759556216"><ele>672.0</ele><time>2026-05-02T08:18:19Z</time></trkpt><trkpt lat="42.24492179869956" lon="13.788006657686022"><ele>672.0</ele><time>2026-05-02T08:18:21Z</time></trkpt><trkpt lat="42.244831332729795" lon="13.788041148294255"><ele>672.0</ele><time>2026-05-02T08:18:23Z</time></trkpt><trkpt lat="42.2447340701108" lon="13.788080065953071"><ele>673.8571428571429</ele><time>2026-05-02T08:18:25Z</time></trkpt><trkpt lat="42.244655474727956" lon="13.788113229980912"><ele>675.7142857142858</ele><time>2026-05-02T08:18:27Z</time></trkpt><trkpt lat="42.24458557523368" lon="13.78813684963655"><ele>677.5714285714286</ele><time>2026-05-02T08:18:29Z</time></trkpt><trkpt lat="42.24452860509707" lon="13.788179849773051"><ele>679.4285714285714</ele><time>2026-05-02T08:18:32Z</time></trkpt><trkpt lat="42.24446225087042" lon="13.78819394810409"><ele>681.2857142857143</ele><time>2026-05-02T08:18:34Z</time></trkpt><trkpt lat="42.244401011094155" lon="13.788156704695222"><ele>683.1428571428571</ele><time>2026-05-02T08:18:36Z</time></trkpt><trkpt lat="42.244347690434424" lon="13.788202828467027"><ele>685.0</ele><time>2026-05-02T08:18:39Z</time></trkpt><trkpt lat="42.24428717276344" lon="13.788258503126691"><ele>685.0</ele><time>2026-05-02T08:18:42Z</time></trkpt><trkpt lat="42.24416464188616" lon="13.78835159520631"><ele>685.0</ele><time>2026-05-02T08:18:43Z</time></trkpt><trkpt lat="42.2440977958752" lon="13.788401820087662"><ele>685.0</ele><time>2026-05-02T08:18:44Z</time></trkpt><trkpt lat="42.244029499379764" lon="13.788441319246214"><ele>685.0</ele><time>2026-05-02T08:18:45Z</time></trkpt><trkpt lat="42.2439559928011" lon="13.78847009723103"><ele>685.0</ele><time>2026-05-02T08:18:46Z</time></trkpt><trkpt lat="42.24388483005975" lon="13.788493958015136"><ele>685.0</ele><time>2026-05-02T08:18:47Z</time></trkpt><trkpt lat="42.243819980408695" lon="13.788520613909677"><ele>685.1666666666667</ele><time>2026-05-02T08:18:48Z</time></trkpt><trkpt lat="42.24374986221438" lon="13.788536176997916"><ele>685.3333333333334</ele><time>2026-05-02T08:18:49Z</time></trkpt><trkpt lat="42.243677830869466" lon="13.788528524727376"><ele>685.5</ele><time>2026-05-02T08:18:50Z</time></trkpt><trkpt lat="42.243601943703865" lon="13.78849952451689"><ele>685.6666666666666</ele><time>2026-05-02T08:18:51Z</time></trkpt><trkpt lat="42.24353220158824" lon="13.788456815830635"><ele>685.8333333333333</ele><time>2026-05-02T08:18:52Z</time></trkpt><trkpt lat="42.24346935606731" lon="13.788433348476588"><ele>686.0</ele><time>2026-05-02T08:18:53Z</time></trkpt><trkpt lat="42.24339638105074" lon="13.788357670711772"><ele>685.75</ele><time>2026-05-02T08:18:55Z</time></trkpt><trkpt lat="42.243314989931015" lon="13.788243641470123"><ele>685.5</ele><time>2026-05-02T08:18:57Z</time></trkpt><trkpt lat="42.243228539469634" lon="13.78815692398477"><ele>685.25</ele><time>2026-05-02T08:18:59Z</time></trkpt><trkpt lat="42.243137205079705" lon="13.78805061237719"><ele>685.0</ele><time>2026-05-02T08:19:01Z</time></trkpt><trkpt lat="42.24303375126797" lon="13.787961113721725"><ele>685.0</ele><time>2026-05-02T08:19:03Z</time></trkpt><trkpt lat="42.242927019513594" lon="13.787954866764442"><ele>685.0</ele><time>2026-05-02T08:19:05Z</time></trkpt><trkpt lat="42.24286350532686" lon="13.787929614364122"><ele>685.0</ele><time>2026-05-02T08:19:06Z</time></trkpt><trkpt lat="42.24279381892945" lon="13.787916999658465"><ele>685.0</ele><time>2026-05-02T08:19:07Z</time></trkpt><trkpt lat="42.24268370141079" lon="13.78794649490553"><ele>685.0</ele><time>2026-05-02T08:19:09Z</time></trkpt><trkpt lat="42.2426017937259" lon="13.787913005102949"><ele>685.0</ele><time>2026-05-02T08:19:11Z</time></trkpt><trkpt lat="42.242522332083816" lon="13.787829767053179"><ele>685.0</ele><time>2026-05-02T08:19:13Z</time></trkpt><trkpt lat="42.24246996922729" lon="13.787720773148758"><ele>685.0</ele><time>2026-05-02T08:19:15Z</time></trkpt><trkpt lat="42.24241494116136" lon="13.78757059367654"><ele>685.0</ele><time>2026-05-02T08:19:17Z</time></trkpt><trkpt lat="42.242363854397894" lon="13.787466107134799"><ele>685.0</ele><time>2026-05-02T08:19:19Z</time></trkpt><trkpt lat="42.24230430585137" lon="13.787412307912561"><ele>685.0</ele><time>2026-05-02T08:19:22Z</time></trkpt><trkpt lat="42.24221352574697" lon="13.787352876086581"><ele>687.2</ele><time>2026-05-02T08:19:28.999Z</time></trkpt><trkpt lat="42.24216400491839" lon="13.78726968022595"><ele>689.4</ele><time>2026-05-02T08:19:29.999Z</time></trkpt><trkpt lat="42.24203272137732" lon="13.787253111353678"><ele>691.5999999999999</ele><time>2026-05-02T08:19:31.999Z</time></trkpt><trkpt lat="42.24193313960187" lon="13.787249528257723"><ele>693.8</ele><time>2026-05-02T08:19:32.999Z</time></trkpt><trkpt lat="42.241851287225764" lon="13.787239208120585"><ele>696.0</ele><time>2026-05-02T08:19:33.999Z</time></trkpt><trkpt lat="42.241774923393784" lon="13.787219115227165"><ele>696.0</ele><time>2026-05-02T08:19:34.999Z</time></trkpt><trkpt lat="42.24170241255432" lon="13.78720384292383"><ele>696.0</ele><time>2026-05-02T08:19:35.999Z</time></trkpt><trkpt lat="42.24163599063737" lon="13.787184897183339"><ele>696.0</ele><time>2026-05-02T08:19:36.999Z</time></trkpt><trkpt lat="42.241539728793065" lon="13.787155191574385"><ele>696.0</ele><time>2026-05-02T08:19:38.999Z</time></trkpt><trkpt lat="42.241439542871674" lon="13.787099520626787"><ele>696.0</ele><time>2026-05-02T08:19:40.999Z</time></trkpt><trkpt lat="42.241325716004845" lon="13.787063711245974"><ele>698.4</ele><time>2026-05-02T08:19:42.999Z</time></trkpt><trkpt lat="42.24123590310382" lon="13.787083356373872"><ele>700.8</ele><time>2026-05-02T08:19:44.999Z</time></trkpt><trkpt lat="42.241130678087906" lon="13.787126637117444"><ele>703.1999999999999</ele><time>2026-05-02T08:19:46.999Z</time></trkpt><trkpt lat="42.24103180822949" lon="13.787201027443007"><ele>705.5999999999999</ele><time>2026-05-02T08:19:48.999Z</time></trkpt><trkpt lat="42.24095402447355" lon="13.787248154760514"><ele>708.0</ele><time>2026-05-02T08:19:50.999Z</time></trkpt><trkpt lat="42.240874632232504" lon="13.78728213391492"><ele>708.0</ele><time>2026-05-02T08:19:52.999Z</time></trkpt><trkpt lat="42.240790792152254" lon="13.787315016973883"><ele>708.0</ele><time>2026-05-02T08:19:54.999Z</time></trkpt><trkpt lat="42.240723964653064" lon="13.78733867894125"><ele>708.0</ele><time>2026-05-02T08:19:55.999Z</time></trkpt><trkpt lat="42.24064873565549" lon="13.787362666377282"><ele>708.0</ele><time>2026-05-02T08:19:56.999Z</time></trkpt><trkpt lat="42.24056305049382" lon="13.787402472231783"><ele>708.0</ele><time>2026-05-02T08:19:57.999Z</time></trkpt><trkpt lat="42.2404821690385" lon="13.78744104145361"><ele>708.0</ele><time>2026-05-02T08:19:58.999Z</time></trkpt><trkpt lat="42.24040723916671" lon="13.787467965749693"><ele>709.8333333333334</ele><time>2026-05-02T08:19:59.999Z</time></trkpt><trkpt lat="42.24033762726211" lon="13.787480663985162"><ele>711.6666666666666</ele><time>2026-05-02T08:20:00.999Z</time></trkpt><trkpt lat="42.24026961102402" lon="13.787485144079517"><ele>713.5</ele><time>2026-05-02T08:20:01.999Z</time></trkpt><trkpt lat="42.24020460663668" lon="13.787460947778772"><ele>715.3333333333333</ele><time>2026-05-02T08:20:02.999Z</time></trkpt><trkpt lat="42.240140568942465" lon="13.787442332172422"><ele>717.1666666666666</ele><time>2026-05-02T08:20:03.999Z</time></trkpt><trkpt lat="42.24007634437771" lon="13.787420573573835"><ele>719.0</ele><time>2026-05-02T08:20:04.999Z</time></trkpt><trkpt lat="42.23996450512008" lon="13.787391090321098"><ele>719.0</ele><time>2026-05-02T08:20:07Z</time></trkpt><trkpt lat="42.23990105316655" lon="13.787387653489601"><ele>719.0</ele><time>2026-05-02T08:20:08Z</time></trkpt><trkpt lat="42.239791916449114" lon="13.787409098515443"><ele>719.0</ele><time>2026-05-02T08:20:10Z</time></trkpt><trkpt lat="42.23966587001318" lon="13.78741458821172"><ele>719.0</ele><time>2026-05-02T08:20:12Z</time></trkpt><trkpt lat="42.23959804277808" lon="13.787406577675442"><ele>719.0</ele><time>2026-05-02T08:20:13Z</time></trkpt><trkpt lat="42.23952535001569" lon="13.78739533827498"><ele>719.0</ele><time>2026-05-02T08:20:14Z</time></trkpt><trkpt lat="42.23946018473939" lon="13.787377663166895"><ele>722.0</ele><time>2026-05-02T08:20:15Z</time></trkpt><trkpt lat="42.23939160838957" lon="13.787357880891859"><ele>725.0</ele><time>2026-05-02T08:20:16Z</time></trkpt><trkpt lat="42.23931177670042" lon="13.787338095234029"><ele>728.0</ele><time>2026-05-02T08:20:17Z</time></trkpt><trkpt lat="42.23923272440023" lon="13.78731870398891"><ele>731.0</ele><time>2026-05-02T08:20:18Z</time></trkpt><trkpt lat="42.23916032261602" lon="13.787300394918136"><ele>734.0</ele><time>2026-05-02T08:20:19Z</time></trkpt><trkpt lat="42.23903875694475" lon="13.787266834946257"><ele>737.0</ele><time>2026-05-02T08:20:21Z</time></trkpt><trkpt lat="42.23891541205641" lon="13.787243505531135"><ele>739.8</ele><time>2026-05-02T08:20:23Z</time></trkpt><trkpt lat="42.23884579157245" lon="13.787237235384653"><ele>742.6</ele><time>2026-05-02T08:20:48Z</time></trkpt><trkpt lat="42.238745910035725" lon="13.787214396076934"><ele>745.4</ele><time>2026-05-02T08:20:50Z</time></trkpt><trkpt lat="42.2386502048827" lon="13.787264653472254"><ele>748.1999999999999</ele><time>2026-05-02T08:20:52Z</time></trkpt><trkpt lat="42.238541211763376" lon="13.787326730190664"><ele>751.0</ele><time>2026-05-02T08:20:54Z</time></trkpt><trkpt lat="42.23844479202455" lon="13.787337006135647"><ele>751.0</ele><time>2026-05-02T08:20:56Z</time></trkpt><trkpt lat="42.238342291787006" lon="13.787303427012185"><ele>751.0</ele><time>2026-05-02T08:20:58Z</time></trkpt><trkpt lat="42.23823338493351" lon="13.78725561655145"><ele>751.0</ele><time>2026-05-02T08:21:00Z</time></trkpt><trkpt lat="42.23811485923675" lon="13.787250884314572"><ele>751.0</ele><time>2026-05-02T08:21:02Z</time></trkpt><trkpt lat="42.23800917649204" lon="13.787244965969114"><ele>751.0</ele><time>2026-05-02T08:21:04Z</time></trkpt><trkpt lat="42.23790044727028" lon="13.787214456683992"><ele>752.4</ele><time>2026-05-02T08:21:06Z</time></trkpt><trkpt lat="42.23781015299243" lon="13.787141220014782"><ele>753.8</ele><time>2026-05-02T08:21:08Z</time></trkpt><trkpt lat="42.23773806454458" lon="13.787034807687041"><ele>755.1999999999999</ele><time>2026-05-02T08:21:10Z</time></trkpt><trkpt lat="42.23766206261732" lon="13.786949152130248"><ele>756.5999999999999</ele><time>2026-05-02T08:21:12Z</time></trkpt><trkpt lat="42.237566369031676" lon="13.786891707821244"><ele>758.0</ele><time>2026-05-02T08:21:14Z</time></trkpt><trkpt lat="42.237468723950464" lon="13.786817032179504"><ele>759.0</ele><time>2026-05-02T08:21:16Z</time></trkpt><trkpt lat="42.23738594100518" lon="13.786768527834901"><ele>760.0</ele><time>2026-05-02T08:21:18Z</time></trkpt><trkpt lat="42.237279243201534" lon="13.78673581448137"><ele>761.0</ele><time>2026-05-02T08:21:20Z</time></trkpt><trkpt lat="42.23716660224791" lon="13.786708340319244"><ele>762.0</ele><time>2026-05-02T08:21:22Z</time></trkpt><trkpt lat="42.2370713609708" lon="13.786650220368998"><ele>763.0</ele><time>2026-05-02T08:21:24Z</time></trkpt><trkpt lat="42.2370207713011" lon="13.7865881036524"><ele>765.5999999999999</ele><time>2026-05-02T08:21:25Z</time></trkpt><trkpt lat="42.23695914565382" lon="13.786536335766229"><ele>768.1999999999999</ele><time>2026-05-02T08:21:26Z</time></trkpt><trkpt lat="42.236895786713994" lon="13.786501418357645"><ele>770.8</ele><time>2026-05-02T08:21:27Z</time></trkpt><trkpt lat="42.236832208618374" lon="13.786486122622389"><ele>773.4</ele><time>2026-05-02T08:21:28Z</time></trkpt><trkpt lat="42.23670370850429" lon="13.786500192475675"><ele>776.0</ele><time>2026-05-02T08:21:29.999Z</time></trkpt><trkpt lat="42.23657962912997" lon="13.786550796612602"><ele>776.0000000000001</ele><time>2026-05-02T08:21:31.999Z</time></trkpt><trkpt lat="42.23651671815416" lon="13.78656672874762"><ele>776.0</ele><time>2026-05-02T08:21:32.999Z</time></trkpt><trkpt lat="42.23639420173622" lon="13.786604610538634"><ele>776.0</ele><time>2026-05-02T08:21:34.999Z</time></trkpt><trkpt lat="42.23633350161472" lon="13.786648806217379"><ele>776.0</ele><time>2026-05-02T08:21:35.999Z</time></trkpt><trkpt lat="42.23628038486893" lon="13.78672105664349"><ele>776.0000000000001</ele><time>2026-05-02T08:21:36.999Z</time></trkpt><trkpt lat="42.23621788693674" lon="13.786797063518256"><ele>776.0</ele><time>2026-05-02T08:21:37.999Z</time></trkpt><trkpt lat="42.23615151757642" lon="13.786847466477262"><ele>778.4</ele><time>2026-05-02T08:21:38.999Z</time></trkpt><trkpt lat="42.23608466944921" lon="13.786886591910838"><ele>780.8</ele><time>2026-05-02T08:21:39.999Z</time></trkpt><trkpt lat="42.23602312003006" lon="13.786922369574823"><ele>783.1999999999999</ele><time>2026-05-02T08:21:40.999Z</time></trkpt><trkpt lat="42.23591898357836" lon="13.786958996111107"><ele>785.5999999999999</ele><time>2026-05-02T08:21:42.999Z</time></trkpt><trkpt lat="42.23580383447972" lon="13.786980182334691"><ele>788.0</ele><time>2026-05-02T08:21:44.999Z</time></trkpt><trkpt lat="42.23571735885923" lon="13.787061503199128"><ele>788.2</ele><time>2026-05-02T08:21:46.999Z</time></trkpt><trkpt lat="42.235624731084144" lon="13.787154757055124"><ele>788.4</ele><time>2026-05-02T08:21:48.999Z</time></trkpt><trkpt lat="42.2354903700348" lon="13.787186255560982"><ele>788.6</ele><time>2026-05-02T08:21:50.999Z</time></trkpt><trkpt lat="42.235406809593144" lon="13.787203117372378"><ele>788.8000000000001</ele><time>2026-05-02T08:21:51.999Z</time></trkpt><trkpt lat="42.235319750847104" lon="13.787225534691913"><ele>789.0</ele><time>2026-05-02T08:21:52.999Z</time></trkpt><trkpt lat="42.235234625790405" lon="13.787234185603642"><ele>789.0</ele><time>2026-05-02T08:21:53.999Z</time></trkpt><trkpt lat="42.23515695083924" lon="13.787243665113305"><ele>789.0</ele><time>2026-05-02T08:21:54.999Z</time></trkpt><trkpt lat="42.23508902329415" lon="13.787250624718581"><ele>789.0</ele><time>2026-05-02T08:21:55.999Z</time></trkpt><trkpt lat="42.234970836892906" lon="13.787253691577229"><ele>789.0</ele><time>2026-05-02T08:21:57.999Z</time></trkpt><trkpt lat="42.234899694300836" lon="13.787198959078218"><ele>789.0</ele><time>2026-05-02T08:21:59.999Z</time></trkpt><trkpt lat="42.23485595555476" lon="13.787052989222882"><ele>788.9999999999999</ele><time>2026-05-02T08:22:01.999Z</time></trkpt><trkpt lat="42.234817029176696" lon="13.786975869264397"><ele>789.0</ele><time>2026-05-02T08:22:02.999Z</time></trkpt><trkpt lat="42.23476557155865" lon="13.78691775898924"><ele>789.0</ele><time>2026-05-02T08:22:03.999Z</time></trkpt><trkpt lat="42.23471098721747" lon="13.786859733702608"><ele>789.0</ele><time>2026-05-02T08:22:04.999Z</time></trkpt><trkpt lat="42.2346575298618" lon="13.786803991076923"><ele>789.0</ele><time>2026-05-02T08:22:05.999Z</time></trkpt><trkpt lat="42.234590753317626" lon="13.786734464249356"><ele>788.9999999999999</ele><time>2026-05-02T08:22:07.999Z</time></trkpt><trkpt lat="42.23463365188875" lon="13.78663785890191"><ele>789.0</ele><time>2026-05-02T08:23:09Z</time></trkpt><trkpt lat="42.23476264556677" lon="13.786551291215781"><ele>790.6</ele><time>2026-05-02T08:23:11Z</time></trkpt><trkpt lat="42.234840522460495" lon="13.78648694580797"><ele>792.2</ele><time>2026-05-02T08:23:12Z</time></trkpt><trkpt lat="42.23492168945526" lon="13.786423630157993"><ele>793.8000000000001</ele><time>2026-05-02T08:23:13Z</time></trkpt><trkpt lat="42.23500151121035" lon="13.786350869747116"><ele>795.4000000000001</ele><time>2026-05-02T08:23:14Z</time></trkpt><trkpt lat="42.23507844664047" lon="13.786296124808018"><ele>797.0</ele><time>2026-05-02T08:23:15Z</time></trkpt><trkpt lat="42.235148700470866" lon="13.786237299362204"><ele>797.0000000000001</ele><time>2026-05-02T08:23:16Z</time></trkpt><trkpt lat="42.235215440359596" lon="13.78618530238133"><ele>797.0</ele><time>2026-05-02T08:23:17Z</time></trkpt><trkpt lat="42.23527775772145" lon="13.786150718950392"><ele>797.0</ele><time>2026-05-02T08:23:18Z</time></trkpt><trkpt lat="42.23536351458072" lon="13.786072760154221"><ele>797.0</ele><time>2026-05-02T08:23:20Z</time></trkpt><trkpt lat="42.2353998537821" lon="13.785968523048233"><ele>797.0000000000001</ele><time>2026-05-02T08:23:50.999Z</time></trkpt><trkpt lat="42.235413672972136" lon="13.785824444195754"><ele>797.0</ele><time>2026-05-02T08:23:52.999Z</time></trkpt><trkpt lat="42.23539005434033" lon="13.785742557848973"><ele>798.5000000000001</ele><time>2026-05-02T08:23:53.999Z</time></trkpt><trkpt lat="42.235360795113934" lon="13.785652489699428"><ele>800.0</ele><time>2026-05-02T08:23:54.999Z</time></trkpt><trkpt lat="42.23533639809919" lon="13.785560520963978"><ele>801.5</ele><time>2026-05-02T08:23:55.999Z</time></trkpt><trkpt lat="42.23531557641588" lon="13.78546842028821"><ele>803.0</ele><time>2026-05-02T08:23:56.999Z</time></trkpt><trkpt lat="42.235289897919365" lon="13.785373222876988"><ele>804.5000000000001</ele><time>2026-05-02T08:23:57.999Z</time></trkpt><trkpt lat="42.23525214511122" lon="13.785263009633013"><ele>806.0</ele><time>2026-05-02T08:23:58.999Z</time></trkpt><trkpt lat="42.2352129558439" lon="13.785148002134441"><ele>807.5000000000001</ele><time>2026-05-02T08:23:59.999Z</time></trkpt><trkpt lat="42.2351715725474" lon="13.785045601916103"><ele>809.0</ele><time>2026-05-02T08:24:00.999Z</time></trkpt><trkpt lat="42.235120702335564" lon="13.784949087537216"><ele>810.5</ele><time>2026-05-02T08:24:01.999Z</time></trkpt><trkpt lat="42.23506742983946" lon="13.784863981900134"><ele>812.0</ele><time>2026-05-02T08:24:02.999Z</time></trkpt><trkpt lat="42.23501775110513" lon="13.784790270246955"><ele>813.5000000000001</ele><time>2026-05-02T08:24:03.999Z</time></trkpt><trkpt lat="42.23497285994962" lon="13.784714477310656"><ele>815.0</ele><time>2026-05-02T08:24:04.999Z</time></trkpt><trkpt lat="42.23493465098673" lon="13.784640048049528"><ele>815.0000000000001</ele><time>2026-05-02T08:24:05.999Z</time></trkpt><trkpt lat="42.234903815036695" lon="13.784553087379743"><ele>815.0</ele><time>2026-05-02T08:24:06.999Z</time></trkpt><trkpt lat="42.23488466064343" lon="13.784469351316057"><ele>815.0</ele><time>2026-05-02T08:24:07.999Z</time></trkpt><trkpt lat="42.2348750981906" lon="13.78428370120358"><ele>815.0</ele><time>2026-05-02T08:24:09.999Z</time></trkpt><trkpt lat="42.23485932073635" lon="13.784184215274221"><ele>815.0000000000001</ele><time>2026-05-02T08:24:10.999Z</time></trkpt><trkpt lat="42.23482958313296" lon="13.784101742378752"><ele>815.0</ele><time>2026-05-02T08:24:11.999Z</time></trkpt><trkpt lat="42.234778393263745" lon="13.784035948987983"><ele>816.1428571428571</ele><time>2026-05-02T08:24:12.999Z</time></trkpt><trkpt lat="42.23472099836029" lon="13.783990617013256"><ele>817.2857142857142</ele><time>2026-05-02T08:24:13.999Z</time></trkpt><trkpt lat="42.234660103412246" lon="13.78395034530939"><ele>818.4285714285714</ele><time>2026-05-02T08:24:14.999Z</time></trkpt><trkpt lat="42.2346033272508" lon="13.783900461883459"><ele>819.5714285714286</ele><time>2026-05-02T08:24:15.999Z</time></trkpt><trkpt lat="42.234562417167375" lon="13.783832046960239"><ele>820.7142857142858</ele><time>2026-05-02T08:24:16.999Z</time></trkpt><trkpt lat="42.23454203520812" lon="13.783740338809595"><ele>821.8571428571429</ele><time>2026-05-02T08:24:18Z</time></trkpt><trkpt lat="42.234529644954996" lon="13.783653104108526"><ele>823.0</ele><time>2026-05-02T08:24:19Z</time></trkpt><trkpt lat="42.23451249586501" lon="13.783462958295011"><ele>824.8</ele><time>2026-05-02T08:24:21Z</time></trkpt><trkpt lat="42.23449637590635" lon="13.783348210259339"><ele>826.5999999999999</ele><time>2026-05-02T08:24:22Z</time></trkpt><trkpt lat="42.23447050684207" lon="13.783223157058488"><ele>828.4000000000001</ele><time>2026-05-02T08:24:23Z</time></trkpt><trkpt lat="42.23442772741171" lon="13.7830993963752"><ele>830.2</ele><time>2026-05-02T08:24:24Z</time></trkpt><trkpt lat="42.234381324078534" lon="13.782963021316222"><ele>832.0</ele><time>2026-05-02T08:24:25Z</time></trkpt><trkpt lat="42.23434173654729" lon="13.782827267514705"><ele>833.5</ele><time>2026-05-02T08:24:26Z</time></trkpt><trkpt lat="42.234299289543884" lon="13.78267804040152"><ele>835.0</ele><time>2026-05-02T08:24:27Z</time></trkpt><trkpt lat="42.23425791411364" lon="13.782527620261904"><ele>836.5</ele><time>2026-05-02T08:24:28Z</time></trkpt><trkpt lat="42.2342156385744" lon="13.782387583916348"><ele>838.0</ele><time>2026-05-02T08:24:29Z</time></trkpt><trkpt lat="42.234183161340965" lon="13.782249834067583"><ele>838.0</ele><time>2026-05-02T08:24:30Z</time></trkpt><trkpt lat="42.23414274392124" lon="13.782119065790484"><ele>838.0</ele><time>2026-05-02T08:24:31Z</time></trkpt><trkpt lat="42.23410570460028" lon="13.781999030899865"><ele>838.0</ele><time>2026-05-02T08:24:32Z</time></trkpt><trkpt lat="42.234072582444334" lon="13.781874011243506"><ele>838.0</ele><time>2026-05-02T08:24:33Z</time></trkpt><trkpt lat="42.23404497190566" lon="13.781740846929683"><ele>838.0</ele><time>2026-05-02T08:24:34Z</time></trkpt><trkpt lat="42.234028381983066" lon="13.781602860628565"><ele>838.5999999999999</ele><time>2026-05-02T08:24:35Z</time></trkpt><trkpt lat="42.23401975355531" lon="13.781465877343361"><ele>839.1999999999999</ele><time>2026-05-02T08:24:36Z</time></trkpt><trkpt lat="42.234008052453355" lon="13.781320873204324"><ele>839.8</ele><time>2026-05-02T08:24:37Z</time></trkpt><trkpt lat="42.23400079663267" lon="13.781177833765433"><ele>840.4</ele><time>2026-05-02T08:24:38Z</time></trkpt><trkpt lat="42.23400459843531" lon="13.78102247553182"><ele>841.0</ele><time>2026-05-02T08:24:39Z</time></trkpt><trkpt lat="42.23401562775589" lon="13.780886230530031"><ele>841.4</ele><time>2026-05-02T08:24:40Z</time></trkpt><trkpt lat="42.234029961561404" lon="13.78072615205555"><ele>841.8</ele><time>2026-05-02T08:24:41Z</time></trkpt><trkpt lat="42.234025158533996" lon="13.780600093695394"><ele>842.1999999999999</ele><time>2026-05-02T08:24:42Z</time></trkpt><trkpt lat="42.234017049941244" lon="13.780495664797316"><ele>842.5999999999999</ele><time>2026-05-02T08:24:43Z</time></trkpt><trkpt lat="42.23398343770984" lon="13.780388822469355"><ele>843.0</ele><time>2026-05-02T08:24:44Z</time></trkpt><trkpt lat="42.233941873691684" lon="13.78028367314684"><ele>844.0</ele><time>2026-05-02T08:24:45Z</time></trkpt><trkpt lat="42.2338979909596" lon="13.78018122233821"><ele>845.0</ele><time>2026-05-02T08:24:46Z</time></trkpt><trkpt lat="42.23387598361848" lon="13.780096230871466"><ele>846.0</ele><time>2026-05-02T08:24:47Z</time></trkpt><trkpt lat="42.23391897158578" lon="13.779985618038047"><ele>847.0</ele><time>2026-05-02T08:24:49Z</time></trkpt><trkpt lat="42.23404440190488" lon="13.779907532809958"><ele>848.0</ele><time>2026-05-02T08:24:51Z</time></trkpt><trkpt lat="42.234125857756425" lon="13.779889088815194"><ele>848.0</ele><time>2026-05-02T08:24:52Z</time></trkpt><trkpt lat="42.23420816010995" lon="13.77984945112956"><ele>848.0</ele><time>2026-05-02T08:24:53Z</time></trkpt><trkpt lat="42.23428597149052" lon="13.77979751634577"><ele>848.0</ele><time>2026-05-02T08:24:54Z</time></trkpt><trkpt lat="42.23436242066777" lon="13.779734687676035"><ele>848.0</ele><time>2026-05-02T08:24:55Z</time></trkpt><trkpt lat="42.2344431919648" lon="13.77966676415259"><ele>848.0</ele><time>2026-05-02T08:24:56Z</time></trkpt><trkpt lat="42.234522490996156" lon="13.779587607182545"><ele>848.0</ele><time>2026-05-02T08:24:57Z</time></trkpt><trkpt lat="42.23461389827887" lon="13.77950823017678"><ele>848.0</ele><time>2026-05-02T08:24:58Z</time></trkpt><trkpt lat="42.234705286677055" lon="13.779431928054679"><ele>848.0</ele><time>2026-05-02T08:24:59Z</time></trkpt><trkpt lat="42.234798600729484" lon="13.779354046531092"><ele>848.0</ele><time>2026-05-02T08:25:00Z</time></trkpt><trkpt lat="42.234892927196725" lon="13.779257335061143"><ele>848.0</ele><time>2026-05-02T08:25:01Z</time></trkpt><trkpt lat="42.2349763221818" lon="13.77915836192235"><ele>848.1666666666667</ele><time>2026-05-02T08:25:02Z</time></trkpt><trkpt lat="42.235047734860494" lon="13.779067335179231"><ele>848.3333333333334</ele><time>2026-05-02T08:25:03Z</time></trkpt><trkpt lat="42.235113024881656" lon="13.778986560281524"><ele>848.5</ele><time>2026-05-02T08:25:04Z</time></trkpt><trkpt lat="42.23517086176059" lon="13.778908929775595"><ele>848.6666666666667</ele><time>2026-05-02T08:25:05Z</time></trkpt><trkpt lat="42.23521470969522" lon="13.778839312342996"><ele>848.8333333333334</ele><time>2026-05-02T08:25:06Z</time></trkpt><trkpt lat="42.23525089179347" lon="13.778759566915772"><ele>849.0</ele><time>2026-05-02T08:25:07Z</time></trkpt><trkpt lat="42.235281542379774" lon="13.77866924563886"><ele>849.0</ele><time>2026-05-02T08:25:08Z</time></trkpt><trkpt lat="42.23530350914084" lon="13.778562189523619"><ele>849.0</ele><time>2026-05-02T08:25:09Z</time></trkpt><trkpt lat="42.235322901620094" lon="13.778454877595001"><ele>849.0</ele><time>2026-05-02T08:25:10Z</time></trkpt><trkpt lat="42.2353282843163" lon="13.778335889652025"><ele>849.0</ele><time>2026-05-02T08:25:11Z</time></trkpt><trkpt lat="42.235325621809636" lon="13.778212389545669"><ele>849.0</ele><time>2026-05-02T08:25:12Z</time></trkpt><trkpt lat="42.23531620816729" lon="13.778104134798786"><ele>849.0</ele><time>2026-05-02T08:25:13Z</time></trkpt><trkpt lat="42.23529793042789" lon="13.77800838145818"><ele>849.1666666666666</ele><time>2026-05-02T08:25:14Z</time></trkpt><trkpt lat="42.2352648266521" lon="13.77792181460103"><ele>849.3333333333333</ele><time>2026-05-02T08:25:15Z</time></trkpt><trkpt lat="42.23521847452755" lon="13.777831695072441"><ele>849.5</ele><time>2026-05-02T08:25:16Z</time></trkpt><trkpt lat="42.23517287057663" lon="13.777756669184635"><ele>849.6666666666666</ele><time>2026-05-02T08:25:17Z</time></trkpt><trkpt lat="42.23511588665537" lon="13.77768537770264"><ele>849.8333333333333</ele><time>2026-05-02T08:25:18Z</time></trkpt><trkpt lat="42.235058104105306" lon="13.777613609366732"><ele>850.0</ele><time>2026-05-02T08:25:19Z</time></trkpt><trkpt lat="42.23499776886733" lon="13.777532945458772"><ele>851.3333333333333</ele><time>2026-05-02T08:25:20Z</time></trkpt><trkpt lat="42.234933226843005" lon="13.777444580341777"><ele>852.6666666666666</ele><time>2026-05-02T08:25:21Z</time></trkpt><trkpt lat="42.234868169038826" lon="13.777353478617929"><ele>854.0</ele><time>2026-05-02T08:25:22Z</time></trkpt><trkpt lat="42.23480673165759" lon="13.777273473074576"><ele>855.3333333333333</ele><time>2026-05-02T08:25:23Z</time></trkpt><trkpt lat="42.23474644758037" lon="13.77720334108395"><ele>856.6666666666666</ele><time>2026-05-02T08:25:24Z</time></trkpt><trkpt lat="42.234690094943055" lon="13.777124925349968"><ele>858.0</ele><time>2026-05-02T08:25:25Z</time></trkpt><trkpt lat="42.234632701416054" lon="13.777037127993614"><ele>858.0</ele><time>2026-05-02T08:25:26Z</time></trkpt><trkpt lat="42.234571524687" lon="13.776921177654463"><ele>858.0</ele><time>2026-05-02T08:25:27Z</time></trkpt><trkpt lat="42.23451953538748" lon="13.776792963477085"><ele>858.0</ele><time>2026-05-02T08:25:28Z</time></trkpt><trkpt lat="42.234463650174476" lon="13.77668009085134"><ele>858.0</ele><time>2026-05-02T08:25:29Z</time></trkpt><trkpt lat="42.2344195940362" lon="13.776596659284385"><ele>858.0</ele><time>2026-05-02T08:25:30Z</time></trkpt><trkpt lat="42.234387492016936" lon="13.776523275179889"><ele>856.5</ele><time>2026-05-02T08:25:31Z</time></trkpt><trkpt lat="42.23439129393597" lon="13.77638108509846"><ele>855.0</ele><time>2026-05-02T08:25:33Z</time></trkpt><trkpt lat="42.23447428855937" lon="13.776260687242448"><ele>853.5</ele><time>2026-05-02T08:25:34.999Z</time></trkpt><trkpt lat="42.23453368699066" lon="13.776218155825294"><ele>852.0</ele><time>2026-05-02T08:25:35.999Z</time></trkpt><trkpt lat="42.23468978420833" lon="13.776199371752586"><ele>852.0</ele><time>2026-05-02T08:25:37.999Z</time></trkpt><trkpt lat="42.234785885588195" lon="13.7761743716089"><ele>852.0</ele><time>2026-05-02T08:25:38.999Z</time></trkpt><trkpt lat="42.234878489084856" lon="13.77613817165217"><ele>852.0</ele><time>2026-05-02T08:25:39.999Z</time></trkpt><trkpt lat="42.234965084737404" lon="13.77611198899441"><ele>852.0</ele><time>2026-05-02T08:25:40.999Z</time></trkpt><trkpt lat="42.23504232037836" lon="13.776095679073059"><ele>852.0</ele><time>2026-05-02T08:25:41.999Z</time></trkpt><trkpt lat="42.2351140466402" lon="13.776064449943135"><ele>852.0</ele><time>2026-05-02T08:25:42.999Z</time></trkpt><trkpt lat="42.23518642994082" lon="13.77601275949562"><ele>850.3333333333334</ele><time>2026-05-02T08:25:43.999Z</time></trkpt><trkpt lat="42.235260981209095" lon="13.775955189215512"><ele>848.6666666666667</ele><time>2026-05-02T08:25:44.999Z</time></trkpt><trkpt lat="42.23532721410193" lon="13.775881857145949"><ele>847.0</ele><time>2026-05-02T08:25:45.999Z</time></trkpt><trkpt lat="42.23537891845707" lon="13.775798963337076"><ele>845.3333333333334</ele><time>2026-05-02T08:25:46.999Z</time></trkpt><trkpt lat="42.23541902428503" lon="13.775711908460062"><ele>843.6666666666667</ele><time>2026-05-02T08:25:47.999Z</time></trkpt><trkpt lat="42.23545410678217" lon="13.775619267542663"><ele>842.0</ele><time>2026-05-02T08:25:48.999Z</time></trkpt><trkpt lat="42.23548460076552" lon="13.775516233433166"><ele>842.0000000000001</ele><time>2026-05-02T08:25:49.999Z</time></trkpt><trkpt lat="42.23550700159059" lon="13.775402891770492"><ele>842.0</ele><time>2026-05-02T08:25:50.999Z</time></trkpt><trkpt lat="42.235516287597" lon="13.775299712272593"><ele>842.0</ele><time>2026-05-02T08:25:51.999Z</time></trkpt><trkpt lat="42.2355256920867" lon="13.77517782086337"><ele>842.0</ele><time>2026-05-02T08:25:52.999Z</time></trkpt><trkpt lat="42.23553648417197" lon="13.775051679693743"><ele>842.0000000000001</ele><time>2026-05-02T08:25:53.999Z</time></trkpt><trkpt lat="42.235537705374774" lon="13.774963655095672"><ele>842.0</ele><time>2026-05-02T08:25:57.999Z</time></trkpt><trkpt lat="42.23553350323546" lon="13.774809290263029"><ele>842.3333333333334</ele><time>2026-05-02T08:26:50Z</time></trkpt><trkpt lat="42.23550796240451" lon="13.77470678817613"><ele>842.6666666666667</ele><time>2026-05-02T08:26:51Z</time></trkpt><trkpt lat="42.23548348470265" lon="13.774595025095003"><ele>843.0</ele><time>2026-05-02T08:26:52Z</time></trkpt><trkpt lat="42.235467498539656" lon="13.774468690948707"><ele>843.3333333333333</ele><time>2026-05-02T08:26:53Z</time></trkpt><trkpt lat="42.23543601541404" lon="13.774366047997768"><ele>843.6666666666666</ele><time>2026-05-02T08:26:54Z</time></trkpt><trkpt lat="42.235377570019764" lon="13.774247786997254"><ele>844.0</ele><time>2026-05-02T08:26:56Z</time></trkpt><trkpt lat="42.235323133864455" lon="13.774189768211551"><ele>844.0</ele><time>2026-05-02T08:26:57Z</time></trkpt><trkpt lat="42.23526330178945" lon="13.774115043534941"><ele>844.0</ele><time>2026-05-02T08:26:58Z</time></trkpt><trkpt lat="42.23519361774251" lon="13.774037546039057"><ele>844.0</ele><time>2026-05-02T08:26:59Z</time></trkpt><trkpt lat="42.23514548431891" lon="13.773965031171999"><ele>844.0</ele><time>2026-05-02T08:27:00Z</time></trkpt><trkpt lat="42.23507053472081" lon="13.773817883606062"><ele>844.0</ele><time>2026-05-02T08:27:02Z</time></trkpt><trkpt lat="42.23505560603027" lon="13.773708016188456"><ele>843.9999999999999</ele><time>2026-05-02T08:27:03Z</time></trkpt><trkpt lat="42.23504647791055" lon="13.773597816462802"><ele>844.0</ele><time>2026-05-02T08:27:04Z</time></trkpt><trkpt lat="42.235025020763835" lon="13.773490279331295"><ele>844.0</ele><time>2026-05-02T08:27:05Z</time></trkpt><trkpt lat="42.235038027034214" lon="13.773324728669722"><ele>844.0</ele><time>2026-05-02T08:27:07Z</time></trkpt><trkpt lat="42.235062173736495" lon="13.773237481984586"><ele>843.9999999999999</ele><time>2026-05-02T08:27:08Z</time></trkpt><trkpt lat="42.23510329306832" lon="13.773147300148157"><ele>844.0</ele><time>2026-05-02T08:27:09Z</time></trkpt><trkpt lat="42.23516687582642" lon="13.773055886345121"><ele>843.2</ele><time>2026-05-02T08:27:10Z</time></trkpt><trkpt lat="42.235230810814215" lon="13.772965816014715"><ele>842.4000000000001</ele><time>2026-05-02T08:27:11Z</time></trkpt><trkpt lat="42.235309400459634" lon="13.772876826975086"><ele>841.6</ele><time>2026-05-02T08:27:12Z</time></trkpt><trkpt lat="42.23539733717161" lon="13.772794116199957"><ele>840.8</ele><time>2026-05-02T08:27:13Z</time></trkpt><trkpt lat="42.23546937722498" lon="13.772710116198144"><ele>840.0</ele><time>2026-05-02T08:27:14Z</time></trkpt><trkpt lat="42.235513301906934" lon="13.772631283258209"><ele>838.8</ele><time>2026-05-02T08:27:15Z</time></trkpt><trkpt lat="42.2355551523405" lon="13.772520273545776"><ele>837.6</ele><time>2026-05-02T08:27:16Z</time></trkpt><trkpt lat="42.23560679414264" lon="13.77238952694826"><ele>836.4000000000001</ele><time>2026-05-02T08:27:17Z</time></trkpt><trkpt lat="42.23567365618469" lon="13.772276271799063"><ele>835.2</ele><time>2026-05-02T08:27:18Z</time></trkpt><trkpt lat="42.23574428938181" lon="13.772184836074242"><ele>834.0</ele><time>2026-05-02T08:27:19Z</time></trkpt><trkpt lat="42.23579767262327" lon="13.772112025043766"><ele>834.0</ele><time>2026-05-02T08:27:20Z</time></trkpt><trkpt lat="42.23583619923415" lon="13.772042804905405"><ele>834.0</ele><time>2026-05-02T08:27:21Z</time></trkpt><trkpt lat="42.235871885804436" lon="13.771937050598513"><ele>834.0</ele><time>2026-05-02T08:27:22Z</time></trkpt><trkpt lat="42.23589962611447" lon="13.771811789033606"><ele>834.0</ele><time>2026-05-02T08:27:23Z</time></trkpt><trkpt lat="42.23591150324811" lon="13.77171198872235"><ele>834.0</ele><time>2026-05-02T08:27:24Z</time></trkpt><trkpt lat="42.23591282883927" lon="13.771614535533507"><ele>834.0</ele><time>2026-05-02T08:27:25Z</time></trkpt><trkpt lat="42.23590081988776" lon="13.771493015760244"><ele>834.2</ele><time>2026-05-02T08:27:26Z</time></trkpt><trkpt lat="42.23588425033806" lon="13.771346804748047"><ele>834.4000000000001</ele><time>2026-05-02T08:27:27Z</time></trkpt><trkpt lat="42.235867503875916" lon="13.771203549840251"><ele>834.6</ele><time>2026-05-02T08:27:28Z</time></trkpt><trkpt lat="42.235856747434376" lon="13.77107858758528"><ele>834.8</ele><time>2026-05-02T08:27:29Z</time></trkpt><trkpt lat="42.23584407477277" lon="13.770976843916031"><ele>835.0</ele><time>2026-05-02T08:27:30Z</time></trkpt><trkpt lat="42.235835226286845" lon="13.770851753358684"><ele>834.9999999999999</ele><time>2026-05-02T08:27:32Z</time></trkpt><trkpt lat="42.23589221452732" lon="13.770745803190152"><ele>835.0</ele><time>2026-05-02T08:27:34Z</time></trkpt><trkpt lat="42.23594472540195" lon="13.77068089643195"><ele>835.0</ele><time>2026-05-02T08:27:35Z</time></trkpt><trkpt lat="42.236015356605556" lon="13.77063541901402"><ele>835.0</ele><time>2026-05-02T08:27:36Z</time></trkpt><trkpt lat="42.23610157208516" lon="13.77060715829166"><ele>834.9999999999999</ele><time>2026-05-02T08:27:37Z</time></trkpt><trkpt lat="42.23619272704712" lon="13.770588377871565"><ele>835.0</ele><time>2026-05-02T08:27:38Z</time></trkpt><trkpt lat="42.23627361635158" lon="13.770580418515836"><ele>834.9999999999999</ele><time>2026-05-02T08:27:39Z</time></trkpt><trkpt lat="42.236347785733145" lon="13.770568338625171"><ele>835.0</ele><time>2026-05-02T08:27:40Z</time></trkpt><trkpt lat="42.23641653978344" lon="13.770551978513323"><ele>835.0</ele><time>2026-05-02T08:27:40.999Z</time></trkpt><trkpt lat="42.23648085356639" lon="13.770536956139544"><ele>835.0</ele><time>2026-05-02T08:27:41.999Z</time></trkpt><trkpt lat="42.236571928900695" lon="13.77051047090735"><ele>834.9999999999999</ele><time>2026-05-02T08:27:43.999Z</time></trkpt><trkpt lat="42.236669766790946" lon="13.770465770283064"><ele>835.0</ele><time>2026-05-02T08:27:45.999Z</time></trkpt><trkpt lat="42.23674849736278" lon="13.770419612380886"><ele>834.8</ele><time>2026-05-02T08:27:47.999Z</time></trkpt><trkpt lat="42.23682784680885" lon="13.770358109430994"><ele>834.6</ele><time>2026-05-02T08:27:49.999Z</time></trkpt><trkpt lat="42.23690431766813" lon="13.77027623810303"><ele>834.4000000000001</ele><time>2026-05-02T08:27:51.999Z</time></trkpt><trkpt lat="42.236975718887756" lon="13.77017415934778"><ele>834.2</ele><time>2026-05-02T08:27:53.999Z</time></trkpt><trkpt lat="42.23704773837642" lon="13.770079898762624"><ele>834.0</ele><time>2026-05-02T08:27:55.999Z</time></trkpt><trkpt lat="42.23712307459003" lon="13.770016991508271"><ele>834.0</ele><time>2026-05-02T08:27:57.999Z</time></trkpt><trkpt lat="42.23720007682225" lon="13.7699722784179"><ele>834.0</ele><time>2026-05-02T08:27:59.999Z</time></trkpt><trkpt lat="42.23727732692504" lon="13.769962653635114"><ele>834.0</ele><time>2026-05-02T08:28:01.999Z</time></trkpt><trkpt lat="42.23735663060867" lon="13.76995531857174"><ele>834.0</ele><time>2026-05-02T08:28:03.999Z</time></trkpt><trkpt lat="42.23743925310419" lon="13.769922816424076"><ele>834.0</ele><time>2026-05-02T08:28:05.999Z</time></trkpt><trkpt lat="42.237540309651436" lon="13.7699183518232"><ele>834.0</ele><time>2026-05-02T08:28:07.999Z</time></trkpt><trkpt lat="42.23763358208144" lon="13.769895487178932"><ele>831.4000000000001</ele><time>2026-05-02T08:28:09.999Z</time></trkpt><trkpt lat="42.237723068207536" lon="13.769861229850411"><ele>828.8</ele><time>2026-05-02T08:28:11.999Z</time></trkpt><trkpt lat="42.237816726355774" lon="13.769796568507926"><ele>826.2</ele><time>2026-05-02T08:28:13.999Z</time></trkpt><trkpt lat="42.237909254025354" lon="13.76973770085385"><ele>823.5999999999999</ele><time>2026-05-02T08:28:15.999Z</time></trkpt><trkpt lat="42.23799030025742" lon="13.769684490627487"><ele>821.0</ele><time>2026-05-02T08:28:17.999Z</time></trkpt><trkpt lat="42.23807395950211" lon="13.769628234507945"><ele>817.5999999999999</ele><time>2026-05-02T08:28:19.999Z</time></trkpt><trkpt lat="42.23816565342886" lon="13.769578318561685"><ele>814.2</ele><time>2026-05-02T08:28:21.999Z</time></trkpt><trkpt lat="42.23826647392794" lon="13.769539029794956"><ele>810.8</ele><time>2026-05-02T08:28:23.999Z</time></trkpt><trkpt lat="42.23836604607025" lon="13.769488162366386"><ele>807.4000000000001</ele><time>2026-05-02T08:28:25.999Z</time></trkpt><trkpt lat="42.23846168496041" lon="13.769449869625676"><ele>804.0</ele><time>2026-05-02T08:28:27.999Z</time></trkpt><trkpt lat="42.238549636603544" lon="13.769438275866548"><ele>804.0</ele><time>2026-05-02T08:28:30Z</time></trkpt><trkpt lat="42.23863730079484" lon="13.769431592912616"><ele>804.0</ele><time>2026-05-02T08:28:32Z</time></trkpt><trkpt lat="42.23871897552191" lon="13.769411623540545"><ele>804.0</ele><time>2026-05-02T08:28:34Z</time></trkpt><trkpt lat="42.23879421569554" lon="13.769415921829845"><ele>804.0</ele><time>2026-05-02T08:28:36Z</time></trkpt><trkpt lat="42.23886071948277" lon="13.769428536420085"><ele>804.0</ele><time>2026-05-02T08:28:38Z</time></trkpt><trkpt lat="42.238930827781864" lon="13.769418054035162"><ele>804.0</ele><time>2026-05-02T08:28:40Z</time></trkpt><trkpt lat="42.23899813531818" lon="13.769395645491102"><ele>804.1666666666666</ele><time>2026-05-02T08:28:42Z</time></trkpt><trkpt lat="42.23906179508181" lon="13.769373010677372"><ele>804.3333333333333</ele><time>2026-05-02T08:28:44Z</time></trkpt><trkpt lat="42.23913660175282" lon="13.769305091124853"><ele>804.5</ele><time>2026-05-02T08:28:47Z</time></trkpt><trkpt lat="42.239212452628415" lon="13.769239236727431"><ele>804.6666666666666</ele><time>2026-05-02T08:28:50Z</time></trkpt><trkpt lat="42.23929251745882" lon="13.769167330537808"><ele>804.8333333333333</ele><time>2026-05-02T08:28:53Z</time></trkpt><trkpt lat="42.23936222524868" lon="13.769106308064284"><ele>805.0</ele><time>2026-05-02T08:28:55Z</time></trkpt><trkpt lat="42.239456802658566" lon="13.769097161430684"><ele>804.9999999999999</ele><time>2026-05-02T08:28:57Z</time></trkpt><trkpt lat="42.2395400256919" lon="13.769112290854583"><ele>805.0</ele><time>2026-05-02T08:28:59Z</time></trkpt><trkpt lat="42.23960656348025" lon="13.76913987302517"><ele>805.0</ele><time>2026-05-02T08:29:01Z</time></trkpt><trkpt lat="42.239680191442936" lon="13.769174213093526"><ele>805.0</ele><time>2026-05-02T08:29:03Z</time></trkpt><trkpt lat="42.23976997128814" lon="13.76920790679435"><ele>804.9999999999999</ele><time>2026-05-02T08:29:05Z</time></trkpt><trkpt lat="42.239882941463065" lon="13.769203791851654"><ele>805.0</ele><time>2026-05-02T08:29:07Z</time></trkpt><trkpt lat="42.23999407952749" lon="13.769208343386977"><ele>801.8</ele><time>2026-05-02T08:29:09Z</time></trkpt><trkpt lat="42.24009984041228" lon="13.76921768761553"><ele>798.6</ele><time>2026-05-02T08:29:11Z</time></trkpt><trkpt lat="42.24019038693187" lon="13.769230240089543"><ele>795.4000000000001</ele><time>2026-05-02T08:29:13Z</time></trkpt><trkpt lat="42.24028059131306" lon="13.769238982617882"><ele>792.2</ele><time>2026-05-02T08:29:15Z</time></trkpt><trkpt lat="42.24036862080148" lon="13.769263536682022"><ele>789.0</ele><time>2026-05-02T08:29:17Z</time></trkpt><trkpt lat="42.24046133550991" lon="13.769309136001551"><ele>789.0</ele><time>2026-05-02T08:29:19Z</time></trkpt><trkpt lat="42.24054505115097" lon="13.76935591522735"><ele>789.0</ele><time>2026-05-02T08:29:21Z</time></trkpt><trkpt lat="42.24063831215375" lon="13.769372532275653"><ele>789.0</ele><time>2026-05-02T08:29:23Z</time></trkpt><trkpt lat="42.240725272592144" lon="13.769359998414181"><ele>789.0</ele><time>2026-05-02T08:29:25Z</time></trkpt><trkpt lat="42.240798941304334" lon="13.769307476630994"><ele>789.0</ele><time>2026-05-02T08:29:27Z</time></trkpt><trkpt lat="42.240853072199876" lon="13.769219806255473"><ele>789.0</ele><time>2026-05-02T08:29:29Z</time></trkpt><trkpt lat="42.240892313708734" lon="13.769109021650152"><ele>786.2</ele><time>2026-05-02T08:29:31Z</time></trkpt><trkpt lat="42.24094015151813" lon="13.768996237071718"><ele>783.4000000000001</ele><time>2026-05-02T08:29:33Z</time></trkpt><trkpt lat="42.240999666766854" lon="13.768874752647042"><ele>780.6</ele><time>2026-05-02T08:29:35Z</time></trkpt><trkpt lat="42.2410786494112" lon="13.768766150224888"><ele>777.8</ele><time>2026-05-02T08:29:37Z</time></trkpt><trkpt lat="42.24115405722876" lon="13.768648381605196"><ele>775.0</ele><time>2026-05-02T08:29:39Z</time></trkpt><trkpt lat="42.24123352295476" lon="13.768535992613861"><ele>777.2</ele><time>2026-05-02T08:29:41Z</time></trkpt><trkpt lat="42.241306522783226" lon="13.768423724542874"><ele>779.4</ele><time>2026-05-02T08:29:42.999Z</time></trkpt><trkpt lat="42.2413844265503" lon="13.768290002273533"><ele>781.5999999999999</ele><time>2026-05-02T08:29:44.999Z</time></trkpt><trkpt lat="42.241424235666464" lon="13.76821982423043"><ele>783.8</ele><time>2026-05-02T08:29:45.999Z</time></trkpt><trkpt lat="42.24146539270091" lon="13.768155352518194"><ele>786.0</ele><time>2026-05-02T08:29:46.999Z</time></trkpt><trkpt lat="42.241551086796605" lon="13.768027090274497"><ele>784.3333333333334</ele><time>2026-05-02T08:29:48.999Z</time></trkpt><trkpt lat="42.241606155947395" lon="13.767957813901315"><ele>782.6666666666667</ele><time>2026-05-02T08:29:49.999Z</time></trkpt><trkpt lat="42.24165731588958" lon="13.767904635422326"><ele>781.0</ele><time>2026-05-02T08:29:50.999Z</time></trkpt><trkpt lat="42.24176140122938" lon="13.76781168152551"><ele>779.3333333333334</ele><time>2026-05-02T08:29:52.999Z</time></trkpt><trkpt lat="42.24185978228237" lon="13.76773154384001"><ele>777.6666666666667</ele><time>2026-05-02T08:29:54.999Z</time></trkpt><trkpt lat="42.2419194233603" lon="13.767688070320505"><ele>776.0</ele><time>2026-05-02T08:29:55.999Z</time></trkpt><trkpt lat="42.24198385070762" lon="13.76764326154449"><ele>776.0000000000001</ele><time>2026-05-02T08:29:56.999Z</time></trkpt><trkpt lat="42.242043295716115" lon="13.76760761716453"><ele>776.0</ele><time>2026-05-02T08:29:57.999Z</time></trkpt><trkpt lat="42.24215673042083" lon="13.767560807946047"><ele>776.0</ele><time>2026-05-02T08:29:59.999Z</time></trkpt><trkpt lat="42.24223023132219" lon="13.767538655179782"><ele>776.0</ele><time>2026-05-02T08:30:00.999Z</time></trkpt><trkpt lat="42.24230364508684" lon="13.767518276279441"><ele>776.0000000000001</ele><time>2026-05-02T08:30:01.999Z</time></trkpt><trkpt lat="42.242369416322624" lon="13.767501125722987"><ele>776.0</ele><time>2026-05-02T08:30:02.999Z</time></trkpt><trkpt lat="42.24243366985599" lon="13.76747498163069"><ele>772.8333333333334</ele><time>2026-05-02T08:30:03.999Z</time></trkpt><trkpt lat="42.2424964654927" lon="13.767445153932888"><ele>769.6666666666667</ele><time>2026-05-02T08:30:04.999Z</time></trkpt><trkpt lat="42.242618502907256" lon="13.76742566408897"><ele>766.5</ele><time>2026-05-02T08:30:06.999Z</time></trkpt><trkpt lat="42.242686195875855" lon="13.76740833916328"><ele>763.3333333333334</ele><time>2026-05-02T08:30:07.999Z</time></trkpt><trkpt lat="42.242750851035105" lon="13.7673921391841"><ele>760.1666666666667</ele><time>2026-05-02T08:30:08.999Z</time></trkpt><trkpt lat="42.242856617880925" lon="13.76735815904681"><ele>757.0</ele><time>2026-05-02T08:30:10.999Z</time></trkpt><trkpt lat="42.24296178843315" lon="13.767350371963014"><ele>757.0</ele><time>2026-05-02T08:30:12.999Z</time></trkpt><trkpt lat="42.24304972539864" lon="13.767361244513658"><ele>757.0</ele><time>2026-05-02T08:30:14.999Z</time></trkpt><trkpt lat="42.24313987581509" lon="13.767358413114138"><ele>757.0</ele><time>2026-05-02T08:30:16.999Z</time></trkpt><trkpt lat="42.24322526546554" lon="13.767336195517434"><ele>757.0</ele><time>2026-05-02T08:30:18.999Z</time></trkpt><trkpt lat="42.24331775459418" lon="13.767311672716799"><ele>757.0</ele><time>2026-05-02T08:30:20.999Z</time></trkpt><trkpt lat="42.243415125712374" lon="13.767267630955926"><ele>754.4000000000001</ele><time>2026-05-02T08:30:22.999Z</time></trkpt><trkpt lat="42.243508690200194" lon="13.767265133851568"><ele>751.8000000000001</ele><time>2026-05-02T08:30:24.999Z</time></trkpt><trkpt lat="42.24360744010003" lon="13.767276152445863"><ele>749.2</ele><time>2026-05-02T08:30:26.999Z</time></trkpt><trkpt lat="42.24369712354394" lon="13.767249305562324"><ele>746.6</ele><time>2026-05-02T08:30:28.999Z</time></trkpt><trkpt lat="42.24379661801958" lon="13.767212444944008"><ele>744.0</ele><time>2026-05-02T08:30:30.999Z</time></trkpt><trkpt lat="42.24388499822139" lon="13.767174527250857"><ele>741.0</ele><time>2026-05-02T08:30:32.999Z</time></trkpt><trkpt lat="42.24398379290674" lon="13.767137460089627"><ele>738.0</ele><time>2026-05-02T08:30:35Z</time></trkpt><trkpt lat="42.24409354529389" lon="13.767127288012286"><ele>735.0</ele><time>2026-05-02T08:30:37Z</time></trkpt><trkpt lat="42.24420797609456" lon="13.767091161603643"><ele>732.0</ele><time>2026-05-02T08:30:39Z</time></trkpt><trkpt lat="42.24432577832875" lon="13.767076936498116"><ele>729.0</ele><time>2026-05-02T08:30:41Z</time></trkpt><trkpt lat="42.2444430411059" lon="13.767080158798803"><ele>729.0</ele><time>2026-05-02T08:30:43Z</time></trkpt><trkpt lat="42.24455341415196" lon="13.767057262825023"><ele>729.0</ele><time>2026-05-02T08:30:45Z</time></trkpt><trkpt lat="42.244671597408434" lon="13.767022787441967"><ele>729.0</ele><time>2026-05-02T08:30:47Z</time></trkpt><trkpt lat="42.24477999765652" lon="13.766983234019865"><ele>729.0</ele><time>2026-05-02T08:30:49Z</time></trkpt><trkpt lat="42.24488196563666" lon="13.766942698860555"><ele>729.0</ele><time>2026-05-02T08:30:51Z</time></trkpt><trkpt lat="42.24497554423137" lon="13.766908227443725"><ele>729.0</ele><time>2026-05-02T08:30:53Z</time></trkpt><trkpt lat="42.24504386491759" lon="13.766897733109479"><ele>729.0</ele><time>2026-05-02T08:30:55Z</time></trkpt><trkpt lat="42.24511914941267" lon="13.766876863006877"><ele>729.0</ele><time>2026-05-02T08:31:46.999Z</time></trkpt><trkpt lat="42.24523001750332" lon="13.76684401232265"><ele>729.0</ele><time>2026-05-02T08:31:48.999Z</time></trkpt><trkpt lat="42.24533461311062" lon="13.766818615752488"><ele>729.0</ele><time>2026-05-02T08:31:50.999Z</time></trkpt><trkpt lat="42.24543737843677" lon="13.766767764545355"><ele>729.0</ele><time>2026-05-02T08:31:52.999Z</time></trkpt><trkpt lat="42.245549953246964" lon="13.7667051595448"><ele>729.0</ele><time>2026-05-02T08:31:54.999Z</time></trkpt><trkpt lat="42.245651977546814" lon="13.76665242404075"><ele>729.0</ele><time>2026-05-02T08:31:56.999Z</time></trkpt><trkpt lat="42.24575079980197" lon="13.766607733094839"><ele>729.0</ele><time>2026-05-02T08:31:58.999Z</time></trkpt><trkpt lat="42.24585116020994" lon="13.766546399361735"><ele>727.2</ele><time>2026-05-02T08:32:00.999Z</time></trkpt><trkpt lat="42.245942010797194" lon="13.766528308533683"><ele>725.4000000000001</ele><time>2026-05-02T08:32:02.999Z</time></trkpt><trkpt lat="42.246023249920455" lon="13.766511602960694"><ele>723.6</ele><time>2026-05-02T08:32:04.999Z</time></trkpt><trkpt lat="42.24611149312371" lon="13.766421986513937"><ele>721.8</ele><time>2026-05-02T08:32:06.999Z</time></trkpt><trkpt lat="42.24620225611636" lon="13.766310615817767"><ele>720.0</ele><time>2026-05-02T08:32:08.999Z</time></trkpt><trkpt lat="42.24629031504359" lon="13.76619779593543"><ele>720.0</ele><time>2026-05-02T08:32:10.999Z</time></trkpt><trkpt lat="42.24634448098863" lon="13.766154334081717"><ele>720.0</ele><time>2026-05-02T08:32:11.999Z</time></trkpt><trkpt lat="42.24639682894249" lon="13.76601500551406"><ele>720.0</ele><time>2026-05-02T08:32:13.999Z</time></trkpt><trkpt lat="42.24647102229679" lon="13.765911557835677"><ele>720.0</ele><time>2026-05-02T08:32:15.999Z</time></trkpt><trkpt lat="42.24654375102405" lon="13.765820326994247"><ele>720.0</ele><time>2026-05-02T08:32:17.999Z</time></trkpt><trkpt lat="42.246637039372565" lon="13.765773030285393"><ele>718.4</ele><time>2026-05-02T08:32:19.999Z</time></trkpt><trkpt lat="42.24672269122648" lon="13.765706072170634"><ele>716.8</ele><time>2026-05-02T08:32:21.999Z</time></trkpt><trkpt lat="42.24679893916236" lon="13.76562581142316"><ele>715.2</ele><time>2026-05-02T08:32:23.999Z</time></trkpt><trkpt lat="42.24689071626109" lon="13.765568964588596"><ele>713.6</ele><time>2026-05-02T08:32:25.999Z</time></trkpt><trkpt lat="42.24699211077506" lon="13.765565329377836"><ele>712.0</ele><time>2026-05-02T08:32:27.999Z</time></trkpt><trkpt lat="42.247069284013605" lon="13.765516776920366"><ele>712.0</ele><time>2026-05-02T08:32:29.999Z</time></trkpt><trkpt lat="42.24715724628528" lon="13.765473601160021"><ele>712.0</ele><time>2026-05-02T08:32:31.999Z</time></trkpt><trkpt lat="42.24725587460394" lon="13.765421617038974"><ele>712.0</ele><time>2026-05-02T08:32:33.999Z</time></trkpt><trkpt lat="42.24736101518215" lon="13.765350909426653"><ele>712.0</ele><time>2026-05-02T08:32:35.999Z</time></trkpt><trkpt lat="42.24746667954797" lon="13.76527089933296"><ele>712.0</ele><time>2026-05-02T08:32:37.999Z</time></trkpt><trkpt lat="42.247570415491836" lon="13.765176616963688"><ele>709.3333333333334</ele><time>2026-05-02T08:32:39.999Z</time></trkpt><trkpt lat="42.24765625335728" lon="13.765065007724813"><ele>706.6666666666667</ele><time>2026-05-02T08:32:42Z</time></trkpt><trkpt lat="42.24772176140406" lon="13.764929764008784"><ele>704.0</ele><time>2026-05-02T08:32:44Z</time></trkpt><trkpt lat="42.24777378102406" lon="13.76487707208079"><ele>701.3333333333334</ele><time>2026-05-02T08:32:45Z</time></trkpt><trkpt lat="42.24781464392056" lon="13.764808542046021"><ele>698.6666666666666</ele><time>2026-05-02T08:32:46Z</time></trkpt><trkpt lat="42.247860607731354" lon="13.764740370169092"><ele>696.0</ele><time>2026-05-02T08:32:47Z</time></trkpt><trkpt lat="42.24791038740731" lon="13.764664188658854"><ele>696.0</ele><time>2026-05-02T08:32:48Z</time></trkpt><trkpt lat="42.247963859916304" lon="13.764585426034406"><ele>696.0</ele><time>2026-05-02T08:32:49Z</time></trkpt><trkpt lat="42.24802315322556" lon="13.764511680082629"><ele>696.0</ele><time>2026-05-02T08:32:50Z</time></trkpt><trkpt lat="42.248082274916094" lon="13.764449364882955"><ele>696.0</ele><time>2026-05-02T08:32:51Z</time></trkpt><trkpt lat="42.248141063385646" lon="13.76438755960134"><ele>696.0</ele><time>2026-05-02T08:32:52Z</time></trkpt><trkpt lat="42.24819648018342" lon="13.764326062468669"><ele>696.0</ele><time>2026-05-02T08:32:53Z</time></trkpt><trkpt lat="42.248248277315426" lon="13.764265961075392"><ele>696.0</ele><time>2026-05-02T08:32:54Z</time></trkpt><trkpt lat="42.24829739878827" lon="13.764208964309303"><ele>694.4</ele><time>2026-05-02T08:32:55Z</time></trkpt><trkpt lat="42.24838811166435" lon="13.764103708060423"><ele>692.8</ele><time>2026-05-02T08:32:57Z</time></trkpt><trkpt lat="42.24846704584221" lon="13.764013410101102"><ele>691.1999999999999</ele><time>2026-05-02T08:32:59Z</time></trkpt><trkpt lat="42.24848234054637" lon="13.763929666114045"><ele>689.5999999999999</ele><time>2026-05-02T08:33:00Z</time></trkpt><trkpt lat="42.248553349172795" lon="13.763843376647012"><ele>688.0</ele><time>2026-05-02T08:33:02Z</time></trkpt><trkpt lat="42.24861017558249" lon="13.76378622857433"><ele>688.0</ele><time>2026-05-02T08:33:04Z</time></trkpt><trkpt lat="42.24868195741743" lon="13.76371706582084"><ele>688.0</ele><time>2026-05-02T08:33:06Z</time></trkpt><trkpt lat="42.24875145576377" lon="13.763651448713862"><ele>688.0</ele><time>2026-05-02T08:33:08Z</time></trkpt><trkpt lat="42.24883619896571" lon="13.763573385292563"><ele>688.0</ele><time>2026-05-02T08:33:10Z</time></trkpt><trkpt lat="42.24890523369184" lon="13.76352592248758"><ele>688.0</ele><time>2026-05-02T08:33:11Z</time></trkpt><trkpt lat="42.248983356973476" lon="13.763477305856423"><ele>688.0</ele><time>2026-05-02T08:33:12Z</time></trkpt><trkpt lat="42.24905486886697" lon="13.763441672426552"><ele>687.4285714285714</ele><time>2026-05-02T08:33:13Z</time></trkpt><trkpt lat="42.249121498871745" lon="13.763406358390744"><ele>686.8571428571429</ele><time>2026-05-02T08:33:14Z</time></trkpt><trkpt lat="42.249190967445884" lon="13.76336313417552"><ele>686.2857142857142</ele><time>2026-05-02T08:33:15Z</time></trkpt><trkpt lat="42.249260422303784" lon="13.763317415435463"><ele>685.7142857142858</ele><time>2026-05-02T08:33:16Z</time></trkpt><trkpt lat="42.24932747669656" lon="13.763281286571114"><ele>685.1428571428571</ele><time>2026-05-02T08:33:17Z</time></trkpt><trkpt lat="42.24938534895741" lon="13.763227968500177"><ele>684.5714285714286</ele><time>2026-05-02T08:33:18Z</time></trkpt><trkpt lat="42.24944725866154" lon="13.763164138117165"><ele>684.0</ele><time>2026-05-02T08:33:19Z</time></trkpt><trkpt lat="42.249512477340595" lon="13.763094671008727"><ele>684.0</ele><time>2026-05-02T08:33:20Z</time></trkpt><trkpt lat="42.24958394587143" lon="13.763012468684574"><ele>684.0</ele><time>2026-05-02T08:33:21Z</time></trkpt><trkpt lat="42.249662014019066" lon="13.762933932128307"><ele>684.0</ele><time>2026-05-02T08:33:22Z</time></trkpt><trkpt lat="42.24973751978269" lon="13.762871031792711"><ele>684.0</ele><time>2026-05-02T08:33:23Z</time></trkpt><trkpt lat="42.24981667567863" lon="13.76282710776502"><ele>684.0</ele><time>2026-05-02T08:33:24Z</time></trkpt><trkpt lat="42.24990245438579" lon="13.762795722043514"><ele>684.1666666666666</ele><time>2026-05-02T08:33:25Z</time></trkpt><trkpt lat="42.24998892785367" lon="13.762769726850914"><ele>684.3333333333334</ele><time>2026-05-02T08:33:26Z</time></trkpt><trkpt lat="42.25006924216721" lon="13.762748718252395"><ele>684.5</ele><time>2026-05-02T08:33:27Z</time></trkpt><trkpt lat="42.250147446621895" lon="13.762731838593917"><ele>684.6666666666667</ele><time>2026-05-02T08:33:28Z</time></trkpt><trkpt lat="42.25022426122702" lon="13.762716174588864"><ele>684.8333333333334</ele><time>2026-05-02T08:33:29Z</time></trkpt><trkpt lat="42.250299688506125" lon="13.762703389150223"><ele>685.0</ele><time>2026-05-02T08:33:30Z</time></trkpt><trkpt lat="42.25037481973776" lon="13.76268687755725"><ele>685.0</ele><time>2026-05-02T08:33:31Z</time></trkpt><trkpt lat="42.250454179420004" lon="13.762656507873622"><ele>685.0</ele><time>2026-05-02T08:33:32Z</time></trkpt><trkpt lat="42.2505300085625" lon="13.762607142994746"><ele>685.0</ele><time>2026-05-02T08:33:33Z</time></trkpt><trkpt lat="42.25059428372282" lon="13.762542517477561"><ele>685.0</ele><time>2026-05-02T08:33:34Z</time></trkpt><trkpt lat="42.2506406678966" lon="13.762480659279811"><ele>685.0</ele><time>2026-05-02T08:33:35Z</time></trkpt><trkpt lat="42.250667961687405" lon="13.762397203775741"><ele>685.0</ele><time>2026-05-02T08:33:36Z</time></trkpt><trkpt lat="42.25068818799485" lon="13.762307211274466"><ele>685.0</ele><time>2026-05-02T08:33:37Z</time></trkpt><trkpt lat="42.250757331827245" lon="13.762211490936787"><ele>683.2857142857142</ele><time>2026-05-02T08:33:39Z</time></trkpt><trkpt lat="42.25082726714922" lon="13.76220955833357"><ele>681.5714285714287</ele><time>2026-05-02T08:33:40Z</time></trkpt><trkpt lat="42.250908927687895" lon="13.762227518463948"><ele>679.8571428571429</ele><time>2026-05-02T08:33:41Z</time></trkpt><trkpt lat="42.25098432111996" lon="13.762259985022144"><ele>678.1428571428571</ele><time>2026-05-02T08:33:42Z</time></trkpt><trkpt lat="42.251051083730495" lon="13.762293521370005"><ele>676.4285714285713</ele><time>2026-05-02T08:33:43Z</time></trkpt><trkpt lat="42.251115665201404" lon="13.76233349327569"><ele>674.7142857142858</ele><time>2026-05-02T08:33:44Z</time></trkpt><trkpt lat="42.25118188915032" lon="13.762378504604262"><ele>673.0</ele><time>2026-05-02T08:33:45Z</time></trkpt><trkpt lat="42.25124667197742" lon="13.762431324493292"><ele>673.0</ele><time>2026-05-02T08:33:46Z</time></trkpt><trkpt lat="42.251311397468264" lon="13.762492220225745"><ele>673.0</ele><time>2026-05-02T08:33:47Z</time></trkpt><trkpt lat="42.25137436778954" lon="13.762551907781624"><ele>673.0</ele><time>2026-05-02T08:33:48Z</time></trkpt><trkpt lat="42.25143650933346" lon="13.762611016548021"><ele>673.0</ele><time>2026-05-02T08:33:48.999Z</time></trkpt><trkpt lat="42.251491271470115" lon="13.762666152997394"><ele>673.0</ele><time>2026-05-02T08:33:49.999Z</time></trkpt><trkpt lat="42.25157497131821" lon="13.762751148834564"><ele>673.0</ele><time>2026-05-02T08:33:51.999Z</time></trkpt><trkpt lat="42.251671493067" lon="13.762851855231082"><ele>669.4</ele><time>2026-05-02T08:33:53.999Z</time></trkpt><trkpt lat="42.25172784727444" lon="13.762986989556252"><ele>665.8</ele><time>2026-05-02T08:33:55.999Z</time></trkpt><trkpt lat="42.25181014792652" lon="13.76307222628506"><ele>662.2</ele><time>2026-05-02T08:33:57.999Z</time></trkpt><trkpt lat="42.25190401522562" lon="13.76318114316289"><ele>658.6</ele><time>2026-05-02T08:33:59.999Z</time></trkpt><trkpt lat="42.25196818450791" lon="13.76323481428301"><ele>655.0</ele><time>2026-05-02T08:34:00.999Z</time></trkpt><trkpt lat="42.252030032628056" lon="13.763274026688066"><ele>655.0</ele><time>2026-05-02T08:34:01.999Z</time></trkpt><trkpt lat="42.25208987994715" lon="13.76330323753954"><ele>655.0</ele><time>2026-05-02T08:34:02.999Z</time></trkpt><trkpt lat="42.25215048056742" lon="13.763334551547777"><ele>655.0</ele><time>2026-05-02T08:34:03.999Z</time></trkpt><trkpt lat="42.25220941070418" lon="13.763364562191914"><ele>655.0</ele><time>2026-05-02T08:34:04.999Z</time></trkpt><trkpt lat="42.252324509141964" lon="13.763398175566063"><ele>655.0</ele><time>2026-05-02T08:34:06.999Z</time></trkpt><trkpt lat="42.25245246017521" lon="13.763436337240174"><ele>655.0</ele><time>2026-05-02T08:34:08.999Z</time></trkpt><trkpt lat="42.25252070143959" lon="13.763450657372687"><ele>655.5</ele><time>2026-05-02T08:34:09.999Z</time></trkpt><trkpt lat="42.25259847567099" lon="13.7634701807274"><ele>656.0</ele><time>2026-05-02T08:34:10.999Z</time></trkpt><trkpt lat="42.252675331373226" lon="13.76346227952052"><ele>656.5</ele><time>2026-05-02T08:34:11.999Z</time></trkpt><trkpt lat="42.25274506961527" lon="13.7634732464705"><ele>657.0</ele><time>2026-05-02T08:34:12.999Z</time></trkpt><trkpt lat="42.25281453537573" lon="13.763487715545295"><ele>657.5</ele><time>2026-05-02T08:34:13.999Z</time></trkpt><trkpt lat="42.25287929742011" lon="13.763509786727782"><ele>658.0</ele><time>2026-05-02T08:34:14.999Z</time></trkpt><trkpt lat="42.25296493811147" lon="13.763542332357213"><ele>656.8333333333334</ele><time>2026-05-02T08:34:16.999Z</time></trkpt><trkpt lat="42.253059630360795" lon="13.7635865357998"><ele>655.6666666666667</ele><time>2026-05-02T08:34:18.999Z</time></trkpt><trkpt lat="42.25313035180557" lon="13.7636193585525"><ele>654.5</ele><time>2026-05-02T08:34:20.999Z</time></trkpt><trkpt lat="42.25319321019492" lon="13.763657682828237"><ele>653.3333333333334</ele><time>2026-05-02T08:34:22.999Z</time></trkpt><trkpt lat="42.2532547587877" lon="13.763701312966333"><ele>652.1666666666666</ele><time>2026-05-02T08:34:24.999Z</time></trkpt><trkpt lat="42.25331761791016" lon="13.76377673269838"><ele>651.0</ele><time>2026-05-02T08:34:27.999Z</time></trkpt><trkpt lat="42.25336187408648" lon="13.763837830901862"><ele>651.0</ele><time>2026-05-02T08:34:31.999Z</time></trkpt><trkpt lat="42.253438006663835" lon="13.763951042053392"><ele>651.0</ele><time>2026-05-02T08:34:35.999Z</time></trkpt><trkpt lat="42.253483225315264" lon="13.764027677353427"><ele>651.0</ele><time>2026-05-02T08:34:36.999Z</time></trkpt><trkpt lat="42.25352769704583" lon="13.764125163670995"><ele>651.0</ele><time>2026-05-02T08:34:37.999Z</time></trkpt><trkpt lat="42.25357711357829" lon="13.764203869715285"><ele>651.0</ele><time>2026-05-02T08:34:38.999Z</time></trkpt><trkpt lat="42.25362901121395" lon="13.764262387142706"><ele>651.0</ele><time>2026-05-02T08:34:39.999Z</time></trkpt><trkpt lat="42.25368333503562" lon="13.764307757397786"><ele>651.0</ele><time>2026-05-02T08:34:40.999Z</time></trkpt><trkpt lat="42.253749704470856" lon="13.764345526963746"><ele>651.0</ele><time>2026-05-02T08:34:41.999Z</time></trkpt><trkpt lat="42.253823361564415" lon="13.764376537805166"><ele>651.0</ele><time>2026-05-02T08:34:42.999Z</time></trkpt><trkpt lat="42.2538911216029" lon="13.764404727850977"><ele>651.0</ele><time>2026-05-02T08:34:43.999Z</time></trkpt><trkpt lat="42.254005968256216" lon="13.764461841626552"><ele>651.0</ele><time>2026-05-02T08:34:45.999Z</time></trkpt><trkpt lat="42.25413269382136" lon="13.76448804391995"><ele>650.0</ele><time>2026-05-02T08:34:48Z</time></trkpt><trkpt lat="42.25420618740962" lon="13.764492295098576"><ele>649.0</ele><time>2026-05-02T08:34:49Z</time></trkpt><trkpt lat="42.254275697231755" lon="13.764494457483531"><ele>648.0</ele><time>2026-05-02T08:34:50Z</time></trkpt><trkpt lat="42.25434564690926" lon="13.764501303651105"><ele>647.0</ele><time>2026-05-02T08:34:51Z</time></trkpt><trkpt lat="42.25441307317068" lon="13.764509579144477"><ele>646.0</ele><time>2026-05-02T08:34:52Z</time></trkpt><trkpt lat="42.254482401700336" lon="13.76451604436547"><ele>645.0</ele><time>2026-05-02T08:34:53Z</time></trkpt><trkpt lat="42.25454767239274" lon="13.764524429367153"><ele>644.0</ele><time>2026-05-02T08:34:54Z</time></trkpt><trkpt lat="42.25461296997574" lon="13.764540099537282"><ele>644.0</ele><time>2026-05-02T08:34:55Z</time></trkpt><trkpt lat="42.254674206821804" lon="13.764561278208102"><ele>644.0</ele><time>2026-05-02T08:34:56Z</time></trkpt><trkpt lat="42.25473781237804" lon="13.764577393900597"><ele>644.0</ele><time>2026-05-02T08:34:57Z</time></trkpt><trkpt lat="42.25480669075174" lon="13.764585478070929"><ele>644.0</ele><time>2026-05-02T08:34:58Z</time></trkpt><trkpt lat="42.2548723420115" lon="13.764583020967757"><ele>644.0</ele><time>2026-05-02T08:34:59Z</time></trkpt><trkpt lat="42.254940433018156" lon="13.764564787527561"><ele>644.0</ele><time>2026-05-02T08:35:00Z</time></trkpt><trkpt lat="42.255010760936514" lon="13.764547743934664"><ele>644.0</ele><time>2026-05-02T08:35:01Z</time></trkpt><trkpt lat="42.25508186365845" lon="13.764536811923424"><ele>642.4285714285714</ele><time>2026-05-02T08:35:02Z</time></trkpt><trkpt lat="42.25514279741559" lon="13.764608404688982"><ele>640.8571428571429</ele><time>2026-05-02T08:35:03Z</time></trkpt><trkpt lat="42.25520449520438" lon="13.7646339164172"><ele>639.2857142857142</ele><time>2026-05-02T08:35:04Z</time></trkpt><trkpt lat="42.25527751269504" lon="13.764618827120476"><ele>637.7142857142858</ele><time>2026-05-02T08:35:05Z</time></trkpt><trkpt lat="42.255338021959005" lon="13.764662327084093"><ele>636.1428571428571</ele><time>2026-05-02T08:35:06Z</time></trkpt><trkpt lat="42.25539912278473" lon="13.764691745588127"><ele>634.5714285714286</ele><time>2026-05-02T08:35:07Z</time></trkpt><trkpt lat="42.25547104880016" lon="13.764705642795233"><ele>633.0</ele><time>2026-05-02T08:35:08Z</time></trkpt><trkpt lat="42.255546489307676" lon="13.76473514946705"><ele>632.0</ele><time>2026-05-02T08:35:09Z</time></trkpt><trkpt lat="42.25563454637415" lon="13.764752741815359"><ele>631.0</ele><time>2026-05-02T08:35:10Z</time></trkpt><trkpt lat="42.25572968096532" lon="13.76476792603755"><ele>630.0</ele><time>2026-05-02T08:35:11Z</time></trkpt><trkpt lat="42.255822633128275" lon="13.764782761905636"><ele>629.0</ele><time>2026-05-02T08:35:12Z</time></trkpt><trkpt lat="42.25590975787698" lon="13.764798478706274"><ele>628.0</ele><time>2026-05-02T08:35:13Z</time></trkpt><trkpt lat="42.25599424430381" lon="13.76481382360989"><ele>628.0</ele><time>2026-05-02T08:35:14Z</time></trkpt><trkpt lat="42.2560784531759" lon="13.764828842290092"><ele>628.0</ele><time>2026-05-02T08:35:15Z</time></trkpt><trkpt lat="42.256161381602865" lon="13.764842355321257"><ele>628.0</ele><time>2026-05-02T08:35:16Z</time></trkpt><trkpt lat="42.256245445269236" lon="13.76485397157089"><ele>628.0</ele><time>2026-05-02T08:35:17Z</time></trkpt><trkpt lat="42.25632048852024" lon="13.764857320275867"><ele>628.0</ele><time>2026-05-02T08:35:18Z</time></trkpt><trkpt lat="42.25639023267499" lon="13.764852015382075"><ele>628.0</ele><time>2026-05-02T08:35:19Z</time></trkpt><trkpt lat="42.25645348174137" lon="13.764842476944773"><ele>626.0</ele><time>2026-05-02T08:35:20Z</time></trkpt><trkpt lat="42.25655179849493" lon="13.764825960540268"><ele>624.0</ele><time>2026-05-02T08:35:22Z</time></trkpt><trkpt lat="42.256672699639616" lon="13.764802791678175"><ele>622.0</ele><time>2026-05-02T08:35:24Z</time></trkpt><trkpt lat="42.25679404720218" lon="13.764765131321099"><ele>620.0</ele><time>2026-05-02T08:35:26Z</time></trkpt><trkpt lat="42.256897997610785" lon="13.76472156141614"><ele>620.0</ele><time>2026-05-02T08:35:28Z</time></trkpt><trkpt lat="42.25696172479988" lon="13.764710745837736"><ele>620.0</ele><time>2026-05-02T08:35:30Z</time></trkpt><trkpt lat="42.25703460856424" lon="13.764745587205017"><ele>620.0</ele><time>2026-05-02T08:35:33Z</time></trkpt><trkpt lat="42.25709619804176" lon="13.764773504520504"><ele>620.0</ele><time>2026-05-02T08:35:35Z</time></trkpt><trkpt lat="42.25716551554108" lon="13.764781778822227"><ele>620.0</ele><time>2026-05-02T08:35:37Z</time></trkpt><trkpt lat="42.2572459550541" lon="13.76481615744485"><ele>620.0</ele><time>2026-05-02T08:35:40Z</time></trkpt><trkpt lat="42.25732522479" lon="13.764864208355737"><ele>620.0</ele><time>2026-05-02T08:35:43Z</time></trkpt><trkpt lat="42.257407777685366" lon="13.764911471694363"><ele>619.2</ele><time>2026-05-02T08:35:45Z</time></trkpt><trkpt lat="42.25752969795977" lon="13.764954783454181"><ele>618.4</ele><time>2026-05-02T08:35:47Z</time></trkpt><trkpt lat="42.25759991939326" lon="13.764984477755359"><ele>617.6</ele><time>2026-05-02T08:35:48Z</time></trkpt><trkpt lat="42.25767145874782" lon="13.765019942742676"><ele>616.8</ele><time>2026-05-02T08:35:49Z</time></trkpt><trkpt lat="42.257752727241" lon="13.76506047413345"><ele>616.0</ele><time>2026-05-02T08:35:50Z</time></trkpt><trkpt lat="42.25783460811424" lon="13.765110900529233"><ele>616.0</ele><time>2026-05-02T08:35:51Z</time></trkpt><trkpt lat="42.25791374499409" lon="13.765164237806907"><ele>616.0</ele><time>2026-05-02T08:35:52Z</time></trkpt><trkpt lat="42.257988815596484" lon="13.765212789216342"><ele>616.0</ele><time>2026-05-02T08:35:53Z</time></trkpt><trkpt lat="42.25806054994715" lon="13.765250359815223"><ele>616.0</ele><time>2026-05-02T08:35:53.999Z</time></trkpt><trkpt lat="42.25813277316724" lon="13.76529046129564"><ele>616.0</ele><time>2026-05-02T08:35:54.999Z</time></trkpt><trkpt lat="42.25820727560544" lon="13.765328195509206"><ele>616.0</ele><time>2026-05-02T08:35:55.999Z</time></trkpt><trkpt lat="42.25828680498264" lon="13.765361060962476"><ele>614.4</ele><time>2026-05-02T08:35:56.999Z</time></trkpt><trkpt lat="42.25837597924191" lon="13.765373772245585"><ele>612.8</ele><time>2026-05-02T08:35:57.999Z</time></trkpt><trkpt lat="42.25847226464916" lon="13.76539396719072"><ele>611.1999999999999</ele><time>2026-05-02T08:35:58.999Z</time></trkpt><trkpt lat="42.25856829419686" lon="13.76541487774787"><ele>609.6</ele><time>2026-05-02T08:35:59.999Z</time></trkpt><trkpt lat="42.25866900089909" lon="13.76543392626822"><ele>608.0</ele><time>2026-05-02T08:36:00.999Z</time></trkpt><trkpt lat="42.25876630444898" lon="13.765454940804869"><ele>608.0</ele><time>2026-05-02T08:36:01.999Z</time></trkpt><trkpt lat="42.258856992727495" lon="13.765470123002453"><ele>608.0</ele><time>2026-05-02T08:36:02.999Z</time></trkpt><trkpt lat="42.25894143648117" lon="13.765483543654012"><ele>608.0</ele><time>2026-05-02T08:36:03.999Z</time></trkpt><trkpt lat="42.25900853025073" lon="13.765499457319518"><ele>608.0</ele><time>2026-05-02T08:36:04.999Z</time></trkpt><trkpt lat="42.259073420843784" lon="13.765520930540543"><ele>608.0</ele><time>2026-05-02T08:36:08.999Z</time></trkpt><trkpt lat="42.258991478881676" lon="13.765504664473568"><ele>608.0</ele><time>2026-05-02T08:37:48Z</time></trkpt><trkpt lat="42.258874874357915" lon="13.765468162692965"><ele>608.0</ele><time>2026-05-02T08:37:50Z</time></trkpt><trkpt lat="42.258801072799756" lon="13.765425547359797"><ele>608.0</ele><time>2026-05-02T08:37:52Z</time></trkpt><trkpt lat="42.25878829222028" lon="13.765622747948393"><ele>608.0</ele><time>2026-05-02T08:37:54Z</time></trkpt><trkpt lat="42.258816164650405" lon="13.765749239271843"><ele>608.0</ele><time>2026-05-02T08:37:56Z</time></trkpt><trkpt lat="42.25884218128876" lon="13.765857091599857"><ele>608.0</ele><time>2026-05-02T08:37:58Z</time></trkpt><trkpt lat="42.25890607115643" lon="13.76590744036242"><ele>608.1999999999999</ele><time>2026-05-02T08:38:05.999Z</time></trkpt><trkpt lat="42.25897895402447" lon="13.765852692878479"><ele>608.4</ele><time>2026-05-02T08:38:08.999Z</time></trkpt><trkpt lat="42.259073186398965" lon="13.76584110266625"><ele>608.5999999999999</ele><time>2026-05-02T08:38:12.999Z</time></trkpt><trkpt lat="42.2591491115428" lon="13.76592700618647"><ele>608.8</ele><time>2026-05-02T08:38:14.999Z</time></trkpt><trkpt lat="42.25916910562026" lon="13.766086831205032"><ele>609.0</ele><time>2026-05-02T08:38:16.999Z</time></trkpt><trkpt lat="42.259147173264424" lon="13.766242548143088"><ele>609.1666666666666</ele><time>2026-05-02T08:38:18.999Z</time></trkpt><trkpt lat="42.25910284726526" lon="13.76635772169473"><ele>609.3333333333334</ele><time>2026-05-02T08:38:20.999Z</time></trkpt><trkpt lat="42.259089694953104" lon="13.766457030505928"><ele>609.5</ele><time>2026-05-02T08:38:24.999Z</time></trkpt><trkpt lat="42.259124575399035" lon="13.766532562681357"><ele>609.6666666666667</ele><time>2026-05-02T08:38:27.999Z</time></trkpt><trkpt lat="42.25921548828411" lon="13.76656011785278"><ele>609.8333333333334</ele><time>2026-05-02T08:38:30.999Z</time></trkpt><trkpt lat="42.25922904497404" lon="13.766707573677051"><ele>610.0</ele><time>2026-05-02T08:38:32.999Z</time></trkpt><trkpt lat="42.25922143595721" lon="13.766819173670573"><ele>609.5714285714286</ele><time>2026-05-02T08:38:33.999Z</time></trkpt><trkpt lat="42.25922256786686" lon="13.766910550559992"><ele>609.1428571428571</ele><time>2026-05-02T08:38:34.999Z</time></trkpt><trkpt lat="42.25920366905089" lon="13.766998971066155"><ele>608.7142857142857</ele><time>2026-05-02T08:38:35.999Z</time></trkpt><trkpt lat="42.25921234501534" lon="13.767119795178735"><ele>608.2857142857142</ele><time>2026-05-02T08:38:37.999Z</time></trkpt><trkpt lat="42.25924583805153" lon="13.76719237367432"><ele>607.8571428571429</ele><time>2026-05-02T08:38:38.999Z</time></trkpt><trkpt lat="42.259282000861816" lon="13.76727612412358"><ele>607.4285714285713</ele><time>2026-05-02T08:38:39.999Z</time></trkpt><trkpt lat="42.25932235871794" lon="13.767364571156927"><ele>607.0</ele><time>2026-05-02T08:38:40.999Z</time></trkpt><trkpt lat="42.259359490631695" lon="13.767458130656955"><ele>607.0</ele><time>2026-05-02T08:38:41.999Z</time></trkpt><trkpt lat="42.259380203528806" lon="13.767552133313808"><ele>607.0</ele><time>2026-05-02T08:38:42.999Z</time></trkpt><trkpt lat="42.259400159269354" lon="13.767636684325986"><ele>607.0</ele><time>2026-05-02T08:38:43.999Z</time></trkpt><trkpt lat="42.25950352086312" lon="13.767748752789169"><ele>607.0</ele><time>2026-05-02T08:38:45.999Z</time></trkpt><trkpt lat="42.25958373024195" lon="13.7678025764784"><ele>607.0</ele><time>2026-05-02T08:38:46.999Z</time></trkpt><trkpt lat="42.25968522182567" lon="13.7678677901753"><ele>608.0</ele><time>2026-05-02T08:38:48.999Z</time></trkpt><trkpt lat="42.259804860524994" lon="13.767867989557667"><ele>609.0</ele><time>2026-05-02T08:38:50.999Z</time></trkpt><trkpt lat="42.259879446072624" lon="13.76782291341274"><ele>610.0</ele><time>2026-05-02T08:38:51.999Z</time></trkpt><trkpt lat="42.25996066258235" lon="13.767771174148368"><ele>611.0</ele><time>2026-05-02T08:38:52.999Z</time></trkpt><trkpt lat="42.26005420460875" lon="13.767691746216208"><ele>612.0</ele><time>2026-05-02T08:38:53.999Z</time></trkpt><trkpt lat="42.260137983990056" lon="13.767611128291017"><ele>613.8000000000001</ele><time>2026-05-02T08:38:54.999Z</time></trkpt><trkpt lat="42.260220923964994" lon="13.767531511728555"><ele>615.6</ele><time>2026-05-02T08:38:55.999Z</time></trkpt><trkpt lat="42.26030377032232" lon="13.767451947534482"><ele>617.4000000000001</ele><time>2026-05-02T08:38:56.999Z</time></trkpt><trkpt lat="42.26038472031361" lon="13.767372501758434"><ele>619.2</ele><time>2026-05-02T08:38:57.999Z</time></trkpt><trkpt lat="42.26045743767516" lon="13.767305043522652"><ele>621.0</ele><time>2026-05-02T08:38:59Z</time></trkpt><trkpt lat="42.26052620149294" lon="13.767267457386128"><ele>621.0</ele><time>2026-05-02T08:39:00Z</time></trkpt><trkpt lat="42.260603597436926" lon="13.767236486881957"><ele>621.0</ele><time>2026-05-02T08:39:01Z</time></trkpt><trkpt lat="42.26067487058757" lon="13.767199809571215"><ele>621.0</ele><time>2026-05-02T08:39:02Z</time></trkpt><trkpt lat="42.260729879883456" lon="13.767139917285716"><ele>621.0</ele><time>2026-05-02T08:39:03Z</time></trkpt><trkpt lat="42.26078376064585" lon="13.76705635490102"><ele>621.0</ele><time>2026-05-02T08:39:04Z</time></trkpt><trkpt lat="42.26084438212957" lon="13.766967777561684"><ele>621.0</ele><time>2026-05-02T08:39:05Z</time></trkpt><trkpt lat="42.260912220984736" lon="13.76689196594202"><ele>620.6666666666666</ele><time>2026-05-02T08:39:06Z</time></trkpt><trkpt lat="42.2609736883587" lon="13.766831061454035"><ele>620.3333333333334</ele><time>2026-05-02T08:39:07Z</time></trkpt><trkpt lat="42.26103429782309" lon="13.76676999244875"><ele>620.0</ele><time>2026-05-02T08:39:08Z</time></trkpt><trkpt lat="42.26109580916627" lon="13.766721555346043"><ele>619.6666666666667</ele><time>2026-05-02T08:39:09Z</time></trkpt><trkpt lat="42.26116576434674" lon="13.766679069722844"><ele>619.3333333333334</ele><time>2026-05-02T08:39:10Z</time></trkpt><trkpt lat="42.26124063196854" lon="13.76663750522605"><ele>619.0</ele><time>2026-05-02T08:39:11Z</time></trkpt><trkpt lat="42.26131425354214" lon="13.76659940988957"><ele>619.0</ele><time>2026-05-02T08:39:12Z</time></trkpt><trkpt lat="42.261380709183" lon="13.76656163882376"><ele>619.0</ele><time>2026-05-02T08:39:13Z</time></trkpt><trkpt lat="42.261432036493446" lon="13.766511187881775"><ele>619.0</ele><time>2026-05-02T08:39:14Z</time></trkpt><trkpt lat="42.26151371968097" lon="13.7664338047119"><ele>619.0</ele><time>2026-05-02T08:39:16Z</time></trkpt><trkpt lat="42.26162824063784" lon="13.766456974617961"><ele>619.0</ele><time>2026-05-02T08:39:18Z</time></trkpt><trkpt lat="42.261716421624975" lon="13.766466775824638"><ele>619.0</ele><time>2026-05-02T08:39:19Z</time></trkpt><trkpt lat="42.26179413860879" lon="13.7664690234048"><ele>617.6</ele><time>2026-05-02T08:39:20Z</time></trkpt><trkpt lat="42.26185995349211" lon="13.766464512210053"><ele>616.2</ele><time>2026-05-02T08:39:21Z</time></trkpt><trkpt lat="42.261933826750635" lon="13.766410942045056"><ele>614.8000000000001</ele><time>2026-05-02T08:39:23Z</time></trkpt><trkpt lat="42.26202126087045" lon="13.766271102853606"><ele>613.4</ele><time>2026-05-02T08:39:25Z</time></trkpt><trkpt lat="42.26213198505254" lon="13.766235818280778"><ele>612.0</ele><time>2026-05-02T08:39:27Z</time></trkpt><trkpt lat="42.262195913088526" lon="13.766239535839194"><ele>611.0</ele><time>2026-05-02T08:39:28Z</time></trkpt><trkpt lat="42.262320235874384" lon="13.76619319085092"><ele>610.0</ele><time>2026-05-02T08:39:30Z</time></trkpt><trkpt lat="42.26244104364271" lon="13.766086822898133"><ele>609.0</ele><time>2026-05-02T08:39:32Z</time></trkpt><trkpt lat="42.262498988030444" lon="13.766039765624333"><ele>608.0</ele><time>2026-05-02T08:39:33Z</time></trkpt><trkpt lat="42.26258554348364" lon="13.765930365851286"><ele>608.0</ele><time>2026-05-02T08:39:35Z</time></trkpt><trkpt lat="42.26267096932751" lon="13.765866746209316"><ele>608.0</ele><time>2026-05-02T08:39:37Z</time></trkpt><trkpt lat="42.26273714246174" lon="13.765855279335371"><ele>608.0</ele><time>2026-05-02T08:39:38Z</time></trkpt><trkpt lat="42.26280908987305" lon="13.765841243384468"><ele>608.0</ele><time>2026-05-02T08:39:39Z</time></trkpt><trkpt lat="42.262922567854574" lon="13.765804798335537"><ele>608.0</ele><time>2026-05-02T08:39:41Z</time></trkpt><trkpt lat="42.263002424685" lon="13.765693336030122"><ele>608.0</ele><time>2026-05-02T08:39:43Z</time></trkpt><trkpt lat="42.263077369636136" lon="13.765572250476291"><ele>608.0</ele><time>2026-05-02T08:39:45Z</time></trkpt><trkpt lat="42.263175442681174" lon="13.765493915467435"><ele>608.0</ele><time>2026-05-02T08:39:47Z</time></trkpt><trkpt lat="42.26328651616442" lon="13.765440526867904"><ele>608.0</ele><time>2026-05-02T08:39:49Z</time></trkpt><trkpt lat="42.263345765112106" lon="13.76540743347669"><ele>608.0</ele><time>2026-05-02T08:39:50Z</time></trkpt><trkpt lat="42.263449107261344" lon="13.765322578232022"><ele>606.1999999999999</ele><time>2026-05-02T08:39:52Z</time></trkpt><trkpt lat="42.26354938366816" lon="13.765231977575183"><ele>604.4</ele><time>2026-05-02T08:39:54Z</time></trkpt><trkpt lat="42.26363859693076" lon="13.765127179864676"><ele>602.5999999999999</ele><time>2026-05-02T08:39:56Z</time></trkpt><trkpt lat="42.263724143871926" lon="13.765026730989211"><ele>600.8</ele><time>2026-05-02T08:39:58Z</time></trkpt><trkpt lat="42.263789489964516" lon="13.76500112471727"><ele>599.0</ele><time>2026-05-02T08:39:59Z</time></trkpt><trkpt lat="42.26385952553713" lon="13.764978039014453"><ele>597.8333333333333</ele><time>2026-05-02T08:40:00Z</time></trkpt><trkpt lat="42.26392413588066" lon="13.764963983783733"><ele>596.6666666666666</ele><time>2026-05-02T08:40:01Z</time></trkpt><trkpt lat="42.26403882592111" lon="13.765008114436831"><ele>595.5</ele><time>2026-05-02T08:40:03Z</time></trkpt><trkpt lat="42.26412203403678" lon="13.76500676974526"><ele>594.3333333333334</ele><time>2026-05-02T08:40:05Z</time></trkpt><trkpt lat="42.26417872938311" lon="13.76495081547289"><ele>593.1666666666667</ele><time>2026-05-02T08:40:06.999Z</time></trkpt><trkpt lat="42.264236825237354" lon="13.764848986911328"><ele>592.0</ele><time>2026-05-02T08:40:08.999Z</time></trkpt><trkpt lat="42.26427882160291" lon="13.764767181438595"><ele>590.6666666666667</ele><time>2026-05-02T08:40:10.999Z</time></trkpt><trkpt lat="42.26435448261276" lon="13.764711400181747"><ele>589.3333333333334</ele><time>2026-05-02T08:40:13.999Z</time></trkpt><trkpt lat="42.26443092828126" lon="13.764666423114898"><ele>588.0</ele><time>2026-05-02T08:40:14.999Z</time></trkpt><trkpt lat="42.26450195428716" lon="13.764583762655233"><ele>586.6666666666666</ele><time>2026-05-02T08:40:16.999Z</time></trkpt><trkpt lat="42.26456761225959" lon="13.764528855048543"><ele>585.3333333333333</ele><time>2026-05-02T08:40:17.999Z</time></trkpt><trkpt lat="42.26461954204623" lon="13.764477868978704"><ele>584.0</ele><time>2026-05-02T08:40:18.999Z</time></trkpt><trkpt lat="42.264676249882854" lon="13.76442577680682"><ele>584.0</ele><time>2026-05-02T08:40:19.999Z</time></trkpt><trkpt lat="42.26474230997263" lon="13.764398517323304"><ele>584.0</ele><time>2026-05-02T08:40:20.999Z</time></trkpt><trkpt lat="42.264828863226946" lon="13.764327930960826"><ele>584.0</ele><time>2026-05-02T08:40:22.999Z</time></trkpt><trkpt lat="42.26490191269021" lon="13.764207270940657"><ele>584.0</ele><time>2026-05-02T08:40:24.999Z</time></trkpt><trkpt lat="42.26493858625734" lon="13.76413534987955"><ele>584.0</ele><time>2026-05-02T08:40:25.999Z</time></trkpt><trkpt lat="42.26497596085608" lon="13.764056683972075"><ele>584.0</ele><time>2026-05-02T08:40:26.999Z</time></trkpt><trkpt lat="42.2650317648638" lon="13.76390589779008"><ele>581.7142857142857</ele><time>2026-05-02T08:40:28.999Z</time></trkpt><trkpt lat="42.26506876011059" lon="13.76383066296428"><ele>579.4285714285714</ele><time>2026-05-02T08:40:29.999Z</time></trkpt><trkpt lat="42.265109125745596" lon="13.763756189945154"><ele>577.1428571428571</ele><time>2026-05-02T08:40:30.999Z</time></trkpt><trkpt lat="42.265145316141236" lon="13.763678161140705"><ele>574.8571428571429</ele><time>2026-05-02T08:40:31.999Z</time></trkpt><trkpt lat="42.26518810472808" lon="13.763603819463787"><ele>572.5714285714286</ele><time>2026-05-02T08:40:32.999Z</time></trkpt><trkpt lat="42.2652252378279" lon="13.76353058773276"><ele>570.2857142857142</ele><time>2026-05-02T08:40:33.999Z</time></trkpt><trkpt lat="42.265271282042725" lon="13.763435071159574"><ele>568.0</ele><time>2026-05-02T08:40:35.999Z</time></trkpt><trkpt lat="42.265342063592016" lon="13.76337804721518"><ele>568.0</ele><time>2026-05-02T08:40:37.999Z</time></trkpt><trkpt lat="42.265419926349324" lon="13.763361197024464"><ele>568.0</ele><time>2026-05-02T08:40:39.999Z</time></trkpt><trkpt lat="42.265459471333" lon="13.76343682232178"><ele>568.0</ele><time>2026-05-02T08:40:48.999Z</time></trkpt><trkpt lat="42.26541943635476" lon="13.763519288873125"><ele>568.0</ele><time>2026-05-02T08:40:49.999Z</time></trkpt><trkpt lat="42.26537223434062" lon="13.763625000033038"><ele>568.0</ele><time>2026-05-02T08:40:50.999Z</time></trkpt><trkpt lat="42.265325526085434" lon="13.763749663975364"><ele>568.0</ele><time>2026-05-02T08:40:51.999Z</time></trkpt><trkpt lat="42.26529457174797" lon="13.763859676862637"><ele>568.0</ele><time>2026-05-02T08:40:52.999Z</time></trkpt><trkpt lat="42.26526161373817" lon="13.763957224386473"><ele>568.0</ele><time>2026-05-02T08:40:53.999Z</time></trkpt><trkpt lat="42.2652355757266" lon="13.764045083414581"><ele>568.0</ele><time>2026-05-02T08:40:54.999Z</time></trkpt><trkpt lat="42.26521500820259" lon="13.764127064364233"><ele>568.0</ele><time>2026-05-02T08:40:55.999Z</time></trkpt><trkpt lat="42.26519262856325" lon="13.764214316180922"><ele>568.0</ele><time>2026-05-02T08:40:56.999Z</time></trkpt><trkpt lat="42.265168645251045" lon="13.764293229622192"><ele>568.0</ele><time>2026-05-02T08:40:57.999Z</time></trkpt><trkpt lat="42.26512164539446" lon="13.764437122035726"><ele>567.5</ele><time>2026-05-02T08:40:59.999Z</time></trkpt><trkpt lat="42.26508176634457" lon="13.764560772132533"><ele>567.0</ele><time>2026-05-02T08:41:01.999Z</time></trkpt><trkpt lat="42.26501362365115" lon="13.764708408679812"><ele>566.5</ele><time>2026-05-02T08:41:04Z</time></trkpt><trkpt lat="42.264986096769135" lon="13.764844786302428"><ele>566.0</ele><time>2026-05-02T08:41:06Z</time></trkpt><trkpt lat="42.26493038259518" lon="13.764983389607009"><ele>566.0</ele><time>2026-05-02T08:41:08Z</time></trkpt><trkpt lat="42.26490353496574" lon="13.765082617046803"><ele>566.0</ele><time>2026-05-02T08:41:09Z</time></trkpt><trkpt lat="42.264874756859314" lon="13.76520723173034"><ele>566.0</ele><time>2026-05-02T08:41:10Z</time></trkpt><trkpt lat="42.26484374775459" lon="13.765308870673556"><ele>566.0</ele><time>2026-05-02T08:41:11Z</time></trkpt><trkpt lat="42.26481434886162" lon="13.765461950399255"><ele>566.0</ele><time>2026-05-02T08:41:13Z</time></trkpt><trkpt lat="42.26478263601426" lon="13.765560767090541"><ele>567.5</ele><time>2026-05-02T08:41:14Z</time></trkpt><trkpt lat="42.264745953403065" lon="13.765681773866635"><ele>569.0</ele><time>2026-05-02T08:41:15Z</time></trkpt><trkpt lat="42.26471358623261" lon="13.765788383301658"><ele>570.5</ele><time>2026-05-02T08:41:16Z</time></trkpt><trkpt lat="42.26468960497327" lon="13.76587580395437"><ele>572.0</ele><time>2026-05-02T08:41:17Z</time></trkpt><trkpt lat="42.2646614975437" lon="13.765977638174292"><ele>573.5</ele><time>2026-05-02T08:41:19Z</time></trkpt><trkpt lat="42.26463386412189" lon="13.766088475152912"><ele>575.0</ele><time>2026-05-02T08:41:54Z</time></trkpt><trkpt lat="42.2646057257622" lon="13.76617211882508"><ele>575.0</ele><time>2026-05-02T08:41:55Z</time></trkpt><trkpt lat="42.26457600443107" lon="13.766248393007096"><ele>575.0</ele><time>2026-05-02T08:41:56Z</time></trkpt><trkpt lat="42.26454124325943" lon="13.766376491990064"><ele>575.0</ele><time>2026-05-02T08:41:58Z</time></trkpt><trkpt lat="42.264523036098254" lon="13.766518081364357"><ele>575.0</ele><time>2026-05-02T08:42:00Z</time></trkpt><trkpt lat="42.2644976094803" lon="13.766608781284612"><ele>575.0</ele><time>2026-05-02T08:42:01Z</time></trkpt><trkpt lat="42.264474288004436" lon="13.766702431267168"><ele>575.0</ele><time>2026-05-02T08:42:02Z</time></trkpt><trkpt lat="42.2644455763158" lon="13.76684841280551"><ele>571.4</ele><time>2026-05-02T08:42:04Z</time></trkpt><trkpt lat="42.264407987490586" lon="13.766998643337626"><ele>567.8</ele><time>2026-05-02T08:42:06Z</time></trkpt><trkpt lat="42.26434879434313" lon="13.76712191496476"><ele>564.2</ele><time>2026-05-02T08:42:08Z</time></trkpt><trkpt lat="42.26428324671043" lon="13.767203864617514"><ele>560.6</ele><time>2026-05-02T08:42:10Z</time></trkpt><trkpt lat="42.26419228077076" lon="13.767287451159966"><ele>557.0</ele><time>2026-05-02T08:42:12Z</time></trkpt><trkpt lat="42.264071939418415" lon="13.767325247831163"><ele>557.0</ele><time>2026-05-02T08:42:14Z</time></trkpt><trkpt lat="42.264003508835536" lon="13.767331499056787"><ele>557.0</ele><time>2026-05-02T08:42:15Z</time></trkpt><trkpt lat="42.26394312594593" lon="13.767364531052555"><ele>557.0</ele><time>2026-05-02T08:42:16Z</time></trkpt><trkpt lat="42.263876245004205" lon="13.76741550383461"><ele>557.0</ele><time>2026-05-02T08:42:17.999Z</time></trkpt><trkpt lat="42.26381240049841" lon="13.767482178692132"><ele>557.0</ele><time>2026-05-02T08:42:20.999Z</time></trkpt><trkpt lat="42.26373526617144" lon="13.767487840074645"><ele>557.0</ele><time>2026-05-02T08:42:24.999Z</time></trkpt><trkpt lat="42.263659888548595" lon="13.767479491202092"><ele>557.0</ele><time>2026-05-02T08:42:27.999Z</time></trkpt><trkpt lat="42.26359425291336" lon="13.767474272406382"><ele>559.6666666666666</ele><time>2026-05-02T08:42:38.999Z</time></trkpt><trkpt lat="42.26353514627884" lon="13.767433906108312"><ele>562.3333333333333</ele><time>2026-05-02T08:42:40.999Z</time></trkpt><trkpt lat="42.26346398709425" lon="13.767384747418493"><ele>565.0</ele><time>2026-05-02T08:42:42.999Z</time></trkpt><trkpt lat="42.26339044561287" lon="13.767441090005843"><ele>567.6666666666666</ele><time>2026-05-02T08:42:45.999Z</time></trkpt><trkpt lat="42.263320718023806" lon="13.76735249944374"><ele>570.3333333333334</ele><time>2026-05-02T08:42:49.999Z</time></trkpt><trkpt lat="42.26325862315952" lon="13.767393680876156"><ele>573.0</ele><time>2026-05-02T08:42:59.999Z</time></trkpt><trkpt lat="42.26326937885889" lon="13.767491876206183"><ele>573.0</ele><time>2026-05-02T08:43:04.999Z</time></trkpt><trkpt lat="42.26328723742047" lon="13.767576402874719"><ele>573.0</ele><time>2026-05-02T08:43:08.999Z</time></trkpt><trkpt lat="42.26328880041137" lon="13.767674221267791"><ele>573.0</ele><time>2026-05-02T08:43:14Z</time></trkpt><trkpt lat="42.26331577986187" lon="13.767759434178712"><ele>573.0</ele><time>2026-05-02T08:43:19Z</time></trkpt><trkpt lat="42.26330888039865" lon="13.76785892842836"><ele>573.0</ele><time>2026-05-02T08:43:24Z</time></trkpt><trkpt lat="42.26330986556737" lon="13.767965234225889"><ele>573.0</ele><time>2026-05-02T08:43:30Z</time></trkpt><trkpt lat="42.26329951748414" lon="13.768069354452413"><ele>573.0</ele><time>2026-05-02T08:43:56Z</time></trkpt><trkpt lat="42.26328347020623" lon="13.768157684957654"><ele>569.5714285714286</ele><time>2026-05-02T08:44:01Z</time></trkpt><trkpt lat="42.26329668247616" lon="13.768258466454709"><ele>566.1428571428572</ele><time>2026-05-02T08:44:38.999Z</time></trkpt><trkpt lat="42.263303876495186" lon="13.7683449432196"><ele>562.7142857142858</ele><time>2026-05-02T08:44:42.999Z</time></trkpt><trkpt lat="42.263335893878164" lon="13.768425620489017"><ele>559.2857142857143</ele><time>2026-05-02T08:44:52.999Z</time></trkpt><trkpt lat="42.26334091531213" lon="13.76852769094709"><ele>555.8571428571429</ele><time>2026-05-02T08:45:00.999Z</time></trkpt><trkpt lat="42.26333716779047" lon="13.768619602105892"><ele>552.4285714285714</ele><time>2026-05-02T08:45:04.999Z</time></trkpt><trkpt lat="42.26335741399059" lon="13.768723845656767"><ele>549.0</ele><time>2026-05-02T08:45:43Z</time></trkpt><trkpt lat="42.26338007431267" lon="13.768819071996816"><ele>546.1666666666666</ele><time>2026-05-02T08:45:50Z</time></trkpt><trkpt lat="42.26343414832332" lon="13.768907404509852"><ele>543.3333333333334</ele><time>2026-05-02T08:45:53Z</time></trkpt><trkpt lat="42.26349021116708" lon="13.769006483293971"><ele>540.5</ele><time>2026-05-02T08:45:56Z</time></trkpt><trkpt lat="42.263521411492746" lon="13.769082055069912"><ele>537.6666666666667</ele><time>2026-05-02T08:45:58Z</time></trkpt><trkpt lat="42.26358536715071" lon="13.769178257303526"><ele>534.8333333333334</ele><time>2026-05-02T08:46:01Z</time></trkpt><trkpt lat="42.26366108327101" lon="13.769270299134408"><ele>532.0</ele><time>2026-05-02T08:46:03Z</time></trkpt><trkpt lat="42.26374940015572" lon="13.769357474047286"><ele>530.4285714285714</ele><time>2026-05-02T08:46:05Z</time></trkpt><trkpt lat="42.26381316815596" lon="13.769393608120565"><ele>528.8571428571429</ele><time>2026-05-02T08:46:06Z</time></trkpt><trkpt lat="42.26389206882038" lon="13.769428729251628"><ele>527.2857142857142</ele><time>2026-05-02T08:46:07Z</time></trkpt><trkpt lat="42.263964790061735" lon="13.7694711286786"><ele>525.7142857142858</ele><time>2026-05-02T08:46:08Z</time></trkpt><trkpt lat="42.26402879149224" lon="13.769521573401901"><ele>524.1428571428571</ele><time>2026-05-02T08:46:09Z</time></trkpt><trkpt lat="42.264088863700216" lon="13.769554860602844"><ele>522.5714285714286</ele><time>2026-05-02T08:46:10Z</time></trkpt><trkpt lat="42.264158586529184" lon="13.769569627225145"><ele>521.0</ele><time>2026-05-02T08:46:11Z</time></trkpt><trkpt lat="42.26423670099553" lon="13.769614738274178"><ele>520.1666666666666</ele><time>2026-05-02T08:46:12Z</time></trkpt><trkpt lat="42.26431266912653" lon="13.769638016006693"><ele>519.3333333333333</ele><time>2026-05-02T08:46:13Z</time></trkpt><trkpt lat="42.26440649061121" lon="13.769657696304403"><ele>518.5</ele><time>2026-05-02T08:46:15Z</time></trkpt><trkpt lat="42.264466707553545" lon="13.769701378998047"><ele>517.6666666666666</ele><time>2026-05-02T08:46:17Z</time></trkpt><trkpt lat="42.26449981037259" lon="13.769787229103452"><ele>516.8333333333334</ele><time>2026-05-02T08:46:17.999Z</time></trkpt><trkpt lat="42.264520080258855" lon="13.769883145779572"><ele>516.0</ele><time>2026-05-02T08:46:18.999Z</time></trkpt><trkpt lat="42.264605218744634" lon="13.769974060230972"><ele>516.0</ele><time>2026-05-02T08:46:20.999Z</time></trkpt><trkpt lat="42.264677906857834" lon="13.769963244790956"><ele>516.0</ele><time>2026-05-02T08:46:21.999Z</time></trkpt><trkpt lat="42.26475544727459" lon="13.769933907849945"><ele>516.0</ele><time>2026-05-02T08:46:22.999Z</time></trkpt><trkpt lat="42.26483455470246" lon="13.769911086633353"><ele>516.0</ele><time>2026-05-02T08:46:23.999Z</time></trkpt><trkpt lat="42.26491392509014" lon="13.769903241404025"><ele>516.0</ele><time>2026-05-02T08:46:24.999Z</time></trkpt><trkpt lat="42.26499955371617" lon="13.769891828063177"><ele>516.0</ele><time>2026-05-02T08:46:25.999Z</time></trkpt><trkpt lat="42.26509152883139" lon="13.76986226375325"><ele>514.6</ele><time>2026-05-02T08:46:26.999Z</time></trkpt><trkpt lat="42.26517620658573" lon="13.76983356878064"><ele>513.2</ele><time>2026-05-02T08:46:27.999Z</time></trkpt><trkpt lat="42.26525043009585" lon="13.76981106747146"><ele>511.79999999999995</ele><time>2026-05-02T08:46:28.999Z</time></trkpt><trkpt lat="42.26535803568101" lon="13.769805547186028"><ele>510.4</ele><time>2026-05-02T08:46:30.999Z</time></trkpt><trkpt lat="42.26545217267163" lon="13.769933856438783"><ele>509.0</ele><time>2026-05-02T08:46:32.999Z</time></trkpt><trkpt lat="42.26549583273775" lon="13.770053641750719"><ele>508.99999999999994</ele><time>2026-05-02T08:46:34.999Z</time></trkpt><trkpt lat="42.2655751497789" lon="13.770100321449581"><ele>509.0</ele><time>2026-05-02T08:46:36.999Z</time></trkpt><trkpt lat="42.265634361377906" lon="13.770046735700422"><ele>508.99999999999994</ele><time>2026-05-02T08:46:37.999Z</time></trkpt><trkpt lat="42.265693742115936" lon="13.77001575412231"><ele>508.99999999999994</ele><time>2026-05-02T08:46:38.999Z</time></trkpt><trkpt lat="42.2657533448535" lon="13.769963000902706"><ele>509.0</ele><time>2026-05-02T08:46:39.999Z</time></trkpt><trkpt lat="42.265809670438784" lon="13.769899143206535"><ele>508.99999999999994</ele><time>2026-05-02T08:46:40.999Z</time></trkpt><trkpt lat="42.265853822365415" lon="13.769824324306766"><ele>508.99999999999994</ele><time>2026-05-02T08:46:41.999Z</time></trkpt><trkpt lat="42.26590721616444" lon="13.769772017994724"><ele>506.8333333333333</ele><time>2026-05-02T08:46:42.999Z</time></trkpt><trkpt lat="42.26596363790113" lon="13.76971953988051"><ele>504.66666666666663</ele><time>2026-05-02T08:46:43.999Z</time></trkpt><trkpt lat="42.26602100270591" lon="13.769669771928962"><ele>502.5</ele><time>2026-05-02T08:46:44.999Z</time></trkpt><trkpt lat="42.266074709484805" lon="13.769620819536527"><ele>500.33333333333337</ele><time>2026-05-02T08:46:45.999Z</time></trkpt><trkpt lat="42.266162434769704" lon="13.769528930702679"><ele>498.1666666666667</ele><time>2026-05-02T08:46:47.999Z</time></trkpt><trkpt lat="42.26623239223628" lon="13.769466443741816"><ele>496.0</ele><time>2026-05-02T08:46:50.999Z</time></trkpt><trkpt lat="42.26629438435095" lon="13.769403849474466"><ele>496.1666666666667</ele><time>2026-05-02T08:46:52.999Z</time></trkpt><trkpt lat="42.26638419966336" lon="13.769285635067208"><ele>496.33333333333337</ele><time>2026-05-02T08:46:54.999Z</time></trkpt><trkpt lat="42.26643629036547" lon="13.76923492038693"><ele>496.5</ele><time>2026-05-02T08:46:55.999Z</time></trkpt><trkpt lat="42.26648879311169" lon="13.769179933746743"><ele>496.66666666666663</ele><time>2026-05-02T08:46:56.999Z</time></trkpt><trkpt lat="42.26654327404759" lon="13.76912402036754"><ele>496.8333333333333</ele><time>2026-05-02T08:46:57.999Z</time></trkpt><trkpt lat="42.26659856509515" lon="13.76906820019007"><ele>497.0</ele><time>2026-05-02T08:46:58.999Z</time></trkpt><trkpt lat="42.266655501001345" lon="13.769013499134571"><ele>497.0</ele><time>2026-05-02T08:46:59.999Z</time></trkpt><trkpt lat="42.266712011905184" lon="13.76895809056014"><ele>497.0</ele><time>2026-05-02T08:47:00.999Z</time></trkpt><trkpt lat="42.266768513655045" lon="13.768898276675518"><ele>497.0</ele><time>2026-05-02T08:47:01.999Z</time></trkpt><trkpt lat="42.26683528177911" lon="13.76886440054097"><ele>497.0</ele><time>2026-05-02T08:47:02.999Z</time></trkpt><trkpt lat="42.26689510567742" lon="13.768809788141516"><ele>497.0</ele><time>2026-05-02T08:47:03.999Z</time></trkpt><trkpt lat="42.26695121196231" lon="13.768758569491865"><ele>497.0</ele><time>2026-05-02T08:47:04.999Z</time></trkpt><trkpt lat="42.26700003479503" lon="13.768702714698586"><ele>497.0</ele><time>2026-05-02T08:47:05.999Z</time></trkpt><trkpt lat="42.267090468713654" lon="13.768584431807511"><ele>498.0</ele><time>2026-05-02T08:47:07.999Z</time></trkpt><trkpt lat="42.26720127998045" lon="13.768510985463104"><ele>499.00000000000006</ele><time>2026-05-02T08:47:09.999Z</time></trkpt><trkpt lat="42.26727619328975" lon="13.76842704542586"><ele>500.00000000000006</ele><time>2026-05-02T08:47:11.999Z</time></trkpt><trkpt lat="42.26735030458551" lon="13.768341074815044"><ele>501.0</ele><time>2026-05-02T08:47:13.999Z</time></trkpt><trkpt lat="42.267425279060866" lon="13.768331261148758"><ele>502.0</ele><time>2026-05-02T08:47:15.999Z</time></trkpt><trkpt lat="42.267494347680156" lon="13.76841622569855"><ele>502.33333333333337</ele><time>2026-05-02T08:47:17.999Z</time></trkpt><trkpt lat="42.26761403505515" lon="13.768417272234403"><ele>502.6666666666667</ele><time>2026-05-02T08:47:20.999Z</time></trkpt><trkpt lat="42.26757416892298" lon="13.768309412121026"><ele>503.0</ele><time>2026-05-02T08:47:22Z</time></trkpt><trkpt lat="42.26754708965567" lon="13.76821226459215"><ele>503.33333333333337</ele><time>2026-05-02T08:47:25Z</time></trkpt><trkpt lat="42.26751281111947" lon="13.768134177019876"><ele>503.6666666666667</ele><time>2026-05-02T08:48:06Z</time></trkpt><trkpt lat="42.267522887303144" lon="13.768042779910395"><ele>504.0</ele><time>2026-05-02T08:48:14Z</time></trkpt><trkpt lat="42.26759910583912" lon="13.768035652913255"><ele>504.0</ele><time>2026-05-02T08:50:49.999Z</time></trkpt><trkpt lat="42.26766694284326" lon="13.768071712706732"><ele>504.0</ele><time>2026-05-02T08:50:53.999Z</time></trkpt><trkpt lat="42.26760635751356" lon="13.767991503501692"><ele>504.0</ele><time>2026-05-02T08:50:58.999Z</time></trkpt><trkpt lat="42.26752157445026" lon="13.767936769117147"><ele>504.0</ele><time>2026-05-02T08:51:02.999Z</time></trkpt><trkpt lat="42.267576469281785" lon="13.76798852999297"><ele>504.0</ele><time>2026-05-02T08:51:42Z</time></trkpt><trkpt lat="42.26758668312955" lon="13.768089580958751"><ele>504.0</ele><time>2026-05-02T08:51:48Z</time></trkpt><trkpt lat="42.26758136390246" lon="13.76819018836828"><ele>504.0</ele><time>2026-05-02T08:51:52Z</time></trkpt><trkpt lat="42.26763637976712" lon="13.76824953910731"><ele>504.0</ele><time>2026-05-02T08:51:54Z</time></trkpt><trkpt lat="42.26757910289076" lon="13.768198736673112"><ele>504.0</ele><time>2026-05-02T08:51:57Z</time></trkpt><trkpt lat="42.26754817042348" lon="13.768117264980207"><ele>504.0</ele><time>2026-05-02T08:51:58Z</time></trkpt><trkpt lat="42.267518830110035" lon="13.768031791826166"><ele>504.0</ele><time>2026-05-02T08:52:02Z</time></trkpt><trkpt lat="42.26754139719292" lon="13.76811814245472"><ele>504.0</ele><time>2026-05-02T08:53:40Z</time></trkpt><trkpt lat="42.267547964702416" lon="13.768209755160349"><ele>504.0</ele><time>2026-05-02T08:56:23Z</time></trkpt><trkpt lat="42.267483369389566" lon="13.768170272592942"><ele>504.0</ele><time>2026-05-02T08:56:26Z</time></trkpt><trkpt lat="42.2674199293818" lon="13.768052602291219"><ele>504.0</ele><time>2026-05-02T08:56:28Z</time></trkpt><trkpt lat="42.26734978636087" lon="13.767991825277612"><ele>504.0</ele><time>2026-05-02T08:56:29Z</time></trkpt><trkpt lat="42.26728477130165" lon="13.767909748015459"><ele>504.0</ele><time>2026-05-02T08:56:30Z</time></trkpt><trkpt lat="42.267234405096104" lon="13.76783150394451"><ele>504.0</ele><time>2026-05-02T08:56:31Z</time></trkpt><trkpt lat="42.26720241279784" lon="13.767741811702555"><ele>504.0</ele><time>2026-05-02T08:56:32Z</time></trkpt><trkpt lat="42.26716540331097" lon="13.767651195334706"><ele>504.42857142857144</ele><time>2026-05-02T08:56:32.999Z</time></trkpt><trkpt lat="42.267127929510984" lon="13.767559827837735"><ele>504.8571428571429</ele><time>2026-05-02T08:56:33.999Z</time></trkpt><trkpt lat="42.267091441809704" lon="13.767471982045475"><ele>505.2857142857143</ele><time>2026-05-02T08:56:34.999Z</time></trkpt><trkpt lat="42.26705881731813" lon="13.767383578774462"><ele>505.7142857142857</ele><time>2026-05-02T08:56:35.999Z</time></trkpt><trkpt lat="42.26702684678484" lon="13.767306427013507"><ele>506.14285714285717</ele><time>2026-05-02T08:56:36.999Z</time></trkpt><trkpt lat="42.26700258984693" lon="13.767222585623214"><ele>506.57142857142856</ele><time>2026-05-02T08:56:37.999Z</time></trkpt><trkpt lat="42.26700014116501" lon="13.767124734968256"><ele>507.0</ele><time>2026-05-02T08:56:38.999Z</time></trkpt><trkpt lat="42.266994174088985" lon="13.767029656399208"><ele>507.0</ele><time>2026-05-02T08:56:39.999Z</time></trkpt><trkpt lat="42.26699660750234" lon="13.766920061533098"><ele>507.0</ele><time>2026-05-02T08:56:40.999Z</time></trkpt><trkpt lat="42.26700293791649" lon="13.766802449972847"><ele>507.0</ele><time>2026-05-02T08:56:41.999Z</time></trkpt><trkpt lat="42.267006251316445" lon="13.7666736223803"><ele>507.0</ele><time>2026-05-02T08:56:42.999Z</time></trkpt><trkpt lat="42.26701166999763" lon="13.766558238389118"><ele>507.0</ele><time>2026-05-02T08:56:43.999Z</time></trkpt><trkpt lat="42.26702150342321" lon="13.766448677135976"><ele>507.0</ele><time>2026-05-02T08:56:44.999Z</time></trkpt><trkpt lat="42.267023736917466" lon="13.766334429566195"><ele>509.0</ele><time>2026-05-02T08:56:45.999Z</time></trkpt><trkpt lat="42.26702179074351" lon="13.766191253078919"><ele>511.0</ele><time>2026-05-02T08:56:46.999Z</time></trkpt><trkpt lat="42.26702831440208" lon="13.766027667410363"><ele>513.0</ele><time>2026-05-02T08:56:47.999Z</time></trkpt><trkpt lat="42.267047952465894" lon="13.765873132001701"><ele>515.0</ele><time>2026-05-02T08:56:48.999Z</time></trkpt><trkpt lat="42.267064175055566" lon="13.765723413020552"><ele>516.0</ele><time>2026-05-02T08:56:49.999Z</time></trkpt><trkpt lat="42.26707701134615" lon="13.765571734730205"><ele>517.0</ele><time>2026-05-02T08:56:50.999Z</time></trkpt><trkpt lat="42.26709384018288" lon="13.76542452478948"><ele>518.0</ele><time>2026-05-02T08:56:51.999Z</time></trkpt><trkpt lat="42.267114516293915" lon="13.765282726141807"><ele>519.0</ele><time>2026-05-02T08:56:52.999Z</time></trkpt><trkpt lat="42.267156518538904" lon="13.765148598884364"><ele>520.0</ele><time>2026-05-02T08:56:53.999Z</time></trkpt><trkpt lat="42.26719643232847" lon="13.76501809860365"><ele>519.6</ele><time>2026-05-02T08:56:54.999Z</time></trkpt><trkpt lat="42.26723211512735" lon="13.764887340509148"><ele>519.2</ele><time>2026-05-02T08:56:55.999Z</time></trkpt><trkpt lat="42.267273983196255" lon="13.764755594708268"><ele>518.8</ele><time>2026-05-02T08:56:56.999Z</time></trkpt><trkpt lat="42.26732414921699" lon="13.764619152255392"><ele>518.4</ele><time>2026-05-02T08:56:57.999Z</time></trkpt><trkpt lat="42.26738127258714" lon="13.764480095458069"><ele>518.0</ele><time>2026-05-02T08:56:58.999Z</time></trkpt><trkpt lat="42.26744378056301" lon="13.764335226550772"><ele>518.0</ele><time>2026-05-02T08:56:59.999Z</time></trkpt><trkpt lat="42.2675142309568" lon="13.764189343146546"><ele>518.0</ele><time>2026-05-02T08:57:00.999Z</time></trkpt><trkpt lat="42.26759663409223" lon="13.764019539888496"><ele>518.0</ele><time>2026-05-02T08:57:01.999Z</time></trkpt><trkpt lat="42.26767271728595" lon="13.763804448737325"><ele>518.0</ele><time>2026-05-02T08:57:02.999Z</time></trkpt><trkpt lat="42.26773511120642" lon="13.763564928854167"><ele>518.0</ele><time>2026-05-02T08:57:03.999Z</time></trkpt><trkpt lat="42.26778350921324" lon="13.76333470721617"><ele>518.0</ele><time>2026-05-02T08:57:04.999Z</time></trkpt><trkpt lat="42.26781435827577" lon="13.763110654563233"><ele>520.0</ele><time>2026-05-02T08:57:05.999Z</time></trkpt><trkpt lat="42.267828013077754" lon="13.762901406798795"><ele>522.0</ele><time>2026-05-02T08:57:06.999Z</time></trkpt><trkpt lat="42.26784571993203" lon="13.762698209074808"><ele>524.0</ele><time>2026-05-02T08:57:07.999Z</time></trkpt><trkpt lat="42.26788934386807" lon="13.76251591426055"><ele>526.0</ele><time>2026-05-02T08:57:08.999Z</time></trkpt><trkpt lat="42.26796057699865" lon="13.76233880130404"><ele>526.25</ele><time>2026-05-02T08:57:09.999Z</time></trkpt><trkpt lat="42.26804258611494" lon="13.76218119384757"><ele>526.5</ele><time>2026-05-02T08:57:10.999Z</time></trkpt><trkpt lat="42.26813309244017" lon="13.762033029962152"><ele>526.75</ele><time>2026-05-02T08:57:11.999Z</time></trkpt><trkpt lat="42.2682173044391" lon="13.761884148772703"><ele>527.0</ele><time>2026-05-02T08:57:12.999Z</time></trkpt><trkpt lat="42.26829349793365" lon="13.761729442656845"><ele>527.0</ele><time>2026-05-02T08:57:13.999Z</time></trkpt><trkpt lat="42.268367408475456" lon="13.761570949576614"><ele>527.0</ele><time>2026-05-02T08:57:14.999Z</time></trkpt><trkpt lat="42.268439949429606" lon="13.76140562131438"><ele>527.0</ele><time>2026-05-02T08:57:15.999Z</time></trkpt><trkpt lat="42.268502301021904" lon="13.76123422025843"><ele>527.0</ele><time>2026-05-02T08:57:16.999Z</time></trkpt><trkpt lat="42.26855584732312" lon="13.761036307989576"><ele>530.3333333333333</ele><time>2026-05-02T08:57:17.999Z</time></trkpt><trkpt lat="42.26861410593984" lon="13.760816793841878"><ele>533.6666666666666</ele><time>2026-05-02T08:57:18.999Z</time></trkpt><trkpt lat="42.26867820079177" lon="13.760595806515973"><ele>537.0</ele><time>2026-05-02T08:57:19.999Z</time></trkpt><trkpt lat="42.268736042013956" lon="13.760387490613585"><ele>537.0</ele><time>2026-05-02T08:57:20.999Z</time></trkpt><trkpt lat="42.268788664247175" lon="13.76020126785509"><ele>537.0</ele><time>2026-05-02T08:57:21.999Z</time></trkpt><trkpt lat="42.26883721424262" lon="13.76002483821041"><ele>537.0</ele><time>2026-05-02T08:57:22.999Z</time></trkpt><trkpt lat="42.268879464104124" lon="13.75987089528513"><ele>537.0</ele><time>2026-05-02T08:57:23.999Z</time></trkpt><trkpt lat="42.26891346145867" lon="13.759727775709937"><ele>537.2</ele><time>2026-05-02T08:57:24.999Z</time></trkpt><trkpt lat="42.268922994328015" lon="13.759596633558152"><ele>537.4000000000001</ele><time>2026-05-02T08:57:25.999Z</time></trkpt><trkpt lat="42.26890338169909" lon="13.75947715126497"><ele>537.5999999999999</ele><time>2026-05-02T08:57:26.999Z</time></trkpt><trkpt lat="42.26884007845658" lon="13.759400965531295"><ele>537.8</ele><time>2026-05-02T08:57:27.999Z</time></trkpt><trkpt lat="42.26875670133538" lon="13.75936259787393"><ele>538.0</ele><time>2026-05-02T08:57:28.999Z</time></trkpt><trkpt lat="42.26863683450134" lon="13.759341111874708"><ele>538.0</ele><time>2026-05-02T08:57:29.999Z</time></trkpt><trkpt lat="42.268518358644386" lon="13.759360804691216"><ele>538.0</ele><time>2026-05-02T08:57:30.999Z</time></trkpt><trkpt lat="42.26840169847656" lon="13.759378417888989"><ele>538.0</ele><time>2026-05-02T08:57:31.999Z</time></trkpt><trkpt lat="42.26827358042485" lon="13.759400736038817"><ele>538.0</ele><time>2026-05-02T08:57:32.999Z</time></trkpt><trkpt lat="42.26814954231452" lon="13.759437957991768"><ele>537.0</ele><time>2026-05-02T08:57:33.999Z</time></trkpt><trkpt lat="42.26803348740137" lon="13.759499928600762"><ele>536.0</ele><time>2026-05-02T08:57:34.999Z</time></trkpt><trkpt lat="42.2679234323553" lon="13.759585992714182"><ele>535.0</ele><time>2026-05-02T08:57:35.999Z</time></trkpt><trkpt lat="42.26782556583582" lon="13.759700890824027"><ele>534.0</ele><time>2026-05-02T08:57:36.999Z</time></trkpt><trkpt lat="42.267743668156534" lon="13.759837919553686"><ele>534.0</ele><time>2026-05-02T08:57:37.999Z</time></trkpt><trkpt lat="42.26767097870356" lon="13.759979746461573"><ele>534.0</ele><time>2026-05-02T08:57:38.999Z</time></trkpt><trkpt lat="42.26760159945077" lon="13.760116697877951"><ele>534.0</ele><time>2026-05-02T08:57:39.999Z</time></trkpt><trkpt lat="42.26753021399404" lon="13.760246437518482"><ele>534.0</ele><time>2026-05-02T08:57:40.999Z</time></trkpt><trkpt lat="42.26745824472701" lon="13.760377022438924"><ele>532.25</ele><time>2026-05-02T08:57:41.999Z</time></trkpt><trkpt lat="42.26738376236677" lon="13.760509722269314"><ele>530.5</ele><time>2026-05-02T08:57:42.999Z</time></trkpt><trkpt lat="42.26730478024193" lon="13.760653221886402"><ele>528.75</ele><time>2026-05-02T08:57:43.999Z</time></trkpt><trkpt lat="42.26722435743369" lon="13.760807816563362"><ele>527.0</ele><time>2026-05-02T08:57:44.999Z</time></trkpt><trkpt lat="42.267160526888624" lon="13.760954370691824"><ele>530.25</ele><time>2026-05-02T08:57:45.999Z</time></trkpt><trkpt lat="42.267103942739126" lon="13.76111027599128"><ele>533.5</ele><time>2026-05-02T08:57:46.999Z</time></trkpt><trkpt lat="42.26704602002016" lon="13.7612879459959"><ele>536.75</ele><time>2026-05-02T08:57:47.999Z</time></trkpt><trkpt lat="42.26700899551611" lon="13.76147787595751"><ele>540.0</ele><time>2026-05-02T08:57:48.999Z</time></trkpt><trkpt lat="42.26696352210376" lon="13.761644568652894"><ele>540.0</ele><time>2026-05-02T08:57:50Z</time></trkpt><trkpt lat="42.26688446603738" lon="13.761702356281724"><ele>540.0</ele><time>2026-05-02T08:57:51Z</time></trkpt><trkpt lat="42.26684628530206" lon="13.761789197738203"><ele>540.0</ele><time>2026-05-02T08:57:52Z</time></trkpt><trkpt lat="42.26680226056037" lon="13.761861411950585"><ele>540.0</ele><time>2026-05-02T08:57:53Z</time></trkpt><trkpt lat="42.26678563852956" lon="13.76195638220549"><ele>540.0</ele><time>2026-05-02T08:57:54Z</time></trkpt><trkpt lat="42.266716148414034" lon="13.761966987186543"><ele>540.0</ele><time>2026-05-02T08:57:55Z</time></trkpt><trkpt lat="42.26664521011935" lon="13.761959201645372"><ele>540.0</ele><time>2026-05-02T08:57:56Z</time></trkpt><trkpt lat="42.26656604948577" lon="13.76197305421996"><ele>542.0</ele><time>2026-05-02T08:57:57Z</time></trkpt><trkpt lat="42.26649844093944" lon="13.762088115761593"><ele>544.0</ele><time>2026-05-02T08:57:58Z</time></trkpt><trkpt lat="42.26639643587734" lon="13.76211723050544"><ele>546.0</ele><time>2026-05-02T08:57:59Z</time></trkpt><trkpt lat="42.26630442720316" lon="13.762128071415297"><ele>548.0</ele><time>2026-05-02T08:58:00Z</time></trkpt><trkpt lat="42.26620888579808" lon="13.761978545709201"><ele>548.3333333333333</ele><time>2026-05-02T08:58:01Z</time></trkpt><trkpt lat="42.266125114211256" lon="13.761961347839824"><ele>548.6666666666666</ele><time>2026-05-02T08:58:02Z</time></trkpt><trkpt lat="42.2660434933998" lon="13.761942419543113"><ele>549.0</ele><time>2026-05-02T08:58:03Z</time></trkpt><trkpt lat="42.26596294122901" lon="13.761927155434709"><ele>549.3333333333334</ele><time>2026-05-02T08:58:04Z</time></trkpt><trkpt lat="42.26588082124929" lon="13.761917630378262"><ele>549.6666666666667</ele><time>2026-05-02T08:58:05Z</time></trkpt><trkpt lat="42.265799354145095" lon="13.761914020388678"><ele>550.0</ele><time>2026-05-02T08:58:06Z</time></trkpt><trkpt lat="42.265716700703834" lon="13.761913809178916"><ele>550.0</ele><time>2026-05-02T08:58:07Z</time></trkpt><trkpt lat="42.26563534820413" lon="13.76192411585602"><ele>550.0</ele><time>2026-05-02T08:58:08Z</time></trkpt><trkpt lat="42.2655591261981" lon="13.761949173507901"><ele>550.0</ele><time>2026-05-02T08:58:09Z</time></trkpt><trkpt lat="42.265486360613764" lon="13.761978352033058"><ele>550.0</ele><time>2026-05-02T08:58:10Z</time></trkpt><trkpt lat="42.2654086837982" lon="13.761986765263181"><ele>550.0</ele><time>2026-05-02T08:58:11Z</time></trkpt><trkpt lat="42.26532554604913" lon="13.761979534896428"><ele>550.0</ele><time>2026-05-02T08:58:12Z</time></trkpt><trkpt lat="42.26524431748143" lon="13.761965245997779"><ele>549.5</ele><time>2026-05-02T08:58:13Z</time></trkpt><trkpt lat="42.26516591358459" lon="13.761954686706584"><ele>549.0</ele><time>2026-05-02T08:58:14Z</time></trkpt><trkpt lat="42.265086022692046" lon="13.76195225652514"><ele>548.5</ele><time>2026-05-02T08:58:15Z</time></trkpt><trkpt lat="42.26500354667693" lon="13.761948947751238"><ele>548.0</ele><time>2026-05-02T08:58:16Z</time></trkpt><trkpt lat="42.264915884975714" lon="13.76193970930292"><ele>547.5</ele><time>2026-05-02T08:58:17Z</time></trkpt><trkpt lat="42.26482967272118" lon="13.761928182189777"><ele>547.0</ele><time>2026-05-02T08:58:18Z</time></trkpt><trkpt lat="42.26474870582987" lon="13.761917622067479"><ele>547.0</ele><time>2026-05-02T08:58:19Z</time></trkpt><trkpt lat="42.264669441633245" lon="13.76190622026506"><ele>547.0</ele><time>2026-05-02T08:58:20Z</time></trkpt><trkpt lat="42.2645912957242" lon="13.761896738664118"><ele>547.0</ele><time>2026-05-02T08:58:21Z</time></trkpt><trkpt lat="42.264517773565956" lon="13.761893598521642"><ele>547.0</ele><time>2026-05-02T08:58:22Z</time></trkpt><trkpt lat="42.26443222698727" lon="13.761896433126543"><ele>547.0</ele><time>2026-05-02T08:58:23Z</time></trkpt><trkpt lat="42.26433857210029" lon="13.761895374432346"><ele>547.0</ele><time>2026-05-02T08:58:24Z</time></trkpt><trkpt lat="42.26424771925218" lon="13.761900694441028"><ele>547.0</ele><time>2026-05-02T08:58:25Z</time></trkpt><trkpt lat="42.26415484119087" lon="13.761910325035096"><ele>547.0</ele><time>2026-05-02T08:58:26Z</time></trkpt><trkpt lat="42.264059165681275" lon="13.761922343695153"><ele>547.0</ele><time>2026-05-02T08:58:27Z</time></trkpt><trkpt lat="42.26397134425914" lon="13.761938805986752"><ele>547.0</ele><time>2026-05-02T08:58:28Z</time></trkpt><trkpt lat="42.26389070855618" lon="13.76194439918863"><ele>547.0</ele><time>2026-05-02T08:58:29Z</time></trkpt><trkpt lat="42.26380268909831" lon="13.761942207743415"><ele>547.0</ele><time>2026-05-02T08:58:30Z</time></trkpt><trkpt lat="42.26371766913295" lon="13.761936123785146"><ele>545.3333333333334</ele><time>2026-05-02T08:58:31Z</time></trkpt><trkpt lat="42.263636798460006" lon="13.761930569208197"><ele>543.6666666666667</ele><time>2026-05-02T08:58:32Z</time></trkpt><trkpt lat="42.26356208403173" lon="13.761925451512674"><ele>542.0</ele><time>2026-05-02T08:58:33Z</time></trkpt><trkpt lat="42.26348528633854" lon="13.761923205930792"><ele>540.3333333333334</ele><time>2026-05-02T08:58:34Z</time></trkpt><trkpt lat="42.2634071688622" lon="13.761932773587569"><ele>538.6666666666666</ele><time>2026-05-02T08:58:35Z</time></trkpt><trkpt lat="42.26332999854392" lon="13.761953276585574"><ele>537.0</ele><time>2026-05-02T08:58:36Z</time></trkpt><trkpt lat="42.2632518774969" lon="13.761975778072324"><ele>537.0</ele><time>2026-05-02T08:58:37Z</time></trkpt><trkpt lat="42.263175716393455" lon="13.761995700691479"><ele>537.0</ele><time>2026-05-02T08:58:38Z</time></trkpt><trkpt lat="42.26310058469639" lon="13.762011254017297"><ele>537.0</ele><time>2026-05-02T08:58:39Z</time></trkpt><trkpt lat="42.26302740196028" lon="13.76202725288637"><ele>537.0</ele><time>2026-05-02T08:58:40Z</time></trkpt><trkpt lat="42.26294830658983" lon="13.76204306365911"><ele>537.0</ele><time>2026-05-02T08:58:41Z</time></trkpt><trkpt lat="42.26286592460861" lon="13.762066495323541"><ele>537.0</ele><time>2026-05-02T08:58:41.999Z</time></trkpt><trkpt lat="42.26278484708545" lon="13.762100560411016"><ele>534.1666666666666</ele><time>2026-05-02T08:58:42.999Z</time></trkpt><trkpt lat="42.262704705661776" lon="13.762132971715927"><ele>531.3333333333334</ele><time>2026-05-02T08:58:43.999Z</time></trkpt><trkpt lat="42.26262712882667" lon="13.762161261539369"><ele>528.5</ele><time>2026-05-02T08:58:44.999Z</time></trkpt><trkpt lat="42.262545736309285" lon="13.762202440712082"><ele>525.6666666666667</ele><time>2026-05-02T08:58:45.999Z</time></trkpt><trkpt lat="42.262458085802834" lon="13.762237710662479"><ele>522.8333333333334</ele><time>2026-05-02T08:58:46.999Z</time></trkpt><trkpt lat="42.26236591792795" lon="13.762268901488461"><ele>520.0</ele><time>2026-05-02T08:58:47.999Z</time></trkpt><trkpt lat="42.262274629251905" lon="13.762294708354501"><ele>518.8333333333334</ele><time>2026-05-02T08:58:48.999Z</time></trkpt><trkpt lat="42.26218564771773" lon="13.76232282726701"><ele>517.6666666666667</ele><time>2026-05-02T08:58:49.999Z</time></trkpt><trkpt lat="42.2620921995121" lon="13.762350621465833"><ele>516.5</ele><time>2026-05-02T08:58:50.999Z</time></trkpt><trkpt lat="42.26199987532779" lon="13.762369909798162"><ele>515.3333333333334</ele><time>2026-05-02T08:58:51.999Z</time></trkpt><trkpt lat="42.26191496740464" lon="13.762384521170986"><ele>514.1666666666666</ele><time>2026-05-02T08:58:52.999Z</time></trkpt><trkpt lat="42.26183839164216" lon="13.762399477959812"><ele>513.0</ele><time>2026-05-02T08:58:53.999Z</time></trkpt><trkpt lat="42.26176451712231" lon="13.762408098154308"><ele>513.0000000000001</ele><time>2026-05-02T08:58:54.999Z</time></trkpt><trkpt lat="42.261689189889644" lon="13.762397692689982"><ele>513.0</ele><time>2026-05-02T08:58:55.999Z</time></trkpt><trkpt lat="42.261614651286" lon="13.762373013785187"><ele>513.0</ele><time>2026-05-02T08:58:56.999Z</time></trkpt><trkpt lat="42.26154036294705" lon="13.762349630412821"><ele>513.0</ele><time>2026-05-02T08:58:57.999Z</time></trkpt><trkpt lat="42.2614737093872" lon="13.762322830783067"><ele>513.0</ele><time>2026-05-02T08:58:58.999Z</time></trkpt><trkpt lat="42.26140895256031" lon="13.76228463235463"><ele>513.0000000000001</ele><time>2026-05-02T08:58:59.999Z</time></trkpt><trkpt lat="42.261349283442705" lon="13.762221411347458"><ele>513.0</ele><time>2026-05-02T08:59:00.999Z</time></trkpt><trkpt lat="42.261298676100104" lon="13.762129442129238"><ele>512.75</ele><time>2026-05-02T08:59:01.999Z</time></trkpt><trkpt lat="42.26125209890655" lon="13.762020549363593"><ele>512.5</ele><time>2026-05-02T08:59:02.999Z</time></trkpt><trkpt lat="42.261206094435906" lon="13.761885675165983"><ele>512.25</ele><time>2026-05-02T08:59:03.999Z</time></trkpt><trkpt lat="42.26115262588957" lon="13.761739993961688"><ele>512.0</ele><time>2026-05-02T08:59:04.999Z</time></trkpt><trkpt lat="42.261095236961566" lon="13.761581569882537"><ele>512.0</ele><time>2026-05-02T08:59:05.999Z</time></trkpt><trkpt lat="42.2610291545908" lon="13.761430475191219"><ele>512.0</ele><time>2026-05-02T08:59:06.999Z</time></trkpt><trkpt lat="42.26097240030663" lon="13.761287757542764"><ele>512.0</ele><time>2026-05-02T08:59:07.999Z</time></trkpt><trkpt lat="42.260908733801784" lon="13.761142945766522"><ele>512.0</ele><time>2026-05-02T08:59:08.999Z</time></trkpt><trkpt lat="42.26084135975382" lon="13.760997475550505"><ele>510.40000000000003</ele><time>2026-05-02T08:59:09.999Z</time></trkpt><trkpt lat="42.260781408571575" lon="13.760862711833052"><ele>508.80000000000007</ele><time>2026-05-02T08:59:10.999Z</time></trkpt><trkpt lat="42.26073572391468" lon="13.760733250318989"><ele>507.2</ele><time>2026-05-02T08:59:11.999Z</time></trkpt><trkpt lat="42.260700661894305" lon="13.760599604547087"><ele>505.6</ele><time>2026-05-02T08:59:12.999Z</time></trkpt><trkpt lat="42.260681387120314" lon="13.76047218561856"><ele>504.0</ele><time>2026-05-02T08:59:13.999Z</time></trkpt><trkpt lat="42.2606786890395" lon="13.760334655525378"><ele>503.4</ele><time>2026-05-02T08:59:14.999Z</time></trkpt><trkpt lat="42.26068972343041" lon="13.76018249288295"><ele>502.79999999999995</ele><time>2026-05-02T08:59:15.999Z</time></trkpt><trkpt lat="42.26070360979546" lon="13.760039884562836"><ele>502.20000000000005</ele><time>2026-05-02T08:59:16.999Z</time></trkpt><trkpt lat="42.260710571630945" lon="13.759935513139089"><ele>501.6</ele><time>2026-05-02T08:59:17.999Z</time></trkpt><trkpt lat="42.260743351225855" lon="13.759828399511912"><ele>501.0</ele><time>2026-05-02T08:59:19.999Z</time></trkpt><trkpt lat="42.26082860241553" lon="13.759752438027606"><ele>501.0</ele><time>2026-05-02T08:59:21.999Z</time></trkpt><trkpt lat="42.260904611756004" lon="13.759711786211149"><ele>501.0</ele><time>2026-05-02T08:59:22.999Z</time></trkpt><trkpt lat="42.26098731279741" lon="13.759679402451376"><ele>501.0</ele><time>2026-05-02T08:59:23.999Z</time></trkpt><trkpt lat="42.26107410087848" lon="13.759652980831707"><ele>501.0</ele><time>2026-05-02T08:59:24.999Z</time></trkpt><trkpt lat="42.26116056976339" lon="13.75962884963876"><ele>501.0</ele><time>2026-05-02T08:59:25.999Z</time></trkpt><trkpt lat="42.2612435073757" lon="13.759598498921603"><ele>501.0</ele><time>2026-05-02T08:59:26.999Z</time></trkpt><trkpt lat="42.261323953606784" lon="13.759556730892946"><ele>501.0</ele><time>2026-05-02T08:59:27.999Z</time></trkpt><trkpt lat="42.26140782810803" lon="13.759519842112091"><ele>501.0</ele><time>2026-05-02T08:59:28.999Z</time></trkpt><trkpt lat="42.26149271987725" lon="13.759503643177041"><ele>501.0</ele><time>2026-05-02T08:59:29.999Z</time></trkpt><trkpt lat="42.26157220572874" lon="13.759501611455859"><ele>501.0</ele><time>2026-05-02T08:59:30.999Z</time></trkpt><trkpt lat="42.261650132844146" lon="13.75950359830192"><ele>501.0</ele><time>2026-05-02T08:59:31.999Z</time></trkpt><trkpt lat="42.26172988067347" lon="13.759488713665814"><ele>501.0</ele><time>2026-05-02T08:59:32.999Z</time></trkpt><trkpt lat="42.26180271777562" lon="13.75947005748076"><ele>499.6666666666667</ele><time>2026-05-02T08:59:33.999Z</time></trkpt><trkpt lat="42.26187768560353" lon="13.759465842516088"><ele>498.33333333333337</ele><time>2026-05-02T08:59:34.999Z</time></trkpt><trkpt lat="42.26194822623597" lon="13.759468957974553"><ele>497.0</ele><time>2026-05-02T08:59:35.999Z</time></trkpt><trkpt lat="42.2620234451466" lon="13.759442829089672"><ele>495.6666666666667</ele><time>2026-05-02T08:59:36.999Z</time></trkpt><trkpt lat="42.2621060051846" lon="13.75938096645779"><ele>494.33333333333337</ele><time>2026-05-02T08:59:37.999Z</time></trkpt><trkpt lat="42.262194114292576" lon="13.759317511453368"><ele>493.0</ele><time>2026-05-02T08:59:38.999Z</time></trkpt><trkpt lat="42.262286265529646" lon="13.759263314192056"><ele>490.79999999999995</ele><time>2026-05-02T08:59:39.999Z</time></trkpt><trkpt lat="42.26237378335982" lon="13.759204008777443"><ele>488.59999999999997</ele><time>2026-05-02T08:59:40.999Z</time></trkpt><trkpt lat="42.26245752539919" lon="13.759151045989645"><ele>486.40000000000003</ele><time>2026-05-02T08:59:41.999Z</time></trkpt><trkpt lat="42.26253648882959" lon="13.759094058068916"><ele>484.20000000000005</ele><time>2026-05-02T08:59:42.999Z</time></trkpt><trkpt lat="42.26261498119671" lon="13.7590342992413"><ele>482.0</ele><time>2026-05-02T08:59:43.999Z</time></trkpt><trkpt lat="42.2626881624425" lon="13.758974488871122"><ele>482.0</ele><time>2026-05-02T08:59:44.999Z</time></trkpt><trkpt lat="42.26275866119833" lon="13.758915810049068"><ele>482.00000000000006</ele><time>2026-05-02T08:59:45.999Z</time></trkpt><trkpt lat="42.26282771121912" lon="13.758846155427213"><ele>482.00000000000006</ele><time>2026-05-02T08:59:46.999Z</time></trkpt><trkpt lat="42.26290934776747" lon="13.75879482137656"><ele>482.0</ele><time>2026-05-02T08:59:47.999Z</time></trkpt><trkpt lat="42.26300190110768" lon="13.758752518571484"><ele>482.0</ele><time>2026-05-02T08:59:48.999Z</time></trkpt><trkpt lat="42.263090641917096" lon="13.75870593466888"><ele>481.99999999999994</ele><time>2026-05-02T08:59:49.999Z</time></trkpt><trkpt lat="42.26316446877511" lon="13.758684883890863"><ele>482.0</ele><time>2026-05-02T08:59:50.999Z</time></trkpt><trkpt lat="42.26324871003086" lon="13.758688992555609"><ele>482.0</ele><time>2026-05-02T08:59:52.999Z</time></trkpt><trkpt lat="42.263167468970316" lon="13.758689686373472"><ele>482.0</ele><time>2026-05-02T09:00:08Z</time></trkpt><trkpt lat="42.26309688906048" lon="13.758704272211709"><ele>481.99999999999994</ele><time>2026-05-02T09:00:09Z</time></trkpt><trkpt lat="42.26301848566995" lon="13.75871937285209"><ele>482.0</ele><time>2026-05-02T09:00:10Z</time></trkpt><trkpt lat="42.26292543220812" lon="13.758772190495323"><ele>481.99999999999994</ele><time>2026-05-02T09:00:11Z</time></trkpt><trkpt lat="42.262841271473505" lon="13.758827021804317"><ele>482.0</ele><time>2026-05-02T09:00:12Z</time></trkpt><trkpt lat="42.262779400818424" lon="13.758872413008149"><ele>482.0</ele><time>2026-05-02T09:00:13Z</time></trkpt><trkpt lat="42.262698375345245" lon="13.758966174133432"><ele>482.0</ele><time>2026-05-02T09:00:15Z</time></trkpt><trkpt lat="42.26263186228862" lon="13.759031612405439"><ele>481.99999999999994</ele><time>2026-05-02T09:00:17Z</time></trkpt><trkpt lat="42.26260747520415" lon="13.758949713011324"><ele>482.0</ele><time>2026-05-02T09:00:47.999Z</time></trkpt><trkpt lat="42.2625586039895" lon="13.758821269082796"><ele>482.0</ele><time>2026-05-02T09:00:49.999Z</time></trkpt><trkpt lat="42.26251165990676" lon="13.758698310039003"><ele>482.00000000000006</ele><time>2026-05-02T09:00:51.999Z</time></trkpt><trkpt lat="42.26244812422721" lon="13.758524676559505"><ele>482.00000000000006</ele><time>2026-05-02T09:00:53.999Z</time></trkpt><trkpt lat="42.26242122432449" lon="13.758409425145278"><ele>482.0</ele><time>2026-05-02T09:00:54.999Z</time></trkpt><trkpt lat="42.26239736036732" lon="13.758298678223515"><ele>482.0</ele><time>2026-05-02T09:00:55.999Z</time></trkpt><trkpt lat="42.26236694127122" lon="13.758191242960693"><ele>482.16666666666663</ele><time>2026-05-02T09:00:56.999Z</time></trkpt><trkpt lat="42.26233242146114" lon="13.758089135284981"><ele>482.3333333333333</ele><time>2026-05-02T09:00:57.999Z</time></trkpt><trkpt lat="42.262297563330634" lon="13.757987271995859"><ele>482.5</ele><time>2026-05-02T09:00:58.999Z</time></trkpt><trkpt lat="42.26227132368564" lon="13.757902109600586"><ele>482.66666666666663</ele><time>2026-05-02T09:00:59.999Z</time></trkpt><trkpt lat="42.2622381294262" lon="13.757814201414588"><ele>482.8333333333333</ele><time>2026-05-02T09:01:00.999Z</time></trkpt><trkpt lat="42.26220011733164" lon="13.757715316795423"><ele>483.0</ele><time>2026-05-02T09:01:01.999Z</time></trkpt><trkpt lat="42.26215473291041" lon="13.757614205295738"><ele>484.0</ele><time>2026-05-02T09:01:02.999Z</time></trkpt><trkpt lat="42.262128814404946" lon="13.75752035276606"><ele>485.0</ele><time>2026-05-02T09:01:03.999Z</time></trkpt><trkpt lat="42.26212350784126" lon="13.757358914269782"><ele>486.0</ele><time>2026-05-02T09:01:05.999Z</time></trkpt><trkpt lat="42.26215559467038" lon="13.757272449725745"><ele>487.0</ele><time>2026-05-02T09:01:06.999Z</time></trkpt><trkpt lat="42.26220307289167" lon="13.757181692181177"><ele>488.0</ele><time>2026-05-02T09:01:07.999Z</time></trkpt><trkpt lat="42.262246435191194" lon="13.757095130684151"><ele>489.0</ele><time>2026-05-02T09:01:08.999Z</time></trkpt><trkpt lat="42.26230060395536" lon="13.757003137739028"><ele>489.0</ele><time>2026-05-02T09:01:09.999Z</time></trkpt><trkpt lat="42.26235040099443" lon="13.756935474923157"><ele>489.0</ele><time>2026-05-02T09:01:10.999Z</time></trkpt><trkpt lat="42.262394147700206" lon="13.756854380417428"><ele>489.0</ele><time>2026-05-02T09:01:11.999Z</time></trkpt><trkpt lat="42.26242423892785" lon="13.756768055077506"><ele>489.0</ele><time>2026-05-02T09:01:12.999Z</time></trkpt><trkpt lat="42.26244360233623" lon="13.756661189135961"><ele>489.0</ele><time>2026-05-02T09:01:13.999Z</time></trkpt><trkpt lat="42.26244818262665" lon="13.756550347511775"><ele>489.0</ele><time>2026-05-02T09:01:14.999Z</time></trkpt><trkpt lat="42.26245817482381" lon="13.756440025657914"><ele>491.3333333333333</ele><time>2026-05-02T09:01:15.999Z</time></trkpt><trkpt lat="42.262465405131266" lon="13.756328621749502"><ele>493.66666666666663</ele><time>2026-05-02T09:01:16.999Z</time></trkpt><trkpt lat="42.26248095112234" lon="13.756214014580685"><ele>496.0</ele><time>2026-05-02T09:01:17.999Z</time></trkpt><trkpt lat="42.26251935533471" lon="13.756087386433885"><ele>498.3333333333333</ele><time>2026-05-02T09:01:18.999Z</time></trkpt><trkpt lat="42.26254189071132" lon="13.755958092040462"><ele>500.66666666666663</ele><time>2026-05-02T09:01:19.999Z</time></trkpt><trkpt lat="42.262549458762386" lon="13.755857402921656"><ele>503.0</ele><time>2026-05-02T09:01:20.999Z</time></trkpt><trkpt lat="42.262561852598374" lon="13.755767481013388"><ele>505.16666666666663</ele><time>2026-05-02T09:01:21.999Z</time></trkpt><trkpt lat="42.26256532056699" lon="13.755668659055983"><ele>507.3333333333333</ele><time>2026-05-02T09:01:22.999Z</time></trkpt><trkpt lat="42.2625751172695" lon="13.755553391632265"><ele>509.5</ele><time>2026-05-02T09:01:23.999Z</time></trkpt><trkpt lat="42.26260551091796" lon="13.755448656683503"><ele>511.66666666666663</ele><time>2026-05-02T09:01:24.999Z</time></trkpt><trkpt lat="42.262653088282605" lon="13.755335547510162"><ele>513.8333333333334</ele><time>2026-05-02T09:01:25.999Z</time></trkpt><trkpt lat="42.262680669269706" lon="13.755243235783121"><ele>516.0</ele><time>2026-05-02T09:01:26.999Z</time></trkpt><trkpt lat="42.262689018378964" lon="13.755151493333793"><ele>518.8333333333334</ele><time>2026-05-02T09:01:27.999Z</time></trkpt><trkpt lat="42.26271159648286" lon="13.755061352858524"><ele>521.6666666666666</ele><time>2026-05-02T09:01:28.999Z</time></trkpt><trkpt lat="42.262741747156035" lon="13.754973620165128"><ele>524.5</ele><time>2026-05-02T09:01:29.999Z</time></trkpt><trkpt lat="42.26276053857483" lon="13.754834548399867"><ele>527.3333333333333</ele><time>2026-05-02T09:01:31.999Z</time></trkpt><trkpt lat="42.26277888870383" lon="13.754753135505746"><ele>530.1666666666666</ele><time>2026-05-02T09:01:32.999Z</time></trkpt><trkpt lat="42.26281762434393" lon="13.754674968932575"><ele>533.0</ele><time>2026-05-02T09:01:33.999Z</time></trkpt><trkpt lat="42.26285680955418" lon="13.754578369614393"><ele>533.0</ele><time>2026-05-02T09:01:34.999Z</time></trkpt><trkpt lat="42.26288605387673" lon="13.754470624165673"><ele>533.0</ele><time>2026-05-02T09:01:35.999Z</time></trkpt><trkpt lat="42.26291974500521" lon="13.754385175856312"><ele>533.0</ele><time>2026-05-02T09:01:36.999Z</time></trkpt><trkpt lat="42.26296068566497" lon="13.754279599855634"><ele>533.0</ele><time>2026-05-02T09:01:37.999Z</time></trkpt><trkpt lat="42.26301567157726" lon="13.754189251235928"><ele>533.0</ele><time>2026-05-02T09:01:38.999Z</time></trkpt><trkpt lat="42.26305352905107" lon="13.754110843575374"><ele>533.0</ele><time>2026-05-02T09:01:39.999Z</time></trkpt><trkpt lat="42.2630660777949" lon="13.754012861759698"><ele>533.8</ele><time>2026-05-02T09:01:40.999Z</time></trkpt><trkpt lat="42.263082294468624" lon="13.753919413313666"><ele>534.5999999999999</ele><time>2026-05-02T09:01:41.999Z</time></trkpt><trkpt lat="42.2631584195447" lon="13.753776885584632"><ele>535.4000000000001</ele><time>2026-05-02T09:01:43.999Z</time></trkpt><trkpt lat="42.263222563878166" lon="13.75371119836331"><ele>536.2</ele><time>2026-05-02T09:01:44.999Z</time></trkpt><trkpt lat="42.26328225465023" lon="13.7536376784784"><ele>537.0</ele><time>2026-05-02T09:01:45.999Z</time></trkpt><trkpt lat="42.263356749598245" lon="13.753523879164764"><ele>540.5</ele><time>2026-05-02T09:01:47.999Z</time></trkpt><trkpt lat="42.26340746401663" lon="13.75346154494622"><ele>544.0</ele><time>2026-05-02T09:01:48.999Z</time></trkpt><trkpt lat="42.26345360590864" lon="13.753398661952616"><ele>547.5</ele><time>2026-05-02T09:01:49.999Z</time></trkpt><trkpt lat="42.263484323819476" lon="13.753323249792956"><ele>551.0</ele><time>2026-05-02T09:01:50.999Z</time></trkpt><trkpt lat="42.26350885360004" lon="13.753237105900045"><ele>554.5</ele><time>2026-05-02T09:01:51.999Z</time></trkpt><trkpt lat="42.2635556125115" lon="13.753128401169846"><ele>558.0</ele><time>2026-05-02T09:01:53.999Z</time></trkpt><trkpt lat="42.26365841455035" lon="13.753054979728901"><ele>557.9999999999999</ele><time>2026-05-02T09:01:55.999Z</time></trkpt><trkpt lat="42.2637161043307" lon="13.753005615918301"><ele>558.0</ele><time>2026-05-02T09:01:56.999Z</time></trkpt><trkpt lat="42.263774187813596" lon="13.75295222132691"><ele>558.0</ele><time>2026-05-02T09:01:57.999Z</time></trkpt><trkpt lat="42.26382691041754" lon="13.75290511308298"><ele>558.0</ele><time>2026-05-02T09:01:58.998Z</time></trkpt><trkpt lat="42.26387955219107" lon="13.75285678778158"><ele>558.0</ele><time>2026-05-02T09:01:59.998Z</time></trkpt><trkpt lat="42.26393736080829" lon="13.752806160914012"><ele>557.9999999999999</ele><time>2026-05-02T09:02:01Z</time></trkpt><trkpt lat="42.263992722908526" lon="13.752748262756207"><ele>558.0</ele><time>2026-05-02T09:02:02Z</time></trkpt><trkpt lat="42.26403948711581" lon="13.75267985784032"><ele>558.6666666666666</ele><time>2026-05-02T09:02:03Z</time></trkpt><trkpt lat="42.26407838143586" lon="13.752609574035773"><ele>559.3333333333334</ele><time>2026-05-02T09:02:04Z</time></trkpt><trkpt lat="42.26414450154098" lon="13.752508263673194"><ele>560.0</ele><time>2026-05-02T09:02:06Z</time></trkpt><trkpt lat="42.26421181018204" lon="13.752415043426042"><ele>560.6666666666667</ele><time>2026-05-02T09:02:08Z</time></trkpt><trkpt lat="42.264262246308" lon="13.752353409489904"><ele>561.3333333333334</ele><time>2026-05-02T09:02:09Z</time></trkpt><trkpt lat="42.264315348433364" lon="13.752287318519528"><ele>562.0</ele><time>2026-05-02T09:02:10Z</time></trkpt><trkpt lat="42.26437143506849" lon="13.752222092339654"><ele>562.0</ele><time>2026-05-02T09:02:11Z</time></trkpt><trkpt lat="42.264426000452076" lon="13.752162155040546"><ele>562.0</ele><time>2026-05-02T09:02:12Z</time></trkpt><trkpt lat="42.26452031827835" lon="13.752042309155701"><ele>562.0</ele><time>2026-05-02T09:02:14Z</time></trkpt><trkpt lat="42.26457388348199" lon="13.751974005869789"><ele>562.0</ele><time>2026-05-02T09:02:15Z</time></trkpt><trkpt lat="42.26462842577305" lon="13.751902532970869"><ele>562.0</ele><time>2026-05-02T09:02:16Z</time></trkpt><trkpt lat="42.264715420390715" lon="13.75178771225488"><ele>561.6666666666667</ele><time>2026-05-02T09:02:18Z</time></trkpt><trkpt lat="42.26480608444447" lon="13.751675575894545"><ele>561.3333333333334</ele><time>2026-05-02T09:02:20Z</time></trkpt><trkpt lat="42.264864749120626" lon="13.751613756149958"><ele>561.0</ele><time>2026-05-02T09:02:21Z</time></trkpt><trkpt lat="42.26493268241156" lon="13.751550673518844"><ele>560.6666666666666</ele><time>2026-05-02T09:02:22Z</time></trkpt><trkpt lat="42.26500261999515" lon="13.751501442017632"><ele>560.3333333333333</ele><time>2026-05-02T09:02:23Z</time></trkpt><trkpt lat="42.26507286920389" lon="13.751456465355462"><ele>560.0</ele><time>2026-05-02T09:02:24Z</time></trkpt><trkpt lat="42.26514408756988" lon="13.751411495932311"><ele>560.0</ele><time>2026-05-02T09:02:25Z</time></trkpt><trkpt lat="42.2652077027702" lon="13.7513632975971"><ele>560.0</ele><time>2026-05-02T09:02:26Z</time></trkpt><trkpt lat="42.26527315753665" lon="13.751286483161644"><ele>560.0</ele><time>2026-05-02T09:02:27Z</time></trkpt><trkpt lat="42.265339961011634" lon="13.751204990586148"><ele>560.0</ele><time>2026-05-02T09:02:28Z</time></trkpt><trkpt lat="42.265398723655224" lon="13.751130875548103"><ele>560.0</ele><time>2026-05-02T09:02:29Z</time></trkpt><trkpt lat="42.265447695514176" lon="13.751071354988264"><ele>560.0</ele><time>2026-05-02T09:02:30Z</time></trkpt><trkpt lat="42.26553418367345" lon="13.750955990283906"><ele>559.5</ele><time>2026-05-02T09:02:32Z</time></trkpt><trkpt lat="42.265599606106186" lon="13.750813885043724"><ele>559.0</ele><time>2026-05-02T09:02:34Z</time></trkpt><trkpt lat="42.26567913027596" lon="13.750695148646383"><ele>558.5</ele><time>2026-05-02T09:02:36Z</time></trkpt><trkpt lat="42.265743954629045" lon="13.750647911123629"><ele>558.0</ele><time>2026-05-02T09:02:37Z</time></trkpt><trkpt lat="42.26585971620716" lon="13.750494691947994"><ele>557.9999999999999</ele><time>2026-05-02T09:02:39Z</time></trkpt><trkpt lat="42.265908855157264" lon="13.750428462334847"><ele>558.0</ele><time>2026-05-02T09:02:40Z</time></trkpt><trkpt lat="42.26596502271895" lon="13.750380737209737"><ele>558.0</ele><time>2026-05-02T09:02:41Z</time></trkpt><trkpt lat="42.266032544290866" lon="13.750334549788686"><ele>558.0</ele><time>2026-05-02T09:02:42Z</time></trkpt><trkpt lat="42.26610460482922" lon="13.750295152804542"><ele>558.0</ele><time>2026-05-02T09:02:43Z</time></trkpt><trkpt lat="42.26616648207384" lon="13.750255896553277"><ele>557.9999999999999</ele><time>2026-05-02T09:02:44Z</time></trkpt><trkpt lat="42.26622968307081" lon="13.750225220902934"><ele>558.0</ele><time>2026-05-02T09:02:44.999Z</time></trkpt><trkpt lat="42.26633017564609" lon="13.750117494549523"><ele>556.6</ele><time>2026-05-02T09:02:46.999Z</time></trkpt><trkpt lat="42.26641687161475" lon="13.750049808970603"><ele>555.1999999999999</ele><time>2026-05-02T09:02:48.999Z</time></trkpt><trkpt lat="42.266535666833576" lon="13.750021817824614"><ele>553.8</ele><time>2026-05-02T09:02:50.999Z</time></trkpt><trkpt lat="42.26659929454474" lon="13.75002059477965"><ele>552.4</ele><time>2026-05-02T09:02:51.999Z</time></trkpt><trkpt lat="42.26671781814951" lon="13.750002884130728"><ele>551.0</ele><time>2026-05-02T09:02:53.999Z</time></trkpt><trkpt lat="42.266848404405664" lon="13.749965138697721"><ele>550.6</ele><time>2026-05-02T09:02:55.999Z</time></trkpt><trkpt lat="42.26693360362431" lon="13.749893180461621"><ele>550.2</ele><time>2026-05-02T09:02:57.999Z</time></trkpt><trkpt lat="42.26702572690515" lon="13.749813000242819"><ele>549.8</ele><time>2026-05-02T09:02:59.999Z</time></trkpt><trkpt lat="42.26712607218612" lon="13.749724589074981"><ele>549.4</ele><time>2026-05-02T09:03:01.999Z</time></trkpt><trkpt lat="42.267184476001425" lon="13.749676792966136"><ele>549.0</ele><time>2026-05-02T09:03:02.999Z</time></trkpt><trkpt lat="42.267240794717274" lon="13.749630581519185"><ele>548.1428571428571</ele><time>2026-05-02T09:03:03.999Z</time></trkpt><trkpt lat="42.26730319937081" lon="13.749581428754793"><ele>547.2857142857143</ele><time>2026-05-02T09:03:04.999Z</time></trkpt><trkpt lat="42.267354070176054" lon="13.749524774510881"><ele>546.4285714285714</ele><time>2026-05-02T09:03:05.999Z</time></trkpt><trkpt lat="42.267399751649315" lon="13.749464113725121"><ele>545.5714285714286</ele><time>2026-05-02T09:03:06.999Z</time></trkpt><trkpt lat="42.267444608794285" lon="13.7493843086728"><ele>544.7142857142857</ele><time>2026-05-02T09:03:07.999Z</time></trkpt><trkpt lat="42.267491378455354" lon="13.749311806613825"><ele>543.8571428571429</ele><time>2026-05-02T09:03:08.999Z</time></trkpt><trkpt lat="42.26754300804766" lon="13.749246005882528"><ele>543.0</ele><time>2026-05-02T09:03:09.999Z</time></trkpt><trkpt lat="42.26760092793746" lon="13.749190337747894"><ele>541.5</ele><time>2026-05-02T09:03:10.999Z</time></trkpt><trkpt lat="42.26765546160901" lon="13.749144951287645"><ele>540.0</ele><time>2026-05-02T09:03:11.999Z</time></trkpt><trkpt lat="42.26772787426111" lon="13.749100822721614"><ele>538.5</ele><time>2026-05-02T09:03:12.999Z</time></trkpt><trkpt lat="42.2678051914371" lon="13.749047882699491"><ele>537.0</ele><time>2026-05-02T09:03:13.999Z</time></trkpt><trkpt lat="42.26787958944922" lon="13.748981627780205"><ele>535.5</ele><time>2026-05-02T09:03:14.999Z</time></trkpt><trkpt lat="42.26793495399837" lon="13.74891533082379"><ele>534.0</ele><time>2026-05-02T09:03:15.999Z</time></trkpt><trkpt lat="42.267978020631595" lon="13.748848280363147"><ele>534.0</ele><time>2026-05-02T09:03:16.999Z</time></trkpt><trkpt lat="42.26804439746408" lon="13.748740663488539"><ele>534.0</ele><time>2026-05-02T09:03:18.999Z</time></trkpt><trkpt lat="42.268099256218576" lon="13.748645539307235"><ele>534.0</ele><time>2026-05-02T09:03:20.999Z</time></trkpt><trkpt lat="42.2681436219769" lon="13.748551904432299"><ele>534.0</ele><time>2026-05-02T09:03:22.999Z</time></trkpt><trkpt lat="42.26818870150127" lon="13.748455287180793"><ele>534.0</ele><time>2026-05-02T09:03:24.999Z</time></trkpt><trkpt lat="42.26822482421957" lon="13.748351803987703"><ele>534.0</ele><time>2026-05-02T09:03:26.999Z</time></trkpt><trkpt lat="42.26825381322683" lon="13.748258379882637"><ele>532.6666666666666</ele><time>2026-05-02T09:03:28.999Z</time></trkpt><trkpt lat="42.26826129117709" lon="13.74816870576292"><ele>531.3333333333334</ele><time>2026-05-02T09:03:30.999Z</time></trkpt><trkpt lat="42.268273559746845" lon="13.748066974415819"><ele>530.0</ele><time>2026-05-02T09:03:33.999Z</time></trkpt><trkpt lat="42.26831312348506" lon="13.747954661108478"><ele>528.6666666666667</ele><time>2026-05-02T09:03:48.999Z</time></trkpt><trkpt lat="42.268365122837864" lon="13.74787259894544"><ele>527.3333333333334</ele><time>2026-05-02T09:03:51.999Z</time></trkpt><trkpt lat="42.26841957250349" lon="13.74780435100232"><ele>526.0</ele><time>2026-05-02T09:03:54.999Z</time></trkpt><trkpt lat="42.2684790469108" lon="13.747743185104918"><ele>523.8333333333334</ele><time>2026-05-02T09:03:57.999Z</time></trkpt><trkpt lat="42.26853805481335" lon="13.747671506033955"><ele>521.6666666666667</ele><time>2026-05-02T09:04:00.999Z</time></trkpt><trkpt lat="42.268588831384186" lon="13.747591314952746"><ele>519.5</ele><time>2026-05-02T09:04:03.998Z</time></trkpt><trkpt lat="42.26865718432565" lon="13.747494615338693"><ele>517.3333333333334</ele><time>2026-05-02T09:04:07Z</time></trkpt><trkpt lat="42.26870560330823" lon="13.747433856134984"><ele>515.1666666666666</ele><time>2026-05-02T09:04:09Z</time></trkpt><trkpt lat="42.26875768410259" lon="13.747335766889142"><ele>513.0</ele><time>2026-05-02T09:04:12Z</time></trkpt><trkpt lat="42.268799653129534" lon="13.747249423838234"><ele>513.0000000000001</ele><time>2026-05-02T09:04:14Z</time></trkpt><trkpt lat="42.26884877523562" lon="13.747185439434492"><ele>513.0</ele><time>2026-05-02T09:04:16Z</time></trkpt><trkpt lat="42.268910283359226" lon="13.74712286583352"><ele>513.0</ele><time>2026-05-02T09:04:18Z</time></trkpt><trkpt lat="42.268963758190814" lon="13.747047776960013"><ele>513.0</ele><time>2026-05-02T09:04:20Z</time></trkpt><trkpt lat="42.269013216998324" lon="13.746975998150724"><ele>513.0</ele><time>2026-05-02T09:04:22Z</time></trkpt><trkpt lat="42.26906449902265" lon="13.746898581133365"><ele>513.0000000000001</ele><time>2026-05-02T09:04:25Z</time></trkpt><trkpt lat="42.26912273764993" lon="13.746840467941901"><ele>513.0</ele><time>2026-05-02T09:04:28Z</time></trkpt><trkpt lat="42.26917535217564" lon="13.74678144291774"><ele>509.57142857142867</ele><time>2026-05-02T09:04:31Z</time></trkpt><trkpt lat="42.26923764308923" lon="13.746738234293426"><ele>506.14285714285717</ele><time>2026-05-02T09:04:34Z</time></trkpt><trkpt lat="42.269308239695775" lon="13.746673397373431"><ele>502.7142857142858</ele><time>2026-05-02T09:04:38Z</time></trkpt><trkpt lat="42.26936360968161" lon="13.746615436966328"><ele>499.28571428571433</ele><time>2026-05-02T09:04:41Z</time></trkpt><trkpt lat="42.26941686116528" lon="13.746552760267015"><ele>495.8571428571429</ele><time>2026-05-02T09:04:44Z</time></trkpt><trkpt lat="42.26948065205595" lon="13.74651086771899"><ele>492.42857142857144</ele><time>2026-05-02T09:04:50.999Z</time></trkpt><trkpt lat="42.2695355586741" lon="13.74645417939987"><ele>489.0</ele><time>2026-05-02T09:04:54.999Z</time></trkpt><trkpt lat="42.26959438816312" lon="13.74639760855225"><ele>489.0</ele><time>2026-05-02T09:04:58.999Z</time></trkpt><trkpt lat="42.2696546737543" lon="13.746364511153416"><ele>489.00000000000006</ele><time>2026-05-02T09:05:04.999Z</time></trkpt><trkpt lat="42.26971899835961" lon="13.746343434172228"><ele>489.0</ele><time>2026-05-02T09:05:42.999Z</time></trkpt><trkpt lat="42.26978744816103" lon="13.746340948107878"><ele>489.0</ele><time>2026-05-02T09:05:47.999Z</time></trkpt><trkpt lat="42.26986357642839" lon="13.746322174229425"><ele>489.00000000000006</ele><time>2026-05-02T09:05:51.999Z</time></trkpt><trkpt lat="42.2699245608118" lon="13.746287274841542"><ele>489.0</ele><time>2026-05-02T09:05:54.999Z</time></trkpt><trkpt lat="42.269994064298196" lon="13.746266066921963"><ele>489.0</ele><time>2026-05-02T09:07:28.999Z</time></trkpt><trkpt lat="42.270046553601645" lon="13.74621588255296"><ele>486.42857142857144</ele><time>2026-05-02T09:07:44.999Z</time></trkpt><trkpt lat="42.270105163733355" lon="13.74618035515144"><ele>483.8571428571429</ele><time>2026-05-02T09:07:49.999Z</time></trkpt><trkpt lat="42.27015259597499" lon="13.746101648203608"><ele>481.28571428571433</ele><time>2026-05-02T09:08:12.998Z</time></trkpt><trkpt lat="42.270213435844866" lon="13.746075263246505"><ele>478.7142857142858</ele><time>2026-05-02T09:08:43Z</time></trkpt><trkpt lat="42.270291266042086" lon="13.746100603112216"><ele>476.14285714285717</ele><time>2026-05-02T09:08:51Z</time></trkpt><trkpt lat="42.27035022695585" lon="13.74613932765743"><ele>473.57142857142867</ele><time>2026-05-02T09:09:20.999Z</time></trkpt><trkpt lat="42.27041467527083" lon="13.746175570926827"><ele>471.00000000000006</ele><time>2026-05-02T09:09:24.999Z</time></trkpt><trkpt lat="42.270477200818696" lon="13.746210496207457"><ele>471.0</ele><time>2026-05-02T09:09:32.999Z</time></trkpt><trkpt lat="42.270544050535385" lon="13.746253415857698"><ele>471.0</ele><time>2026-05-02T09:09:36.999Z</time></trkpt><trkpt lat="42.27062206809281" lon="13.746296476827945"><ele>471.0</ele><time>2026-05-02T09:09:39.999Z</time></trkpt><trkpt lat="42.270703707134246" lon="13.74635780663548"><ele>471.0</ele><time>2026-05-02T09:09:42.999Z</time></trkpt><trkpt lat="42.27077086386657" lon="13.746408134594088"><ele>471.0</ele><time>2026-05-02T09:09:44.999Z</time></trkpt><trkpt lat="42.27082651438191" lon="13.746457089967185"><ele>471.0</ele><time>2026-05-02T09:09:46.999Z</time></trkpt><trkpt lat="42.27088607215381" lon="13.746525013024655"><ele>467.1428571428572</ele><time>2026-05-02T09:09:48.999Z</time></trkpt><trkpt lat="42.270954418304804" lon="13.746543535098898"><ele>463.28571428571433</ele><time>2026-05-02T09:09:50.999Z</time></trkpt><trkpt lat="42.27101929078646" lon="13.746477573088276"><ele>459.42857142857144</ele><time>2026-05-02T09:09:52.999Z</time></trkpt><trkpt lat="42.27107576741008" lon="13.746420495122129"><ele>455.5714285714286</ele><time>2026-05-02T09:09:54.999Z</time></trkpt><trkpt lat="42.27114587063787" lon="13.746376139393737"><ele>451.7142857142858</ele><time>2026-05-02T09:09:56.999Z</time></trkpt><trkpt lat="42.27120652551992" lon="13.746312268641889"><ele>447.85714285714283</ele><time>2026-05-02T09:09:58.999Z</time></trkpt><trkpt lat="42.27126353074868" lon="13.746262119139312"><ele>444.0</ele><time>2026-05-02T09:10:00.999Z</time></trkpt><trkpt lat="42.27134441964004" lon="13.746203828440516"><ele>444.0</ele><time>2026-05-02T09:10:03.999Z</time></trkpt><trkpt lat="42.271384450084895" lon="13.746104093912507"><ele>444.0</ele><time>2026-05-02T09:10:06.999Z</time></trkpt><trkpt lat="42.27138552127115" lon="13.746014797441255"><ele>444.0</ele><time>2026-05-02T09:10:08.999Z</time></trkpt><trkpt lat="42.27142312412257" lon="13.745923566880409"><ele>444.0</ele><time>2026-05-02T09:10:10.999Z</time></trkpt><trkpt lat="42.27145453553619" lon="13.745806623781435"><ele>444.0</ele><time>2026-05-02T09:10:13.998Z</time></trkpt><trkpt lat="42.27144973295112" lon="13.7457161093128"><ele>444.0</ele><time>2026-05-02T09:10:15.998Z</time></trkpt><trkpt lat="42.27143547548827" lon="13.74560514698516"><ele>442.79999999999995</ele><time>2026-05-02T09:10:18.998Z</time></trkpt><trkpt lat="42.271411727923144" lon="13.745493131578085"><ele>441.59999999999997</ele><time>2026-05-02T09:10:20.998Z</time></trkpt><trkpt lat="42.271373077550315" lon="13.745378503436234"><ele>440.4</ele><time>2026-05-02T09:10:22.998Z</time></trkpt><trkpt lat="42.271314742643156" lon="13.74525343963484"><ele>439.2</ele><time>2026-05-02T09:10:25Z</time></trkpt><trkpt lat="42.27124190998282" lon="13.745115518910557"><ele>438.0</ele><time>2026-05-02T09:10:27Z</time></trkpt><trkpt lat="42.27117612579025" lon="13.744981193426945"><ele>434.5</ele><time>2026-05-02T09:10:29Z</time></trkpt><trkpt lat="42.27111088021268" lon="13.744855649343455"><ele>431.0</ele><time>2026-05-02T09:10:31Z</time></trkpt><trkpt lat="42.271045436484464" lon="13.744715442621946"><ele>427.5</ele><time>2026-05-02T09:10:33Z</time></trkpt><trkpt lat="42.27098076296737" lon="13.744569547916239"><ele>424.0</ele><time>2026-05-02T09:10:35Z</time></trkpt><trkpt lat="42.27092989882855" lon="13.744417069239612"><ele>424.6</ele><time>2026-05-02T09:10:37Z</time></trkpt><trkpt lat="42.27088573482803" lon="13.744280755579902"><ele>425.2</ele><time>2026-05-02T09:10:39Z</time></trkpt><trkpt lat="42.2709071266102" lon="13.74417893526395"><ele>425.80000000000007</ele><time>2026-05-02T09:10:41Z</time></trkpt><trkpt lat="42.2708571702853" lon="13.744086589336472"><ele>426.40000000000003</ele><time>2026-05-02T09:10:54.999Z</time></trkpt><trkpt lat="42.27075144207858" lon="13.743994048414237"><ele>427.0</ele><time>2026-05-02T09:10:56.999Z</time></trkpt><trkpt lat="42.270676650068275" lon="13.743958177934479"><ele>427.1666666666667</ele><time>2026-05-02T09:10:57.999Z</time></trkpt><trkpt lat="42.27058041333146" lon="13.743921811753301"><ele>427.33333333333337</ele><time>2026-05-02T09:10:58.999Z</time></trkpt><trkpt lat="42.27048827404169" lon="13.743886367176685"><ele>427.5</ele><time>2026-05-02T09:10:59.999Z</time></trkpt><trkpt lat="42.27040753611046" lon="13.74385891595224"><ele>427.66666666666663</ele><time>2026-05-02T09:11:00.999Z</time></trkpt><trkpt lat="42.27033878156363" lon="13.74382943702443"><ele>427.8333333333333</ele><time>2026-05-02T09:11:01.999Z</time></trkpt><trkpt lat="42.27026644138781" lon="13.743770223076254"><ele>428.0</ele><time>2026-05-02T09:11:02.999Z</time></trkpt><trkpt lat="42.27017460616958" lon="13.74369217243373"><ele>428.0</ele><time>2026-05-02T09:11:03.999Z</time></trkpt><trkpt lat="42.27008062453398" lon="13.743630945663709"><ele>427.99999999999994</ele><time>2026-05-02T09:11:04.999Z</time></trkpt><trkpt lat="42.2699970513903" lon="13.74356655044931"><ele>427.99999999999994</ele><time>2026-05-02T09:11:05.999Z</time></trkpt><trkpt lat="42.26991509901094" lon="13.743484195372892"><ele>428.0</ele><time>2026-05-02T09:11:06.999Z</time></trkpt><trkpt lat="42.26983468255811" lon="13.743403084148387"><ele>428.0</ele><time>2026-05-02T09:11:07.999Z</time></trkpt><trkpt lat="42.26974545015867" lon="13.74334301490704"><ele>429.4</ele><time>2026-05-02T09:11:08.999Z</time></trkpt><trkpt lat="42.26964565628291" lon="13.743293104872754"><ele>430.79999999999995</ele><time>2026-05-02T09:11:09.999Z</time></trkpt><trkpt lat="42.26954591810285" lon="13.743244067376297"><ele>432.2</ele><time>2026-05-02T09:11:10.999Z</time></trkpt><trkpt lat="42.26945569536676" lon="13.743218901293123"><ele>433.6</ele><time>2026-05-02T09:11:11.999Z</time></trkpt><trkpt lat="42.26936950890676" lon="13.743216102699687"><ele>435.0</ele><time>2026-05-02T09:11:12.999Z</time></trkpt><trkpt lat="42.26928628086423" lon="13.743225081030523"><ele>435.0</ele><time>2026-05-02T09:11:13.999Z</time></trkpt><trkpt lat="42.26921305685894" lon="13.74324924100762"><ele>435.0</ele><time>2026-05-02T09:11:14.999Z</time></trkpt><trkpt lat="42.26914362920097" lon="13.743274952873131"><ele>435.0</ele><time>2026-05-02T09:11:15.999Z</time></trkpt><trkpt lat="42.269042133224445" lon="13.743342564650677"><ele>435.0</ele><time>2026-05-02T09:11:17.999Z</time></trkpt><trkpt lat="42.26899671143191" lon="13.743514527195487"><ele>435.0</ele><time>2026-05-02T09:11:19.999Z</time></trkpt><trkpt lat="42.268965364946915" lon="13.74358944378641"><ele>436.5</ele><time>2026-05-02T09:11:20.999Z</time></trkpt><trkpt lat="42.26890591422268" lon="13.743649859343554"><ele>438.0</ele><time>2026-05-02T09:11:21.999Z</time></trkpt><trkpt lat="42.2688352516115" lon="13.743726677168112"><ele>439.5</ele><time>2026-05-02T09:11:22.999Z</time></trkpt><trkpt lat="42.26876333041024" lon="13.743786103290164"><ele>441.0</ele><time>2026-05-02T09:11:23.999Z</time></trkpt><trkpt lat="42.26869886932714" lon="13.74382458094283"><ele>442.5</ele><time>2026-05-02T09:11:24.999Z</time></trkpt><trkpt lat="42.26862588342589" lon="13.743830372958325"><ele>444.0</ele><time>2026-05-02T09:11:25.999Z</time></trkpt><trkpt lat="42.26854200304805" lon="13.743813140577094"><ele>444.0</ele><time>2026-05-02T09:11:26.999Z</time></trkpt><trkpt lat="42.26845892113396" lon="13.743769880708095"><ele>444.0</ele><time>2026-05-02T09:11:27.999Z</time></trkpt><trkpt lat="42.2683672691669" lon="13.743743626522743"><ele>444.0</ele><time>2026-05-02T09:11:28.999Z</time></trkpt><trkpt lat="42.268271996354336" lon="13.74372922754725"><ele>444.0</ele><time>2026-05-02T09:11:29.999Z</time></trkpt><trkpt lat="42.268172040033704" lon="13.743674883132265"><ele>444.0</ele><time>2026-05-02T09:11:30.999Z</time></trkpt><trkpt lat="42.268065103289615" lon="13.74359778660394"><ele>443.0</ele><time>2026-05-02T09:11:31.999Z</time></trkpt><trkpt lat="42.26797718836485" lon="13.743525062935543"><ele>442.0</ele><time>2026-05-02T09:11:32.999Z</time></trkpt><trkpt lat="42.26789752334377" lon="13.743467740329935"><ele>441.0</ele><time>2026-05-02T09:11:33.999Z</time></trkpt><trkpt lat="42.267811907651705" lon="13.743419664766478"><ele>440.0</ele><time>2026-05-02T09:11:34.999Z</time></trkpt><trkpt lat="42.267721433230555" lon="13.743384699446612"><ele>439.0</ele><time>2026-05-02T09:11:35.999Z</time></trkpt><trkpt lat="42.267629629970266" lon="13.743362749592242"><ele>439.00000000000006</ele><time>2026-05-02T09:11:36.999Z</time></trkpt><trkpt lat="42.26754139682638" lon="13.743351618784482"><ele>439.0</ele><time>2026-05-02T09:11:37.999Z</time></trkpt><trkpt lat="42.26745614851452" lon="13.74336327797306"><ele>439.0</ele><time>2026-05-02T09:11:38.999Z</time></trkpt><trkpt lat="42.26736527864211" lon="13.743399921102494"><ele>439.0</ele><time>2026-05-02T09:11:39.999Z</time></trkpt><trkpt lat="42.2672844490709" lon="13.74341970960987"><ele>439.00000000000006</ele><time>2026-05-02T09:11:40.999Z</time></trkpt><trkpt lat="42.267193075731704" lon="13.743427866985341"><ele>439.0</ele><time>2026-05-02T09:11:41.999Z</time></trkpt><trkpt lat="42.26710911917985" lon="13.743450285893143"><ele>440.1666666666667</ele><time>2026-05-02T09:11:42.999Z</time></trkpt><trkpt lat="42.26702065278466" lon="13.743500507559732"><ele>441.33333333333337</ele><time>2026-05-02T09:11:43.999Z</time></trkpt><trkpt lat="42.266934214191004" lon="13.743554475776854"><ele>442.5</ele><time>2026-05-02T09:11:44.999Z</time></trkpt><trkpt lat="42.26684990958592" lon="13.743589312129714"><ele>443.66666666666663</ele><time>2026-05-02T09:11:45.999Z</time></trkpt><trkpt lat="42.266773069323456" lon="13.743605730234501"><ele>444.8333333333333</ele><time>2026-05-02T09:11:46.999Z</time></trkpt><trkpt lat="42.26670444829443" lon="13.743611630787171"><ele>446.0</ele><time>2026-05-02T09:11:47.999Z</time></trkpt><trkpt lat="42.266638135810126" lon="13.743612422182164"><ele>446.3333333333333</ele><time>2026-05-02T09:11:48.999Z</time></trkpt><trkpt lat="42.26656643690729" lon="13.743609020001319"><ele>446.66666666666663</ele><time>2026-05-02T09:11:49.999Z</time></trkpt><trkpt lat="42.26649462660706" lon="13.743600073484524"><ele>447.0</ele><time>2026-05-02T09:11:50.999Z</time></trkpt><trkpt lat="42.26642120870414" lon="13.74358041153469"><ele>447.33333333333337</ele><time>2026-05-02T09:11:51.999Z</time></trkpt><trkpt lat="42.26634713747632" lon="13.743557163383027"><ele>447.6666666666667</ele><time>2026-05-02T09:11:52.999Z</time></trkpt><trkpt lat="42.2662699031129" lon="13.743536783397365"><ele>448.0</ele><time>2026-05-02T09:11:53.999Z</time></trkpt><trkpt lat="42.26619040923112" lon="13.743519520452548"><ele>448.0</ele><time>2026-05-02T09:11:54.999Z</time></trkpt><trkpt lat="42.26610778729718" lon="13.743506612423648"><ele>447.99999999999994</ele><time>2026-05-02T09:11:55.999Z</time></trkpt><trkpt lat="42.26601995300981" lon="13.743507937720244"><ele>447.99999999999994</ele><time>2026-05-02T09:11:56.999Z</time></trkpt><trkpt lat="42.265926581431465" lon="13.743520385251589"><ele>448.0</ele><time>2026-05-02T09:11:57.999Z</time></trkpt><trkpt lat="42.265830710347494" lon="13.743534539040954"><ele>448.0</ele><time>2026-05-02T09:11:58.999Z</time></trkpt><trkpt lat="42.26573002871592" lon="13.743535692551612"><ele>448.0</ele><time>2026-05-02T09:11:59.999Z</time></trkpt><trkpt lat="42.265623209807195" lon="13.743526418829083"><ele>447.99999999999994</ele><time>2026-05-02T09:12:00.999Z</time></trkpt><trkpt lat="42.26551837447111" lon="13.743524776840568"><ele>447.99999999999994</ele><time>2026-05-02T09:12:01.999Z</time></trkpt><trkpt lat="42.265414807857056" lon="13.74354681561826"><ele>448.0</ele><time>2026-05-02T09:12:02.999Z</time></trkpt><trkpt lat="42.265323123497815" lon="13.743592126260053"><ele>448.0</ele><time>2026-05-02T09:12:03.999Z</time></trkpt><trkpt lat="42.26524776448472" lon="13.743649428434503"><ele>448.00000000000006</ele><time>2026-05-02T09:12:04.999Z</time></trkpt><trkpt lat="42.26518107912025" lon="13.743698288129242"><ele>448.0</ele><time>2026-05-02T09:12:05.999Z</time></trkpt><trkpt lat="42.26511145664478" lon="13.743738205489592"><ele>448.0</ele><time>2026-05-02T09:12:06.999Z</time></trkpt><trkpt lat="42.265035903469915" lon="13.74378741880594"><ele>448.0</ele><time>2026-05-02T09:12:07.999Z</time></trkpt><trkpt lat="42.264957591827574" lon="13.743850666473893"><ele>448.00000000000006</ele><time>2026-05-02T09:12:08.999Z</time></trkpt><trkpt lat="42.26488017729087" lon="13.743915026893863"><ele>448.0</ele><time>2026-05-02T09:12:09.999Z</time></trkpt><trkpt lat="42.26480047343038" lon="13.743986161095124"><ele>448.0</ele><time>2026-05-02T09:12:10.999Z</time></trkpt><trkpt lat="42.26471414882113" lon="13.744045278192372"><ele>447.99999999999994</ele><time>2026-05-02T09:12:11.999Z</time></trkpt><trkpt lat="42.264623151693804" lon="13.744082754721612"><ele>447.99999999999994</ele><time>2026-05-02T09:12:12.999Z</time></trkpt><trkpt lat="42.26452662727704" lon="13.744105134439694"><ele>448.0</ele><time>2026-05-02T09:12:13.999Z</time></trkpt><trkpt lat="42.26442629219644" lon="13.744113498877832"><ele>448.0</ele><time>2026-05-02T09:12:14.999Z</time></trkpt><trkpt lat="42.2643208640964" lon="13.744101200639829"><ele>448.0</ele><time>2026-05-02T09:12:15.999Z</time></trkpt><trkpt lat="42.26420812632734" lon="13.744081563397698"><ele>448.0</ele><time>2026-05-02T09:12:16.999Z</time></trkpt><trkpt lat="42.264098917746246" lon="13.744056837903146"><ele>448.0</ele><time>2026-05-02T09:12:17.998Z</time></trkpt><trkpt lat="42.26398643713163" lon="13.744033828805783"><ele>448.0</ele><time>2026-05-02T09:12:18.998Z</time></trkpt><trkpt lat="42.263875606132885" lon="13.74401396151123"><ele>448.4</ele><time>2026-05-02T09:12:19.998Z</time></trkpt><trkpt lat="42.26376597525584" lon="13.743993853667176"><ele>448.79999999999995</ele><time>2026-05-02T09:12:20.998Z</time></trkpt><trkpt lat="42.26365849657445" lon="13.743965241410871"><ele>449.2</ele><time>2026-05-02T09:12:21.998Z</time></trkpt><trkpt lat="42.26355253274074" lon="13.743937428498304"><ele>449.6</ele><time>2026-05-02T09:12:22.998Z</time></trkpt><trkpt lat="42.26344560167926" lon="13.743923755941433"><ele>450.0</ele><time>2026-05-02T09:12:23.998Z</time></trkpt><trkpt lat="42.263341032988066" lon="13.743919669646601"><ele>450.0</ele><time>2026-05-02T09:12:24.998Z</time></trkpt><trkpt lat="42.263237367360624" lon="13.743925545385931"><ele>450.0</ele><time>2026-05-02T09:12:25.998Z</time></trkpt><trkpt lat="42.26313681591393" lon="13.743936493994239"><ele>450.0</ele><time>2026-05-02T09:12:26.998Z</time></trkpt><trkpt lat="42.26303772981782" lon="13.743947040941023"><ele>450.0</ele><time>2026-05-02T09:12:27.998Z</time></trkpt><trkpt lat="42.26293963461107" lon="13.743954637262517"><ele>450.0</ele><time>2026-05-02T09:12:28.998Z</time></trkpt><trkpt lat="42.262839522217035" lon="13.743963125635917"><ele>450.6</ele><time>2026-05-02T09:12:29.999Z</time></trkpt><trkpt lat="42.26273252755206" lon="13.743975732301719"><ele>451.2</ele><time>2026-05-02T09:12:30.999Z</time></trkpt><trkpt lat="42.262627094824985" lon="13.743988854017212"><ele>451.79999999999995</ele><time>2026-05-02T09:12:31.999Z</time></trkpt><trkpt lat="42.26252628802494" lon="13.743996629946055"><ele>452.4</ele><time>2026-05-02T09:12:32.999Z</time></trkpt><trkpt lat="42.26243938680015" lon="13.744002111874027"><ele>453.0</ele><time>2026-05-02T09:12:33.999Z</time></trkpt><trkpt lat="42.262360994116" lon="13.744002796056785"><ele>453.0</ele><time>2026-05-02T09:12:34.999Z</time></trkpt><trkpt lat="42.262290721051144" lon="13.743975218222008"><ele>453.0</ele><time>2026-05-02T09:12:35.999Z</time></trkpt><trkpt lat="42.26222991778027" lon="13.743934519425077"><ele>453.0</ele><time>2026-05-02T09:12:36.999Z</time></trkpt><trkpt lat="42.26215459755892" lon="13.743779660489654"><ele>453.0</ele><time>2026-05-02T09:12:38.999Z</time></trkpt><trkpt lat="42.26210947996301" lon="13.743703963042602"><ele>453.0</ele><time>2026-05-02T09:12:39.999Z</time></trkpt><trkpt lat="42.262116879828945" lon="13.743608162060506"><ele>453.0</ele><time>2026-05-02T09:12:44Z</time></trkpt><trkpt lat="42.262198485933695" lon="13.743483611030321"><ele>453.6666666666667</ele><time>2026-05-02T09:12:45.999Z</time></trkpt><trkpt lat="42.26221583303077" lon="13.743397011078537"><ele>454.33333333333337</ele><time>2026-05-02T09:12:46.999Z</time></trkpt><trkpt lat="42.262240896548214" lon="13.74328181855298"><ele>455.0</ele><time>2026-05-02T09:12:47.999Z</time></trkpt><trkpt lat="42.26229028509747" lon="13.74316663790481"><ele>455.6666666666667</ele><time>2026-05-02T09:12:48.999Z</time></trkpt><trkpt lat="42.262352738659196" lon="13.743084414919243"><ele>456.33333333333337</ele><time>2026-05-02T09:12:49.999Z</time></trkpt><trkpt lat="42.26242456706066" lon="13.743055279020018"><ele>457.0</ele><time>2026-05-02T09:12:50.999Z</time></trkpt><trkpt lat="42.26251687854629" lon="13.743050179074132"><ele>457.00000000000006</ele><time>2026-05-02T09:12:51.999Z</time></trkpt><trkpt lat="42.26259043984183" lon="13.74303466907971"><ele>457.0</ele><time>2026-05-02T09:12:52.999Z</time></trkpt><trkpt lat="42.26265308311245" lon="13.742984195323636"><ele>457.0</ele><time>2026-05-02T09:12:53.999Z</time></trkpt><trkpt lat="42.26272997192262" lon="13.742903583922917"><ele>457.0</ele><time>2026-05-02T09:12:54.999Z</time></trkpt><trkpt lat="42.26281104226656" lon="13.742835484360834"><ele>457.00000000000006</ele><time>2026-05-02T09:12:55.999Z</time></trkpt><trkpt lat="42.26287752020194" lon="13.742798476974597"><ele>457.0</ele><time>2026-05-02T09:12:56.999Z</time></trkpt><trkpt lat="42.262985705477014" lon="13.742761342957436"><ele>458.40000000000003</ele><time>2026-05-02T09:12:58.999Z</time></trkpt><trkpt lat="42.263033159370856" lon="13.742690820866335"><ele>459.80000000000007</ele><time>2026-05-02T09:13:00.999Z</time></trkpt><trkpt lat="42.26302232712247" lon="13.742508055472078"><ele>461.2</ele><time>2026-05-02T09:13:02.999Z</time></trkpt><trkpt lat="42.26300206144265" lon="13.74237691654106"><ele>462.6</ele><time>2026-05-02T09:13:03.999Z</time></trkpt><trkpt lat="42.26298661014973" lon="13.742281241677892"><ele>464.0</ele><time>2026-05-02T09:13:04.999Z</time></trkpt><trkpt lat="42.26304551188219" lon="13.742186641869104"><ele>463.99999999999994</ele><time>2026-05-02T09:13:06.999Z</time></trkpt><trkpt lat="42.26310711583845" lon="13.742162238462809"><ele>464.0</ele><time>2026-05-02T09:13:07.999Z</time></trkpt><trkpt lat="42.26316820535156" lon="13.742073210658452"><ele>464.0</ele><time>2026-05-02T09:13:09.999Z</time></trkpt><trkpt lat="42.26315165561899" lon="13.741983558054962"><ele>464.0</ele><time>2026-05-02T09:13:10.999Z</time></trkpt><trkpt lat="42.26311282938462" lon="13.741894640599941"><ele>463.99999999999994</ele><time>2026-05-02T09:13:11.999Z</time></trkpt><trkpt lat="42.26313097193192" lon="13.74177446885579"><ele>464.0</ele><time>2026-05-02T09:13:13.999Z</time></trkpt><trkpt lat="42.26326650971708" lon="13.741729003633692"><ele>465.66666666666663</ele><time>2026-05-02T09:13:15.999Z</time></trkpt><trkpt lat="42.26332893542352" lon="13.741697004952272"><ele>467.3333333333333</ele><time>2026-05-02T09:13:16.999Z</time></trkpt><trkpt lat="42.26336193408106" lon="13.741602943105471"><ele>469.0</ele><time>2026-05-02T09:13:18.999Z</time></trkpt><trkpt lat="42.263360411970375" lon="13.741488421932953"><ele>470.66666666666663</ele><time>2026-05-02T09:13:20.999Z</time></trkpt><trkpt lat="42.26343651718961" lon="13.741414896186932"><ele>472.3333333333333</ele><time>2026-05-02T09:13:22.999Z</time></trkpt><trkpt lat="42.26349749726258" lon="13.741350651141063"><ele>474.0</ele><time>2026-05-02T09:13:25.999Z</time></trkpt><trkpt lat="42.26353976142809" lon="13.741284505023387"><ele>474.0</ele><time>2026-05-02T09:13:27.999Z</time></trkpt><trkpt lat="42.263653739708765" lon="13.741269912150635"><ele>474.0</ele><time>2026-05-02T09:13:29.999Z</time></trkpt><trkpt lat="42.26373083731251" lon="13.741272578293094"><ele>474.0</ele><time>2026-05-02T09:13:30.999Z</time></trkpt><trkpt lat="42.26381343683432" lon="13.741267538782484"><ele>474.0</ele><time>2026-05-02T09:13:31.999Z</time></trkpt><trkpt lat="42.263896965492584" lon="13.741258995699182"><ele>474.0</ele><time>2026-05-02T09:13:32.999Z</time></trkpt><trkpt lat="42.26399344361119" lon="13.74126091409531"><ele>474.0</ele><time>2026-05-02T09:13:33.999Z</time></trkpt><trkpt lat="42.2641188985166" lon="13.741262670839392"><ele>474.0</ele><time>2026-05-02T09:13:34.999Z</time></trkpt><trkpt lat="42.26423038406969" lon="13.741258023012776"><ele>474.0</ele><time>2026-05-02T09:13:35.999Z</time></trkpt><trkpt lat="42.26431786177042" lon="13.741231492573721"><ele>474.0</ele><time>2026-05-02T09:13:36.999Z</time></trkpt><trkpt lat="42.26441540634027" lon="13.741201872729969"><ele>474.0</ele><time>2026-05-02T09:13:37.999Z</time></trkpt><trkpt lat="42.264484338606145" lon="13.741132030637514"><ele>474.0</ele><time>2026-05-02T09:13:38.999Z</time></trkpt><trkpt lat="42.26457083408459" lon="13.741097653047248"><ele>474.0</ele><time>2026-05-02T09:13:39.999Z</time></trkpt><trkpt lat="42.26465071653551" lon="13.741053667886717"><ele>474.0</ele><time>2026-05-02T09:13:40.999Z</time></trkpt><trkpt lat="42.26475342634304" lon="13.74098446822387"><ele>474.0</ele><time>2026-05-02T09:13:41.999Z</time></trkpt><trkpt lat="42.26485425837921" lon="13.740951762523855"><ele>474.0</ele><time>2026-05-02T09:13:42.999Z</time></trkpt><trkpt lat="42.26495097510914" lon="13.74095220383398"><ele>476.1666666666667</ele><time>2026-05-02T09:13:43.999Z</time></trkpt><trkpt lat="42.265045549418794" lon="13.740961508398522"><ele>478.33333333333337</ele><time>2026-05-02T09:13:44.999Z</time></trkpt><trkpt lat="42.265125856839404" lon="13.740996601885948"><ele>480.5</ele><time>2026-05-02T09:13:45.999Z</time></trkpt><trkpt lat="42.26520411958829" lon="13.741033513038188"><ele>482.6666666666667</ele><time>2026-05-02T09:13:46.999Z</time></trkpt><trkpt lat="42.265286116546534" lon="13.74103660068144"><ele>484.83333333333337</ele><time>2026-05-02T09:13:47.999Z</time></trkpt><trkpt lat="42.26536717470145" lon="13.741037136845556"><ele>487.0</ele><time>2026-05-02T09:13:48.999Z</time></trkpt><trkpt lat="42.265442693760086" lon="13.741015452532476"><ele>487.00000000000006</ele><time>2026-05-02T09:13:49.999Z</time></trkpt><trkpt lat="42.26553403184957" lon="13.740970330466109"><ele>487.0</ele><time>2026-05-02T09:13:50.999Z</time></trkpt><trkpt lat="42.265614226625175" lon="13.740925503091495"><ele>487.0</ele><time>2026-05-02T09:13:51.999Z</time></trkpt><trkpt lat="42.26568705405554" lon="13.74090352934656"><ele>487.0</ele><time>2026-05-02T09:13:52.999Z</time></trkpt><trkpt lat="42.26575846866424" lon="13.74085405559197"><ele>487.00000000000006</ele><time>2026-05-02T09:13:53.999Z</time></trkpt><trkpt lat="42.26582556911207" lon="13.740780122119991"><ele>487.0</ele><time>2026-05-02T09:13:54.999Z</time></trkpt><trkpt lat="42.265905340519744" lon="13.740680468194773"><ele>487.0</ele><time>2026-05-02T09:13:55.999Z</time></trkpt><trkpt lat="42.265989548048225" lon="13.740573289961985"><ele>487.00000000000006</ele><time>2026-05-02T09:13:56.999Z</time></trkpt><trkpt lat="42.26606700229243" lon="13.740477318820691"><ele>487.00000000000006</ele><time>2026-05-02T09:13:57.999Z</time></trkpt><trkpt lat="42.26614863365798" lon="13.740376138971218"><ele>487.0</ele><time>2026-05-02T09:13:58.999Z</time></trkpt><trkpt lat="42.266214317069625" lon="13.740286198480058"><ele>487.0</ele><time>2026-05-02T09:13:59.999Z</time></trkpt><trkpt lat="42.266279010685416" lon="13.740228591262708"><ele>489.8</ele><time>2026-05-02T09:14:00.999Z</time></trkpt><trkpt lat="42.26636100338702" lon="13.740204029293425"><ele>492.6</ele><time>2026-05-02T09:14:01.999Z</time></trkpt><trkpt lat="42.26646291777503" lon="13.74018415297205"><ele>495.40000000000003</ele><time>2026-05-02T09:14:02.999Z</time></trkpt><trkpt lat="42.266558208260605" lon="13.740154910328368"><ele>498.20000000000005</ele><time>2026-05-02T09:14:03.999Z</time></trkpt><trkpt lat="42.266645294104315" lon="13.740135798425117"><ele>501.0</ele><time>2026-05-02T09:14:04.999Z</time></trkpt><trkpt lat="42.26673963193742" lon="13.74014591470958"><ele>501.0</ele><time>2026-05-02T09:14:05.999Z</time></trkpt><trkpt lat="42.26683221619305" lon="13.740139638140118"><ele>501.0</ele><time>2026-05-02T09:14:06.999Z</time></trkpt><trkpt lat="42.26691674912914" lon="13.740162672748726"><ele>501.0</ele><time>2026-05-02T09:14:07.999Z</time></trkpt><trkpt lat="42.267016866822786" lon="13.740199571232589"><ele>501.0</ele><time>2026-05-02T09:14:08.999Z</time></trkpt><trkpt lat="42.26713477932072" lon="13.740203990096845"><ele>501.0</ele><time>2026-05-02T09:14:10.999Z</time></trkpt><trkpt lat="42.26722205182231" lon="13.740213052330068"><ele>499.6666666666667</ele><time>2026-05-02T09:14:11.999Z</time></trkpt><trkpt lat="42.26728969692239" lon="13.740251710185243"><ele>498.33333333333337</ele><time>2026-05-02T09:14:12.999Z</time></trkpt><trkpt lat="42.26737157772671" lon="13.740320582189424"><ele>497.0</ele><time>2026-05-02T09:14:13.999Z</time></trkpt><trkpt lat="42.26743107882223" lon="13.740395293980288"><ele>495.6666666666667</ele><time>2026-05-02T09:14:14.999Z</time></trkpt><trkpt lat="42.267488283061176" lon="13.740433439584752"><ele>494.33333333333337</ele><time>2026-05-02T09:14:15.999Z</time></trkpt><trkpt lat="42.26761788390018" lon="13.740480898291993"><ele>493.0</ele><time>2026-05-02T09:14:17.999Z</time></trkpt><trkpt lat="42.26769081090978" lon="13.740485281183414"><ele>493.0</ele><time>2026-05-02T09:14:18.999Z</time></trkpt><trkpt lat="42.26781182034482" lon="13.740490695776646"><ele>492.99999999999994</ele><time>2026-05-02T09:14:20.998Z</time></trkpt><trkpt lat="42.26789349527554" lon="13.7404591916907"><ele>492.99999999999994</ele><time>2026-05-02T09:14:21.998Z</time></trkpt><trkpt lat="42.267991660557804" lon="13.740419626400568"><ele>493.0</ele><time>2026-05-02T09:14:22.998Z</time></trkpt><trkpt lat="42.268084318559595" lon="13.740381774600959"><ele>493.0</ele><time>2026-05-02T09:14:23.998Z</time></trkpt><trkpt lat="42.26816087799096" lon="13.740341538198551"><ele>494.59999999999997</ele><time>2026-05-02T09:14:24.998Z</time></trkpt><trkpt lat="42.268215368195655" lon="13.740294785228027"><ele>496.19999999999993</ele><time>2026-05-02T09:14:25.998Z</time></trkpt><trkpt lat="42.268288614262275" lon="13.740159304553181"><ele>497.8</ele><time>2026-05-02T09:14:27.998Z</time></trkpt><trkpt lat="42.268334826855735" lon="13.740025926576129"><ele>499.4</ele><time>2026-05-02T09:14:29.998Z</time></trkpt><trkpt lat="42.26843611926869" lon="13.74002046343279"><ele>501.0</ele><time>2026-05-02T09:14:31.998Z</time></trkpt><trkpt lat="42.268512459711694" lon="13.74012425022148"><ele>501.0</ele><time>2026-05-02T09:14:33.998Z</time></trkpt><trkpt lat="42.26850905152655" lon="13.740228613892345"><ele>501.0</ele><time>2026-05-02T09:14:35.999Z</time></trkpt><trkpt lat="42.268531194738166" lon="13.740318402786555"><ele>501.0</ele><time>2026-05-02T09:15:11.999Z</time></trkpt><trkpt lat="42.26854916599035" lon="13.740456136472483"><ele>501.0</ele><time>2026-05-02T09:15:13.999Z</time></trkpt><trkpt lat="42.26859844029678" lon="13.7405645535072"><ele>501.0</ele><time>2026-05-02T09:15:15.999Z</time></trkpt><trkpt lat="42.26867939283161" lon="13.7405866635532"><ele>501.0</ele><time>2026-05-02T09:15:17.999Z</time></trkpt><trkpt lat="42.26879690818407" lon="13.740522603927221"><ele>501.0</ele><time>2026-05-02T09:15:19.999Z</time></trkpt><trkpt lat="42.26886745323059" lon="13.740472953620303"><ele>501.0</ele><time>2026-05-02T09:15:20.999Z</time></trkpt><trkpt lat="42.26894692812628" lon="13.740423356333178"><ele>501.0</ele><time>2026-05-02T09:15:21.999Z</time></trkpt><trkpt lat="42.269020358830005" lon="13.740366390746322"><ele>501.0</ele><time>2026-05-02T09:15:22.999Z</time></trkpt><trkpt lat="42.269085775386536" lon="13.740299867334448"><ele>501.0</ele><time>2026-05-02T09:15:23.999Z</time></trkpt><trkpt lat="42.26913489536144" lon="13.74024580857178"><ele>501.0</ele><time>2026-05-02T09:15:24.999Z</time></trkpt><trkpt lat="42.26918611437533" lon="13.74014852112679"><ele>504.4</ele><time>2026-05-02T09:15:26.999Z</time></trkpt><trkpt lat="42.2691838444382" lon="13.739961225780371"><ele>507.8</ele><time>2026-05-02T09:15:28.999Z</time></trkpt><trkpt lat="42.26919633168611" lon="13.739840357877355"><ele>511.19999999999993</ele><time>2026-05-02T09:15:29.999Z</time></trkpt><trkpt lat="42.269224078248534" lon="13.739717271757389"><ele>514.6</ele><time>2026-05-02T09:15:30.999Z</time></trkpt><trkpt lat="42.26926163541785" lon="13.73959217391264"><ele>518.0</ele><time>2026-05-02T09:15:31.999Z</time></trkpt><trkpt lat="42.269292449235444" lon="13.739447878724793"><ele>519.6</ele><time>2026-05-02T09:15:32.999Z</time></trkpt><trkpt lat="42.2693161545241" lon="13.739276580603507"><ele>521.1999999999999</ele><time>2026-05-02T09:15:33.999Z</time></trkpt><trkpt lat="42.26933218241337" lon="13.739117655500463"><ele>522.8</ele><time>2026-05-02T09:15:34.999Z</time></trkpt><trkpt lat="42.26935243562911" lon="13.738973027973888"><ele>524.4</ele><time>2026-05-02T09:15:35.999Z</time></trkpt><trkpt lat="42.26937318385156" lon="13.738854061181685"><ele>526.0</ele><time>2026-05-02T09:15:36.999Z</time></trkpt><trkpt lat="42.269388728129556" lon="13.7387639130334"><ele>526.0</ele><time>2026-05-02T09:15:37.999Z</time></trkpt><trkpt lat="42.26932549740906" lon="13.738672802327306"><ele>526.0</ele><time>2026-05-02T09:15:39.999Z</time></trkpt><trkpt lat="42.269255365242145" lon="13.73864002050487"><ele>526.0</ele><time>2026-05-02T09:15:40.999Z</time></trkpt><trkpt lat="42.269182282193405" lon="13.738603050354097"><ele>526.0</ele><time>2026-05-02T09:15:41.999Z</time></trkpt><trkpt lat="42.26910816489506" lon="13.738554448115494"><ele>526.0</ele><time>2026-05-02T09:15:42.999Z</time></trkpt><trkpt lat="42.269025260832336" lon="13.738498641922115"><ele>526.0</ele><time>2026-05-02T09:15:43.999Z</time></trkpt><trkpt lat="42.268924786600074" lon="13.73843979489472"><ele>528.4</ele><time>2026-05-02T09:15:44.999Z</time></trkpt><trkpt lat="42.268801916512594" lon="13.738389747794969"><ele>530.8</ele><time>2026-05-02T09:15:45.999Z</time></trkpt><trkpt lat="42.268687493077124" lon="13.738353782277592"><ele>533.1999999999999</ele><time>2026-05-02T09:15:46.999Z</time></trkpt><trkpt lat="42.26860488828964" lon="13.738361708012684"><ele>535.6</ele><time>2026-05-02T09:15:47.999Z</time></trkpt><trkpt lat="42.26850484834005" lon="13.738360765687016"><ele>538.0</ele><time>2026-05-02T09:15:49.999Z</time></trkpt><trkpt lat="42.268469217546304" lon="13.738258120704609"><ele>538.0</ele><time>2026-05-02T09:15:51.999Z</time></trkpt><trkpt lat="42.268347752368214" lon="13.738199639454873"><ele>538.0</ele><time>2026-05-02T09:15:57.999Z</time></trkpt><trkpt lat="42.2682612894845" lon="13.738173836398698"><ele>538.0</ele><time>2026-05-02T09:15:58.999Z</time></trkpt><trkpt lat="42.26814448655319" lon="13.738168888917306"><ele>538.0</ele><time>2026-05-02T09:15:59.999Z</time></trkpt><trkpt lat="42.268001480704584" lon="13.738164098039851"><ele>539.6666666666667</ele><time>2026-05-02T09:16:00.999Z</time></trkpt><trkpt lat="42.26782585212259" lon="13.738165250719979"><ele>541.3333333333334</ele><time>2026-05-02T09:16:01.999Z</time></trkpt><trkpt lat="42.267645094439395" lon="13.738155682939498"><ele>543.0</ele><time>2026-05-02T09:16:02.999Z</time></trkpt><trkpt lat="42.2674776017308" lon="13.738137384231191"><ele>543.0</ele><time>2026-05-02T09:16:03.999Z</time></trkpt><trkpt lat="42.267307194395705" lon="13.738128352311774"><ele>543.0</ele><time>2026-05-02T09:16:04.999Z</time></trkpt><trkpt lat="42.267132015863446" lon="13.7381227376274"><ele>543.0</ele><time>2026-05-02T09:16:05.999Z</time></trkpt><trkpt lat="42.26696013680984" lon="13.738114968898708"><ele>544.3333333333334</ele><time>2026-05-02T09:16:06.999Z</time></trkpt><trkpt lat="42.26678018885993" lon="13.738105671425197"><ele>545.6666666666667</ele><time>2026-05-02T09:16:07.999Z</time></trkpt><trkpt lat="42.26659962166194" lon="13.738099468007752"><ele>547.0</ele><time>2026-05-02T09:16:08.999Z</time></trkpt><trkpt lat="42.266423895964124" lon="13.738092948472648"><ele>548.0</ele><time>2026-05-02T09:16:09.999Z</time></trkpt><trkpt lat="42.26625893344975" lon="13.73809188476205"><ele>549.0</ele><time>2026-05-02T09:16:10.999Z</time></trkpt><trkpt lat="42.26609894414544" lon="13.73808487640488"><ele>550.0</ele><time>2026-05-02T09:16:11.999Z</time></trkpt><trkpt lat="42.2659418086911" lon="13.738083459943345"><ele>550.0</ele><time>2026-05-02T09:16:12.999Z</time></trkpt><trkpt lat="42.26579384808944" lon="13.738061504007907"><ele>550.0</ele><time>2026-05-02T09:16:13.999Z</time></trkpt><trkpt lat="42.26565724893827" lon="13.738061087497773"><ele>550.0</ele><time>2026-05-02T09:16:14.999Z</time></trkpt><trkpt lat="42.26553546214933" lon="13.738054516916286"><ele>550.0</ele><time>2026-05-02T09:16:15.999Z</time></trkpt><trkpt lat="42.265424177479275" lon="13.738055180382423"><ele>550.3333333333334</ele><time>2026-05-02T09:16:16.999Z</time></trkpt><trkpt lat="42.265315183787564" lon="13.738055781528484"><ele>550.6666666666667</ele><time>2026-05-02T09:16:17.999Z</time></trkpt><trkpt lat="42.26521473987983" lon="13.738055604132384"><ele>551.0</ele><time>2026-05-02T09:16:18.999Z</time></trkpt><trkpt lat="42.26512553131362" lon="13.738048611837744"><ele>551.3333333333334</ele><time>2026-05-02T09:16:19.999Z</time></trkpt><trkpt lat="42.26505405936707" lon="13.738039185650189"><ele>551.6666666666666</ele><time>2026-05-02T09:16:20.999Z</time></trkpt><trkpt lat="42.264988200451235" lon="13.738034701409687"><ele>552.0</ele><time>2026-05-02T09:16:21.999Z</time></trkpt><trkpt lat="42.26491213806111" lon="13.73803273536682"><ele>552.0</ele><time>2026-05-02T09:16:22.999Z</time></trkpt><trkpt lat="42.264832535718014" lon="13.73800623221975"><ele>552.0</ele><time>2026-05-02T09:16:23.999Z</time></trkpt><trkpt lat="42.26473766610339" lon="13.73796565894617"><ele>552.0</ele><time>2026-05-02T09:16:24.999Z</time></trkpt><trkpt lat="42.26463387933135" lon="13.737940181317366"><ele>552.0</ele><time>2026-05-02T09:16:25.999Z</time></trkpt><trkpt lat="42.264525501859666" lon="13.737923689890582"><ele>552.0</ele><time>2026-05-02T09:16:26.999Z</time></trkpt><trkpt lat="42.26441398883655" lon="13.737914655591432"><ele>552.8000000000001</ele><time>2026-05-02T09:16:27.999Z</time></trkpt><trkpt lat="42.264314349660765" lon="13.737907579842378"><ele>553.6</ele><time>2026-05-02T09:16:28.998Z</time></trkpt><trkpt lat="42.26423678823031" lon="13.737872957277768"><ele>554.4000000000001</ele><time>2026-05-02T09:16:29.998Z</time></trkpt><trkpt lat="42.26416855823658" lon="13.73783285195038"><ele>555.2</ele><time>2026-05-02T09:16:30.998Z</time></trkpt><trkpt lat="42.2640848785302" lon="13.737781871398303"><ele>556.0</ele><time>2026-05-02T09:16:31.998Z</time></trkpt><trkpt lat="42.263984723891284" lon="13.737732884169048"><ele>556.8</ele><time>2026-05-02T09:16:32.998Z</time></trkpt><trkpt lat="42.26389834451225" lon="13.737730756896868"><ele>557.6</ele><time>2026-05-02T09:16:33.998Z</time></trkpt><trkpt lat="42.26380802936845" lon="13.737763057232812"><ele>558.4</ele><time>2026-05-02T09:16:34.998Z</time></trkpt><trkpt lat="42.2637150243143" lon="13.737779827562614"><ele>559.2</ele><time>2026-05-02T09:16:35.998Z</time></trkpt><trkpt lat="42.26362188737377" lon="13.73776922355571"><ele>560.0</ele><time>2026-05-02T09:16:36.998Z</time></trkpt><trkpt lat="42.263535076219306" lon="13.737750848186469"><ele>560.0</ele><time>2026-05-02T09:16:37.998Z</time></trkpt><trkpt lat="42.26344107962498" lon="13.737734997810902"><ele>560.0</ele><time>2026-05-02T09:16:38.998Z</time></trkpt><trkpt lat="42.26333673150092" lon="13.737709193991247"><ele>560.0</ele><time>2026-05-02T09:16:39.998Z</time></trkpt><trkpt lat="42.263224350073365" lon="13.73768048061507"><ele>560.0</ele><time>2026-05-02T09:16:40.998Z</time></trkpt><trkpt lat="42.263107613455425" lon="13.737647706110945"><ele>560.0</ele><time>2026-05-02T09:16:42Z</time></trkpt><trkpt lat="42.26298572763054" lon="13.737617749770001"><ele>564.3333333333333</ele><time>2026-05-02T09:16:43Z</time></trkpt><trkpt lat="42.262877013662674" lon="13.737587298256111"><ele>568.6666666666666</ele><time>2026-05-02T09:16:44Z</time></trkpt><trkpt lat="42.26279065782172" lon="13.737562439795738"><ele>573.0</ele><time>2026-05-02T09:16:45Z</time></trkpt><trkpt lat="42.26271794904996" lon="13.737546198423653"><ele>577.3333333333334</ele><time>2026-05-02T09:16:46Z</time></trkpt><trkpt lat="42.26264780139528" lon="13.737533132809453"><ele>581.6666666666667</ele><time>2026-05-02T09:16:47Z</time></trkpt><trkpt lat="42.26257052448966" lon="13.737517917082267"><ele>586.0</ele><time>2026-05-02T09:16:48Z</time></trkpt><trkpt lat="42.26248945643024" lon="13.7374865179812"><ele>586.0</ele><time>2026-05-02T09:16:49Z</time></trkpt><trkpt lat="42.262404771933156" lon="13.737429489594067"><ele>586.0</ele><time>2026-05-02T09:16:50Z</time></trkpt><trkpt lat="42.26230993417641" lon="13.73735774210109"><ele>586.0</ele><time>2026-05-02T09:16:51Z</time></trkpt><trkpt lat="42.26221175320382" lon="13.737276403507355"><ele>586.0</ele><time>2026-05-02T09:16:52Z</time></trkpt><trkpt lat="42.26210529052313" lon="13.73719585330414"><ele>586.0</ele><time>2026-05-02T09:16:53Z</time></trkpt><trkpt lat="42.26201938884195" lon="13.737126809209855"><ele>585.0</ele><time>2026-05-02T09:16:54Z</time></trkpt><trkpt lat="42.26194507579698" lon="13.737073172698027"><ele>584.0</ele><time>2026-05-02T09:16:55Z</time></trkpt><trkpt lat="42.26185872367489" lon="13.737033579809315"><ele>583.0</ele><time>2026-05-02T09:16:56Z</time></trkpt><trkpt lat="42.26177151199533" lon="13.737003600093372"><ele>582.0</ele><time>2026-05-02T09:16:57Z</time></trkpt><trkpt lat="42.261677212835345" lon="13.736975504708584"><ele>581.0</ele><time>2026-05-02T09:16:58Z</time></trkpt><trkpt lat="42.261580114459974" lon="13.736955875436575"><ele>581.0</ele><time>2026-05-02T09:16:59Z</time></trkpt><trkpt lat="42.261493751731415" lon="13.736928894863084"><ele>581.0</ele><time>2026-05-02T09:17:00Z</time></trkpt><trkpt lat="42.26139301832714" lon="13.736888746304"><ele>581.0</ele><time>2026-05-02T09:17:01Z</time></trkpt><trkpt lat="42.261308044875896" lon="13.73682861076279"><ele>581.0</ele><time>2026-05-02T09:17:02Z</time></trkpt><trkpt lat="42.261260196032964" lon="13.736740623130219"><ele>581.0</ele><time>2026-05-02T09:17:03Z</time></trkpt><trkpt lat="42.26119083282982" lon="13.736645096815034"><ele>583.5</ele><time>2026-05-02T09:17:04Z</time></trkpt><trkpt lat="42.2611124674348" lon="13.736555774591569"><ele>586.0</ele><time>2026-05-02T09:17:05Z</time></trkpt><trkpt lat="42.2610380597179" lon="13.736477409503882"><ele>588.5</ele><time>2026-05-02T09:17:06Z</time></trkpt><trkpt lat="42.26097643204259" lon="13.736415359987937"><ele>591.0</ele><time>2026-05-02T09:17:07Z</time></trkpt><trkpt lat="42.26092810766561" lon="13.736347280977471"><ele>593.5</ele><time>2026-05-02T09:17:09Z</time></trkpt><trkpt lat="42.26094235900743" lon="13.736227725653443"><ele>596.0</ele><time>2026-05-02T09:17:10.999Z</time></trkpt><trkpt lat="42.26100881873852" lon="13.736089842398203"><ele>597.1428571428571</ele><time>2026-05-02T09:17:12.999Z</time></trkpt><trkpt lat="42.26103030469484" lon="13.735998502800156"><ele>598.2857142857142</ele><time>2026-05-02T09:17:13.999Z</time></trkpt><trkpt lat="42.261033289515794" lon="13.73589846093962"><ele>599.4285714285714</ele><time>2026-05-02T09:17:14.999Z</time></trkpt><trkpt lat="42.261047957869955" lon="13.735812237639383"><ele>600.5714285714286</ele><time>2026-05-02T09:17:15.999Z</time></trkpt><trkpt lat="42.261062591361274" lon="13.735724988082067"><ele>601.7142857142858</ele><time>2026-05-02T09:17:16.999Z</time></trkpt><trkpt lat="42.26107736027872" lon="13.735635998124838"><ele>602.8571428571429</ele><time>2026-05-02T09:17:17.999Z</time></trkpt><trkpt lat="42.26110389424223" lon="13.735540987041343"><ele>604.0</ele><time>2026-05-02T09:17:18.999Z</time></trkpt><trkpt lat="42.26113573316727" lon="13.735431968408472"><ele>604.0</ele><time>2026-05-02T09:17:19.999Z</time></trkpt><trkpt lat="42.261162544055814" lon="13.735327059262424"><ele>604.0</ele><time>2026-05-02T09:17:20.999Z</time></trkpt><trkpt lat="42.26118089447445" lon="13.735241176736409"><ele>604.0</ele><time>2026-05-02T09:17:21.999Z</time></trkpt><trkpt lat="42.261257658569555" lon="13.735099418552574"><ele>604.0</ele><time>2026-05-02T09:17:23.999Z</time></trkpt><trkpt lat="42.261331500042466" lon="13.735005728809167"><ele>604.0</ele><time>2026-05-02T09:17:24.999Z</time></trkpt><trkpt lat="42.261414732834474" lon="13.734901917154579"><ele>608.8</ele><time>2026-05-02T09:17:25.999Z</time></trkpt><trkpt lat="42.26148512283773" lon="13.73480953421354"><ele>613.5999999999999</ele><time>2026-05-02T09:17:26.999Z</time></trkpt><trkpt lat="42.261549383866026" lon="13.734715102891567"><ele>618.4</ele><time>2026-05-02T09:17:27.999Z</time></trkpt><trkpt lat="42.26161659678978" lon="13.734601177716891"><ele>623.1999999999999</ele><time>2026-05-02T09:17:28.999Z</time></trkpt><trkpt lat="42.26166285794349" lon="13.734471548798451"><ele>628.0</ele><time>2026-05-02T09:17:29.999Z</time></trkpt><trkpt lat="42.26169413479373" lon="13.734355590706873"><ele>628.0</ele><time>2026-05-02T09:17:30.999Z</time></trkpt><trkpt lat="42.26172221047538" lon="13.734253323877235"><ele>628.0</ele><time>2026-05-02T09:17:31.999Z</time></trkpt><trkpt lat="42.26173950800366" lon="13.734165694654445"><ele>628.0</ele><time>2026-05-02T09:17:32.999Z</time></trkpt><trkpt lat="42.261745603020834" lon="13.734065412160621"><ele>628.0</ele><time>2026-05-02T09:17:33.999Z</time></trkpt><trkpt lat="42.26174610079069" lon="13.73395024900127"><ele>628.0</ele><time>2026-05-02T09:17:34.999Z</time></trkpt><trkpt lat="42.26173894493013" lon="13.73382206331127"><ele>628.0</ele><time>2026-05-02T09:17:35.999Z</time></trkpt><trkpt lat="42.26171938373537" lon="13.733687005776316"><ele>629.5</ele><time>2026-05-02T09:17:36.999Z</time></trkpt><trkpt lat="42.26168289585951" lon="13.733550784062604"><ele>631.0</ele><time>2026-05-02T09:17:37.999Z</time></trkpt><trkpt lat="42.261641140317835" lon="13.733414845953376"><ele>632.5</ele><time>2026-05-02T09:17:38.999Z</time></trkpt><trkpt lat="42.26161845248911" lon="13.73326708443288"><ele>634.0</ele><time>2026-05-02T09:17:39.999Z</time></trkpt><trkpt lat="42.261603529762766" lon="13.73309411517232"><ele>634.0</ele><time>2026-05-02T09:17:40.999Z</time></trkpt><trkpt lat="42.26158940785669" lon="13.732937224513327"><ele>634.0</ele><time>2026-05-02T09:17:41.999Z</time></trkpt><trkpt lat="42.26157806441593" lon="13.732820269669086"><ele>634.0</ele><time>2026-05-02T09:17:42.999Z</time></trkpt><trkpt lat="42.26156864107559" lon="13.732710932374896"><ele>634.0</ele><time>2026-05-02T09:17:43.999Z</time></trkpt><trkpt lat="42.26156941413302" lon="13.732602006293064"><ele>634.0</ele><time>2026-05-02T09:17:44.999Z</time></trkpt><trkpt lat="42.261585788534404" lon="13.732472565922187"><ele>634.8333333333334</ele><time>2026-05-02T09:17:45.999Z</time></trkpt><trkpt lat="42.26159436587493" lon="13.732358974259226"><ele>635.6666666666667</ele><time>2026-05-02T09:17:46.999Z</time></trkpt><trkpt lat="42.26159464326447" lon="13.732272819430365"><ele>636.5</ele><time>2026-05-02T09:17:47.999Z</time></trkpt><trkpt lat="42.26154130040497" lon="13.732123514355008"><ele>637.3333333333334</ele><time>2026-05-02T09:17:49.999Z</time></trkpt><trkpt lat="42.261487679392545" lon="13.73205131919956"><ele>638.1666666666666</ele><time>2026-05-02T09:17:50.999Z</time></trkpt><trkpt lat="42.26142612567278" lon="13.73199226311888"><ele>639.0</ele><time>2026-05-02T09:17:51.999Z</time></trkpt><trkpt lat="42.261351377710334" lon="13.731962494128645"><ele>639.0</ele><time>2026-05-02T09:17:52.999Z</time></trkpt><trkpt lat="42.26126293919559" lon="13.731956360335918"><ele>639.0</ele><time>2026-05-02T09:17:53.999Z</time></trkpt><trkpt lat="42.26118821595427" lon="13.731954634740202"><ele>639.0</ele><time>2026-05-02T09:17:54.999Z</time></trkpt><trkpt lat="42.26109450766711" lon="13.731877489585575"><ele>639.0</ele><time>2026-05-02T09:17:56.999Z</time></trkpt><trkpt lat="42.261052754860096" lon="13.73180776861093"><ele>639.0</ele><time>2026-05-02T09:17:57.999Z</time></trkpt><trkpt lat="42.26100835680729" lon="13.731718039878476"><ele>639.0</ele><time>2026-05-02T09:17:58.999Z</time></trkpt><trkpt lat="42.260959112268424" lon="13.731625607481403"><ele>641.1666666666666</ele><time>2026-05-02T09:17:59.999Z</time></trkpt><trkpt lat="42.26091176669486" lon="13.731519929451027"><ele>643.3333333333334</ele><time>2026-05-02T09:18:00.999Z</time></trkpt><trkpt lat="42.26087745184386" lon="13.731403273449446"><ele>645.5</ele><time>2026-05-02T09:18:01.999Z</time></trkpt><trkpt lat="42.260848096542134" lon="13.731318029926769"><ele>647.6666666666667</ele><time>2026-05-02T09:18:02.999Z</time></trkpt><trkpt lat="42.260782261388165" lon="13.731218166975111"><ele>649.8333333333334</ele><time>2026-05-02T09:18:04.999Z</time></trkpt><trkpt lat="42.260733910534775" lon="13.731156339713271"><ele>652.0</ele><time>2026-05-02T09:18:05.999Z</time></trkpt><trkpt lat="42.2606781423957" lon="13.731098343747766"><ele>655.0</ele><time>2026-05-02T09:18:06.999Z</time></trkpt><trkpt lat="42.260618104466644" lon="13.731043450624854"><ele>658.0</ele><time>2026-05-02T09:18:07.999Z</time></trkpt><trkpt lat="42.26055482782233" lon="13.7309907605137"><ele>661.0</ele><time>2026-05-02T09:18:08.999Z</time></trkpt><trkpt lat="42.26049320440958" lon="13.73094640886026"><ele>664.0</ele><time>2026-05-02T09:18:09.999Z</time></trkpt><trkpt lat="42.260425803868884" lon="13.730899687276345"><ele>667.0</ele><time>2026-05-02T09:18:10.999Z</time></trkpt><trkpt lat="42.260350979306644" lon="13.730840867908691"><ele>670.0</ele><time>2026-05-02T09:18:11.999Z</time></trkpt><trkpt lat="42.260267697377" lon="13.730780213389806"><ele>670.0</ele><time>2026-05-02T09:18:12.999Z</time></trkpt><trkpt lat="42.26018540585736" lon="13.730713465347872"><ele>670.0</ele><time>2026-05-02T09:18:13.999Z</time></trkpt><trkpt lat="42.260115782153285" lon="13.730648147873199"><ele>670.0</ele><time>2026-05-02T09:18:14.999Z</time></trkpt><trkpt lat="42.26003433959371" lon="13.730593875673433"><ele>670.0</ele><time>2026-05-02T09:18:15.999Z</time></trkpt><trkpt lat="42.2599548965936" lon="13.73055301343486"><ele>670.0</ele><time>2026-05-02T09:18:16.999Z</time></trkpt><trkpt lat="42.25988139708887" lon="13.73051183132718"><ele>670.0</ele><time>2026-05-02T09:18:17.999Z</time></trkpt><trkpt lat="42.259786907122816" lon="13.730462091314488"><ele>668.6</ele><time>2026-05-02T09:18:18.999Z</time></trkpt><trkpt lat="42.25968404715839" lon="13.730420998599454"><ele>667.2</ele><time>2026-05-02T09:18:19.999Z</time></trkpt><trkpt lat="42.259591967661486" lon="13.730386633112959"><ele>665.8</ele><time>2026-05-02T09:18:20.999Z</time></trkpt><trkpt lat="42.25949370624275" lon="13.730341774760815"><ele>664.4</ele><time>2026-05-02T09:18:21.999Z</time></trkpt><trkpt lat="42.25939366727803" lon="13.730284548035378"><ele>663.0</ele><time>2026-05-02T09:18:22.999Z</time></trkpt><trkpt lat="42.25929517298047" lon="13.730230089777562"><ele>670.0</ele><time>2026-05-02T09:18:23.999Z</time></trkpt><trkpt lat="42.25917683900634" lon="13.73017419406479"><ele>677.0</ele><time>2026-05-02T09:18:24.999Z</time></trkpt><trkpt lat="42.259061319605244" lon="13.730129343382405"><ele>684.0</ele><time>2026-05-02T09:18:25.999Z</time></trkpt><trkpt lat="42.25895502007526" lon="13.730088735231359"><ele>691.0</ele><time>2026-05-02T09:18:26.999Z</time></trkpt><trkpt lat="42.25885002492207" lon="13.730047254330872"><ele>691.0</ele><time>2026-05-02T09:18:27.999Z</time></trkpt><trkpt lat="42.25874066283063" lon="13.729992570874806"><ele>691.0</ele><time>2026-05-02T09:18:28.999Z</time></trkpt><trkpt lat="42.25862187444278" lon="13.729924159788858"><ele>691.0</ele><time>2026-05-02T09:18:29.999Z</time></trkpt><trkpt lat="42.258511266446774" lon="13.729856387638925"><ele>691.0</ele><time>2026-05-02T09:18:30.999Z</time></trkpt><trkpt lat="42.25841377556487" lon="13.729789836871086"><ele>691.0</ele><time>2026-05-02T09:18:31.999Z</time></trkpt><trkpt lat="42.258323471470696" lon="13.729721523367532"><ele>691.0</ele><time>2026-05-02T09:18:32.999Z</time></trkpt><trkpt lat="42.25823786915861" lon="13.729667507288827"><ele>691.0</ele><time>2026-05-02T09:18:33.999Z</time></trkpt><trkpt lat="42.25814833361833" lon="13.72962639708876"><ele>691.0</ele><time>2026-05-02T09:18:34.999Z</time></trkpt><trkpt lat="42.258054241258954" lon="13.729592727928647"><ele>691.0</ele><time>2026-05-02T09:18:35.999Z</time></trkpt><trkpt lat="42.257959177839076" lon="13.729571691061793"><ele>689.8</ele><time>2026-05-02T09:18:36.999Z</time></trkpt><trkpt lat="42.257855612117424" lon="13.72955104754894"><ele>688.5999999999999</ele><time>2026-05-02T09:18:37.999Z</time></trkpt><trkpt lat="42.257755867379345" lon="13.729532436620925"><ele>687.4</ele><time>2026-05-02T09:18:38.999Z</time></trkpt><trkpt lat="42.257664873181106" lon="13.729511659203292"><ele>686.2</ele><time>2026-05-02T09:18:39.999Z</time></trkpt><trkpt lat="42.25757819518675" lon="13.7294826635948"><ele>685.0</ele><time>2026-05-02T09:18:40.999Z</time></trkpt><trkpt lat="42.25749226897514" lon="13.729444175019141"><ele>685.0</ele><time>2026-05-02T09:18:41.999Z</time></trkpt><trkpt lat="42.25742535591861" lon="13.729401524787876"><ele>685.0</ele><time>2026-05-02T09:18:42.999Z</time></trkpt><trkpt lat="42.25733652761891" lon="13.729296570872332"><ele>685.0</ele><time>2026-05-02T09:18:44.998Z</time></trkpt><trkpt lat="42.25730675935091" lon="13.729205613731487"><ele>685.0</ele><time>2026-05-02T09:18:45.998Z</time></trkpt><trkpt lat="42.25727335238757" lon="13.729106426614845"><ele>685.0</ele><time>2026-05-02T09:18:46.998Z</time></trkpt><trkpt lat="42.257236381401746" lon="13.728991690655944"><ele>685.0</ele><time>2026-05-02T09:18:48Z</time></trkpt><trkpt lat="42.257199277208095" lon="13.7288797941012"><ele>686.0</ele><time>2026-05-02T09:18:49Z</time></trkpt><trkpt lat="42.257157255604355" lon="13.728774126127846"><ele>687.0</ele><time>2026-05-02T09:18:50Z</time></trkpt><trkpt lat="42.25711593560598" lon="13.728688113865537"><ele>688.0</ele><time>2026-05-02T09:18:51Z</time></trkpt><trkpt lat="42.257000732780945" lon="13.728578315503364"><ele>689.0</ele><time>2026-05-02T09:18:53Z</time></trkpt><trkpt lat="42.25691821498475" lon="13.728506465811368"><ele>690.0</ele><time>2026-05-02T09:18:54Z</time></trkpt><trkpt lat="42.25684570197286" lon="13.728423840434278"><ele>695.2</ele><time>2026-05-02T09:18:55Z</time></trkpt><trkpt lat="42.25676964072724" lon="13.728324052335902"><ele>700.4</ele><time>2026-05-02T09:18:56Z</time></trkpt><trkpt lat="42.256694029249935" lon="13.728234278768262"><ele>705.5999999999999</ele><time>2026-05-02T09:18:57Z</time></trkpt><trkpt lat="42.256602249756774" lon="13.728171414382091"><ele>710.8</ele><time>2026-05-02T09:18:58Z</time></trkpt><trkpt lat="42.25650814523903" lon="13.728107841921469"><ele>716.0</ele><time>2026-05-02T09:18:59Z</time></trkpt><trkpt lat="42.256407466351966" lon="13.728036570691252"><ele>716.0</ele><time>2026-05-02T09:19:00Z</time></trkpt><trkpt lat="42.25631222058239" lon="13.727961233835716"><ele>716.0</ele><time>2026-05-02T09:19:01Z</time></trkpt><trkpt lat="42.25622457431907" lon="13.727886913385623"><ele>716.0</ele><time>2026-05-02T09:19:02Z</time></trkpt><trkpt lat="42.25613114447981" lon="13.72780152053583"><ele>716.0</ele><time>2026-05-02T09:19:03Z</time></trkpt><trkpt lat="42.2560427458884" lon="13.727733716750251"><ele>716.0</ele><time>2026-05-02T09:19:04Z</time></trkpt><trkpt lat="42.25595956487904" lon="13.727673503478716"><ele>721.5</ele><time>2026-05-02T09:19:05Z</time></trkpt><trkpt lat="42.255875401086165" lon="13.7276261523241"><ele>727.0</ele><time>2026-05-02T09:19:06Z</time></trkpt><trkpt lat="42.25578445453333" lon="13.727584784217791"><ele>732.5</ele><time>2026-05-02T09:19:07Z</time></trkpt><trkpt lat="42.2556984527702" lon="13.72756601978345"><ele>738.0</ele><time>2026-05-02T09:19:08Z</time></trkpt><trkpt lat="42.25561358648734" lon="13.72757677104376"><ele>743.5</ele><time>2026-05-02T09:19:09Z</time></trkpt><trkpt lat="42.25555072959416" lon="13.727606128881206"><ele>749.0</ele><time>2026-05-02T09:19:10Z</time></trkpt><trkpt lat="42.255458434017285" lon="13.727583376623075"><ele>749.0</ele><time>2026-05-02T09:19:28.999Z</time></trkpt><trkpt lat="42.25541845165867" lon="13.727483036480924"><ele>749.0</ele><time>2026-05-02T09:19:30.999Z</time></trkpt><trkpt lat="42.255425174900566" lon="13.727382046676238"><ele>749.0</ele><time>2026-05-02T09:19:32.999Z</time></trkpt><trkpt lat="42.255448576271405" lon="13.727294409137802"><ele>749.0</ele><time>2026-05-02T09:19:33.999Z</time></trkpt><trkpt lat="42.255466760067705" lon="13.72718804047052"><ele>749.0</ele><time>2026-05-02T09:19:34.999Z</time></trkpt><trkpt lat="42.25547461953456" lon="13.727074066145393"><ele>749.0</ele><time>2026-05-02T09:19:35.999Z</time></trkpt><trkpt lat="42.25548017434068" lon="13.72696774299472"><ele>749.5</ele><time>2026-05-02T09:19:36.999Z</time></trkpt><trkpt lat="42.25549222721855" lon="13.726872820015274"><ele>750.0</ele><time>2026-05-02T09:19:37.999Z</time></trkpt><trkpt lat="42.25556250987785" lon="13.726760682717618"><ele>750.5</ele><time>2026-05-02T09:19:39.999Z</time></trkpt><trkpt lat="42.255620931177205" lon="13.726714236737426"><ele>751.0</ele><time>2026-05-02T09:19:40.999Z</time></trkpt><trkpt lat="42.255675187543005" lon="13.726651073462438"><ele>751.5</ele><time>2026-05-02T09:19:41.999Z</time></trkpt><trkpt lat="42.255708585757425" lon="13.726558017773282"><ele>752.0</ele><time>2026-05-02T09:19:42.999Z</time></trkpt><trkpt lat="42.255721260732436" lon="13.726456656906297"><ele>752.25</ele><time>2026-05-02T09:19:43.999Z</time></trkpt><trkpt lat="42.255700978202086" lon="13.726339580673015"><ele>752.5</ele><time>2026-05-02T09:19:44.999Z</time></trkpt><trkpt lat="42.25564872267815" lon="13.726194044764542"><ele>752.75</ele><time>2026-05-02T09:19:45.999Z</time></trkpt><trkpt lat="42.25558029649498" lon="13.726015203835503"><ele>753.0</ele><time>2026-05-02T09:19:46.999Z</time></trkpt><trkpt lat="42.2555143457486" lon="13.725842430983839"><ele>753.0</ele><time>2026-05-02T09:19:47.999Z</time></trkpt><trkpt lat="42.25546603917987" lon="13.725688218519373"><ele>753.0</ele><time>2026-05-02T09:19:48.999Z</time></trkpt><trkpt lat="42.25543258792182" lon="13.725548864402425"><ele>753.0</ele><time>2026-05-02T09:19:49.999Z</time></trkpt><trkpt lat="42.255394835637425" lon="13.725415130807523"><ele>753.0</ele><time>2026-05-02T09:19:50.999Z</time></trkpt><trkpt lat="42.25535858283057" lon="13.72528191035937"><ele>753.0</ele><time>2026-05-02T09:19:51.999Z</time></trkpt><trkpt lat="42.25533091474914" lon="13.725156512746747"><ele>755.1666666666666</ele><time>2026-05-02T09:19:52.999Z</time></trkpt><trkpt lat="42.25530457855608" lon="13.725043841185782"><ele>757.3333333333334</ele><time>2026-05-02T09:19:53.999Z</time></trkpt><trkpt lat="42.25528084152124" lon="13.724936488148206"><ele>759.5</ele><time>2026-05-02T09:19:54.999Z</time></trkpt><trkpt lat="42.25525581611178" lon="13.724833458789357"><ele>761.6666666666667</ele><time>2026-05-02T09:19:55.999Z</time></trkpt><trkpt lat="42.25521286039339" lon="13.724752079657254"><ele>763.8333333333334</ele><time>2026-05-02T09:19:56.999Z</time></trkpt><trkpt lat="42.25515096770665" lon="13.72468865295346"><ele>766.0</ele><time>2026-05-02T09:19:57.999Z</time></trkpt><trkpt lat="42.25506589522837" lon="13.724631368274132"><ele>766.0</ele><time>2026-05-02T09:19:58.999Z</time></trkpt><trkpt lat="42.25496340046459" lon="13.724586455959205"><ele>766.0</ele><time>2026-05-02T09:19:59.999Z</time></trkpt><trkpt lat="42.25484559060391" lon="13.72455384461028"><ele>766.0</ele><time>2026-05-02T09:20:00.999Z</time></trkpt><trkpt lat="42.25473981068182" lon="13.72451967386645"><ele>766.0</ele><time>2026-05-02T09:20:01.999Z</time></trkpt><trkpt lat="42.254656176700465" lon="13.724489876965132"><ele>766.0</ele><time>2026-05-02T09:20:02.999Z</time></trkpt><trkpt lat="42.25457956812141" lon="13.724457715368159"><ele>766.1666666666667</ele><time>2026-05-02T09:20:03.999Z</time></trkpt><trkpt lat="42.25450058980586" lon="13.724424344666248"><ele>766.3333333333334</ele><time>2026-05-02T09:20:04.999Z</time></trkpt><trkpt lat="42.254428508003116" lon="13.724375063309337"><ele>766.5</ele><time>2026-05-02T09:20:05.999Z</time></trkpt><trkpt lat="42.2543530714783" lon="13.724317806238059"><ele>766.6666666666666</ele><time>2026-05-02T09:20:06.999Z</time></trkpt><trkpt lat="42.25426589050063" lon="13.724249685239132"><ele>766.8333333333333</ele><time>2026-05-02T09:20:07.999Z</time></trkpt><trkpt lat="42.25418432467868" lon="13.724204776179485"><ele>767.0</ele><time>2026-05-02T09:20:08.999Z</time></trkpt><trkpt lat="42.254099581160695" lon="13.724178692135412"><ele>769.8333333333333</ele><time>2026-05-02T09:20:09.999Z</time></trkpt><trkpt lat="42.25402713001373" lon="13.724140335886922"><ele>772.6666666666666</ele><time>2026-05-02T09:20:10.999Z</time></trkpt><trkpt lat="42.25396698964816" lon="13.724080748174902"><ele>775.5</ele><time>2026-05-02T09:20:11.999Z</time></trkpt><trkpt lat="42.253926571497786" lon="13.724006251639057"><ele>778.3333333333333</ele><time>2026-05-02T09:20:12.999Z</time></trkpt><trkpt lat="42.25388230754412" lon="13.72391277343815"><ele>781.1666666666666</ele><time>2026-05-02T09:20:13.999Z</time></trkpt><trkpt lat="42.253860216223224" lon="13.72381029333219"><ele>784.0</ele><time>2026-05-02T09:20:14.999Z</time></trkpt><trkpt lat="42.25384324389341" lon="13.72371663795262"><ele>784.9999999999999</ele><time>2026-05-02T09:20:15.999Z</time></trkpt><trkpt lat="42.25379641286692" lon="13.723590067919892"><ele>786.0</ele><time>2026-05-02T09:20:17.999Z</time></trkpt><trkpt lat="42.25376670947331" lon="13.723487949922658"><ele>787.0</ele><time>2026-05-02T09:20:19.999Z</time></trkpt><trkpt lat="42.25374288553892" lon="13.723408379134767"><ele>788.0</ele><time>2026-05-02T09:20:21.999Z</time></trkpt><trkpt lat="42.25370478237339" lon="13.723338752474072"><ele>788.9999999999999</ele><time>2026-05-02T09:20:24.999Z</time></trkpt><trkpt lat="42.253682420418585" lon="13.723256885790677"><ele>790.0</ele><time>2026-05-02T09:20:28.999Z</time></trkpt><trkpt lat="42.253622853337674" lon="13.723118868031102"><ele>789.9999999999999</ele><time>2026-05-02T09:20:42.999Z</time></trkpt><trkpt lat="42.253579963261146" lon="13.723032731292893"><ele>790.0</ele><time>2026-05-02T09:20:43.999Z</time></trkpt><trkpt lat="42.253543263276605" lon="13.722949129526377"><ele>790.0</ele><time>2026-05-02T09:20:44.999Z</time></trkpt><trkpt lat="42.253540486101905" lon="13.72283280907059"><ele>790.0</ele><time>2026-05-02T09:20:45.999Z</time></trkpt><trkpt lat="42.25350315942883" lon="13.722742975522701"><ele>789.9999999999999</ele><time>2026-05-02T09:20:46.999Z</time></trkpt><trkpt lat="42.25347158739246" lon="13.72265173689586"><ele>790.0</ele><time>2026-05-02T09:20:47.999Z</time></trkpt><trkpt lat="42.253446280793284" lon="13.722559861904728"><ele>789.2857142857142</ele><time>2026-05-02T09:20:48.999Z</time></trkpt><trkpt lat="42.25342352968276" lon="13.72247307742626"><ele>788.5714285714287</ele><time>2026-05-02T09:20:49.998Z</time></trkpt><trkpt lat="42.253401879856455" lon="13.722383766710978"><ele>787.8571428571429</ele><time>2026-05-02T09:20:50.998Z</time></trkpt><trkpt lat="42.253379197636654" lon="13.722291334725478"><ele>787.1428571428571</ele><time>2026-05-02T09:20:51.998Z</time></trkpt><trkpt lat="42.25339377791462" lon="13.72219731523129"><ele>786.4285714285713</ele><time>2026-05-02T09:20:52.998Z</time></trkpt><trkpt lat="42.2534205754415" lon="13.72211094947166"><ele>785.7142857142858</ele><time>2026-05-02T09:20:54Z</time></trkpt><trkpt lat="42.25345567905234" lon="13.722029865376108"><ele>785.0</ele><time>2026-05-02T09:20:55Z</time></trkpt><trkpt lat="42.25349845787195" lon="13.721950076332794"><ele>784.2857142857143</ele><time>2026-05-02T09:20:56Z</time></trkpt><trkpt lat="42.253541473577535" lon="13.721866275682773"><ele>783.5714285714286</ele><time>2026-05-02T09:20:57Z</time></trkpt><trkpt lat="42.25358826655383" lon="13.721791241844793"><ele>782.8571428571429</ele><time>2026-05-02T09:20:58Z</time></trkpt><trkpt lat="42.25364091888933" lon="13.72172235460093"><ele>782.1428571428571</ele><time>2026-05-02T09:20:59Z</time></trkpt><trkpt lat="42.253684715199505" lon="13.72164613216377"><ele>781.4285714285713</ele><time>2026-05-02T09:21:00Z</time></trkpt><trkpt lat="42.253710588034664" lon="13.721553819525443"><ele>780.7142857142857</ele><time>2026-05-02T09:21:01Z</time></trkpt><trkpt lat="42.253735677134706" lon="13.721454603908793"><ele>780.0</ele><time>2026-05-02T09:21:02Z</time></trkpt><trkpt lat="42.253693368878885" lon="13.721334286700486"><ele>780.0</ele><time>2026-05-02T09:21:03Z</time></trkpt><trkpt lat="42.253659062760505" lon="13.721229265703823"><ele>780.0</ele><time>2026-05-02T09:21:04Z</time></trkpt><trkpt lat="42.253622729871886" lon="13.721134395358868"><ele>780.0</ele><time>2026-05-02T09:21:05Z</time></trkpt><trkpt lat="42.25358088876227" lon="13.72105189853595"><ele>780.0</ele><time>2026-05-02T09:21:06Z</time></trkpt><trkpt lat="42.25352905305682" lon="13.720984727726359"><ele>780.0</ele><time>2026-05-02T09:21:07Z</time></trkpt><trkpt lat="42.25346803070052" lon="13.720936276748159"><ele>780.0</ele><time>2026-05-02T09:21:08Z</time></trkpt><trkpt lat="42.2533867496225" lon="13.720913051180256"><ele>779.4</ele><time>2026-05-02T09:21:09Z</time></trkpt><trkpt lat="42.25328669951394" lon="13.720901690904675"><ele>778.8</ele><time>2026-05-02T09:21:10Z</time></trkpt><trkpt lat="42.25318609930628" lon="13.720870913593716"><ele>778.2</ele><time>2026-05-02T09:21:11Z</time></trkpt><trkpt lat="42.2530972795107" lon="13.720824721165574"><ele>777.6</ele><time>2026-05-02T09:21:12Z</time></trkpt><trkpt lat="42.25302118456384" lon="13.720781042722363"><ele>777.0</ele><time>2026-05-02T09:21:13Z</time></trkpt><trkpt lat="42.25295435245254" lon="13.720744133101066"><ele>777.0</ele><time>2026-05-02T09:21:14Z</time></trkpt><trkpt lat="42.25289186696765" lon="13.720708896422552"><ele>777.0</ele><time>2026-05-02T09:21:15Z</time></trkpt><trkpt lat="42.25283101468934" lon="13.720672353160388"><ele>777.0</ele><time>2026-05-02T09:21:16Z</time></trkpt><trkpt lat="42.252764043793775" lon="13.720631830346445"><ele>777.0</ele><time>2026-05-02T09:21:17Z</time></trkpt><trkpt lat="42.25269432788541" lon="13.720587733814954"><ele>777.0</ele><time>2026-05-02T09:21:18Z</time></trkpt><trkpt lat="42.25262839502249" lon="13.720543894440157"><ele>777.0</ele><time>2026-05-02T09:21:19Z</time></trkpt><trkpt lat="42.25256698083154" lon="13.720493911762631"><ele>777.0</ele><time>2026-05-02T09:21:20Z</time></trkpt><trkpt lat="42.25249931519973" lon="13.720438839755197"><ele>777.0</ele><time>2026-05-02T09:21:21Z</time></trkpt><trkpt lat="42.252431283779806" lon="13.720372976608164"><ele>777.0</ele><time>2026-05-02T09:21:22Z</time></trkpt><trkpt lat="42.252367693461984" lon="13.720296337412298"><ele>777.0</ele><time>2026-05-02T09:21:23Z</time></trkpt><trkpt lat="42.252307319040504" lon="13.720220505873998"><ele>777.0</ele><time>2026-05-02T09:21:24Z</time></trkpt><trkpt lat="42.252240087944955" lon="13.72015643616008"><ele>777.0</ele><time>2026-05-02T09:21:25Z</time></trkpt><trkpt lat="42.252171729750486" lon="13.720092431442017"><ele>777.0</ele><time>2026-05-02T09:21:26Z</time></trkpt><trkpt lat="42.25210258100503" lon="13.72002527619428"><ele>777.6</ele><time>2026-05-02T09:21:27Z</time></trkpt><trkpt lat="42.25203024913801" lon="13.719958581747536"><ele>778.2</ele><time>2026-05-02T09:21:27.999Z</time></trkpt><trkpt lat="42.25196336569966" lon="13.719898328526435"><ele>778.8</ele><time>2026-05-02T09:21:28.999Z</time></trkpt><trkpt lat="42.25186672279747" lon="13.719807777329184"><ele>779.4</ele><time>2026-05-02T09:21:30.999Z</time></trkpt><trkpt lat="42.2517631730257" lon="13.71972071270136"><ele>780.0</ele><time>2026-05-02T09:21:32.999Z</time></trkpt><trkpt lat="42.25166058948759" lon="13.719635653669062"><ele>780.0</ele><time>2026-05-02T09:21:34.999Z</time></trkpt><trkpt lat="42.25157264003195" lon="13.719556821617353"><ele>780.0</ele><time>2026-05-02T09:21:36.999Z</time></trkpt><trkpt lat="42.251494553606406" lon="13.719474555442657"><ele>780.0</ele><time>2026-05-02T09:21:38.999Z</time></trkpt><trkpt lat="42.25142732339002" lon="13.719378987216082"><ele>780.0</ele><time>2026-05-02T09:21:40.999Z</time></trkpt><trkpt lat="42.25135835062364" lon="13.71926736721637"><ele>780.0</ele><time>2026-05-02T09:21:42.999Z</time></trkpt><trkpt lat="42.251303611949574" lon="13.719138821751242"><ele>778.6</ele><time>2026-05-02T09:21:44.999Z</time></trkpt><trkpt lat="42.25122654154529" lon="13.719040368540522"><ele>777.2</ele><time>2026-05-02T09:21:46.999Z</time></trkpt><trkpt lat="42.2511431503788" lon="13.71895889854732"><ele>775.8</ele><time>2026-05-02T09:21:48.999Z</time></trkpt><trkpt lat="42.25104798782929" lon="13.718895011003713"><ele>774.4</ele><time>2026-05-02T09:21:50.999Z</time></trkpt><trkpt lat="42.2509467549321" lon="13.718834857107277"><ele>773.0</ele><time>2026-05-02T09:21:52.999Z</time></trkpt><trkpt lat="42.2508388233119" lon="13.718787802977765"><ele>773.0</ele><time>2026-05-02T09:21:54.999Z</time></trkpt><trkpt lat="42.25072907064721" lon="13.718755618811818"><ele>773.0</ele><time>2026-05-02T09:21:56.999Z</time></trkpt><trkpt lat="42.25063124647766" lon="13.718706381033895"><ele>773.0</ele><time>2026-05-02T09:21:58.999Z</time></trkpt><trkpt lat="42.25054253284242" lon="13.718646545109072"><ele>773.0</ele><time>2026-05-02T09:22:00.999Z</time></trkpt><trkpt lat="42.250439847188325" lon="13.71855391849736"><ele>773.0</ele><time>2026-05-02T09:22:02.999Z</time></trkpt><trkpt lat="42.25038510863543" lon="13.718493954255331"><ele>773.0000000000001</ele><time>2026-05-02T09:22:03.999Z</time></trkpt><trkpt lat="42.250322177780745" lon="13.718443558693219"><ele>773.0</ele><time>2026-05-02T09:22:04.999Z</time></trkpt><trkpt lat="42.2502709262868" lon="13.71837002147084"><ele>773.0</ele><time>2026-05-02T09:22:05.999Z</time></trkpt><trkpt lat="42.25023390243277" lon="13.718278070376686"><ele>773.0</ele><time>2026-05-02T09:22:06.999Z</time></trkpt><trkpt lat="42.25018239420056" lon="13.718192190905652"><ele>773.0000000000001</ele><time>2026-05-02T09:22:07.999Z</time></trkpt><trkpt lat="42.25011653257821" lon="13.718121200407833"><ele>773.0</ele><time>2026-05-02T09:22:08.999Z</time></trkpt><trkpt lat="42.25006724064627" lon="13.718036722159459"><ele>773.0000000000001</ele><time>2026-05-02T09:22:09.999Z</time></trkpt><trkpt lat="42.25001955128467" lon="13.71795883942928"><ele>773.0</ele><time>2026-05-02T09:22:10.999Z</time></trkpt><trkpt lat="42.24998354171019" lon="13.717878959795698"><ele>773.0</ele><time>2026-05-02T09:22:11.999Z</time></trkpt><trkpt lat="42.249957860578746" lon="13.717792469022612"><ele>773.0</ele><time>2026-05-02T09:22:12.999Z</time></trkpt><trkpt lat="42.24992457959466" lon="13.717697419301267"><ele>773.0000000000001</ele><time>2026-05-02T09:22:13.999Z</time></trkpt><trkpt lat="42.249898608356446" lon="13.717576327120497"><ele>773.0</ele><time>2026-05-02T09:22:14.999Z</time></trkpt><trkpt lat="42.249845519171814" lon="13.717452637957166"><ele>770.5999999999999</ele><time>2026-05-02T09:22:15.999Z</time></trkpt><trkpt lat="42.24976549885174" lon="13.717345650289024"><ele>768.1999999999999</ele><time>2026-05-02T09:22:16.999Z</time></trkpt><trkpt lat="42.24967723451976" lon="13.717253232800516"><ele>765.8</ele><time>2026-05-02T09:22:17.999Z</time></trkpt><trkpt lat="42.249595226109" lon="13.717170273082381"><ele>763.4</ele><time>2026-05-02T09:22:18.999Z</time></trkpt><trkpt lat="42.24951232939821" lon="13.717090440287757"><ele>761.0</ele><time>2026-05-02T09:22:19.999Z</time></trkpt><trkpt lat="42.24945240167656" lon="13.716967714227042"><ele>761.8</ele><time>2026-05-02T09:22:20.999Z</time></trkpt><trkpt lat="42.24940717007408" lon="13.716834892511326"><ele>762.5999999999999</ele><time>2026-05-02T09:22:21.999Z</time></trkpt><trkpt lat="42.24938289250926" lon="13.716701958509594"><ele>763.4</ele><time>2026-05-02T09:22:22.999Z</time></trkpt><trkpt lat="42.2493670796681" lon="13.716577118062807"><ele>764.2</ele><time>2026-05-02T09:22:23.999Z</time></trkpt><trkpt lat="42.24933722107109" lon="13.716476192772724"><ele>765.0</ele><time>2026-05-02T09:22:24.999Z</time></trkpt><trkpt lat="42.24928342002527" lon="13.716390695489578"><ele>765.0</ele><time>2026-05-02T09:22:25.999Z</time></trkpt><trkpt lat="42.249220349193855" lon="13.716324499277603"><ele>765.0</ele><time>2026-05-02T09:22:26.999Z</time></trkpt><trkpt lat="42.24914049484773" lon="13.716269406324974"><ele>765.0</ele><time>2026-05-02T09:22:27.999Z</time></trkpt><trkpt lat="42.2490270489485" lon="13.716203376657303"><ele>765.0</ele><time>2026-05-02T09:22:28.999Z</time></trkpt><trkpt lat="42.248906878251105" lon="13.716124256880814"><ele>765.0</ele><time>2026-05-02T09:22:29.999Z</time></trkpt><trkpt lat="42.2488088461356" lon="13.716036873867258"><ele>765.6</ele><time>2026-05-02T09:22:30.999Z</time></trkpt><trkpt lat="42.24872604516748" lon="13.715947134444914"><ele>766.2</ele><time>2026-05-02T09:22:31.999Z</time></trkpt><trkpt lat="42.248642737007906" lon="13.715857305967187"><ele>766.8</ele><time>2026-05-02T09:22:32.999Z</time></trkpt><trkpt lat="42.248555563138176" lon="13.715778061245214"><ele>767.4</ele><time>2026-05-02T09:22:33.999Z</time></trkpt><trkpt lat="42.24846972462211" lon="13.715699326466035"><ele>768.0</ele><time>2026-05-02T09:22:34.999Z</time></trkpt><trkpt lat="42.24838946443037" lon="13.715619983362677"><ele>768.0</ele><time>2026-05-02T09:22:35.999Z</time></trkpt><trkpt lat="42.24831327631673" lon="13.715548554441371"><ele>768.0</ele><time>2026-05-02T09:22:36.999Z</time></trkpt><trkpt lat="42.24824063966605" lon="13.71548409787179"><ele>768.0</ele><time>2026-05-02T09:22:37.999Z</time></trkpt><trkpt lat="42.24817089759012" lon="13.715400110680445"><ele>768.0</ele><time>2026-05-02T09:22:38.999Z</time></trkpt><trkpt lat="42.2481049045207" lon="13.715293696508216"><ele>768.0</ele><time>2026-05-02T09:22:39.999Z</time></trkpt><trkpt lat="42.248041850095575" lon="13.715162617576173"><ele>765.5</ele><time>2026-05-02T09:22:40.999Z</time></trkpt><trkpt lat="42.24797617166953" lon="13.715020824793646"><ele>763.0</ele><time>2026-05-02T09:22:41.999Z</time></trkpt><trkpt lat="42.247913731034075" lon="13.714880867040577"><ele>760.5</ele><time>2026-05-02T09:22:42.999Z</time></trkpt><trkpt lat="42.247853188760956" lon="13.714738055949313"><ele>758.0</ele><time>2026-05-02T09:22:43.999Z</time></trkpt><trkpt lat="42.24779712144499" lon="13.714590163370778"><ele>758.0</ele><time>2026-05-02T09:22:44.999Z</time></trkpt><trkpt lat="42.24774622611123" lon="13.714439148131731"><ele>758.0</ele><time>2026-05-02T09:22:45.999Z</time></trkpt><trkpt lat="42.24770178992497" lon="13.714283210671738"><ele>758.0</ele><time>2026-05-02T09:22:46.999Z</time></trkpt><trkpt lat="42.24766873932115" lon="13.71412807197348"><ele>758.0</ele><time>2026-05-02T09:22:47.999Z</time></trkpt><trkpt lat="42.247644321712784" lon="13.713975541183405"><ele>759.5999999999999</ele><time>2026-05-02T09:22:48.999Z</time></trkpt><trkpt lat="42.247631481404646" lon="13.713826275802418"><ele>761.1999999999999</ele><time>2026-05-02T09:22:49.999Z</time></trkpt><trkpt lat="42.247630295489905" lon="13.713684622835425"><ele>762.8</ele><time>2026-05-02T09:22:50.999Z</time></trkpt><trkpt lat="42.24763660842681" lon="13.713536278241323"><ele>764.4</ele><time>2026-05-02T09:22:51.999Z</time></trkpt><trkpt lat="42.24765307501342" lon="13.713387367539386"><ele>766.0</ele><time>2026-05-02T09:22:52.999Z</time></trkpt><trkpt lat="42.247677265300695" lon="13.713258988645354"><ele>766.1428571428571</ele><time>2026-05-02T09:22:53.999Z</time></trkpt><trkpt lat="42.24769910758828" lon="13.713146155293858"><ele>766.2857142857142</ele><time>2026-05-02T09:22:54.999Z</time></trkpt><trkpt lat="42.24771189607933" lon="13.713046023791863"><ele>766.4285714285714</ele><time>2026-05-02T09:22:55.999Z</time></trkpt><trkpt lat="42.24771327950319" lon="13.712950663727323"><ele>766.5714285714286</ele><time>2026-05-02T09:22:56.999Z</time></trkpt><trkpt lat="42.247707105358934" lon="13.712857069129942"><ele>766.7142857142858</ele><time>2026-05-02T09:22:57.998Z</time></trkpt><trkpt lat="42.24770696836644" lon="13.712760552622255"><ele>766.8571428571429</ele><time>2026-05-02T09:22:58.998Z</time></trkpt><trkpt lat="42.24771103639526" lon="13.712661044164733"><ele>767.0</ele><time>2026-05-02T09:23:00Z</time></trkpt><trkpt lat="42.24771293000873" lon="13.712561342869714"><ele>767.0</ele><time>2026-05-02T09:23:01Z</time></trkpt><trkpt lat="42.24771678725546" lon="13.712465919861929"><ele>767.0</ele><time>2026-05-02T09:23:02Z</time></trkpt><trkpt lat="42.2477257147488" lon="13.712373907465604"><ele>767.0</ele><time>2026-05-02T09:23:03Z</time></trkpt><trkpt lat="42.247726588569655" lon="13.712275850974384"><ele>767.0</ele><time>2026-05-02T09:23:04Z</time></trkpt><trkpt lat="42.24772303251358" lon="13.71216853198307"><ele>767.0</ele><time>2026-05-02T09:23:05Z</time></trkpt><trkpt lat="42.247725208652724" lon="13.712054081451326"><ele>767.0</ele><time>2026-05-02T09:23:06Z</time></trkpt><trkpt lat="42.247740781745726" lon="13.711934284191615"><ele>766.4000000000001</ele><time>2026-05-02T09:23:07Z</time></trkpt><trkpt lat="42.247764972542534" lon="13.711810645983189"><ele>765.8000000000001</ele><time>2026-05-02T09:23:08Z</time></trkpt><trkpt lat="42.247796229473266" lon="13.711691884621212"><ele>765.2</ele><time>2026-05-02T09:23:09Z</time></trkpt><trkpt lat="42.24783231204061" lon="13.711576813419734"><ele>764.6</ele><time>2026-05-02T09:23:10Z</time></trkpt><trkpt lat="42.24786392612689" lon="13.711461080548428"><ele>764.0</ele><time>2026-05-02T09:23:11Z</time></trkpt><trkpt lat="42.24789547701781" lon="13.711349505667217"><ele>764.0</ele><time>2026-05-02T09:23:12Z</time></trkpt><trkpt lat="42.24792850646939" lon="13.711250165105369"><ele>764.0</ele><time>2026-05-02T09:23:13Z</time></trkpt><trkpt lat="42.24795942836138" lon="13.71116377343659"><ele>764.0</ele><time>2026-05-02T09:23:14Z</time></trkpt><trkpt lat="42.247986374293276" lon="13.711074276967677"><ele>764.0</ele><time>2026-05-02T09:23:15Z</time></trkpt><trkpt lat="42.2480069137728" lon="13.710992217903568"><ele>764.0</ele><time>2026-05-02T09:23:16Z</time></trkpt><trkpt lat="42.24804350566722" lon="13.710884000548866"><ele>764.0</ele><time>2026-05-02T09:23:18Z</time></trkpt><trkpt lat="42.248072466883784" lon="13.710790245491822"><ele>764.6</ele><time>2026-05-02T09:23:20Z</time></trkpt><trkpt lat="42.24811193455479" lon="13.71068896677355"><ele>765.2</ele><time>2026-05-02T09:23:22Z</time></trkpt><trkpt lat="42.2481509741812" lon="13.710571085154896"><ele>765.8000000000001</ele><time>2026-05-02T09:23:24Z</time></trkpt><trkpt lat="42.248174510995504" lon="13.710420506781654"><ele>766.4000000000001</ele><time>2026-05-02T09:23:26Z</time></trkpt><trkpt lat="42.24818067870378" lon="13.710256946942524"><ele>767.0</ele><time>2026-05-02T09:23:28Z</time></trkpt><trkpt lat="42.24814174251375" lon="13.71009721629376"><ele>769.6666666666666</ele><time>2026-05-02T09:23:29.999Z</time></trkpt><trkpt lat="42.24810230448224" lon="13.71002507311147"><ele>772.3333333333333</ele><time>2026-05-02T09:23:30.999Z</time></trkpt><trkpt lat="42.2480570707175" lon="13.709962253398384"><ele>775.0</ele><time>2026-05-02T09:23:31.999Z</time></trkpt><trkpt lat="42.247995551451034" lon="13.709909447093098"><ele>777.6666666666666</ele><time>2026-05-02T09:23:32.999Z</time></trkpt><trkpt lat="42.2479207211336" lon="13.709874584922265"><ele>780.3333333333334</ele><time>2026-05-02T09:23:33.999Z</time></trkpt><trkpt lat="42.24784028293766" lon="13.709861829893933"><ele>783.0</ele><time>2026-05-02T09:23:34.999Z</time></trkpt><trkpt lat="42.247753999490975" lon="13.709864776064032"><ele>783.0</ele><time>2026-05-02T09:23:35.999Z</time></trkpt><trkpt lat="42.247675538250405" lon="13.709878933167438"><ele>783.0</ele><time>2026-05-02T09:23:36.999Z</time></trkpt><trkpt lat="42.24759062903236" lon="13.709896856008429"><ele>783.0</ele><time>2026-05-02T09:23:37.999Z</time></trkpt><trkpt lat="42.247502147148936" lon="13.709919455671786"><ele>783.0</ele><time>2026-05-02T09:23:38.999Z</time></trkpt><trkpt lat="42.247408189330365" lon="13.709944766016717"><ele>783.0</ele><time>2026-05-02T09:23:39.999Z</time></trkpt><trkpt lat="42.24730024259857" lon="13.709975658872795"><ele>784.0</ele><time>2026-05-02T09:23:40.999Z</time></trkpt><trkpt lat="42.24719233085428" lon="13.710017195350945"><ele>785.0</ele><time>2026-05-02T09:23:41.999Z</time></trkpt><trkpt lat="42.24709586892311" lon="13.71005720938913"><ele>786.0</ele><time>2026-05-02T09:23:42.999Z</time></trkpt><trkpt lat="42.2469904384967" lon="13.710089869857871"><ele>787.0</ele><time>2026-05-02T09:23:43.999Z</time></trkpt><trkpt lat="42.246884035842804" lon="13.71011215049893"><ele>788.0</ele><time>2026-05-02T09:23:44.999Z</time></trkpt><trkpt lat="42.24678123191531" lon="13.71012553977618"><ele>788.0</ele><time>2026-05-02T09:23:45.999Z</time></trkpt><trkpt lat="42.24668099130078" lon="13.71011727709385"><ele>788.0</ele><time>2026-05-02T09:23:46.999Z</time></trkpt><trkpt lat="42.24659290681808" lon="13.710080226497281"><ele>788.0</ele><time>2026-05-02T09:23:47.999Z</time></trkpt><trkpt lat="42.24651194651746" lon="13.710018012195828"><ele>788.0</ele><time>2026-05-02T09:23:48.999Z</time></trkpt><trkpt lat="42.246433218948134" lon="13.709955834021738"><ele>788.0</ele><time>2026-05-02T09:23:49.999Z</time></trkpt><trkpt lat="42.24635735448844" lon="13.709899353528114"><ele>787.5000000000001</ele><time>2026-05-02T09:23:50.999Z</time></trkpt><trkpt lat="42.246293064475694" lon="13.709841959506825"><ele>787.0</ele><time>2026-05-02T09:23:51.999Z</time></trkpt><trkpt lat="42.24623769069529" lon="13.709787916407336"><ele>786.5</ele><time>2026-05-02T09:23:52.999Z</time></trkpt><trkpt lat="42.24617023935528" lon="13.709672442858968"><ele>786.0</ele><time>2026-05-02T09:23:54.999Z</time></trkpt><trkpt lat="42.24607659255422" lon="13.709646425793652"><ele>785.5000000000001</ele><time>2026-05-02T09:23:56.999Z</time></trkpt><trkpt lat="42.24601257512925" lon="13.70957597536563"><ele>785.0</ele><time>2026-05-02T09:23:58.999Z</time></trkpt><trkpt lat="42.24596613862267" lon="13.709506774047009"><ele>785.2</ele><time>2026-05-02T09:23:59.999Z</time></trkpt><trkpt lat="42.245923777909375" lon="13.709401074365697"><ele>785.4</ele><time>2026-05-02T09:24:00.999Z</time></trkpt><trkpt lat="42.245892856966364" lon="13.70926951363086"><ele>785.5999999999999</ele><time>2026-05-02T09:24:01.999Z</time></trkpt><trkpt lat="42.24586539521565" lon="13.70912628667013"><ele>785.8</ele><time>2026-05-02T09:24:02.999Z</time></trkpt><trkpt lat="42.2458269426394" lon="13.708974265727159"><ele>786.0</ele><time>2026-05-02T09:24:03.999Z</time></trkpt><trkpt lat="42.245787682133184" lon="13.708821216355075"><ele>786.0</ele><time>2026-05-02T09:24:04.999Z</time></trkpt><trkpt lat="42.24575160221562" lon="13.708664213473702"><ele>786.0</ele><time>2026-05-02T09:24:05.999Z</time></trkpt><trkpt lat="42.245711109075366" lon="13.708506182142001"><ele>786.0</ele><time>2026-05-02T09:24:06.999Z</time></trkpt><trkpt lat="42.245667118672195" lon="13.708346746463063"><ele>786.0</ele><time>2026-05-02T09:24:07.999Z</time></trkpt><trkpt lat="42.245642094319386" lon="13.708179108895314"><ele>784.75</ele><time>2026-05-02T09:24:08.999Z</time></trkpt><trkpt lat="42.24560239774336" lon="13.708020590886576"><ele>783.5</ele><time>2026-05-02T09:24:09.999Z</time></trkpt><trkpt lat="42.245564870028154" lon="13.707870733650964"><ele>782.25</ele><time>2026-05-02T09:24:10.999Z</time></trkpt><trkpt lat="42.2455294834645" lon="13.707729426594007"><ele>781.0</ele><time>2026-05-02T09:24:11.999Z</time></trkpt><trkpt lat="42.2454778082714" lon="13.707591528574177"><ele>781.0</ele><time>2026-05-02T09:24:12.999Z</time></trkpt><trkpt lat="42.24544191530594" lon="13.70744004961138"><ele>781.0</ele><time>2026-05-02T09:24:13.999Z</time></trkpt><trkpt lat="42.245403864343835" lon="13.707288696686955"><ele>781.0</ele><time>2026-05-02T09:24:14.999Z</time></trkpt><trkpt lat="42.245363349948306" lon="13.707135658195025"><ele>781.0</ele><time>2026-05-02T09:24:15.999Z</time></trkpt><trkpt lat="42.245325704177546" lon="13.706992782189488"><ele>780.9999999999999</ele><time>2026-05-02T09:24:16.999Z</time></trkpt><trkpt lat="42.245297899170396" lon="13.706885950094843"><ele>781.0</ele><time>2026-05-02T09:24:17.999Z</time></trkpt><trkpt lat="42.24526598906281" lon="13.706782917941139"><ele>781.0</ele><time>2026-05-02T09:24:19.999Z</time></trkpt><trkpt lat="42.24525510867098" lon="13.706869672485984"><ele>781.0</ele><time>2026-05-02T09:24:24.999Z</time></trkpt><trkpt lat="42.24522051098158" lon="13.70698878271785"><ele>780.9999999999999</ele><time>2026-05-02T09:24:27.999Z</time></trkpt><trkpt lat="42.24518480227524" lon="13.707059700760553"><ele>781.0</ele><time>2026-05-02T09:24:28.999Z</time></trkpt><trkpt lat="42.245112283317006" lon="13.707240405770822"><ele>780.9999999999999</ele><time>2026-05-02T09:24:30.999Z</time></trkpt><trkpt lat="42.24505984310069" lon="13.70737889832999"><ele>781.0</ele><time>2026-05-02T09:24:31.999Z</time></trkpt><trkpt lat="42.24502219452566" lon="13.70747943265312"><ele>781.0</ele><time>2026-05-02T09:24:32.999Z</time></trkpt><trkpt lat="42.244981150278115" lon="13.707573535371957"><ele>781.0</ele><time>2026-05-02T09:24:33.999Z</time></trkpt><trkpt lat="42.24494887917594" lon="13.707666244848202"><ele>780.9999999999999</ele><time>2026-05-02T09:24:34.999Z</time></trkpt><trkpt lat="42.2449164554794" lon="13.707764486300995"><ele>781.0</ele><time>2026-05-02T09:24:35.999Z</time></trkpt><trkpt lat="42.24488350006093" lon="13.707864908849665"><ele>779.8333333333333</ele><time>2026-05-02T09:24:36.999Z</time></trkpt><trkpt lat="42.24485014257683" lon="13.70796056453563"><ele>778.6666666666666</ele><time>2026-05-02T09:24:37.999Z</time></trkpt><trkpt lat="42.244821805348565" lon="13.70804784577733"><ele>777.5</ele><time>2026-05-02T09:24:38.999Z</time></trkpt><trkpt lat="42.244768510280124" lon="13.708204716829341"><ele>776.3333333333333</ele><time>2026-05-02T09:24:40.999Z</time></trkpt><trkpt lat="42.24474501876336" lon="13.708299847316093"><ele>775.1666666666666</ele><time>2026-05-02T09:24:41.999Z</time></trkpt><trkpt lat="42.244730720679115" lon="13.708392090867193"><ele>774.0</ele><time>2026-05-02T09:24:42.999Z</time></trkpt><trkpt lat="42.244707254755205" lon="13.708484065488774"><ele>773.6666666666666</ele><time>2026-05-02T09:24:43.999Z</time></trkpt><trkpt lat="42.244669161990196" lon="13.708570939821241"><ele>773.3333333333333</ele><time>2026-05-02T09:24:44.999Z</time></trkpt><trkpt lat="42.24461678249896" lon="13.70865464346312"><ele>773.0</ele><time>2026-05-02T09:24:45.999Z</time></trkpt><trkpt lat="42.244566631023055" lon="13.708742694525881"><ele>772.6666666666666</ele><time>2026-05-02T09:24:46.999Z</time></trkpt><trkpt lat="42.24452032152792" lon="13.708831262173385"><ele>772.3333333333333</ele><time>2026-05-02T09:24:47.999Z</time></trkpt><trkpt lat="42.24447260856921" lon="13.70892590256458"><ele>772.0</ele><time>2026-05-02T09:24:48.999Z</time></trkpt><trkpt lat="42.24443135048371" lon="13.709023808112516"><ele>769.6666666666666</ele><time>2026-05-02T09:24:49.999Z</time></trkpt><trkpt lat="42.24439728220842" lon="13.709122231099489"><ele>767.3333333333333</ele><time>2026-05-02T09:24:50.999Z</time></trkpt><trkpt lat="42.244368601376856" lon="13.709211980120175"><ele>765.0</ele><time>2026-05-02T09:24:51.999Z</time></trkpt><trkpt lat="42.244285373547" lon="13.709331830433191"><ele>762.6666666666666</ele><time>2026-05-02T09:24:53.999Z</time></trkpt><trkpt lat="42.24423303368377" lon="13.709393740188272"><ele>760.3333333333333</ele><time>2026-05-02T09:24:54.999Z</time></trkpt><trkpt lat="42.24416831455507" lon="13.709453601915659"><ele>758.0</ele><time>2026-05-02T09:24:55.999Z</time></trkpt><trkpt lat="42.24410710282836" lon="13.709499170118471"><ele>756.6666666666666</ele><time>2026-05-02T09:24:56.998Z</time></trkpt><trkpt lat="42.24404896083981" lon="13.709535486225016"><ele>755.3333333333333</ele><time>2026-05-02T09:24:57.998Z</time></trkpt><trkpt lat="42.243960269019" lon="13.7096082944509"><ele>754.0</ele><time>2026-05-02T09:24:59.998Z</time></trkpt><trkpt lat="42.24391187013499" lon="13.70966645432901"><ele>752.6666666666666</ele><time>2026-05-02T09:25:00.998Z</time></trkpt><trkpt lat="42.2438588516942" lon="13.709739730919178"><ele>751.3333333333334</ele><time>2026-05-02T09:25:01.998Z</time></trkpt><trkpt lat="42.243804306085735" lon="13.709817197340389"><ele>750.0</ele><time>2026-05-02T09:25:02.998Z</time></trkpt><trkpt lat="42.24375390841768" lon="13.709888309233257"><ele>749.1666666666666</ele><time>2026-05-02T09:25:03.998Z</time></trkpt><trkpt lat="42.243707805593814" lon="13.709946572755575"><ele>748.3333333333334</ele><time>2026-05-02T09:25:04.998Z</time></trkpt><trkpt lat="42.24362779177436" lon="13.710052628976825"><ele>747.5</ele><time>2026-05-02T09:25:07Z</time></trkpt><trkpt lat="42.243570964878835" lon="13.710129471005905"><ele>746.6666666666667</ele><time>2026-05-02T09:25:09Z</time></trkpt><trkpt lat="42.243513079638724" lon="13.71017889602685"><ele>745.8333333333334</ele><time>2026-05-02T09:25:14Z</time></trkpt><trkpt lat="42.243467885011086" lon="13.710240591261035"><ele>745.0</ele><time>2026-05-02T09:25:16Z</time></trkpt><trkpt lat="42.24338556630045" lon="13.71033237168343"><ele>743.8</ele><time>2026-05-02T09:25:18Z</time></trkpt><trkpt lat="42.2433056915612" lon="13.710415420347548"><ele>742.6</ele><time>2026-05-02T09:25:20Z</time></trkpt><trkpt lat="42.24322882515071" lon="13.71051995890556"><ele>741.4000000000001</ele><time>2026-05-02T09:25:22Z</time></trkpt><trkpt lat="42.243127984441266" lon="13.710620722686633"><ele>740.2</ele><time>2026-05-02T09:25:24Z</time></trkpt><trkpt lat="42.243085774353986" lon="13.710687178119366"><ele>739.0</ele><time>2026-05-02T09:25:25Z</time></trkpt><trkpt lat="42.24303287598256" lon="13.71073643306536"><ele>737.3333333333334</ele><time>2026-05-02T09:25:26Z</time></trkpt><trkpt lat="42.242979332911915" lon="13.710790661556647"><ele>735.6666666666667</ele><time>2026-05-02T09:25:27Z</time></trkpt><trkpt lat="42.24287577886319" lon="13.710893921626884"><ele>734.0</ele><time>2026-05-02T09:25:29Z</time></trkpt><trkpt lat="42.24282453878193" lon="13.710951450608196"><ele>732.3333333333334</ele><time>2026-05-02T09:25:29.999Z</time></trkpt><trkpt lat="42.24277014238573" lon="13.711013012963368"><ele>730.6666666666666</ele><time>2026-05-02T09:25:30.999Z</time></trkpt><trkpt lat="42.2427156966252" lon="13.7110758540028"><ele>729.0</ele><time>2026-05-02T09:25:31.999Z</time></trkpt><trkpt lat="42.24266194378559" lon="13.711143338854564"><ele>728.4285714285714</ele><time>2026-05-02T09:25:32.999Z</time></trkpt><trkpt lat="42.242609247325625" lon="13.711197228785776"><ele>727.8571428571428</ele><time>2026-05-02T09:25:33.999Z</time></trkpt><trkpt lat="42.24255523873143" lon="13.71124542279318"><ele>727.2857142857142</ele><time>2026-05-02T09:25:34.999Z</time></trkpt><trkpt lat="42.242496161591944" lon="13.711282127438531"><ele>726.7142857142858</ele><time>2026-05-02T09:25:35.999Z</time></trkpt><trkpt lat="42.24243188256456" lon="13.711317050575088"><ele>726.1428571428571</ele><time>2026-05-02T09:25:36.999Z</time></trkpt><trkpt lat="42.2423573891014" lon="13.711353401888342"><ele>725.5714285714286</ele><time>2026-05-02T09:25:37.999Z</time></trkpt><trkpt lat="42.24227392395569" lon="13.711390109142167"><ele>725.0</ele><time>2026-05-02T09:25:38.999Z</time></trkpt><trkpt lat="42.24219202500906" lon="13.711426481731621"><ele>722.6666666666666</ele><time>2026-05-02T09:25:39.999Z</time></trkpt><trkpt lat="42.24211773645916" lon="13.71146119935956"><ele>720.3333333333333</ele><time>2026-05-02T09:25:40.999Z</time></trkpt><trkpt lat="42.242043971435216" lon="13.71148462896544"><ele>718.0</ele><time>2026-05-02T09:25:41.999Z</time></trkpt><trkpt lat="42.24197077093329" lon="13.711503138795015"><ele>715.6666666666666</ele><time>2026-05-02T09:25:42.999Z</time></trkpt><trkpt lat="42.241898839034455" lon="13.711522020350666"><ele>713.3333333333334</ele><time>2026-05-02T09:25:43.999Z</time></trkpt><trkpt lat="42.241783277188595" lon="13.711600201363549"><ele>711.0</ele><time>2026-05-02T09:25:45.999Z</time></trkpt><trkpt lat="42.24171684383266" lon="13.711684625886516"><ele>711.0</ele><time>2026-05-02T09:25:46.999Z</time></trkpt><trkpt lat="42.24164490624915" lon="13.711777672556185"><ele>711.0</ele><time>2026-05-02T09:25:47.999Z</time></trkpt><trkpt lat="42.24157025636329" lon="13.711863947329716"><ele>711.0</ele><time>2026-05-02T09:25:48.999Z</time></trkpt><trkpt lat="42.24149435350159" lon="13.711947226808697"><ele>711.0</ele><time>2026-05-02T09:25:49.999Z</time></trkpt><trkpt lat="42.24141922208806" lon="13.712035025904195"><ele>711.0</ele><time>2026-05-02T09:25:50.999Z</time></trkpt><trkpt lat="42.241343418483176" lon="13.712121534652727"><ele>708.8</ele><time>2026-05-02T09:25:51.999Z</time></trkpt><trkpt lat="42.24127131498827" lon="13.712206547973294"><ele>706.5999999999999</ele><time>2026-05-02T09:25:52.999Z</time></trkpt><trkpt lat="42.241196799306195" lon="13.712286906731268"><ele>704.4</ele><time>2026-05-02T09:25:53.999Z</time></trkpt><trkpt lat="42.24112614744638" lon="13.712356629141896"><ele>702.2</ele><time>2026-05-02T09:25:54.999Z</time></trkpt><trkpt lat="42.241054406567535" lon="13.71243378685644"><ele>700.0</ele><time>2026-05-02T09:25:55.999Z</time></trkpt><trkpt lat="42.240981405624396" lon="13.712517818171737"><ele>700.0</ele><time>2026-05-02T09:25:56.999Z</time></trkpt><trkpt lat="42.24090582486454" lon="13.712598202778155"><ele>700.0</ele><time>2026-05-02T09:25:57.999Z</time></trkpt><trkpt lat="42.240838580135545" lon="13.712676394696569"><ele>700.0</ele><time>2026-05-02T09:25:58.999Z</time></trkpt><trkpt lat="42.24077320137316" lon="13.712752691781741"><ele>700.0</ele><time>2026-05-02T09:25:59.999Z</time></trkpt><trkpt lat="42.240711392681895" lon="13.712831804862313"><ele>700.0</ele><time>2026-05-02T09:26:00.999Z</time></trkpt><trkpt lat="42.24065627991596" lon="13.712915464303592"><ele>700.0</ele><time>2026-05-02T09:26:01.999Z</time></trkpt><trkpt lat="42.24060946663665" lon="13.713018359338344"><ele>698.6</ele><time>2026-05-02T09:26:02.999Z</time></trkpt><trkpt lat="42.24057170853688" lon="13.713145607006894"><ele>697.2</ele><time>2026-05-02T09:26:03.999Z</time></trkpt><trkpt lat="42.2405365366467" lon="13.71327600613784"><ele>695.8</ele><time>2026-05-02T09:26:04.999Z</time></trkpt><trkpt lat="42.24051354738349" lon="13.713402819125424"><ele>694.4</ele><time>2026-05-02T09:26:05.999Z</time></trkpt><trkpt lat="42.240479620340736" lon="13.713536846828601"><ele>693.0</ele><time>2026-05-02T09:26:06.999Z</time></trkpt><trkpt lat="42.240424176978436" lon="13.713657133697726"><ele>693.0</ele><time>2026-05-02T09:26:07.999Z</time></trkpt><trkpt lat="42.24036898901434" lon="13.713782263960553"><ele>693.0</ele><time>2026-05-02T09:26:08.999Z</time></trkpt><trkpt lat="42.24030592774297" lon="13.713906331632028"><ele>693.0</ele><time>2026-05-02T09:26:09.999Z</time></trkpt><trkpt lat="42.24023057822924" lon="13.714026596846002"><ele>693.0</ele><time>2026-05-02T09:26:10.999Z</time></trkpt><trkpt lat="42.24014875513469" lon="13.714156959724045"><ele>693.0</ele><time>2026-05-02T09:26:11.999Z</time></trkpt><trkpt lat="42.24007661629668" lon="13.714287697778003"><ele>693.0</ele><time>2026-05-02T09:26:12.999Z</time></trkpt><trkpt lat="42.24002901809451" lon="13.714412558863941"><ele>693.0</ele><time>2026-05-02T09:26:13.999Z</time></trkpt><trkpt lat="42.23997901400898" lon="13.714539571881454"><ele>693.0</ele><time>2026-05-02T09:26:14.999Z</time></trkpt><trkpt lat="42.239943979559484" lon="13.714650523037347"><ele>693.0</ele><time>2026-05-02T09:26:15.999Z</time></trkpt><trkpt lat="42.23990440127769" lon="13.714756154267262"><ele>692.25</ele><time>2026-05-02T09:26:16.999Z</time></trkpt><trkpt lat="42.23993250951023" lon="13.714930413045611"><ele>691.5</ele><time>2026-05-02T09:26:17.999Z</time></trkpt><trkpt lat="42.239936306822166" lon="13.715047351379395"><ele>690.75</ele><time>2026-05-02T09:26:18.999Z</time></trkpt><trkpt lat="42.23986600688904" lon="13.71519622145861"><ele>690.0</ele><time>2026-05-02T09:26:20.999Z</time></trkpt><trkpt lat="42.239791706314655" lon="13.715292949886752"><ele>689.6</ele><time>2026-05-02T09:26:21.999Z</time></trkpt><trkpt lat="42.239732755819574" lon="13.715403427612156"><ele>689.2</ele><time>2026-05-02T09:26:22.999Z</time></trkpt><trkpt lat="42.23968819273451" lon="13.715500117123073"><ele>688.8</ele><time>2026-05-02T09:26:23.999Z</time></trkpt><trkpt lat="42.23963826690598" lon="13.715590044652762"><ele>688.4</ele><time>2026-05-02T09:26:24.999Z</time></trkpt><trkpt lat="42.239555140686676" lon="13.71568282610322"><ele>688.0</ele><time>2026-05-02T09:26:25.999Z</time></trkpt><trkpt lat="42.239475930346025" lon="13.71579364403686"><ele>688.0</ele><time>2026-05-02T09:26:26.999Z</time></trkpt><trkpt lat="42.23939631005154" lon="13.715888557685446"><ele>688.0</ele><time>2026-05-02T09:26:27.999Z</time></trkpt><trkpt lat="42.23933013677003" lon="13.715972095994044"><ele>688.0</ele><time>2026-05-02T09:26:28.999Z</time></trkpt><trkpt lat="42.23927314685198" lon="13.716046278116291"><ele>688.0</ele><time>2026-05-02T09:26:29.999Z</time></trkpt><trkpt lat="42.23919823715754" lon="13.716135258183659"><ele>688.0</ele><time>2026-05-02T09:26:31.999Z</time></trkpt><trkpt lat="42.2391266105083" lon="13.716079672857491"><ele>688.0</ele><time>2026-05-02T09:26:34.999Z</time></trkpt><trkpt lat="42.2391039590041" lon="13.715994252934326"><ele>688.0</ele><time>2026-05-02T09:26:35.999Z</time></trkpt><trkpt lat="42.23908474960903" lon="13.715866502914562"><ele>688.0</ele><time>2026-05-02T09:26:37.999Z</time></trkpt><trkpt lat="42.239036921996075" lon="13.715806450832641"><ele>688.0</ele><time>2026-05-02T09:27:08.998Z</time></trkpt><trkpt lat="42.23899553219862" lon="13.715725861587819"><ele>688.0</ele><time>2026-05-02T09:27:09.998Z</time></trkpt><trkpt lat="42.23893811154667" lon="13.715632394290123"><ele>688.0</ele><time>2026-05-02T09:27:11Z</time></trkpt><trkpt lat="42.238867713378355" lon="13.715542515686144"><ele>688.0</ele><time>2026-05-02T09:27:12Z</time></trkpt><trkpt lat="42.238795553392684" lon="13.715445783816378"><ele>688.0</ele><time>2026-05-02T09:27:13Z</time></trkpt><trkpt lat="42.23871092922869" lon="13.71537976064192"><ele>688.0</ele><time>2026-05-02T09:27:14Z</time></trkpt><trkpt lat="42.23862504755034" lon="13.715349630372012"><ele>688.0</ele><time>2026-05-02T09:27:15Z</time></trkpt><trkpt lat="42.23855136979757" lon="13.71530509200854"><ele>688.0</ele><time>2026-05-02T09:27:16Z</time></trkpt><trkpt lat="42.238480254249446" lon="13.715268347130444"><ele>688.0</ele><time>2026-05-02T09:27:17Z</time></trkpt><trkpt lat="42.23840723075503" lon="13.715233669746262"><ele>687.8</ele><time>2026-05-02T09:27:18Z</time></trkpt><trkpt lat="42.238329527215456" lon="13.715197257567441"><ele>687.5999999999999</ele><time>2026-05-02T09:27:19Z</time></trkpt><trkpt lat="42.23825035218258" lon="13.71515691581961"><ele>687.4000000000001</ele><time>2026-05-02T09:27:20Z</time></trkpt><trkpt lat="42.2381774992144" lon="13.715094216345307"><ele>687.2</ele><time>2026-05-02T09:27:21Z</time></trkpt><trkpt lat="42.238106159193684" lon="13.715083302740936"><ele>687.0</ele><time>2026-05-02T09:27:22Z</time></trkpt><trkpt lat="42.23815705564246" lon="13.714799468585044"><ele>687.0</ele><time>2026-05-02T09:27:23Z</time></trkpt><trkpt lat="42.23807089811002" lon="13.714709456414777"><ele>687.0</ele><time>2026-05-02T09:27:24Z</time></trkpt><trkpt lat="42.23803726036596" lon="13.714573361651613"><ele>687.0</ele><time>2026-05-02T09:27:25Z</time></trkpt><trkpt lat="42.23797210960653" lon="13.714476699842715"><ele>687.0</ele><time>2026-05-02T09:27:26Z</time></trkpt><trkpt lat="42.23788558223898" lon="13.71442082824866"><ele>687.0</ele><time>2026-05-02T09:27:27Z</time></trkpt><trkpt lat="42.23779668184505" lon="13.714418666480633"><ele>687.0</ele><time>2026-05-02T09:27:28Z</time></trkpt><trkpt lat="42.23771370414463" lon="13.714424050953408"><ele>687.0</ele><time>2026-05-02T09:27:29Z</time></trkpt><trkpt lat="42.237635636865114" lon="13.714406117541335"><ele>687.0</ele><time>2026-05-02T09:27:30Z</time></trkpt><trkpt lat="42.23757370011469" lon="13.714551923460963"><ele>687.0</ele><time>2026-05-02T09:27:31Z</time></trkpt><trkpt lat="42.23752111906915" lon="13.714661227648122"><ele>687.0</ele><time>2026-05-02T09:27:32Z</time></trkpt><trkpt lat="42.237464869666304" lon="13.714757242059509"><ele>687.0</ele><time>2026-05-02T09:27:33Z</time></trkpt><trkpt lat="42.23739626034316" lon="13.71478050595811"><ele>687.0</ele><time>2026-05-02T09:27:34Z</time></trkpt><trkpt lat="42.23733240494973" lon="13.714758036124108"><ele>687.0</ele><time>2026-05-02T09:27:35Z</time></trkpt><trkpt lat="42.237228202890414" lon="13.714677015160381"><ele>687.0</ele><time>2026-05-02T09:27:37Z</time></trkpt><trkpt lat="42.23716804719932" lon="13.714633300630103"><ele>687.0</ele><time>2026-05-02T09:27:37.999Z</time></trkpt><trkpt lat="42.2371114049273" lon="13.71458647229458"><ele>687.0</ele><time>2026-05-02T09:27:38.999Z</time></trkpt><trkpt lat="42.23701142111812" lon="13.714497980652487"><ele>689.0</ele><time>2026-05-02T09:27:40.999Z</time></trkpt><trkpt lat="42.23691185653704" lon="13.71439782563156"><ele>691.0</ele><time>2026-05-02T09:27:42.999Z</time></trkpt><trkpt lat="42.23679562983434" lon="13.714310986452086"><ele>693.0</ele><time>2026-05-02T09:27:44.999Z</time></trkpt><trkpt lat="42.236714815793356" lon="13.714246279724966"><ele>695.0</ele><time>2026-05-02T09:27:45.999Z</time></trkpt><trkpt lat="42.23662380607814" lon="13.71416427699724"><ele>695.0</ele><time>2026-05-02T09:27:46.999Z</time></trkpt><trkpt lat="42.236520528936" lon="13.714072041921693"><ele>695.0</ele><time>2026-05-02T09:27:47.999Z</time></trkpt><trkpt lat="42.23642092466452" lon="13.713987931455735"><ele>695.0</ele><time>2026-05-02T09:27:48.999Z</time></trkpt><trkpt lat="42.236313876035695" lon="13.713901331742647"><ele>695.0</ele><time>2026-05-02T09:27:49.999Z</time></trkpt><trkpt lat="42.23618903163535" lon="13.713807896439286"><ele>696.75</ele><time>2026-05-02T09:27:50.999Z</time></trkpt><trkpt lat="42.23605810072105" lon="13.713732232679934"><ele>698.5</ele><time>2026-05-02T09:27:51.999Z</time></trkpt><trkpt lat="42.23594662992354" lon="13.713668987003453"><ele>700.25</ele><time>2026-05-02T09:27:52.999Z</time></trkpt><trkpt lat="42.23584932279627" lon="13.713601337616101"><ele>702.0</ele><time>2026-05-02T09:27:53.999Z</time></trkpt><trkpt lat="42.23575746216492" lon="13.7135230680573"><ele>703.4000000000001</ele><time>2026-05-02T09:27:54.999Z</time></trkpt><trkpt lat="42.235677867539344" lon="13.71344282963208"><ele>704.8000000000001</ele><time>2026-05-02T09:27:55.999Z</time></trkpt><trkpt lat="42.23559554627514" lon="13.713361416301657"><ele>706.2</ele><time>2026-05-02T09:27:56.999Z</time></trkpt><trkpt lat="42.23551747552527" lon="13.713266057606788"><ele>707.6</ele><time>2026-05-02T09:27:57.999Z</time></trkpt><trkpt lat="42.23548003999736" lon="13.71318619244252"><ele>709.0</ele><time>2026-05-02T09:27:58.999Z</time></trkpt><trkpt lat="42.235390990647524" lon="13.713162236456672"><ele>710.2</ele><time>2026-05-02T09:28:00.999Z</time></trkpt><trkpt lat="42.23531507408418" lon="13.71330784202839"><ele>711.4000000000001</ele><time>2026-05-02T09:28:02.999Z</time></trkpt><trkpt lat="42.23525030986538" lon="13.71338638699842"><ele>712.6</ele><time>2026-05-02T09:28:03.999Z</time></trkpt><trkpt lat="42.235155372266654" lon="13.713463667176592"><ele>713.8</ele><time>2026-05-02T09:28:04.999Z</time></trkpt><trkpt lat="42.23505944206874" lon="13.713529412324887"><ele>715.0</ele><time>2026-05-02T09:28:05.999Z</time></trkpt><trkpt lat="42.23495649749885" lon="13.71358049521048"><ele>715.0</ele><time>2026-05-02T09:28:06.999Z</time></trkpt><trkpt lat="42.23484220380921" lon="13.713618591889043"><ele>715.0</ele><time>2026-05-02T09:28:07.999Z</time></trkpt><trkpt lat="42.23473147734022" lon="13.713636929664395"><ele>715.0</ele><time>2026-05-02T09:28:08.999Z</time></trkpt><trkpt lat="42.23463870764545" lon="13.713641186492643"><ele>715.0</ele><time>2026-05-02T09:28:09.999Z</time></trkpt><trkpt lat="42.23455341606825" lon="13.713672049370613"><ele>715.0</ele><time>2026-05-02T09:28:10.999Z</time></trkpt><trkpt lat="42.23448062736557" lon="13.713737945447681"><ele>721.0</ele><time>2026-05-02T09:28:11.999Z</time></trkpt><trkpt lat="42.234385163862655" lon="13.713845081023205"><ele>727.0</ele><time>2026-05-02T09:28:12.999Z</time></trkpt><trkpt lat="42.23425845384568" lon="13.713957781432278"><ele>733.0</ele><time>2026-05-02T09:28:13.999Z</time></trkpt><trkpt lat="42.23410454325104" lon="13.71406208277076"><ele>739.0</ele><time>2026-05-02T09:28:14.999Z</time></trkpt><trkpt lat="42.23396466084698" lon="13.714151125771627"><ele>741.5</ele><time>2026-05-02T09:28:15.999Z</time></trkpt><trkpt lat="42.233858172495516" lon="13.714214896834106"><ele>744.0</ele><time>2026-05-02T09:28:16.999Z</time></trkpt><trkpt lat="42.233755325671375" lon="13.714283073254824"><ele>746.5</ele><time>2026-05-02T09:28:17.999Z</time></trkpt><trkpt lat="42.23363945914826" lon="13.714370085915004"><ele>749.0</ele><time>2026-05-02T09:28:18.999Z</time></trkpt><trkpt lat="42.23352685720375" lon="13.71446826248053"><ele>749.0</ele><time>2026-05-02T09:28:19.999Z</time></trkpt><trkpt lat="42.233421848596265" lon="13.714572803189826"><ele>749.0</ele><time>2026-05-02T09:28:20.999Z</time></trkpt><trkpt lat="42.233328018500664" lon="13.714671478382208"><ele>749.0</ele><time>2026-05-02T09:28:21.999Z</time></trkpt><trkpt lat="42.233251085754326" lon="13.714749781198886"><ele>749.0</ele><time>2026-05-02T09:28:22.999Z</time></trkpt><trkpt lat="42.23317249323031" lon="13.714796440282628"><ele>749.0</ele><time>2026-05-02T09:28:23.999Z</time></trkpt><trkpt lat="42.233078549103865" lon="13.714822579163403"><ele>754.0</ele><time>2026-05-02T09:28:24.999Z</time></trkpt><trkpt lat="42.23296787234081" lon="13.714845862119883"><ele>759.0</ele><time>2026-05-02T09:28:25.999Z</time></trkpt><trkpt lat="42.23286655386268" lon="13.714879077569282"><ele>764.0</ele><time>2026-05-02T09:28:26.999Z</time></trkpt><trkpt lat="42.232770188427395" lon="13.714943083377324"><ele>769.0</ele><time>2026-05-02T09:28:27.999Z</time></trkpt><trkpt lat="42.232679567807324" lon="13.715027127049048"><ele>774.0</ele><time>2026-05-02T09:28:28.999Z</time></trkpt><trkpt lat="42.23257702466223" lon="13.715093209067263"><ele>774.0</ele><time>2026-05-02T09:28:29.999Z</time></trkpt><trkpt lat="42.232463599459976" lon="13.715143540765768"><ele>774.0</ele><time>2026-05-02T09:28:30.999Z</time></trkpt><trkpt lat="42.23233018712533" lon="13.715191435032931"><ele>774.0</ele><time>2026-05-02T09:28:31.999Z</time></trkpt><trkpt lat="42.232176388750524" lon="13.715231285068489"><ele>774.0</ele><time>2026-05-02T09:28:32.999Z</time></trkpt><trkpt lat="42.232012030152916" lon="13.715279009769057"><ele>771.0</ele><time>2026-05-02T09:28:33.999Z</time></trkpt><trkpt lat="42.23183340053093" lon="13.715318497408868"><ele>768.0</ele><time>2026-05-02T09:28:34.999Z</time></trkpt><trkpt lat="42.23165903702485" lon="13.715367121601485"><ele>765.0</ele><time>2026-05-02T09:28:35.999Z</time></trkpt><trkpt lat="42.23150531066047" lon="13.715404015130288"><ele>768.25</ele><time>2026-05-02T09:28:36.999Z</time></trkpt><trkpt lat="42.23137379600555" lon="13.715414919689342"><ele>771.5</ele><time>2026-05-02T09:28:37.999Z</time></trkpt><trkpt lat="42.23125813099029" lon="13.715417529622787"><ele>774.75</ele><time>2026-05-02T09:28:38.999Z</time></trkpt><trkpt lat="42.231131456647404" lon="13.715412945967767"><ele>778.0</ele><time>2026-05-02T09:28:39.999Z</time></trkpt><trkpt lat="42.23100005439805" lon="13.715433520777903"><ele>778.0</ele><time>2026-05-02T09:28:40.999Z</time></trkpt><trkpt lat="42.23087117955887" lon="13.715482095697688"><ele>778.0</ele><time>2026-05-02T09:28:41.999Z</time></trkpt><trkpt lat="42.2307416809456" lon="13.715534279467029"><ele>778.0</ele><time>2026-05-02T09:28:42.999Z</time></trkpt><trkpt lat="42.23061968150545" lon="13.715584875848416"><ele>778.0</ele><time>2026-05-02T09:28:43.999Z</time></trkpt><trkpt lat="42.23050383934455" lon="13.715618387943714"><ele>782.75</ele><time>2026-05-02T09:28:44.999Z</time></trkpt><trkpt lat="42.23039102825394" lon="13.715635481433981"><ele>787.5</ele><time>2026-05-02T09:28:45.999Z</time></trkpt><trkpt lat="42.23026944858215" lon="13.715647727240466"><ele>792.25</ele><time>2026-05-02T09:28:46.999Z</time></trkpt><trkpt lat="42.23015212585507" lon="13.715663571600306"><ele>797.0</ele><time>2026-05-02T09:28:47.999Z</time></trkpt><trkpt lat="42.23003267634543" lon="13.715688822809163"><ele>797.0000000000001</ele><time>2026-05-02T09:28:48.999Z</time></trkpt><trkpt lat="42.22991537036574" lon="13.715706363711522"><ele>797.0</ele><time>2026-05-02T09:28:49.999Z</time></trkpt><trkpt lat="42.22982241775203" lon="13.715734271249095"><ele>797.0</ele><time>2026-05-02T09:28:50.999Z</time></trkpt><trkpt lat="42.229752941567476" lon="13.71576384966771"><ele>797.0</ele><time>2026-05-02T09:28:51.999Z</time></trkpt><trkpt lat="42.22968474030557" lon="13.715794050025744"><ele>797.0000000000001</ele><time>2026-05-02T09:28:53.999Z</time></trkpt><trkpt lat="42.22967624018396" lon="13.715675926904341"><ele>797.0</ele><time>2026-05-02T09:28:56.999Z</time></trkpt><trkpt lat="42.22974744403151" lon="13.715611343671982"><ele>797.0000000000001</ele><time>2026-05-02T09:28:58.999Z</time></trkpt><trkpt lat="42.22981398106464" lon="13.715585180774369"><ele>797.0</ele><time>2026-05-02T09:28:59.999Z</time></trkpt><trkpt lat="42.22989700803007" lon="13.715547978917156"><ele>797.0</ele><time>2026-05-02T09:29:00.999Z</time></trkpt><trkpt lat="42.22998055444701" lon="13.715497271591628"><ele>797.0</ele><time>2026-05-02T09:29:01.999Z</time></trkpt><trkpt lat="42.230067251916246" lon="13.715440842541028"><ele>797.0000000000001</ele><time>2026-05-02T09:29:03.999Z</time></trkpt><trkpt lat="42.23004419066082" lon="13.7153484990156"><ele>797.0</ele><time>2026-05-02T09:29:07.998Z</time></trkpt><trkpt lat="42.229943494142994" lon="13.715354260285169"><ele>797.0000000000001</ele><time>2026-05-02T09:29:10.998Z</time></trkpt><trkpt lat="42.229843630550576" lon="13.715403207515973"><ele>797.0</ele><time>2026-05-02T09:29:12.998Z</time></trkpt><trkpt lat="42.229779454451666" lon="13.715420429105949"><ele>797.0</ele><time>2026-05-02T09:29:13.998Z</time></trkpt><trkpt lat="42.22970680268128" lon="13.715435645903549"><ele>797.0</ele><time>2026-05-02T09:29:14.998Z</time></trkpt><trkpt lat="42.22963209415178" lon="13.715456300825368"><ele>797.0000000000001</ele><time>2026-05-02T09:29:15.998Z</time></trkpt><trkpt lat="42.22955677683878" lon="13.715483597883724"><ele>797.0</ele><time>2026-05-02T09:29:17Z</time></trkpt><trkpt lat="42.22947310006683" lon="13.715514121496877"><ele>802.5000000000001</ele><time>2026-05-02T09:29:18Z</time></trkpt><trkpt lat="42.229381817888665" lon="13.715552342046655"><ele>808.0</ele><time>2026-05-02T09:29:19Z</time></trkpt><trkpt lat="42.22928490812996" lon="13.715595383215609"><ele>813.5</ele><time>2026-05-02T09:29:20Z</time></trkpt><trkpt lat="42.229201648882565" lon="13.71565060808438"><ele>819.0</ele><time>2026-05-02T09:29:21Z</time></trkpt><trkpt lat="42.22913937379643" lon="13.715712740655478"><ele>824.5000000000001</ele><time>2026-05-02T09:29:22Z</time></trkpt><trkpt lat="42.2290997832643" lon="13.715784277898218"><ele>830.0</ele><time>2026-05-02T09:29:23Z</time></trkpt><trkpt lat="42.229045232628216" lon="13.715893214009585"><ele>830.0000000000001</ele><time>2026-05-02T09:29:25Z</time></trkpt><trkpt lat="42.228965563769634" lon="13.71585576812508"><ele>830.0</ele><time>2026-05-02T09:29:27Z</time></trkpt><trkpt lat="42.22896956695306" lon="13.71572274146906"><ele>830.0</ele><time>2026-05-02T09:29:29Z</time></trkpt><trkpt lat="42.22900029508594" lon="13.715644966890903"><ele>830.0</ele><time>2026-05-02T09:29:30Z</time></trkpt><trkpt lat="42.22904362614745" lon="13.715558329321452"><ele>830.0000000000001</ele><time>2026-05-02T09:29:31Z</time></trkpt><trkpt lat="42.22910021549125" lon="13.71546526030741"><ele>830.0</ele><time>2026-05-02T09:29:32Z</time></trkpt><trkpt lat="42.22918272437873" lon="13.71536927776094"><ele>830.0</ele><time>2026-05-02T09:29:33Z</time></trkpt><trkpt lat="42.22928880267672" lon="13.715260969315034"><ele>830.0</ele><time>2026-05-02T09:29:34Z</time></trkpt><trkpt lat="42.229411994777415" lon="13.715155305186707"><ele>830.0</ele><time>2026-05-02T09:29:35Z</time></trkpt><trkpt lat="42.22951590859634" lon="13.71507707515397"><ele>830.0</ele><time>2026-05-02T09:29:36Z</time></trkpt><trkpt lat="42.22957432796959" lon="13.71504474981181"><ele>832.6666666666667</ele><time>2026-05-02T09:29:37Z</time></trkpt><trkpt lat="42.229578283183585" lon="13.714945617202533"><ele>835.3333333333334</ele><time>2026-05-02T09:29:41Z</time></trkpt><trkpt lat="42.229475898764896" lon="13.714974770263254"><ele>838.0</ele><time>2026-05-02T09:29:44Z</time></trkpt><trkpt lat="42.22942626918668" lon="13.715031674755155"><ele>840.6666666666667</ele><time>2026-05-02T09:29:44.999Z</time></trkpt><trkpt lat="42.22931059596814" lon="13.715089449088339"><ele>843.3333333333334</ele><time>2026-05-02T09:29:46.999Z</time></trkpt><trkpt lat="42.22923471861835" lon="13.71511328103815"><ele>846.0</ele><time>2026-05-02T09:29:47.999Z</time></trkpt><trkpt lat="42.22914265791834" lon="13.715149226050665"><ele>846.0</ele><time>2026-05-02T09:29:48.999Z</time></trkpt><trkpt lat="42.229030566100036" lon="13.715193660837286"><ele>846.0</ele><time>2026-05-02T09:29:49.999Z</time></trkpt><trkpt lat="42.22892481682963" lon="13.715230928212746"><ele>846.0</ele><time>2026-05-02T09:29:50.999Z</time></trkpt><trkpt lat="42.22882535136148" lon="13.715261258697598"><ele>846.0</ele><time>2026-05-02T09:29:51.999Z</time></trkpt><trkpt lat="42.22873742615542" lon="13.715280060748231"><ele>846.0</ele><time>2026-05-02T09:29:52.999Z</time></trkpt><trkpt lat="42.22866613439084" lon="13.715295386978365"><ele>847.0</ele><time>2026-05-02T09:29:53.999Z</time></trkpt><trkpt lat="42.228568505581684" lon="13.715305798685327"><ele>848.0</ele><time>2026-05-02T09:29:55.999Z</time></trkpt><trkpt lat="42.22851478720106" lon="13.715198815563221"><ele>849.0</ele><time>2026-05-02T09:29:57.999Z</time></trkpt><trkpt lat="42.22850640061028" lon="13.715106075578111"><ele>850.0</ele><time>2026-05-02T09:29:58.999Z</time></trkpt><trkpt lat="42.22853002319964" lon="13.714964857078833"><ele>851.0</ele><time>2026-05-02T09:30:00.999Z</time></trkpt><trkpt lat="42.228556579938314" lon="13.714869373970744"><ele>852.0</ele><time>2026-05-02T09:30:02.999Z</time></trkpt><trkpt lat="42.228564965722995" lon="13.714777609139832"><ele>852.0</ele><time>2026-05-02T09:30:06.999Z</time></trkpt><trkpt lat="42.22859741677467" lon="13.71468189397901"><ele>852.0</ele><time>2026-05-02T09:31:33Z</time></trkpt><trkpt lat="42.22865834509416" lon="13.71458857473518"><ele>852.0</ele><time>2026-05-02T09:31:35Z</time></trkpt><trkpt lat="42.22871271560287" lon="13.714470934327197"><ele>852.0</ele><time>2026-05-02T09:31:37Z</time></trkpt><trkpt lat="42.228735881106" lon="13.714339554487605"><ele>852.0</ele><time>2026-05-02T09:31:39Z</time></trkpt><trkpt lat="42.22875608781253" lon="13.714201373206079"><ele>850.3333333333334</ele><time>2026-05-02T09:31:41Z</time></trkpt><trkpt lat="42.228782382590744" lon="13.714073553903026"><ele>848.6666666666667</ele><time>2026-05-02T09:31:42.999Z</time></trkpt><trkpt lat="42.22879006870455" lon="13.713955217821928"><ele>847.0</ele><time>2026-05-02T09:31:44.999Z</time></trkpt><trkpt lat="42.22878217858556" lon="13.713858240376098"><ele>845.3333333333334</ele><time>2026-05-02T09:31:46.999Z</time></trkpt><trkpt lat="42.22872484548446" lon="13.713796989167225"><ele>843.6666666666667</ele><time>2026-05-02T09:31:48.999Z</time></trkpt><trkpt lat="42.2286512813224" lon="13.713830769787483"><ele>842.0</ele><time>2026-05-02T09:31:51.999Z</time></trkpt><trkpt lat="42.22861474071697" lon="13.713998580719423"><ele>842.0000000000001</ele><time>2026-05-02T09:31:53.999Z</time></trkpt><trkpt lat="42.22859272594837" lon="13.714093673200196"><ele>842.0</ele><time>2026-05-02T09:31:54.999Z</time></trkpt><trkpt lat="42.22856688671542" lon="13.714186872245271"><ele>842.0</ele><time>2026-05-02T09:31:55.999Z</time></trkpt><trkpt lat="42.22852698233516" lon="13.714272079131328"><ele>842.0</ele><time>2026-05-02T09:31:56.999Z</time></trkpt><trkpt lat="42.228467843602274" lon="13.714343120195899"><ele>842.0000000000001</ele><time>2026-05-02T09:31:57.999Z</time></trkpt><trkpt lat="42.228394245664845" lon="13.714391219465769"><ele>842.0</ele><time>2026-05-02T09:31:58.999Z</time></trkpt><trkpt lat="42.22832063587477" lon="13.714415506851166"><ele>842.0000000000001</ele><time>2026-05-02T09:31:59.999Z</time></trkpt><trkpt lat="42.22824568567498" lon="13.714408595447987"><ele>842.0</ele><time>2026-05-02T09:32:00.999Z</time></trkpt><trkpt lat="42.228177059004075" lon="13.714369030441258"><ele>842.0</ele><time>2026-05-02T09:32:01.999Z</time></trkpt><trkpt lat="42.22811364324589" lon="13.714312179458007"><ele>842.0</ele><time>2026-05-02T09:32:02.999Z</time></trkpt><trkpt lat="42.228056847387364" lon="13.714265329103647"><ele>842.0000000000001</ele><time>2026-05-02T09:32:03.999Z</time></trkpt><trkpt lat="42.22800020741487" lon="13.714223675950011"><ele>842.0</ele><time>2026-05-02T09:32:04.999Z</time></trkpt><trkpt lat="42.227916953926076" lon="13.714115487172906"><ele>841.0</ele><time>2026-05-02T09:32:06.999Z</time></trkpt><trkpt lat="42.22789185269636" lon="13.71396905725215"><ele>840.0</ele><time>2026-05-02T09:32:08.999Z</time></trkpt><trkpt lat="42.2278932452021" lon="13.71381438297673"><ele>839.0</ele><time>2026-05-02T09:32:10.999Z</time></trkpt><trkpt lat="42.227906053603505" lon="13.71365535967337"><ele>838.0</ele><time>2026-05-02T09:32:12.999Z</time></trkpt><trkpt lat="42.227917892293306" lon="13.713568487268907"><ele>837.0</ele><time>2026-05-02T09:32:13.999Z</time></trkpt><trkpt lat="42.22792457777851" lon="13.713476603962889"><ele>836.5</ele><time>2026-05-02T09:32:14.999Z</time></trkpt><trkpt lat="42.22793384662568" lon="13.713373585243861"><ele>836.0</ele><time>2026-05-02T09:32:15.999Z</time></trkpt><trkpt lat="42.22794527601419" lon="13.713234534679279"><ele>835.5</ele><time>2026-05-02T09:32:16.999Z</time></trkpt><trkpt lat="42.22795827240843" lon="13.713061743454636"><ele>835.0</ele><time>2026-05-02T09:32:17.999Z</time></trkpt><trkpt lat="42.22797394605877" lon="13.712869483244072"><ele>834.6666666666666</ele><time>2026-05-02T09:32:18.999Z</time></trkpt><trkpt lat="42.22798938680187" lon="13.712661466205196"><ele>834.3333333333333</ele><time>2026-05-02T09:32:19.999Z</time></trkpt><trkpt lat="42.22800797441951" lon="13.712461372388358"><ele>834.0</ele><time>2026-05-02T09:32:20.999Z</time></trkpt><trkpt lat="42.22803126145842" lon="13.712256162995315"><ele>834.0</ele><time>2026-05-02T09:32:21.999Z</time></trkpt><trkpt lat="42.22805240458619" lon="13.712043380465587"><ele>834.0</ele><time>2026-05-02T09:32:22.999Z</time></trkpt><trkpt lat="42.2280685583653" lon="13.711837295270483"><ele>834.0</ele><time>2026-05-02T09:32:23.999Z</time></trkpt><trkpt lat="42.22808280336343" lon="13.7116289305547"><ele>834.3333333333333</ele><time>2026-05-02T09:32:24.999Z</time></trkpt><trkpt lat="42.22810548872617" lon="13.711418952923292"><ele>834.6666666666666</ele><time>2026-05-02T09:32:25.999Z</time></trkpt><trkpt lat="42.22813801997918" lon="13.711186776434042"><ele>835.0</ele><time>2026-05-02T09:32:26.999Z</time></trkpt><trkpt lat="42.22816135622568" lon="13.710953838610676"><ele>836.6666666666666</ele><time>2026-05-02T09:32:27.999Z</time></trkpt><trkpt lat="42.2281781915972" lon="13.710727962985475"><ele>838.3333333333333</ele><time>2026-05-02T09:32:28.999Z</time></trkpt><trkpt lat="42.228194760148575" lon="13.710498589498911"><ele>840.0</ele><time>2026-05-02T09:32:29.999Z</time></trkpt><trkpt lat="42.228213376190794" lon="13.710235571986498"><ele>840.6666666666667</ele><time>2026-05-02T09:32:30.999Z</time></trkpt><trkpt lat="42.22823285498204" lon="13.709981083587632"><ele>841.3333333333334</ele><time>2026-05-02T09:32:31.999Z</time></trkpt><trkpt lat="42.22825201264101" lon="13.70977338829698"><ele>842.0</ele><time>2026-05-02T09:32:32.999Z</time></trkpt><trkpt lat="42.22826839905414" lon="13.709594101972082"><ele>842.0</ele><time>2026-05-02T09:32:33.999Z</time></trkpt><trkpt lat="42.228282002394934" lon="13.709442702249152"><ele>842.0</ele><time>2026-05-02T09:32:34.999Z</time></trkpt><trkpt lat="42.22829423612341" lon="13.70930277095335"><ele>842.0</ele><time>2026-05-02T09:32:35.999Z</time></trkpt><trkpt lat="42.228309761542036" lon="13.709182035923726"><ele>842.0</ele><time>2026-05-02T09:32:36.999Z</time></trkpt><trkpt lat="42.2283169608215" lon="13.709074327582572"><ele>842.0</ele><time>2026-05-02T09:32:37.999Z</time></trkpt><trkpt lat="42.228312269864965" lon="13.708961384413776"><ele>843.0</ele><time>2026-05-02T09:32:38.999Z</time></trkpt><trkpt lat="42.228290914758865" lon="13.708824608146028"><ele>844.0</ele><time>2026-05-02T09:32:39.999Z</time></trkpt><trkpt lat="42.228264340997264" lon="13.708664710401493"><ele>845.0</ele><time>2026-05-02T09:32:40.999Z</time></trkpt><trkpt lat="42.22824241557675" lon="13.708491678930097"><ele>846.0</ele><time>2026-05-02T09:32:41.999Z</time></trkpt><trkpt lat="42.22823270981822" lon="13.708336929646173"><ele>848.1999999999999</ele><time>2026-05-02T09:32:42.999Z</time></trkpt><trkpt lat="42.228232538871644" lon="13.708206337149448"><ele>850.4</ele><time>2026-05-02T09:32:43.999Z</time></trkpt><trkpt lat="42.22825029518681" lon="13.708077411902764"><ele>852.6</ele><time>2026-05-02T09:32:44.999Z</time></trkpt><trkpt lat="42.22828810843946" lon="13.707944728849721"><ele>854.8</ele><time>2026-05-02T09:32:45.999Z</time></trkpt><trkpt lat="42.22833147205054" lon="13.707800515873986"><ele>857.0</ele><time>2026-05-02T09:32:46.999Z</time></trkpt><trkpt lat="42.22837137039557" lon="13.707641304763746"><ele>860.0</ele><time>2026-05-02T09:32:47.999Z</time></trkpt><trkpt lat="42.22840712006962" lon="13.707470834259894"><ele>863.0</ele><time>2026-05-02T09:32:48.999Z</time></trkpt><trkpt lat="42.22845014953842" lon="13.707295939534378"><ele>866.0</ele><time>2026-05-02T09:32:49.999Z</time></trkpt><trkpt lat="42.228506623203586" lon="13.707128872536504"><ele>869.0</ele><time>2026-05-02T09:32:50.999Z</time></trkpt><trkpt lat="42.228560757207944" lon="13.706991436119322"><ele>871.8000000000001</ele><time>2026-05-02T09:32:51.999Z</time></trkpt><trkpt lat="42.22862666145052" lon="13.706866160180642"><ele>874.6000000000001</ele><time>2026-05-02T09:32:52.999Z</time></trkpt><trkpt lat="42.228705164201685" lon="13.706758696876632"><ele>877.4</ele><time>2026-05-02T09:32:53.999Z</time></trkpt><trkpt lat="42.2287879386564" lon="13.706677543761522"><ele>880.2</ele><time>2026-05-02T09:32:54.999Z</time></trkpt><trkpt lat="42.228873641447315" lon="13.706608108336027"><ele>883.0</ele><time>2026-05-02T09:32:55.999Z</time></trkpt><trkpt lat="42.228935258704844" lon="13.706527471616734"><ele>882.25</ele><time>2026-05-02T09:32:56.999Z</time></trkpt><trkpt lat="42.22898388448293" lon="13.706416980407676"><ele>881.5</ele><time>2026-05-02T09:32:57.999Z</time></trkpt><trkpt lat="42.22904126349654" lon="13.706273870170909"><ele>880.75</ele><time>2026-05-02T09:32:58.999Z</time></trkpt><trkpt lat="42.22911762796501" lon="13.70611933182369"><ele>880.0</ele><time>2026-05-02T09:32:59.999Z</time></trkpt><trkpt lat="42.229206222884834" lon="13.705958106937869"><ele>880.0</ele><time>2026-05-02T09:33:00.999Z</time></trkpt><trkpt lat="42.22930000345719" lon="13.705807220125484"><ele>880.0</ele><time>2026-05-02T09:33:01.999Z</time></trkpt><trkpt lat="42.22940454010974" lon="13.705661408900765"><ele>880.0</ele><time>2026-05-02T09:33:02.999Z</time></trkpt><trkpt lat="42.22951042216256" lon="13.705515690630408"><ele>880.0</ele><time>2026-05-02T09:33:03.999Z</time></trkpt><trkpt lat="42.229606683091106" lon="13.705385587346926"><ele>880.0</ele><time>2026-05-02T09:33:04.999Z</time></trkpt><trkpt lat="42.229697201910774" lon="13.70527020127288"><ele>880.0</ele><time>2026-05-02T09:33:05.999Z</time></trkpt><trkpt lat="42.22977179681367" lon="13.705150969037563"><ele>880.0</ele><time>2026-05-02T09:33:06.999Z</time></trkpt><trkpt lat="42.22983507766433" lon="13.70500673752491"><ele>880.0</ele><time>2026-05-02T09:33:07.999Z</time></trkpt><trkpt lat="42.22988667867356" lon="13.704845649396557"><ele>880.25</ele><time>2026-05-02T09:33:08.998Z</time></trkpt><trkpt lat="42.229945234235494" lon="13.70469030312237"><ele>880.5</ele><time>2026-05-02T09:33:09.998Z</time></trkpt><trkpt lat="42.23001833921654" lon="13.70451107570204"><ele>880.75</ele><time>2026-05-02T09:33:10.998Z</time></trkpt><trkpt lat="42.23008092120141" lon="13.704309240320262"><ele>881.0</ele><time>2026-05-02T09:33:11.998Z</time></trkpt><trkpt lat="42.23013346588769" lon="13.704104057033124"><ele>881.0</ele><time>2026-05-02T09:33:12.998Z</time></trkpt><trkpt lat="42.23017384820384" lon="13.703941614656443"><ele>881.0</ele><time>2026-05-02T09:33:13.998Z</time></trkpt><trkpt lat="42.230203323228174" lon="13.703789129010536"><ele>881.0</ele><time>2026-05-02T09:33:14.998Z</time></trkpt><trkpt lat="42.23021658952729" lon="13.703623648490366"><ele>881.0</ele><time>2026-05-02T09:33:15.998Z</time></trkpt><trkpt lat="42.23022634090015" lon="13.703459118663655"><ele>880.75</ele><time>2026-05-02T09:33:16.998Z</time></trkpt><trkpt lat="42.23025730257428" lon="13.70329850523848"><ele>880.5</ele><time>2026-05-02T09:33:17.998Z</time></trkpt><trkpt lat="42.23031981148641" lon="13.703150604343858"><ele>880.25</ele><time>2026-05-02T09:33:18.998Z</time></trkpt><trkpt lat="42.2303896722634" lon="13.702997150736266"><ele>880.0</ele><time>2026-05-02T09:33:19.998Z</time></trkpt><trkpt lat="42.23044550558485" lon="13.70283297728039"><ele>881.0</ele><time>2026-05-02T09:33:20.998Z</time></trkpt><trkpt lat="42.230481893171145" lon="13.702681107364487"><ele>882.0</ele><time>2026-05-02T09:33:21.998Z</time></trkpt><trkpt lat="42.23051864526447" lon="13.70254093556554"><ele>883.0</ele><time>2026-05-02T09:33:22.998Z</time></trkpt><trkpt lat="42.2305919430765" lon="13.702387235434879"><ele>884.0</ele><time>2026-05-02T09:33:23.998Z</time></trkpt><trkpt lat="42.2306821100749" lon="13.702207019898667"><ele>884.0</ele><time>2026-05-02T09:33:24.998Z</time></trkpt><trkpt lat="42.23076190871699" lon="13.702035947879677"><ele>884.0</ele><time>2026-05-02T09:33:25.998Z</time></trkpt><trkpt lat="42.23083989541048" lon="13.701853025200506"><ele>884.0</ele><time>2026-05-02T09:33:26.998Z</time></trkpt><trkpt lat="42.23092158051061" lon="13.701676680872083"><ele>882.5</ele><time>2026-05-02T09:33:28Z</time></trkpt><trkpt lat="42.230998182234686" lon="13.70149973361976"><ele>881.0</ele><time>2026-05-02T09:33:29Z</time></trkpt><trkpt lat="42.23106661029546" lon="13.701323710483953"><ele>879.5</ele><time>2026-05-02T09:33:30Z</time></trkpt><trkpt lat="42.231139063173565" lon="13.70114721675483"><ele>878.0</ele><time>2026-05-02T09:33:31Z</time></trkpt><trkpt lat="42.23120715229137" lon="13.700974774974807"><ele>876.75</ele><time>2026-05-02T09:33:32Z</time></trkpt><trkpt lat="42.23127087794566" lon="13.700802384909343"><ele>875.5</ele><time>2026-05-02T09:33:33Z</time></trkpt><trkpt lat="42.23133185612578" lon="13.700631628019146"><ele>874.25</ele><time>2026-05-02T09:33:34Z</time></trkpt><trkpt lat="42.23138825860895" lon="13.700465314589037"><ele>873.0</ele><time>2026-05-02T09:33:35Z</time></trkpt><trkpt lat="42.23144494142553" lon="13.70030838071625"><ele>873.5</ele><time>2026-05-02T09:33:36Z</time></trkpt><trkpt lat="42.23150828649353" lon="13.70015114871323"><ele>874.0</ele><time>2026-05-02T09:33:37Z</time></trkpt><trkpt lat="42.23157039008331" lon="13.699991948803008"><ele>874.5</ele><time>2026-05-02T09:33:38Z</time></trkpt><trkpt lat="42.23164477196924" lon="13.699833724716452"><ele>875.0</ele><time>2026-05-02T09:33:39Z</time></trkpt><trkpt lat="42.23172380346716" lon="13.699678353360904"><ele>875.0</ele><time>2026-05-02T09:33:40Z</time></trkpt><trkpt lat="42.23180174831567" lon="13.699528151868515"><ele>875.0</ele><time>2026-05-02T09:33:41Z</time></trkpt><trkpt lat="42.23187302792357" lon="13.69940934557803"><ele>875.0</ele><time>2026-05-02T09:33:42Z</time></trkpt><trkpt lat="42.23195755795748" lon="13.699313147503224"><ele>875.0</ele><time>2026-05-02T09:33:43Z</time></trkpt><trkpt lat="42.23206971703262" lon="13.699215056238316"><ele>873.5</ele><time>2026-05-02T09:33:44Z</time></trkpt><trkpt lat="42.232186702888086" lon="13.699102483921706"><ele>872.0</ele><time>2026-05-02T09:33:45Z</time></trkpt><trkpt lat="42.23228336515613" lon="13.698980602367076"><ele>870.5</ele><time>2026-05-02T09:33:46Z</time></trkpt><trkpt lat="42.23236955832431" lon="13.698846068931152"><ele>869.0</ele><time>2026-05-02T09:33:47Z</time></trkpt><trkpt lat="42.2324492852242" lon="13.698703451213461"><ele>867.5</ele><time>2026-05-02T09:33:47.999Z</time></trkpt><trkpt lat="42.23252105005615" lon="13.698557098971001"><ele>866.0</ele><time>2026-05-02T09:33:48.999Z</time></trkpt><trkpt lat="42.23259042378532" lon="13.698410108832901"><ele>864.5</ele><time>2026-05-02T09:33:49.999Z</time></trkpt><trkpt lat="42.23266418546195" lon="13.698268073177227"><ele>863.0</ele><time>2026-05-02T09:33:50.999Z</time></trkpt><trkpt lat="42.23273640916436" lon="13.698121305473784"><ele>863.0</ele><time>2026-05-02T09:33:51.999Z</time></trkpt><trkpt lat="42.232800333416" lon="13.69797050088704"><ele>863.0</ele><time>2026-05-02T09:33:52.999Z</time></trkpt><trkpt lat="42.23286342609074" lon="13.697820165350082"><ele>863.0</ele><time>2026-05-02T09:33:53.999Z</time></trkpt><trkpt lat="42.23292454314838" lon="13.697671622257285"><ele>863.0</ele><time>2026-05-02T09:33:54.999Z</time></trkpt><trkpt lat="42.232983063069774" lon="13.69752563749551"><ele>863.0</ele><time>2026-05-02T09:33:55.999Z</time></trkpt><trkpt lat="42.23304841035496" lon="13.697389503849719"><ele>863.0</ele><time>2026-05-02T09:33:56.999Z</time></trkpt><trkpt lat="42.23313087874112" lon="13.697264200565725"><ele>863.0</ele><time>2026-05-02T09:33:57.999Z</time></trkpt><trkpt lat="42.233231535532646" lon="13.697151237195026"><ele>863.0</ele><time>2026-05-02T09:33:58.999Z</time></trkpt><trkpt lat="42.23334591890292" lon="13.697052520059838"><ele>861.25</ele><time>2026-05-02T09:33:59.999Z</time></trkpt><trkpt lat="42.23347477151204" lon="13.696967220279221"><ele>859.5</ele><time>2026-05-02T09:34:00.999Z</time></trkpt><trkpt lat="42.23358571528179" lon="13.696859199145875"><ele>857.75</ele><time>2026-05-02T09:34:01.999Z</time></trkpt><trkpt lat="42.233687277307055" lon="13.69673162909363"><ele>856.0</ele><time>2026-05-02T09:34:02.999Z</time></trkpt><trkpt lat="42.23378134575732" lon="13.696603257694225"><ele>856.0</ele><time>2026-05-02T09:34:03.999Z</time></trkpt><trkpt lat="42.23387648925536" lon="13.696497793760512"><ele>856.0</ele><time>2026-05-02T09:34:04.999Z</time></trkpt><trkpt lat="42.233980741008516" lon="13.69640000798877"><ele>856.0</ele><time>2026-05-02T09:34:05.999Z</time></trkpt><trkpt lat="42.234093052778164" lon="13.696294431599298"><ele>856.0</ele><time>2026-05-02T09:34:06.999Z</time></trkpt><trkpt lat="42.23420593091315" lon="13.696190463620468"><ele>855.0</ele><time>2026-05-02T09:34:07.999Z</time></trkpt><trkpt lat="42.23432069583835" lon="13.696081524955206"><ele>854.0</ele><time>2026-05-02T09:34:08.999Z</time></trkpt><trkpt lat="42.23443506616235" lon="13.695970992251477"><ele>853.0</ele><time>2026-05-02T09:34:09.999Z</time></trkpt><trkpt lat="42.234545306132965" lon="13.695862901747388"><ele>852.0</ele><time>2026-05-02T09:34:10.999Z</time></trkpt><trkpt lat="42.234639301192715" lon="13.69576546106119"><ele>852.0</ele><time>2026-05-02T09:34:11.999Z</time></trkpt><trkpt lat="42.23472475673513" lon="13.695676696626329"><ele>852.0</ele><time>2026-05-02T09:34:12.999Z</time></trkpt><trkpt lat="42.23479716312002" lon="13.695601812520003"><ele>852.0</ele><time>2026-05-02T09:34:13.999Z</time></trkpt><trkpt lat="42.234860622497536" lon="13.69552801074345"><ele>852.0</ele><time>2026-05-02T09:34:14.999Z</time></trkpt><trkpt lat="42.23491748036736" lon="13.69545946264618"><ele>852.0</ele><time>2026-05-02T09:34:15.999Z</time></trkpt><trkpt lat="42.234993874623285" lon="13.695366654094894"><ele>851.8333333333334</ele><time>2026-05-02T09:34:17.999Z</time></trkpt><trkpt lat="42.23504678168699" lon="13.695316469096255"><ele>851.6666666666667</ele><time>2026-05-02T09:34:18.999Z</time></trkpt><trkpt lat="42.235102186887545" lon="13.695261297050365"><ele>851.5</ele><time>2026-05-02T09:34:19.999Z</time></trkpt><trkpt lat="42.23515896600678" lon="13.69518412020149"><ele>851.3333333333334</ele><time>2026-05-02T09:34:20.999Z</time></trkpt><trkpt lat="42.23520718170267" lon="13.695110890683777"><ele>851.1666666666667</ele><time>2026-05-02T09:34:21.999Z</time></trkpt><trkpt lat="42.23530151202105" lon="13.694955955777834"><ele>851.0</ele><time>2026-05-02T09:34:23.999Z</time></trkpt><trkpt lat="42.23538960764557" lon="13.694844143352627"><ele>851.0</ele><time>2026-05-02T09:34:24.999Z</time></trkpt><trkpt lat="42.235493539613444" lon="13.694722214525846"><ele>851.0</ele><time>2026-05-02T09:34:25.999Z</time></trkpt><trkpt lat="42.23558210050543" lon="13.694603634669509"><ele>851.0</ele><time>2026-05-02T09:34:26.999Z</time></trkpt><trkpt lat="42.235680368413774" lon="13.694491334296531"><ele>851.0</ele><time>2026-05-02T09:34:27.999Z</time></trkpt><trkpt lat="42.23578755616535" lon="13.694361862688384"><ele>851.25</ele><time>2026-05-02T09:34:28.999Z</time></trkpt><trkpt lat="42.235884299274154" lon="13.694236042736385"><ele>851.5</ele><time>2026-05-02T09:34:29.999Z</time></trkpt><trkpt lat="42.23596757068552" lon="13.69413225672883"><ele>851.75</ele><time>2026-05-02T09:34:30.999Z</time></trkpt><trkpt lat="42.2360442063147" lon="13.694036720185627"><ele>852.0</ele><time>2026-05-02T09:34:31.999Z</time></trkpt><trkpt lat="42.23612202123543" lon="13.693920036979327"><ele>852.0</ele><time>2026-05-02T09:34:32.999Z</time></trkpt><trkpt lat="42.23619510256388" lon="13.69378930962767"><ele>852.0</ele><time>2026-05-02T09:34:33.999Z</time></trkpt><trkpt lat="42.236259355569885" lon="13.693664196749243"><ele>852.0</ele><time>2026-05-02T09:34:34.999Z</time></trkpt><trkpt lat="42.23632027015765" lon="13.693541383336074"><ele>852.0</ele><time>2026-05-02T09:34:35.999Z</time></trkpt><trkpt lat="42.236402168139705" lon="13.693415879767766"><ele>851.25</ele><time>2026-05-02T09:34:36.999Z</time></trkpt><trkpt lat="42.23649171945729" lon="13.693309291283352"><ele>850.5</ele><time>2026-05-02T09:34:37.999Z</time></trkpt><trkpt lat="42.236594520188966" lon="13.693221583280009"><ele>849.75</ele><time>2026-05-02T09:34:38.999Z</time></trkpt><trkpt lat="42.23670248423517" lon="13.693145153010557"><ele>849.0</ele><time>2026-05-02T09:34:39.999Z</time></trkpt><trkpt lat="42.23680036939575" lon="13.693066004949136"><ele>849.0</ele><time>2026-05-02T09:34:40.999Z</time></trkpt><trkpt lat="42.236890027184025" lon="13.692976134783748"><ele>849.0</ele><time>2026-05-02T09:34:41.999Z</time></trkpt><trkpt lat="42.23695737044266" lon="13.692873267751716"><ele>849.0</ele><time>2026-05-02T09:34:42.999Z</time></trkpt><trkpt lat="42.23702051688393" lon="13.692781461061383"><ele>849.0</ele><time>2026-05-02T09:34:43.999Z</time></trkpt><trkpt lat="42.23709353229662" lon="13.692711547875955"><ele>849.0</ele><time>2026-05-02T09:34:44.999Z</time></trkpt><trkpt lat="42.23719258690789" lon="13.692679897362488"><ele>849.75</ele><time>2026-05-02T09:34:45.999Z</time></trkpt><trkpt lat="42.23731413258203" lon="13.692655361871449"><ele>850.5</ele><time>2026-05-02T09:34:47Z</time></trkpt><trkpt lat="42.23745355203367" lon="13.69261552157763"><ele>851.25</ele><time>2026-05-02T09:34:48Z</time></trkpt><trkpt lat="42.237591019872596" lon="13.692576691846517"><ele>852.0</ele><time>2026-05-02T09:34:49Z</time></trkpt><trkpt lat="42.23771842974492" lon="13.6925396519935"><ele>852.0</ele><time>2026-05-02T09:34:50Z</time></trkpt><trkpt lat="42.237835126898524" lon="13.692496765693368"><ele>852.0</ele><time>2026-05-02T09:34:51Z</time></trkpt><trkpt lat="42.23794584241592" lon="13.692445584171956"><ele>852.0</ele><time>2026-05-02T09:34:52Z</time></trkpt><trkpt lat="42.238039720847155" lon="13.69239526864511"><ele>852.0</ele><time>2026-05-02T09:34:53Z</time></trkpt><trkpt lat="42.23811901886383" lon="13.692351228957838"><ele>852.0</ele><time>2026-05-02T09:34:54Z</time></trkpt><trkpt lat="42.238194925721544" lon="13.692304274309816"><ele>853.8</ele><time>2026-05-02T09:34:55Z</time></trkpt><trkpt lat="42.23827175114073" lon="13.692223651454961"><ele>855.6</ele><time>2026-05-02T09:34:56Z</time></trkpt><trkpt lat="42.238339533645785" lon="13.69211397931062"><ele>857.3999999999999</ele><time>2026-05-02T09:34:57Z</time></trkpt><trkpt lat="42.23837871987245" lon="13.69200199327755"><ele>859.1999999999999</ele><time>2026-05-02T09:34:58Z</time></trkpt><trkpt lat="42.23840618459151" lon="13.691894794349185"><ele>861.0</ele><time>2026-05-02T09:34:59Z</time></trkpt><trkpt lat="42.23841886579022" lon="13.691785218441119"><ele>861.0</ele><time>2026-05-02T09:35:00Z</time></trkpt><trkpt lat="42.23843799374393" lon="13.691646537405957"><ele>860.9999999999999</ele><time>2026-05-02T09:35:01Z</time></trkpt><trkpt lat="42.23847093976893" lon="13.691492762963268"><ele>860.9999999999999</ele><time>2026-05-02T09:35:02Z</time></trkpt><trkpt lat="42.23851778240662" lon="13.691356048457749"><ele>861.0</ele><time>2026-05-02T09:35:03Z</time></trkpt><trkpt lat="42.23855588194109" lon="13.691217139719718"><ele>861.0</ele><time>2026-05-02T09:35:04Z</time></trkpt><trkpt lat="42.23858780012698" lon="13.691075573568286"><ele>860.8</ele><time>2026-05-02T09:35:05Z</time></trkpt><trkpt lat="42.23861441117041" lon="13.690944240766191"><ele>860.5999999999999</ele><time>2026-05-02T09:35:06Z</time></trkpt><trkpt lat="42.23864772840803" lon="13.69081303349196"><ele>860.4</ele><time>2026-05-02T09:35:07Z</time></trkpt><trkpt lat="42.23869224497985" lon="13.690678401348748"><ele>860.2</ele><time>2026-05-02T09:35:08Z</time></trkpt><trkpt lat="42.238730587781646" lon="13.690545930229966"><ele>860.0</ele><time>2026-05-02T09:35:09Z</time></trkpt><trkpt lat="42.23877262789454" lon="13.690420941252167"><ele>860.0</ele><time>2026-05-02T09:35:10Z</time></trkpt><trkpt lat="42.23881519892605" lon="13.690311739111982"><ele>860.0</ele><time>2026-05-02T09:35:11Z</time></trkpt><trkpt lat="42.23885535003899" lon="13.6902192180585"><ele>860.0</ele><time>2026-05-02T09:35:11.999Z</time></trkpt><trkpt lat="42.23889426366124" lon="13.69011687945248"><ele>860.0</ele><time>2026-05-02T09:35:12.999Z</time></trkpt><trkpt lat="42.23894200166727" lon="13.6899930704941"><ele>860.0</ele><time>2026-05-02T09:35:13.999Z</time></trkpt><trkpt lat="42.2390047356622" lon="13.689879481675357"><ele>861.8</ele><time>2026-05-02T09:35:14.999Z</time></trkpt><trkpt lat="42.239051751741634" lon="13.68978878831352"><ele>863.6</ele><time>2026-05-02T09:35:15.999Z</time></trkpt><trkpt lat="42.23907286581943" lon="13.689685866995209"><ele>865.4000000000001</ele><time>2026-05-02T09:35:16.999Z</time></trkpt><trkpt lat="42.23908259392386" lon="13.68955801118842"><ele>867.2</ele><time>2026-05-02T09:35:17.999Z</time></trkpt><trkpt lat="42.239098578938126" lon="13.689412221509583"><ele>869.0</ele><time>2026-05-02T09:35:18.999Z</time></trkpt><trkpt lat="42.23911753504905" lon="13.689268579175154"><ele>869.0</ele><time>2026-05-02T09:35:19.999Z</time></trkpt><trkpt lat="42.239139421092354" lon="13.689115202029395"><ele>869.0</ele><time>2026-05-02T09:35:20.999Z</time></trkpt><trkpt lat="42.239168353754714" lon="13.688968372430745"><ele>869.0</ele><time>2026-05-02T09:35:21.999Z</time></trkpt><trkpt lat="42.23920582714878" lon="13.688822434632293"><ele>869.0</ele><time>2026-05-02T09:35:22.999Z</time></trkpt><trkpt lat="42.23924276666649" lon="13.688672975875988"><ele>869.6</ele><time>2026-05-02T09:35:23.999Z</time></trkpt><trkpt lat="42.23927553784697" lon="13.688528935522928"><ele>870.2</ele><time>2026-05-02T09:35:24.999Z</time></trkpt><trkpt lat="42.23930306180549" lon="13.68840203741116"><ele>870.8000000000001</ele><time>2026-05-02T09:35:25.999Z</time></trkpt><trkpt lat="42.23932878826641" lon="13.688287294238096"><ele>871.4000000000001</ele><time>2026-05-02T09:35:26.999Z</time></trkpt><trkpt lat="42.23934704866592" lon="13.688175566969417"><ele>872.0</ele><time>2026-05-02T09:35:27.999Z</time></trkpt><trkpt lat="42.239356229932305" lon="13.6880477778284"><ele>872.0</ele><time>2026-05-02T09:35:28.999Z</time></trkpt><trkpt lat="42.2393722352681" lon="13.687886655375515"><ele>872.0</ele><time>2026-05-02T09:35:29.999Z</time></trkpt><trkpt lat="42.239390390749" lon="13.687753332069311"><ele>872.0</ele><time>2026-05-02T09:35:30.999Z</time></trkpt><trkpt lat="42.23940630512864" lon="13.6876575845886"><ele>872.0</ele><time>2026-05-02T09:35:31.999Z</time></trkpt><trkpt lat="42.239446475301634" lon="13.687512244515663"><ele>872.0</ele><time>2026-05-02T09:35:34Z</time></trkpt><trkpt lat="42.23944796994909" lon="13.687418098641674"><ele>873.4000000000001</ele><time>2026-05-02T09:35:35Z</time></trkpt><trkpt lat="42.23944429844771" lon="13.687280296682744"><ele>874.8000000000001</ele><time>2026-05-02T09:35:37Z</time></trkpt><trkpt lat="42.23935318243187" lon="13.687210530085748"><ele>876.2</ele><time>2026-05-02T09:35:39Z</time></trkpt><trkpt lat="42.239275713515276" lon="13.68719444022519"><ele>877.6</ele><time>2026-05-02T09:35:40Z</time></trkpt><trkpt lat="42.239184839784315" lon="13.687192914551668"><ele>879.0</ele><time>2026-05-02T09:35:41Z</time></trkpt><trkpt lat="42.23909978804982" lon="13.687203248861103"><ele>879.0</ele><time>2026-05-02T09:35:42Z</time></trkpt><trkpt lat="42.23903261126973" lon="13.687239290981468"><ele>879.0</ele><time>2026-05-02T09:35:43Z</time></trkpt><trkpt lat="42.238966100949774" lon="13.6872925908622"><ele>879.0</ele><time>2026-05-02T09:35:44Z</time></trkpt><trkpt lat="42.23890225527001" lon="13.687357594332806"><ele>879.0</ele><time>2026-05-02T09:35:45Z</time></trkpt><trkpt lat="42.23884288778668" lon="13.68746144779211"><ele>879.0</ele><time>2026-05-02T09:35:47Z</time></trkpt><trkpt lat="42.23879625730061" lon="13.687594653783952"><ele>879.0</ele><time>2026-05-02T09:35:49Z</time></trkpt><trkpt lat="42.238747771991186" lon="13.687652288279159"><ele>879.8000000000001</ele><time>2026-05-02T09:35:50Z</time></trkpt><trkpt lat="42.23866841426682" lon="13.687697226198502"><ele>880.6000000000001</ele><time>2026-05-02T09:35:51Z</time></trkpt><trkpt lat="42.23859502246945" lon="13.687744764102925"><ele>881.4</ele><time>2026-05-02T09:35:52Z</time></trkpt><trkpt lat="42.238522251653805" lon="13.687818368669697"><ele>882.2</ele><time>2026-05-02T09:35:53Z</time></trkpt><trkpt lat="42.23844913632418" lon="13.687901533329702"><ele>883.0</ele><time>2026-05-02T09:35:54Z</time></trkpt><trkpt lat="42.238374018760744" lon="13.687988066109957"><ele>883.0</ele><time>2026-05-02T09:35:55Z</time></trkpt><trkpt lat="42.23827898708178" lon="13.688073921850032"><ele>883.0</ele><time>2026-05-02T09:35:56Z</time></trkpt><trkpt lat="42.23819138418799" lon="13.68815285754151"><ele>883.0</ele><time>2026-05-02T09:35:57Z</time></trkpt><trkpt lat="42.23811385302438" lon="13.688230865687295"><ele>883.0</ele><time>2026-05-02T09:35:58Z</time></trkpt><trkpt lat="42.23802999741306" lon="13.688317013579118"><ele>883.0</ele><time>2026-05-02T09:35:59Z</time></trkpt><trkpt lat="42.23794702254167" lon="13.688419482307356"><ele>884.0</ele><time>2026-05-02T09:36:00Z</time></trkpt><trkpt lat="42.23786383326817" lon="13.688525734785324"><ele>885.0</ele><time>2026-05-02T09:36:01Z</time></trkpt><trkpt lat="42.23777092689863" lon="13.688637658809258"><ele>886.0</ele><time>2026-05-02T09:36:02Z</time></trkpt><trkpt lat="42.23768522016301" lon="13.688723816637536"><ele>887.0</ele><time>2026-05-02T09:36:03Z</time></trkpt><trkpt lat="42.2376210947245" lon="13.68878947994994"><ele>888.0</ele><time>2026-05-02T09:36:04Z</time></trkpt><trkpt lat="42.23754631140231" lon="13.688895895014419"><ele>888.0</ele><time>2026-05-02T09:36:06Z</time></trkpt><trkpt lat="42.23747748734151" lon="13.688940561300042"><ele>888.0</ele><time>2026-05-02T09:36:07Z</time></trkpt><trkpt lat="42.23739236524779" lon="13.688971027558498"><ele>888.0</ele><time>2026-05-02T09:36:08Z</time></trkpt><trkpt lat="42.23730392158971" lon="13.689006246328683"><ele>888.0</ele><time>2026-05-02T09:36:09Z</time></trkpt><trkpt lat="42.237213575944956" lon="13.68904325097468"><ele>888.0</ele><time>2026-05-02T09:36:10Z</time></trkpt><trkpt lat="42.2371280645959" lon="13.689076236798545"><ele>888.0</ele><time>2026-05-02T09:36:11Z</time></trkpt><trkpt lat="42.237051420598675" lon="13.689113635252978"><ele>894.25</ele><time>2026-05-02T09:36:12Z</time></trkpt><trkpt lat="42.236964539974146" lon="13.689164671455023"><ele>900.5</ele><time>2026-05-02T09:36:13Z</time></trkpt><trkpt lat="42.23686024349414" lon="13.68922556195195"><ele>906.75</ele><time>2026-05-02T09:36:14Z</time></trkpt><trkpt lat="42.236741205623716" lon="13.689274713962302"><ele>913.0</ele><time>2026-05-02T09:36:15Z</time></trkpt><trkpt lat="42.23663219151777" lon="13.689334815754528"><ele>913.0</ele><time>2026-05-02T09:36:16Z</time></trkpt><trkpt lat="42.23652206760302" lon="13.68941224171376"><ele>913.0</ele><time>2026-05-02T09:36:17Z</time></trkpt><trkpt lat="42.236402785051794" lon="13.689479744401366"><ele>913.0</ele><time>2026-05-02T09:36:18Z</time></trkpt><trkpt lat="42.2363031579388" lon="13.689537645705668"><ele>913.0</ele><time>2026-05-02T09:36:19Z</time></trkpt><trkpt lat="42.236223927728105" lon="13.68959746508524"><ele>913.5</ele><time>2026-05-02T09:36:20Z</time></trkpt><trkpt lat="42.23613541793289" lon="13.689663707866293"><ele>914.0</ele><time>2026-05-02T09:36:21Z</time></trkpt><trkpt lat="42.23602760277234" lon="13.689711950324531"><ele>914.5</ele><time>2026-05-02T09:36:22Z</time></trkpt><trkpt lat="42.23591656064732" lon="13.68975058147798"><ele>915.0</ele><time>2026-05-02T09:36:23Z</time></trkpt><trkpt lat="42.23580332122901" lon="13.689805892680248"><ele>915.0</ele><time>2026-05-02T09:36:24Z</time></trkpt><trkpt lat="42.23569566252814" lon="13.68987976911187"><ele>915.0</ele><time>2026-05-02T09:36:25Z</time></trkpt><trkpt lat="42.23560890712625" lon="13.689941118746304"><ele>915.0</ele><time>2026-05-02T09:36:26Z</time></trkpt><trkpt lat="42.235537580856644" lon="13.690023766713312"><ele>915.0</ele><time>2026-05-02T09:36:27Z</time></trkpt><trkpt lat="42.235446191977886" lon="13.690139136106437"><ele>915.0</ele><time>2026-05-02T09:36:28Z</time></trkpt><trkpt lat="42.235363576728716" lon="13.690253724006483"><ele>917.75</ele><time>2026-05-02T09:36:29Z</time></trkpt><trkpt lat="42.23527428114245" lon="13.690369845863536"><ele>920.5</ele><time>2026-05-02T09:36:30Z</time></trkpt><trkpt lat="42.23519223202111" lon="13.690461457304037"><ele>923.25</ele><time>2026-05-02T09:36:31Z</time></trkpt><trkpt lat="42.23509771718171" lon="13.690547169435504"><ele>926.0</ele><time>2026-05-02T09:36:32Z</time></trkpt><trkpt lat="42.23500271781842" lon="13.690632917861132"><ele>926.0</ele><time>2026-05-02T09:36:33Z</time></trkpt><trkpt lat="42.23491389635623" lon="13.690717283876467"><ele>925.9999999999999</ele><time>2026-05-02T09:36:34Z</time></trkpt><trkpt lat="42.234830236011824" lon="13.690797445094596"><ele>925.9999999999999</ele><time>2026-05-02T09:36:35Z</time></trkpt><trkpt lat="42.2347423328479" lon="13.690883609165446"><ele>926.0</ele><time>2026-05-02T09:36:36Z</time></trkpt><trkpt lat="42.23465263417642" lon="13.690962634049784"><ele>926.0</ele><time>2026-05-02T09:36:37Z</time></trkpt><trkpt lat="42.234566443570294" lon="13.69104801332291"><ele>928.25</ele><time>2026-05-02T09:36:38Z</time></trkpt><trkpt lat="42.23446939351272" lon="13.691139793567832"><ele>930.5</ele><time>2026-05-02T09:36:39Z</time></trkpt><trkpt lat="42.234374796355" lon="13.69121975758558"><ele>932.75</ele><time>2026-05-02T09:36:40Z</time></trkpt><trkpt lat="42.23428721044846" lon="13.69129520765602"><ele>935.0</ele><time>2026-05-02T09:36:41Z</time></trkpt><trkpt lat="42.23418575161197" lon="13.691373254070967"><ele>935.0</ele><time>2026-05-02T09:36:42Z</time></trkpt><trkpt lat="42.23408412772557" lon="13.691473301063"><ele>935.0</ele><time>2026-05-02T09:36:43Z</time></trkpt><trkpt lat="42.2339863458372" lon="13.691560651364613"><ele>935.0</ele><time>2026-05-02T09:36:44Z</time></trkpt><trkpt lat="42.23389063989523" lon="13.691642836548148"><ele>935.0</ele><time>2026-05-02T09:36:45Z</time></trkpt><trkpt lat="42.233799479047" lon="13.691729319035897"><ele>936.0</ele><time>2026-05-02T09:36:46Z</time></trkpt><trkpt lat="42.23370765691246" lon="13.691819325091844"><ele>937.0</ele><time>2026-05-02T09:36:47Z</time></trkpt><trkpt lat="42.23360698887385" lon="13.691909249018922"><ele>938.0</ele><time>2026-05-02T09:36:48Z</time></trkpt><trkpt lat="42.233509788353366" lon="13.691989063730674"><ele>939.0</ele><time>2026-05-02T09:36:49Z</time></trkpt><trkpt lat="42.233418000293426" lon="13.69206217769006"><ele>939.0</ele><time>2026-05-02T09:36:50Z</time></trkpt><trkpt lat="42.233327859598226" lon="13.69213478493658"><ele>939.0000000000001</ele><time>2026-05-02T09:36:51Z</time></trkpt><trkpt lat="42.23323353533397" lon="13.692204333580385"><ele>939.0000000000001</ele><time>2026-05-02T09:36:52Z</time></trkpt><trkpt lat="42.23313683546871" lon="13.692279155413315"><ele>939.0</ele><time>2026-05-02T09:36:53Z</time></trkpt><trkpt lat="42.23303191777418" lon="13.692362941477995"><ele>939.0</ele><time>2026-05-02T09:36:54Z</time></trkpt><trkpt lat="42.232927964703755" lon="13.692437442607334"><ele>945.5</ele><time>2026-05-02T09:36:55Z</time></trkpt><trkpt lat="42.2328159431726" lon="13.69251220610837"><ele>952.0</ele><time>2026-05-02T09:36:56Z</time></trkpt><trkpt lat="42.2326992844146" lon="13.692587222300096"><ele>958.5</ele><time>2026-05-02T09:36:57Z</time></trkpt><trkpt lat="42.23258518107612" lon="13.692654943140013"><ele>965.0</ele><time>2026-05-02T09:36:58Z</time></trkpt><trkpt lat="42.23247301903014" lon="13.692711442747237"><ele>962.75</ele><time>2026-05-02T09:36:59Z</time></trkpt><trkpt lat="42.23236281241989" lon="13.692772365573644"><ele>960.5</ele><time>2026-05-02T09:37:00Z</time></trkpt><trkpt lat="42.23224847553941" lon="13.692849670359225"><ele>958.25</ele><time>2026-05-02T09:37:01Z</time></trkpt><trkpt lat="42.23213707024122" lon="13.692925560667838"><ele>956.0</ele><time>2026-05-02T09:37:02Z</time></trkpt><trkpt lat="42.232036330076326" lon="13.692989054173747"><ele>956.0</ele><time>2026-05-02T09:37:03Z</time></trkpt><trkpt lat="42.23193889139177" lon="13.693053760281666"><ele>956.0</ele><time>2026-05-02T09:37:04Z</time></trkpt><trkpt lat="42.231840314907664" lon="13.693115046353032"><ele>956.0</ele><time>2026-05-02T09:37:05Z</time></trkpt><trkpt lat="42.231741380012735" lon="13.693184839186939"><ele>956.0</ele><time>2026-05-02T09:37:06Z</time></trkpt><trkpt lat="42.23163176289621" lon="13.693253515380993"><ele>956.0</ele><time>2026-05-02T09:37:07Z</time></trkpt><trkpt lat="42.231523825468955" lon="13.693329861315036"><ele>956.0</ele><time>2026-05-02T09:37:08Z</time></trkpt><trkpt lat="42.23142051810562" lon="13.693405820861736"><ele>956.0</ele><time>2026-05-02T09:37:08.999Z</time></trkpt><trkpt lat="42.23132024845987" lon="13.693476000914885"><ele>956.0</ele><time>2026-05-02T09:37:09.999Z</time></trkpt><trkpt lat="42.231230366592136" lon="13.69355157244211"><ele>955.6666666666667</ele><time>2026-05-02T09:37:10.999Z</time></trkpt><trkpt lat="42.2311517842121" lon="13.693618898190078"><ele>955.3333333333334</ele><time>2026-05-02T09:37:11.999Z</time></trkpt><trkpt lat="42.23107019224703" lon="13.69368448554621"><ele>955.0</ele><time>2026-05-02T09:37:12.999Z</time></trkpt><trkpt lat="42.230990878538655" lon="13.69373839417972"><ele>954.6666666666667</ele><time>2026-05-02T09:37:13.999Z</time></trkpt><trkpt lat="42.23091988814124" lon="13.693774814633755"><ele>954.3333333333334</ele><time>2026-05-02T09:37:14.999Z</time></trkpt><trkpt lat="42.230841955613435" lon="13.693804842173575"><ele>954.0</ele><time>2026-05-02T09:37:15.999Z</time></trkpt><trkpt lat="42.23075281162022" lon="13.693843055805244"><ele>954.0</ele><time>2026-05-02T09:37:16.999Z</time></trkpt><trkpt lat="42.230662346650604" lon="13.693884331620893"><ele>954.0000000000001</ele><time>2026-05-02T09:37:17.999Z</time></trkpt><trkpt lat="42.23057301180684" lon="13.693920572231164"><ele>954.0000000000001</ele><time>2026-05-02T09:37:18.999Z</time></trkpt><trkpt lat="42.23048485836609" lon="13.693961241907148"><ele>954.0</ele><time>2026-05-02T09:37:19.999Z</time></trkpt><trkpt lat="42.23039149846637" lon="13.693998092979527"><ele>954.0</ele><time>2026-05-02T09:37:20.999Z</time></trkpt><trkpt lat="42.23030625208357" lon="13.6940288474839"><ele>957.1666666666666</ele><time>2026-05-02T09:37:21.999Z</time></trkpt><trkpt lat="42.23022824721994" lon="13.694059100923551"><ele>960.3333333333333</ele><time>2026-05-02T09:37:22.999Z</time></trkpt><trkpt lat="42.230144797764076" lon="13.694090469157702"><ele>963.5</ele><time>2026-05-02T09:37:23.999Z</time></trkpt><trkpt lat="42.23006590952381" lon="13.694111959382626"><ele>966.6666666666666</ele><time>2026-05-02T09:37:24.999Z</time></trkpt><trkpt lat="42.22995047323278" lon="13.694091518750803"><ele>969.8333333333333</ele><time>2026-05-02T09:37:26.999Z</time></trkpt><trkpt lat="42.22988394912378" lon="13.694044315779417"><ele>973.0</ele><time>2026-05-02T09:37:27.999Z</time></trkpt><trkpt lat="42.22982278499848" lon="13.693959797252827"><ele>972.4</ele><time>2026-05-02T09:37:28.999Z</time></trkpt><trkpt lat="42.229763606660164" lon="13.693855777182383"><ele>971.8</ele><time>2026-05-02T09:37:29.999Z</time></trkpt><trkpt lat="42.22970715986994" lon="13.693738442947408"><ele>971.2</ele><time>2026-05-02T09:37:30.999Z</time></trkpt><trkpt lat="42.229650677731556" lon="13.693610343613127"><ele>970.6</ele><time>2026-05-02T09:37:31.999Z</time></trkpt><trkpt lat="42.229594908722824" lon="13.693485066120454"><ele>970.0</ele><time>2026-05-02T09:37:32.999Z</time></trkpt><trkpt lat="42.22954083181659" lon="13.693382618434347"><ele>973.6666666666666</ele><time>2026-05-02T09:37:33.999Z</time></trkpt><trkpt lat="42.22948273124556" lon="13.693315804743525"><ele>977.3333333333333</ele><time>2026-05-02T09:37:34.999Z</time></trkpt><trkpt lat="42.22942182591344" lon="13.69327865956361"><ele>981.0</ele><time>2026-05-02T09:37:35.999Z</time></trkpt><trkpt lat="42.22934792483159" lon="13.693270250719562"><ele>984.6666666666667</ele><time>2026-05-02T09:37:36.999Z</time></trkpt><trkpt lat="42.22925627265612" lon="13.693309654919021"><ele>988.3333333333334</ele><time>2026-05-02T09:37:37.999Z</time></trkpt><trkpt lat="42.22915580510357" lon="13.69337229467175"><ele>992.0</ele><time>2026-05-02T09:37:39Z</time></trkpt><trkpt lat="42.2290425131569" lon="13.693425537624803"><ele>993.0</ele><time>2026-05-02T09:37:40Z</time></trkpt><trkpt lat="42.228913739073995" lon="13.693475037968133"><ele>994.0</ele><time>2026-05-02T09:37:41Z</time></trkpt><trkpt lat="42.22878881361817" lon="13.693514250196786"><ele>995.0</ele><time>2026-05-02T09:37:42Z</time></trkpt><trkpt lat="42.22868880479287" lon="13.693532793310235"><ele>996.0</ele><time>2026-05-02T09:37:43Z</time></trkpt><trkpt lat="42.228605992493684" lon="13.693542966130272"><ele>997.0</ele><time>2026-05-02T09:37:44Z</time></trkpt><trkpt lat="42.228524853780186" lon="13.693546938223998"><ele>997.0</ele><time>2026-05-02T09:37:45Z</time></trkpt><trkpt lat="42.22844228528003" lon="13.693546966889341"><ele>997.0</ele><time>2026-05-02T09:37:46Z</time></trkpt><trkpt lat="42.22837363707146" lon="13.693551180805326"><ele>997.0</ele><time>2026-05-02T09:37:47Z</time></trkpt><trkpt lat="42.22828934654667" lon="13.693535717638516"><ele>997.0</ele><time>2026-05-02T09:37:49Z</time></trkpt><trkpt lat="42.228201063681844" lon="13.693473666624874"><ele>997.0</ele><time>2026-05-02T09:38:19Z</time></trkpt><trkpt lat="42.22812552787525" lon="13.693352554082631"><ele>995.7142857142856</ele><time>2026-05-02T09:38:21Z</time></trkpt><trkpt lat="42.22809210241462" lon="13.693255872037177"><ele>994.4285714285713</ele><time>2026-05-02T09:38:22Z</time></trkpt><trkpt lat="42.228067641455816" lon="13.693163918713363"><ele>993.1428571428571</ele><time>2026-05-02T09:38:23Z</time></trkpt><trkpt lat="42.22804404645399" lon="13.693070510200279"><ele>991.8571428571428</ele><time>2026-05-02T09:38:24Z</time></trkpt><trkpt lat="42.2280241076001" lon="13.692978000498611"><ele>990.5714285714284</ele><time>2026-05-02T09:38:25Z</time></trkpt><trkpt lat="42.22800438760171" lon="13.6928849865081"><ele>989.2857142857143</ele><time>2026-05-02T09:38:26Z</time></trkpt><trkpt lat="42.227991923479706" lon="13.692793895098967"><ele>988.0</ele><time>2026-05-02T09:38:27Z</time></trkpt><trkpt lat="42.22798685283176" lon="13.692701493112272"><ele>986.7142857142858</ele><time>2026-05-02T09:38:28Z</time></trkpt><trkpt lat="42.22798240275431" lon="13.6926076359275"><ele>985.4285714285713</ele><time>2026-05-02T09:38:29Z</time></trkpt><trkpt lat="42.227979065933624" lon="13.692510295523192"><ele>984.1428571428571</ele><time>2026-05-02T09:38:30Z</time></trkpt><trkpt lat="42.22797346334483" lon="13.692416553621872"><ele>982.8571428571429</ele><time>2026-05-02T09:38:31Z</time></trkpt><trkpt lat="42.227965187587074" lon="13.692322194435798"><ele>981.5714285714287</ele><time>2026-05-02T09:38:32Z</time></trkpt><trkpt lat="42.227957591743106" lon="13.692223953640935"><ele>980.2857142857142</ele><time>2026-05-02T09:38:33Z</time></trkpt><trkpt lat="42.22795137962683" lon="13.692113692765052"><ele>979.0</ele><time>2026-05-02T09:38:34Z</time></trkpt><trkpt lat="42.22794781890171" lon="13.692007552042627"><ele>978.1666666666666</ele><time>2026-05-02T09:38:35Z</time></trkpt><trkpt lat="42.22794426923854" lon="13.69190384019441"><ele>977.3333333333333</ele><time>2026-05-02T09:38:36Z</time></trkpt><trkpt lat="42.22794224961379" lon="13.691797433356122"><ele>976.5</ele><time>2026-05-02T09:38:37Z</time></trkpt><trkpt lat="42.22794181172032" lon="13.69169041080098"><ele>975.6666666666667</ele><time>2026-05-02T09:38:38Z</time></trkpt><trkpt lat="42.22794542194111" lon="13.691581082190947"><ele>974.8333333333334</ele><time>2026-05-02T09:38:39Z</time></trkpt><trkpt lat="42.22794993019833" lon="13.691470375315168"><ele>974.0</ele><time>2026-05-02T09:38:40Z</time></trkpt><trkpt lat="42.22794808604648" lon="13.691363851177925"><ele>974.0</ele><time>2026-05-02T09:38:41Z</time></trkpt><trkpt lat="42.22794615640518" lon="13.691260283813396"><ele>974.0</ele><time>2026-05-02T09:38:42Z</time></trkpt><trkpt lat="42.227947347310455" lon="13.691161224961753"><ele>974.0</ele><time>2026-05-02T09:38:43Z</time></trkpt><trkpt lat="42.22795376879797" lon="13.691069368270051"><ele>974.0</ele><time>2026-05-02T09:38:44Z</time></trkpt><trkpt lat="42.227963461474474" lon="13.690978356869568"><ele>974.0</ele><time>2026-05-02T09:38:45Z</time></trkpt><trkpt lat="42.22797196625906" lon="13.690878402740145"><ele>974.0</ele><time>2026-05-02T09:38:46Z</time></trkpt><trkpt lat="42.22797105522924" lon="13.690781686404318"><ele>974.0</ele><time>2026-05-02T09:38:47Z</time></trkpt><trkpt lat="42.227956007532164" lon="13.69065118365378"><ele>973.0</ele><time>2026-05-02T09:38:49Z</time></trkpt><trkpt lat="42.22790012366511" lon="13.690576056440417"><ele>972.0000000000001</ele><time>2026-05-02T09:38:51Z</time></trkpt><trkpt lat="42.22779397061157" lon="13.690551896397364"><ele>971.0000000000001</ele><time>2026-05-02T09:38:53Z</time></trkpt><trkpt lat="42.22767770373771" lon="13.690621113554526"><ele>970.0</ele><time>2026-05-02T09:38:55Z</time></trkpt><trkpt lat="42.227628022573" lon="13.690696065030043"><ele>969.0</ele><time>2026-05-02T09:38:56Z</time></trkpt><trkpt lat="42.227578830007005" lon="13.69078329420904"><ele>969.0</ele><time>2026-05-02T09:38:57Z</time></trkpt><trkpt lat="42.22752612130453" lon="13.69086614104446"><ele>969.0000000000001</ele><time>2026-05-02T09:38:58Z</time></trkpt><trkpt lat="42.227449721414644" lon="13.690970089933472"><ele>969.0000000000001</ele><time>2026-05-02T09:38:59Z</time></trkpt><trkpt lat="42.22738069297384" lon="13.691066718966104"><ele>969.0</ele><time>2026-05-02T09:39:00Z</time></trkpt><trkpt lat="42.22732591718142" lon="13.69115715325053"><ele>969.0</ele><time>2026-05-02T09:39:01Z</time></trkpt><trkpt lat="42.227291019041346" lon="13.691269583107653"><ele>968.4000000000001</ele><time>2026-05-02T09:39:02Z</time></trkpt><trkpt lat="42.22726044563715" lon="13.691408615259212"><ele>967.8000000000001</ele><time>2026-05-02T09:39:03Z</time></trkpt><trkpt lat="42.22723243667393" lon="13.691519090133818"><ele>967.1999999999999</ele><time>2026-05-02T09:39:04Z</time></trkpt><trkpt lat="42.227198674451344" lon="13.691617848897247"><ele>966.5999999999999</ele><time>2026-05-02T09:39:05Z</time></trkpt><trkpt lat="42.22717152615619" lon="13.69172571416733"><ele>966.0</ele><time>2026-05-02T09:39:06Z</time></trkpt><trkpt lat="42.227171534632944" lon="13.691851803593876"><ele>967.0</ele><time>2026-05-02T09:39:07Z</time></trkpt><trkpt lat="42.22718844144124" lon="13.691986080753793"><ele>967.9999999999999</ele><time>2026-05-02T09:39:08Z</time></trkpt><trkpt lat="42.22719274581676" lon="13.692103238544952"><ele>968.9999999999999</ele><time>2026-05-02T09:39:09Z</time></trkpt><trkpt lat="42.2271701275071" lon="13.692216260123326"><ele>970.0</ele><time>2026-05-02T09:39:10Z</time></trkpt><trkpt lat="42.22714564842476" lon="13.692333660418793"><ele>971.0</ele><time>2026-05-02T09:39:11Z</time></trkpt><trkpt lat="42.22713574766143" lon="13.692448640424146"><ele>971.0000000000001</ele><time>2026-05-02T09:39:11.999Z</time></trkpt><trkpt lat="42.22712393348991" lon="13.692547373955056"><ele>971.0</ele><time>2026-05-02T09:39:12.999Z</time></trkpt><trkpt lat="42.22709387619535" lon="13.692633891328102"><ele>971.0</ele><time>2026-05-02T09:39:13.999Z</time></trkpt><trkpt lat="42.22704059238831" lon="13.692707579025688"><ele>971.0</ele><time>2026-05-02T09:39:14.999Z</time></trkpt><trkpt lat="42.22695470588187" lon="13.692773415926027"><ele>971.0000000000001</ele><time>2026-05-02T09:39:15.999Z</time></trkpt><trkpt lat="42.2268448980618" lon="13.692834298605746"><ele>971.0</ele><time>2026-05-02T09:39:16.999Z</time></trkpt><trkpt lat="42.22674197243244" lon="13.692908841346014"><ele>973.1999999999999</ele><time>2026-05-02T09:39:17.999Z</time></trkpt><trkpt lat="42.22666031562418" lon="13.69298038026878"><ele>975.3999999999999</ele><time>2026-05-02T09:39:18.999Z</time></trkpt><trkpt lat="42.226576519031205" lon="13.693010028711413"><ele>977.6</ele><time>2026-05-02T09:39:19.999Z</time></trkpt><trkpt lat="42.22649049581546" lon="13.69301159611846"><ele>979.8</ele><time>2026-05-02T09:39:20.999Z</time></trkpt><trkpt lat="42.226387831694446" lon="13.692993113628757"><ele>982.0</ele><time>2026-05-02T09:39:21.999Z</time></trkpt><trkpt lat="42.22625637069637" lon="13.692934277331943"><ele>982.8</ele><time>2026-05-02T09:39:22.999Z</time></trkpt><trkpt lat="42.22613616669147" lon="13.692874761815101"><ele>983.6</ele><time>2026-05-02T09:39:23.999Z</time></trkpt><trkpt lat="42.226036816388614" lon="13.692846129815814"><ele>984.3999999999999</ele><time>2026-05-02T09:39:24.999Z</time></trkpt><trkpt lat="42.22595060817609" lon="13.692821602908552"><ele>985.1999999999999</ele><time>2026-05-02T09:39:25.999Z</time></trkpt><trkpt lat="42.22586301568853" lon="13.692731129724542"><ele>986.0</ele><time>2026-05-02T09:39:27.999Z</time></trkpt><trkpt lat="42.22579950343238" lon="13.692630175594601"><ele>984.8333333333334</ele><time>2026-05-02T09:39:28.999Z</time></trkpt><trkpt lat="42.22573822516632" lon="13.69252668672449"><ele>983.6666666666667</ele><time>2026-05-02T09:39:29.999Z</time></trkpt><trkpt lat="42.22568183339217" lon="13.692461226283458"><ele>982.5</ele><time>2026-05-02T09:39:30.999Z</time></trkpt><trkpt lat="42.22560831189208" lon="13.692416525888293"><ele>981.3333333333333</ele><time>2026-05-02T09:39:31.999Z</time></trkpt><trkpt lat="42.22551688685191" lon="13.692393748772583"><ele>980.1666666666666</ele><time>2026-05-02T09:39:32.999Z</time></trkpt><trkpt lat="42.22541862250622" lon="13.692389839563726"><ele>979.0</ele><time>2026-05-02T09:39:33.999Z</time></trkpt><trkpt lat="42.22533122262222" lon="13.692358765651148"><ele>979.0</ele><time>2026-05-02T09:39:34.999Z</time></trkpt><trkpt lat="42.22524472491205" lon="13.692328421439564"><ele>979.0000000000001</ele><time>2026-05-02T09:39:35.999Z</time></trkpt><trkpt lat="42.22516036628586" lon="13.692320050299267"><ele>979.0000000000001</ele><time>2026-05-02T09:39:36.999Z</time></trkpt><trkpt lat="42.22506560597251" lon="13.692320761746036"><ele>979.0</ele><time>2026-05-02T09:39:37.999Z</time></trkpt><trkpt lat="42.22495793551639" lon="13.692312302807888"><ele>979.0</ele><time>2026-05-02T09:39:38.999Z</time></trkpt><trkpt lat="42.22483384952959" lon="13.692305580986863"><ele>980.0</ele><time>2026-05-02T09:39:39.999Z</time></trkpt><trkpt lat="42.224704737924014" lon="13.692303316517062"><ele>981.0</ele><time>2026-05-02T09:39:40.999Z</time></trkpt><trkpt lat="42.2245590968727" lon="13.692288683931016"><ele>982.0</ele><time>2026-05-02T09:39:41.999Z</time></trkpt><trkpt lat="42.22445344733253" lon="13.692268857663702"><ele>983.0</ele><time>2026-05-02T09:39:42.999Z</time></trkpt><trkpt lat="42.22437551144786" lon="13.692259130486073"><ele>983.0</ele><time>2026-05-02T09:39:43.999Z</time></trkpt><trkpt lat="42.22430254365012" lon="13.692301637234749"><ele>983.0</ele><time>2026-05-02T09:39:45Z</time></trkpt><trkpt lat="42.22423083232507" lon="13.692393540597896"><ele>983.0</ele><time>2026-05-02T09:39:46Z</time></trkpt><trkpt lat="42.22414093474033" lon="13.692525077359303"><ele>983.0</ele><time>2026-05-02T09:39:47Z</time></trkpt><trkpt lat="42.224042263133114" lon="13.692657654095422"><ele>984.25</ele><time>2026-05-02T09:39:48Z</time></trkpt><trkpt lat="42.223957681993625" lon="13.692800638260826"><ele>985.5</ele><time>2026-05-02T09:39:49Z</time></trkpt><trkpt lat="42.223865183252585" lon="13.692892777272572"><ele>986.75</ele><time>2026-05-02T09:39:50Z</time></trkpt><trkpt lat="42.223761489902394" lon="13.69298345089192"><ele>988.0</ele><time>2026-05-02T09:39:51Z</time></trkpt><trkpt lat="42.223640257822964" lon="13.693071228756427"><ele>987.9999999999999</ele><time>2026-05-02T09:39:52Z</time></trkpt><trkpt lat="42.22358803485673" lon="13.693127632054786"><ele>988.0</ele><time>2026-05-02T09:39:53Z</time></trkpt><trkpt lat="42.223514653691666" lon="13.693142609566866"><ele>988.0</ele><time>2026-05-02T09:39:54Z</time></trkpt><trkpt lat="42.223429141984184" lon="13.693130372538004"><ele>988.0</ele><time>2026-05-02T09:39:55Z</time></trkpt><trkpt lat="42.223339414146515" lon="13.693142536984734"><ele>987.9999999999999</ele><time>2026-05-02T09:39:56Z</time></trkpt><trkpt lat="42.22325752733734" lon="13.693200553900184"><ele>988.0</ele><time>2026-05-02T09:39:57Z</time></trkpt><trkpt lat="42.22317001991931" lon="13.693288819962396"><ele>988.4</ele><time>2026-05-02T09:39:58Z</time></trkpt><trkpt lat="42.223079842152366" lon="13.6933583399486"><ele>988.8</ele><time>2026-05-02T09:39:59Z</time></trkpt><trkpt lat="42.22299172309558" lon="13.69338816735703"><ele>989.2</ele><time>2026-05-02T09:40:00Z</time></trkpt><trkpt lat="42.22291113526967" lon="13.693399165579773"><ele>989.6</ele><time>2026-05-02T09:40:01Z</time></trkpt><trkpt lat="42.22282343707086" lon="13.693415514365718"><ele>990.0</ele><time>2026-05-02T09:40:02Z</time></trkpt><trkpt lat="42.222724336812675" lon="13.693424164174893"><ele>990.0</ele><time>2026-05-02T09:40:03Z</time></trkpt><trkpt lat="42.222593886610866" lon="13.693436619346597"><ele>990.0</ele><time>2026-05-02T09:40:04Z</time></trkpt><trkpt lat="42.22247016600537" lon="13.693463411990153"><ele>990.0</ele><time>2026-05-02T09:40:05Z</time></trkpt><trkpt lat="42.222341367386015" lon="13.693493788062263"><ele>990.0</ele><time>2026-05-02T09:40:06Z</time></trkpt><trkpt lat="42.222219838067346" lon="13.693524672048914"><ele>991.75</ele><time>2026-05-02T09:40:07Z</time></trkpt><trkpt lat="42.22210600601464" lon="13.693574961334596"><ele>993.5</ele><time>2026-05-02T09:40:08Z</time></trkpt><trkpt lat="42.221996495065156" lon="13.693630690078033"><ele>995.25</ele><time>2026-05-02T09:40:09Z</time></trkpt><trkpt lat="42.221888351500624" lon="13.693698256503957"><ele>997.0</ele><time>2026-05-02T09:40:10Z</time></trkpt><trkpt lat="42.221777652864155" lon="13.693801381214724"><ele>997.25</ele><time>2026-05-02T09:40:11Z</time></trkpt><trkpt lat="42.221678346838196" lon="13.693905165364036"><ele>997.5</ele><time>2026-05-02T09:40:12Z</time></trkpt><trkpt lat="42.221563419262125" lon="13.694028896537771"><ele>997.75</ele><time>2026-05-02T09:40:13Z</time></trkpt><trkpt lat="42.22144484419808" lon="13.69413386945588"><ele>998.0</ele><time>2026-05-02T09:40:14Z</time></trkpt><trkpt lat="42.22134224109548" lon="13.69424367767628"><ele>999.25</ele><time>2026-05-02T09:40:15Z</time></trkpt><trkpt lat="42.22127036870627" lon="13.69435935326724"><ele>1000.5</ele><time>2026-05-02T09:40:16Z</time></trkpt><trkpt lat="42.221175299467944" lon="13.694490230941168"><ele>1001.75</ele><time>2026-05-02T09:40:17Z</time></trkpt><trkpt lat="42.22108224821201" lon="13.694615176199184"><ele>1003.0</ele><time>2026-05-02T09:40:18Z</time></trkpt><trkpt lat="42.22097862381893" lon="13.694738593029976"><ele>1003.25</ele><time>2026-05-02T09:40:19Z</time></trkpt><trkpt lat="42.220872009095324" lon="13.694863138584438"><ele>1003.5</ele><time>2026-05-02T09:40:20Z</time></trkpt><trkpt lat="42.22076904725717" lon="13.694991834272424"><ele>1003.75</ele><time>2026-05-02T09:40:21Z</time></trkpt><trkpt lat="42.220672267970954" lon="13.695124959654"><ele>1004.0</ele><time>2026-05-02T09:40:22Z</time></trkpt><trkpt lat="42.22057167230356" lon="13.695252366438208"><ele>1007.25</ele><time>2026-05-02T09:40:23Z</time></trkpt><trkpt lat="42.22046330923051" lon="13.69538666151082"><ele>1010.5</ele><time>2026-05-02T09:40:24Z</time></trkpt><trkpt lat="42.22036268800709" lon="13.69553733051711"><ele>1013.75</ele><time>2026-05-02T09:40:25Z</time></trkpt><trkpt lat="42.22026324712417" lon="13.695683885409863"><ele>1017.0</ele><time>2026-05-02T09:40:26Z</time></trkpt><trkpt lat="42.220178663064225" lon="13.695831011417264"><ele>1017.0</ele><time>2026-05-02T09:40:27Z</time></trkpt><trkpt lat="42.220100873265665" lon="13.695972597541756"><ele>1017.0</ele><time>2026-05-02T09:40:28Z</time></trkpt><trkpt lat="42.22002712842094" lon="13.696095876535265"><ele>1017.0</ele><time>2026-05-02T09:40:29Z</time></trkpt><trkpt lat="42.2199367951147" lon="13.696218216396836"><ele>1017.0</ele><time>2026-05-02T09:40:30Z</time></trkpt><trkpt lat="42.219834354564455" lon="13.696345747693572"><ele>1021.0</ele><time>2026-05-02T09:40:31Z</time></trkpt><trkpt lat="42.21975862484961" lon="13.696464684429413"><ele>1025.0</ele><time>2026-05-02T09:40:32Z</time></trkpt><trkpt lat="42.219710615010584" lon="13.696568065752507"><ele>1029.0</ele><time>2026-05-02T09:40:33Z</time></trkpt><trkpt lat="42.21968495021333" lon="13.696662146055717"><ele>1033.0</ele><time>2026-05-02T09:40:34Z</time></trkpt><trkpt lat="42.21966901682107" lon="13.696768571023645"><ele>1037.0</ele><time>2026-05-02T09:40:35Z</time></trkpt><trkpt lat="42.219643363886135" lon="13.696883887328745"><ele>1035.6</ele><time>2026-05-02T09:40:36Z</time></trkpt><trkpt lat="42.21959964884363" lon="13.696995099772897"><ele>1034.2</ele><time>2026-05-02T09:40:37Z</time></trkpt><trkpt lat="42.2195487612819" lon="13.697099522050694"><ele>1032.8</ele><time>2026-05-02T09:40:38Z</time></trkpt><trkpt lat="42.21949949731884" lon="13.697193849744885"><ele>1031.4</ele><time>2026-05-02T09:40:39Z</time></trkpt><trkpt lat="42.219465259216534" lon="13.697278887550175"><ele>1030.0</ele><time>2026-05-02T09:40:40Z</time></trkpt><trkpt lat="42.219456383673034" lon="13.69744933407938"><ele>1030.0</ele><time>2026-05-02T09:40:42Z</time></trkpt><trkpt lat="42.219448296319165" lon="13.69754755214357"><ele>1030.0</ele><time>2026-05-02T09:40:43Z</time></trkpt><trkpt lat="42.21944965938102" lon="13.697640311571197"><ele>1030.0</ele><time>2026-05-02T09:40:44Z</time></trkpt><trkpt lat="42.21944146439045" lon="13.69773059328998"><ele>1030.0</ele><time>2026-05-02T09:40:45Z</time></trkpt><trkpt lat="42.219432151363755" lon="13.697827671951433"><ele>1030.0</ele><time>2026-05-02T09:40:46Z</time></trkpt><trkpt lat="42.21943228136644" lon="13.697936805269206"><ele>1030.0</ele><time>2026-05-02T09:40:47Z</time></trkpt><trkpt lat="42.21944149252548" lon="13.698057881180485"><ele>1029.5</ele><time>2026-05-02T09:40:48Z</time></trkpt><trkpt lat="42.21946273045673" lon="13.69821055863977"><ele>1029.0</ele><time>2026-05-02T09:40:49Z</time></trkpt><trkpt lat="42.21948874808878" lon="13.698373059853028"><ele>1028.5</ele><time>2026-05-02T09:40:50Z</time></trkpt><trkpt lat="42.219504554078384" lon="13.698533508599894"><ele>1028.0</ele><time>2026-05-02T09:40:51Z</time></trkpt><trkpt lat="42.21952678766809" lon="13.698684123539271"><ele>1028.0</ele><time>2026-05-02T09:40:52Z</time></trkpt><trkpt lat="42.21955079566391" lon="13.698819773198435"><ele>1028.0</ele><time>2026-05-02T09:40:53Z</time></trkpt><trkpt lat="42.21956899603021" lon="13.698938923580027"><ele>1028.0</ele><time>2026-05-02T09:40:54Z</time></trkpt><trkpt lat="42.21956799230962" lon="13.69903554826609"><ele>1028.0</ele><time>2026-05-02T09:40:55Z</time></trkpt><trkpt lat="42.21956317185894" lon="13.69917241392418"><ele>1028.0</ele><time>2026-05-02T09:40:56Z</time></trkpt><trkpt lat="42.219563320940665" lon="13.69933507579874"><ele>1028.25</ele><time>2026-05-02T09:40:57Z</time></trkpt><trkpt lat="42.21957962842874" lon="13.699524665437874"><ele>1028.5</ele><time>2026-05-02T09:40:58Z</time></trkpt><trkpt lat="42.21959642129608" lon="13.699703633823354"><ele>1028.75</ele><time>2026-05-02T09:40:59Z</time></trkpt><trkpt lat="42.21960368132836" lon="13.699861003349353"><ele>1029.0</ele><time>2026-05-02T09:41:00Z</time></trkpt><trkpt lat="42.21959533589773" lon="13.700001095496862"><ele>1029.0</ele><time>2026-05-02T09:41:01Z</time></trkpt><trkpt lat="42.21957617339939" lon="13.700146241922498"><ele>1029.0</ele><time>2026-05-02T09:41:02Z</time></trkpt><trkpt lat="42.219545511015916" lon="13.700282703109284"><ele>1029.0</ele><time>2026-05-02T09:41:03Z</time></trkpt><trkpt lat="42.219500332256224" lon="13.700412397677297"><ele>1029.0</ele><time>2026-05-02T09:41:04Z</time></trkpt><trkpt lat="42.219468431801225" lon="13.700554411016924"><ele>1029.0</ele><time>2026-05-02T09:41:05Z</time></trkpt><trkpt lat="42.21944957778111" lon="13.700719932886091"><ele>1028.75</ele><time>2026-05-02T09:41:06Z</time></trkpt><trkpt lat="42.21941971689581" lon="13.700886376780163"><ele>1028.5</ele><time>2026-05-02T09:41:07Z</time></trkpt><trkpt lat="42.219381139667746" lon="13.70106131533989"><ele>1028.25</ele><time>2026-05-02T09:41:08Z</time></trkpt><trkpt lat="42.21935335819168" lon="13.701233266192386"><ele>1028.0</ele><time>2026-05-02T09:41:09Z</time></trkpt><trkpt lat="42.21933438893109" lon="13.70141567769926"><ele>1028.5</ele><time>2026-05-02T09:41:10Z</time></trkpt><trkpt lat="42.219314811527944" lon="13.70159244562103"><ele>1029.0</ele><time>2026-05-02T09:41:11Z</time></trkpt><trkpt lat="42.219296772945334" lon="13.701746073516228"><ele>1029.5</ele><time>2026-05-02T09:41:12Z</time></trkpt><trkpt lat="42.21927874266495" lon="13.701882468464357"><ele>1030.0</ele><time>2026-05-02T09:41:13Z</time></trkpt><trkpt lat="42.219272455901276" lon="13.702030274101212"><ele>1030.0</ele><time>2026-05-02T09:41:14Z</time></trkpt><trkpt lat="42.219283193107294" lon="13.702190053480594"><ele>1030.0</ele><time>2026-05-02T09:41:15Z</time></trkpt><trkpt lat="42.2193052151153" lon="13.70232970274936"><ele>1030.0</ele><time>2026-05-02T09:41:16Z</time></trkpt><trkpt lat="42.219341641566444" lon="13.702457484133161"><ele>1030.0</ele><time>2026-05-02T09:41:17Z</time></trkpt><trkpt lat="42.219389925102796" lon="13.70257399650969"><ele>1030.0</ele><time>2026-05-02T09:41:18Z</time></trkpt><trkpt lat="42.21944308905686" lon="13.702683024556372"><ele>1028.75</ele><time>2026-05-02T09:41:19Z</time></trkpt><trkpt lat="42.21948429675635" lon="13.702794679963462"><ele>1027.5</ele><time>2026-05-02T09:41:20Z</time></trkpt><trkpt lat="42.21949971339563" lon="13.702928785520923"><ele>1026.25</ele><time>2026-05-02T09:41:20.999Z</time></trkpt><trkpt lat="42.21949945146413" lon="13.703099628324082"><ele>1025.0</ele><time>2026-05-02T09:41:21.999Z</time></trkpt><trkpt lat="42.219480423527" lon="13.703311462366115"><ele>1025.0</ele><time>2026-05-02T09:41:22.999Z</time></trkpt><trkpt lat="42.2194753438526" lon="13.703527432043577"><ele>1025.0</ele><time>2026-05-02T09:41:23.999Z</time></trkpt><trkpt lat="42.21947000604012" lon="13.7037143302681"><ele>1025.0</ele><time>2026-05-02T09:41:24.999Z</time></trkpt><trkpt lat="42.219472101220546" lon="13.703883239772791"><ele>1025.0</ele><time>2026-05-02T09:41:25.999Z</time></trkpt><trkpt lat="42.21948759332282" lon="13.704055564648465"><ele>1025.5</ele><time>2026-05-02T09:41:26.999Z</time></trkpt><trkpt lat="42.219520585435845" lon="13.70422023420015"><ele>1026.0</ele><time>2026-05-02T09:41:27.999Z</time></trkpt><trkpt lat="42.21956374025559" lon="13.704382708718578"><ele>1026.5</ele><time>2026-05-02T09:41:28.999Z</time></trkpt><trkpt lat="42.21962493282024" lon="13.704569795723325"><ele>1027.0</ele><time>2026-05-02T09:41:29.999Z</time></trkpt><trkpt lat="42.21968177849301" lon="13.704778484238213"><ele>1028.25</ele><time>2026-05-02T09:41:30.999Z</time></trkpt><trkpt lat="42.21973095578369" lon="13.704967620917273"><ele>1029.5</ele><time>2026-05-02T09:41:31.999Z</time></trkpt><trkpt lat="42.21976927460268" lon="13.70514909671317"><ele>1030.75</ele><time>2026-05-02T09:41:32.999Z</time></trkpt><trkpt lat="42.21978825526939" lon="13.70533854715079"><ele>1032.0</ele><time>2026-05-02T09:41:33.999Z</time></trkpt><trkpt lat="42.21980301875111" lon="13.705533811485054"><ele>1033.25</ele><time>2026-05-02T09:41:34.999Z</time></trkpt><trkpt lat="42.21980990110629" lon="13.705719626136041"><ele>1034.5</ele><time>2026-05-02T09:41:35.999Z</time></trkpt><trkpt lat="42.21980607013133" lon="13.705903539107155"><ele>1035.75</ele><time>2026-05-02T09:41:36.999Z</time></trkpt><trkpt lat="42.21979472120349" lon="13.706065942553748"><ele>1037.0</ele><time>2026-05-02T09:41:37.999Z</time></trkpt><trkpt lat="42.219793785113986" lon="13.706215500033508"><ele>1037.0</ele><time>2026-05-02T09:41:38.999Z</time></trkpt><trkpt lat="42.21981027173787" lon="13.706353175673874"><ele>1037.0</ele><time>2026-05-02T09:41:39.999Z</time></trkpt><trkpt lat="42.219843578841704" lon="13.7064911110892"><ele>1037.0</ele><time>2026-05-02T09:41:40.999Z</time></trkpt><trkpt lat="42.21987652233215" lon="13.706634270773952"><ele>1037.0</ele><time>2026-05-02T09:41:41.999Z</time></trkpt><trkpt lat="42.219891230386054" lon="13.70678962023423"><ele>1037.0</ele><time>2026-05-02T09:41:42.999Z</time></trkpt><trkpt lat="42.21991288392035" lon="13.706963418349197"><ele>1034.0</ele><time>2026-05-02T09:41:43.999Z</time></trkpt><trkpt lat="42.219958751109104" lon="13.707149098258236"><ele>1031.0</ele><time>2026-05-02T09:41:44.999Z</time></trkpt><trkpt lat="42.219999108223284" lon="13.707315161084177"><ele>1028.0</ele><time>2026-05-02T09:41:45.999Z</time></trkpt><trkpt lat="42.22002153360964" lon="13.707469757785779"><ele>1025.0</ele><time>2026-05-02T09:41:46.999Z</time></trkpt><trkpt lat="42.22003247087646" lon="13.70762274708962"><ele>1024.8</ele><time>2026-05-02T09:41:47.999Z</time></trkpt><trkpt lat="42.22004222024611" lon="13.707764037127276"><ele>1024.6</ele><time>2026-05-02T09:41:48.999Z</time></trkpt><trkpt lat="42.22002666553948" lon="13.707895225238657"><ele>1024.4</ele><time>2026-05-02T09:41:50Z</time></trkpt><trkpt lat="42.219984333249414" lon="13.708010858573134"><ele>1024.2</ele><time>2026-05-02T09:41:51Z</time></trkpt><trkpt lat="42.219939725147164" lon="13.708114919967414"><ele>1024.0</ele><time>2026-05-02T09:41:52Z</time></trkpt><trkpt lat="42.2199423793056" lon="13.708203403423038"><ele>1024.0</ele><time>2026-05-02T09:41:53Z</time></trkpt><trkpt lat="42.21997349656213" lon="13.708308145894698"><ele>1024.0</ele><time>2026-05-02T09:41:54Z</time></trkpt><trkpt lat="42.21999835134076" lon="13.708414524412657"><ele>1024.0</ele><time>2026-05-02T09:41:55Z</time></trkpt><trkpt lat="42.22000250648363" lon="13.708547735000858"><ele>1024.0</ele><time>2026-05-02T09:41:56Z</time></trkpt><trkpt lat="42.21997875795741" lon="13.708696259384638"><ele>1024.0</ele><time>2026-05-02T09:41:57Z</time></trkpt><trkpt lat="42.21995378680713" lon="13.708849286091004"><ele>1024.25</ele><time>2026-05-02T09:41:58Z</time></trkpt><trkpt lat="42.219936564816" lon="13.709007980651435"><ele>1024.5</ele><time>2026-05-02T09:41:59Z</time></trkpt><trkpt lat="42.219919547311235" lon="13.709166178497956"><ele>1024.75</ele><time>2026-05-02T09:42:00Z</time></trkpt><trkpt lat="42.219903082170404" lon="13.709318252076294"><ele>1025.0</ele><time>2026-05-02T09:42:01Z</time></trkpt><trkpt lat="42.219888676195986" lon="13.709472633449947"><ele>1025.2</ele><time>2026-05-02T09:42:02Z</time></trkpt><trkpt lat="42.21987453779825" lon="13.70961403954794"><ele>1025.4</ele><time>2026-05-02T09:42:03Z</time></trkpt><trkpt lat="42.21985893767064" lon="13.709728518855073"><ele>1025.6</ele><time>2026-05-02T09:42:04Z</time></trkpt><trkpt lat="42.21982872792308" lon="13.709869957649207"><ele>1025.8</ele><time>2026-05-02T09:42:06Z</time></trkpt><trkpt lat="42.21983739793313" lon="13.709959471486012"><ele>1026.0</ele><time>2026-05-02T09:42:11Z</time></trkpt><trkpt lat="42.21981189003389" lon="13.710091203078465"><ele>1026.0</ele><time>2026-05-02T09:42:14Z</time></trkpt><trkpt lat="42.21978675223244" lon="13.710244552700177"><ele>1026.0</ele><time>2026-05-02T09:42:16Z</time></trkpt><trkpt lat="42.219754868920596" lon="13.71032986937575"><ele>1026.0</ele><time>2026-05-02T09:42:18Z</time></trkpt><trkpt lat="42.219713248715316" lon="13.710490119674347"><ele>1026.0</ele><time>2026-05-02T09:42:19Z</time></trkpt><trkpt lat="42.21970633530191" lon="13.710592280227239"><ele>1026.0</ele><time>2026-05-02T09:42:20Z</time></trkpt><trkpt lat="42.21971311311986" lon="13.710687746428635"><ele>1026.0</ele><time>2026-05-02T09:42:21Z</time></trkpt><trkpt lat="42.219725254713325" lon="13.710772081847288"><ele>1026.0</ele><time>2026-05-02T09:42:22Z</time></trkpt><trkpt lat="42.21980620030818" lon="13.71090298302961"><ele>1026.0</ele><time>2026-05-02T09:42:24Z</time></trkpt><trkpt lat="42.21986949577079" lon="13.710980384424333"><ele>1026.0</ele><time>2026-05-02T09:42:25Z</time></trkpt><trkpt lat="42.219929592927585" lon="13.711042421940306"><ele>1026.0</ele><time>2026-05-02T09:42:26Z</time></trkpt><trkpt lat="42.219990336479334" lon="13.711091272107424"><ele>1026.0</ele><time>2026-05-02T09:42:27Z</time></trkpt><trkpt lat="42.22005158034763" lon="13.711121283258317"><ele>1027.0</ele><time>2026-05-02T09:42:28Z</time></trkpt><trkpt lat="42.22016033771546" lon="13.711191928912788"><ele>1028.0</ele><time>2026-05-02T09:42:30Z</time></trkpt><trkpt lat="42.22023479700689" lon="13.711294243860223"><ele>1029.0</ele><time>2026-05-02T09:42:32Z</time></trkpt><trkpt lat="42.22024827810706" lon="13.711491832704294"><ele>1030.0</ele><time>2026-05-02T09:43:49.999Z</time></trkpt><trkpt lat="42.220220626320774" lon="13.711573584511214"><ele>1031.0</ele><time>2026-05-02T09:43:50.999Z</time></trkpt><trkpt lat="42.22010673473396" lon="13.711658408269988"><ele>1031.0</ele><time>2026-05-02T09:43:52.999Z</time></trkpt><trkpt lat="42.220023509524964" lon="13.711655233368958"><ele>1031.0</ele><time>2026-05-02T09:43:53.999Z</time></trkpt><trkpt lat="42.21993250211549" lon="13.711631869046656"><ele>1031.0</ele><time>2026-05-02T09:43:54.999Z</time></trkpt><trkpt lat="42.21985021732741" lon="13.711618532300452"><ele>1031.0</ele><time>2026-05-02T09:43:56.001Z</time></trkpt><trkpt lat="42.219781421941896" lon="13.711618128891837"><ele>1031.0</ele><time>2026-05-02T09:43:57.001Z</time></trkpt><trkpt lat="42.21970890105289" lon="13.711636311505535"><ele>1031.0</ele><time>2026-05-02T09:43:58.001Z</time></trkpt><trkpt lat="42.21963510890816" lon="13.711666770689419"><ele>1030.6666666666667</ele><time>2026-05-02T09:43:59.001Z</time></trkpt><trkpt lat="42.219558587119224" lon="13.711696816946295"><ele>1030.3333333333335</ele><time>2026-05-02T09:44:00.001Z</time></trkpt><trkpt lat="42.21947005364659" lon="13.711712021363466"><ele>1030.0</ele><time>2026-05-02T09:44:01.001Z</time></trkpt><trkpt lat="42.21938926533378" lon="13.71171533248073"><ele>1029.6666666666667</ele><time>2026-05-02T09:44:02.001Z</time></trkpt><trkpt lat="42.21931448684741" lon="13.71171306108282"><ele>1029.3333333333333</ele><time>2026-05-02T09:44:03.001Z</time></trkpt><trkpt lat="42.21924753386607" lon="13.711726825415914"><ele>1029.0</ele><time>2026-05-02T09:44:04.001Z</time></trkpt><trkpt lat="42.21918059984244" lon="13.711779660543895"><ele>1029.0</ele><time>2026-05-02T09:44:05.001Z</time></trkpt><trkpt lat="42.21911886397915" lon="13.711853075012385"><ele>1029.0</ele><time>2026-05-02T09:44:06.001Z</time></trkpt><trkpt lat="42.21904751040197" lon="13.711935127890593"><ele>1029.0</ele><time>2026-05-02T09:44:07.001Z</time></trkpt><trkpt lat="42.21897854957427" lon="13.711998626684592"><ele>1029.0</ele><time>2026-05-02T09:44:08.001Z</time></trkpt><trkpt lat="42.21889232309763" lon="13.712092335872214"><ele>1029.0</ele><time>2026-05-02T09:44:10.001Z</time></trkpt><trkpt lat="42.218919078518724" lon="13.712273671065033"><ele>1030.1666666666667</ele><time>2026-05-02T09:44:12Z</time></trkpt><trkpt lat="42.21895231543261" lon="13.712399078403823"><ele>1031.3333333333333</ele><time>2026-05-02T09:44:13Z</time></trkpt><trkpt lat="42.21897687018432" lon="13.712525800497607"><ele>1032.5</ele><time>2026-05-02T09:44:14Z</time></trkpt><trkpt lat="42.218990221547635" lon="13.712632637721931"><ele>1033.6666666666665</ele><time>2026-05-02T09:44:15Z</time></trkpt><trkpt lat="42.21899748153119" lon="13.71272677891387"><ele>1034.8333333333333</ele><time>2026-05-02T09:44:16Z</time></trkpt><trkpt lat="42.21900538629367" lon="13.712854005519322"><ele>1036.0</ele><time>2026-05-02T09:44:18Z</time></trkpt><trkpt lat="42.219027669207705" lon="13.712956874757621"><ele>1037.8</ele><time>2026-05-02T09:44:20Z</time></trkpt><trkpt lat="42.21905794665306" lon="13.713071783216394"><ele>1039.6</ele><time>2026-05-02T09:44:22Z</time></trkpt><trkpt lat="42.21908699334987" lon="13.713208985059186"><ele>1041.4</ele><time>2026-05-02T09:44:24Z</time></trkpt><trkpt lat="42.219102023184696" lon="13.713338238240993"><ele>1043.2</ele><time>2026-05-02T09:44:26Z</time></trkpt><trkpt lat="42.219103945367515" lon="13.713455849246028"><ele>1045.0</ele><time>2026-05-02T09:44:28Z</time></trkpt><trkpt lat="42.219099898740566" lon="13.713585349861454"><ele>1047.0</ele><time>2026-05-02T09:44:30Z</time></trkpt><trkpt lat="42.21907973580374" lon="13.713745036804939"><ele>1049.0</ele><time>2026-05-02T09:44:32Z</time></trkpt><trkpt lat="42.21906256285926" lon="13.713896273945824"><ele>1051.0</ele><time>2026-05-02T09:44:34Z</time></trkpt><trkpt lat="42.21903424468303" lon="13.714062015464998"><ele>1053.0</ele><time>2026-05-02T09:44:36Z</time></trkpt><trkpt lat="42.219007113152834" lon="13.714181159380198"><ele>1056.0</ele><time>2026-05-02T09:44:37Z</time></trkpt><trkpt lat="42.218970980767104" lon="13.714331483773053"><ele>1059.0</ele><time>2026-05-02T09:44:38Z</time></trkpt><trkpt lat="42.218926107345226" lon="13.714496917455694"><ele>1062.0</ele><time>2026-05-02T09:44:39Z</time></trkpt><trkpt lat="42.21887905226121" lon="13.714661284512822"><ele>1065.0</ele><time>2026-05-02T09:44:40Z</time></trkpt><trkpt lat="42.21882540330478" lon="13.714829693782814"><ele>1065.0</ele><time>2026-05-02T09:44:41Z</time></trkpt><trkpt lat="42.21877918195693" lon="13.715009582436798"><ele>1065.0</ele><time>2026-05-02T09:44:42Z</time></trkpt><trkpt lat="42.21874374800738" lon="13.7151879890618"><ele>1065.0</ele><time>2026-05-02T09:44:43Z</time></trkpt><trkpt lat="42.21869786360274" lon="13.715358201388689"><ele>1065.0</ele><time>2026-05-02T09:44:44Z</time></trkpt><trkpt lat="42.21864862949963" lon="13.71553578794129"><ele>1063.75</ele><time>2026-05-02T09:44:45Z</time></trkpt><trkpt lat="42.218599436069624" lon="13.715704220552162"><ele>1062.5</ele><time>2026-05-02T09:44:46Z</time></trkpt><trkpt lat="42.21853868559526" lon="13.715862903431038"><ele>1061.25</ele><time>2026-05-02T09:44:47Z</time></trkpt><trkpt lat="42.21848491802915" lon="13.716022141096486"><ele>1060.0</ele><time>2026-05-02T09:44:48Z</time></trkpt><trkpt lat="42.21844452903804" lon="13.716157536700745"><ele>1059.8</ele><time>2026-05-02T09:44:49Z</time></trkpt><trkpt lat="42.21842366651516" lon="13.716260069858485"><ele>1059.6</ele><time>2026-05-02T09:44:50Z</time></trkpt><trkpt lat="42.21841806442334" lon="13.716362467160957"><ele>1059.4</ele><time>2026-05-02T09:44:51Z</time></trkpt><trkpt lat="42.21843606078341" lon="13.716474821073996"><ele>1059.2</ele><time>2026-05-02T09:44:52Z</time></trkpt><trkpt lat="42.21845623469314" lon="13.716616542495842"><ele>1059.0</ele><time>2026-05-02T09:44:53Z</time></trkpt><trkpt lat="42.2184599829942" lon="13.71677074593639"><ele>1058.5</ele><time>2026-05-02T09:44:54Z</time></trkpt><trkpt lat="42.21845790716307" lon="13.716947232648872"><ele>1058.0</ele><time>2026-05-02T09:44:55Z</time></trkpt><trkpt lat="42.21844688574078" lon="13.717137754390892"><ele>1057.5</ele><time>2026-05-02T09:44:56Z</time></trkpt><trkpt lat="42.21842656799395" lon="13.717334324630007"><ele>1057.0</ele><time>2026-05-02T09:44:57Z</time></trkpt><trkpt lat="42.218395774688766" lon="13.71752196847932"><ele>1057.0</ele><time>2026-05-02T09:44:58Z</time></trkpt><trkpt lat="42.21834931712295" lon="13.717701373285188"><ele>1057.0</ele><time>2026-05-02T09:44:59Z</time></trkpt><trkpt lat="42.2182922888342" lon="13.71787500338728"><ele>1057.0</ele><time>2026-05-02T09:45:00Z</time></trkpt><trkpt lat="42.21823889753497" lon="13.718041992360686"><ele>1057.0</ele><time>2026-05-02T09:45:01Z</time></trkpt><trkpt lat="42.218203121104935" lon="13.71821098149746"><ele>1057.25</ele><time>2026-05-02T09:45:02Z</time></trkpt><trkpt lat="42.21818022929852" lon="13.718381876045374"><ele>1057.5</ele><time>2026-05-02T09:45:03Z</time></trkpt><trkpt lat="42.21815613284276" lon="13.718551604566764"><ele>1057.75</ele><time>2026-05-02T09:45:04Z</time></trkpt><trkpt lat="42.21812721967975" lon="13.718723935605619"><ele>1058.0</ele><time>2026-05-02T09:45:05Z</time></trkpt><trkpt lat="42.21808805833992" lon="13.71889204024093"><ele>1058.0</ele><time>2026-05-02T09:45:06Z</time></trkpt><trkpt lat="42.218036096121125" lon="13.719053333052447"><ele>1058.0</ele><time>2026-05-02T09:45:07Z</time></trkpt><trkpt lat="42.21797231690251" lon="13.719199353480327"><ele>1058.0</ele><time>2026-05-02T09:45:08Z</time></trkpt><trkpt lat="42.21790954376631" lon="13.719311004382936"><ele>1058.0</ele><time>2026-05-02T09:45:09Z</time></trkpt><trkpt lat="42.21785759474098" lon="13.71940550539553"><ele>1058.0</ele><time>2026-05-02T09:45:10Z</time></trkpt><trkpt lat="42.21781806025603" lon="13.71948905149469"><ele>1059.0</ele><time>2026-05-02T09:45:11Z</time></trkpt><trkpt lat="42.21783534810666" lon="13.719595952323198"><ele>1060.0</ele><time>2026-05-02T09:45:13Z</time></trkpt><trkpt lat="42.21796838106825" lon="13.71967214851557"><ele>1061.0</ele><time>2026-05-02T09:45:15Z</time></trkpt><trkpt lat="42.21805907534593" lon="13.71978715356935"><ele>1062.0</ele><time>2026-05-02T09:45:17Z</time></trkpt><trkpt lat="42.21811036716185" lon="13.71989440658175"><ele>1063.0</ele><time>2026-05-02T09:45:18Z</time></trkpt><trkpt lat="42.21817594254804" lon="13.720004645855857"><ele>1063.0</ele><time>2026-05-02T09:45:19Z</time></trkpt><trkpt lat="42.218243354425944" lon="13.72008820670878"><ele>1063.0</ele><time>2026-05-02T09:45:20Z</time></trkpt><trkpt lat="42.21830728446077" lon="13.720167467982703"><ele>1063.0</ele><time>2026-05-02T09:45:21Z</time></trkpt><trkpt lat="42.21838082175558" lon="13.720280082995535"><ele>1063.0</ele><time>2026-05-02T09:45:22Z</time></trkpt><trkpt lat="42.21845010860918" lon="13.720392275434767"><ele>1063.0</ele><time>2026-05-02T09:45:23Z</time></trkpt><trkpt lat="42.218503574320536" lon="13.720492499293524"><ele>1064.3333333333333</ele><time>2026-05-02T09:45:24Z</time></trkpt><trkpt lat="42.21855707799399" lon="13.720567440032964"><ele>1065.6666666666665</ele><time>2026-05-02T09:45:25Z</time></trkpt><trkpt lat="42.21862212739438" lon="13.720611316760168"><ele>1067.0</ele><time>2026-05-02T09:45:26Z</time></trkpt><trkpt lat="42.218685141174" lon="13.720647770653061"><ele>1068.3333333333333</ele><time>2026-05-02T09:45:27Z</time></trkpt><trkpt lat="42.21873695519108" lon="13.720699263294543"><ele>1069.6666666666667</ele><time>2026-05-02T09:45:28Z</time></trkpt><trkpt lat="42.21882305922996" lon="13.72077262365061"><ele>1071.0</ele><time>2026-05-02T09:45:29.999Z</time></trkpt><trkpt lat="42.21891197557955" lon="13.720766205684912"><ele>1071.0</ele><time>2026-05-02T09:45:31.999Z</time></trkpt><trkpt lat="42.218979723607745" lon="13.720703706033454"><ele>1071.0</ele><time>2026-05-02T09:45:33.999Z</time></trkpt><trkpt lat="42.21904491079017" lon="13.720646995827495"><ele>1071.0</ele><time>2026-05-02T09:45:35.999Z</time></trkpt><trkpt lat="42.21915129498243" lon="13.720652132792868"><ele>1071.0</ele><time>2026-05-02T09:45:37.999Z</time></trkpt><trkpt lat="42.21923748658153" lon="13.720622038083267"><ele>1071.0</ele><time>2026-05-02T09:45:39.999Z</time></trkpt><trkpt lat="42.21931824760587" lon="13.720547198131943"><ele>1068.8</ele><time>2026-05-02T09:45:41.999Z</time></trkpt><trkpt lat="42.21941232141976" lon="13.720467820013338"><ele>1066.6</ele><time>2026-05-02T09:45:43.999Z</time></trkpt><trkpt lat="42.219491886839286" lon="13.720397111221203"><ele>1064.4</ele><time>2026-05-02T09:45:45.999Z</time></trkpt><trkpt lat="42.21956984954241" lon="13.720328148514536"><ele>1062.2</ele><time>2026-05-02T09:45:47.999Z</time></trkpt><trkpt lat="42.219651250455485" lon="13.720253252864765"><ele>1060.0</ele><time>2026-05-02T09:45:49.999Z</time></trkpt><trkpt lat="42.21972887160161" lon="13.720140595403112"><ele>1060.0</ele><time>2026-05-02T09:45:51.999Z</time></trkpt><trkpt lat="42.219796862035466" lon="13.720014148338187"><ele>1060.0</ele><time>2026-05-02T09:45:53.999Z</time></trkpt><trkpt lat="42.21987156622844" lon="13.719890251544424"><ele>1060.0</ele><time>2026-05-02T09:45:55.999Z</time></trkpt><trkpt lat="42.219928294586595" lon="13.71979268556043"><ele>1060.0</ele><time>2026-05-02T09:45:57.999Z</time></trkpt><trkpt lat="42.21998605140288" lon="13.719697317819527"><ele>1060.0</ele><time>2026-05-02T09:45:59.999Z</time></trkpt><trkpt lat="42.220033318719366" lon="13.719640532880794"><ele>1055.5714285714284</ele><time>2026-05-02T09:46:02Z</time></trkpt><trkpt lat="42.220093324850616" lon="13.719592435569488"><ele>1051.142857142857</ele><time>2026-05-02T09:46:31Z</time></trkpt><trkpt lat="42.22014184352949" lon="13.719651379342949"><ele>1046.7142857142858</ele><time>2026-05-02T09:46:34Z</time></trkpt><trkpt lat="42.22016048251637" lon="13.71974688302413"><ele>1042.2857142857142</ele><time>2026-05-02T09:46:37Z</time></trkpt><trkpt lat="42.22015911390943" lon="13.719835533630343"><ele>1037.857142857143</ele><time>2026-05-02T09:46:40Z</time></trkpt><trkpt lat="42.220161010572575" lon="13.719929627585401"><ele>1033.4285714285713</ele><time>2026-05-02T09:46:43Z</time></trkpt><trkpt lat="42.220158942614816" lon="13.720016274880168"><ele>1029.0</ele><time>2026-05-02T09:46:46Z</time></trkpt><trkpt lat="42.22015048636758" lon="13.720139368933419"><ele>1027.3333333333333</ele><time>2026-05-02T09:46:49Z</time></trkpt><trkpt lat="42.22014348879244" lon="13.720259977855278"><ele>1025.6666666666667</ele><time>2026-05-02T09:46:52Z</time></trkpt><trkpt lat="42.22012803690796" lon="13.720377573146699"><ele>1024.0</ele><time>2026-05-02T09:46:55Z</time></trkpt><trkpt lat="42.22013712125917" lon="13.720497681562025"><ele>1022.3333333333334</ele><time>2026-05-02T09:46:58Z</time></trkpt><trkpt lat="42.22016264844094" lon="13.720582240351497"><ele>1020.6666666666667</ele><time>2026-05-02T09:47:00Z</time></trkpt><trkpt lat="42.22023291940046" lon="13.720686608604217"><ele>1019.0</ele><time>2026-05-02T09:47:02Z</time></trkpt><trkpt lat="42.22029330921358" lon="13.72079894024494"><ele>1019.0</ele><time>2026-05-02T09:47:04Z</time></trkpt><trkpt lat="42.2203415975592" lon="13.720920780480292"><ele>1019.0000000000001</ele><time>2026-05-02T09:47:06Z</time></trkpt><trkpt lat="42.220382531539435" lon="13.721037569465217"><ele>1019.0000000000001</ele><time>2026-05-02T09:47:08Z</time></trkpt><trkpt lat="42.22043405324626" lon="13.721144963620224"><ele>1019.0</ele><time>2026-05-02T09:47:10Z</time></trkpt><trkpt lat="42.22048465479675" lon="13.721239525329299"><ele>1019.0</ele><time>2026-05-02T09:47:12Z</time></trkpt><trkpt lat="42.22056548927602" lon="13.721301890739259"><ele>1018.8333333333334</ele><time>2026-05-02T09:47:14Z</time></trkpt><trkpt lat="42.22062663968618" lon="13.72133785048237"><ele>1018.6666666666667</ele><time>2026-05-02T09:47:15Z</time></trkpt><trkpt lat="42.22073483323545" lon="13.72136759950994"><ele>1018.5</ele><time>2026-05-02T09:47:17Z</time></trkpt><trkpt lat="42.22084104563825" lon="13.721400196973613"><ele>1018.3333333333333</ele><time>2026-05-02T09:47:19Z</time></trkpt><trkpt lat="42.22092068219581" lon="13.721424781607077"><ele>1018.1666666666666</ele><time>2026-05-02T09:47:21Z</time></trkpt><trkpt lat="42.22099659496374" lon="13.721438212986262"><ele>1018.0</ele><time>2026-05-02T09:47:23Z</time></trkpt><trkpt lat="42.221088035864405" lon="13.721448873607892"><ele>1010.4</ele><time>2026-05-02T09:47:25Z</time></trkpt><trkpt lat="42.221184906969306" lon="13.72143256323273"><ele>1002.8</ele><time>2026-05-02T09:47:27Z</time></trkpt><trkpt lat="42.22129324349491" lon="13.721413829776823"><ele>995.2</ele><time>2026-05-02T09:47:29Z</time></trkpt><trkpt lat="42.221396277580766" lon="13.721423574775768"><ele>987.6</ele><time>2026-05-02T09:47:31Z</time></trkpt><trkpt lat="42.22149808407278" lon="13.721437367812714"><ele>980.0</ele><time>2026-05-02T09:47:32.999Z</time></trkpt><trkpt lat="42.22158740355663" lon="13.72143708230063"><ele>976.5000000000001</ele><time>2026-05-02T09:47:34.999Z</time></trkpt><trkpt lat="42.221692697581496" lon="13.72142880085025"><ele>973.0</ele><time>2026-05-02T09:47:36.999Z</time></trkpt><trkpt lat="42.221776862873725" lon="13.7214142824678"><ele>969.5</ele><time>2026-05-02T09:47:39.999Z</time></trkpt><trkpt lat="42.22180847332542" lon="13.721490047154594"><ele>966.0</ele><time>2026-05-02T09:48:37Z</time></trkpt><trkpt lat="42.22180348254678" lon="13.721596413000208"><ele>962.5000000000001</ele><time>2026-05-02T09:49:00Z</time></trkpt><trkpt lat="42.22178979823032" lon="13.721725516524913"><ele>959.0</ele><time>2026-05-02T09:49:02Z</time></trkpt><trkpt lat="42.221755738035924" lon="13.721854390835805"><ele>957.2857142857142</ele><time>2026-05-02T09:49:04Z</time></trkpt><trkpt lat="42.2217139916935" lon="13.721955143452409"><ele>955.5714285714286</ele><time>2026-05-02T09:49:06Z</time></trkpt><trkpt lat="42.22166592517548" lon="13.722048636479434"><ele>953.8571428571429</ele><time>2026-05-02T09:49:08Z</time></trkpt><trkpt lat="42.221632414394286" lon="13.722135953956256"><ele>952.1428571428571</ele><time>2026-05-02T09:49:10Z</time></trkpt><trkpt lat="42.22160032215831" lon="13.722216669255843"><ele>950.4285714285713</ele><time>2026-05-02T09:49:12Z</time></trkpt><trkpt lat="42.22157016471383" lon="13.7222938964392"><ele>948.7142857142857</ele><time>2026-05-02T09:49:14Z</time></trkpt><trkpt lat="42.221536197706925" lon="13.722376190053122"><ele>947.0</ele><time>2026-05-02T09:49:16Z</time></trkpt><trkpt lat="42.221501192682055" lon="13.722452928535068"><ele>946.3333333333334</ele><time>2026-05-02T09:49:18Z</time></trkpt><trkpt lat="42.22146558869691" lon="13.722541136351776"><ele>945.6666666666667</ele><time>2026-05-02T09:49:20Z</time></trkpt><trkpt lat="42.22142559728625" lon="13.72262481046259"><ele>945.0</ele><time>2026-05-02T09:49:22Z</time></trkpt><trkpt lat="42.22139382695764" lon="13.722716658921248"><ele>944.3333333333333</ele><time>2026-05-02T09:49:24Z</time></trkpt><trkpt lat="42.22134099994299" lon="13.722836574825447"><ele>943.6666666666666</ele><time>2026-05-02T09:49:26Z</time></trkpt><trkpt lat="42.22129818588039" lon="13.722932730471856"><ele>943.0</ele><time>2026-05-02T09:49:28Z</time></trkpt><trkpt lat="42.22124304665197" lon="13.723041379573719"><ele>943.0</ele><time>2026-05-02T09:49:30Z</time></trkpt><trkpt lat="42.221194164321965" lon="13.723147745792074"><ele>943.0</ele><time>2026-05-02T09:49:32Z</time></trkpt><trkpt lat="42.221140827014715" lon="13.723258911591028"><ele>943.0</ele><time>2026-05-02T09:49:34Z</time></trkpt><trkpt lat="42.2210917955188" lon="13.723371479559052"><ele>943.0</ele><time>2026-05-02T09:49:36Z</time></trkpt><trkpt lat="42.22105091567476" lon="13.723489879887541"><ele>943.0</ele><time>2026-05-02T09:49:37.999Z</time></trkpt><trkpt lat="42.22101707379533" lon="13.723602824806857"><ele>938.5999999999999</ele><time>2026-05-02T09:49:39.999Z</time></trkpt><trkpt lat="42.22099392136075" lon="13.723723245404546"><ele>934.1999999999999</ele><time>2026-05-02T09:49:41.999Z</time></trkpt><trkpt lat="42.22097510356615" lon="13.723854347042115"><ele>929.8</ele><time>2026-05-02T09:49:43.999Z</time></trkpt><trkpt lat="42.22094082428721" lon="13.723990005827789"><ele>925.4</ele><time>2026-05-02T09:49:45.999Z</time></trkpt><trkpt lat="42.22090773483678" lon="13.724103966509743"><ele>921.0</ele><time>2026-05-02T09:49:47.999Z</time></trkpt><trkpt lat="42.22087961172912" lon="13.724237230473783"><ele>921.0</ele><time>2026-05-02T09:49:49.999Z</time></trkpt><trkpt lat="42.220861015998814" lon="13.724356494549431"><ele>920.9999999999999</ele><time>2026-05-02T09:49:51.999Z</time></trkpt><trkpt lat="42.22084104387524" lon="13.724523835646524"><ele>920.9999999999999</ele><time>2026-05-02T09:49:53.999Z</time></trkpt><trkpt lat="42.22081696484326" lon="13.724663133414806"><ele>921.0</ele><time>2026-05-02T09:49:55.999Z</time></trkpt><trkpt lat="42.22077335088071" lon="13.72477797328934"><ele>921.0</ele><time>2026-05-02T09:49:57.999Z</time></trkpt><trkpt lat="42.220723396445145" lon="13.724899150351606"><ele>921.1999999999999</ele><time>2026-05-02T09:49:59.999Z</time></trkpt><trkpt lat="42.22066562042155" lon="13.725013780313247"><ele>921.3999999999999</ele><time>2026-05-02T09:50:01.999Z</time></trkpt><trkpt lat="42.22061443916023" lon="13.725147772820923"><ele>921.6</ele><time>2026-05-02T09:50:03.999Z</time></trkpt><trkpt lat="42.22057788908735" lon="13.72529809212298"><ele>921.8</ele><time>2026-05-02T09:50:05.999Z</time></trkpt><trkpt lat="42.220556002800656" lon="13.725379557728406"><ele>922.0</ele><time>2026-05-02T09:50:06.999Z</time></trkpt><trkpt lat="42.2205096475432" lon="13.72552120196839"><ele>916.2</ele><time>2026-05-02T09:50:08.999Z</time></trkpt><trkpt lat="42.22045397551648" lon="13.725654704187725"><ele>910.4000000000001</ele><time>2026-05-02T09:50:10.999Z</time></trkpt><trkpt lat="42.220391676232474" lon="13.725776292511382"><ele>904.5999999999999</ele><time>2026-05-02T09:50:12.999Z</time></trkpt><trkpt lat="42.220312441428156" lon="13.725888060896388"><ele>898.8</ele><time>2026-05-02T09:50:15Z</time></trkpt><trkpt lat="42.22026556034165" lon="13.72595005967179"><ele>893.0</ele><time>2026-05-02T09:50:16Z</time></trkpt><trkpt lat="42.22017453817795" lon="13.726073333809182"><ele>890.5999999999999</ele><time>2026-05-02T09:50:18Z</time></trkpt><trkpt lat="42.22009628206209" lon="13.726192876827877"><ele>888.1999999999999</ele><time>2026-05-02T09:50:20Z</time></trkpt><trkpt lat="42.220022901698705" lon="13.726302042944193"><ele>885.8</ele><time>2026-05-02T09:50:22Z</time></trkpt><trkpt lat="42.21995370475211" lon="13.726443948608736"><ele>883.4</ele><time>2026-05-02T09:50:24Z</time></trkpt><trkpt lat="42.2199184834485" lon="13.726516526192963"><ele>881.0</ele><time>2026-05-02T09:50:25Z</time></trkpt><trkpt lat="42.21988912388496" lon="13.7265927557241"><ele>881.0</ele><time>2026-05-02T09:50:26Z</time></trkpt><trkpt lat="42.21982237901352" lon="13.72673473473326"><ele>880.9999999999999</ele><time>2026-05-02T09:50:28Z</time></trkpt><trkpt lat="42.21977382076762" lon="13.726895281155308"><ele>880.9999999999999</ele><time>2026-05-02T09:50:30Z</time></trkpt><trkpt lat="42.219764261083704" lon="13.72698922187136"><ele>881.0</ele><time>2026-05-02T09:50:31Z</time></trkpt><trkpt lat="42.219745878541644" lon="13.727071847222708"><ele>881.0</ele><time>2026-05-02T09:50:32Z</time></trkpt><trkpt lat="42.21967559581844" lon="13.727211698514406"><ele>879.7142857142857</ele><time>2026-05-02T09:50:34Z</time></trkpt><trkpt lat="42.21963787108579" lon="13.727282088329929"><ele>878.4285714285714</ele><time>2026-05-02T09:50:35Z</time></trkpt><trkpt lat="42.21960630128474" lon="13.727359926085363"><ele>877.1428571428571</ele><time>2026-05-02T09:50:36Z</time></trkpt><trkpt lat="42.21958029570256" lon="13.727439106312172"><ele>875.8571428571429</ele><time>2026-05-02T09:50:37Z</time></trkpt><trkpt lat="42.21954215241472" lon="13.72752145271458"><ele>874.5714285714287</ele><time>2026-05-02T09:50:38Z</time></trkpt><trkpt lat="42.21950350265943" lon="13.727598499966513"><ele>873.2857142857143</ele><time>2026-05-02T09:50:39Z</time></trkpt><trkpt lat="42.21946374070335" lon="13.727670204610265"><ele>872.0</ele><time>2026-05-02T09:50:40Z</time></trkpt><trkpt lat="42.219392249768354" lon="13.727801304463423"><ele>869.2</ele><time>2026-05-02T09:50:42Z</time></trkpt><trkpt lat="42.219346180785415" lon="13.727950301958144"><ele>866.4000000000001</ele><time>2026-05-02T09:50:44Z</time></trkpt><trkpt lat="42.2193477266446" lon="13.728079606171265"><ele>863.5999999999999</ele><time>2026-05-02T09:50:46Z</time></trkpt><trkpt lat="42.21932971622931" lon="13.728193635008584"><ele>860.8</ele><time>2026-05-02T09:50:48Z</time></trkpt><trkpt lat="42.21924403732163" lon="13.728275646299604"><ele>858.0</ele><time>2026-05-02T09:50:50Z</time></trkpt><trkpt lat="42.21915502067385" lon="13.728335144548529"><ele>858.0</ele><time>2026-05-02T09:50:52Z</time></trkpt><trkpt lat="42.21908448415851" lon="13.728454897822559"><ele>858.0</ele><time>2026-05-02T09:50:54Z</time></trkpt><trkpt lat="42.21905222185689" lon="13.728531952545316"><ele>858.0</ele><time>2026-05-02T09:50:55Z</time></trkpt><trkpt lat="42.219011473951014" lon="13.728604111581152"><ele>858.0</ele><time>2026-05-02T09:50:56Z</time></trkpt><trkpt lat="42.218968425309434" lon="13.728679501880364"><ele>858.0</ele><time>2026-05-02T09:50:57Z</time></trkpt><trkpt lat="42.218931124908295" lon="13.72874833603939"><ele>858.0</ele><time>2026-05-02T09:50:58Z</time></trkpt><trkpt lat="42.21889326754221" lon="13.72882120760332"><ele>858.0</ele><time>2026-05-02T09:50:59Z</time></trkpt><trkpt lat="42.2188502009124" lon="13.728891432118784"><ele>854.0</ele><time>2026-05-02T09:51:00Z</time></trkpt><trkpt lat="42.21877079400149" lon="13.729021912680167"><ele>850.0</ele><time>2026-05-02T09:51:02Z</time></trkpt><trkpt lat="42.21874635994782" lon="13.729102612665637"><ele>846.0</ele><time>2026-05-02T09:51:03Z</time></trkpt><trkpt lat="42.218723531872335" lon="13.729244323219866"><ele>842.0</ele><time>2026-05-02T09:51:05Z</time></trkpt><trkpt lat="42.218706186463486" lon="13.729382022257505"><ele>838.0</ele><time>2026-05-02T09:51:07Z</time></trkpt><trkpt lat="42.218633233029564" lon="13.72951449019535"><ele>834.0</ele><time>2026-05-02T09:51:09Z</time></trkpt><trkpt lat="42.218549730916735" lon="13.729636472619807"><ele>830.0</ele><time>2026-05-02T09:51:11Z</time></trkpt><trkpt lat="42.21845162425406" lon="13.729735653534323"><ele>826.0</ele><time>2026-05-02T09:51:13Z</time></trkpt><trkpt lat="42.21839519131722" lon="13.729774836138908"><ele>822.0</ele><time>2026-05-02T09:51:14Z</time></trkpt><trkpt lat="42.21828683859354" lon="13.729827856784704"><ele>818.0</ele><time>2026-05-02T09:51:16Z</time></trkpt><trkpt lat="42.21821624773599" lon="13.729871274793581"><ele>817.8333333333334</ele><time>2026-05-02T09:51:18Z</time></trkpt><trkpt lat="42.21814250556775" lon="13.72992385879081"><ele>817.6666666666667</ele><time>2026-05-02T09:51:20Z</time></trkpt><trkpt lat="42.21805775970249" lon="13.729975111046452"><ele>817.5</ele><time>2026-05-02T09:51:22Z</time></trkpt><trkpt lat="42.21797981322058" lon="13.730010488895656"><ele>817.3333333333333</ele><time>2026-05-02T09:51:24Z</time></trkpt><trkpt lat="42.21790881739741" lon="13.7300570066924"><ele>817.1666666666666</ele><time>2026-05-02T09:51:26Z</time></trkpt><trkpt lat="42.21785930266329" lon="13.73016681028286"><ele>817.0</ele><time>2026-05-02T09:51:28Z</time></trkpt><trkpt lat="42.217794511819186" lon="13.73028997274415"><ele>813.8333333333333</ele><time>2026-05-02T09:51:30Z</time></trkpt><trkpt lat="42.21773012602852" lon="13.730387544342054"><ele>810.6666666666666</ele><time>2026-05-02T09:51:32Z</time></trkpt><trkpt lat="42.21767033087153" lon="13.730470975618779"><ele>807.5</ele><time>2026-05-02T09:51:34Z</time></trkpt><trkpt lat="42.217604458964345" lon="13.730539238400032"><ele>804.3333333333333</ele><time>2026-05-02T09:51:36Z</time></trkpt><trkpt lat="42.21754537309576" lon="13.730583468722639"><ele>801.1666666666666</ele><time>2026-05-02T09:51:38Z</time></trkpt><trkpt lat="42.21748037340451" lon="13.730585568958642"><ele>798.0</ele><time>2026-05-02T09:51:45.999Z</time></trkpt><trkpt lat="42.21739960765549" lon="13.730576363637011"><ele>799.4</ele><time>2026-05-02T09:51:50.999Z</time></trkpt><trkpt lat="42.217311058385086" lon="13.730633254554242"><ele>800.8</ele><time>2026-05-02T09:51:53.999Z</time></trkpt><trkpt lat="42.21719794368697" lon="13.730687623590372"><ele>802.2</ele><time>2026-05-02T09:51:55.999Z</time></trkpt><trkpt lat="42.217092363576185" lon="13.730727064762542"><ele>803.6</ele><time>2026-05-02T09:51:57.999Z</time></trkpt><trkpt lat="42.21700390256163" lon="13.730694081068519"><ele>805.0</ele><time>2026-05-02T09:51:59.999Z</time></trkpt><trkpt lat="42.21689292072852" lon="13.730692598444628"><ele>804.9999999999999</ele><time>2026-05-02T09:52:01.999Z</time></trkpt><trkpt lat="42.216825307064454" lon="13.730715273350897"><ele>805.0</ele><time>2026-05-02T09:52:03.999Z</time></trkpt><trkpt lat="42.21679228481181" lon="13.730793294431498"><ele>805.0</ele><time>2026-05-02T09:52:47Z</time></trkpt><trkpt lat="42.21666204515338" lon="13.730745362887605"><ele>805.0</ele><time>2026-05-02T09:57:33Z</time></trkpt><trkpt lat="42.21660257562663" lon="13.73071270007525"><ele>804.9999999999999</ele><time>2026-05-02T09:57:34Z</time></trkpt><trkpt lat="42.21653138958266" lon="13.73069278570738"><ele>805.0</ele><time>2026-05-02T09:57:35Z</time></trkpt><trkpt lat="42.21645353260032" lon="13.730674866091151"><ele>806.8333333333333</ele><time>2026-05-02T09:57:36Z</time></trkpt><trkpt lat="42.21637284086154" lon="13.73066209537712"><ele>808.6666666666666</ele><time>2026-05-02T09:57:37Z</time></trkpt><trkpt lat="42.21629171339778" lon="13.730637239190605"><ele>810.5</ele><time>2026-05-02T09:57:38Z</time></trkpt><trkpt lat="42.21620942915315" lon="13.730636652956077"><ele>812.3333333333333</ele><time>2026-05-02T09:57:39Z</time></trkpt><trkpt lat="42.216132447519385" lon="13.730670088854765"><ele>814.1666666666666</ele><time>2026-05-02T09:57:40Z</time></trkpt><trkpt lat="42.21605641754838" lon="13.730676390437221"><ele>816.0</ele><time>2026-05-02T09:57:41Z</time></trkpt><trkpt lat="42.21597624211429" lon="13.730686149143489"><ele>816.0</ele><time>2026-05-02T09:57:42Z</time></trkpt><trkpt lat="42.21589768694726" lon="13.73068967017974"><ele>816.0</ele><time>2026-05-02T09:57:43Z</time></trkpt><trkpt lat="42.21582078225826" lon="13.730692800798455"><ele>816.0</ele><time>2026-05-02T09:57:44Z</time></trkpt><trkpt lat="42.215737708097606" lon="13.730697838891734"><ele>816.0</ele><time>2026-05-02T09:57:45Z</time></trkpt><trkpt lat="42.215639034567644" lon="13.730710090708213"><ele>816.0</ele><time>2026-05-02T09:57:46Z</time></trkpt><trkpt lat="42.215531506475706" lon="13.730738008537156"><ele>816.0</ele><time>2026-05-02T09:57:47Z</time></trkpt><trkpt lat="42.21543074480471" lon="13.7307768816237"><ele>819.75</ele><time>2026-05-02T09:57:48Z</time></trkpt><trkpt lat="42.21532949184464" lon="13.730822336989803"><ele>823.5</ele><time>2026-05-02T09:57:49Z</time></trkpt><trkpt lat="42.215217025620575" lon="13.730877136214064"><ele>827.25</ele><time>2026-05-02T09:57:50Z</time></trkpt><trkpt lat="42.21510835729611" lon="13.730930804010734"><ele>831.0</ele><time>2026-05-02T09:57:50.999Z</time></trkpt><trkpt lat="42.21500237381879" lon="13.730994327148364"><ele>829.0</ele><time>2026-05-02T09:57:51.999Z</time></trkpt><trkpt lat="42.21489580486143" lon="13.731070165837494"><ele>827.0</ele><time>2026-05-02T09:57:52.999Z</time></trkpt><trkpt lat="42.214780627750706" lon="13.73115852540901"><ele>825.0</ele><time>2026-05-02T09:57:53.999Z</time></trkpt><trkpt lat="42.214677793242046" lon="13.731246746219732"><ele>823.0</ele><time>2026-05-02T09:57:54.999Z</time></trkpt><trkpt lat="42.21458672535006" lon="13.731334200934263"><ele>827.9999999999999</ele><time>2026-05-02T09:57:55.999Z</time></trkpt><trkpt lat="42.21450718976871" lon="13.731422672962374"><ele>833.0</ele><time>2026-05-02T09:57:56.999Z</time></trkpt><trkpt lat="42.2144369665769" lon="13.731509382691428"><ele>838.0</ele><time>2026-05-02T09:57:57.999Z</time></trkpt><trkpt lat="42.21438010192452" lon="13.731585507461403"><ele>843.0</ele><time>2026-05-02T09:57:58.999Z</time></trkpt><trkpt lat="42.214336417848315" lon="13.731668128123054"><ele>847.9999999999999</ele><time>2026-05-02T09:57:59.999Z</time></trkpt><trkpt lat="42.21430059144169" lon="13.731755135046631"><ele>853.0</ele><time>2026-05-02T09:58:00.999Z</time></trkpt><trkpt lat="42.2142725477823" lon="13.73186033455934"><ele>852.4</ele><time>2026-05-02T09:58:01.999Z</time></trkpt><trkpt lat="42.21424765282463" lon="13.73198660545175"><ele>851.8</ele><time>2026-05-02T09:58:02.999Z</time></trkpt><trkpt lat="42.21422728782763" lon="13.732128044844632"><ele>851.2</ele><time>2026-05-02T09:58:03.999Z</time></trkpt><trkpt lat="42.214200536215074" lon="13.732273852145056"><ele>850.6</ele><time>2026-05-02T09:58:04.999Z</time></trkpt><trkpt lat="42.21418944890191" lon="13.732407983642322"><ele>850.0</ele><time>2026-05-02T09:58:05.999Z</time></trkpt><trkpt lat="42.21418280585863" lon="13.732545924417924"><ele>850.0</ele><time>2026-05-02T09:58:06.999Z</time></trkpt><trkpt lat="42.21417462567524" lon="13.732707648199613"><ele>850.0</ele><time>2026-05-02T09:58:07.999Z</time></trkpt><trkpt lat="42.21416144103042" lon="13.732853565123193"><ele>850.0</ele><time>2026-05-02T09:58:08.999Z</time></trkpt><trkpt lat="42.21414467725872" lon="13.732997391391853"><ele>850.0</ele><time>2026-05-02T09:58:09.999Z</time></trkpt><trkpt lat="42.214117702027714" lon="13.733143589132172"><ele>850.0</ele><time>2026-05-02T09:58:10.999Z</time></trkpt><trkpt lat="42.214084124742975" lon="13.733282758950104"><ele>850.1666666666666</ele><time>2026-05-02T09:58:11.999Z</time></trkpt><trkpt lat="42.21404700297154" lon="13.733403000355862"><ele>850.3333333333333</ele><time>2026-05-02T09:58:12.999Z</time></trkpt><trkpt lat="42.2140070773103" lon="13.733494540607829"><ele>850.5</ele><time>2026-05-02T09:58:13.999Z</time></trkpt><trkpt lat="42.21396135488388" lon="13.733575166525208"><ele>850.6666666666667</ele><time>2026-05-02T09:58:14.999Z</time></trkpt><trkpt lat="42.21393194558294" lon="13.733694491736323"><ele>850.8333333333334</ele><time>2026-05-02T09:58:15.999Z</time></trkpt><trkpt lat="42.21385534056691" lon="13.733770878569585"><ele>851.0</ele><time>2026-05-02T09:58:16.999Z</time></trkpt><trkpt lat="42.213800250686994" lon="13.73383878689571"><ele>853.1999999999999</ele><time>2026-05-02T09:58:17.999Z</time></trkpt><trkpt lat="42.21378179796141" lon="13.73398570533079"><ele>855.4</ele><time>2026-05-02T09:58:19.999Z</time></trkpt><trkpt lat="42.2138256918953" lon="13.73405666410646"><ele>857.6</ele><time>2026-05-02T09:58:20.999Z</time></trkpt><trkpt lat="42.21389255993675" lon="13.734100981749311"><ele>859.8</ele><time>2026-05-02T09:58:21.999Z</time></trkpt><trkpt lat="42.21399094052996" lon="13.734140934361763"><ele>862.0</ele><time>2026-05-02T09:58:22.999Z</time></trkpt><trkpt lat="42.21410311643783" lon="13.734191937555021"><ele>862.0</ele><time>2026-05-02T09:58:23.999Z</time></trkpt><trkpt lat="42.21420410751358" lon="13.734242254874944"><ele>862.0</ele><time>2026-05-02T09:58:24.999Z</time></trkpt><trkpt lat="42.214300745335485" lon="13.734268650313375"><ele>862.0</ele><time>2026-05-02T09:58:25.999Z</time></trkpt><trkpt lat="42.214407713859046" lon="13.734272956274777"><ele>862.0</ele><time>2026-05-02T09:58:26.999Z</time></trkpt><trkpt lat="42.21452721325028" lon="13.73426844251963"><ele>862.0</ele><time>2026-05-02T09:58:27.999Z</time></trkpt><trkpt lat="42.21465308032527" lon="13.734266456652467"><ele>862.0</ele><time>2026-05-02T09:58:28.999Z</time></trkpt><trkpt lat="42.21476271801122" lon="13.734255609181714"><ele>862.0</ele><time>2026-05-02T09:58:29.999Z</time></trkpt><trkpt lat="42.214864728461954" lon="13.734227740646629"><ele>862.0</ele><time>2026-05-02T09:58:30.999Z</time></trkpt><trkpt lat="42.214963533499784" lon="13.734208267901225"><ele>862.0</ele><time>2026-05-02T09:58:31.999Z</time></trkpt><trkpt lat="42.21507033505882" lon="13.734208834756132"><ele>862.0</ele><time>2026-05-02T09:58:32.999Z</time></trkpt><trkpt lat="42.21517748958171" lon="13.734242053971062"><ele>862.25</ele><time>2026-05-02T09:58:33.999Z</time></trkpt><trkpt lat="42.21529008846108" lon="13.73428448957009"><ele>862.5</ele><time>2026-05-02T09:58:34.999Z</time></trkpt><trkpt lat="42.215408431795716" lon="13.73434282810465"><ele>862.75</ele><time>2026-05-02T09:58:35.999Z</time></trkpt><trkpt lat="42.21552254530536" lon="13.734404866931088"><ele>863.0</ele><time>2026-05-02T09:58:37Z</time></trkpt><trkpt lat="42.215628259202234" lon="13.734478042352388"><ele>866.5999999999999</ele><time>2026-05-02T09:58:38Z</time></trkpt><trkpt lat="42.21572972025846" lon="13.734556249778937"><ele>870.1999999999999</ele><time>2026-05-02T09:58:39Z</time></trkpt><trkpt lat="42.215823678632695" lon="13.734637173143001"><ele>873.8</ele><time>2026-05-02T09:58:40Z</time></trkpt><trkpt lat="42.21592095688292" lon="13.734705973684152"><ele>877.4</ele><time>2026-05-02T09:58:41Z</time></trkpt><trkpt lat="42.216017515003884" lon="13.734759082112523"><ele>881.0</ele><time>2026-05-02T09:58:42Z</time></trkpt><trkpt lat="42.216110729187946" lon="13.7348052070719"><ele>881.0000000000001</ele><time>2026-05-02T09:58:43Z</time></trkpt><trkpt lat="42.21619680374133" lon="13.734829900264197"><ele>881.0</ele><time>2026-05-02T09:58:44Z</time></trkpt><trkpt lat="42.216280418744816" lon="13.734833803748494"><ele>881.0</ele><time>2026-05-02T09:58:45Z</time></trkpt><trkpt lat="42.21636533107293" lon="13.734838232685942"><ele>881.0</ele><time>2026-05-02T09:58:46Z</time></trkpt><trkpt lat="42.21645245192853" lon="13.734859595184723"><ele>881.0000000000001</ele><time>2026-05-02T09:58:47Z</time></trkpt><trkpt lat="42.216530717691136" lon="13.734890072373048"><ele>881.0</ele><time>2026-05-02T09:58:48Z</time></trkpt><trkpt lat="42.21659425511584" lon="13.734925656355648"><ele>880.8</ele><time>2026-05-02T09:58:49Z</time></trkpt><trkpt lat="42.21665589311037" lon="13.735035804407861"><ele>880.5999999999999</ele><time>2026-05-02T09:58:51Z</time></trkpt><trkpt lat="42.216620546630004" lon="13.73518292795399"><ele>880.4</ele><time>2026-05-02T09:58:53Z</time></trkpt><trkpt lat="42.216563017969975" lon="13.735217921324944"><ele>880.2</ele><time>2026-05-02T09:58:54Z</time></trkpt><trkpt lat="42.21642980780788" lon="13.73523987718692"><ele>880.0</ele><time>2026-05-02T09:58:56Z</time></trkpt><trkpt lat="42.21635275413718" lon="13.735259489229188"><ele>883.6</ele><time>2026-05-02T09:58:57Z</time></trkpt><trkpt lat="42.21627419347696" lon="13.73530395382844"><ele>887.2</ele><time>2026-05-02T09:58:58Z</time></trkpt><trkpt lat="42.2161964344284" lon="13.735363029665903"><ele>890.8</ele><time>2026-05-02T09:58:59Z</time></trkpt><trkpt lat="42.216117299618055" lon="13.735437710598934"><ele>894.4</ele><time>2026-05-02T09:59:00Z</time></trkpt><trkpt lat="42.21603316196796" lon="13.735497095884346"><ele>898.0</ele><time>2026-05-02T09:59:01Z</time></trkpt><trkpt lat="42.21595032231882" lon="13.735522737890173"><ele>898.0</ele><time>2026-05-02T09:59:02Z</time></trkpt><trkpt lat="42.21586388386647" lon="13.735514011257465"><ele>898.0</ele><time>2026-05-02T09:59:03Z</time></trkpt><trkpt lat="42.21576779617877" lon="13.735479789623827"><ele>898.0</ele><time>2026-05-02T09:59:04Z</time></trkpt><trkpt lat="42.215675007114896" lon="13.735438847214471"><ele>898.0</ele><time>2026-05-02T09:59:05Z</time></trkpt><trkpt lat="42.21558412899363" lon="13.735393552075347"><ele>898.0</ele><time>2026-05-02T09:59:06Z</time></trkpt><trkpt lat="42.21550343862503" lon="13.735370258264087"><ele>900.4</ele><time>2026-05-02T09:59:07Z</time></trkpt><trkpt lat="42.2154152177297" lon="13.735381038386237"><ele>902.8</ele><time>2026-05-02T09:59:08Z</time></trkpt><trkpt lat="42.21531602465468" lon="13.73541057625621"><ele>905.2</ele><time>2026-05-02T09:59:09Z</time></trkpt><trkpt lat="42.215201860536666" lon="13.73544987421109"><ele>907.6</ele><time>2026-05-02T09:59:10Z</time></trkpt><trkpt lat="42.21507746155147" lon="13.735490236977611"><ele>910.0</ele><time>2026-05-02T09:59:11Z</time></trkpt><trkpt lat="42.214951040815315" lon="13.735525053668951"><ele>910.0</ele><time>2026-05-02T09:59:12Z</time></trkpt><trkpt lat="42.214833102142336" lon="13.735545541875398"><ele>910.0</ele><time>2026-05-02T09:59:13Z</time></trkpt><trkpt lat="42.2147303877393" lon="13.735561122336152"><ele>910.0</ele><time>2026-05-02T09:59:14Z</time></trkpt><trkpt lat="42.2146411210774" lon="13.735583470808185"><ele>910.0</ele><time>2026-05-02T09:59:15Z</time></trkpt><trkpt lat="42.214558950653384" lon="13.735597704805324"><ele>910.0</ele><time>2026-05-02T09:59:16Z</time></trkpt><trkpt lat="42.214476951109" lon="13.735614433350902"><ele>911.8</ele><time>2026-05-02T09:59:17Z</time></trkpt><trkpt lat="42.2143937709719" lon="13.7356381068488"><ele>913.6</ele><time>2026-05-02T09:59:18Z</time></trkpt><trkpt lat="42.21430730426553" lon="13.735665446757958"><ele>915.4000000000001</ele><time>2026-05-02T09:59:19Z</time></trkpt><trkpt lat="42.21421281661075" lon="13.735686942288163"><ele>917.2</ele><time>2026-05-02T09:59:20Z</time></trkpt><trkpt lat="42.2141167369939" lon="13.73571226577805"><ele>919.0</ele><time>2026-05-02T09:59:21Z</time></trkpt><trkpt lat="42.21401625268605" lon="13.735739065638603"><ele>920.4000000000001</ele><time>2026-05-02T09:59:22Z</time></trkpt><trkpt lat="42.213918292331606" lon="13.735764783056126"><ele>921.8000000000001</ele><time>2026-05-02T09:59:23Z</time></trkpt><trkpt lat="42.21382527812505" lon="13.735799285867557"><ele>923.1999999999999</ele><time>2026-05-02T09:59:24Z</time></trkpt><trkpt lat="42.213732203713946" lon="13.735838085149975"><ele>924.5999999999999</ele><time>2026-05-02T09:59:25Z</time></trkpt><trkpt lat="42.21362857407881" lon="13.735879955188635"><ele>926.0</ele><time>2026-05-02T09:59:26Z</time></trkpt><trkpt lat="42.21352599437345" lon="13.73592802049189"><ele>926.0</ele><time>2026-05-02T09:59:27Z</time></trkpt><trkpt lat="42.21342358689292" lon="13.735989714287625"><ele>926.0</ele><time>2026-05-02T09:59:28Z</time></trkpt><trkpt lat="42.21330162243488" lon="13.736048701307409"><ele>926.0</ele><time>2026-05-02T09:59:29Z</time></trkpt><trkpt lat="42.213176925509245" lon="13.736097751718914"><ele>926.0</ele><time>2026-05-02T09:59:30Z</time></trkpt><trkpt lat="42.21305837907679" lon="13.736122227709426"><ele>928.8333333333334</ele><time>2026-05-02T09:59:31Z</time></trkpt><trkpt lat="42.212939409051" lon="13.7361380097813"><ele>931.6666666666667</ele><time>2026-05-02T09:59:32Z</time></trkpt><trkpt lat="42.212842258319334" lon="13.736149060962207"><ele>934.5</ele><time>2026-05-02T09:59:33Z</time></trkpt><trkpt lat="42.21276110127205" lon="13.736162577174984"><ele>937.3333333333333</ele><time>2026-05-02T09:59:34Z</time></trkpt><trkpt lat="42.21269327250701" lon="13.736197604005323"><ele>940.1666666666666</ele><time>2026-05-02T09:59:35Z</time></trkpt><trkpt lat="42.21264695452072" lon="13.736260024929775"><ele>943.0</ele><time>2026-05-02T09:59:36Z</time></trkpt><trkpt lat="42.21263206451476" lon="13.736414877091782"><ele>942.9999999999999</ele><time>2026-05-02T09:59:38Z</time></trkpt><trkpt lat="42.21267030188925" lon="13.736503022936107"><ele>943.0</ele><time>2026-05-02T09:59:39Z</time></trkpt><trkpt lat="42.212743580758406" lon="13.736598653096435"><ele>943.0</ele><time>2026-05-02T09:59:40Z</time></trkpt><trkpt lat="42.21282091354419" lon="13.736697446060564"><ele>943.0</ele><time>2026-05-02T09:59:41Z</time></trkpt><trkpt lat="42.21286385876097" lon="13.736775903691775"><ele>942.9999999999999</ele><time>2026-05-02T09:59:42Z</time></trkpt><trkpt lat="42.21288756492342" lon="13.736860798810802"><ele>943.0</ele><time>2026-05-02T09:59:43Z</time></trkpt><trkpt lat="42.21288454122784" lon="13.736949850218934"><ele>942.6666666666666</ele><time>2026-05-02T09:59:44Z</time></trkpt><trkpt lat="42.21286376453629" lon="13.737040084975652"><ele>942.3333333333333</ele><time>2026-05-02T09:59:45Z</time></trkpt><trkpt lat="42.212834677084096" lon="13.737126642222506"><ele>942.0</ele><time>2026-05-02T09:59:46Z</time></trkpt><trkpt lat="42.21279602327474" lon="13.737203044412077"><ele>941.6666666666667</ele><time>2026-05-02T09:59:47Z</time></trkpt><trkpt lat="42.212730492462285" lon="13.737264767764458"><ele>941.3333333333334</ele><time>2026-05-02T09:59:48Z</time></trkpt><trkpt lat="42.21262869191911" lon="13.73727769138502"><ele>941.0</ele><time>2026-05-02T09:59:48.999Z</time></trkpt><trkpt lat="42.21255008395398" lon="13.737314576808373"><ele>941.0</ele><time>2026-05-02T09:59:49.999Z</time></trkpt><trkpt lat="42.212471383303686" lon="13.737303259299711"><ele>940.9999999999999</ele><time>2026-05-02T09:59:50.999Z</time></trkpt><trkpt lat="42.21238517649697" lon="13.737263365046767"><ele>940.9999999999999</ele><time>2026-05-02T09:59:51.999Z</time></trkpt><trkpt lat="42.21227187264562" lon="13.737217274177928"><ele>941.0</ele><time>2026-05-02T09:59:52.999Z</time></trkpt><trkpt lat="42.21216118360323" lon="13.737160200709798"><ele>941.0</ele><time>2026-05-02T09:59:53.999Z</time></trkpt><trkpt lat="42.21204914412252" lon="13.737107636483426"><ele>942.4</ele><time>2026-05-02T09:59:54.999Z</time></trkpt><trkpt lat="42.21195038287916" lon="13.73707602198609"><ele>943.8</ele><time>2026-05-02T09:59:55.999Z</time></trkpt><trkpt lat="42.21185322380565" lon="13.737064780899907"><ele>945.1999999999999</ele><time>2026-05-02T09:59:56.999Z</time></trkpt><trkpt lat="42.21175061494924" lon="13.737068443321732"><ele>946.5999999999999</ele><time>2026-05-02T09:59:57.999Z</time></trkpt><trkpt lat="42.21165753423402" lon="13.737064783553453"><ele>948.0</ele><time>2026-05-02T09:59:58.999Z</time></trkpt><trkpt lat="42.211580758482924" lon="13.737050355465481"><ele>948.0</ele><time>2026-05-02T09:59:59.999Z</time></trkpt><trkpt lat="42.21151117361186" lon="13.737028036901311"><ele>948.0</ele><time>2026-05-02T10:00:00.999Z</time></trkpt><trkpt lat="42.21142136287406" lon="13.736904311307445"><ele>948.0</ele><time>2026-05-02T10:00:02.999Z</time></trkpt><trkpt lat="42.211372412519886" lon="13.736790670655928"><ele>948.0</ele><time>2026-05-02T10:00:03.999Z</time></trkpt><trkpt lat="42.211327801668666" lon="13.736658909270432"><ele>948.0</ele><time>2026-05-02T10:00:04.999Z</time></trkpt><trkpt lat="42.21128596132734" lon="13.736530000634337"><ele>953.0</ele><time>2026-05-02T10:00:05.999Z</time></trkpt><trkpt lat="42.211241762559645" lon="13.736402979626511"><ele>958.0</ele><time>2026-05-02T10:00:06.999Z</time></trkpt><trkpt lat="42.211185636110194" lon="13.736272805306163"><ele>963.0</ele><time>2026-05-02T10:00:07.999Z</time></trkpt><trkpt lat="42.211137576209225" lon="13.73615679778666"><ele>968.0</ele><time>2026-05-02T10:00:08.999Z</time></trkpt><trkpt lat="42.21110456242208" lon="13.736032546826754"><ele>973.0</ele><time>2026-05-02T10:00:09.999Z</time></trkpt><trkpt lat="42.21109259045915" lon="13.735905738666178"><ele>973.9999999999999</ele><time>2026-05-02T10:00:10.999Z</time></trkpt><trkpt lat="42.21107765901667" lon="13.735801570982698"><ele>975.0</ele><time>2026-05-02T10:00:11.999Z</time></trkpt><trkpt lat="42.21104292813124" lon="13.735721357079791"><ele>976.0</ele><time>2026-05-02T10:00:12.999Z</time></trkpt><trkpt lat="42.210981662479355" lon="13.735664774244293"><ele>977.0</ele><time>2026-05-02T10:00:13.999Z</time></trkpt><trkpt lat="42.210906468281706" lon="13.735653102226637"><ele>977.9999999999999</ele><time>2026-05-02T10:00:14.999Z</time></trkpt><trkpt lat="42.21082493039786" lon="13.73569009364907"><ele>979.0</ele><time>2026-05-02T10:00:15.999Z</time></trkpt><trkpt lat="42.210759779495135" lon="13.735764083231269"><ele>978.9999999999999</ele><time>2026-05-02T10:00:16.999Z</time></trkpt><trkpt lat="42.21072090580907" lon="13.735872690939484"><ele>979.0</ele><time>2026-05-02T10:00:17.999Z</time></trkpt><trkpt lat="42.21069627292505" lon="13.73599652392364"><ele>979.0</ele><time>2026-05-02T10:00:18.999Z</time></trkpt><trkpt lat="42.210662190398516" lon="13.736074131072204"><ele>979.0</ele><time>2026-05-02T10:00:19.999Z</time></trkpt><trkpt lat="42.21060138315713" lon="13.73612393395055"><ele>978.9999999999999</ele><time>2026-05-02T10:00:20.999Z</time></trkpt><trkpt lat="42.2105277947892" lon="13.736158760123455"><ele>979.0</ele><time>2026-05-02T10:00:21.999Z</time></trkpt><trkpt lat="42.2104558628871" lon="13.736158729019559"><ele>980.0</ele><time>2026-05-02T10:00:22.999Z</time></trkpt><trkpt lat="42.21037909882842" lon="13.736135274013083"><ele>981.0000000000001</ele><time>2026-05-02T10:00:23.999Z</time></trkpt><trkpt lat="42.210309309324835" lon="13.736098058649597"><ele>982.0000000000001</ele><time>2026-05-02T10:00:24.999Z</time></trkpt><trkpt lat="42.21023739706906" lon="13.736067991255746"><ele>983.0</ele><time>2026-05-02T10:00:25.999Z</time></trkpt><trkpt lat="42.21010219078106" lon="13.735985411933692"><ele>984.0</ele><time>2026-05-02T10:00:27.999Z</time></trkpt><trkpt lat="42.21003690903804" lon="13.735934523777486"><ele>985.1666666666666</ele><time>2026-05-02T10:00:28.999Z</time></trkpt><trkpt lat="42.20997467574687" lon="13.735879782561618"><ele>986.3333333333333</ele><time>2026-05-02T10:00:29.999Z</time></trkpt><trkpt lat="42.20991424696319" lon="13.735832031447643"><ele>987.5</ele><time>2026-05-02T10:00:30.999Z</time></trkpt><trkpt lat="42.209849581703665" lon="13.735774321914066"><ele>988.6666666666666</ele><time>2026-05-02T10:00:31.999Z</time></trkpt><trkpt lat="42.20978554972576" lon="13.735712675087782"><ele>989.8333333333333</ele><time>2026-05-02T10:00:32.999Z</time></trkpt><trkpt lat="42.20971913212036" lon="13.735637938693264"><ele>991.0</ele><time>2026-05-02T10:00:33.999Z</time></trkpt><trkpt lat="42.209655695389074" lon="13.735557533839165"><ele>993.6666666666666</ele><time>2026-05-02T10:00:34.999Z</time></trkpt><trkpt lat="42.20959759680532" lon="13.735478334387462"><ele>996.3333333333333</ele><time>2026-05-02T10:00:35.999Z</time></trkpt><trkpt lat="42.2095392136181" lon="13.735397233680446"><ele>999.0</ele><time>2026-05-02T10:00:36.999Z</time></trkpt><trkpt lat="42.20946552081049" lon="13.735303510560211"><ele>1001.6666666666667</ele><time>2026-05-02T10:00:37.999Z</time></trkpt><trkpt lat="42.209394686282174" lon="13.735220985876909"><ele>1004.3333333333334</ele><time>2026-05-02T10:00:38.999Z</time></trkpt><trkpt lat="42.2093270880118" lon="13.735158075664799"><ele>1007.0</ele><time>2026-05-02T10:00:39.999Z</time></trkpt><trkpt lat="42.20925453731127" lon="13.735114782661881"><ele>1007.0</ele><time>2026-05-02T10:00:40.999Z</time></trkpt><trkpt lat="42.20917140221121" lon="13.735088459343975"><ele>1007.0</ele><time>2026-05-02T10:00:41.999Z</time></trkpt><trkpt lat="42.20907639525152" lon="13.73507043012045"><ele>1007.0</ele><time>2026-05-02T10:00:43Z</time></trkpt><trkpt lat="42.2089725080086" lon="13.73506749643667"><ele>1007.0</ele><time>2026-05-02T10:00:44Z</time></trkpt><trkpt lat="42.208858037574714" lon="13.73506986557541"><ele>1007.0</ele><time>2026-05-02T10:00:45Z</time></trkpt><trkpt lat="42.20874353826673" lon="13.735078484445701"><ele>1010.8</ele><time>2026-05-02T10:00:46Z</time></trkpt><trkpt lat="42.208631225973804" lon="13.735100356388577"><ele>1014.6</ele><time>2026-05-02T10:00:47Z</time></trkpt><trkpt lat="42.20851320308789" lon="13.73513777145856"><ele>1018.3999999999999</ele><time>2026-05-02T10:00:48Z</time></trkpt><trkpt lat="42.20841944788451" lon="13.73517121843806"><ele>1022.1999999999999</ele><time>2026-05-02T10:00:49Z</time></trkpt><trkpt lat="42.20833176724799" lon="13.735228432608022"><ele>1026.0</ele><time>2026-05-02T10:00:50Z</time></trkpt><trkpt lat="42.20825168355612" lon="13.73531570555863"><ele>1026.0</ele><time>2026-05-02T10:00:51Z</time></trkpt><trkpt lat="42.20818285880755" lon="13.7354065430545"><ele>1026.0</ele><time>2026-05-02T10:00:52Z</time></trkpt><trkpt lat="42.20812296510255" lon="13.735514412238302"><ele>1026.0</ele><time>2026-05-02T10:00:53Z</time></trkpt><trkpt lat="42.20807376285984" lon="13.735644660554925"><ele>1026.0</ele><time>2026-05-02T10:00:54Z</time></trkpt><trkpt lat="42.208032211539475" lon="13.735788425732967"><ele>1026.0</ele><time>2026-05-02T10:00:55Z</time></trkpt><trkpt lat="42.2079774832529" lon="13.735944007134707"><ele>1029.5</ele><time>2026-05-02T10:00:56Z</time></trkpt><trkpt lat="42.20790349262151" lon="13.736108584807624"><ele>1033.0</ele><time>2026-05-02T10:00:57Z</time></trkpt><trkpt lat="42.20782324763445" lon="13.73626058886514"><ele>1036.5</ele><time>2026-05-02T10:00:58Z</time></trkpt><trkpt lat="42.20774277380377" lon="13.736398703060495"><ele>1040.0</ele><time>2026-05-02T10:00:59Z</time></trkpt><trkpt lat="42.207651211906416" lon="13.73653677885241"><ele>1040.0</ele><time>2026-05-02T10:01:00Z</time></trkpt><trkpt lat="42.207557443747994" lon="13.73665572755566"><ele>1040.0</ele><time>2026-05-02T10:01:01Z</time></trkpt><trkpt lat="42.207472042292544" lon="13.736761384792198"><ele>1040.0</ele><time>2026-05-02T10:01:02Z</time></trkpt><trkpt lat="42.207383051350746" lon="13.736849975579407"><ele>1040.0</ele><time>2026-05-02T10:01:03Z</time></trkpt><trkpt lat="42.20728666688675" lon="13.736919974871398"><ele>1040.2</ele><time>2026-05-02T10:01:04Z</time></trkpt><trkpt lat="42.2072090525362" lon="13.73696571117366"><ele>1040.4</ele><time>2026-05-02T10:01:05Z</time></trkpt><trkpt lat="42.207102375360506" lon="13.736963398336089"><ele>1040.6</ele><time>2026-05-02T10:01:07Z</time></trkpt><trkpt lat="42.20702512886975" lon="13.736902369649563"><ele>1040.8</ele><time>2026-05-02T10:01:09Z</time></trkpt><trkpt lat="42.206978259364" lon="13.736744523126331"><ele>1041.0</ele><time>2026-05-02T10:01:11Z</time></trkpt><trkpt lat="42.20695210310867" lon="13.736645224146452"><ele>1041.0</ele><time>2026-05-02T10:01:12Z</time></trkpt><trkpt lat="42.2069179909406" lon="13.736521326063208"><ele>1041.0</ele><time>2026-05-02T10:01:13Z</time></trkpt><trkpt lat="42.206882222435425" lon="13.736374463655169"><ele>1041.0</ele><time>2026-05-02T10:01:14Z</time></trkpt><trkpt lat="42.206849763211366" lon="13.736236879332703"><ele>1041.0</ele><time>2026-05-02T10:01:15Z</time></trkpt><trkpt lat="42.20682410982984" lon="13.736109430899253"><ele>1041.0</ele><time>2026-05-02T10:01:16Z</time></trkpt><trkpt lat="42.2068010262515" lon="13.73597885139975"><ele>1043.3999999999999</ele><time>2026-05-02T10:01:17Z</time></trkpt><trkpt lat="42.20679140252946" lon="13.735849708041293"><ele>1045.8</ele><time>2026-05-02T10:01:18Z</time></trkpt><trkpt lat="42.206795499947084" lon="13.735716731346638"><ele>1048.1999999999998</ele><time>2026-05-02T10:01:19Z</time></trkpt><trkpt lat="42.20680346902008" lon="13.735596689580003"><ele>1050.6</ele><time>2026-05-02T10:01:20Z</time></trkpt><trkpt lat="42.20678959604171" lon="13.735479778826962"><ele>1053.0</ele><time>2026-05-02T10:01:21Z</time></trkpt><trkpt lat="42.20674193867648" lon="13.735369592914182"><ele>1053.0</ele><time>2026-05-02T10:01:22Z</time></trkpt><trkpt lat="42.20668677752017" lon="13.73527094490813"><ele>1053.0</ele><time>2026-05-02T10:01:23Z</time></trkpt><trkpt lat="42.20663467306846" lon="13.73517027849144"><ele>1053.0</ele><time>2026-05-02T10:01:24Z</time></trkpt><trkpt lat="42.20659832304508" lon="13.735067526026723"><ele>1053.0</ele><time>2026-05-02T10:01:25Z</time></trkpt><trkpt lat="42.20656333935763" lon="13.734948035038185"><ele>1053.0</ele><time>2026-05-02T10:01:26Z</time></trkpt><trkpt lat="42.20653440909708" lon="13.734805924108862"><ele>1055.4</ele><time>2026-05-02T10:01:27Z</time></trkpt><trkpt lat="42.20652182826472" lon="13.734671080633335"><ele>1057.8</ele><time>2026-05-02T10:01:28Z</time></trkpt><trkpt lat="42.20653487247034" lon="13.734523227053595"><ele>1060.2</ele><time>2026-05-02T10:01:29Z</time></trkpt><trkpt lat="42.206546132935586" lon="13.7343740167647"><ele>1062.6</ele><time>2026-05-02T10:01:30Z</time></trkpt><trkpt lat="42.206568870326656" lon="13.734234946862506"><ele>1065.0</ele><time>2026-05-02T10:01:31Z</time></trkpt><trkpt lat="42.206593529438535" lon="13.734073498080592"><ele>1066.4</ele><time>2026-05-02T10:01:32Z</time></trkpt><trkpt lat="42.206618567273274" lon="13.733923720447708"><ele>1067.8</ele><time>2026-05-02T10:01:33Z</time></trkpt><trkpt lat="42.20664156557852" lon="13.73379945113126"><ele>1069.2</ele><time>2026-05-02T10:01:34Z</time></trkpt><trkpt lat="42.20665046938185" lon="13.733671468428676"><ele>1070.6</ele><time>2026-05-02T10:01:35Z</time></trkpt><trkpt lat="42.20663714983308" lon="13.733532315497188"><ele>1072.0</ele><time>2026-05-02T10:01:36Z</time></trkpt><trkpt lat="42.206608885578405" lon="13.73339008124033"><ele>1073.6</ele><time>2026-05-02T10:01:37Z</time></trkpt><trkpt lat="42.20657125448338" lon="13.73325612535668"><ele>1075.2</ele><time>2026-05-02T10:01:38Z</time></trkpt><trkpt lat="42.20652554485441" lon="13.733122506683474"><ele>1076.8</ele><time>2026-05-02T10:01:39Z</time></trkpt><trkpt lat="42.206478387031424" lon="13.73299637115899"><ele>1078.4</ele><time>2026-05-02T10:01:40Z</time></trkpt><trkpt lat="42.206428435975354" lon="13.73287527196387"><ele>1080.0</ele><time>2026-05-02T10:01:41Z</time></trkpt><trkpt lat="42.20635854522329" lon="13.732755645122126"><ele>1083.0</ele><time>2026-05-02T10:01:42Z</time></trkpt><trkpt lat="42.206287479695504" lon="13.732652557654962"><ele>1086.0</ele><time>2026-05-02T10:01:43Z</time></trkpt><trkpt lat="42.206216619642156" lon="13.732582603335258"><ele>1089.0</ele><time>2026-05-02T10:01:44Z</time></trkpt><trkpt lat="42.206164375038604" lon="13.732520048924439"><ele>1092.0</ele><time>2026-05-02T10:01:45Z</time></trkpt><trkpt lat="42.206110853212614" lon="13.732443946773994"><ele>1095.0</ele><time>2026-05-02T10:01:46Z</time></trkpt><trkpt lat="42.20609584399191" lon="13.73228484420861"><ele>1095.0</ele><time>2026-05-02T10:01:47Z</time></trkpt><trkpt lat="42.20607597545202" lon="13.73213493606505"><ele>1095.0</ele><time>2026-05-02T10:01:48Z</time></trkpt><trkpt lat="42.20607232570672" lon="13.731974487087014"><ele>1095.0</ele><time>2026-05-02T10:01:49Z</time></trkpt><trkpt lat="42.2060708461932" lon="13.731810875464733"><ele>1095.0</ele><time>2026-05-02T10:01:50Z</time></trkpt><trkpt lat="42.206071362057415" lon="13.731669013979909"><ele>1097.6</ele><time>2026-05-02T10:01:51Z</time></trkpt><trkpt lat="42.20605953507323" lon="13.73152738493803"><ele>1100.2</ele><time>2026-05-02T10:01:52Z</time></trkpt><trkpt lat="42.20602930244992" lon="13.731374512459816"><ele>1102.8</ele><time>2026-05-02T10:01:53Z</time></trkpt><trkpt lat="42.205990480784514" lon="13.731224990008826"><ele>1105.4</ele><time>2026-05-02T10:01:54Z</time></trkpt><trkpt lat="42.20594216216106" lon="13.73111060628273"><ele>1108.0</ele><time>2026-05-02T10:01:54.999Z</time></trkpt><trkpt lat="42.205896510962006" lon="13.731004473918306"><ele>1110.2</ele><time>2026-05-02T10:01:55.999Z</time></trkpt><trkpt lat="42.205841793343176" lon="13.730892437140124"><ele>1112.4</ele><time>2026-05-02T10:01:56.999Z</time></trkpt><trkpt lat="42.205792705157414" lon="13.730784882717236"><ele>1114.6000000000001</ele><time>2026-05-02T10:01:57.999Z</time></trkpt><trkpt lat="42.205762993404434" lon="13.730679569202055"><ele>1116.8</ele><time>2026-05-02T10:01:58.999Z</time></trkpt><trkpt lat="42.20574015097711" lon="13.730561815896678"><ele>1119.0</ele><time>2026-05-02T10:01:59.999Z</time></trkpt><trkpt lat="42.205708314404156" lon="13.730446679818511"><ele>1121.4</ele><time>2026-05-02T10:02:00.999Z</time></trkpt><trkpt lat="42.20564086798666" lon="13.730342085223487"><ele>1123.8000000000002</ele><time>2026-05-02T10:02:01.999Z</time></trkpt><trkpt lat="42.20557643203633" lon="13.730234060477322"><ele>1126.1999999999998</ele><time>2026-05-02T10:02:02.999Z</time></trkpt><trkpt lat="42.205523394268596" lon="13.73010677755014"><ele>1128.6</ele><time>2026-05-02T10:02:03.999Z</time></trkpt><trkpt lat="42.20550638240901" lon="13.729987216887476"><ele>1131.0</ele><time>2026-05-02T10:02:04.999Z</time></trkpt><trkpt lat="42.20547313981222" lon="13.729884973301372"><ele>1131.25</ele><time>2026-05-02T10:02:05.999Z</time></trkpt><trkpt lat="42.20540533379721" lon="13.729773973258332"><ele>1131.5</ele><time>2026-05-02T10:02:06.999Z</time></trkpt><trkpt lat="42.205293010538405" lon="13.729648621090579"><ele>1131.75</ele><time>2026-05-02T10:02:07.999Z</time></trkpt><trkpt lat="42.205192448589884" lon="13.72950282755239"><ele>1132.0</ele><time>2026-05-02T10:02:08.999Z</time></trkpt><trkpt lat="42.205124440759015" lon="13.729355354906293"><ele>1131.4</ele><time>2026-05-02T10:02:09.999Z</time></trkpt><trkpt lat="42.20506190357189" lon="13.72923754056101"><ele>1130.8000000000002</ele><time>2026-05-02T10:02:10.999Z</time></trkpt><trkpt lat="42.205000425850876" lon="13.729148520193569"><ele>1130.2</ele><time>2026-05-02T10:02:11.999Z</time></trkpt><trkpt lat="42.204944879795434" lon="13.729078957849772"><ele>1129.6000000000001</ele><time>2026-05-02T10:02:12.999Z</time></trkpt><trkpt lat="42.204857523089224" lon="13.728979646532165"><ele>1129.0</ele><time>2026-05-02T10:02:14.999Z</time></trkpt><trkpt lat="42.204791739222124" lon="13.728940516839621"><ele>1130.0</ele><time>2026-05-02T10:02:16.999Z</time></trkpt><trkpt lat="42.20468316801062" lon="13.728927502927277"><ele>1131.0</ele><time>2026-05-02T10:02:41.999Z</time></trkpt><trkpt lat="42.204617230236344" lon="13.728908208423746"><ele>1132.0</ele><time>2026-05-02T10:02:42.999Z</time></trkpt><trkpt lat="42.20454161134906" lon="13.728882137227147"><ele>1133.0</ele><time>2026-05-02T10:02:43.999Z</time></trkpt><trkpt lat="42.20447968131971" lon="13.72881420380305"><ele>1134.0</ele><time>2026-05-02T10:02:44.999Z</time></trkpt><trkpt lat="42.204403167408046" lon="13.728803861753972"><ele>1135.0</ele><time>2026-05-02T10:02:45.999Z</time></trkpt><trkpt lat="42.20434222337247" lon="13.728746021944072"><ele>1135.0</ele><time>2026-05-02T10:02:46.999Z</time></trkpt><trkpt lat="42.20426076271043" lon="13.728708611705127"><ele>1135.0</ele><time>2026-05-02T10:02:49Z</time></trkpt><trkpt lat="42.204193860719016" lon="13.728656261914045"><ele>1135.0</ele><time>2026-05-02T10:02:50Z</time></trkpt><trkpt lat="42.20412703040146" lon="13.72860795895879"><ele>1135.0</ele><time>2026-05-02T10:02:51Z</time></trkpt><trkpt lat="42.20404209730059" lon="13.728541920611207"><ele>1135.0</ele><time>2026-05-02T10:02:52Z</time></trkpt><trkpt lat="42.20397873108869" lon="13.728475836226755"><ele>1135.0</ele><time>2026-05-02T10:02:53Z</time></trkpt><trkpt lat="42.20391948577706" lon="13.728419954024522"><ele>1134.3333333333333</ele><time>2026-05-02T10:02:54Z</time></trkpt><trkpt lat="42.20385254609618" lon="13.728380310190243"><ele>1133.6666666666665</ele><time>2026-05-02T10:02:55Z</time></trkpt><trkpt lat="42.20376922278851" lon="13.728386287995995"><ele>1133.0</ele><time>2026-05-02T10:02:56Z</time></trkpt><trkpt lat="42.20368626222378" lon="13.728425272535313"><ele>1132.3333333333333</ele><time>2026-05-02T10:02:57Z</time></trkpt><trkpt lat="42.203595555510255" lon="13.72847156109112"><ele>1131.6666666666667</ele><time>2026-05-02T10:02:58Z</time></trkpt><trkpt lat="42.203509015996595" lon="13.728508032002622"><ele>1131.0</ele><time>2026-05-02T10:02:59Z</time></trkpt><trkpt lat="42.20343094948933" lon="13.728527514178538"><ele>1131.0</ele><time>2026-05-02T10:03:00Z</time></trkpt><trkpt lat="42.203360655047746" lon="13.72855163499083"><ele>1131.0</ele><time>2026-05-02T10:03:01Z</time></trkpt><trkpt lat="42.20329188442677" lon="13.728583199834066"><ele>1131.0</ele><time>2026-05-02T10:03:02Z</time></trkpt><trkpt lat="42.20321345580944" lon="13.728603657986703"><ele>1131.0</ele><time>2026-05-02T10:03:03Z</time></trkpt><trkpt lat="42.203115649591" lon="13.728605727277522"><ele>1131.0</ele><time>2026-05-02T10:03:04Z</time></trkpt><trkpt lat="42.20300178445257" lon="13.728588600495574"><ele>1131.0</ele><time>2026-05-02T10:03:05Z</time></trkpt><trkpt lat="42.20288125398737" lon="13.728584818076744"><ele>1133.0</ele><time>2026-05-02T10:03:06Z</time></trkpt><trkpt lat="42.2027667814723" lon="13.728606168501818"><ele>1135.0</ele><time>2026-05-02T10:03:07Z</time></trkpt><trkpt lat="42.202655762288565" lon="13.728628615933435"><ele>1137.0</ele><time>2026-05-02T10:03:08Z</time></trkpt><trkpt lat="42.202546599665354" lon="13.728642385593007"><ele>1139.0</ele><time>2026-05-02T10:03:09Z</time></trkpt><trkpt lat="42.202437369746285" lon="13.728640695032654"><ele>1141.0</ele><time>2026-05-02T10:03:10Z</time></trkpt><trkpt lat="42.20232411645705" lon="13.728628250890555"><ele>1141.3999999999999</ele><time>2026-05-02T10:03:11Z</time></trkpt><trkpt lat="42.202212066680886" lon="13.728598588175409"><ele>1141.8</ele><time>2026-05-02T10:03:12Z</time></trkpt><trkpt lat="42.20211270287069" lon="13.728551519144391"><ele>1142.1999999999998</ele><time>2026-05-02T10:03:13Z</time></trkpt><trkpt lat="42.2020270673917" lon="13.728517384910921"><ele>1142.6</ele><time>2026-05-02T10:03:14Z</time></trkpt><trkpt lat="42.20194580180179" lon="13.728496095741127"><ele>1143.0</ele><time>2026-05-02T10:03:15Z</time></trkpt><trkpt lat="42.2018706056664" lon="13.728452082649072"><ele>1142.0</ele><time>2026-05-02T10:03:16Z</time></trkpt><trkpt lat="42.20179117449013" lon="13.728455323556531"><ele>1141.0</ele><time>2026-05-02T10:03:17Z</time></trkpt><trkpt lat="42.20171807613293" lon="13.728466140685235"><ele>1140.0</ele><time>2026-05-02T10:03:18Z</time></trkpt><trkpt lat="42.201655090180296" lon="13.728477388399018"><ele>1139.0</ele><time>2026-05-02T10:03:19Z</time></trkpt><trkpt lat="42.20155003303918" lon="13.728495944842312"><ele>1138.0</ele><time>2026-05-02T10:03:21Z</time></trkpt><trkpt lat="42.20147284459236" lon="13.728509578791158"><ele>1137.0</ele><time>2026-05-02T10:03:23Z</time></trkpt><trkpt lat="42.201404453031415" lon="13.728521658919362"><ele>1137.6666666666667</ele><time>2026-05-02T10:03:26Z</time></trkpt><trkpt lat="42.20135940838819" lon="13.72858505152764"><ele>1138.3333333333333</ele><time>2026-05-02T10:04:33.999Z</time></trkpt><trkpt lat="42.20129222670078" lon="13.728581879916417"><ele>1139.0</ele><time>2026-05-02T10:05:13Z</time></trkpt><trkpt lat="42.20120572239524" lon="13.728597426963104"><ele>1139.6666666666665</ele><time>2026-05-02T10:05:15Z</time></trkpt><trkpt lat="42.20114097681863" lon="13.728607540098338"><ele>1140.3333333333333</ele><time>2026-05-02T10:05:16Z</time></trkpt><trkpt lat="42.201016729642696" lon="13.728566900914219"><ele>1141.0</ele><time>2026-05-02T10:05:18Z</time></trkpt><trkpt lat="42.20095178817243" lon="13.728558449844654"><ele>1141.0</ele><time>2026-05-02T10:05:19Z</time></trkpt><trkpt lat="42.20087078834271" lon="13.728607859882759"><ele>1141.0</ele><time>2026-05-02T10:05:20Z</time></trkpt><trkpt lat="42.20079617424123" lon="13.728606294696482"><ele>1141.0</ele><time>2026-05-02T10:05:21Z</time></trkpt><trkpt lat="42.200689216085856" lon="13.728577371282556"><ele>1141.0</ele><time>2026-05-02T10:05:23Z</time></trkpt><trkpt lat="42.20058912582376" lon="13.728481819356347"><ele>1141.0</ele><time>2026-05-02T10:05:25Z</time></trkpt><trkpt lat="42.200532178146005" lon="13.728434292178003"><ele>1137.8333333333333</ele><time>2026-05-02T10:05:26Z</time></trkpt><trkpt lat="42.200467196091545" lon="13.728388490579366"><ele>1134.6666666666665</ele><time>2026-05-02T10:05:27Z</time></trkpt><trkpt lat="42.20040183588072" lon="13.728324910655383"><ele>1131.5</ele><time>2026-05-02T10:05:28Z</time></trkpt><trkpt lat="42.200347425691646" lon="13.728230386801224"><ele>1128.3333333333333</ele><time>2026-05-02T10:05:29Z</time></trkpt><trkpt lat="42.20030348347502" lon="13.728118271442858"><ele>1125.1666666666667</ele><time>2026-05-02T10:05:30Z</time></trkpt><trkpt lat="42.2002603042264" lon="13.728003867794413"><ele>1122.0</ele><time>2026-05-02T10:05:31Z</time></trkpt><trkpt lat="42.2002087630382" lon="13.727899594810108"><ele>1122.0</ele><time>2026-05-02T10:05:32Z</time></trkpt><trkpt lat="42.200138427483175" lon="13.727811221034358"><ele>1122.0</ele><time>2026-05-02T10:05:33Z</time></trkpt><trkpt lat="42.200051468443164" lon="13.727745914761428"><ele>1122.0</ele><time>2026-05-02T10:05:34Z</time></trkpt><trkpt lat="42.1999682275281" lon="13.72767454869515"><ele>1122.0</ele><time>2026-05-02T10:05:35Z</time></trkpt><trkpt lat="42.19988637503398" lon="13.727601711251438"><ele>1122.0</ele><time>2026-05-02T10:05:36Z</time></trkpt><trkpt lat="42.199802567482884" lon="13.727550013785018"><ele>1119.6666666666667</ele><time>2026-05-02T10:05:37Z</time></trkpt><trkpt lat="42.199728175652446" lon="13.727504646813442"><ele>1117.3333333333333</ele><time>2026-05-02T10:05:38Z</time></trkpt><trkpt lat="42.199661411892315" lon="13.727454387710647"><ele>1115.0</ele><time>2026-05-02T10:05:39Z</time></trkpt><trkpt lat="42.19960446785077" lon="13.727396523350487"><ele>1112.6666666666665</ele><time>2026-05-02T10:05:40Z</time></trkpt><trkpt lat="42.19956264501345" lon="13.727322600879349"><ele>1110.3333333333333</ele><time>2026-05-02T10:05:41Z</time></trkpt><trkpt lat="42.19953374530453" lon="13.727226682762497"><ele>1108.0</ele><time>2026-05-02T10:05:42Z</time></trkpt><trkpt lat="42.19948344539623" lon="13.72715022376562"><ele>1108.0</ele><time>2026-05-02T10:05:43Z</time></trkpt><trkpt lat="42.19941881173075" lon="13.727072749498511"><ele>1108.0</ele><time>2026-05-02T10:05:44Z</time></trkpt><trkpt lat="42.19933339053179" lon="13.727029812603176"><ele>1108.0</ele><time>2026-05-02T10:05:45Z</time></trkpt><trkpt lat="42.19923994688251" lon="13.726994499225105"><ele>1108.0</ele><time>2026-05-02T10:05:46Z</time></trkpt><trkpt lat="42.19913930523577" lon="13.726976738216152"><ele>1108.0</ele><time>2026-05-02T10:05:47Z</time></trkpt><trkpt lat="42.19904529064242" lon="13.726984065036667"><ele>1107.6666666666665</ele><time>2026-05-02T10:05:48Z</time></trkpt><trkpt lat="42.19897323450894" lon="13.726995239691421"><ele>1107.3333333333333</ele><time>2026-05-02T10:05:49Z</time></trkpt><trkpt lat="42.19885098558809" lon="13.727002652665526"><ele>1107.0</ele><time>2026-05-02T10:05:51Z</time></trkpt><trkpt lat="42.19877891672894" lon="13.72699432624272"><ele>1106.6666666666667</ele><time>2026-05-02T10:05:52Z</time></trkpt><trkpt lat="42.19871123391395" lon="13.72695155703605"><ele>1106.3333333333335</ele><time>2026-05-02T10:05:53Z</time></trkpt><trkpt lat="42.198632101888826" lon="13.72689532103353"><ele>1106.0</ele><time>2026-05-02T10:05:54Z</time></trkpt><trkpt lat="42.19854906831165" lon="13.726830717579904"><ele>1104.1666666666667</ele><time>2026-05-02T10:05:55Z</time></trkpt><trkpt lat="42.19846837280561" lon="13.72677162363796"><ele>1102.3333333333335</ele><time>2026-05-02T10:05:55.999Z</time></trkpt><trkpt lat="42.19839396772501" lon="13.726730086828201"><ele>1100.5</ele><time>2026-05-02T10:05:56.999Z</time></trkpt><trkpt lat="42.19833055244723" lon="13.726694398783765"><ele>1098.6666666666667</ele><time>2026-05-02T10:05:57.999Z</time></trkpt><trkpt lat="42.19826696382483" lon="13.72665809075982"><ele>1096.8333333333333</ele><time>2026-05-02T10:05:58.999Z</time></trkpt><trkpt lat="42.19820796320183" lon="13.726622146424745"><ele>1095.0</ele><time>2026-05-02T10:05:59.999Z</time></trkpt><trkpt lat="42.19810089940114" lon="13.726564476621386"><ele>1093.8</ele><time>2026-05-02T10:06:01.999Z</time></trkpt><trkpt lat="42.19801745123671" lon="13.726550320217546"><ele>1092.6</ele><time>2026-05-02T10:06:03.999Z</time></trkpt><trkpt lat="42.19798653890281" lon="13.72642844799073"><ele>1091.4</ele><time>2026-05-02T10:06:05.999Z</time></trkpt><trkpt lat="42.19789794260202" lon="13.726346776248796"><ele>1090.2</ele><time>2026-05-02T10:06:07.999Z</time></trkpt><trkpt lat="42.19781718392253" lon="13.726345004835093"><ele>1089.0</ele><time>2026-05-02T10:06:08.999Z</time></trkpt><trkpt lat="42.19773646541327" lon="13.726391116973277"><ele>1089.0000000000002</ele><time>2026-05-02T10:06:09.999Z</time></trkpt><trkpt lat="42.19769179236402" lon="13.726498527059025"><ele>1089.0</ele><time>2026-05-02T10:06:10.999Z</time></trkpt><trkpt lat="42.197649945306566" lon="13.726578974340951"><ele>1089.0</ele><time>2026-05-02T10:06:11.999Z</time></trkpt><trkpt lat="42.197625286468785" lon="13.726660937921391"><ele>1089.0</ele><time>2026-05-02T10:06:12.999Z</time></trkpt><trkpt lat="42.19761790075207" lon="13.726762160729134"><ele>1089.0</ele><time>2026-05-02T10:06:13.999Z</time></trkpt><trkpt lat="42.19759366151965" lon="13.726857446081558"><ele>1089.0000000000002</ele><time>2026-05-02T10:06:14.999Z</time></trkpt><trkpt lat="42.1975503669368" lon="13.726920655592224"><ele>1089.0</ele><time>2026-05-02T10:06:15.999Z</time></trkpt><trkpt lat="42.197491553663085" lon="13.726961563230425"><ele>1089.8</ele><time>2026-05-02T10:06:16.999Z</time></trkpt><trkpt lat="42.19739648146634" lon="13.726946251000996"><ele>1090.6000000000001</ele><time>2026-05-02T10:06:17.999Z</time></trkpt><trkpt lat="42.19732163649967" lon="13.726981518125509"><ele>1091.4</ele><time>2026-05-02T10:06:18.999Z</time></trkpt><trkpt lat="42.19722760513832" lon="13.727016473464218"><ele>1092.2</ele><time>2026-05-02T10:06:19.999Z</time></trkpt><trkpt lat="42.19712753588314" lon="13.727045711676542"><ele>1093.0</ele><time>2026-05-02T10:06:20.999Z</time></trkpt><trkpt lat="42.19702320317332" lon="13.727075289000394"><ele>1091.0</ele><time>2026-05-02T10:06:21.999Z</time></trkpt><trkpt lat="42.19692588858799" lon="13.727108123077066"><ele>1089.0</ele><time>2026-05-02T10:06:22.999Z</time></trkpt><trkpt lat="42.19683071262144" lon="13.727143104349139"><ele>1087.0</ele><time>2026-05-02T10:06:23.999Z</time></trkpt><trkpt lat="42.1967311165239" lon="13.727181349694192"><ele>1085.0</ele><time>2026-05-02T10:06:24.999Z</time></trkpt><trkpt lat="42.19662515746747" lon="13.727224275299662"><ele>1083.0</ele><time>2026-05-02T10:06:25.999Z</time></trkpt><trkpt lat="42.19653627413063" lon="13.727263536808412"><ele>1082.8</ele><time>2026-05-02T10:06:26.999Z</time></trkpt><trkpt lat="42.19645999604989" lon="13.72730315692773"><ele>1082.6</ele><time>2026-05-02T10:06:27.999Z</time></trkpt><trkpt lat="42.196411128921646" lon="13.727402642344789"><ele>1082.4</ele><time>2026-05-02T10:06:28.999Z</time></trkpt><trkpt lat="42.196350458682225" lon="13.727473597361543"><ele>1082.2</ele><time>2026-05-02T10:06:29.999Z</time></trkpt><trkpt lat="42.19627723091365" lon="13.727556730870376"><ele>1082.0</ele><time>2026-05-02T10:06:30.999Z</time></trkpt><trkpt lat="42.196182895900435" lon="13.727649515117822"><ele>1081.75</ele><time>2026-05-02T10:06:31.999Z</time></trkpt><trkpt lat="42.19607918425266" lon="13.727748583101613"><ele>1081.5</ele><time>2026-05-02T10:06:32.999Z</time></trkpt><trkpt lat="42.19597816924994" lon="13.727847701368214"><ele>1081.25</ele><time>2026-05-02T10:06:33.999Z</time></trkpt><trkpt lat="42.19588506249067" lon="13.727945871944177"><ele>1081.0</ele><time>2026-05-02T10:06:34.999Z</time></trkpt><trkpt lat="42.19579427583312" lon="13.728033189486913"><ele>1081.0</ele><time>2026-05-02T10:06:35.999Z</time></trkpt><trkpt lat="42.19570580668472" lon="13.72812502506614"><ele>1081.0</ele><time>2026-05-02T10:06:36.999Z</time></trkpt><trkpt lat="42.195620567220764" lon="13.728217653223675"><ele>1081.0</ele><time>2026-05-02T10:06:37.999Z</time></trkpt><trkpt lat="42.195537827544314" lon="13.728318940871459"><ele>1081.0</ele><time>2026-05-02T10:06:38.999Z</time></trkpt><trkpt lat="42.19545955226903" lon="13.728456693708548"><ele>1080.0</ele><time>2026-05-02T10:06:39.999Z</time></trkpt><trkpt lat="42.19538638541915" lon="13.728621528875074"><ele>1079.0</ele><time>2026-05-02T10:06:40.999Z</time></trkpt><trkpt lat="42.195306211260494" lon="13.728783377837862"><ele>1078.0</ele><time>2026-05-02T10:06:41.999Z</time></trkpt><trkpt lat="42.19522105233959" lon="13.72894431449928"><ele>1077.0</ele><time>2026-05-02T10:06:42.999Z</time></trkpt><trkpt lat="42.19514109900482" lon="13.729109499647903"><ele>1077.0</ele><time>2026-05-02T10:06:43.999Z</time></trkpt><trkpt lat="42.195059739510306" lon="13.729273624384632"><ele>1077.0</ele><time>2026-05-02T10:06:44.999Z</time></trkpt><trkpt lat="42.19498133268008" lon="13.72943903837209"><ele>1077.0</ele><time>2026-05-02T10:06:45.999Z</time></trkpt><trkpt lat="42.19490812159571" lon="13.729616024928243"><ele>1077.0</ele><time>2026-05-02T10:06:46.999Z</time></trkpt><trkpt lat="42.19483686704613" lon="13.729792621390924"><ele>1078.0</ele><time>2026-05-02T10:06:47.999Z</time></trkpt><trkpt lat="42.19476468483335" lon="13.729957372699792"><ele>1079.0</ele><time>2026-05-02T10:06:48.999Z</time></trkpt><trkpt lat="42.1946959765731" lon="13.73010887431616"><ele>1080.0</ele><time>2026-05-02T10:06:49.999Z</time></trkpt><trkpt lat="42.194631674994504" lon="13.7302647980549"><ele>1081.0</ele><time>2026-05-02T10:06:50.999Z</time></trkpt><trkpt lat="42.19457604987484" lon="13.730444655420897"><ele>1081.0</ele><time>2026-05-02T10:06:51.999Z</time></trkpt><trkpt lat="42.194522515441186" lon="13.730636255668525"><ele>1081.0</ele><time>2026-05-02T10:06:52.999Z</time></trkpt><trkpt lat="42.19446778441467" lon="13.730830259449247"><ele>1081.0</ele><time>2026-05-02T10:06:53.999Z</time></trkpt><trkpt lat="42.19441034285674" lon="13.731024851143797"><ele>1081.6666666666665</ele><time>2026-05-02T10:06:54.999Z</time></trkpt><trkpt lat="42.19433588487428" lon="13.731212504833037"><ele>1082.3333333333333</ele><time>2026-05-02T10:06:55.999Z</time></trkpt><trkpt lat="42.194259678336145" lon="13.731389690601064"><ele>1083.0</ele><time>2026-05-02T10:06:56.999Z</time></trkpt><trkpt lat="42.19418364395571" lon="13.731562435064056"><ele>1083.0</ele><time>2026-05-02T10:06:57.999Z</time></trkpt><trkpt lat="42.19411455185936" lon="13.73173169281336"><ele>1083.0</ele><time>2026-05-02T10:06:58.999Z</time></trkpt><trkpt lat="42.194053460279406" lon="13.731902261798314"><ele>1083.0</ele><time>2026-05-02T10:06:59.999Z</time></trkpt><trkpt lat="42.19398616492483" lon="13.73207112734835"><ele>1083.0</ele><time>2026-05-02T10:07:01Z</time></trkpt><trkpt lat="42.193880567766534" lon="13.732223281293958"><ele>1083.5</ele><time>2026-05-02T10:07:02Z</time></trkpt><trkpt lat="42.19380465756267" lon="13.732399269682311"><ele>1084.0</ele><time>2026-05-02T10:07:03Z</time></trkpt><trkpt lat="42.19373336804432" lon="13.732568625097793"><ele>1084.5</ele><time>2026-05-02T10:07:04Z</time></trkpt><trkpt lat="42.19366462162064" lon="13.73274671499228"><ele>1085.0</ele><time>2026-05-02T10:07:05Z</time></trkpt><trkpt lat="42.19360338840785" lon="13.73292944085622"><ele>1085.75</ele><time>2026-05-02T10:07:06Z</time></trkpt><trkpt lat="42.19354997619541" lon="13.733109946637677"><ele>1086.5</ele><time>2026-05-02T10:07:07Z</time></trkpt><trkpt lat="42.193514197827675" lon="13.73328182497464"><ele>1087.25</ele><time>2026-05-02T10:07:08Z</time></trkpt><trkpt lat="42.19348005059966" lon="13.733451152364113"><ele>1088.0</ele><time>2026-05-02T10:07:09Z</time></trkpt><trkpt lat="42.193451955935664" lon="13.733617452945719"><ele>1088.25</ele><time>2026-05-02T10:07:10Z</time></trkpt><trkpt lat="42.19343338724717" lon="13.73379276970655"><ele>1088.5</ele><time>2026-05-02T10:07:11Z</time></trkpt><trkpt lat="42.19342417963898" lon="13.733975867811363"><ele>1088.75</ele><time>2026-05-02T10:07:12Z</time></trkpt><trkpt lat="42.19341757587675" lon="13.734158782354271"><ele>1089.0</ele><time>2026-05-02T10:07:13Z</time></trkpt><trkpt lat="42.19341113891382" lon="13.734337076754917"><ele>1090.2</ele><time>2026-05-02T10:07:14Z</time></trkpt><trkpt lat="42.19340256269604" lon="13.734500637675914"><ele>1091.4</ele><time>2026-05-02T10:07:15Z</time></trkpt><trkpt lat="42.19338878104913" lon="13.73464723940728"><ele>1092.6</ele><time>2026-05-02T10:07:16Z</time></trkpt><trkpt lat="42.19336225978892" lon="13.734780297294805"><ele>1093.8</ele><time>2026-05-02T10:07:17Z</time></trkpt><trkpt lat="42.19332770802276" lon="13.734922904318568"><ele>1095.0</ele><time>2026-05-02T10:07:18Z</time></trkpt><trkpt lat="42.19330968460332" lon="13.735060004654041"><ele>1095.0</ele><time>2026-05-02T10:07:19Z</time></trkpt><trkpt lat="42.193319167481825" lon="13.7351802190425"><ele>1095.0</ele><time>2026-05-02T10:07:20Z</time></trkpt><trkpt lat="42.19332802835131" lon="13.735296397646293"><ele>1095.0</ele><time>2026-05-02T10:07:21Z</time></trkpt><trkpt lat="42.19335216904853" lon="13.735416389944072"><ele>1095.0</ele><time>2026-05-02T10:07:22Z</time></trkpt><trkpt lat="42.19335859949284" lon="13.735529558739122"><ele>1095.0</ele><time>2026-05-02T10:07:23Z</time></trkpt><trkpt lat="42.19336494659396" lon="13.73561957265331"><ele>1095.0</ele><time>2026-05-02T10:07:24Z</time></trkpt><trkpt lat="42.193366592817696" lon="13.735710032244825"><ele>1095.4</ele><time>2026-05-02T10:07:25Z</time></trkpt><trkpt lat="42.19335478392311" lon="13.735868280734271"><ele>1095.8</ele><time>2026-05-02T10:07:27Z</time></trkpt><trkpt lat="42.1933170509045" lon="13.736016665009595"><ele>1096.2</ele><time>2026-05-02T10:07:29Z</time></trkpt><trkpt lat="42.19325423263342" lon="13.736163770012697"><ele>1096.6</ele><time>2026-05-02T10:07:31Z</time></trkpt><trkpt lat="42.19321680330761" lon="13.736239404859237"><ele>1097.0</ele><time>2026-05-02T10:07:32Z</time></trkpt><trkpt lat="42.19321207990808" lon="13.736352597340293"><ele>1094.5</ele><time>2026-05-02T10:07:33Z</time></trkpt><trkpt lat="42.19316943751669" lon="13.736436291865713"><ele>1092.0</ele><time>2026-05-02T10:07:34Z</time></trkpt><trkpt lat="42.19313138913369" lon="13.736529826976097"><ele>1089.5</ele><time>2026-05-02T10:07:35Z</time></trkpt><trkpt lat="42.19309390384712" lon="13.736628285230537"><ele>1087.0</ele><time>2026-05-02T10:07:36Z</time></trkpt><trkpt lat="42.19305536391974" lon="13.73672421854063"><ele>1084.5</ele><time>2026-05-02T10:07:37Z</time></trkpt><trkpt lat="42.19301539176614" lon="13.73681970934165"><ele>1082.0</ele><time>2026-05-02T10:07:38Z</time></trkpt><trkpt lat="42.19297232392393" lon="13.73691702734752"><ele>1080.4285714285716</ele><time>2026-05-02T10:07:39Z</time></trkpt><trkpt lat="42.19293277344668" lon="13.73700609274906"><ele>1078.857142857143</ele><time>2026-05-02T10:07:40Z</time></trkpt><trkpt lat="42.19289323456089" lon="13.737087039695915"><ele>1077.2857142857142</ele><time>2026-05-02T10:07:41Z</time></trkpt><trkpt lat="42.19285385921612" lon="13.73717147081897"><ele>1075.7142857142858</ele><time>2026-05-02T10:07:42Z</time></trkpt><trkpt lat="42.192816128691604" lon="13.737255754408121"><ele>1074.142857142857</ele><time>2026-05-02T10:07:43Z</time></trkpt><trkpt lat="42.19278236210068" lon="13.737341395571558"><ele>1072.5714285714287</ele><time>2026-05-02T10:07:44Z</time></trkpt><trkpt lat="42.19273954960213" lon="13.737417208546562"><ele>1071.0</ele><time>2026-05-02T10:07:45Z</time></trkpt><trkpt lat="42.192681810542474" lon="13.737493874913342"><ele>1071.0</ele><time>2026-05-02T10:07:46Z</time></trkpt><trkpt lat="42.19261469741964" lon="13.737583470941841"><ele>1071.0</ele><time>2026-05-02T10:07:47Z</time></trkpt><trkpt lat="42.192550416762714" lon="13.737682936821443"><ele>1071.0</ele><time>2026-05-02T10:07:48Z</time></trkpt><trkpt lat="42.192491134728634" lon="13.737781425343114"><ele>1071.0</ele><time>2026-05-02T10:07:49Z</time></trkpt><trkpt lat="42.19243775885655" lon="13.737875546851196"><ele>1071.0</ele><time>2026-05-02T10:07:50Z</time></trkpt><trkpt lat="42.192377358027485" lon="13.737959605878068"><ele>1068.8</ele><time>2026-05-02T10:07:51Z</time></trkpt><trkpt lat="42.19231484970976" lon="13.738038165475691"><ele>1066.6</ele><time>2026-05-02T10:07:52Z</time></trkpt><trkpt lat="42.1922061418643" lon="13.738060504340925"><ele>1064.4</ele><time>2026-05-02T10:07:53Z</time></trkpt><trkpt lat="42.192130117293885" lon="13.738145033556625"><ele>1062.2</ele><time>2026-05-02T10:07:54Z</time></trkpt><trkpt lat="42.192051547187184" lon="13.738232172686734"><ele>1060.0</ele><time>2026-05-02T10:07:55Z</time></trkpt><trkpt lat="42.19197195775169" lon="13.738319456365712"><ele>1060.0</ele><time>2026-05-02T10:07:56Z</time></trkpt><trkpt lat="42.191889579076744" lon="13.738408439377151"><ele>1060.0</ele><time>2026-05-02T10:07:57Z</time></trkpt><trkpt lat="42.19180695401376" lon="13.738497473512036"><ele>1060.0</ele><time>2026-05-02T10:07:58Z</time></trkpt><trkpt lat="42.19172574589231" lon="13.7385894175677"><ele>1060.0</ele><time>2026-05-02T10:07:59Z</time></trkpt><trkpt lat="42.191651320348974" lon="13.738683479437244"><ele>1060.0</ele><time>2026-05-02T10:08:00Z</time></trkpt><trkpt lat="42.1915768879279" lon="13.738768741782824"><ele>1058.2</ele><time>2026-05-02T10:08:01Z</time></trkpt><trkpt lat="42.19150319992036" lon="13.73884597907884"><ele>1056.4</ele><time>2026-05-02T10:08:01.999Z</time></trkpt><trkpt lat="42.19145211179126" lon="13.738976225339734"><ele>1054.6</ele><time>2026-05-02T10:08:02.999Z</time></trkpt><trkpt lat="42.19136925885816" lon="13.739058474514506"><ele>1052.8</ele><time>2026-05-02T10:08:03.999Z</time></trkpt><trkpt lat="42.191281162013155" lon="13.739142142407438"><ele>1051.0</ele><time>2026-05-02T10:08:04.999Z</time></trkpt><trkpt lat="42.191162176419915" lon="13.739173671947396"><ele>1051.0</ele><time>2026-05-02T10:08:05.999Z</time></trkpt><trkpt lat="42.19107537190224" lon="13.739257721840078"><ele>1051.0</ele><time>2026-05-02T10:08:06.999Z</time></trkpt><trkpt lat="42.19097973623404" lon="13.739361460458145"><ele>1051.0</ele><time>2026-05-02T10:08:07.999Z</time></trkpt><trkpt lat="42.190894931045825" lon="13.739458669301056"><ele>1051.0</ele><time>2026-05-02T10:08:08.999Z</time></trkpt><trkpt lat="42.19080226889319" lon="13.739555218664938"><ele>1051.8</ele><time>2026-05-02T10:08:09.999Z</time></trkpt><trkpt lat="42.19071361342284" lon="13.739653962606013"><ele>1052.6</ele><time>2026-05-02T10:08:10.999Z</time></trkpt><trkpt lat="42.19063521522653" lon="13.739748319695599"><ele>1053.4</ele><time>2026-05-02T10:08:11.999Z</time></trkpt><trkpt lat="42.19056316372609" lon="13.739831450327788"><ele>1054.2</ele><time>2026-05-02T10:08:12.999Z</time></trkpt><trkpt lat="42.19048931165187" lon="13.739905014370981"><ele>1055.0</ele><time>2026-05-02T10:08:13.999Z</time></trkpt><trkpt lat="42.19041098032227" lon="13.73997178174039"><ele>1054.2</ele><time>2026-05-02T10:08:14.999Z</time></trkpt><trkpt lat="42.19031525835496" lon="13.740030200608452"><ele>1053.4</ele><time>2026-05-02T10:08:15.999Z</time></trkpt><trkpt lat="42.1902148396357" lon="13.740101424802406"><ele>1052.6</ele><time>2026-05-02T10:08:16.999Z</time></trkpt><trkpt lat="42.19012771081419" lon="13.740167448198683"><ele>1051.8</ele><time>2026-05-02T10:08:17.999Z</time></trkpt><trkpt lat="42.19003909730411" lon="13.7402407798922"><ele>1051.0</ele><time>2026-05-02T10:08:18.999Z</time></trkpt><trkpt lat="42.189947731235286" lon="13.74031963696437"><ele>1051.0</ele><time>2026-05-02T10:08:19.999Z</time></trkpt><trkpt lat="42.18986124309143" lon="13.740396483056472"><ele>1051.0</ele><time>2026-05-02T10:08:20.999Z</time></trkpt><trkpt lat="42.189772919515505" lon="13.740478375790744"><ele>1051.0</ele><time>2026-05-02T10:08:21.999Z</time></trkpt><trkpt lat="42.18969206454133" lon="13.74056021805883"><ele>1051.0</ele><time>2026-05-02T10:08:22.999Z</time></trkpt><trkpt lat="42.18961687030902" lon="13.740648963958687"><ele>1051.0</ele><time>2026-05-02T10:08:23.999Z</time></trkpt><trkpt lat="42.189549756637085" lon="13.740736097989398"><ele>1050.0</ele><time>2026-05-02T10:08:24.999Z</time></trkpt><trkpt lat="42.1894821286523" lon="13.740830011098344"><ele>1049.0</ele><time>2026-05-02T10:08:25.999Z</time></trkpt><trkpt lat="42.18941217726505" lon="13.740926799190392"><ele>1048.0</ele><time>2026-05-02T10:08:26.999Z</time></trkpt><trkpt lat="42.18934077306889" lon="13.741029502756794"><ele>1047.0</ele><time>2026-05-02T10:08:27.999Z</time></trkpt><trkpt lat="42.18929097302814" lon="13.74116222162043"><ele>1046.0</ele><time>2026-05-02T10:08:28.999Z</time></trkpt><trkpt lat="42.18922962543937" lon="13.741269503952227"><ele>1046.0</ele><time>2026-05-02T10:08:29.999Z</time></trkpt><trkpt lat="42.189159524348916" lon="13.741383488925099"><ele>1046.0</ele><time>2026-05-02T10:08:30.999Z</time></trkpt><trkpt lat="42.18909200860367" lon="13.741498517020139"><ele>1046.0</ele><time>2026-05-02T10:08:31.999Z</time></trkpt><trkpt lat="42.18902846570572" lon="13.741605252069698"><ele>1046.0</ele><time>2026-05-02T10:08:32.999Z</time></trkpt><trkpt lat="42.188964279384436" lon="13.74170142364878"><ele>1046.0</ele><time>2026-05-02T10:08:33.999Z</time></trkpt><trkpt lat="42.1888873709533" lon="13.741785410826893"><ele>1044.3999999999999</ele><time>2026-05-02T10:08:34.999Z</time></trkpt><trkpt lat="42.188794393233" lon="13.741870507296287"><ele>1042.8</ele><time>2026-05-02T10:08:35.999Z</time></trkpt><trkpt lat="42.188697852796096" lon="13.741944193856824"><ele>1041.1999999999998</ele><time>2026-05-02T10:08:36.999Z</time></trkpt><trkpt lat="42.188607179301975" lon="13.742014171724401"><ele>1039.6</ele><time>2026-05-02T10:08:37.999Z</time></trkpt><trkpt lat="42.18851339085841" lon="13.742083000211043"><ele>1038.0</ele><time>2026-05-02T10:08:38.999Z</time></trkpt><trkpt lat="42.18841397265057" lon="13.742141043863223"><ele>1037.6</ele><time>2026-05-02T10:08:39.999Z</time></trkpt><trkpt lat="42.18831147861937" lon="13.742195385981061"><ele>1037.1999999999998</ele><time>2026-05-02T10:08:40.999Z</time></trkpt><trkpt lat="42.18821672525925" lon="13.742246500752037"><ele>1036.8</ele><time>2026-05-02T10:08:41.999Z</time></trkpt><trkpt lat="42.18813305818141" lon="13.742311612089814"><ele>1036.3999999999999</ele><time>2026-05-02T10:08:42.999Z</time></trkpt><trkpt lat="42.18806568985754" lon="13.742376269765638"><ele>1036.0</ele><time>2026-05-02T10:08:43.999Z</time></trkpt><trkpt lat="42.18800985310461" lon="13.742449424303768"><ele>1035.6</ele><time>2026-05-02T10:08:44.999Z</time></trkpt><trkpt lat="42.18797110329595" lon="13.742535421616171"><ele>1035.1999999999998</ele><time>2026-05-02T10:08:45.999Z</time></trkpt><trkpt lat="42.187932072359175" lon="13.742643369022932"><ele>1034.8000000000002</ele><time>2026-05-02T10:08:46.999Z</time></trkpt><trkpt lat="42.18789147740259" lon="13.742783840354962"><ele>1034.4</ele><time>2026-05-02T10:08:47.999Z</time></trkpt><trkpt lat="42.187853898966466" lon="13.74291064198166"><ele>1034.0</ele><time>2026-05-02T10:08:48.999Z</time></trkpt><trkpt lat="42.18781113732174" lon="13.743033222994532"><ele>1032.8</ele><time>2026-05-02T10:08:49.999Z</time></trkpt><trkpt lat="42.18775483046773" lon="13.743151616591943"><ele>1031.6000000000001</ele><time>2026-05-02T10:08:50.999Z</time></trkpt><trkpt lat="42.18769615079115" lon="13.743257922754022"><ele>1030.4</ele><time>2026-05-02T10:08:51.999Z</time></trkpt><trkpt lat="42.18762601116853" lon="13.743357885548042"><ele>1029.2</ele><time>2026-05-02T10:08:52.999Z</time></trkpt><trkpt lat="42.18755150382439" lon="13.743448358228488"><ele>1028.0</ele><time>2026-05-02T10:08:53.999Z</time></trkpt><trkpt lat="42.18747058316564" lon="13.743532838041745"><ele>1028.6</ele><time>2026-05-02T10:08:54.999Z</time></trkpt><trkpt lat="42.18737818450278" lon="13.743607920362733"><ele>1029.1999999999998</ele><time>2026-05-02T10:08:55.999Z</time></trkpt><trkpt lat="42.1872896773976" lon="13.743681963416186"><ele>1029.8</ele><time>2026-05-02T10:08:56.999Z</time></trkpt><trkpt lat="42.18721749288796" lon="13.743765886103365"><ele>1030.3999999999999</ele><time>2026-05-02T10:08:57.999Z</time></trkpt><trkpt lat="42.187151986318625" lon="13.743851686898886"><ele>1031.0</ele><time>2026-05-02T10:08:58.999Z</time></trkpt><trkpt lat="42.187083007647544" lon="13.743933363511571"><ele>1029.8333333333335</ele><time>2026-05-02T10:08:59.999Z</time></trkpt><trkpt lat="42.1870345900069" lon="13.743992341869278"><ele>1028.6666666666667</ele><time>2026-05-02T10:09:00.999Z</time></trkpt><trkpt lat="42.1869306734307" lon="13.744057621560296"><ele>1027.5</ele><time>2026-05-02T10:09:02.999Z</time></trkpt><trkpt lat="42.1868595534221" lon="13.744057663715182"><ele>1026.3333333333333</ele><time>2026-05-02T10:09:03.999Z</time></trkpt><trkpt lat="42.18678128171673" lon="13.744046442647893"><ele>1025.1666666666665</ele><time>2026-05-02T10:09:04.999Z</time></trkpt><trkpt lat="42.18670868712013" lon="13.74403960222877"><ele>1024.0</ele><time>2026-05-02T10:09:05.999Z</time></trkpt><trkpt lat="42.18663416225353" lon="13.744060500737337"><ele>1024.0</ele><time>2026-05-02T10:09:07Z</time></trkpt><trkpt lat="42.1865521818638" lon="13.744092458354745"><ele>1024.0</ele><time>2026-05-02T10:09:08Z</time></trkpt><trkpt lat="42.18646472688608" lon="13.744129216757207"><ele>1024.0</ele><time>2026-05-02T10:09:09Z</time></trkpt><trkpt lat="42.18638055146949" lon="13.744170004865078"><ele>1024.0</ele><time>2026-05-02T10:09:10Z</time></trkpt><trkpt lat="42.18630256069871" lon="13.744231779212852"><ele>1024.0</ele><time>2026-05-02T10:09:11Z</time></trkpt><trkpt lat="42.18622482186391" lon="13.74430761256945"><ele>1022.6666666666666</ele><time>2026-05-02T10:09:12Z</time></trkpt><trkpt lat="42.18616337892757" lon="13.744390751989059"><ele>1021.3333333333333</ele><time>2026-05-02T10:09:13Z</time></trkpt><trkpt lat="42.186106647963285" lon="13.744471514976947"><ele>1020.0</ele><time>2026-05-02T10:09:14Z</time></trkpt><trkpt lat="42.18605238821745" lon="13.744548734036929"><ele>1018.6666666666667</ele><time>2026-05-02T10:09:15Z</time></trkpt><trkpt lat="42.185995456377725" lon="13.74462458364095"><ele>1017.3333333333334</ele><time>2026-05-02T10:09:16Z</time></trkpt><trkpt lat="42.18593429053174" lon="13.744695517037853"><ele>1016.0</ele><time>2026-05-02T10:09:17Z</time></trkpt><trkpt lat="42.18588011723599" lon="13.744764084872285"><ele>1016.0000000000001</ele><time>2026-05-02T10:09:18Z</time></trkpt><trkpt lat="42.18583464878743" lon="13.744827511749941"><ele>1016.0</ele><time>2026-05-02T10:09:19Z</time></trkpt><trkpt lat="42.18577772585728" lon="13.74488565025296"><ele>1016.0</ele><time>2026-05-02T10:09:20Z</time></trkpt><trkpt lat="42.18570061022479" lon="13.744918872922307"><ele>1016.0</ele><time>2026-05-02T10:09:21Z</time></trkpt><trkpt lat="42.18561468481148" lon="13.744927983930005"><ele>1016.0000000000001</ele><time>2026-05-02T10:09:22Z</time></trkpt><trkpt lat="42.18549508821675" lon="13.744954654295059"><ele>1016.0</ele><time>2026-05-02T10:09:23Z</time></trkpt><trkpt lat="42.18538943949727" lon="13.744966246226294"><ele>1014.1999999999999</ele><time>2026-05-02T10:09:24Z</time></trkpt><trkpt lat="42.18529323705971" lon="13.74498289316111"><ele>1012.3999999999999</ele><time>2026-05-02T10:09:25Z</time></trkpt><trkpt lat="42.18520543386646" lon="13.744994594877134"><ele>1010.6</ele><time>2026-05-02T10:09:26Z</time></trkpt><trkpt lat="42.185118414831244" lon="13.744999365063176"><ele>1008.8</ele><time>2026-05-02T10:09:27Z</time></trkpt><trkpt lat="42.18502738615899" lon="13.744981184707612"><ele>1007.0</ele><time>2026-05-02T10:09:28Z</time></trkpt><trkpt lat="42.184939035949874" lon="13.744960414314942"><ele>1007.0000000000001</ele><time>2026-05-02T10:09:29Z</time></trkpt><trkpt lat="42.184856794909024" lon="13.744936066133441"><ele>1007.0</ele><time>2026-05-02T10:09:30Z</time></trkpt><trkpt lat="42.184777790416874" lon="13.744917561173722"><ele>1007.0</ele><time>2026-05-02T10:09:31Z</time></trkpt><trkpt lat="42.18471161895059" lon="13.74490249338072"><ele>1007.0</ele><time>2026-05-02T10:09:32Z</time></trkpt><trkpt lat="42.18464879011537" lon="13.744885602386601"><ele>1007.0000000000001</ele><time>2026-05-02T10:09:33Z</time></trkpt><trkpt lat="42.184585516446134" lon="13.74487365313794"><ele>1007.0</ele><time>2026-05-02T10:09:34Z</time></trkpt><trkpt lat="42.184457828263724" lon="13.744857757944413"><ele>1005.0000000000001</ele><time>2026-05-02T10:09:36Z</time></trkpt><trkpt lat="42.18439007128268" lon="13.74486445246915"><ele>1003.0</ele><time>2026-05-02T10:09:37Z</time></trkpt><trkpt lat="42.18432217206172" lon="13.744885415561903"><ele>1001.0</ele><time>2026-05-02T10:09:38Z</time></trkpt><trkpt lat="42.184253664641666" lon="13.744920060603139"><ele>999.0</ele><time>2026-05-02T10:09:39Z</time></trkpt><trkpt lat="42.184181746007134" lon="13.744961709281151"><ele>997.0000000000001</ele><time>2026-05-02T10:09:40Z</time></trkpt><trkpt lat="42.18410500640302" lon="13.744992076212695"><ele>995.0</ele><time>2026-05-02T10:09:41Z</time></trkpt><trkpt lat="42.184021896611284" lon="13.745030528120019"><ele>994.3333333333334</ele><time>2026-05-02T10:09:42Z</time></trkpt><trkpt lat="42.183938286068006" lon="13.745073203429312"><ele>993.6666666666667</ele><time>2026-05-02T10:09:43Z</time></trkpt><trkpt lat="42.18386068708674" lon="13.745116297745623"><ele>993.0</ele><time>2026-05-02T10:09:44Z</time></trkpt><trkpt lat="42.183778087787054" lon="13.745153926415263"><ele>992.3333333333333</ele><time>2026-05-02T10:09:45Z</time></trkpt><trkpt lat="42.183690865491094" lon="13.745176540427439"><ele>991.6666666666666</ele><time>2026-05-02T10:09:46Z</time></trkpt><trkpt lat="42.183604709245074" lon="13.745187477795731"><ele>991.0</ele><time>2026-05-02T10:09:47Z</time></trkpt><trkpt lat="42.18351903108782" lon="13.74520234437435"><ele>988.1666666666666</ele><time>2026-05-02T10:09:48Z</time></trkpt><trkpt lat="42.18343752076084" lon="13.745227313293565"><ele>985.3333333333333</ele><time>2026-05-02T10:09:49Z</time></trkpt><trkpt lat="42.18336354718434" lon="13.745255327076269"><ele>982.5</ele><time>2026-05-02T10:09:50Z</time></trkpt><trkpt lat="42.18328509928957" lon="13.745281609365657"><ele>979.6666666666667</ele><time>2026-05-02T10:09:51Z</time></trkpt><trkpt lat="42.18320780457887" lon="13.745301131121854"><ele>976.8333333333334</ele><time>2026-05-02T10:09:52Z</time></trkpt><trkpt lat="42.1831374983797" lon="13.745321011545185"><ele>974.0</ele><time>2026-05-02T10:09:53Z</time></trkpt><trkpt lat="42.183070061115885" lon="13.745340103794334"><ele>971.2</ele><time>2026-05-02T10:09:54Z</time></trkpt><trkpt lat="42.183002161049075" lon="13.74535136931748"><ele>968.4000000000001</ele><time>2026-05-02T10:09:55Z</time></trkpt><trkpt lat="42.182936973566605" lon="13.74535327749117"><ele>965.6</ele><time>2026-05-02T10:09:56Z</time></trkpt><trkpt lat="42.18282108798228" lon="13.745343177900699"><ele>962.8</ele><time>2026-05-02T10:09:58Z</time></trkpt><trkpt lat="42.182699004704496" lon="13.745310417670819"><ele>960.0</ele><time>2026-05-02T10:10:00Z</time></trkpt><trkpt lat="42.18259282325346" lon="13.745265966919343"><ele>961.6666666666666</ele><time>2026-05-02T10:10:02Z</time></trkpt><trkpt lat="42.182502363401575" lon="13.745206613485834"><ele>963.3333333333333</ele><time>2026-05-02T10:10:04Z</time></trkpt><trkpt lat="42.182431552329014" lon="13.745148480128544"><ele>965.0</ele><time>2026-05-02T10:10:06Z</time></trkpt><trkpt lat="42.18236553207795" lon="13.745094223894858"><ele>966.6666666666666</ele><time>2026-05-02T10:10:08Z</time></trkpt><trkpt lat="42.18230537933331" lon="13.745030520701658"><ele>968.3333333333333</ele><time>2026-05-02T10:10:10Z</time></trkpt><trkpt lat="42.18224232149181" lon="13.744953027064266"><ele>970.0</ele><time>2026-05-02T10:10:12Z</time></trkpt><trkpt lat="42.182189302661435" lon="13.744888537302439"><ele>965.4999999999999</ele><time>2026-05-02T10:10:13.999Z</time></trkpt><trkpt lat="42.18212214082" lon="13.744818016613019"><ele>961.0</ele><time>2026-05-02T10:10:15.999Z</time></trkpt><trkpt lat="42.18206025575284" lon="13.74475312892476"><ele>956.5</ele><time>2026-05-02T10:10:17.999Z</time></trkpt><trkpt lat="42.18198689172991" lon="13.744687341085445"><ele>952.0</ele><time>2026-05-02T10:10:19.999Z</time></trkpt><trkpt lat="42.181909698651744" lon="13.744638865632522"><ele>947.4999999999999</ele><time>2026-05-02T10:10:21.999Z</time></trkpt><trkpt lat="42.18183469141568" lon="13.744585796889538"><ele>943.0</ele><time>2026-05-02T10:10:23.999Z</time></trkpt><trkpt lat="42.18175127132161" lon="13.744521600035519"><ele>942.9999999999999</ele><time>2026-05-02T10:10:25.999Z</time></trkpt><trkpt lat="42.18168133360035" lon="13.744463172339293"><ele>943.0</ele><time>2026-05-02T10:10:27.999Z</time></trkpt><trkpt lat="42.18161137190725" lon="13.744408218607662"><ele>943.0</ele><time>2026-05-02T10:10:29.999Z</time></trkpt><trkpt lat="42.18154283053058" lon="13.744348485175243"><ele>943.0</ele><time>2026-05-02T10:10:31.999Z</time></trkpt><trkpt lat="42.181476948256645" lon="13.74428239041118"><ele>942.9999999999999</ele><time>2026-05-02T10:10:33.999Z</time></trkpt><trkpt lat="42.181405485834425" lon="13.744222967642896"><ele>943.0</ele><time>2026-05-02T10:10:35.999Z</time></trkpt><trkpt lat="42.181344636819446" lon="13.744172687250705"><ele>940.6666666666666</ele><time>2026-05-02T10:10:37.999Z</time></trkpt><trkpt lat="42.18127425910033" lon="13.744127321923107"><ele>938.3333333333333</ele><time>2026-05-02T10:10:39.999Z</time></trkpt><trkpt lat="42.18121646490799" lon="13.744072335521349"><ele>936.0</ele><time>2026-05-02T10:10:41.999Z</time></trkpt><trkpt lat="42.18116697353991" lon="13.744008894634616"><ele>933.6666666666667</ele><time>2026-05-02T10:10:43.999Z</time></trkpt><trkpt lat="42.18110985502099" lon="13.743944215918551"><ele>931.3333333333334</ele><time>2026-05-02T10:10:45.999Z</time></trkpt><trkpt lat="42.18105252376938" lon="13.743847340719636"><ele>929.0</ele><time>2026-05-02T10:10:47.999Z</time></trkpt><trkpt lat="42.18100599827599" lon="13.743747669549064"><ele>929.0000000000001</ele><time>2026-05-02T10:10:49.999Z</time></trkpt><trkpt lat="42.18097000057255" lon="13.743638946854816"><ele>929.0</ele><time>2026-05-02T10:10:51.999Z</time></trkpt><trkpt lat="42.180930763203484" lon="13.743560158243033"><ele>929.0</ele><time>2026-05-02T10:10:53.999Z</time></trkpt><trkpt lat="42.180871947285304" lon="13.743627663740474"><ele>929.0</ele><time>2026-05-02T10:11:28Z</time></trkpt><trkpt lat="42.1808840137435" lon="13.743727394937183"><ele>929.0000000000001</ele><time>2026-05-02T10:11:30Z</time></trkpt><trkpt lat="42.1808947193378" lon="13.74384713755405"><ele>929.0</ele><time>2026-05-02T10:11:32Z</time></trkpt><trkpt lat="42.18090679757653" lon="13.743992174782282"><ele>929.0</ele><time>2026-05-02T10:11:34Z</time></trkpt><trkpt lat="42.18092702822874" lon="13.744128644032294"><ele>929.0</ele><time>2026-05-02T10:11:36Z</time></trkpt><trkpt lat="42.18092288602975" lon="13.744290506798787"><ele>929.0</ele><time>2026-05-02T10:11:38Z</time></trkpt><trkpt lat="42.18093463293151" lon="13.744454766639828"><ele>929.0</ele><time>2026-05-02T10:11:40Z</time></trkpt><trkpt lat="42.18088355442217" lon="13.744591545084438"><ele>928.8333333333334</ele><time>2026-05-02T10:11:42Z</time></trkpt><trkpt lat="42.180793635088214" lon="13.744706651993454"><ele>928.6666666666667</ele><time>2026-05-02T10:11:44Z</time></trkpt><trkpt lat="42.18071934276177" lon="13.744711899452042"><ele>928.5</ele><time>2026-05-02T10:11:45Z</time></trkpt><trkpt lat="42.180638802234114" lon="13.744693211906592"><ele>928.3333333333333</ele><time>2026-05-02T10:11:46Z</time></trkpt><trkpt lat="42.18055655423893" lon="13.744665517763606"><ele>928.1666666666666</ele><time>2026-05-02T10:11:47Z</time></trkpt><trkpt lat="42.18047610210542" lon="13.744638122530604"><ele>928.0</ele><time>2026-05-02T10:11:48Z</time></trkpt><trkpt lat="42.18039214664152" lon="13.744615039430848"><ele>928.0</ele><time>2026-05-02T10:11:49Z</time></trkpt><trkpt lat="42.18031271763127" lon="13.744579451470536"><ele>928.0</ele><time>2026-05-02T10:11:50Z</time></trkpt><trkpt lat="42.1802182342936" lon="13.74452811575462"><ele>928.0</ele><time>2026-05-02T10:11:51Z</time></trkpt><trkpt lat="42.180132001826344" lon="13.744472155295213"><ele>928.0</ele><time>2026-05-02T10:11:52Z</time></trkpt><trkpt lat="42.18004636650527" lon="13.744419480911297"><ele>928.0</ele><time>2026-05-02T10:11:53Z</time></trkpt><trkpt lat="42.17996284866989" lon="13.744372683894417"><ele>925.8</ele><time>2026-05-02T10:11:54Z</time></trkpt><trkpt lat="42.179885327778756" lon="13.74432018997971"><ele>923.5999999999999</ele><time>2026-05-02T10:11:55Z</time></trkpt><trkpt lat="42.17980543918043" lon="13.744279556034783"><ele>921.4000000000001</ele><time>2026-05-02T10:11:56Z</time></trkpt><trkpt lat="42.17970921824356" lon="13.74424999378107"><ele>919.2</ele><time>2026-05-02T10:11:57Z</time></trkpt><trkpt lat="42.17960557253674" lon="13.744237314145442"><ele>917.0</ele><time>2026-05-02T10:11:58Z</time></trkpt><trkpt lat="42.17950776925961" lon="13.744230333097303"><ele>915.0</ele><time>2026-05-02T10:11:59Z</time></trkpt><trkpt lat="42.179414607508726" lon="13.744227420970981"><ele>913.0</ele><time>2026-05-02T10:12:00Z</time></trkpt><trkpt lat="42.179326677827525" lon="13.744235157759359"><ele>911.0</ele><time>2026-05-02T10:12:01Z</time></trkpt><trkpt lat="42.1792370872109" lon="13.74426328281"><ele>909.0</ele><time>2026-05-02T10:12:02Z</time></trkpt><trkpt lat="42.179144571303475" lon="13.744302323703785"><ele>907.0</ele><time>2026-05-02T10:12:03Z</time></trkpt><trkpt lat="42.17904756565355" lon="13.744341790570305"><ele>907.2</ele><time>2026-05-02T10:12:04Z</time></trkpt><trkpt lat="42.17894599897543" lon="13.74437149115949"><ele>907.4000000000001</ele><time>2026-05-02T10:12:05Z</time></trkpt><trkpt lat="42.17884546148634" lon="13.744402137800204"><ele>907.5999999999999</ele><time>2026-05-02T10:12:06Z</time></trkpt><trkpt lat="42.17873946126607" lon="13.744442629105425"><ele>907.8</ele><time>2026-05-02T10:12:07Z</time></trkpt><trkpt lat="42.178639230575556" lon="13.744482250690407"><ele>908.0</ele><time>2026-05-02T10:12:08Z</time></trkpt><trkpt lat="42.178548308808004" lon="13.744529218367836"><ele>908.0</ele><time>2026-05-02T10:12:09Z</time></trkpt><trkpt lat="42.178452213412044" lon="13.74459851498817"><ele>908.0</ele><time>2026-05-02T10:12:10Z</time></trkpt><trkpt lat="42.17835031384352" lon="13.744676540115941"><ele>908.0</ele><time>2026-05-02T10:12:11Z</time></trkpt><trkpt lat="42.17824693908467" lon="13.744750032040146"><ele>908.0</ele><time>2026-05-02T10:12:12Z</time></trkpt><trkpt lat="42.17814734262794" lon="13.744814284892975"><ele>907.3333333333334</ele><time>2026-05-02T10:12:12.999Z</time></trkpt><trkpt lat="42.178061380191814" lon="13.744867545442192"><ele>906.6666666666667</ele><time>2026-05-02T10:12:13.999Z</time></trkpt><trkpt lat="42.177996798123424" lon="13.744937165830654"><ele>906.0</ele><time>2026-05-02T10:12:14.999Z</time></trkpt><trkpt lat="42.17793725205188" lon="13.745028450157081"><ele>905.3333333333333</ele><time>2026-05-02T10:12:16.999Z</time></trkpt><trkpt lat="42.177885101975484" lon="13.74509907860615"><ele>904.6666666666666</ele><time>2026-05-02T10:13:11.999Z</time></trkpt><trkpt lat="42.177827862237315" lon="13.745149518357845"><ele>904.0</ele><time>2026-05-02T10:13:12.999Z</time></trkpt><trkpt lat="42.17775543554274" lon="13.745206119527756"><ele>906.25</ele><time>2026-05-02T10:13:13.999Z</time></trkpt><trkpt lat="42.17767106859673" lon="13.745274892277953"><ele>908.5</ele><time>2026-05-02T10:13:14.999Z</time></trkpt><trkpt lat="42.17755325692799" lon="13.745294669524444"><ele>910.75</ele><time>2026-05-02T10:13:15.999Z</time></trkpt><trkpt lat="42.177440902890226" lon="13.745382159730266"><ele>913.0</ele><time>2026-05-02T10:13:16.999Z</time></trkpt><trkpt lat="42.17732498591711" lon="13.74547576560317"><ele>916.5</ele><time>2026-05-02T10:13:17.999Z</time></trkpt><trkpt lat="42.17721319588382" lon="13.745566038801375"><ele>920.0</ele><time>2026-05-02T10:13:19Z</time></trkpt><trkpt lat="42.177106282341875" lon="13.745648388863481"><ele>923.5</ele><time>2026-05-02T10:13:20Z</time></trkpt><trkpt lat="42.177038421224154" lon="13.745784137957259"><ele>927.0</ele><time>2026-05-02T10:13:21Z</time></trkpt><trkpt lat="42.17696512201553" lon="13.745860020555536"><ele>927.0</ele><time>2026-05-02T10:13:22Z</time></trkpt><trkpt lat="42.176918622711696" lon="13.745950714137466"><ele>927.0</ele><time>2026-05-02T10:13:23Z</time></trkpt><trkpt lat="42.17687900601919" lon="13.746045690968613"><ele>927.0</ele><time>2026-05-02T10:13:24Z</time></trkpt><trkpt lat="42.17684512828542" lon="13.746121147520755"><ele>927.0</ele><time>2026-05-02T10:13:25Z</time></trkpt><trkpt lat="42.17678398650186" lon="13.746187174959918"><ele>927.0</ele><time>2026-05-02T10:13:27Z</time></trkpt><trkpt lat="42.176719653304225" lon="13.746078438135195"><ele>927.0</ele><time>2026-05-02T10:13:29Z</time></trkpt><trkpt lat="42.17676830608719" lon="13.745935977861775"><ele>927.0</ele><time>2026-05-02T10:13:31Z</time></trkpt><trkpt lat="42.17680358453878" lon="13.745842583298453"><ele>927.0</ele><time>2026-05-02T10:13:32Z</time></trkpt><trkpt lat="42.17683747739829" lon="13.745719279758932"><ele>927.0</ele><time>2026-05-02T10:13:33Z</time></trkpt><trkpt lat="42.1768625042696" lon="13.745610772710029"><ele>927.0</ele><time>2026-05-02T10:13:34Z</time></trkpt><trkpt lat="42.17686083072105" lon="13.745518510397998"><ele>927.0</ele><time>2026-05-02T10:13:35Z</time></trkpt><trkpt lat="42.17683112491981" lon="13.74544300207246"><ele>927.0</ele><time>2026-05-02T10:13:36Z</time></trkpt><trkpt lat="42.176780947471556" lon="13.745387009354943"><ele>927.0</ele><time>2026-05-02T10:13:37Z</time></trkpt><trkpt lat="42.17669842273665" lon="13.745349562187396"><ele>927.0</ele><time>2026-05-02T10:13:38Z</time></trkpt><trkpt lat="42.176605338360254" lon="13.745335620260928"><ele>927.0</ele><time>2026-05-02T10:13:39Z</time></trkpt><trkpt lat="42.17652767457941" lon="13.745336004103097"><ele>927.0</ele><time>2026-05-02T10:13:40Z</time></trkpt><trkpt lat="42.17644758613047" lon="13.745321588430448"><ele>927.0</ele><time>2026-05-02T10:13:42Z</time></trkpt><trkpt lat="42.17642113075662" lon="13.745409642597794"><ele>927.0</ele><time>2026-05-02T10:13:45Z</time></trkpt><trkpt lat="42.17648596368088" lon="13.74555476864016"><ele>927.0</ele><time>2026-05-02T10:13:47Z</time></trkpt><trkpt lat="42.176516822027324" lon="13.745651238615261"><ele>927.0</ele><time>2026-05-02T10:13:48Z</time></trkpt><trkpt lat="42.176524266064106" lon="13.745777581397396"><ele>927.0</ele><time>2026-05-02T10:13:49Z</time></trkpt><trkpt lat="42.17651629445257" lon="13.745910919298128"><ele>927.0</ele><time>2026-05-02T10:13:50Z</time></trkpt><trkpt lat="42.17650839528259" lon="13.746041671352005"><ele>927.0</ele><time>2026-05-02T10:13:51Z</time></trkpt><trkpt lat="42.17650045725013" lon="13.746176733994872"><ele>934.75</ele><time>2026-05-02T10:13:52Z</time></trkpt><trkpt lat="42.17649376056688" lon="13.746326205095636"><ele>942.5</ele><time>2026-05-02T10:13:53Z</time></trkpt><trkpt lat="42.17649354764654" lon="13.746488175749926"><ele>950.25</ele><time>2026-05-02T10:13:54Z</time></trkpt><trkpt lat="42.176498109667506" lon="13.746663014742605"><ele>958.0</ele><time>2026-05-02T10:13:55Z</time></trkpt><trkpt lat="42.17650857286414" lon="13.746837535463444"><ele>954.75</ele><time>2026-05-02T10:13:56Z</time></trkpt><trkpt lat="42.176530441284434" lon="13.747002203516958"><ele>951.5</ele><time>2026-05-02T10:13:57Z</time></trkpt><trkpt lat="42.17656931590308" lon="13.747153485734803"><ele>948.25</ele><time>2026-05-02T10:13:58Z</time></trkpt><trkpt lat="42.17663923166994" lon="13.747278350129555"><ele>945.0</ele><time>2026-05-02T10:13:59Z</time></trkpt><trkpt lat="42.17673303633907" lon="13.747374659555625"><ele>945.0</ele><time>2026-05-02T10:14:00Z</time></trkpt><trkpt lat="42.1768422829656" lon="13.74744387948029"><ele>945.0</ele><time>2026-05-02T10:14:01Z</time></trkpt><trkpt lat="42.17696222457813" lon="13.747495775481923"><ele>945.0</ele><time>2026-05-02T10:14:02Z</time></trkpt><trkpt lat="42.1770797353108" lon="13.74755213424515"><ele>945.0</ele><time>2026-05-02T10:14:03Z</time></trkpt><trkpt lat="42.17719561475894" lon="13.747607085335295"><ele>945.0</ele><time>2026-05-02T10:14:04Z</time></trkpt><trkpt lat="42.177313710819206" lon="13.747653913322802"><ele>945.0</ele><time>2026-05-02T10:14:05Z</time></trkpt><trkpt lat="42.17743508721329" lon="13.747684915936507"><ele>945.0</ele><time>2026-05-02T10:14:06Z</time></trkpt><trkpt lat="42.17755544696218" lon="13.747696435330889"><ele>945.0</ele><time>2026-05-02T10:14:07Z</time></trkpt><trkpt lat="42.177677525039584" lon="13.74769714085659"><ele>945.0</ele><time>2026-05-02T10:14:08Z</time></trkpt><trkpt lat="42.17779931384834" lon="13.747704884934922"><ele>945.0</ele><time>2026-05-02T10:14:09Z</time></trkpt><trkpt lat="42.17792152714678" lon="13.74770997433342"><ele>945.0</ele><time>2026-05-02T10:14:10Z</time></trkpt><trkpt lat="42.17804398195255" lon="13.747706927839706"><ele>945.0</ele><time>2026-05-02T10:14:11Z</time></trkpt><trkpt lat="42.17816438435348" lon="13.747700364068745"><ele>947.0</ele><time>2026-05-02T10:14:12Z</time></trkpt><trkpt lat="42.17828507056205" lon="13.747694121111792"><ele>949.0</ele><time>2026-05-02T10:14:13Z</time></trkpt><trkpt lat="42.17840397973353" lon="13.747685039882313"><ele>951.0</ele><time>2026-05-02T10:14:14Z</time></trkpt><trkpt lat="42.17852541851544" lon="13.747668437879994"><ele>953.0</ele><time>2026-05-02T10:14:15Z</time></trkpt><trkpt lat="42.178645675723246" lon="13.747632733312084"><ele>953.0</ele><time>2026-05-02T10:14:16Z</time></trkpt><trkpt lat="42.17876271882595" lon="13.747581181437365"><ele>953.0</ele><time>2026-05-02T10:14:17Z</time></trkpt><trkpt lat="42.17887965809308" lon="13.747523596426833"><ele>953.0</ele><time>2026-05-02T10:14:18Z</time></trkpt><trkpt lat="42.1790001072006" lon="13.747472264038429"><ele>953.0</ele><time>2026-05-02T10:14:19Z</time></trkpt><trkpt lat="42.17912036540981" lon="13.74741904220858"><ele>956.25</ele><time>2026-05-02T10:14:20Z</time></trkpt><trkpt lat="42.17923941129223" lon="13.74736047216885"><ele>959.5</ele><time>2026-05-02T10:14:21Z</time></trkpt><trkpt lat="42.17935471574285" lon="13.74730620235925"><ele>962.75</ele><time>2026-05-02T10:14:22Z</time></trkpt><trkpt lat="42.17947038758795" lon="13.747256510769176"><ele>966.0</ele><time>2026-05-02T10:14:23Z</time></trkpt><trkpt lat="42.179584750206864" lon="13.747209613146717"><ele>966.0</ele><time>2026-05-02T10:14:24Z</time></trkpt><trkpt lat="42.1796975223712" lon="13.747165359737801"><ele>965.9999999999999</ele><time>2026-05-02T10:14:25Z</time></trkpt><trkpt lat="42.17980131286487" lon="13.747140103488402"><ele>965.9999999999999</ele><time>2026-05-02T10:14:25.999Z</time></trkpt><trkpt lat="42.17989451143022" lon="13.747144836246395"><ele>966.0</ele><time>2026-05-02T10:14:26.999Z</time></trkpt><trkpt lat="42.17994936118687" lon="13.747194187603988"><ele>966.0</ele><time>2026-05-02T10:14:27.999Z</time></trkpt><trkpt lat="42.17997151639159" lon="13.747343227657462"><ele>966.0</ele><time>2026-05-02T10:14:29.999Z</time></trkpt><trkpt lat="42.179916316206274" lon="13.747398369814066"><ele>966.0</ele><time>2026-05-02T10:14:30.999Z</time></trkpt><trkpt lat="42.17984935948694" lon="13.747436025147573"><ele>966.0</ele><time>2026-05-02T10:14:31.999Z</time></trkpt><trkpt lat="42.179771044765694" lon="13.747461816344684"><ele>966.0</ele><time>2026-05-02T10:14:32.999Z</time></trkpt><trkpt lat="42.179689893298544" lon="13.747524559736208"><ele>966.0</ele><time>2026-05-02T10:14:33.999Z</time></trkpt><trkpt lat="42.1795987017209" lon="13.747604543719136"><ele>966.0</ele><time>2026-05-02T10:14:34.999Z</time></trkpt><trkpt lat="42.179481777309576" lon="13.747700680779495"><ele>971.0</ele><time>2026-05-02T10:14:35.999Z</time></trkpt><trkpt lat="42.17937859843811" lon="13.747804007568543"><ele>975.9999999999999</ele><time>2026-05-02T10:14:36.999Z</time></trkpt><trkpt lat="42.17931760473603" lon="13.747866728610921"><ele>980.9999999999999</ele><time>2026-05-02T10:14:37.999Z</time></trkpt><trkpt lat="42.17926802628912" lon="13.747938975644239"><ele>986.0</ele><time>2026-05-02T10:14:38.999Z</time></trkpt><trkpt lat="42.17920975064111" lon="13.74800096133111"><ele>991.0</ele><time>2026-05-02T10:14:39.999Z</time></trkpt><trkpt lat="42.17910202187016" lon="13.74808884342838"><ele>988.9999999999999</ele><time>2026-05-02T10:14:41.999Z</time></trkpt><trkpt lat="42.179013695085175" lon="13.748205144183972"><ele>987.0</ele><time>2026-05-02T10:14:43.999Z</time></trkpt><trkpt lat="42.178962341828644" lon="13.748258867800518"><ele>985.0</ele><time>2026-05-02T10:14:44.999Z</time></trkpt><trkpt lat="42.17890862564378" lon="13.748311083365161"><ele>983.0</ele><time>2026-05-02T10:14:45.999Z</time></trkpt><trkpt lat="42.17885634658189" lon="13.748365133941"><ele>980.9999999999999</ele><time>2026-05-02T10:14:46.999Z</time></trkpt><trkpt lat="42.17880361476891" lon="13.748425089605021"><ele>979.0</ele><time>2026-05-02T10:14:47.999Z</time></trkpt><trkpt lat="42.17874652968516" lon="13.748487767290497"><ele>982.2857142857142</ele><time>2026-05-02T10:14:48.999Z</time></trkpt><trkpt lat="42.17868321636446" lon="13.74854535637397"><ele>985.5714285714287</ele><time>2026-05-02T10:14:49.999Z</time></trkpt><trkpt lat="42.178622790670325" lon="13.74859566145491"><ele>988.8571428571429</ele><time>2026-05-02T10:14:50.999Z</time></trkpt><trkpt lat="42.17856141779648" lon="13.748643485074428"><ele>992.1428571428571</ele><time>2026-05-02T10:14:51.999Z</time></trkpt><trkpt lat="42.17849855989" lon="13.74868936881448"><ele>995.4285714285713</ele><time>2026-05-02T10:14:52.999Z</time></trkpt><trkpt lat="42.178435369941845" lon="13.74873016488023"><ele>998.7142857142858</ele><time>2026-05-02T10:14:53.999Z</time></trkpt><trkpt lat="42.178373482854525" lon="13.748771945575474"><ele>1002.0</ele><time>2026-05-02T10:14:54.999Z</time></trkpt><trkpt lat="42.17831119613832" lon="13.748818154124741"><ele>1002.0</ele><time>2026-05-02T10:14:55.999Z</time></trkpt><trkpt lat="42.17824661929761" lon="13.748863917860984"><ele>1002.0</ele><time>2026-05-02T10:14:56.999Z</time></trkpt><trkpt lat="42.178183360329555" lon="13.748915067504585"><ele>1002.0</ele><time>2026-05-02T10:14:57.999Z</time></trkpt><trkpt lat="42.178118937029694" lon="13.748966948196353"><ele>1002.0</ele><time>2026-05-02T10:14:58.999Z</time></trkpt><trkpt lat="42.17804296354655" lon="13.749001077236066"><ele>1002.0</ele><time>2026-05-02T10:14:59.999Z</time></trkpt><trkpt lat="42.17797409115847" lon="13.74905259749737"><ele>1002.0</ele><time>2026-05-02T10:15:00.999Z</time></trkpt><trkpt lat="42.17790831758468" lon="13.749101799589262"><ele>1001.1428571428571</ele><time>2026-05-02T10:15:01.999Z</time></trkpt><trkpt lat="42.17784163506143" lon="13.749151318249973"><ele>1000.2857142857142</ele><time>2026-05-02T10:15:02.999Z</time></trkpt><trkpt lat="42.17778258530451" lon="13.749216905478189"><ele>999.4285714285713</ele><time>2026-05-02T10:15:03.999Z</time></trkpt><trkpt lat="42.17771912009564" lon="13.749259856700968"><ele>998.5714285714286</ele><time>2026-05-02T10:15:04.999Z</time></trkpt><trkpt lat="42.17765497701963" lon="13.749306735649425"><ele>997.7142857142856</ele><time>2026-05-02T10:15:05.999Z</time></trkpt><trkpt lat="42.177590025009295" lon="13.749350249260287"><ele>996.8571428571428</ele><time>2026-05-02T10:15:06.999Z</time></trkpt><trkpt lat="42.17752414641986" lon="13.749395308739683"><ele>996.0</ele><time>2026-05-02T10:15:07.999Z</time></trkpt><trkpt lat="42.17745312331614" lon="13.749436062016402"><ele>1000.5999999999999</ele><time>2026-05-02T10:15:08.999Z</time></trkpt><trkpt lat="42.17736954876123" lon="13.749472500964611"><ele>1005.1999999999999</ele><time>2026-05-02T10:15:09.999Z</time></trkpt><trkpt lat="42.17727583412552" lon="13.74951194441918"><ele>1009.8000000000001</ele><time>2026-05-02T10:15:10.999Z</time></trkpt><trkpt lat="42.17717939007966" lon="13.749554659484362"><ele>1014.4000000000001</ele><time>2026-05-02T10:15:11.999Z</time></trkpt><trkpt lat="42.177077309425975" lon="13.749592819927097"><ele>1019.0</ele><time>2026-05-02T10:15:12.999Z</time></trkpt><trkpt lat="42.176997159336786" lon="13.749616473151839"><ele>1019.0000000000001</ele><time>2026-05-02T10:15:13.999Z</time></trkpt><trkpt lat="42.17688344710958" lon="13.749645134814687"><ele>1019.0</ele><time>2026-05-02T10:15:15.999Z</time></trkpt><trkpt lat="42.176776907480836" lon="13.749664878772904"><ele>1019.0</ele><time>2026-05-02T10:15:17.999Z</time></trkpt><trkpt lat="42.176710819644114" lon="13.74968742480154"><ele>1019.0</ele><time>2026-05-02T10:15:18.999Z</time></trkpt><trkpt lat="42.176644103866" lon="13.749710184969425"><ele>1019.0000000000001</ele><time>2026-05-02T10:15:19.999Z</time></trkpt><trkpt lat="42.17657976094428" lon="13.749733540912478"><ele>1019.0</ele><time>2026-05-02T10:15:20.999Z</time></trkpt><trkpt lat="42.17651066098298" lon="13.749758337795882"><ele>1018.25</ele><time>2026-05-02T10:15:21.999Z</time></trkpt><trkpt lat="42.17643595372239" lon="13.749789680946357"><ele>1017.5</ele><time>2026-05-02T10:15:22.999Z</time></trkpt><trkpt lat="42.176298597441345" lon="13.749570689145711"><ele>1016.75</ele><time>2026-05-02T10:15:23.999Z</time></trkpt><trkpt lat="42.176206008261545" lon="13.749579856019489"><ele>1016.0</ele><time>2026-05-02T10:15:25Z</time></trkpt><trkpt lat="42.1761158275766" lon="13.749593097682643"><ele>1016.0</ele><time>2026-05-02T10:15:26Z</time></trkpt><trkpt lat="42.17601978942906" lon="13.749612323158557"><ele>1015.9999999999999</ele><time>2026-05-02T10:15:27Z</time></trkpt><trkpt lat="42.175918253325825" lon="13.749637390197671"><ele>1015.9999999999999</ele><time>2026-05-02T10:15:28Z</time></trkpt><trkpt lat="42.175815475197815" lon="13.74966556296187"><ele>1016.0</ele><time>2026-05-02T10:15:29Z</time></trkpt><trkpt lat="42.175708281520095" lon="13.749689450226137"><ele>1016.0</ele><time>2026-05-02T10:15:30Z</time></trkpt><trkpt lat="42.17560319022003" lon="13.749715606377778"><ele>1015.0000000000001</ele><time>2026-05-02T10:15:31Z</time></trkpt><trkpt lat="42.17550133749391" lon="13.749741590405918"><ele>1014.0</ele><time>2026-05-02T10:15:32Z</time></trkpt><trkpt lat="42.17540633458822" lon="13.74977590740028"><ele>1013.0</ele><time>2026-05-02T10:15:33Z</time></trkpt><trkpt lat="42.175320293240226" lon="13.749803297455692"><ele>1012.0</ele><time>2026-05-02T10:15:34Z</time></trkpt><trkpt lat="42.17524281878565" lon="13.749829624075444"><ele>1011.0000000000001</ele><time>2026-05-02T10:15:35Z</time></trkpt><trkpt lat="42.1751704259185" lon="13.749855894976857"><ele>1010.0</ele><time>2026-05-02T10:15:36Z</time></trkpt><trkpt lat="42.17509893557147" lon="13.749878210626767"><ele>1010.0000000000001</ele><time>2026-05-02T10:15:37Z</time></trkpt><trkpt lat="42.17503189736634" lon="13.749891981247362"><ele>1010.0</ele><time>2026-05-02T10:15:38Z</time></trkpt><trkpt lat="42.17496459226281" lon="13.749896976098334"><ele>1010.0</ele><time>2026-05-02T10:15:39Z</time></trkpt><trkpt lat="42.17484902849931" lon="13.74981933349982"><ele>1010.0</ele><time>2026-05-02T10:15:41Z</time></trkpt><trkpt lat="42.1748003092244" lon="13.749725796202927"><ele>1010.0000000000001</ele><time>2026-05-02T10:15:42Z</time></trkpt><trkpt lat="42.17475498855154" lon="13.749629735149096"><ele>1010.0</ele><time>2026-05-02T10:15:43Z</time></trkpt><trkpt lat="42.174709500378405" lon="13.749551085299"><ele>1011.0000000000001</ele><time>2026-05-02T10:15:44Z</time></trkpt><trkpt lat="42.17465425794067" lon="13.749483599690857"><ele>1012.0</ele><time>2026-05-02T10:15:45Z</time></trkpt><trkpt lat="42.17459602177564" lon="13.749411589474164"><ele>1013.0</ele><time>2026-05-02T10:15:46Z</time></trkpt><trkpt lat="42.1745369505775" lon="13.749327448419239"><ele>1014.0</ele><time>2026-05-02T10:15:47Z</time></trkpt><trkpt lat="42.17447739204061" lon="13.749239674024427"><ele>1015.0000000000001</ele><time>2026-05-02T10:15:48Z</time></trkpt><trkpt lat="42.174415063846375" lon="13.749153562140348"><ele>1016.0</ele><time>2026-05-02T10:15:49Z</time></trkpt><trkpt lat="42.17435199184441" lon="13.749076305173425"><ele>1013.6666666666667</ele><time>2026-05-02T10:15:50Z</time></trkpt><trkpt lat="42.174286385599636" lon="13.749009892750703"><ele>1011.3333333333334</ele><time>2026-05-02T10:15:51Z</time></trkpt><trkpt lat="42.17421545592935" lon="13.7489430193051"><ele>1009.0</ele><time>2026-05-02T10:15:52Z</time></trkpt><trkpt lat="42.174151434098775" lon="13.74887285867831"><ele>1006.6666666666667</ele><time>2026-05-02T10:15:53Z</time></trkpt><trkpt lat="42.174078903066906" lon="13.748829860573975"><ele>1004.3333333333334</ele><time>2026-05-02T10:15:54Z</time></trkpt><trkpt lat="42.173989523292235" lon="13.748813415684248"><ele>1002.0</ele><time>2026-05-02T10:15:55Z</time></trkpt><trkpt lat="42.17388098893424" lon="13.74881236531837"><ele>1002.0</ele><time>2026-05-02T10:15:56Z</time></trkpt><trkpt lat="42.17377285772771" lon="13.748805284214301"><ele>1002.0</ele><time>2026-05-02T10:15:57Z</time></trkpt><trkpt lat="42.173663858584135" lon="13.74880396002952"><ele>1002.0</ele><time>2026-05-02T10:15:58Z</time></trkpt><trkpt lat="42.173555766621874" lon="13.74882349197829"><ele>1002.0</ele><time>2026-05-02T10:15:59Z</time></trkpt><trkpt lat="42.173439321951186" lon="13.748849453354481"><ele>1002.0</ele><time>2026-05-02T10:16:00Z</time></trkpt><trkpt lat="42.17331796231053" lon="13.74885295034885"><ele>1002.0</ele><time>2026-05-02T10:16:01Z</time></trkpt><trkpt lat="42.17320173489499" lon="13.74885291312624"><ele>1002.0</ele><time>2026-05-02T10:16:02Z</time></trkpt><trkpt lat="42.17309482527882" lon="13.748878284689203"><ele>1002.0</ele><time>2026-05-02T10:16:03Z</time></trkpt><trkpt lat="42.17300128351382" lon="13.748910894598495"><ele>1002.0</ele><time>2026-05-02T10:16:04Z</time></trkpt><trkpt lat="42.17291019321784" lon="13.748920486265188"><ele>1002.0</ele><time>2026-05-02T10:16:05Z</time></trkpt><trkpt lat="42.1728110476478" lon="13.748914359290687"><ele>1001.4000000000001</ele><time>2026-05-02T10:16:06Z</time></trkpt><trkpt lat="42.17270926066461" lon="13.748915178115997"><ele>1000.8000000000001</ele><time>2026-05-02T10:16:07Z</time></trkpt><trkpt lat="42.17260678022186" lon="13.74894409860901"><ele>1000.2</ele><time>2026-05-02T10:16:08Z</time></trkpt><trkpt lat="42.17250844590708" lon="13.748994758135302"><ele>999.6</ele><time>2026-05-02T10:16:09Z</time></trkpt><trkpt lat="42.1724227624369" lon="13.749045099425707"><ele>999.0</ele><time>2026-05-02T10:16:10Z</time></trkpt><trkpt lat="42.17234232847207" lon="13.749070586669319"><ele>997.8000000000001</ele><time>2026-05-02T10:16:11Z</time></trkpt><trkpt lat="42.172261373697594" lon="13.749081787967722"><ele>996.6000000000001</ele><time>2026-05-02T10:16:12Z</time></trkpt><trkpt lat="42.17217230389062" lon="13.749080261906595"><ele>995.4</ele><time>2026-05-02T10:16:13Z</time></trkpt><trkpt lat="42.17206943171281" lon="13.74905145435534"><ele>994.2</ele><time>2026-05-02T10:16:14Z</time></trkpt><trkpt lat="42.171971779013454" lon="13.749017809574267"><ele>993.0</ele><time>2026-05-02T10:16:15Z</time></trkpt><trkpt lat="42.17189034619051" lon="13.74900331960904"><ele>993.0</ele><time>2026-05-02T10:16:16Z</time></trkpt><trkpt lat="42.17182208263675" lon="13.749006308353408"><ele>993.0</ele><time>2026-05-02T10:16:17Z</time></trkpt><trkpt lat="42.17175771954278" lon="13.749005549957195"><ele>993.0</ele><time>2026-05-02T10:16:18Z</time></trkpt><trkpt lat="42.17166758618096" lon="13.748945128522355"><ele>993.0</ele><time>2026-05-02T10:16:20Z</time></trkpt><trkpt lat="42.17162757938187" lon="13.748838135730624"><ele>993.0</ele><time>2026-05-02T10:16:22Z</time></trkpt><trkpt lat="42.17160762790652" lon="13.748744125553745"><ele>993.0</ele><time>2026-05-02T10:16:24Z</time></trkpt><trkpt lat="42.171542564621575" lon="13.748652087583295"><ele>991.8333333333334</ele><time>2026-05-02T10:16:26Z</time></trkpt><trkpt lat="42.17149770662606" lon="13.748544577369776"><ele>990.6666666666667</ele><time>2026-05-02T10:16:28Z</time></trkpt><trkpt lat="42.17146329438859" lon="13.748434283065265"><ele>989.5</ele><time>2026-05-02T10:16:30Z</time></trkpt><trkpt lat="42.17143791912835" lon="13.748326929055319"><ele>988.3333333333334</ele><time>2026-05-02T10:16:31.999Z</time></trkpt><trkpt lat="42.171431970148596" lon="13.74822957228148"><ele>987.1666666666667</ele><time>2026-05-02T10:16:33.999Z</time></trkpt><trkpt lat="42.17148195184368" lon="13.74813364341101"><ele>986.0</ele><time>2026-05-02T10:16:35.999Z</time></trkpt><trkpt lat="42.171553960928556" lon="13.748091563436416"><ele>986.0</ele><time>2026-05-02T10:16:37.999Z</time></trkpt><trkpt lat="42.1716591047632" lon="13.748001519257524"><ele>985.9999999999999</ele><time>2026-05-02T10:16:39.999Z</time></trkpt><trkpt lat="42.171718643819126" lon="13.74793714603798"><ele>985.9999999999999</ele><time>2026-05-02T10:16:40.999Z</time></trkpt><trkpt lat="42.17177094832784" lon="13.747874014925333"><ele>986.0</ele><time>2026-05-02T10:16:41.999Z</time></trkpt><trkpt lat="42.17181561519745" lon="13.74781384442898"><ele>986.0</ele><time>2026-05-02T10:16:42.999Z</time></trkpt><trkpt lat="42.171863558702356" lon="13.747667547557906"><ele>983.0</ele><time>2026-05-02T10:16:44.999Z</time></trkpt><trkpt lat="42.171947549755245" lon="13.747554686239344"><ele>979.9999999999999</ele><time>2026-05-02T10:16:46.999Z</time></trkpt><trkpt lat="42.17201086086732" lon="13.747517645481045"><ele>976.9999999999999</ele><time>2026-05-02T10:16:47.999Z</time></trkpt><trkpt lat="42.17211773283648" lon="13.747480641300948"><ele>974.0</ele><time>2026-05-02T10:16:49.999Z</time></trkpt><trkpt lat="42.17218583774026" lon="13.747396917213766"><ele>971.0</ele><time>2026-05-02T10:16:51.999Z</time></trkpt><trkpt lat="42.17225915717468" lon="13.74732916281656"><ele>971.0000000000001</ele><time>2026-05-02T10:16:53.999Z</time></trkpt><trkpt lat="42.17230768767096" lon="13.747262028438055"><ele>971.0</ele><time>2026-05-02T10:16:55.999Z</time></trkpt><trkpt lat="42.17230849962819" lon="13.747156512609129"><ele>971.0</ele><time>2026-05-02T10:16:57.999Z</time></trkpt><trkpt lat="42.17229978926875" lon="13.74706025272975"><ele>971.0</ele><time>2026-05-02T10:16:59.999Z</time></trkpt><trkpt lat="42.172282301180765" lon="13.746957292503483"><ele>971.0000000000001</ele><time>2026-05-02T10:17:01.999Z</time></trkpt><trkpt lat="42.172241528087994" lon="13.746842150227453"><ele>971.0</ele><time>2026-05-02T10:17:03.999Z</time></trkpt><trkpt lat="42.172185636613065" lon="13.746754325747748"><ele>968.8333333333334</ele><time>2026-05-02T10:17:05.999Z</time></trkpt><trkpt lat="42.172125383817814" lon="13.746665328807465"><ele>966.6666666666667</ele><time>2026-05-02T10:17:07.999Z</time></trkpt><trkpt lat="42.17206169779181" lon="13.746634425475401"><ele>964.5</ele><time>2026-05-02T10:17:09.999Z</time></trkpt><trkpt lat="42.17199661430412" lon="13.746622137027202"><ele>962.3333333333333</ele><time>2026-05-02T10:17:10.999Z</time></trkpt><trkpt lat="42.17187728580381" lon="13.74662714537159"><ele>960.1666666666666</ele><time>2026-05-02T10:17:12.999Z</time></trkpt><trkpt lat="42.171812984080205" lon="13.746628019223095"><ele>958.0</ele><time>2026-05-02T10:17:13.999Z</time></trkpt><trkpt lat="42.17174918370373" lon="13.746617286824689"><ele>957.9999999999999</ele><time>2026-05-02T10:17:14.999Z</time></trkpt><trkpt lat="42.17168241653409" lon="13.746600805999297"><ele>958.0</ele><time>2026-05-02T10:17:15.999Z</time></trkpt><trkpt lat="42.171619324587994" lon="13.746589099113418"><ele>958.0</ele><time>2026-05-02T10:17:16.999Z</time></trkpt><trkpt lat="42.171550067384075" lon="13.746562528217096"><ele>958.0</ele><time>2026-05-02T10:17:17.999Z</time></trkpt><trkpt lat="42.171421023339704" lon="13.746544247533674"><ele>957.9999999999999</ele><time>2026-05-02T10:17:19.999Z</time></trkpt><trkpt lat="42.17135507278335" lon="13.746529549073593"><ele>958.0</ele><time>2026-05-02T10:17:20.999Z</time></trkpt><trkpt lat="42.17128638740728" lon="13.746526942509593"><ele>956.5714285714286</ele><time>2026-05-02T10:17:21.999Z</time></trkpt><trkpt lat="42.171211351467086" lon="13.746536974217733"><ele>955.1428571428571</ele><time>2026-05-02T10:17:22.999Z</time></trkpt><trkpt lat="42.171138315274305" lon="13.746545309600977"><ele>953.7142857142857</ele><time>2026-05-02T10:17:23.999Z</time></trkpt><trkpt lat="42.171063327328106" lon="13.746554232140475"><ele>952.2857142857142</ele><time>2026-05-02T10:17:24.999Z</time></trkpt><trkpt lat="42.17098702037789" lon="13.746571114236588"><ele>950.8571428571429</ele><time>2026-05-02T10:17:25.999Z</time></trkpt><trkpt lat="42.17092019953397" lon="13.746562032956936"><ele>949.4285714285713</ele><time>2026-05-02T10:17:26.999Z</time></trkpt><trkpt lat="42.17084856573061" lon="13.746542501652101"><ele>947.9999999999999</ele><time>2026-05-02T10:17:27.999Z</time></trkpt><trkpt lat="42.17072048814789" lon="13.746552466493096"><ele>946.0</ele><time>2026-05-02T10:17:29.999Z</time></trkpt><trkpt lat="42.17064790657756" lon="13.746608553779362"><ele>944.0</ele><time>2026-05-02T10:17:31Z</time></trkpt><trkpt lat="42.17055667825729" lon="13.746672054074326"><ele>942.0</ele><time>2026-05-02T10:17:32Z</time></trkpt><trkpt lat="42.17046880545254" lon="13.746720051137713"><ele>940.0</ele><time>2026-05-02T10:17:33Z</time></trkpt><trkpt lat="42.17039571497671" lon="13.746767746760264"><ele>938.0</ele><time>2026-05-02T10:17:34Z</time></trkpt><trkpt lat="42.17031706096518" lon="13.746848646203706"><ele>940.0000000000001</ele><time>2026-05-02T10:17:35Z</time></trkpt><trkpt lat="42.17024539494591" lon="13.746932740152214"><ele>942.0</ele><time>2026-05-02T10:17:36Z</time></trkpt><trkpt lat="42.170178257448434" lon="13.747011270732148"><ele>944.0</ele><time>2026-05-02T10:17:37Z</time></trkpt><trkpt lat="42.17010662162906" lon="13.747089013774875"><ele>946.0</ele><time>2026-05-02T10:17:38Z</time></trkpt><trkpt lat="42.17003944078681" lon="13.747142848342909"><ele>948.0000000000001</ele><time>2026-05-02T10:17:39Z</time></trkpt><trkpt lat="42.1699702439382" lon="13.747171369204802"><ele>950.0</ele><time>2026-05-02T10:17:40Z</time></trkpt><trkpt lat="42.16990346076525" lon="13.747168966700952"><ele>950.5000000000001</ele><time>2026-05-02T10:17:41Z</time></trkpt><trkpt lat="42.169837254216986" lon="13.747136892891868"><ele>951.0</ele><time>2026-05-02T10:17:42Z</time></trkpt><trkpt lat="42.16975651152945" lon="13.747072325908015"><ele>951.5</ele><time>2026-05-02T10:17:43Z</time></trkpt><trkpt lat="42.16966502191599" lon="13.74707191224343"><ele>952.0</ele><time>2026-05-02T10:17:45Z</time></trkpt><trkpt lat="42.16960344969819" lon="13.747134749840502"><ele>952.5000000000001</ele><time>2026-05-02T10:17:46Z</time></trkpt><trkpt lat="42.16954851853941" lon="13.747225576067185"><ele>953.0</ele><time>2026-05-02T10:17:47Z</time></trkpt><trkpt lat="42.16951203414584" lon="13.747340644592414"><ele>953.0</ele><time>2026-05-02T10:17:48Z</time></trkpt><trkpt lat="42.16948261996428" lon="13.747459818352041"><ele>953.0</ele><time>2026-05-02T10:17:49Z</time></trkpt><trkpt lat="42.16944518837846" lon="13.747564531611477"><ele>953.0</ele><time>2026-05-02T10:17:50Z</time></trkpt><trkpt lat="42.169403174413766" lon="13.747637389248446"><ele>953.0</ele><time>2026-05-02T10:17:51Z</time></trkpt><trkpt lat="42.16928014850449" lon="13.747682169078802"><ele>953.0</ele><time>2026-05-02T10:17:53Z</time></trkpt><trkpt lat="42.169188799670906" lon="13.74765237782341"><ele>953.0</ele><time>2026-05-02T10:17:54Z</time></trkpt><trkpt lat="42.16908419878441" lon="13.747667404487322"><ele>953.0</ele><time>2026-05-02T10:17:55Z</time></trkpt><trkpt lat="42.168982189590764" lon="13.747718392097154"><ele>953.0</ele><time>2026-05-02T10:17:56Z</time></trkpt><trkpt lat="42.16887118558032" lon="13.747769455684717"><ele>953.0</ele><time>2026-05-02T10:17:57Z</time></trkpt><trkpt lat="42.168769527898526" lon="13.747825181020614"><ele>953.0</ele><time>2026-05-02T10:17:58Z</time></trkpt><trkpt lat="42.16867706053836" lon="13.747856338707365"><ele>956.3333333333334</ele><time>2026-05-02T10:17:59Z</time></trkpt><trkpt lat="42.16857835132385" lon="13.747860497821499"><ele>959.6666666666667</ele><time>2026-05-02T10:18:00Z</time></trkpt><trkpt lat="42.16849589652782" lon="13.747840614200165"><ele>963.0</ele><time>2026-05-02T10:18:01Z</time></trkpt><trkpt lat="42.1684207202209" lon="13.747827447657189"><ele>966.3333333333333</ele><time>2026-05-02T10:18:02Z</time></trkpt><trkpt lat="42.16834931565246" lon="13.74782573526306"><ele>969.6666666666666</ele><time>2026-05-02T10:18:03Z</time></trkpt><trkpt lat="42.16828768821302" lon="13.747859543162852"><ele>973.0</ele><time>2026-05-02T10:18:04Z</time></trkpt><trkpt lat="42.168231651662474" lon="13.747936904613423"><ele>972.2</ele><time>2026-05-02T10:18:05Z</time></trkpt><trkpt lat="42.168170410942125" lon="13.748030986042933"><ele>971.4</ele><time>2026-05-02T10:18:06Z</time></trkpt><trkpt lat="42.168096828856726" lon="13.748116577423712"><ele>970.6000000000001</ele><time>2026-05-02T10:18:07Z</time></trkpt><trkpt lat="42.16802223267367" lon="13.748198824471762"><ele>969.8000000000001</ele><time>2026-05-02T10:18:08Z</time></trkpt><trkpt lat="42.1679560427605" lon="13.748279477259459"><ele>969.0</ele><time>2026-05-02T10:18:09Z</time></trkpt><trkpt lat="42.167883976789184" lon="13.748348088282947"><ele>969.0</ele><time>2026-05-02T10:18:10Z</time></trkpt><trkpt lat="42.16780252751331" lon="13.748412429148129"><ele>969.0</ele><time>2026-05-02T10:18:11Z</time></trkpt><trkpt lat="42.16772260342373" lon="13.748468029790176"><ele>969.0</ele><time>2026-05-02T10:18:12Z</time></trkpt><trkpt lat="42.16765624889502" lon="13.748515797791676"><ele>969.0</ele><time>2026-05-02T10:18:13Z</time></trkpt><trkpt lat="42.1675963279134" lon="13.748565307835598"><ele>969.0</ele><time>2026-05-02T10:18:14Z</time></trkpt><trkpt lat="42.16754038941547" lon="13.74864620793505"><ele>969.0</ele><time>2026-05-02T10:18:15Z</time></trkpt><trkpt lat="42.1674756774695" lon="13.748759933707138"><ele>967.75</ele><time>2026-05-02T10:18:16Z</time></trkpt><trkpt lat="42.167398267157154" lon="13.748913283459268"><ele>966.5</ele><time>2026-05-02T10:18:17Z</time></trkpt><trkpt lat="42.167310250757595" lon="13.749068578393057"><ele>965.25</ele><time>2026-05-02T10:18:18Z</time></trkpt><trkpt lat="42.16723262288994" lon="13.749201111159412"><ele>964.0</ele><time>2026-05-02T10:18:19Z</time></trkpt><trkpt lat="42.16715349390585" lon="13.749334700896163"><ele>966.4000000000001</ele><time>2026-05-02T10:18:20Z</time></trkpt><trkpt lat="42.167083526041544" lon="13.749462988125218"><ele>968.8000000000001</ele><time>2026-05-02T10:18:21Z</time></trkpt><trkpt lat="42.167020759553644" lon="13.749569735916442"><ele>971.1999999999999</ele><time>2026-05-02T10:18:22Z</time></trkpt><trkpt lat="42.16696916525453" lon="13.749667413950476"><ele>973.5999999999999</ele><time>2026-05-02T10:18:23Z</time></trkpt><trkpt lat="42.166920937742695" lon="13.749764783037245"><ele>976.0</ele><time>2026-05-02T10:18:24Z</time></trkpt><trkpt lat="42.16688532485667" lon="13.749864610818591"><ele>976.0</ele><time>2026-05-02T10:18:25Z</time></trkpt><trkpt lat="42.166857008886026" lon="13.749970328370662"><ele>975.9999999999999</ele><time>2026-05-02T10:18:26Z</time></trkpt><trkpt lat="42.16683242317331" lon="13.75008885283441"><ele>975.9999999999999</ele><time>2026-05-02T10:18:27Z</time></trkpt><trkpt lat="42.166810705546254" lon="13.750214618503755"><ele>976.0</ele><time>2026-05-02T10:18:28Z</time></trkpt><trkpt lat="42.166791333632226" lon="13.750345101149097"><ele>976.0</ele><time>2026-05-02T10:18:29Z</time></trkpt><trkpt lat="42.16677990642317" lon="13.7504854936514"><ele>977.8</ele><time>2026-05-02T10:18:30Z</time></trkpt><trkpt lat="42.16676456966164" lon="13.750634826469629"><ele>979.5999999999999</ele><time>2026-05-02T10:18:31Z</time></trkpt><trkpt lat="42.16674948096015" lon="13.750778066602189"><ele>981.4</ele><time>2026-05-02T10:18:32Z</time></trkpt><trkpt lat="42.16673208049979" lon="13.750920784103723"><ele>983.2</ele><time>2026-05-02T10:18:32.999Z</time></trkpt><trkpt lat="42.166708513724245" lon="13.751064612180583"><ele>985.0</ele><time>2026-05-02T10:18:33.999Z</time></trkpt><trkpt lat="42.16668659757429" lon="13.751209727682095"><ele>986.2</ele><time>2026-05-02T10:18:34.999Z</time></trkpt><trkpt lat="42.16666220430277" lon="13.751335530725527"><ele>987.4</ele><time>2026-05-02T10:18:35.999Z</time></trkpt><trkpt lat="42.16664304259277" lon="13.751458235130569"><ele>988.5999999999999</ele><time>2026-05-02T10:18:36.999Z</time></trkpt><trkpt lat="42.16663057433686" lon="13.751604652840927"><ele>989.8</ele><time>2026-05-02T10:18:37.999Z</time></trkpt><trkpt lat="42.166634755113385" lon="13.751747733604805"><ele>991.0</ele><time>2026-05-02T10:18:38.999Z</time></trkpt><trkpt lat="42.16664945626847" lon="13.751881056106829"><ele>993.1999999999999</ele><time>2026-05-02T10:18:39.999Z</time></trkpt><trkpt lat="42.166666847126" lon="13.752002560108183"><ele>995.3999999999999</ele><time>2026-05-02T10:18:40.999Z</time></trkpt><trkpt lat="42.16667628474271" lon="13.75212776888658"><ele>997.6</ele><time>2026-05-02T10:18:41.999Z</time></trkpt><trkpt lat="42.166668178737226" lon="13.752260801269722"><ele>999.8</ele><time>2026-05-02T10:18:42.999Z</time></trkpt><trkpt lat="42.16665285980432" lon="13.752397038806809"><ele>1002.0</ele><time>2026-05-02T10:18:43.999Z</time></trkpt><trkpt lat="42.16663388385524" lon="13.752514082674812"><ele>1002.0</ele><time>2026-05-02T10:18:44.999Z</time></trkpt><trkpt lat="42.16660090247134" lon="13.752624320478649"><ele>1002.0</ele><time>2026-05-02T10:18:45.999Z</time></trkpt><trkpt lat="42.16655757002864" lon="13.752733238430272"><ele>1002.0</ele><time>2026-05-02T10:18:46.999Z</time></trkpt><trkpt lat="42.16650483439154" lon="13.752827664308528"><ele>1002.0</ele><time>2026-05-02T10:18:47.999Z</time></trkpt><trkpt lat="42.16645158443776" lon="13.75289099838339"><ele>1002.0</ele><time>2026-05-02T10:18:48.999Z</time></trkpt><trkpt lat="42.16637160735934" lon="13.752944917843552"><ele>1002.0</ele><time>2026-05-02T10:18:49.999Z</time></trkpt><trkpt lat="42.166285082698344" lon="13.752998140219054"><ele>1005.0</ele><time>2026-05-02T10:18:50.999Z</time></trkpt><trkpt lat="42.166224574410045" lon="13.753051733587963"><ele>1008.0</ele><time>2026-05-02T10:18:51.999Z</time></trkpt><trkpt lat="42.16618397209753" lon="13.753117419980208"><ele>1011.0</ele><time>2026-05-02T10:18:52.999Z</time></trkpt><trkpt lat="42.166161841453096" lon="13.753200036419935"><ele>1014.0</ele><time>2026-05-02T10:18:53.999Z</time></trkpt><trkpt lat="42.16616431988543" lon="13.75330040741108"><ele>1017.0</ele><time>2026-05-02T10:18:54.999Z</time></trkpt><trkpt lat="42.16618963178665" lon="13.753496549920222"><ele>1020.0</ele><time>2026-05-02T10:18:56.999Z</time></trkpt><trkpt lat="42.1661664353445" lon="13.753662189016511"><ele>1020.0</ele><time>2026-05-02T10:18:57.999Z</time></trkpt><trkpt lat="42.16613611667482" lon="13.753840641180647"><ele>1020.0</ele><time>2026-05-02T10:18:58.999Z</time></trkpt><trkpt lat="42.16609352791881" lon="13.754007649829145"><ele>1020.0</ele><time>2026-05-02T10:18:59.999Z</time></trkpt><trkpt lat="42.16607122216792" lon="13.754146668199423"><ele>1020.0</ele><time>2026-05-02T10:19:00.999Z</time></trkpt><trkpt lat="42.166062492803775" lon="13.754287470769523"><ele>1020.75</ele><time>2026-05-02T10:19:01.999Z</time></trkpt><trkpt lat="42.16606714593481" lon="13.754458878681847"><ele>1021.5</ele><time>2026-05-02T10:19:02.999Z</time></trkpt><trkpt lat="42.16608490207234" lon="13.754639422071795"><ele>1022.25</ele><time>2026-05-02T10:19:03.999Z</time></trkpt><trkpt lat="42.16610380423249" lon="13.754784476381516"><ele>1023.0</ele><time>2026-05-02T10:19:04.999Z</time></trkpt><trkpt lat="42.166116543262426" lon="13.754927986755513"><ele>1023.0</ele><time>2026-05-02T10:19:05.999Z</time></trkpt><trkpt lat="42.16611792361336" lon="13.755045988368321"><ele>1023.0</ele><time>2026-05-02T10:19:06.999Z</time></trkpt><trkpt lat="42.166112902645025" lon="13.755134609714975"><ele>1023.0</ele><time>2026-05-02T10:19:08.999Z</time></trkpt><trkpt lat="42.16609916326252" lon="13.755040907497444"><ele>1023.0</ele><time>2026-05-02T10:19:39Z</time></trkpt><trkpt lat="42.16615840035333" lon="13.754935335873595"><ele>1023.0</ele><time>2026-05-02T10:19:46Z</time></trkpt><trkpt lat="42.16620306267682" lon="13.754836023676619"><ele>1023.0</ele><time>2026-05-02T10:19:48Z</time></trkpt><trkpt lat="42.16622711869929" lon="13.754739084860194"><ele>1023.0</ele><time>2026-05-02T10:19:50Z</time></trkpt><trkpt lat="42.16625930605615" lon="13.75460906454365"><ele>1023.0</ele><time>2026-05-02T10:19:52Z</time></trkpt><trkpt lat="42.16630369280916" lon="13.754535107698846"><ele>1023.0</ele><time>2026-05-02T10:19:54Z</time></trkpt><trkpt lat="42.166345892531645" lon="13.754436813238497"><ele>1023.0</ele><time>2026-05-02T10:19:56Z</time></trkpt><trkpt lat="42.16636681694987" lon="13.754321544025856"><ele>1023.0</ele><time>2026-05-02T10:19:58Z</time></trkpt><trkpt lat="42.16635024654157" lon="13.754237811024412"><ele>1023.0</ele><time>2026-05-02T10:20:00Z</time></trkpt><trkpt lat="42.166347921531084" lon="13.754147038960477"><ele>1022.5</ele><time>2026-05-02T10:20:04Z</time></trkpt><trkpt lat="42.16640730123813" lon="13.754046741479609"><ele>1022.0</ele><time>2026-05-02T10:20:07Z</time></trkpt><trkpt lat="42.16645154673773" lon="13.753929504628104"><ele>1021.5</ele><time>2026-05-02T10:20:09Z</time></trkpt><trkpt lat="42.1664980040856" lon="13.753842529404114"><ele>1021.0</ele><time>2026-05-02T10:20:12Z</time></trkpt><trkpt lat="42.16652822218802" lon="13.753767496400057"><ele>1020.5</ele><time>2026-05-02T10:20:18Z</time></trkpt><trkpt lat="42.16657144177159" lon="13.753701184532607"><ele>1020.0</ele><time>2026-05-02T10:20:21Z</time></trkpt><trkpt lat="42.166634253332774" lon="13.753674422994415"><ele>1019.5</ele><time>2026-05-02T10:20:50.999Z</time></trkpt><trkpt lat="42.166714034066935" lon="13.753636939662448"><ele>1019.0</ele><time>2026-05-02T10:20:53.999Z</time></trkpt><trkpt lat="42.16677044304213" lon="13.753590809701118"><ele>1018.5</ele><time>2026-05-02T10:20:55.999Z</time></trkpt><trkpt lat="42.166834008371225" lon="13.75354813526579"><ele>1018.0</ele><time>2026-05-02T10:21:11.999Z</time></trkpt><trkpt lat="42.16689388297699" lon="13.75346544185485"><ele>1017.5</ele><time>2026-05-02T10:21:15.999Z</time></trkpt><trkpt lat="42.16694265593454" lon="13.75340999627633"><ele>1017.0</ele><time>2026-05-02T10:21:16.999Z</time></trkpt><trkpt lat="42.16701564010222" lon="13.753307736889733"><ele>1017.0</ele><time>2026-05-02T10:21:18.999Z</time></trkpt><trkpt lat="42.16709145901506" lon="13.75325003507083"><ele>1016.9999999999999</ele><time>2026-05-02T10:21:20.999Z</time></trkpt><trkpt lat="42.167161797938306" lon="13.753219063659206"><ele>1017.0</ele><time>2026-05-02T10:21:22.999Z</time></trkpt><trkpt lat="42.16721782911633" lon="13.753171366538721"><ele>1017.0</ele><time>2026-05-02T10:21:27.999Z</time></trkpt><trkpt lat="42.16726561465942" lon="13.753109496260148"><ele>1016.9999999999999</ele><time>2026-05-02T10:21:32.999Z</time></trkpt><trkpt lat="42.16732291662781" lon="13.753068897175948"><ele>1017.0</ele><time>2026-05-02T10:21:34.999Z</time></trkpt><trkpt lat="42.16737262977122" lon="13.75301302674468"><ele>1017.0</ele><time>2026-05-02T10:21:36.999Z</time></trkpt><trkpt lat="42.16743597624063" lon="13.752971007747567"><ele>1016.5</ele><time>2026-05-02T10:21:38.999Z</time></trkpt><trkpt lat="42.167573245567205" lon="13.752804351093937"><ele>1016.0</ele><time>2026-05-02T10:21:41.999Z</time></trkpt><trkpt lat="42.16764032361041" lon="13.752727527503623"><ele>1015.5</ele><time>2026-05-02T10:21:44Z</time></trkpt><trkpt lat="42.167737680587486" lon="13.752675865983553"><ele>1015.0</ele><time>2026-05-02T10:21:46Z</time></trkpt><trkpt lat="42.167811821058116" lon="13.752611942831008"><ele>1015.0</ele><time>2026-05-02T10:21:48Z</time></trkpt><trkpt lat="42.167880828142" lon="13.75252022735522"><ele>1015.0</ele><time>2026-05-02T10:21:50Z</time></trkpt><trkpt lat="42.167958304448995" lon="13.752418394073713"><ele>1015.0</ele><time>2026-05-02T10:21:52Z</time></trkpt><trkpt lat="42.16805236167805" lon="13.752343322700911"><ele>1015.0</ele><time>2026-05-02T10:21:54Z</time></trkpt><trkpt lat="42.16814477895099" lon="13.752310042768084"><ele>1015.0</ele><time>2026-05-02T10:21:56Z</time></trkpt><trkpt lat="42.16820712166779" lon="13.752288370891852"><ele>1017.4999999999999</ele><time>2026-05-02T10:21:57Z</time></trkpt><trkpt lat="42.16828985452601" lon="13.752284261248377"><ele>1020.0</ele><time>2026-05-02T10:21:59Z</time></trkpt><trkpt lat="42.16837287818262" lon="13.75227393504831"><ele>1022.5</ele><time>2026-05-02T10:22:01Z</time></trkpt><trkpt lat="42.16845328864097" lon="13.752278564762833"><ele>1025.0</ele><time>2026-05-02T10:22:04Z</time></trkpt><trkpt lat="42.16852398605519" lon="13.752265493674132"><ele>1027.5</ele><time>2026-05-02T10:22:06Z</time></trkpt><trkpt lat="42.16860785184309" lon="13.752333390641438"><ele>1030.0</ele><time>2026-05-02T10:22:08Z</time></trkpt><trkpt lat="42.16871440606125" lon="13.75241676270008"><ele>1030.0</ele><time>2026-05-02T10:22:10Z</time></trkpt><trkpt lat="42.1687772397813" lon="13.752439762216488"><ele>1030.0</ele><time>2026-05-02T10:22:11Z</time></trkpt><trkpt lat="42.16884182128165" lon="13.752455724221074"><ele>1030.0</ele><time>2026-05-02T10:22:12Z</time></trkpt><trkpt lat="42.16894061954481" lon="13.75245560143127"><ele>1030.0</ele><time>2026-05-02T10:22:14Z</time></trkpt><trkpt lat="42.1690198407171" lon="13.752449051546167"><ele>1030.0</ele><time>2026-05-02T10:22:18Z</time></trkpt><trkpt lat="42.16909870243691" lon="13.752425080240524"><ele>1030.0</ele><time>2026-05-02T10:22:20Z</time></trkpt><trkpt lat="42.169170222824285" lon="13.752396087861293"><ele>1029.2857142857142</ele><time>2026-05-02T10:22:23Z</time></trkpt><trkpt lat="42.16923149151268" lon="13.752372854408163"><ele>1028.5714285714284</ele><time>2026-05-02T10:22:56.999Z</time></trkpt><trkpt lat="42.169293058195656" lon="13.752394748338215"><ele>1027.8571428571427</ele><time>2026-05-02T10:24:25Z</time></trkpt><trkpt lat="42.16936266570237" lon="13.752393970905713"><ele>1027.142857142857</ele><time>2026-05-02T10:25:10.999Z</time></trkpt><trkpt lat="42.16942776540705" lon="13.752366239760626"><ele>1026.4285714285713</ele><time>2026-05-02T10:25:15.999Z</time></trkpt><trkpt lat="42.16949658134932" lon="13.752354845696688"><ele>1025.7142857142856</ele><time>2026-05-02T10:27:20.999Z</time></trkpt><trkpt lat="42.1695723388823" lon="13.752357884018824"><ele>1025.0</ele><time>2026-05-02T10:28:01Z</time></trkpt><trkpt lat="42.16964173735512" lon="13.752370856425301"><ele>1025.0</ele><time>2026-05-02T10:28:04Z</time></trkpt><trkpt lat="42.16972279924086" lon="13.752385031099095"><ele>1025.0</ele><time>2026-05-02T10:28:07Z</time></trkpt><trkpt lat="42.16978838804708" lon="13.752427270629399"><ele>1025.0</ele><time>2026-05-02T10:30:24Z</time></trkpt><trkpt lat="42.16986801277491" lon="13.752382773704344"><ele>1025.0</ele><time>2026-05-02T10:30:26Z</time></trkpt><trkpt lat="42.169958474014514" lon="13.752347931957315"><ele>1025.0</ele><time>2026-05-02T10:30:28Z</time></trkpt><trkpt lat="42.170045164123586" lon="13.752325869234019"><ele>1025.0</ele><time>2026-05-02T10:30:30Z</time></trkpt><trkpt lat="42.170121583244516" lon="13.752313567599984"><ele>1020.6</ele><time>2026-05-02T10:30:32Z</time></trkpt><trkpt lat="42.170189514069044" lon="13.752310962849208"><ele>1016.2</ele><time>2026-05-02T10:30:34Z</time></trkpt><trkpt lat="42.170283883360085" lon="13.752323713683912"><ele>1011.8</ele><time>2026-05-02T10:30:36Z</time></trkpt><trkpt lat="42.170409394587246" lon="13.752354177056079"><ele>1007.4</ele><time>2026-05-02T10:30:38Z</time></trkpt><trkpt lat="42.170492595697084" lon="13.752382355853891"><ele>1003.0</ele><time>2026-05-02T10:30:39Z</time></trkpt><trkpt lat="42.170572914772826" lon="13.752412799561776"><ele>1003.0</ele><time>2026-05-02T10:30:39.999Z</time></trkpt><trkpt lat="42.17063980818337" lon="13.752440448590264"><ele>1003.0</ele><time>2026-05-02T10:30:40.999Z</time></trkpt><trkpt lat="42.170766662167104" lon="13.75250578954165"><ele>1003.0</ele><time>2026-05-02T10:30:42.999Z</time></trkpt><trkpt lat="42.170863568836296" lon="13.752540957817464"><ele>1003.0</ele><time>2026-05-02T10:30:44.999Z</time></trkpt><trkpt lat="42.17096029013702" lon="13.752577890993178"><ele>1003.0</ele><time>2026-05-02T10:30:46.999Z</time></trkpt><trkpt lat="42.17107782296963" lon="13.752595949364876"><ele>1002.2</ele><time>2026-05-02T10:30:48.999Z</time></trkpt><trkpt lat="42.17115210844588" lon="13.752658590222218"><ele>1001.4</ele><time>2026-05-02T10:30:50.999Z</time></trkpt><trkpt lat="42.17116316849964" lon="13.752765062136575"><ele>1000.6000000000001</ele><time>2026-05-02T10:30:52.999Z</time></trkpt><trkpt lat="42.1711120276097" lon="13.752895905764815"><ele>999.8000000000001</ele><time>2026-05-02T10:30:54.999Z</time></trkpt><trkpt lat="42.17102768777331" lon="13.752987810537121"><ele>999.0</ele><time>2026-05-02T10:30:56.999Z</time></trkpt><trkpt lat="42.17094671781767" lon="13.753115012513476"><ele>999.0</ele><time>2026-05-02T10:30:58.999Z</time></trkpt><trkpt lat="42.17091609093819" lon="13.753208122152458"><ele>999.0</ele><time>2026-05-02T10:30:59.999Z</time></trkpt><trkpt lat="42.170872547654156" lon="13.753301036805428"><ele>999.0</ele><time>2026-05-02T10:31:00.999Z</time></trkpt><trkpt lat="42.17082004643906" lon="13.75338798763746"><ele>999.0</ele><time>2026-05-02T10:31:01.999Z</time></trkpt><trkpt lat="42.170769304590216" lon="13.753456557490018"><ele>999.0</ele><time>2026-05-02T10:31:02.999Z</time></trkpt><trkpt lat="42.17071189884565" lon="13.753588575441144"><ele>999.0</ele><time>2026-05-02T10:31:04.999Z</time></trkpt><trkpt lat="42.170710344530434" lon="13.753695738097447"><ele>1000.6</ele><time>2026-05-02T10:31:05.999Z</time></trkpt><trkpt lat="42.1707094048602" lon="13.753846935302576"><ele>1002.2</ele><time>2026-05-02T10:31:06.999Z</time></trkpt><trkpt lat="42.17070173203095" lon="13.753971703371139"><ele>1003.8000000000001</ele><time>2026-05-02T10:31:07.999Z</time></trkpt><trkpt lat="42.17069601500616" lon="13.754070179769254"><ele>1005.4000000000001</ele><time>2026-05-02T10:31:08.999Z</time></trkpt><trkpt lat="42.17068290542025" lon="13.754220702539149"><ele>1007.0</ele><time>2026-05-02T10:31:10.999Z</time></trkpt><trkpt lat="42.17062948532323" lon="13.754278029548107"><ele>1008.2</ele><time>2026-05-02T10:31:15.999Z</time></trkpt><trkpt lat="42.170599157488" lon="13.754421306775564"><ele>1009.4000000000001</ele><time>2026-05-02T10:31:17.999Z</time></trkpt><trkpt lat="42.170501461513766" lon="13.75454177465293"><ele>1010.5999999999999</ele><time>2026-05-02T10:31:19.999Z</time></trkpt><trkpt lat="42.1704454052801" lon="13.754660263887315"><ele>1011.8</ele><time>2026-05-02T10:31:21.999Z</time></trkpt><trkpt lat="42.170429186869555" lon="13.754788623283691"><ele>1013.0</ele><time>2026-05-02T10:31:24.999Z</time></trkpt><trkpt lat="42.17043033315902" lon="13.754934415208144"><ele>1013.0000000000001</ele><time>2026-05-02T10:31:25.999Z</time></trkpt><trkpt lat="42.17044531958631" lon="13.755021889411159"><ele>1013.0</ele><time>2026-05-02T10:31:50.999Z</time></trkpt><trkpt lat="42.170444706220515" lon="13.755140154464009"><ele>1013.0</ele><time>2026-05-02T10:31:52.999Z</time></trkpt><trkpt lat="42.17046475988559" lon="13.755276367783171"><ele>1013.0</ele><time>2026-05-02T10:31:54.999Z</time></trkpt><trkpt lat="42.17047135464822" lon="13.75538964789575"><ele>1013.0000000000001</ele><time>2026-05-02T10:31:56.999Z</time></trkpt><trkpt lat="42.17045247820889" lon="13.755490022158003"><ele>1013.0</ele><time>2026-05-02T10:31:58.999Z</time></trkpt><trkpt lat="42.17043980787336" lon="13.755601813749932"><ele>1012.5000000000001</ele><time>2026-05-02T10:32:00.999Z</time></trkpt><trkpt lat="42.17042317556778" lon="13.755708100703416"><ele>1012.0</ele><time>2026-05-02T10:32:02.999Z</time></trkpt><trkpt lat="42.17040027015867" lon="13.755801561596055"><ele>1011.5</ele><time>2026-05-02T10:32:05.998Z</time></trkpt><trkpt lat="42.17041244418234" lon="13.755914544611677"><ele>1011.0</ele><time>2026-05-02T10:32:08.998Z</time></trkpt><trkpt lat="42.170398258501464" lon="13.756003818486384"><ele>1010.5000000000001</ele><time>2026-05-02T10:32:12Z</time></trkpt><trkpt lat="42.17041776292911" lon="13.756086176187502"><ele>1010.0</ele><time>2026-05-02T10:32:14Z</time></trkpt><trkpt lat="42.170427131346536" lon="13.756201342774311"><ele>1007.8333333333334</ele><time>2026-05-02T10:32:16Z</time></trkpt><trkpt lat="42.17044636772902" lon="13.756336866820732"><ele>1005.6666666666667</ele><time>2026-05-02T10:32:18Z</time></trkpt><trkpt lat="42.17046873734298" lon="13.756453534191897"><ele>1003.5</ele><time>2026-05-02T10:32:20Z</time></trkpt><trkpt lat="42.170465635346424" lon="13.756548050948467"><ele>1001.3333333333333</ele><time>2026-05-02T10:32:22Z</time></trkpt><trkpt lat="42.17044937162221" lon="13.756650418976898"><ele>999.1666666666666</ele><time>2026-05-02T10:32:24Z</time></trkpt><trkpt lat="42.170426955567855" lon="13.756734867761047"><ele>997.0</ele><time>2026-05-02T10:32:26Z</time></trkpt><trkpt lat="42.17044414087749" lon="13.756884133442396"><ele>994.6</ele><time>2026-05-02T10:32:28Z</time></trkpt><trkpt lat="42.17046457886618" lon="13.757025406834254"><ele>992.2</ele><time>2026-05-02T10:32:30Z</time></trkpt><trkpt lat="42.17047450091957" lon="13.757148630862186"><ele>989.8</ele><time>2026-05-02T10:32:32Z</time></trkpt><trkpt lat="42.170459140727104" lon="13.757298231249724"><ele>987.4</ele><time>2026-05-02T10:32:35Z</time></trkpt><trkpt lat="42.1704465988776" lon="13.75739825950332"><ele>985.0</ele><time>2026-05-02T10:32:38Z</time></trkpt><trkpt lat="42.170456194322995" lon="13.757483972219145"><ele>984.9999999999999</ele><time>2026-05-02T10:32:41Z</time></trkpt><trkpt lat="42.170487846035314" lon="13.757568410548767"><ele>985.0</ele><time>2026-05-02T10:32:43.999Z</time></trkpt><trkpt lat="42.170467494807" lon="13.757706940855346"><ele>985.0</ele><time>2026-05-02T10:33:30.999Z</time></trkpt><trkpt lat="42.17051297937242" lon="13.757769817871266"><ele>985.0</ele><time>2026-05-02T10:33:33.999Z</time></trkpt><trkpt lat="42.170556489020534" lon="13.757870772727133"><ele>984.9999999999999</ele><time>2026-05-02T10:33:35.999Z</time></trkpt><trkpt lat="42.170597881362085" lon="13.757943096502132"><ele>985.0</ele><time>2026-05-02T10:33:47.999Z</time></trkpt><trkpt lat="42.170696611776606" lon="13.757948286058667"><ele>982.2</ele><time>2026-05-02T10:33:49.999Z</time></trkpt><trkpt lat="42.17079419329159" lon="13.75798496234561"><ele>979.4</ele><time>2026-05-02T10:33:51.999Z</time></trkpt><trkpt lat="42.17088915821722" lon="13.758008209193003"><ele>976.5999999999999</ele><time>2026-05-02T10:33:53.999Z</time></trkpt><trkpt lat="42.1709571326533" lon="13.758049232334425"><ele>973.8</ele><time>2026-05-02T10:33:56.999Z</time></trkpt><trkpt lat="42.17102313881698" lon="13.758100708921727"><ele>971.0</ele><time>2026-05-02T10:34:00.999Z</time></trkpt><trkpt lat="42.17114197236434" lon="13.75819813205392"><ele>971.0</ele><time>2026-05-02T10:34:06.998Z</time></trkpt><trkpt lat="42.171211862121" lon="13.758295945266527"><ele>970.9999999999999</ele><time>2026-05-02T10:34:08.998Z</time></trkpt><trkpt lat="42.1712875136718" lon="13.758351031141492"><ele>970.9999999999999</ele><time>2026-05-02T10:34:10.998Z</time></trkpt><trkpt lat="42.17136727649091" lon="13.758441588993243"><ele>971.0</ele><time>2026-05-02T10:34:12.998Z</time></trkpt><trkpt lat="42.17144556276724" lon="13.758520762472845"><ele>971.0</ele><time>2026-05-02T10:34:14.998Z</time></trkpt><trkpt lat="42.17153091038653" lon="13.758557802225267"><ele>967.6666666666667</ele><time>2026-05-02T10:34:18Z</time></trkpt><trkpt lat="42.17160670310632" lon="13.758557581467844"><ele>964.3333333333334</ele><time>2026-05-02T10:34:23Z</time></trkpt><trkpt lat="42.171673232150745" lon="13.758574834311288"><ele>961.0</ele><time>2026-05-02T10:34:24Z</time></trkpt><trkpt lat="42.17172814496032" lon="13.758621747769295"><ele>957.6666666666667</ele><time>2026-05-02T10:34:26Z</time></trkpt><trkpt lat="42.171750295824374" lon="13.758722848128256"><ele>954.3333333333334</ele><time>2026-05-02T10:34:29Z</time></trkpt><trkpt lat="42.17177779112968" lon="13.758824566934159"><ele>951.0</ele><time>2026-05-02T10:34:33Z</time></trkpt><trkpt lat="42.1718303711538" lon="13.75892287684677"><ele>951.0</ele><time>2026-05-02T10:34:35Z</time></trkpt><trkpt lat="42.1718513566222" lon="13.759027507417972"><ele>951.0</ele><time>2026-05-02T10:34:37Z</time></trkpt><trkpt lat="42.17184956844652" lon="13.759123523580344"><ele>951.0</ele><time>2026-05-02T10:34:39Z</time></trkpt><trkpt lat="42.17182666432607" lon="13.759212319060047"><ele>951.0</ele><time>2026-05-02T10:34:55.999Z</time></trkpt><trkpt lat="42.17184298024049" lon="13.759306742425954"><ele>951.0</ele><time>2026-05-02T10:34:57.999Z</time></trkpt><trkpt lat="42.17185375466268" lon="13.759420230937224"><ele>951.0</ele><time>2026-05-02T10:35:00.999Z</time></trkpt><trkpt lat="42.171894385440304" lon="13.759537857000453"><ele>950.4285714285713</ele><time>2026-05-02T10:35:03.999Z</time></trkpt><trkpt lat="42.171912687015336" lon="13.759653692488644"><ele>949.8571428571429</ele><time>2026-05-02T10:35:06.999Z</time></trkpt><trkpt lat="42.17195365702389" lon="13.759735702334515"><ele>949.2857142857142</ele><time>2026-05-02T10:35:08.999Z</time></trkpt><trkpt lat="42.17197829220951" lon="13.759819151951916"><ele>948.7142857142857</ele><time>2026-05-02T10:35:11.999Z</time></trkpt><trkpt lat="42.17202292275782" lon="13.759892463153992"><ele>948.1428571428571</ele><time>2026-05-02T10:35:13.999Z</time></trkpt><trkpt lat="42.17203982363446" lon="13.759974475260812"><ele>947.5714285714286</ele><time>2026-05-02T10:35:16.999Z</time></trkpt><trkpt lat="42.1720746109019" lon="13.760052699005703"><ele>947.0</ele><time>2026-05-02T10:35:21.999Z</time></trkpt><trkpt lat="42.17209990893499" lon="13.76014077306948"><ele>947.0000000000001</ele><time>2026-05-02T10:35:43.999Z</time></trkpt><trkpt lat="42.17216615798192" lon="13.760178958287993"><ele>947.0</ele><time>2026-05-02T10:35:47.999Z</time></trkpt><trkpt lat="42.17221970173655" lon="13.760226137730088"><ele>947.0</ele><time>2026-05-02T10:35:49.999Z</time></trkpt><trkpt lat="42.17230723465462" lon="13.760270556889571"><ele>947.0</ele><time>2026-05-02T10:35:52.999Z</time></trkpt><trkpt lat="42.17237791825606" lon="13.760330465827634"><ele>947.0000000000001</ele><time>2026-05-02T10:35:55.999Z</time></trkpt><trkpt lat="42.1724418289542" lon="13.7603713585716"><ele>947.0</ele><time>2026-05-02T10:35:57.999Z</time></trkpt><trkpt lat="42.17254599795875" lon="13.760411408566306"><ele>942.2</ele><time>2026-05-02T10:35:59.999Z</time></trkpt><trkpt lat="42.172637146530825" lon="13.760468775414134"><ele>937.4000000000001</ele><time>2026-05-02T10:36:01.999Z</time></trkpt><trkpt lat="42.172705816607305" lon="13.760520724063191"><ele>932.5999999999999</ele><time>2026-05-02T10:36:03.999Z</time></trkpt><trkpt lat="42.1728015812187" lon="13.760516173166417"><ele>927.8</ele><time>2026-05-02T10:36:06.999Z</time></trkpt><trkpt lat="42.17289414657006" lon="13.760527970109031"><ele>923.0</ele><time>2026-05-02T10:36:09.999Z</time></trkpt><trkpt lat="42.172971941318565" lon="13.760566371511677"><ele>923.0</ele><time>2026-05-02T10:36:11.999Z</time></trkpt><trkpt lat="42.173158778536276" lon="13.76058054367713"><ele>923.0</ele><time>2026-05-02T10:36:16.999Z</time></trkpt><trkpt lat="42.17324982867532" lon="13.760614584999658"><ele>923.0</ele><time>2026-05-02T10:36:18.999Z</time></trkpt><trkpt lat="42.17332338656025" lon="13.760658382318255"><ele>923.0</ele><time>2026-05-02T10:36:20.999Z</time></trkpt><trkpt lat="42.173390089173424" lon="13.76067582089909"><ele>923.0</ele><time>2026-05-02T10:36:23Z</time></trkpt><trkpt lat="42.17347927203932" lon="13.760721639231122"><ele>919.3333333333334</ele><time>2026-05-02T10:36:25Z</time></trkpt><trkpt lat="42.173565494939155" lon="13.76070687256046"><ele>915.6666666666667</ele><time>2026-05-02T10:36:27Z</time></trkpt><trkpt lat="42.17365655092066" lon="13.760711299496469"><ele>912.0</ele><time>2026-05-02T10:36:29Z</time></trkpt><trkpt lat="42.17375238042994" lon="13.760756624004879"><ele>908.3333333333333</ele><time>2026-05-02T10:36:31Z</time></trkpt><trkpt lat="42.17382602903901" lon="13.76079608802762"><ele>904.6666666666666</ele><time>2026-05-02T10:36:33Z</time></trkpt><trkpt lat="42.173883977990876" lon="13.760861923993728"><ele>901.0</ele><time>2026-05-02T10:36:35Z</time></trkpt><trkpt lat="42.17398846648491" lon="13.760907416861436"><ele>897.1999999999999</ele><time>2026-05-02T10:36:37Z</time></trkpt><trkpt lat="42.17408827348676" lon="13.760986564906213"><ele>893.3999999999999</ele><time>2026-05-02T10:36:39Z</time></trkpt><trkpt lat="42.1741888150988" lon="13.761067810145814"><ele>889.6</ele><time>2026-05-02T10:36:41Z</time></trkpt><trkpt lat="42.17428749239979" lon="13.761125354054812"><ele>885.8</ele><time>2026-05-02T10:36:43Z</time></trkpt><trkpt lat="42.17437074028636" lon="13.761163720120587"><ele>882.0</ele><time>2026-05-02T10:36:45Z</time></trkpt><trkpt lat="42.174460881248834" lon="13.761228929061236"><ele>881.6</ele><time>2026-05-02T10:36:47Z</time></trkpt><trkpt lat="42.174550276990615" lon="13.761249967010762"><ele>881.2</ele><time>2026-05-02T10:36:49Z</time></trkpt><trkpt lat="42.17462798900415" lon="13.761317401496397"><ele>880.8</ele><time>2026-05-02T10:36:52Z</time></trkpt><trkpt lat="42.17472341459112" lon="13.761334752888224"><ele>880.4</ele><time>2026-05-02T10:36:54Z</time></trkpt><trkpt lat="42.17482976993085" lon="13.761358195520073"><ele>880.0</ele><time>2026-05-02T10:36:56Z</time></trkpt><trkpt lat="42.174936130477136" lon="13.761373603177079"><ele>876.0</ele><time>2026-05-02T10:36:58Z</time></trkpt><trkpt lat="42.175028980614115" lon="13.761379520949582"><ele>872.0</ele><time>2026-05-02T10:37:00Z</time></trkpt><trkpt lat="42.17511256077727" lon="13.761446095060428"><ele>868.0</ele><time>2026-05-02T10:37:02Z</time></trkpt><trkpt lat="42.17521830643877" lon="13.761470498466414"><ele>864.0</ele><time>2026-05-02T10:37:03.999Z</time></trkpt><trkpt lat="42.175313155108554" lon="13.761490391909701"><ele>860.0</ele><time>2026-05-02T10:37:05.999Z</time></trkpt><trkpt lat="42.17541802522116" lon="13.761494488848765"><ele>860.0000000000001</ele><time>2026-05-02T10:37:07.999Z</time></trkpt><trkpt lat="42.17550416409585" lon="13.761530374842202"><ele>860.0</ele><time>2026-05-02T10:37:09.999Z</time></trkpt><trkpt lat="42.17558524552894" lon="13.761567923608725"><ele>860.0</ele><time>2026-05-02T10:37:11.999Z</time></trkpt><trkpt lat="42.175602410338676" lon="13.761698421671035"><ele>860.0</ele><time>2026-05-02T10:37:13.999Z</time></trkpt><trkpt lat="42.17562781737896" lon="13.761777374123929"><ele>860.0000000000001</ele><time>2026-05-02T10:37:15.999Z</time></trkpt><trkpt lat="42.17571496252585" lon="13.761806195093568"><ele>860.0</ele><time>2026-05-02T10:37:18.999Z</time></trkpt><trkpt lat="42.17579348159332" lon="13.761850312988884"><ele>857.0</ele><time>2026-05-02T10:37:51.999Z</time></trkpt><trkpt lat="42.175863098216084" lon="13.761900466237774"><ele>854.0</ele><time>2026-05-02T10:37:53.999Z</time></trkpt><trkpt lat="42.175929705957955" lon="13.761958675848199"><ele>851.0</ele><time>2026-05-02T10:37:55.999Z</time></trkpt><trkpt lat="42.17598831198534" lon="13.762032164806579"><ele>848.0</ele><time>2026-05-02T10:37:58.999Z</time></trkpt><trkpt lat="42.176036663254436" lon="13.762098756680007"><ele>845.0</ele><time>2026-05-02T10:38:01.999Z</time></trkpt><trkpt lat="42.176091355575515" lon="13.762152879670552"><ele>842.0</ele><time>2026-05-02T10:38:03.999Z</time></trkpt><trkpt lat="42.176136049924615" lon="13.762217762833346"><ele>839.0</ele><time>2026-05-02T10:38:05.999Z</time></trkpt><trkpt lat="42.17619121510858" lon="13.762303982808595"><ele>839.0</ele><time>2026-05-02T10:38:07.999Z</time></trkpt><trkpt lat="42.17625401255972" lon="13.762415941614641"><ele>839.0</ele><time>2026-05-02T10:38:09.999Z</time></trkpt><trkpt lat="42.176318559626225" lon="13.762561342981199"><ele>839.0</ele><time>2026-05-02T10:38:11.999Z</time></trkpt><trkpt lat="42.176385236315284" lon="13.76269826174686"><ele>839.0</ele><time>2026-05-02T10:38:13.999Z</time></trkpt><trkpt lat="42.176412960896954" lon="13.762783637409767"><ele>839.0</ele><time>2026-05-02T10:38:14.999Z</time></trkpt><trkpt lat="42.17646848131552" lon="13.762918018689943"><ele>836.5000000000001</ele><time>2026-05-02T10:38:16.999Z</time></trkpt><trkpt lat="42.1765233462589" lon="13.763056370159227"><ele>834.0</ele><time>2026-05-02T10:38:18.999Z</time></trkpt><trkpt lat="42.1765539958735" lon="13.763136358543111"><ele>831.5</ele><time>2026-05-02T10:38:19.999Z</time></trkpt><trkpt lat="42.176580673300286" lon="13.76322132141218"><ele>829.0</ele><time>2026-05-02T10:38:20.999Z</time></trkpt><trkpt lat="42.1766104498768" lon="13.763321244041485"><ele>826.5000000000001</ele><time>2026-05-02T10:38:21.999Z</time></trkpt><trkpt lat="42.17664036306404" lon="13.763405058692074"><ele>824.0</ele><time>2026-05-02T10:38:22.999Z</time></trkpt><trkpt lat="42.176669970679974" lon="13.763502097854671"><ele>822.8333333333334</ele><time>2026-05-02T10:38:23.999Z</time></trkpt><trkpt lat="42.17670226121571" lon="13.76358136551183"><ele>821.6666666666667</ele><time>2026-05-02T10:38:24.999Z</time></trkpt><trkpt lat="42.1767220622074" lon="13.763663461917123"><ele>820.5</ele><time>2026-05-02T10:38:25.999Z</time></trkpt><trkpt lat="42.17674305825943" lon="13.763764907986449"><ele>819.3333333333333</ele><time>2026-05-02T10:38:26.999Z</time></trkpt><trkpt lat="42.176760898261485" lon="13.763872719949394"><ele>818.1666666666666</ele><time>2026-05-02T10:38:27.999Z</time></trkpt><trkpt lat="42.176773773676366" lon="13.763997881086043"><ele>817.0</ele><time>2026-05-02T10:38:29Z</time></trkpt><trkpt lat="42.17678765622166" lon="13.764113098958797"><ele>816.9999999999999</ele><time>2026-05-02T10:38:30Z</time></trkpt><trkpt lat="42.17680144959442" lon="13.764219149629248"><ele>817.0</ele><time>2026-05-02T10:38:31Z</time></trkpt><trkpt lat="42.17681477369522" lon="13.764303916091864"><ele>817.0</ele><time>2026-05-02T10:38:32Z</time></trkpt><trkpt lat="42.1768281277088" lon="13.764396397261665"><ele>817.0</ele><time>2026-05-02T10:38:33Z</time></trkpt><trkpt lat="42.17685037688991" lon="13.764546597047115"><ele>816.9999999999999</ele><time>2026-05-02T10:38:35Z</time></trkpt><trkpt lat="42.17686853877197" lon="13.76468795326773"><ele>817.0</ele><time>2026-05-02T10:38:37Z</time></trkpt><trkpt lat="42.17686009710781" lon="13.764800846221313"><ele>814.9999999999999</ele><time>2026-05-02T10:38:39Z</time></trkpt><trkpt lat="42.17686454149847" lon="13.764939527397111"><ele>813.0</ele><time>2026-05-02T10:38:41Z</time></trkpt><trkpt lat="42.17688598852764" lon="13.765084784300898"><ele>811.0</ele><time>2026-05-02T10:38:43Z</time></trkpt><trkpt lat="42.17690494709456" lon="13.76516812848379"><ele>809.0</ele><time>2026-05-02T10:38:44Z</time></trkpt><trkpt lat="42.17691968939775" lon="13.765253472739111"><ele>806.9999999999999</ele><time>2026-05-02T10:38:45Z</time></trkpt><trkpt lat="42.17693542976942" lon="13.7653443681331"><ele>805.0</ele><time>2026-05-02T10:38:46Z</time></trkpt><trkpt lat="42.17695634264279" lon="13.765448042487403"><ele>803.1666666666666</ele><time>2026-05-02T10:38:47Z</time></trkpt><trkpt lat="42.176975320361414" lon="13.76555156203156"><ele>801.3333333333333</ele><time>2026-05-02T10:38:48Z</time></trkpt><trkpt lat="42.17698572609409" lon="13.765656999674214"><ele>799.5</ele><time>2026-05-02T10:38:49Z</time></trkpt><trkpt lat="42.17699723513453" lon="13.765786088097842"><ele>797.6666666666667</ele><time>2026-05-02T10:38:50Z</time></trkpt><trkpt lat="42.17700728474112" lon="13.765900006902529"><ele>795.8333333333334</ele><time>2026-05-02T10:38:51Z</time></trkpt><trkpt lat="42.17700997195138" lon="13.766023061290893"><ele>794.0</ele><time>2026-05-02T10:38:52Z</time></trkpt><trkpt lat="42.177014499080514" lon="13.76616656230976"><ele>792.2</ele><time>2026-05-02T10:38:53Z</time></trkpt><trkpt lat="42.177007895089616" lon="13.766318269754048"><ele>790.4000000000001</ele><time>2026-05-02T10:38:54Z</time></trkpt><trkpt lat="42.17701037562311" lon="13.766432898175339"><ele>788.6</ele><time>2026-05-02T10:38:55Z</time></trkpt><trkpt lat="42.1770213656911" lon="13.766561972106159"><ele>786.8</ele><time>2026-05-02T10:38:56Z</time></trkpt><trkpt lat="42.17704494679314" lon="13.766685446531774"><ele>785.0</ele><time>2026-05-02T10:38:57Z</time></trkpt><trkpt lat="42.177072601724646" lon="13.76680814450887"><ele>783.5000000000001</ele><time>2026-05-02T10:38:57.999Z</time></trkpt><trkpt lat="42.17709759005827" lon="13.76693254474476"><ele>782.0</ele><time>2026-05-02T10:38:58.999Z</time></trkpt><trkpt lat="42.177121178519236" lon="13.76705734260562"><ele>780.5</ele><time>2026-05-02T10:38:59.999Z</time></trkpt><trkpt lat="42.17713494620447" lon="13.76717986064696"><ele>779.0</ele><time>2026-05-02T10:39:00.999Z</time></trkpt><trkpt lat="42.17714151633969" lon="13.767296108053252"><ele>777.5000000000001</ele><time>2026-05-02T10:39:01.999Z</time></trkpt><trkpt lat="42.17714595110639" lon="13.767401762544056"><ele>776.0</ele><time>2026-05-02T10:39:02.999Z</time></trkpt><trkpt lat="42.1771448054493" lon="13.767498098409677"><ele>776.0000000000001</ele><time>2026-05-02T10:39:03.999Z</time></trkpt><trkpt lat="42.17714396061751" lon="13.76758930095444"><ele>776.0</ele><time>2026-05-02T10:39:04.999Z</time></trkpt><trkpt lat="42.177126774025076" lon="13.767692281497107"><ele>776.0</ele><time>2026-05-02T10:39:06.999Z</time></trkpt><trkpt lat="42.177134329122815" lon="13.767777418753463"><ele>776.0</ele><time>2026-05-02T10:39:09.999Z</time></trkpt><trkpt lat="42.17721350059453" lon="13.767813130860755"><ele>776.0000000000001</ele><time>2026-05-02T10:39:11.999Z</time></trkpt><trkpt lat="42.177339613361305" lon="13.767811088892914"><ele>776.0</ele><time>2026-05-02T10:39:13.999Z</time></trkpt><trkpt lat="42.17741006677342" lon="13.767828329057929"><ele>775.6666666666667</ele><time>2026-05-02T10:39:14.999Z</time></trkpt><trkpt lat="42.1774821366059" lon="13.767866556559316"><ele>775.3333333333334</ele><time>2026-05-02T10:39:15.999Z</time></trkpt><trkpt lat="42.17755420836213" lon="13.7679195639459"><ele>775.0</ele><time>2026-05-02T10:39:16.999Z</time></trkpt><trkpt lat="42.177618821511906" lon="13.767988757017397"><ele>774.6666666666667</ele><time>2026-05-02T10:39:17.999Z</time></trkpt><trkpt lat="42.17767898202566" lon="13.7680625418007"><ele>774.3333333333334</ele><time>2026-05-02T10:39:18.999Z</time></trkpt><trkpt lat="42.17773680430596" lon="13.768138379755518"><ele>774.0</ele><time>2026-05-02T10:39:19.999Z</time></trkpt><trkpt lat="42.17779796318377" lon="13.768211909622297"><ele>774.0</ele><time>2026-05-02T10:39:20.999Z</time></trkpt><trkpt lat="42.177863597698526" lon="13.768286263352042"><ele>774.0</ele><time>2026-05-02T10:39:21.999Z</time></trkpt><trkpt lat="42.17794020155617" lon="13.768359123092461"><ele>774.0</ele><time>2026-05-02T10:39:22.999Z</time></trkpt><trkpt lat="42.17802067987556" lon="13.768434467682857"><ele>774.0</ele><time>2026-05-02T10:39:23.999Z</time></trkpt><trkpt lat="42.1781226806994" lon="13.768525194496842"><ele>774.0</ele><time>2026-05-02T10:39:24.999Z</time></trkpt><trkpt lat="42.17824217657225" lon="13.768647164808819"><ele>775.0</ele><time>2026-05-02T10:39:25.999Z</time></trkpt><trkpt lat="42.1783565676161" lon="13.768781450280345"><ele>776.0</ele><time>2026-05-02T10:39:26.999Z</time></trkpt><trkpt lat="42.1785695981886" lon="13.76900382250351"><ele>777.0</ele><time>2026-05-02T10:39:28.999Z</time></trkpt><trkpt lat="42.17869096783724" lon="13.769071796710683"><ele>777.0</ele><time>2026-05-02T10:39:29.999Z</time></trkpt><trkpt lat="42.17882530608442" lon="13.769117402242617"><ele>777.0</ele><time>2026-05-02T10:39:30.999Z</time></trkpt><trkpt lat="42.17895775680813" lon="13.769152391491595"><ele>777.0</ele><time>2026-05-02T10:39:31.999Z</time></trkpt><trkpt lat="42.17908512530033" lon="13.769206100040552"><ele>777.0</ele><time>2026-05-02T10:39:32.999Z</time></trkpt><trkpt lat="42.1791979818914" lon="13.76926661823256"><ele>778.5</ele><time>2026-05-02T10:39:33.999Z</time></trkpt><trkpt lat="42.17926713339054" lon="13.76930553269603"><ele>780.0</ele><time>2026-05-02T10:39:34.999Z</time></trkpt><trkpt lat="42.17928751492515" lon="13.769407669337486"><ele>781.5</ele><time>2026-05-02T10:39:37.999Z</time></trkpt><trkpt lat="42.179249207873156" lon="13.769545041302758"><ele>783.0</ele><time>2026-05-02T10:39:39.999Z</time></trkpt><trkpt lat="42.179248756041666" lon="13.769640894495618"><ele>784.5</ele><time>2026-05-02T10:39:40.999Z</time></trkpt><trkpt lat="42.17926585594764" lon="13.769743655421326"><ele>786.0</ele><time>2026-05-02T10:39:41.999Z</time></trkpt><trkpt lat="42.17928683475044" lon="13.769846356972751"><ele>786.0</ele><time>2026-05-02T10:39:42.999Z</time></trkpt><trkpt lat="42.179304752689916" lon="13.769932105394512"><ele>786.0</ele><time>2026-05-02T10:39:43.999Z</time></trkpt><trkpt lat="42.17932165349545" lon="13.770035057582517"><ele>786.0</ele><time>2026-05-02T10:39:45.999Z</time></trkpt><trkpt lat="42.17936599778011" lon="13.77010610711429"><ele>786.0</ele><time>2026-05-02T10:39:50.999Z</time></trkpt><trkpt lat="42.17942466144359" lon="13.770062172216765"><ele>786.0</ele><time>2026-05-02T10:39:53.999Z</time></trkpt><trkpt lat="42.1794952407787" lon="13.770001985523814"><ele>786.0</ele><time>2026-05-02T10:40:01.999Z</time></trkpt><trkpt lat="42.1796229968516" lon="13.769946967927355"><ele>786.0</ele><time>2026-05-02T10:40:03.999Z</time></trkpt><trkpt lat="42.17969821966823" lon="13.769921975526522"><ele>786.0</ele><time>2026-05-02T10:40:04.999Z</time></trkpt><trkpt lat="42.179774356271075" lon="13.769903608893708"><ele>786.0</ele><time>2026-05-02T10:40:05.999Z</time></trkpt><trkpt lat="42.17985356158119" lon="13.769907630342656"><ele>786.0</ele><time>2026-05-02T10:40:06.999Z</time></trkpt><trkpt lat="42.179936128360154" lon="13.76991847539468"><ele>786.0</ele><time>2026-05-02T10:40:07.999Z</time></trkpt><trkpt lat="42.179997259015934" lon="13.769950989258062"><ele>786.0</ele><time>2026-05-02T10:40:09.999Z</time></trkpt><trkpt lat="42.18006124535107" lon="13.7700100824009"><ele>787.0</ele><time>2026-05-02T10:40:11.999Z</time></trkpt><trkpt lat="42.1801670884863" lon="13.770049781463321"><ele>788.0</ele><time>2026-05-02T10:40:13.999Z</time></trkpt><trkpt lat="42.180277239042084" lon="13.770056590581436"><ele>789.0</ele><time>2026-05-02T10:40:15.999Z</time></trkpt><trkpt lat="42.18034111830189" lon="13.770075156168259"><ele>790.0</ele><time>2026-05-02T10:40:16.999Z</time></trkpt><trkpt lat="42.18040229193171" lon="13.770106406928035"><ele>791.0</ele><time>2026-05-02T10:40:17.999Z</time></trkpt><trkpt lat="42.1804719123459" lon="13.770125984227978"><ele>792.0</ele><time>2026-05-02T10:40:18.999Z</time></trkpt><trkpt lat="42.18055412505159" lon="13.770131123819503"><ele>792.0</ele><time>2026-05-02T10:40:19.999Z</time></trkpt><trkpt lat="42.18064877590697" lon="13.770139159991261"><ele>792.0</ele><time>2026-05-02T10:40:20.999Z</time></trkpt><trkpt lat="42.18074162130296" lon="13.770156369963766"><ele>792.0</ele><time>2026-05-02T10:40:21.999Z</time></trkpt><trkpt lat="42.18082725754514" lon="13.770168989071701"><ele>792.0</ele><time>2026-05-02T10:40:22.999Z</time></trkpt><trkpt lat="42.180906329566625" lon="13.770183969175683"><ele>792.0</ele><time>2026-05-02T10:40:23.999Z</time></trkpt><trkpt lat="42.18096643287934" lon="13.770212942159478"><ele>792.0</ele><time>2026-05-02T10:40:24.999Z</time></trkpt><trkpt lat="42.18102117666768" lon="13.770256200734604"><ele>789.6666666666666</ele><time>2026-05-02T10:40:25.999Z</time></trkpt><trkpt lat="42.18110523579742" lon="13.770334838218286"><ele>787.3333333333333</ele><time>2026-05-02T10:40:27.999Z</time></trkpt><trkpt lat="42.18118699532319" lon="13.77041504778161"><ele>785.0</ele><time>2026-05-02T10:40:30.998Z</time></trkpt><trkpt lat="42.18121303011071" lon="13.770508458950983"><ele>782.6666666666666</ele><time>2026-05-02T10:40:32.998Z</time></trkpt><trkpt lat="42.18121033842759" lon="13.770600794531292"><ele>780.3333333333333</ele><time>2026-05-02T10:40:35Z</time></trkpt><trkpt lat="42.18123917570142" lon="13.770733319264108"><ele>778.0</ele><time>2026-05-02T10:40:37Z</time></trkpt><trkpt lat="42.18131058130061" lon="13.770791677472607"><ele>777.9999999999999</ele><time>2026-05-02T10:40:39Z</time></trkpt><trkpt lat="42.181382698089024" lon="13.770788215816264"><ele>778.0</ele><time>2026-05-02T10:40:41Z</time></trkpt><trkpt lat="42.18147874809657" lon="13.770794973322113"><ele>778.0</ele><time>2026-05-02T10:40:43Z</time></trkpt><trkpt lat="42.18157903833074" lon="13.770850720497926"><ele>778.0</ele><time>2026-05-02T10:40:45Z</time></trkpt><trkpt lat="42.18166161330533" lon="13.770904006282086"><ele>777.9999999999999</ele><time>2026-05-02T10:40:47Z</time></trkpt><trkpt lat="42.1817276327518" lon="13.770918838107738"><ele>778.0</ele><time>2026-05-02T10:40:50Z</time></trkpt><trkpt lat="42.181790417865976" lon="13.770985114768644"><ele>778.6666666666666</ele><time>2026-05-02T10:40:52Z</time></trkpt><trkpt lat="42.18186843887709" lon="13.77102822184318"><ele>779.3333333333333</ele><time>2026-05-02T10:40:54Z</time></trkpt><trkpt lat="42.18194120661087" lon="13.77107468051015"><ele>780.0</ele><time>2026-05-02T10:40:55.999Z</time></trkpt><trkpt lat="42.182038913049134" lon="13.77113014209603"><ele>780.6666666666667</ele><time>2026-05-02T10:40:56.999Z</time></trkpt><trkpt lat="42.18213108700709" lon="13.771172048296034"><ele>781.3333333333334</ele><time>2026-05-02T10:40:57.999Z</time></trkpt><trkpt lat="42.18218968749626" lon="13.771208428057985"><ele>782.0</ele><time>2026-05-02T10:40:58.999Z</time></trkpt><trkpt lat="42.182264234446926" lon="13.771274192348432"><ele>782.0000000000001</ele><time>2026-05-02T10:41:00.999Z</time></trkpt><trkpt lat="42.182343014634725" lon="13.771355877345504"><ele>782.0</ele><time>2026-05-02T10:41:02.999Z</time></trkpt><trkpt lat="42.18245009305813" lon="13.771424225890877"><ele>782.0</ele><time>2026-05-02T10:41:04.999Z</time></trkpt><trkpt lat="42.18251037161172" lon="13.771452218781738"><ele>782.0</ele><time>2026-05-02T10:41:05.999Z</time></trkpt><trkpt lat="42.18256913384488" lon="13.771489231206097"><ele>782.0000000000001</ele><time>2026-05-02T10:41:06.999Z</time></trkpt><trkpt lat="42.18263921781208" lon="13.771528816429642"><ele>782.0</ele><time>2026-05-02T10:41:07.999Z</time></trkpt><trkpt lat="42.18271408511938" lon="13.771569034206484"><ele>784.5000000000001</ele><time>2026-05-02T10:41:08.999Z</time></trkpt><trkpt lat="42.182781039801256" lon="13.771610273114513"><ele>787.0</ele><time>2026-05-02T10:41:09.999Z</time></trkpt><trkpt lat="42.18284995883798" lon="13.77166601006633"><ele>789.5</ele><time>2026-05-02T10:41:10.999Z</time></trkpt><trkpt lat="42.182923365414524" lon="13.771731550407601"><ele>792.0</ele><time>2026-05-02T10:41:11.999Z</time></trkpt><trkpt lat="42.182975800229315" lon="13.771781738145508"><ele>794.5000000000001</ele><time>2026-05-02T10:41:12.999Z</time></trkpt><trkpt lat="42.18306813376562" lon="13.771884168636346"><ele>797.0</ele><time>2026-05-02T10:41:14.999Z</time></trkpt><trkpt lat="42.183113625785516" lon="13.771950148879478"><ele>797.0000000000001</ele><time>2026-05-02T10:41:15.999Z</time></trkpt><trkpt lat="42.18315709657716" lon="13.77202638528701"><ele>797.0</ele><time>2026-05-02T10:41:16.999Z</time></trkpt><trkpt lat="42.18320609938066" lon="13.772101008863626"><ele>797.0</ele><time>2026-05-02T10:41:17.999Z</time></trkpt><trkpt lat="42.18325956423252" lon="13.772170113808754"><ele>797.0</ele><time>2026-05-02T10:41:18.999Z</time></trkpt><trkpt lat="42.183313627347225" lon="13.772215565701744"><ele>797.0000000000001</ele><time>2026-05-02T10:41:19.999Z</time></trkpt><trkpt lat="42.18342194869723" lon="13.772287228611582"><ele>797.0</ele><time>2026-05-02T10:41:21.999Z</time></trkpt><trkpt lat="42.18349359286082" lon="13.772300410841744"><ele>801.8333333333334</ele><time>2026-05-02T10:41:23.999Z</time></trkpt><trkpt lat="42.183573205112765" lon="13.77231877286017"><ele>806.6666666666667</ele><time>2026-05-02T10:41:25.999Z</time></trkpt><trkpt lat="42.183657727780215" lon="13.77234233837868"><ele>811.5</ele><time>2026-05-02T10:41:27.999Z</time></trkpt><trkpt lat="42.18375187210841" lon="13.772387057655903"><ele>816.3333333333333</ele><time>2026-05-02T10:41:29.999Z</time></trkpt><trkpt lat="42.1838429390006" lon="13.772443789426516"><ele>821.1666666666666</ele><time>2026-05-02T10:41:30.999Z</time></trkpt><trkpt lat="42.18392069957065" lon="13.772470054188188"><ele>826.0</ele><time>2026-05-02T10:41:31.999Z</time></trkpt><trkpt lat="42.18398722068325" lon="13.772498939833193"><ele>829.8333333333333</ele><time>2026-05-02T10:41:32.999Z</time></trkpt><trkpt lat="42.184056719983545" lon="13.77253036999431"><ele>833.6666666666666</ele><time>2026-05-02T10:41:33.999Z</time></trkpt><trkpt lat="42.1841160758813" lon="13.772574766782382"><ele>837.5</ele><time>2026-05-02T10:41:34.999Z</time></trkpt><trkpt lat="42.18424698208566" lon="13.772600060857568"><ele>841.3333333333333</ele><time>2026-05-02T10:41:36.999Z</time></trkpt><trkpt lat="42.18432450171995" lon="13.772575463133776"><ele>845.1666666666666</ele><time>2026-05-02T10:41:37.999Z</time></trkpt><trkpt lat="42.184410395278874" lon="13.772574978296996"><ele>849.0</ele><time>2026-05-02T10:41:38.999Z</time></trkpt><trkpt lat="42.18448878299819" lon="13.772577566446092"><ele>849.0</ele><time>2026-05-02T10:41:39.999Z</time></trkpt><trkpt lat="42.184593478611056" lon="13.772609355331063"><ele>849.0</ele><time>2026-05-02T10:41:41.999Z</time></trkpt><trkpt lat="42.18469705861911" lon="13.772594740534243"><ele>849.0</ele><time>2026-05-02T10:41:43.999Z</time></trkpt><trkpt lat="42.18475204711323" lon="13.772547398968273"><ele>849.0</ele><time>2026-05-02T10:41:44.999Z</time></trkpt><trkpt lat="42.18481979712825" lon="13.772504148734823"><ele>849.0</ele><time>2026-05-02T10:41:45.999Z</time></trkpt><trkpt lat="42.18488637467902" lon="13.772464371921442"><ele>849.0</ele><time>2026-05-02T10:41:46.999Z</time></trkpt><trkpt lat="42.18494390995556" lon="13.772414151566485"><ele>847.8333333333334</ele><time>2026-05-02T10:41:47.999Z</time></trkpt><trkpt lat="42.18498623904501" lon="13.772344001064942"><ele>846.6666666666667</ele><time>2026-05-02T10:41:48.999Z</time></trkpt><trkpt lat="42.18505969679052" lon="13.772249983191127"><ele>845.5</ele><time>2026-05-02T10:41:50.999Z</time></trkpt><trkpt lat="42.185159908584886" lon="13.772163670292459"><ele>844.3333333333334</ele><time>2026-05-02T10:41:52.999Z</time></trkpt><trkpt lat="42.1852104464268" lon="13.772098373729458"><ele>843.1666666666667</ele><time>2026-05-02T10:41:53.999Z</time></trkpt><trkpt lat="42.18524926559492" lon="13.772027325513069"><ele>842.0</ele><time>2026-05-02T10:41:54.999Z</time></trkpt><trkpt lat="42.1853134510923" lon="13.771907417078712"><ele>842.0</ele><time>2026-05-02T10:41:56.999Z</time></trkpt><trkpt lat="42.185373655646394" lon="13.771879835972356"><ele>842.0</ele><time>2026-05-02T10:41:59.999Z</time></trkpt><trkpt lat="42.18545510011992" lon="13.771844087483029"><ele>842.0</ele><time>2026-05-02T10:42:02.999Z</time></trkpt><trkpt lat="42.18553301528515" lon="13.771800799645042"><ele>842.0</ele><time>2026-05-02T10:42:04.999Z</time></trkpt><trkpt lat="42.18562863465209" lon="13.771764336019949"><ele>842.0</ele><time>2026-05-02T10:42:06.999Z</time></trkpt><trkpt lat="42.185738710996965" lon="13.771703984872563"><ele>840.5</ele><time>2026-05-02T10:42:08.999Z</time></trkpt><trkpt lat="42.185843883980716" lon="13.771642505591828"><ele>839.0</ele><time>2026-05-02T10:42:10.999Z</time></trkpt><trkpt lat="42.18594529315431" lon="13.771588573280678"><ele>837.5</ele><time>2026-05-02T10:42:12.999Z</time></trkpt><trkpt lat="42.186050369265224" lon="13.771540931004724"><ele>836.0</ele><time>2026-05-02T10:42:14.999Z</time></trkpt><trkpt lat="42.18616435522061" lon="13.771501523639174"><ele>836.0000000000001</ele><time>2026-05-02T10:42:16.999Z</time></trkpt><trkpt lat="42.18626991387795" lon="13.771459201124909"><ele>836.0</ele><time>2026-05-02T10:42:18.999Z</time></trkpt><trkpt lat="42.18634361488381" lon="13.77142449243323"><ele>836.0</ele><time>2026-05-02T10:42:20.999Z</time></trkpt><trkpt lat="42.18641833710246" lon="13.77139279755945"><ele>836.0</ele><time>2026-05-02T10:42:23.999Z</time></trkpt><trkpt lat="42.18648467845885" lon="13.771356075082696"><ele>836.0000000000001</ele><time>2026-05-02T10:42:25.999Z</time></trkpt><trkpt lat="42.1865514054646" lon="13.771318039919535"><ele>836.0</ele><time>2026-05-02T10:42:27.999Z</time></trkpt><trkpt lat="42.186616392824824" lon="13.771267236288363"><ele>833.0</ele><time>2026-05-02T10:42:29.999Z</time></trkpt><trkpt lat="42.18667882212519" lon="13.771204822322245"><ele>830.0</ele><time>2026-05-02T10:42:31.998Z</time></trkpt><trkpt lat="42.1867807960117" lon="13.771124203600593"><ele>827.0</ele><time>2026-05-02T10:42:33.998Z</time></trkpt><trkpt lat="42.186844710951306" lon="13.771078252201974"><ele>824.0</ele><time>2026-05-02T10:42:34.998Z</time></trkpt><trkpt lat="42.18690953667851" lon="13.771013930819286"><ele>821.0</ele><time>2026-05-02T10:42:36.998Z</time></trkpt><trkpt lat="42.186984087074066" lon="13.771127025659965"><ele>820.0000000000001</ele><time>2026-05-02T10:43:33.999Z</time></trkpt><trkpt lat="42.18701492413481" lon="13.77121233758951"><ele>819.0</ele><time>2026-05-02T10:43:34.999Z</time></trkpt><trkpt lat="42.18703944164486" lon="13.771295488247828"><ele>818.0</ele><time>2026-05-02T10:43:35.999Z</time></trkpt><trkpt lat="42.187058320023816" lon="13.771448583539776"><ele>817.0</ele><time>2026-05-02T10:43:37.999Z</time></trkpt><trkpt lat="42.18706097313612" lon="13.771547571375574"><ele>816.0000000000001</ele><time>2026-05-02T10:43:39.999Z</time></trkpt><trkpt lat="42.187109792047295" lon="13.7716211090834"><ele>815.0</ele><time>2026-05-02T10:44:30.999Z</time></trkpt><trkpt lat="42.187185408445025" lon="13.77158244982195"><ele>815.0000000000001</ele><time>2026-05-02T10:44:33.999Z</time></trkpt><trkpt lat="42.18727481931598" lon="13.771622516036228"><ele>815.0</ele><time>2026-05-02T10:44:36.999Z</time></trkpt><trkpt lat="42.187330627709976" lon="13.771685331865545"><ele>815.0</ele><time>2026-05-02T10:44:38.999Z</time></trkpt><trkpt lat="42.18743295227769" lon="13.771775820223407"><ele>815.0</ele><time>2026-05-02T10:44:40.999Z</time></trkpt><trkpt lat="42.18749981697273" lon="13.771835263806139"><ele>815.0000000000001</ele><time>2026-05-02T10:44:43.999Z</time></trkpt><trkpt lat="42.18752611516563" lon="13.771913163436588"><ele>815.0</ele><time>2026-05-02T10:44:48Z</time></trkpt><trkpt lat="42.18756179409942" lon="13.771985610774525"><ele>815.8333333333334</ele><time>2026-05-02T10:44:50Z</time></trkpt><trkpt lat="42.187589724204926" lon="13.772077356934775"><ele>816.6666666666667</ele><time>2026-05-02T10:44:52Z</time></trkpt><trkpt lat="42.18764441260816" lon="13.772176703976275"><ele>817.5</ele><time>2026-05-02T10:44:55Z</time></trkpt><trkpt lat="42.18770173460857" lon="13.772268450900773"><ele>818.3333333333333</ele><time>2026-05-02T10:44:56Z</time></trkpt><trkpt lat="42.18775460307527" lon="13.772344266454018"><ele>819.1666666666666</ele><time>2026-05-02T10:44:58Z</time></trkpt><trkpt lat="42.18778325452856" lon="13.772423605224388"><ele>820.0</ele><time>2026-05-02T10:45:00Z</time></trkpt><trkpt lat="42.187815234757174" lon="13.77252810460443"><ele>819.9999999999999</ele><time>2026-05-02T10:45:04Z</time></trkpt><trkpt lat="42.18786133726507" lon="13.772610834519107"><ele>820.0</ele><time>2026-05-02T10:45:06Z</time></trkpt><trkpt lat="42.18790868975927" lon="13.772698392277666"><ele>820.0</ele><time>2026-05-02T10:45:08Z</time></trkpt><trkpt lat="42.18795872542207" lon="13.772777420707364"><ele>820.0</ele><time>2026-05-02T10:45:10Z</time></trkpt><trkpt lat="42.18802323886432" lon="13.772849080184253"><ele>819.9999999999999</ele><time>2026-05-02T10:45:12Z</time></trkpt><trkpt lat="42.188090167759015" lon="13.772904031753937"><ele>820.0</ele><time>2026-05-02T10:45:14Z</time></trkpt><trkpt lat="42.18815314583775" lon="13.772937081249133"><ele>820.0</ele><time>2026-05-02T10:45:17Z</time></trkpt><trkpt lat="42.18822275656861" lon="13.772971919798476"><ele>820.0</ele><time>2026-05-02T10:45:18.999Z</time></trkpt><trkpt lat="42.18816771175913" lon="13.772925464223338"><ele>820.0</ele><time>2026-05-02T10:47:46.999Z</time></trkpt><trkpt lat="42.1881082963334" lon="13.772890400532814"><ele>820.0</ele><time>2026-05-02T10:47:52.999Z</time></trkpt><trkpt lat="42.18804714798219" lon="13.772827733667267"><ele>820.0</ele><time>2026-05-02T10:47:57.999Z</time></trkpt><trkpt lat="42.18799036195374" lon="13.772782246632028"><ele>820.0</ele><time>2026-05-02T10:48:04.999Z</time></trkpt><trkpt lat="42.18793343953652" lon="13.772706666255402"><ele>820.0</ele><time>2026-05-02T10:48:10.999Z</time></trkpt><trkpt lat="42.187890578752345" lon="13.772637757416733"><ele>819.9999999999999</ele><time>2026-05-02T10:48:13.999Z</time></trkpt><trkpt lat="42.187839683558096" lon="13.77254903401938"><ele>820.0</ele><time>2026-05-02T10:48:16.999Z</time></trkpt><trkpt lat="42.18778110853725" lon="13.77248457232996"><ele>820.0</ele><time>2026-05-02T10:48:19.999Z</time></trkpt><trkpt lat="42.18774462721803" lon="13.772402630331827"><ele>820.0</ele><time>2026-05-02T10:48:24.999Z</time></trkpt><trkpt lat="42.18774279065899" lon="13.772308817438342"><ele>819.9999999999999</ele><time>2026-05-02T10:48:27.999Z</time></trkpt><trkpt lat="42.18770460095808" lon="13.772221375901982"><ele>820.0</ele><time>2026-05-02T10:48:29.999Z</time></trkpt><trkpt lat="42.18763950045961" lon="13.77215262196731"><ele>819.9999999999999</ele><time>2026-05-02T10:48:31.999Z</time></trkpt><trkpt lat="42.18760471997768" lon="13.77206619211326"><ele>820.0</ele><time>2026-05-02T10:48:34.999Z</time></trkpt><trkpt lat="42.187575928883945" lon="13.771957837309463"><ele>820.0</ele><time>2026-05-02T10:48:37.999Z</time></trkpt><trkpt lat="42.18753721476875" lon="13.771880220159789"><ele>820.0</ele><time>2026-05-02T10:48:40.999Z</time></trkpt><trkpt lat="42.187500089680285" lon="13.771790230558068"><ele>819.9999999999999</ele><time>2026-05-02T10:48:44.999Z</time></trkpt><trkpt lat="42.18743979264652" lon="13.77173908314382"><ele>820.0</ele><time>2026-05-02T10:48:46.999Z</time></trkpt><trkpt lat="42.187362486984696" lon="13.77166676111782"><ele>819.1666666666666</ele><time>2026-05-02T10:48:48.999Z</time></trkpt><trkpt lat="42.18730035171402" lon="13.77165143187858"><ele>818.3333333333333</ele><time>2026-05-02T10:49:38.999Z</time></trkpt><trkpt lat="42.187254279044936" lon="13.771719070014754"><ele>817.5</ele><time>2026-05-02T10:49:40.999Z</time></trkpt><trkpt lat="42.187244661689945" lon="13.77182897146808"><ele>816.6666666666667</ele><time>2026-05-02T10:49:42.999Z</time></trkpt><trkpt lat="42.187224779586664" lon="13.771974057750352"><ele>815.8333333333334</ele><time>2026-05-02T10:49:44.999Z</time></trkpt><trkpt lat="42.18716918004969" lon="13.772074402916587"><ele>815.0</ele><time>2026-05-02T10:49:46.999Z</time></trkpt><trkpt lat="42.18715113730418" lon="13.7721844226318"><ele>814.1666666666667</ele><time>2026-05-02T10:49:48.999Z</time></trkpt><trkpt lat="42.187113674693556" lon="13.77233210505939"><ele>813.3333333333334</ele><time>2026-05-02T10:49:50.999Z</time></trkpt><trkpt lat="42.18705596553187" lon="13.772464001437951"><ele>812.5</ele><time>2026-05-02T10:49:52.999Z</time></trkpt><trkpt lat="42.18698496008691" lon="13.772492146445172"><ele>811.6666666666667</ele><time>2026-05-02T10:49:54.999Z</time></trkpt><trkpt lat="42.186922852636364" lon="13.7724694585986"><ele>810.8333333333334</ele><time>2026-05-02T10:49:57.999Z</time></trkpt><trkpt lat="42.186860966430004" lon="13.772448636910552"><ele>810.0</ele><time>2026-05-02T10:49:59.999Z</time></trkpt><trkpt lat="42.18680238161409" lon="13.772500989711629"><ele>810.0</ele><time>2026-05-02T10:50:01.999Z</time></trkpt><trkpt lat="42.1867204774062" lon="13.772563051471684"><ele>810.0</ele><time>2026-05-02T10:50:03.999Z</time></trkpt><trkpt lat="42.186655213502725" lon="13.772655454287106"><ele>810.0</ele><time>2026-05-02T10:50:05.999Z</time></trkpt><trkpt lat="42.186595859257615" lon="13.77278719370855"><ele>810.0</ele><time>2026-05-02T10:50:07.999Z</time></trkpt><trkpt lat="42.18654080788362" lon="13.772907289848298"><ele>810.0</ele><time>2026-05-02T10:50:09.999Z</time></trkpt><trkpt lat="42.18648662594745" lon="13.773023117507277"><ele>811.0</ele><time>2026-05-02T10:50:11.999Z</time></trkpt><trkpt lat="42.18642263173584" lon="13.773176083998235"><ele>812.0</ele><time>2026-05-02T10:50:13.999Z</time></trkpt><trkpt lat="42.186394074069135" lon="13.773262723948868"><ele>813.0</ele><time>2026-05-02T10:50:14.999Z</time></trkpt><trkpt lat="42.18636488691472" lon="13.773343907947421"><ele>814.0</ele><time>2026-05-02T10:50:15.999Z</time></trkpt><trkpt lat="42.18633242227651" lon="13.773418876693333"><ele>815.0</ele><time>2026-05-02T10:50:16.999Z</time></trkpt><trkpt lat="42.186279229712746" lon="13.773545037847258"><ele>816.0</ele><time>2026-05-02T10:50:18.999Z</time></trkpt><trkpt lat="42.1862161415438" lon="13.773643868975116"><ele>816.0</ele><time>2026-05-02T10:50:20.999Z</time></trkpt><trkpt lat="42.18614663888196" lon="13.773753435252994"><ele>816.0</ele><time>2026-05-02T10:50:22.999Z</time></trkpt><trkpt lat="42.18611426316401" lon="13.77382635809523"><ele>816.0</ele><time>2026-05-02T10:50:23.999Z</time></trkpt><trkpt lat="42.18603785884817" lon="13.773947773637728"><ele>816.0</ele><time>2026-05-02T10:50:25.999Z</time></trkpt><trkpt lat="42.18594591550619" lon="13.774055885862492"><ele>816.0</ele><time>2026-05-02T10:50:27.999Z</time></trkpt><trkpt lat="42.18589324890537" lon="13.774126515405188"><ele>816.0</ele><time>2026-05-02T10:50:29.999Z</time></trkpt><trkpt lat="42.185826552563015" lon="13.774190100405573"><ele>816.0</ele><time>2026-05-02T10:50:32.999Z</time></trkpt><trkpt lat="42.18576676107922" lon="13.774291444054327"><ele>816.0</ele><time>2026-05-02T10:50:35.999Z</time></trkpt><trkpt lat="42.185717492102334" lon="13.774395232786611"><ele>816.0</ele><time>2026-05-02T10:50:37.999Z</time></trkpt><trkpt lat="42.1856757281107" lon="13.774489019222736"><ele>816.0</ele><time>2026-05-02T10:50:39.999Z</time></trkpt><trkpt lat="42.185623134623945" lon="13.774550649193895"><ele>816.0</ele><time>2026-05-02T10:50:42.999Z</time></trkpt><trkpt lat="42.18557879256188" lon="13.774640361167261"><ele>810.1666666666666</ele><time>2026-05-02T10:50:45.999Z</time></trkpt><trkpt lat="42.18555300232549" lon="13.77473522722965"><ele>804.3333333333333</ele><time>2026-05-02T10:50:48.999Z</time></trkpt><trkpt lat="42.18555195406486" lon="13.774826140657739"><ele>798.5</ele><time>2026-05-02T10:50:51.999Z</time></trkpt><trkpt lat="42.1855416397572" lon="13.774919306667586"><ele>792.6666666666666</ele><time>2026-05-02T10:50:54.999Z</time></trkpt><trkpt lat="42.18551513615176" lon="13.775011181889784"><ele>786.8333333333333</ele><time>2026-05-02T10:50:57.999Z</time></trkpt><trkpt lat="42.18550987304644" lon="13.77513570039568"><ele>781.0</ele><time>2026-05-02T10:51:00.999Z</time></trkpt><trkpt lat="42.18548346583146" lon="13.775228923170094"><ele>781.0</ele><time>2026-05-02T10:51:03.999Z</time></trkpt><trkpt lat="42.185446294950395" lon="13.77530214400141"><ele>781.0</ele><time>2026-05-02T10:51:06Z</time></trkpt><trkpt lat="42.185404370548824" lon="13.77538821502974"><ele>781.0</ele><time>2026-05-02T10:51:08Z</time></trkpt><trkpt lat="42.18536431965766" lon="13.775454517963977"><ele>781.0</ele><time>2026-05-02T10:51:10Z</time></trkpt><trkpt lat="42.18533861212774" lon="13.775541191815867"><ele>781.0</ele><time>2026-05-02T10:51:14Z</time></trkpt><trkpt lat="42.18532314534846" lon="13.77565715352469"><ele>781.0</ele><time>2026-05-02T10:51:18Z</time></trkpt><trkpt lat="42.18531224986846" lon="13.775763149895099"><ele>781.0</ele><time>2026-05-02T10:51:20Z</time></trkpt><trkpt lat="42.1853010940823" lon="13.775867572908666"><ele>780.9999999999999</ele><time>2026-05-02T10:51:22Z</time></trkpt><trkpt lat="42.1852885013311" lon="13.775975694799827"><ele>781.0</ele><time>2026-05-02T10:51:24Z</time></trkpt><trkpt lat="42.185277307922846" lon="13.776074255175683"><ele>781.0</ele><time>2026-05-02T10:51:26Z</time></trkpt><trkpt lat="42.18527281538735" lon="13.77618677158704"><ele>781.0</ele><time>2026-05-02T10:51:27.999Z</time></trkpt><trkpt lat="42.185270655203034" lon="13.776281450133817"><ele>780.9999999999999</ele><time>2026-05-02T10:51:29.999Z</time></trkpt><trkpt lat="42.18527217008629" lon="13.776381047255523"><ele>781.0</ele><time>2026-05-02T10:51:31.999Z</time></trkpt><trkpt lat="42.18525963733116" lon="13.776511788672442"><ele>780.8333333333333</ele><time>2026-05-02T10:51:34.999Z</time></trkpt><trkpt lat="42.185256789978446" lon="13.776621136249693"><ele>780.6666666666666</ele><time>2026-05-02T10:51:36.999Z</time></trkpt><trkpt lat="42.18524347558753" lon="13.776720341246556"><ele>780.5</ele><time>2026-05-02T10:51:38.999Z</time></trkpt><trkpt lat="42.18524061587897" lon="13.776825749087903"><ele>780.3333333333333</ele><time>2026-05-02T10:51:40.999Z</time></trkpt><trkpt lat="42.18522780938701" lon="13.776926057185443"><ele>780.1666666666666</ele><time>2026-05-02T10:51:42.999Z</time></trkpt><trkpt lat="42.185218887105194" lon="13.77703207188406"><ele>780.0</ele><time>2026-05-02T10:51:44.999Z</time></trkpt><trkpt lat="42.18520047988717" lon="13.777119000688556"><ele>780.3333333333334</ele><time>2026-05-02T10:51:46.999Z</time></trkpt><trkpt lat="42.18516423501213" lon="13.777213663400573"><ele>780.6666666666667</ele><time>2026-05-02T10:51:48.999Z</time></trkpt><trkpt lat="42.185129062836495" lon="13.777295464667649"><ele>781.0</ele><time>2026-05-02T10:51:50.999Z</time></trkpt><trkpt lat="42.18509034761922" lon="13.777384270806625"><ele>781.3333333333334</ele><time>2026-05-02T10:51:52.999Z</time></trkpt><trkpt lat="42.185041645386114" lon="13.777488110731236"><ele>781.6666666666667</ele><time>2026-05-02T10:51:54.999Z</time></trkpt><trkpt lat="42.18500427491286" lon="13.777616729663254"><ele>782.0</ele><time>2026-05-02T10:51:56.999Z</time></trkpt><trkpt lat="42.184968922977454" lon="13.777746949987037"><ele>782.0000000000001</ele><time>2026-05-02T10:51:58.999Z</time></trkpt><trkpt lat="42.18493198811885" lon="13.777881597507212"><ele>782.0</ele><time>2026-05-02T10:52:00.999Z</time></trkpt><trkpt lat="42.18490517008221" lon="13.77799898168886"><ele>782.0</ele><time>2026-05-02T10:52:02.999Z</time></trkpt><trkpt lat="42.18488716266668" lon="13.778110235679277"><ele>782.0</ele><time>2026-05-02T10:52:04.999Z</time></trkpt><trkpt lat="42.184882967945214" lon="13.778224862621618"><ele>782.0000000000001</ele><time>2026-05-02T10:52:06.999Z</time></trkpt><trkpt lat="42.184865122120705" lon="13.778333605069754"><ele>782.0</ele><time>2026-05-02T10:52:08.999Z</time></trkpt><trkpt lat="42.18485357078784" lon="13.778437900115387"><ele>781.1666666666667</ele><time>2026-05-02T10:52:10.999Z</time></trkpt><trkpt lat="42.184850463647706" lon="13.778545479461092"><ele>780.3333333333334</ele><time>2026-05-02T10:52:12.999Z</time></trkpt><trkpt lat="42.1848524265358" lon="13.778669921970746"><ele>779.5</ele><time>2026-05-02T10:52:14.999Z</time></trkpt><trkpt lat="42.184855090109444" lon="13.778777907376783"><ele>778.6666666666667</ele><time>2026-05-02T10:52:16.999Z</time></trkpt><trkpt lat="42.18485852866531" lon="13.778894180903484"><ele>777.8333333333334</ele><time>2026-05-02T10:52:18.999Z</time></trkpt><trkpt lat="42.18488214692152" lon="13.7790166652458"><ele>777.0</ele><time>2026-05-02T10:52:20.999Z</time></trkpt><trkpt lat="42.18489473188427" lon="13.779131125451471"><ele>777.0</ele><time>2026-05-02T10:52:22.999Z</time></trkpt><trkpt lat="42.18489817772811" lon="13.779246588387007"><ele>777.0</ele><time>2026-05-02T10:52:24.999Z</time></trkpt><trkpt lat="42.18489538429735" lon="13.77934588090399"><ele>777.0</ele><time>2026-05-02T10:52:26.999Z</time></trkpt><trkpt lat="42.18487783471564" lon="13.779476495201997"><ele>777.0</ele><time>2026-05-02T10:52:29.999Z</time></trkpt><trkpt lat="42.184870839349884" lon="13.779566013723715"><ele>777.0</ele><time>2026-05-02T10:52:31.999Z</time></trkpt><trkpt lat="42.184871139856405" lon="13.779665407156298"><ele>777.0</ele><time>2026-05-02T10:52:33.999Z</time></trkpt><trkpt lat="42.184877779682765" lon="13.779757770953456"><ele>775.5</ele><time>2026-05-02T10:52:35.999Z</time></trkpt><trkpt lat="42.1848754675414" lon="13.779845210217026"><ele>774.0</ele><time>2026-05-02T10:52:37.999Z</time></trkpt><trkpt lat="42.18489990465666" lon="13.779931988893733"><ele>772.5</ele><time>2026-05-02T10:52:39.999Z</time></trkpt><trkpt lat="42.1849303237309" lon="13.78003131897183"><ele>771.0</ele><time>2026-05-02T10:52:41.999Z</time></trkpt><trkpt lat="42.1849519889053" lon="13.780151193345143"><ele>769.5</ele><time>2026-05-02T10:52:43.999Z</time></trkpt><trkpt lat="42.18498127884147" lon="13.78028397621673"><ele>768.0</ele><time>2026-05-02T10:52:45.999Z</time></trkpt><trkpt lat="42.185010976405295" lon="13.780413344778472"><ele>765.0</ele><time>2026-05-02T10:52:47.999Z</time></trkpt><trkpt lat="42.18504316782746" lon="13.780524286669317"><ele>762.0</ele><time>2026-05-02T10:52:49.999Z</time></trkpt><trkpt lat="42.18507983168644" lon="13.780628071798633"><ele>759.0</ele><time>2026-05-02T10:52:52.999Z</time></trkpt><trkpt lat="42.18511027661897" lon="13.780709988397902"><ele>756.0</ele><time>2026-05-02T10:52:54.999Z</time></trkpt><trkpt lat="42.1851387941551" lon="13.780815107343265"><ele>753.0</ele><time>2026-05-02T10:52:56.999Z</time></trkpt><trkpt lat="42.18517221415057" lon="13.780895644254416"><ele>750.0</ele><time>2026-05-02T10:52:58.999Z</time></trkpt><trkpt lat="42.18520905100728" lon="13.780985962504419"><ele>747.5</ele><time>2026-05-02T10:53:00.999Z</time></trkpt><trkpt lat="42.18524375078611" lon="13.781098071401285"><ele>745.0</ele><time>2026-05-02T10:53:03.998Z</time></trkpt><trkpt lat="42.185265172492954" lon="13.781184968089388"><ele>742.5</ele><time>2026-05-02T10:53:05.998Z</time></trkpt><trkpt lat="42.185286960061866" lon="13.781287877996725"><ele>740.0</ele><time>2026-05-02T10:53:07.998Z</time></trkpt><trkpt lat="42.18531719242138" lon="13.781377325347854"><ele>737.5</ele><time>2026-05-02T10:53:09.998Z</time></trkpt><trkpt lat="42.18537396841463" lon="13.781485796410191"><ele>735.0</ele><time>2026-05-02T10:53:11.999Z</time></trkpt><trkpt lat="42.185403273613744" lon="13.78157518890391"><ele>735.0</ele><time>2026-05-02T10:53:13.999Z</time></trkpt><trkpt lat="42.18542003607891" lon="13.781692108037808"><ele>735.0</ele><time>2026-05-02T10:53:15.999Z</time></trkpt><trkpt lat="42.18545751635123" lon="13.781826232089584"><ele>735.0</ele><time>2026-05-02T10:53:17.999Z</time></trkpt><trkpt lat="42.18547854600504" lon="13.781971114027058"><ele>735.0</ele><time>2026-05-02T10:53:19.999Z</time></trkpt><trkpt lat="42.18551245356407" lon="13.782106019360356"><ele>735.0</ele><time>2026-05-02T10:53:21.999Z</time></trkpt><trkpt lat="42.18553832909714" lon="13.782239550584586"><ele>733.3333333333334</ele><time>2026-05-02T10:53:23.999Z</time></trkpt><trkpt lat="42.18554890683048" lon="13.78235267348384"><ele>731.6666666666666</ele><time>2026-05-02T10:53:25.999Z</time></trkpt><trkpt lat="42.185557709410595" lon="13.78244656729887"><ele>730.0</ele><time>2026-05-02T10:53:27.999Z</time></trkpt><trkpt lat="42.18556292598504" lon="13.782541881982851"><ele>728.3333333333333</ele><time>2026-05-02T10:53:29.999Z</time></trkpt><trkpt lat="42.18555324103494" lon="13.782640523368983"><ele>726.6666666666666</ele><time>2026-05-02T10:53:32.999Z</time></trkpt><trkpt lat="42.185529147265726" lon="13.78273943621831"><ele>725.0</ele><time>2026-05-02T10:53:36.999Z</time></trkpt><trkpt lat="42.1855313668481" lon="13.782861605259715"><ele>723.0</ele><time>2026-05-02T10:53:40.999Z</time></trkpt><trkpt lat="42.185554948976886" lon="13.782987578431927"><ele>721.0</ele><time>2026-05-02T10:53:42.999Z</time></trkpt><trkpt lat="42.18557517161734" lon="13.783110060051392"><ele>719.0</ele><time>2026-05-02T10:53:44.999Z</time></trkpt><trkpt lat="42.18561472481936" lon="13.783238289046558"><ele>717.0</ele><time>2026-05-02T10:53:46.999Z</time></trkpt><trkpt lat="42.18565316836702" lon="13.783374509511997"><ele>715.0</ele><time>2026-05-02T10:53:48.999Z</time></trkpt><trkpt lat="42.18570423200883" lon="13.7834750506946"><ele>719.6666666666667</ele><time>2026-05-02T10:53:50.999Z</time></trkpt><trkpt lat="42.1857274728691" lon="13.783571574851516"><ele>724.3333333333334</ele><time>2026-05-02T10:53:52.999Z</time></trkpt><trkpt lat="42.18577240874245" lon="13.783709415704744"><ele>729.0</ele><time>2026-05-02T10:53:54.999Z</time></trkpt><trkpt lat="42.18581744664741" lon="13.783806699868991"><ele>733.6666666666666</ele><time>2026-05-02T10:53:56.999Z</time></trkpt><trkpt lat="42.185847199460774" lon="13.783908570544193"><ele>738.3333333333333</ele><time>2026-05-02T10:53:59.999Z</time></trkpt><trkpt lat="42.185865644544315" lon="13.783995975405809"><ele>743.0</ele><time>2026-05-02T10:54:01.999Z</time></trkpt><trkpt lat="42.18591369435874" lon="13.784092324206563"><ele>743.0</ele><time>2026-05-02T10:54:03.999Z</time></trkpt><trkpt lat="42.185952708946516" lon="13.784190969910496"><ele>743.0</ele><time>2026-05-02T10:54:05.999Z</time></trkpt><trkpt lat="42.186012190117594" lon="13.784302273842666"><ele>743.0</ele><time>2026-05-02T10:54:07.999Z</time></trkpt><trkpt lat="42.18604035421419" lon="13.784412540791996"><ele>743.0</ele><time>2026-05-02T10:54:09.999Z</time></trkpt><trkpt lat="42.186059427462105" lon="13.784520086879953"><ele>743.0</ele><time>2026-05-02T10:54:11.999Z</time></trkpt><trkpt lat="42.18609038714828" lon="13.784625308199269"><ele>743.0</ele><time>2026-05-02T10:54:13.999Z</time></trkpt><trkpt lat="42.18613085183886" lon="13.784726997320652"><ele>740.0</ele><time>2026-05-02T10:54:15.999Z</time></trkpt><trkpt lat="42.186160009888" lon="13.784836585443502"><ele>737.0</ele><time>2026-05-02T10:54:17.999Z</time></trkpt><trkpt lat="42.186194245725034" lon="13.784954811990508"><ele>734.0</ele><time>2026-05-02T10:54:19.999Z</time></trkpt><trkpt lat="42.18623099578212" lon="13.785090829674282"><ele>731.0</ele><time>2026-05-02T10:54:21.999Z</time></trkpt><trkpt lat="42.18626518990203" lon="13.785195350901835"><ele>728.0</ele><time>2026-05-02T10:54:23.999Z</time></trkpt><trkpt lat="42.186300625682605" lon="13.785300409174685"><ele>726.1666666666666</ele><time>2026-05-02T10:54:25.999Z</time></trkpt><trkpt lat="42.186330984358555" lon="13.78540615571182"><ele>724.3333333333333</ele><time>2026-05-02T10:54:28.999Z</time></trkpt><trkpt lat="42.18631891425764" lon="13.785535419977128"><ele>722.5</ele><time>2026-05-02T10:54:31.999Z</time></trkpt><trkpt lat="42.18632575398561" lon="13.785657365394194"><ele>720.6666666666666</ele><time>2026-05-02T10:54:33.999Z</time></trkpt><trkpt lat="42.18633060541821" lon="13.785765935269822"><ele>718.8333333333334</ele><time>2026-05-02T10:54:35.999Z</time></trkpt><trkpt lat="42.186321036939205" lon="13.785871276562395"><ele>717.0</ele><time>2026-05-02T10:54:37.999Z</time></trkpt><trkpt lat="42.18630375628302" lon="13.785963422929123"><ele>714.8</ele><time>2026-05-02T10:54:39.999Z</time></trkpt><trkpt lat="42.18630503044135" lon="13.786059873360632"><ele>712.6</ele><time>2026-05-02T10:54:41.999Z</time></trkpt><trkpt lat="42.186320224208494" lon="13.786193840414462"><ele>710.4</ele><time>2026-05-02T10:54:43.999Z</time></trkpt><trkpt lat="42.18634861623881" lon="13.786325032009145"><ele>708.1999999999999</ele><time>2026-05-02T10:54:45.999Z</time></trkpt><trkpt lat="42.186376089815376" lon="13.786453742916734"><ele>706.0</ele><time>2026-05-02T10:54:47.999Z</time></trkpt><trkpt lat="42.18640517300695" lon="13.78657222627369"><ele>706.0</ele><time>2026-05-02T10:54:49.999Z</time></trkpt><trkpt lat="42.186441475888486" lon="13.786665348975058"><ele>706.0</ele><time>2026-05-02T10:54:51.999Z</time></trkpt><trkpt lat="42.186459766679015" lon="13.786777307105483"><ele>706.0</ele><time>2026-05-02T10:54:54.999Z</time></trkpt><trkpt lat="42.18649564971196" lon="13.786884289341721"><ele>706.0</ele><time>2026-05-02T10:54:57.999Z</time></trkpt><trkpt lat="42.18655098824147" lon="13.786969803010756"><ele>706.0</ele><time>2026-05-02T10:54:59.999Z</time></trkpt><trkpt lat="42.186598314300916" lon="13.78706038688437"><ele>706.0</ele><time>2026-05-02T10:55:01.999Z</time></trkpt><trkpt lat="42.186625196540135" lon="13.787151148292276"><ele>713.6666666666667</ele><time>2026-05-02T10:55:03.999Z</time></trkpt><trkpt lat="42.18666149177008" lon="13.787261236139866"><ele>721.3333333333334</ele><time>2026-05-02T10:55:05.998Z</time></trkpt><trkpt lat="42.18669172346624" lon="13.787363194595482"><ele>729.0</ele><time>2026-05-02T10:55:07.998Z</time></trkpt><trkpt lat="42.18672338769687" lon="13.787479177638645"><ele>736.6666666666666</ele><time>2026-05-02T10:55:10.998Z</time></trkpt><trkpt lat="42.1867464698656" lon="13.787610843030116"><ele>744.3333333333333</ele><time>2026-05-02T10:55:13.998Z</time></trkpt><trkpt lat="42.1867455270033" lon="13.787698115595177"><ele>752.0</ele><time>2026-05-02T10:55:17Z</time></trkpt><trkpt lat="42.186741092197146" lon="13.787788440515"><ele>752.6</ele><time>2026-05-02T10:55:18Z</time></trkpt><trkpt lat="42.18674645750533" lon="13.787941182237127"><ele>753.2</ele><time>2026-05-02T10:55:20Z</time></trkpt><trkpt lat="42.186753696096005" lon="13.788078021464022"><ele>753.8</ele><time>2026-05-02T10:55:22Z</time></trkpt><trkpt lat="42.18676113491084" lon="13.788180780973317"><ele>754.4</ele><time>2026-05-02T10:55:24Z</time></trkpt><trkpt lat="42.186756847925416" lon="13.788287777852823"><ele>755.0</ele><time>2026-05-02T10:55:26Z</time></trkpt><trkpt lat="42.18676416303444" lon="13.788401195480152"><ele>756.8</ele><time>2026-05-02T10:55:28Z</time></trkpt><trkpt lat="42.18677771912095" lon="13.788537973273012"><ele>758.6</ele><time>2026-05-02T10:55:31Z</time></trkpt><trkpt lat="42.18674919967726" lon="13.788656501976503"><ele>760.4000000000001</ele><time>2026-05-02T10:55:33Z</time></trkpt><trkpt lat="42.18674271824765" lon="13.788780065221964"><ele>762.2</ele><time>2026-05-02T10:55:34.999Z</time></trkpt><trkpt lat="42.18673269485143" lon="13.788893498133998"><ele>764.0</ele><time>2026-05-02T10:55:37.999Z</time></trkpt><trkpt lat="42.18673160036457" lon="13.789011338874326"><ele>764.0</ele><time>2026-05-02T10:55:39.999Z</time></trkpt><trkpt lat="42.186712672186076" lon="13.789116596684842"><ele>764.0</ele><time>2026-05-02T10:55:41.999Z</time></trkpt><trkpt lat="42.18670904478315" lon="13.789223946472811"><ele>764.0</ele><time>2026-05-02T10:55:43.999Z</time></trkpt><trkpt lat="42.186708331202986" lon="13.78934552846085"><ele>764.0</ele><time>2026-05-02T10:55:45.999Z</time></trkpt><trkpt lat="42.18668375162827" lon="13.78945675201256"><ele>764.0</ele><time>2026-05-02T10:55:47.999Z</time></trkpt><trkpt lat="42.18667749674136" lon="13.78962022963252"><ele>766.0</ele><time>2026-05-02T10:55:49.999Z</time></trkpt><trkpt lat="42.186665248133046" lon="13.789755799003467"><ele>768.0</ele><time>2026-05-02T10:55:51.999Z</time></trkpt><trkpt lat="42.18666307641069" lon="13.78991340177495"><ele>770.0</ele><time>2026-05-02T10:55:53.999Z</time></trkpt><trkpt lat="42.18666310653808" lon="13.790015523283632"><ele>772.0</ele><time>2026-05-02T10:55:55.999Z</time></trkpt><trkpt lat="42.18667511847179" lon="13.790135402817896"><ele>774.0</ele><time>2026-05-02T10:55:57.999Z</time></trkpt><trkpt lat="42.18667633061533" lon="13.790259469549948"><ele>774.6666666666666</ele><time>2026-05-02T10:55:59.999Z</time></trkpt><trkpt lat="42.1866721434552" lon="13.79038670392637"><ele>775.3333333333333</ele><time>2026-05-02T10:56:01.999Z</time></trkpt><trkpt lat="42.18668992236802" lon="13.790469893946861"><ele>776.0</ele><time>2026-05-02T10:56:03.999Z</time></trkpt><trkpt lat="42.18670763339033" lon="13.790561725601252"><ele>776.6666666666666</ele><time>2026-05-02T10:56:06.999Z</time></trkpt><trkpt lat="42.18673885001434" lon="13.790670614554942"><ele>777.3333333333333</ele><time>2026-05-02T10:56:09.999Z</time></trkpt><trkpt lat="42.18674843664744" lon="13.790760279736551"><ele>778.0</ele><time>2026-05-02T10:56:11.999Z</time></trkpt><trkpt lat="42.18676808446997" lon="13.790846935388549"><ele>778.0</ele><time>2026-05-02T10:56:14.999Z</time></trkpt><trkpt lat="42.18678989433274" lon="13.790943992596084"><ele>778.0</ele><time>2026-05-02T10:56:17.999Z</time></trkpt><trkpt lat="42.186800630820436" lon="13.791031560798515"><ele>778.0</ele><time>2026-05-02T10:56:18.999Z</time></trkpt><trkpt lat="42.18680984634609" lon="13.791174735213843"><ele>778.0</ele><time>2026-05-02T10:56:21.999Z</time></trkpt><trkpt lat="42.18682248591376" lon="13.791310408588638"><ele>778.0</ele><time>2026-05-02T10:56:23.999Z</time></trkpt><trkpt lat="42.18689245323425" lon="13.791523620573967"><ele>776.6666666666666</ele><time>2026-05-02T10:56:26.999Z</time></trkpt><trkpt lat="42.18695942618874" lon="13.791559693594055"><ele>775.3333333333333</ele><time>2026-05-02T10:56:29.999Z</time></trkpt><trkpt lat="42.1870071030562" lon="13.791663461931408"><ele>774.0</ele><time>2026-05-02T10:57:11.999Z</time></trkpt><trkpt lat="42.18705172900219" lon="13.791776093108036"><ele>772.6666666666667</ele><time>2026-05-02T10:57:14.998Z</time></trkpt><trkpt lat="42.1871055373944" lon="13.791859763178465"><ele>771.3333333333334</ele><time>2026-05-02T10:57:17.998Z</time></trkpt><trkpt lat="42.187164359264365" lon="13.791905159277617"><ele>770.0</ele><time>2026-05-02T10:57:21.998Z</time></trkpt><trkpt lat="42.1872285210784" lon="13.791964178199436"><ele>767.2857142857143</ele><time>2026-05-02T10:57:35Z</time></trkpt><trkpt lat="42.1872431139767" lon="13.792069699942411"><ele>764.5714285714286</ele><time>2026-05-02T10:57:40Z</time></trkpt><trkpt lat="42.18724965726238" lon="13.792168847570883"><ele>761.8571428571429</ele><time>2026-05-02T10:57:41.999Z</time></trkpt><trkpt lat="42.187256239506276" lon="13.79226249129828"><ele>759.1428571428571</ele><time>2026-05-02T10:57:43.999Z</time></trkpt><trkpt lat="42.187264025544934" lon="13.792347362828755"><ele>756.4285714285714</ele><time>2026-05-02T10:57:45.999Z</time></trkpt><trkpt lat="42.1872706306771" lon="13.79245970644828"><ele>753.7142857142858</ele><time>2026-05-02T10:57:47.999Z</time></trkpt><trkpt lat="42.187295281006456" lon="13.792554326325712"><ele>751.0</ele><time>2026-05-02T10:57:49.999Z</time></trkpt><trkpt lat="42.18731316666357" lon="13.79265344918114"><ele>753.0</ele><time>2026-05-02T10:57:51.999Z</time></trkpt><trkpt lat="42.18731800093045" lon="13.792766454608328"><ele>755.0</ele><time>2026-05-02T10:57:53.999Z</time></trkpt><trkpt lat="42.18735545223427" lon="13.792898747013101"><ele>757.0</ele><time>2026-05-02T10:57:55.999Z</time></trkpt><trkpt lat="42.18739541692858" lon="13.793019006186814"><ele>759.0</ele><time>2026-05-02T10:57:57.999Z</time></trkpt><trkpt lat="42.18742735287524" lon="13.793155542117816"><ele>761.0</ele><time>2026-05-02T10:57:59.999Z</time></trkpt><trkpt lat="42.187465395890854" lon="13.793264660393257"><ele>761.0</ele><time>2026-05-02T10:58:01.999Z</time></trkpt><trkpt lat="42.18751937682381" lon="13.793380161741954"><ele>761.0</ele><time>2026-05-02T10:58:03.999Z</time></trkpt><trkpt lat="42.18754357921326" lon="13.79346378522503"><ele>761.0</ele><time>2026-05-02T10:58:04.999Z</time></trkpt><trkpt lat="42.18756257217312" lon="13.793558674214779"><ele>761.0</ele><time>2026-05-02T10:58:05.999Z</time></trkpt><trkpt lat="42.18758683009482" lon="13.79363795156251"><ele>761.0</ele><time>2026-05-02T10:58:06.999Z</time></trkpt><trkpt lat="42.18766462153051" lon="13.793779674572152"><ele>761.0</ele><time>2026-05-02T10:58:08.999Z</time></trkpt><trkpt lat="42.187702299113965" lon="13.793859604680286"><ele>759.0</ele><time>2026-05-02T10:58:09.999Z</time></trkpt><trkpt lat="42.18774106651173" lon="13.793984694377667"><ele>757.0</ele><time>2026-05-02T10:58:11.999Z</time></trkpt><trkpt lat="42.18777262431738" lon="13.794059479382865"><ele>755.0</ele><time>2026-05-02T10:58:12.999Z</time></trkpt><trkpt lat="42.18782501158392" lon="13.794196218087228"><ele>753.0</ele><time>2026-05-02T10:58:14.999Z</time></trkpt><trkpt lat="42.18787920451838" lon="13.79428982962061"><ele>751.0</ele><time>2026-05-02T10:58:16.999Z</time></trkpt><trkpt lat="42.187926410199495" lon="13.794353854991892"><ele>749.0</ele><time>2026-05-02T10:58:18.999Z</time></trkpt><trkpt lat="42.187973517646284" lon="13.79441715456695"><ele>749.1666666666666</ele><time>2026-05-02T10:59:09.999Z</time></trkpt><trkpt lat="42.18800668627109" lon="13.794500673600833"><ele>749.3333333333333</ele><time>2026-05-02T10:59:12.999Z</time></trkpt><trkpt lat="42.18805523871209" lon="13.79460280648919"><ele>749.5</ele><time>2026-05-02T10:59:15.999Z</time></trkpt><trkpt lat="42.18810378023502" lon="13.794677333786563"><ele>749.6666666666666</ele><time>2026-05-02T10:59:17.999Z</time></trkpt><trkpt lat="42.188164537092774" lon="13.794755172981976"><ele>749.8333333333334</ele><time>2026-05-02T10:59:19.998Z</time></trkpt><trkpt lat="42.1882110370469" lon="13.794853678446716"><ele>750.0</ele><time>2026-05-02T10:59:21.998Z</time></trkpt><trkpt lat="42.18826919245493" lon="13.794952752751882"><ele>750.0</ele><time>2026-05-02T10:59:23.998Z</time></trkpt><trkpt lat="42.18831753843452" lon="13.795025838119878"><ele>750.0</ele><time>2026-05-02T10:59:25.998Z</time></trkpt><trkpt lat="42.18837097230905" lon="13.795109529610286"><ele>750.0</ele><time>2026-05-02T10:59:29Z</time></trkpt><trkpt lat="42.18840328748301" lon="13.795184858046085"><ele>750.0</ele><time>2026-05-02T10:59:31Z</time></trkpt><trkpt lat="42.18843598641262" lon="13.795273440451874"><ele>750.0</ele><time>2026-05-02T10:59:58.999Z</time></trkpt><trkpt lat="42.18846733923323" lon="13.795357030359797"><ele>750.0</ele><time>2026-05-02T11:00:01.999Z</time></trkpt><trkpt lat="42.18851941819835" lon="13.795458071336219"><ele>748.1666666666666</ele><time>2026-05-02T11:00:04.999Z</time></trkpt><trkpt lat="42.18856867480261" lon="13.795525764055089"><ele>746.3333333333334</ele><time>2026-05-02T11:00:06.999Z</time></trkpt><trkpt lat="42.18862206997901" lon="13.795579136874286"><ele>744.5</ele><time>2026-05-02T11:00:08.999Z</time></trkpt><trkpt lat="42.188673319793054" lon="13.795667969228338"><ele>742.6666666666667</ele><time>2026-05-02T11:00:10.999Z</time></trkpt><trkpt lat="42.18872602506548" lon="13.795772770001953"><ele>740.8333333333334</ele><time>2026-05-02T11:00:13.999Z</time></trkpt><trkpt lat="42.18876860444059" lon="13.795861819157626"><ele>739.0</ele><time>2026-05-02T11:00:16.999Z</time></trkpt><trkpt lat="42.18881497980367" lon="13.795948166606003"><ele>736.5</ele><time>2026-05-02T11:00:19.999Z</time></trkpt><trkpt lat="42.18883726963476" lon="13.796029789608413"><ele>734.0</ele><time>2026-05-02T11:00:21.999Z</time></trkpt><trkpt lat="42.18887334698951" lon="13.796117378005276"><ele>731.5</ele><time>2026-05-02T11:00:23.999Z</time></trkpt><trkpt lat="42.1889210620483" lon="13.796215239940814"><ele>729.0</ele><time>2026-05-02T11:00:26.999Z</time></trkpt><trkpt lat="42.18897921019075" lon="13.796302650887261"><ele>726.5</ele><time>2026-05-02T11:00:29.999Z</time></trkpt><trkpt lat="42.189025326055734" lon="13.796379175046054"><ele>724.0</ele><time>2026-05-02T11:00:32.999Z</time></trkpt><trkpt lat="42.18907038924331" lon="13.796441190884039"><ele>724.0</ele><time>2026-05-02T11:00:35.999Z</time></trkpt><trkpt lat="42.189120576182404" lon="13.796525448558198"><ele>724.0</ele><time>2026-05-02T11:00:39.999Z</time></trkpt><trkpt lat="42.18916239431915" lon="13.796614340723867"><ele>724.0</ele><time>2026-05-02T11:00:44.999Z</time></trkpt><trkpt lat="42.189220743427626" lon="13.796698388907792"><ele>724.0</ele><time>2026-05-02T11:00:48.999Z</time></trkpt><trkpt lat="42.18927023757031" lon="13.796758193061118"><ele>724.0</ele><time>2026-05-02T11:00:51.999Z</time></trkpt><trkpt lat="42.1893250849936" lon="13.796832972983845"><ele>724.0</ele><time>2026-05-02T11:00:54.999Z</time></trkpt><trkpt lat="42.189369079820686" lon="13.796919727095347"><ele>721.5</ele><time>2026-05-02T11:00:58.999Z</time></trkpt><trkpt lat="42.189439774954785" lon="13.796992813416288"><ele>719.0</ele><time>2026-05-02T11:01:54.001Z</time></trkpt><trkpt lat="42.18950309930019" lon="13.797073387902923"><ele>716.5</ele><time>2026-05-02T11:01:58.001Z</time></trkpt><trkpt lat="42.189545114673905" lon="13.797148768665577"><ele>714.0</ele><time>2026-05-02T11:02:02Z</time></trkpt><trkpt lat="42.189592936925834" lon="13.797238861899713"><ele>711.5</ele><time>2026-05-02T11:02:06Z</time></trkpt><trkpt lat="42.18963500043646" lon="13.797312272113905"><ele>709.0</ele><time>2026-05-02T11:02:10Z</time></trkpt><trkpt lat="42.18967389050947" lon="13.797380130192394"><ele>709.0</ele><time>2026-05-02T11:02:16Z</time></trkpt><trkpt lat="42.189708206724134" lon="13.797459126178895"><ele>709.0</ele><time>2026-05-02T11:02:19Z</time></trkpt><trkpt lat="42.18976961077266" lon="13.797540817361542"><ele>709.0</ele><time>2026-05-02T11:02:23Z</time></trkpt><trkpt lat="42.18981327274924" lon="13.797610713742642"><ele>709.0</ele><time>2026-05-02T11:02:26Z</time></trkpt><trkpt lat="42.18984982795985" lon="13.797710845860669"><ele>709.0</ele><time>2026-05-02T11:02:30Z</time></trkpt><trkpt lat="42.1898955208948" lon="13.797803020536085"><ele>709.0</ele><time>2026-05-02T11:02:34Z</time></trkpt><trkpt lat="42.18993601650632" lon="13.797883222360658"><ele>705.3333333333334</ele><time>2026-05-02T11:02:38Z</time></trkpt><trkpt lat="42.189938274893514" lon="13.798009705227283"><ele>701.6666666666667</ele><time>2026-05-02T11:02:44Z</time></trkpt><trkpt lat="42.18995620914597" lon="13.798110701481342"><ele>698.0</ele><time>2026-05-02T11:02:49Z</time></trkpt><trkpt lat="42.18996345570248" lon="13.798211505888228"><ele>694.3333333333334</ele><time>2026-05-02T11:03:06Z</time></trkpt><trkpt lat="42.189968342796895" lon="13.798300158631152"><ele>690.6666666666666</ele><time>2026-05-02T11:03:18Z</time></trkpt><trkpt lat="42.18997732137678" lon="13.79839499076897"><ele>687.0</ele><time>2026-05-02T11:03:27.999Z</time></trkpt><trkpt lat="42.18997811346127" lon="13.798492894193739"><ele>684.0</ele><time>2026-05-02T11:03:32.999Z</time></trkpt><trkpt lat="42.1899888762039" lon="13.798578592224919"><ele>681.0</ele><time>2026-05-02T11:03:50.001Z</time></trkpt><trkpt lat="42.19000639377943" lon="13.79866729496064"><ele>678.0</ele><time>2026-05-02T11:04:28Z</time></trkpt><trkpt lat="42.19002343119559" lon="13.798753928538288"><ele>675.0</ele><time>2026-05-02T11:04:42Z</time></trkpt><trkpt lat="42.190039620820656" lon="13.798847455119686"><ele>672.0</ele><time>2026-05-02T11:04:46Z</time></trkpt><trkpt lat="42.19005137184152" lon="13.798936132871487"><ele>669.0</ele><time>2026-05-02T11:04:49Z</time></trkpt><trkpt lat="42.19007056524615" lon="13.799029291420085"><ele>666.0</ele><time>2026-05-02T11:04:54Z</time></trkpt><trkpt lat="42.19009573732937" lon="13.79916030562761"><ele>666.0</ele><time>2026-05-02T11:04:57Z</time></trkpt><trkpt lat="42.19012210372962" lon="13.799274406843919"><ele>666.0</ele><time>2026-05-02T11:05:00Z</time></trkpt><trkpt lat="42.19016172755263" lon="13.799352099131164"><ele>666.0</ele><time>2026-05-02T11:05:02Z</time></trkpt><trkpt lat="42.19020139735154" lon="13.799442327592049"><ele>666.0</ele><time>2026-05-02T11:05:04Z</time></trkpt><trkpt lat="42.190235316923236" lon="13.799522864921723"><ele>666.0</ele><time>2026-05-02T11:05:06Z</time></trkpt><trkpt lat="42.19027424315206" lon="13.799625171813705"><ele>666.0</ele><time>2026-05-02T11:05:08Z</time></trkpt><trkpt lat="42.19031042575253" lon="13.799722459903954"><ele>663.8571428571429</ele><time>2026-05-02T11:05:10Z</time></trkpt><trkpt lat="42.190352486966034" lon="13.799799775781104"><ele>661.7142857142857</ele><time>2026-05-02T11:05:12Z</time></trkpt><trkpt lat="42.19038364994952" lon="13.799880550004403"><ele>659.5714285714286</ele><time>2026-05-02T11:05:15Z</time></trkpt><trkpt lat="42.19043242486542" lon="13.79996312685788"><ele>657.4285714285714</ele><time>2026-05-02T11:05:21Z</time></trkpt><trkpt lat="42.19040335351976" lon="13.800068063098442"><ele>655.2857142857142</ele><time>2026-05-02T11:07:04Z</time></trkpt><trkpt lat="42.19035669725823" lon="13.800127562835257"><ele>653.1428571428571</ele><time>2026-05-02T11:07:05Z</time></trkpt><trkpt lat="42.190311751763616" lon="13.800200235135181"><ele>651.0</ele><time>2026-05-02T11:07:06Z</time></trkpt><trkpt lat="42.1902740198275" lon="13.80027991762549"><ele>650.5</ele><time>2026-05-02T11:07:07Z</time></trkpt><trkpt lat="42.19023247709857" lon="13.800363065906675"><ele>650.0</ele><time>2026-05-02T11:07:08Z</time></trkpt><trkpt lat="42.19018041038791" lon="13.800437469305226"><ele>649.5</ele><time>2026-05-02T11:07:09Z</time></trkpt><trkpt lat="42.19011132914083" lon="13.800498120363244"><ele>649.0</ele><time>2026-05-02T11:07:10Z</time></trkpt><trkpt lat="42.19002602912681" lon="13.80052098656886"><ele>648.5</ele><time>2026-05-02T11:07:11Z</time></trkpt><trkpt lat="42.189926711909315" lon="13.80050092553239"><ele>648.0</ele><time>2026-05-02T11:07:12Z</time></trkpt><trkpt lat="42.18981502761163" lon="13.800469451191631"><ele>644.75</ele><time>2026-05-02T11:07:13Z</time></trkpt><trkpt lat="42.18970344626632" lon="13.800427929342032"><ele>641.5</ele><time>2026-05-02T11:07:14Z</time></trkpt><trkpt lat="42.18959036229566" lon="13.800377220628732"><ele>638.25</ele><time>2026-05-02T11:07:15Z</time></trkpt><trkpt lat="42.18947981058977" lon="13.800310610304473"><ele>635.0</ele><time>2026-05-02T11:07:16Z</time></trkpt><trkpt lat="42.18936965017887" lon="13.800226647495752"><ele>637.0</ele><time>2026-05-02T11:07:17Z</time></trkpt><trkpt lat="42.18925694957188" lon="13.800134563762"><ele>639.0</ele><time>2026-05-02T11:07:18Z</time></trkpt><trkpt lat="42.18914826435229" lon="13.80003642661462"><ele>641.0</ele><time>2026-05-02T11:07:19Z</time></trkpt><trkpt lat="42.18903977834014" lon="13.799940328873731"><ele>643.0</ele><time>2026-05-02T11:07:20Z</time></trkpt><trkpt lat="42.18893267251265" lon="13.799855091322957"><ele>637.75</ele><time>2026-05-02T11:07:21Z</time></trkpt><trkpt lat="42.188816270521315" lon="13.79978392864866"><ele>632.5</ele><time>2026-05-02T11:07:22Z</time></trkpt><trkpt lat="42.18869104035729" lon="13.799726332066976"><ele>627.25</ele><time>2026-05-02T11:07:23Z</time></trkpt><trkpt lat="42.18856042281673" lon="13.79968870457938"><ele>622.0</ele><time>2026-05-02T11:07:24Z</time></trkpt><trkpt lat="42.188425628314135" lon="13.79967417752122"><ele>622.0</ele><time>2026-05-02T11:07:25Z</time></trkpt><trkpt lat="42.18830090585876" lon="13.799621899634266"><ele>622.0</ele><time>2026-05-02T11:07:26Z</time></trkpt><trkpt lat="42.18818041364767" lon="13.799583959543446"><ele>622.0</ele><time>2026-05-02T11:07:27Z</time></trkpt><trkpt lat="42.18806929758814" lon="13.799529461431609"><ele>622.0</ele><time>2026-05-02T11:07:28Z</time></trkpt><trkpt lat="42.18796187064418" lon="13.799466625256862"><ele>622.6</ele><time>2026-05-02T11:07:28.999Z</time></trkpt><trkpt lat="42.18786217075711" lon="13.79939847715725"><ele>623.2</ele><time>2026-05-02T11:07:29.999Z</time></trkpt><trkpt lat="42.187766335932004" lon="13.799321014151552"><ele>623.8</ele><time>2026-05-02T11:07:30.999Z</time></trkpt><trkpt lat="42.187677359217325" lon="13.79923933750042"><ele>624.4</ele><time>2026-05-02T11:07:31.999Z</time></trkpt><trkpt lat="42.18758940149434" lon="13.7991553783982"><ele>625.0</ele><time>2026-05-02T11:07:32.999Z</time></trkpt><trkpt lat="42.187505856929384" lon="13.799071715384189"><ele>625.0</ele><time>2026-05-02T11:07:33.999Z</time></trkpt><trkpt lat="42.18742564274752" lon="13.798986201138634"><ele>625.0</ele><time>2026-05-02T11:07:34.999Z</time></trkpt><trkpt lat="42.18735350368183" lon="13.798902124358042"><ele>625.0</ele><time>2026-05-02T11:07:35.999Z</time></trkpt><trkpt lat="42.18728512590106" lon="13.79881071073248"><ele>625.0</ele><time>2026-05-02T11:07:36.999Z</time></trkpt><trkpt lat="42.187226249831696" lon="13.79871443190117"><ele>625.0</ele><time>2026-05-02T11:07:37.999Z</time></trkpt><trkpt lat="42.18717528635733" lon="13.798615092657629"><ele>620.3333333333334</ele><time>2026-05-02T11:07:38.999Z</time></trkpt><trkpt lat="42.18712630530509" lon="13.798517513421267"><ele>615.6666666666667</ele><time>2026-05-02T11:07:39.999Z</time></trkpt><trkpt lat="42.18708242621708" lon="13.798419674786233"><ele>611.0</ele><time>2026-05-02T11:07:40.999Z</time></trkpt><trkpt lat="42.187039204782586" lon="13.798317792815388"><ele>606.3333333333334</ele><time>2026-05-02T11:07:41.999Z</time></trkpt><trkpt lat="42.1870017831221" lon="13.79821504903211"><ele>601.6666666666666</ele><time>2026-05-02T11:07:42.999Z</time></trkpt><trkpt lat="42.18696715425253" lon="13.798106836232332"><ele>597.0</ele><time>2026-05-02T11:07:43.999Z</time></trkpt><trkpt lat="42.186939676012706" lon="13.797994576825875"><ele>597.0</ele><time>2026-05-02T11:07:44.999Z</time></trkpt><trkpt lat="42.186909144140834" lon="13.797878646650421"><ele>597.0</ele><time>2026-05-02T11:07:45.999Z</time></trkpt><trkpt lat="42.186878401403625" lon="13.797762898886061"><ele>597.0</ele><time>2026-05-02T11:07:46.999Z</time></trkpt><trkpt lat="42.18684724189581" lon="13.797646909714341"><ele>597.0</ele><time>2026-05-02T11:07:47.999Z</time></trkpt><trkpt lat="42.186813798928135" lon="13.797529719247173"><ele>597.0</ele><time>2026-05-02T11:07:48.999Z</time></trkpt><trkpt lat="42.18677867136682" lon="13.797413611542842"><ele>599.6</ele><time>2026-05-02T11:07:49.999Z</time></trkpt><trkpt lat="42.18673493080305" lon="13.797299240215507"><ele>602.2</ele><time>2026-05-02T11:07:50.999Z</time></trkpt><trkpt lat="42.186676842991886" lon="13.797191110685743"><ele>604.8</ele><time>2026-05-02T11:07:51.999Z</time></trkpt><trkpt lat="42.18659711296266" lon="13.797100549765096"><ele>607.4</ele><time>2026-05-02T11:07:53Z</time></trkpt><trkpt lat="42.186499699299695" lon="13.797046367743595"><ele>610.0</ele><time>2026-05-02T11:07:54Z</time></trkpt><trkpt lat="42.186421575316814" lon="13.796959126966865"><ele>606.8</ele><time>2026-05-02T11:07:55Z</time></trkpt><trkpt lat="42.1863317830625" lon="13.796909796083087"><ele>603.6</ele><time>2026-05-02T11:07:56Z</time></trkpt><trkpt lat="42.186264223252735" lon="13.796825920453214"><ele>600.4</ele><time>2026-05-02T11:07:57Z</time></trkpt><trkpt lat="42.1862020205258" lon="13.79673184369371"><ele>597.2</ele><time>2026-05-02T11:07:58Z</time></trkpt><trkpt lat="42.18614379384863" lon="13.796637863398113"><ele>594.0</ele><time>2026-05-02T11:07:59Z</time></trkpt><trkpt lat="42.18609780384067" lon="13.796532974057847"><ele>594.0</ele><time>2026-05-02T11:08:00Z</time></trkpt><trkpt lat="42.1860646288872" lon="13.7964212091929"><ele>594.0</ele><time>2026-05-02T11:08:01Z</time></trkpt><trkpt lat="42.18603114774033" lon="13.796312791516414"><ele>594.0</ele><time>2026-05-02T11:08:02Z</time></trkpt><trkpt lat="42.18599203162797" lon="13.796225190344098"><ele>594.0</ele><time>2026-05-02T11:08:03Z</time></trkpt><trkpt lat="42.18593056130744" lon="13.796160240417608"><ele>594.0</ele><time>2026-05-02T11:08:04Z</time></trkpt><trkpt lat="42.18585328041858" lon="13.796147320929508"><ele>594.0</ele><time>2026-05-02T11:08:05Z</time></trkpt><trkpt lat="42.18578433250442" lon="13.796184450270149"><ele>594.0</ele><time>2026-05-02T11:08:06Z</time></trkpt><trkpt lat="42.18573977214216" lon="13.79626438404959"><ele>594.0</ele><time>2026-05-02T11:08:07Z</time></trkpt><trkpt lat="42.185732194787725" lon="13.796363390943533"><ele>594.0</ele><time>2026-05-02T11:08:08Z</time></trkpt><trkpt lat="42.185761154917394" lon="13.796462833964048"><ele>594.0</ele><time>2026-05-02T11:08:09Z</time></trkpt><trkpt lat="42.18579962895167" lon="13.796562610883534"><ele>594.0</ele><time>2026-05-02T11:08:10Z</time></trkpt><trkpt lat="42.1858393940742" lon="13.796662007098185"><ele>594.0</ele><time>2026-05-02T11:08:11Z</time></trkpt><trkpt lat="42.18588388783692" lon="13.796765219203955"><ele>589.8</ele><time>2026-05-02T11:08:12Z</time></trkpt><trkpt lat="42.185933767498625" lon="13.796874991664913"><ele>585.5999999999999</ele><time>2026-05-02T11:08:13Z</time></trkpt><trkpt lat="42.18598789034456" lon="13.796983590078224"><ele>581.4</ele><time>2026-05-02T11:08:14Z</time></trkpt><trkpt lat="42.18605587373861" lon="13.797088849262684"><ele>577.1999999999999</ele><time>2026-05-02T11:08:15Z</time></trkpt><trkpt lat="42.18613126930452" lon="13.797192806601437"><ele>573.0</ele><time>2026-05-02T11:08:16Z</time></trkpt><trkpt lat="42.18620644992259" lon="13.7972966057557"><ele>573.0</ele><time>2026-05-02T11:08:17Z</time></trkpt><trkpt lat="42.18627649725933" lon="13.79741023927429"><ele>573.0</ele><time>2026-05-02T11:08:18Z</time></trkpt><trkpt lat="42.1863441405417" lon="13.797530418183065"><ele>573.0</ele><time>2026-05-02T11:08:19Z</time></trkpt><trkpt lat="42.18639826254046" lon="13.797665256183235"><ele>573.0</ele><time>2026-05-02T11:08:20Z</time></trkpt><trkpt lat="42.186428432487226" lon="13.797811536157582"><ele>573.0</ele><time>2026-05-02T11:08:21Z</time></trkpt><trkpt lat="42.18644418147661" lon="13.797962672442317"><ele>568.0</ele><time>2026-05-02T11:08:22Z</time></trkpt><trkpt lat="42.18646009634103" lon="13.79811314503033"><ele>563.0</ele><time>2026-05-02T11:08:23Z</time></trkpt><trkpt lat="42.18647438111726" lon="13.798265870860188"><ele>558.0</ele><time>2026-05-02T11:08:24Z</time></trkpt><trkpt lat="42.18648907630511" lon="13.798417212688765"><ele>553.0</ele><time>2026-05-02T11:08:25Z</time></trkpt><trkpt lat="42.18650833982946" lon="13.798566671351294"><ele>560.25</ele><time>2026-05-02T11:08:26Z</time></trkpt><trkpt lat="42.18652727922388" lon="13.798718572516128"><ele>567.5</ele><time>2026-05-02T11:08:27Z</time></trkpt><trkpt lat="42.18654877632829" lon="13.798869800646923"><ele>574.75</ele><time>2026-05-02T11:08:28Z</time></trkpt><trkpt lat="42.186571798520184" lon="13.79902342692014"><ele>582.0</ele><time>2026-05-02T11:08:29Z</time></trkpt><trkpt lat="42.18659575528974" lon="13.799174846500287"><ele>582.0</ele><time>2026-05-02T11:08:30Z</time></trkpt><trkpt lat="42.18662438840824" lon="13.799323983766284"><ele>582.0</ele><time>2026-05-02T11:08:31Z</time></trkpt><trkpt lat="42.18666118188952" lon="13.799469071110257"><ele>582.0</ele><time>2026-05-02T11:08:32Z</time></trkpt><trkpt lat="42.18670454710395" lon="13.79960875511657"><ele>582.0</ele><time>2026-05-02T11:08:33Z</time></trkpt><trkpt lat="42.186754752188335" lon="13.799741418029457"><ele>577.2</ele><time>2026-05-02T11:08:34Z</time></trkpt><trkpt lat="42.18680650850052" lon="13.79986905364137"><ele>572.4000000000001</ele><time>2026-05-02T11:08:35Z</time></trkpt><trkpt lat="42.1868584710034" lon="13.799993969590798"><ele>567.5999999999999</ele><time>2026-05-02T11:08:36Z</time></trkpt><trkpt lat="42.18691600949662" lon="13.800112181972798"><ele>562.8</ele><time>2026-05-02T11:08:37Z</time></trkpt><trkpt lat="42.18697630236137" lon="13.800228433390547"><ele>558.0</ele><time>2026-05-02T11:08:38Z</time></trkpt><trkpt lat="42.187039305663404" lon="13.800341889750621"><ele>560.4</ele><time>2026-05-02T11:08:39Z</time></trkpt><trkpt lat="42.18710755860865" lon="13.80045075195686"><ele>562.8</ele><time>2026-05-02T11:08:40Z</time></trkpt><trkpt lat="42.18718134121136" lon="13.8005538195787"><ele>565.2</ele><time>2026-05-02T11:08:41Z</time></trkpt><trkpt lat="42.18725691157489" lon="13.800655287065798"><ele>567.6</ele><time>2026-05-02T11:08:42Z</time></trkpt><trkpt lat="42.187332320315576" lon="13.800758321793149"><ele>570.0</ele><time>2026-05-02T11:08:43Z</time></trkpt><trkpt lat="42.18740354072216" lon="13.800870429602417"><ele>569.0</ele><time>2026-05-02T11:08:44Z</time></trkpt><trkpt lat="42.187445151685885" lon="13.801004932133184"><ele>568.0</ele><time>2026-05-02T11:08:45Z</time></trkpt><trkpt lat="42.18744691006957" lon="13.801163758939605"><ele>567.0</ele><time>2026-05-02T11:08:46Z</time></trkpt><trkpt lat="42.187414356894195" lon="13.801339820684253"><ele>566.0</ele><time>2026-05-02T11:08:47Z</time></trkpt><trkpt lat="42.18736717444297" lon="13.801503983674216"><ele>552.75</ele><time>2026-05-02T11:08:48Z</time></trkpt><trkpt lat="42.18732527698462" lon="13.801668127191737"><ele>539.5</ele><time>2026-05-02T11:08:49Z</time></trkpt><trkpt lat="42.18728974914964" lon="13.801833052172606"><ele>526.25</ele><time>2026-05-02T11:08:50Z</time></trkpt><trkpt lat="42.1872613859931" lon="13.80199887803192"><ele>513.0</ele><time>2026-05-02T11:08:51Z</time></trkpt><trkpt lat="42.187239766470036" lon="13.80216492848156"><ele>512.75</ele><time>2026-05-02T11:08:52Z</time></trkpt><trkpt lat="42.187227324978195" lon="13.802328353523395"><ele>512.5</ele><time>2026-05-02T11:08:53Z</time></trkpt><trkpt lat="42.18723303889829" lon="13.802492352682087"><ele>512.25</ele><time>2026-05-02T11:08:54Z</time></trkpt><trkpt lat="42.187255086663555" lon="13.802653339240806"><ele>512.0</ele><time>2026-05-02T11:08:55Z</time></trkpt><trkpt lat="42.187280770915805" lon="13.802813098722847"><ele>509.5</ele><time>2026-05-02T11:08:56Z</time></trkpt><trkpt lat="42.18730789752942" lon="13.802971376776329"><ele>507.0</ele><time>2026-05-02T11:08:57Z</time></trkpt><trkpt lat="42.18733341912994" lon="13.803129419180745"><ele>504.5</ele><time>2026-05-02T11:08:58Z</time></trkpt><trkpt lat="42.18735944436744" lon="13.803284317925616"><ele>502.0</ele><time>2026-05-02T11:08:59Z</time></trkpt><trkpt lat="42.187384291066124" lon="13.803437417979989"><ele>508.25</ele><time>2026-05-02T11:09:00Z</time></trkpt><trkpt lat="42.18740722626743" lon="13.803589843439402"><ele>514.5</ele><time>2026-05-02T11:09:01Z</time></trkpt><trkpt lat="42.18743057322427" lon="13.803740184843505"><ele>520.75</ele><time>2026-05-02T11:09:02Z</time></trkpt><trkpt lat="42.18745657538922" lon="13.803886229846276"><ele>527.0</ele><time>2026-05-02T11:09:03Z</time></trkpt><trkpt lat="42.187493462870435" lon="13.804027899323158"><ele>527.0</ele><time>2026-05-02T11:09:04Z</time></trkpt><trkpt lat="42.18754295888442" lon="13.804158758755571"><ele>527.0</ele><time>2026-05-02T11:09:05Z</time></trkpt><trkpt lat="42.187596773437186" lon="13.80428800475558"><ele>527.0</ele><time>2026-05-02T11:09:06Z</time></trkpt><trkpt lat="42.18764331352981" lon="13.804415005503056"><ele>527.0</ele><time>2026-05-02T11:09:07Z</time></trkpt><trkpt lat="42.18769040436566" lon="13.804539236870877"><ele>527.0</ele><time>2026-05-02T11:09:08Z</time></trkpt><trkpt lat="42.187744987923544" lon="13.804655538698137"><ele>523.0</ele><time>2026-05-02T11:09:09Z</time></trkpt><trkpt lat="42.18780476098019" lon="13.804767618533207"><ele>519.0</ele><time>2026-05-02T11:09:10Z</time></trkpt><trkpt lat="42.18786071783846" lon="13.804879395299517"><ele>515.0</ele><time>2026-05-02T11:09:11Z</time></trkpt><trkpt lat="42.18791461274944" lon="13.804996821710668"><ele>511.0</ele><time>2026-05-02T11:09:12Z</time></trkpt><trkpt lat="42.187964921325616" lon="13.805115813760859"><ele>507.0</ele><time>2026-05-02T11:09:13Z</time></trkpt><trkpt lat="42.188009004930585" lon="13.805240105433436"><ele>504.75</ele><time>2026-05-02T11:09:14Z</time></trkpt><trkpt lat="42.18802968587195" lon="13.805374822378818"><ele>502.5</ele><time>2026-05-02T11:09:15Z</time></trkpt><trkpt lat="42.18801686516032" lon="13.80551856542193"><ele>500.25</ele><time>2026-05-02T11:09:16Z</time></trkpt><trkpt lat="42.1879541187969" lon="13.805657094397876"><ele>498.0</ele><time>2026-05-02T11:09:17Z</time></trkpt><trkpt lat="42.18788089511951" lon="13.805786860371839"><ele>498.0</ele><time>2026-05-02T11:09:18Z</time></trkpt><trkpt lat="42.18783428188389" lon="13.805931901924252"><ele>497.99999999999994</ele><time>2026-05-02T11:09:19Z</time></trkpt><trkpt lat="42.187811072675366" lon="13.806079138378648"><ele>497.99999999999994</ele><time>2026-05-02T11:09:20Z</time></trkpt><trkpt lat="42.18780018538569" lon="13.806218491953418"><ele>498.0</ele><time>2026-05-02T11:09:21Z</time></trkpt><trkpt lat="42.18779501580071" lon="13.806353099390238"><ele>498.0</ele><time>2026-05-02T11:09:22Z</time></trkpt><trkpt lat="42.187792656844465" lon="13.806493843851333"><ele>497.2</ele><time>2026-05-02T11:09:23Z</time></trkpt><trkpt lat="42.18779538083044" lon="13.806631731728812"><ele>496.4</ele><time>2026-05-02T11:09:24Z</time></trkpt><trkpt lat="42.18779191312465" lon="13.806770221046623"><ele>495.59999999999997</ele><time>2026-05-02T11:09:25Z</time></trkpt><trkpt lat="42.18778204806625" lon="13.806909203136911"><ele>494.79999999999995</ele><time>2026-05-02T11:09:26Z</time></trkpt><trkpt lat="42.18778012491412" lon="13.80704855641953"><ele>494.0</ele><time>2026-05-02T11:09:27Z</time></trkpt><trkpt lat="42.18778266772839" lon="13.80718524021123"><ele>491.79999999999995</ele><time>2026-05-02T11:09:28Z</time></trkpt><trkpt lat="42.18778916537805" lon="13.8073202966853"><ele>489.59999999999997</ele><time>2026-05-02T11:09:28.999Z</time></trkpt><trkpt lat="42.1878017988701" lon="13.807455302426137"><ele>487.4</ele><time>2026-05-02T11:09:29.999Z</time></trkpt><trkpt lat="42.18782951155668" lon="13.807583256480259"><ele>485.2</ele><time>2026-05-02T11:09:30.999Z</time></trkpt><trkpt lat="42.18787161531691" lon="13.80770491602506"><ele>483.0</ele><time>2026-05-02T11:09:31.999Z</time></trkpt><trkpt lat="42.187923618990794" lon="13.807818423175274"><ele>480.4</ele><time>2026-05-02T11:09:32.999Z</time></trkpt><trkpt lat="42.18798370211282" lon="13.807926366591623"><ele>477.79999999999995</ele><time>2026-05-02T11:09:33.999Z</time></trkpt><trkpt lat="42.188051981445966" lon="13.808030328564106"><ele>475.2</ele><time>2026-05-02T11:09:34.999Z</time></trkpt><trkpt lat="42.188127911935396" lon="13.808122442133804"><ele>472.6</ele><time>2026-05-02T11:09:35.999Z</time></trkpt><trkpt lat="42.18820564976557" lon="13.808214747375452"><ele>470.0</ele><time>2026-05-02T11:09:36.999Z</time></trkpt><trkpt lat="42.18828147009062" lon="13.808313145936305"><ele>476.0</ele><time>2026-05-02T11:09:37.999Z</time></trkpt><trkpt lat="42.188340845014984" lon="13.808410056075664"><ele>482.0</ele><time>2026-05-02T11:09:38.999Z</time></trkpt><trkpt lat="42.18837509833642" lon="13.808509640064038"><ele>488.0</ele><time>2026-05-02T11:09:39.999Z</time></trkpt><trkpt lat="42.18837548137978" lon="13.808628359265224"><ele>494.0</ele><time>2026-05-02T11:09:40.999Z</time></trkpt><trkpt lat="42.18833117977739" lon="13.80875816003486"><ele>500.0</ele><time>2026-05-02T11:09:41.999Z</time></trkpt><trkpt lat="42.18826063603779" lon="13.808892292505593"><ele>500.0</ele><time>2026-05-02T11:09:42.999Z</time></trkpt><trkpt lat="42.18818474366265" lon="13.809019724419052"><ele>500.0</ele><time>2026-05-02T11:09:43.999Z</time></trkpt><trkpt lat="42.188112451038016" lon="13.809147765493817"><ele>500.0</ele><time>2026-05-02T11:09:44.999Z</time></trkpt><trkpt lat="42.18804403769223" lon="13.809268577367867"><ele>500.0</ele><time>2026-05-02T11:09:45.999Z</time></trkpt><trkpt lat="42.18796656329231" lon="13.809377753496412"><ele>493.4</ele><time>2026-05-02T11:09:46.999Z</time></trkpt><trkpt lat="42.18789109459293" lon="13.809476901581634"><ele>486.8</ele><time>2026-05-02T11:09:47.999Z</time></trkpt><trkpt lat="42.18782728500014" lon="13.809567106396827"><ele>480.20000000000005</ele><time>2026-05-02T11:09:48.999Z</time></trkpt><trkpt lat="42.18778067588036" lon="13.809677858306163"><ele>473.6</ele><time>2026-05-02T11:09:49.999Z</time></trkpt><trkpt lat="42.18775694661638" lon="13.80979789071425"><ele>467.0</ele><time>2026-05-02T11:09:50.999Z</time></trkpt><trkpt lat="42.18774780482312" lon="13.80991901557806"><ele>467.0</ele><time>2026-05-02T11:09:51.999Z</time></trkpt><trkpt lat="42.187752515624844" lon="13.81004204938805"><ele>467.00000000000006</ele><time>2026-05-02T11:09:52.999Z</time></trkpt><trkpt lat="42.187760819587595" lon="13.8101659234074"><ele>467.00000000000006</ele><time>2026-05-02T11:09:53.999Z</time></trkpt><trkpt lat="42.18775721430926" lon="13.810297870750112"><ele>467.0</ele><time>2026-05-02T11:09:54.999Z</time></trkpt><trkpt lat="42.18775573425852" lon="13.810436460775591"><ele>467.0</ele><time>2026-05-02T11:09:55.999Z</time></trkpt><trkpt lat="42.18775086278001" lon="13.810586019804878"><ele>467.25</ele><time>2026-05-02T11:09:56.999Z</time></trkpt><trkpt lat="42.18773174012573" lon="13.810736488598232"><ele>467.5</ele><time>2026-05-02T11:09:58Z</time></trkpt><trkpt lat="42.187709427519295" lon="13.810892189058885"><ele>467.75</ele><time>2026-05-02T11:09:59Z</time></trkpt><trkpt lat="42.18768403458341" lon="13.811046461832596"><ele>468.0</ele><time>2026-05-02T11:10:00Z</time></trkpt><trkpt lat="42.1876623229561" lon="13.811201658584414"><ele>466.59999999999997</ele><time>2026-05-02T11:10:01Z</time></trkpt><trkpt lat="42.18765130476135" lon="13.811354396635451"><ele>465.19999999999993</ele><time>2026-05-02T11:10:02Z</time></trkpt><trkpt lat="42.187657710787214" lon="13.811502252848417"><ele>463.8</ele><time>2026-05-02T11:10:03Z</time></trkpt><trkpt lat="42.187691874822185" lon="13.811649020140754"><ele>462.4</ele><time>2026-05-02T11:10:04Z</time></trkpt><trkpt lat="42.18773447823612" lon="13.8117869708333"><ele>461.0</ele><time>2026-05-02T11:10:05Z</time></trkpt><trkpt lat="42.18778837099853" lon="13.811921420326899"><ele>457.0</ele><time>2026-05-02T11:10:06Z</time></trkpt><trkpt lat="42.187850796999385" lon="13.812048585287217"><ele>453.0</ele><time>2026-05-02T11:10:07Z</time></trkpt><trkpt lat="42.18792465445205" lon="13.812168610796524"><ele>449.0</ele><time>2026-05-02T11:10:08Z</time></trkpt><trkpt lat="42.18800007878487" lon="13.812284620739629"><ele>445.0</ele><time>2026-05-02T11:10:09Z</time></trkpt><trkpt lat="42.18807303914511" lon="13.812399174024767"><ele>445.00000000000006</ele><time>2026-05-02T11:10:10Z</time></trkpt><trkpt lat="42.18814549913332" lon="13.812506767219498"><ele>445.0</ele><time>2026-05-02T11:10:11Z</time></trkpt><trkpt lat="42.188199573080375" lon="13.812603058184386"><ele>445.0</ele><time>2026-05-02T11:10:12Z</time></trkpt><trkpt lat="42.18824132446818" lon="13.812695435819519"><ele>445.0</ele><time>2026-05-02T11:10:13Z</time></trkpt><trkpt lat="42.18824717572196" lon="13.812796062404399"><ele>445.00000000000006</ele><time>2026-05-02T11:10:14Z</time></trkpt><trkpt lat="42.1882194062001" lon="13.81288529581265"><ele>445.0</ele><time>2026-05-02T11:10:15Z</time></trkpt><trkpt lat="42.188177316499704" lon="13.812964587023936"><ele>443.8</ele><time>2026-05-02T11:10:16Z</time></trkpt><trkpt lat="42.188138137139546" lon="13.813055861545356"><ele>442.6</ele><time>2026-05-02T11:10:17Z</time></trkpt><trkpt lat="42.188108055663406" lon="13.813167766558475"><ele>441.4</ele><time>2026-05-02T11:10:18Z</time></trkpt><trkpt lat="42.18807255455991" lon="13.813282523208041"><ele>440.2</ele><time>2026-05-02T11:10:19Z</time></trkpt><trkpt lat="42.18802563636779" lon="13.813392587312453"><ele>439.0</ele><time>2026-05-02T11:10:20Z</time></trkpt><trkpt lat="42.18798079599691" lon="13.813511671646353"><ele>439.0</ele><time>2026-05-02T11:10:21Z</time></trkpt><trkpt lat="42.187930871843555" lon="13.813627383688367"><ele>439.0</ele><time>2026-05-02T11:10:22Z</time></trkpt><trkpt lat="42.18787769502833" lon="13.813744353109872"><ele>439.0</ele><time>2026-05-02T11:10:23Z</time></trkpt><trkpt lat="42.18782995758811" lon="13.813867711511318"><ele>439.0</ele><time>2026-05-02T11:10:24Z</time></trkpt><trkpt lat="42.18777670037475" lon="13.81398914371409"><ele>439.0</ele><time>2026-05-02T11:10:25Z</time></trkpt><trkpt lat="42.187719467991855" lon="13.814109525809176"><ele>439.0</ele><time>2026-05-02T11:10:26Z</time></trkpt><trkpt lat="42.18766423976421" lon="13.814237326496071"><ele>439.0</ele><time>2026-05-02T11:10:27Z</time></trkpt><trkpt lat="42.18761159604162" lon="13.814367067349114"><ele>439.0</ele><time>2026-05-02T11:10:28Z</time></trkpt><trkpt lat="42.18756381032689" lon="13.81449459184436"><ele>439.0</ele><time>2026-05-02T11:10:29Z</time></trkpt><trkpt lat="42.1875080261899" lon="13.814619822862"><ele>439.0</ele><time>2026-05-02T11:10:30Z</time></trkpt><trkpt lat="42.187449067739266" lon="13.814749473369105"><ele>440.6</ele><time>2026-05-02T11:10:31Z</time></trkpt><trkpt lat="42.187388872991995" lon="13.814873219538581"><ele>442.2</ele><time>2026-05-02T11:10:32Z</time></trkpt><trkpt lat="42.18734085656839" lon="13.81499894179662"><ele>443.80000000000007</ele><time>2026-05-02T11:10:33Z</time></trkpt><trkpt lat="42.187294614805005" lon="13.815127782236793"><ele>445.40000000000003</ele><time>2026-05-02T11:10:34Z</time></trkpt><trkpt lat="42.18724193386724" lon="13.815250891774348"><ele>447.0</ele><time>2026-05-02T11:10:35Z</time></trkpt><trkpt lat="42.18719208731683" lon="13.815368366557065"><ele>441.8333333333333</ele><time>2026-05-02T11:10:36Z</time></trkpt><trkpt lat="42.187157561767194" lon="13.815493370853831"><ele>436.66666666666663</ele><time>2026-05-02T11:10:37Z</time></trkpt><trkpt lat="42.18712551247931" lon="13.815607140160763"><ele>431.5</ele><time>2026-05-02T11:10:38Z</time></trkpt><trkpt lat="42.187086808150646" lon="13.815721339407403"><ele>426.3333333333333</ele><time>2026-05-02T11:10:39Z</time></trkpt><trkpt lat="42.18704515236612" lon="13.815822610751399"><ele>421.16666666666663</ele><time>2026-05-02T11:10:40Z</time></trkpt><trkpt lat="42.1870108908525" lon="13.815916307209582"><ele>416.0</ele><time>2026-05-02T11:10:41Z</time></trkpt><trkpt lat="42.18698256712579" lon="13.816010927783639"><ele>415.99999999999994</ele><time>2026-05-02T11:10:42Z</time></trkpt><trkpt lat="42.186946726239405" lon="13.816108939015956"><ele>416.0</ele><time>2026-05-02T11:10:43Z</time></trkpt><trkpt lat="42.18691224163781" lon="13.81618943208384"><ele>416.0</ele><time>2026-05-02T11:10:44Z</time></trkpt><trkpt lat="42.18688003818218" lon="13.816267374227726"><ele>416.0</ele><time>2026-05-02T11:10:45Z</time></trkpt><trkpt lat="42.18682609356985" lon="13.816404507757609"><ele>415.99999999999994</ele><time>2026-05-02T11:10:47Z</time></trkpt><trkpt lat="42.18678695860163" lon="13.816492158346167"><ele>416.0</ele><time>2026-05-02T11:10:49Z</time></trkpt><trkpt lat="42.18674489802019" lon="13.816631726184333"><ele>416.0</ele><time>2026-05-02T11:11:44.999Z</time></trkpt><trkpt lat="42.186722632303464" lon="13.816715173598048"><ele>416.0</ele><time>2026-05-02T11:11:45.999Z</time></trkpt><trkpt lat="42.186696422453714" lon="13.816842672781426"><ele>416.0</ele><time>2026-05-02T11:11:46.999Z</time></trkpt><trkpt lat="42.18666449000041" lon="13.81701224314777"><ele>416.0</ele><time>2026-05-02T11:11:47.999Z</time></trkpt><trkpt lat="42.186636438285674" lon="13.817189594862633"><ele>416.0</ele><time>2026-05-02T11:11:48.999Z</time></trkpt><trkpt lat="42.18661488574029" lon="13.817366350038059"><ele>415.75</ele><time>2026-05-02T11:11:49.999Z</time></trkpt><trkpt lat="42.18659041127811" lon="13.817550991345804"><ele>415.5</ele><time>2026-05-02T11:11:50.999Z</time></trkpt><trkpt lat="42.18656808833854" lon="13.817735593974357"><ele>415.25</ele><time>2026-05-02T11:11:51.999Z</time></trkpt><trkpt lat="42.186545277626884" lon="13.817911128375888"><ele>415.0</ele><time>2026-05-02T11:11:52.999Z</time></trkpt><trkpt lat="42.18652500372892" lon="13.818057967101337"><ele>410.25</ele><time>2026-05-02T11:11:53.999Z</time></trkpt><trkpt lat="42.1865088910377" lon="13.818209273228018"><ele>405.5</ele><time>2026-05-02T11:11:54.999Z</time></trkpt><trkpt lat="42.186498809036905" lon="13.818364440158998"><ele>400.75</ele><time>2026-05-02T11:11:55.999Z</time></trkpt><trkpt lat="42.186506575757306" lon="13.818522867560839"><ele>396.0</ele><time>2026-05-02T11:11:56.999Z</time></trkpt><trkpt lat="42.186526478313446" lon="13.818678927566062"><ele>396.0</ele><time>2026-05-02T11:11:57.999Z</time></trkpt><trkpt lat="42.1865550077981" lon="13.818832563242914"><ele>396.0</ele><time>2026-05-02T11:11:58.999Z</time></trkpt><trkpt lat="42.186586745507206" lon="13.818989609502628"><ele>396.0</ele><time>2026-05-02T11:11:59.999Z</time></trkpt><trkpt lat="42.18661569446512" lon="13.81914573697925"><ele>396.0</ele><time>2026-05-02T11:12:00.999Z</time></trkpt><trkpt lat="42.18664829836679" lon="13.819294242108535"><ele>391.75</ele><time>2026-05-02T11:12:01.999Z</time></trkpt><trkpt lat="42.18669403605757" lon="13.819436616818619"><ele>387.5</ele><time>2026-05-02T11:12:03Z</time></trkpt><trkpt lat="42.18675717652633" lon="13.819569298225899"><ele>383.25</ele><time>2026-05-02T11:12:04Z</time></trkpt><trkpt lat="42.18683460569955" lon="13.819690434464972"><ele>379.0</ele><time>2026-05-02T11:12:05Z</time></trkpt><trkpt lat="42.18692735862488" lon="13.819800653282977"><ele>379.0</ele><time>2026-05-02T11:12:06Z</time></trkpt><trkpt lat="42.187030965855236" lon="13.819897924942733"><ele>379.0</ele><time>2026-05-02T11:12:07Z</time></trkpt><trkpt lat="42.187139304031696" lon="13.819986910266364"><ele>379.0</ele><time>2026-05-02T11:12:08Z</time></trkpt><trkpt lat="42.18725297403295" lon="13.82006725936925"><ele>379.0</ele><time>2026-05-02T11:12:09Z</time></trkpt><trkpt lat="42.1873737766039" lon="13.820124641619556"><ele>381.75</ele><time>2026-05-02T11:12:10Z</time></trkpt><trkpt lat="42.187497433572226" lon="13.820147240931464"><ele>384.5</ele><time>2026-05-02T11:12:11Z</time></trkpt><trkpt lat="42.18762552524499" lon="13.820137813558375"><ele>387.25</ele><time>2026-05-02T11:12:12Z</time></trkpt><trkpt lat="42.18776098937179" lon="13.820105632206696"><ele>390.0</ele><time>2026-05-02T11:12:13Z</time></trkpt><trkpt lat="42.18788735385132" lon="13.820066237783784"><ele>390.0</ele><time>2026-05-02T11:12:14Z</time></trkpt><trkpt lat="42.18801068977642" lon="13.820030368941596"><ele>390.0</ele><time>2026-05-02T11:12:15Z</time></trkpt><trkpt lat="42.18813746540478" lon="13.820010302203286"><ele>390.0</ele><time>2026-05-02T11:12:16Z</time></trkpt><trkpt lat="42.18826404094602" lon="13.819993762269961"><ele>390.0</ele><time>2026-05-02T11:12:17Z</time></trkpt><trkpt lat="42.188389269652056" lon="13.819977619735102"><ele>390.25</ele><time>2026-05-02T11:12:18Z</time></trkpt><trkpt lat="42.188514887462425" lon="13.819976520845412"><ele>390.5</ele><time>2026-05-02T11:12:19Z</time></trkpt><trkpt lat="42.18863758964167" lon="13.820013129224915"><ele>390.75</ele><time>2026-05-02T11:12:20Z</time></trkpt><trkpt lat="42.18874691474131" lon="13.820074689407592"><ele>391.0</ele><time>2026-05-02T11:12:21Z</time></trkpt><trkpt lat="42.18883207741297" lon="13.820175020255506"><ele>390.20000000000005</ele><time>2026-05-02T11:12:22Z</time></trkpt><trkpt lat="42.18888131004533" lon="13.82030326704233"><ele>389.40000000000003</ele><time>2026-05-02T11:12:23Z</time></trkpt><trkpt lat="42.18887837030922" lon="13.82044181857533"><ele>388.6</ele><time>2026-05-02T11:12:24Z</time></trkpt><trkpt lat="42.18884142273601" lon="13.820579066329328"><ele>387.8</ele><time>2026-05-02T11:12:25Z</time></trkpt><trkpt lat="42.18877130351387" lon="13.820698452032797"><ele>387.0</ele><time>2026-05-02T11:12:26Z</time></trkpt><trkpt lat="42.188672556038284" lon="13.820802954292722"><ele>387.0</ele><time>2026-05-02T11:12:27Z</time></trkpt><trkpt lat="42.18856427739713" lon="13.820911295061869"><ele>387.0</ele><time>2026-05-02T11:12:28Z</time></trkpt><trkpt lat="42.18845446287113" lon="13.821031266557553"><ele>387.0</ele><time>2026-05-02T11:12:29Z</time></trkpt><trkpt lat="42.18835559591633" lon="13.821160536665527"><ele>387.0</ele><time>2026-05-02T11:12:30Z</time></trkpt><trkpt lat="42.18826373749662" lon="13.821297207599104"><ele>385.5</ele><time>2026-05-02T11:12:31Z</time></trkpt><trkpt lat="42.188171458689304" lon="13.821440754735207"><ele>384.0</ele><time>2026-05-02T11:12:32Z</time></trkpt><trkpt lat="42.188085365439015" lon="13.82159511522923"><ele>382.5</ele><time>2026-05-02T11:12:33Z</time></trkpt><trkpt lat="42.18802022139062" lon="13.821764301768557"><ele>381.0</ele><time>2026-05-02T11:12:34Z</time></trkpt><trkpt lat="42.18797266019967" lon="13.821942072260981"><ele>381.0</ele><time>2026-05-02T11:12:35Z</time></trkpt><trkpt lat="42.18794057574562" lon="13.822131784871285"><ele>381.0</ele><time>2026-05-02T11:12:36Z</time></trkpt><trkpt lat="42.18793084576355" lon="13.822330842184284"><ele>381.0</ele><time>2026-05-02T11:12:37Z</time></trkpt><trkpt lat="42.18795987760182" lon="13.822528712718343"><ele>381.0</ele><time>2026-05-02T11:12:38Z</time></trkpt><trkpt lat="42.18798556182585" lon="13.822716088811191"><ele>383.5</ele><time>2026-05-02T11:12:39Z</time></trkpt><trkpt lat="42.18801072091587" lon="13.822901670779851"><ele>386.0</ele><time>2026-05-02T11:12:40Z</time></trkpt><trkpt lat="42.188029734402534" lon="13.823072847815583"><ele>388.5</ele><time>2026-05-02T11:12:41Z</time></trkpt><trkpt lat="42.18805400936595" lon="13.823225787424509"><ele>391.0</ele><time>2026-05-02T11:12:42Z</time></trkpt><trkpt lat="42.18807878897651" lon="13.82335625512132"><ele>391.00000000000006</ele><time>2026-05-02T11:12:43Z</time></trkpt><trkpt lat="42.188102256744024" lon="13.823475095425707"><ele>391.0</ele><time>2026-05-02T11:12:44Z</time></trkpt><trkpt lat="42.188113490828954" lon="13.823592459624322"><ele>391.0</ele><time>2026-05-02T11:12:45Z</time></trkpt><trkpt lat="42.18807033524068" lon="13.823691864136212"><ele>391.0</ele><time>2026-05-02T11:12:46Z</time></trkpt><trkpt lat="42.188003953351455" lon="13.82371908784942"><ele>391.00000000000006</ele><time>2026-05-02T11:12:47Z</time></trkpt><trkpt lat="42.18792406115045" lon="13.82367994315365"><ele>391.0</ele><time>2026-05-02T11:12:48Z</time></trkpt><trkpt lat="42.18783520243025" lon="13.823667123747292"><ele>393.6</ele><time>2026-05-02T11:12:49Z</time></trkpt><trkpt lat="42.18776777953614" lon="13.823626659077737"><ele>396.20000000000005</ele><time>2026-05-02T11:12:50Z</time></trkpt><trkpt lat="42.187663373357466" lon="13.823613164915344"><ele>398.79999999999995</ele><time>2026-05-02T11:12:51Z</time></trkpt><trkpt lat="42.18756893310588" lon="13.823589518424258"><ele>401.4</ele><time>2026-05-02T11:12:52Z</time></trkpt><trkpt lat="42.18747055325499" lon="13.823557446449357"><ele>404.0</ele><time>2026-05-02T11:12:53Z</time></trkpt><trkpt lat="42.18736665875125" lon="13.823530607955894"><ele>403.2</ele><time>2026-05-02T11:12:54Z</time></trkpt><trkpt lat="42.1872687179157" lon="13.823492091933433"><ele>402.4</ele><time>2026-05-02T11:12:55Z</time></trkpt><trkpt lat="42.18717944188027" lon="13.823432754841683"><ele>401.6</ele><time>2026-05-02T11:12:56Z</time></trkpt><trkpt lat="42.187104194005386" lon="13.823365771423648"><ele>400.8</ele><time>2026-05-02T11:12:57Z</time></trkpt><trkpt lat="42.18703222464218" lon="13.823299065245672"><ele>400.0</ele><time>2026-05-02T11:12:58Z</time></trkpt><trkpt lat="42.18695187830576" lon="13.82324163966529"><ele>397.8</ele><time>2026-05-02T11:12:59Z</time></trkpt><trkpt lat="42.186874962037734" lon="13.823191871575702"><ele>395.6</ele><time>2026-05-02T11:13:00Z</time></trkpt><trkpt lat="42.18679227902711" lon="13.823155236795676"><ele>393.4</ele><time>2026-05-02T11:13:01Z</time></trkpt><trkpt lat="42.18670510664171" lon="13.823131481461685"><ele>391.2</ele><time>2026-05-02T11:13:02Z</time></trkpt><trkpt lat="42.18661055810589" lon="13.82312431308863"><ele>389.0</ele><time>2026-05-02T11:13:03Z</time></trkpt><trkpt lat="42.18651921853865" lon="13.823152555066946"><ele>386.4</ele><time>2026-05-02T11:13:04Z</time></trkpt><trkpt lat="42.186434892115514" lon="13.823219178738926"><ele>383.79999999999995</ele><time>2026-05-02T11:13:05Z</time></trkpt><trkpt lat="42.1863605446017" lon="13.823288206643443"><ele>381.20000000000005</ele><time>2026-05-02T11:13:06Z</time></trkpt><trkpt lat="42.186287089866276" lon="13.823342727165404"><ele>378.6</ele><time>2026-05-02T11:13:07Z</time></trkpt><trkpt lat="42.18621015123552" lon="13.823398523972223"><ele>376.0</ele><time>2026-05-02T11:13:08Z</time></trkpt><trkpt lat="42.18612190896636" lon="13.823466966931585"><ele>378.4</ele><time>2026-05-02T11:13:09Z</time></trkpt><trkpt lat="42.186044656498375" lon="13.823531262473013"><ele>380.8</ele><time>2026-05-02T11:13:10Z</time></trkpt><trkpt lat="42.18595316762" lon="13.823597188980509"><ele>383.2</ele><time>2026-05-02T11:13:12Z</time></trkpt><trkpt lat="42.18602800213047" lon="13.823554112701549"><ele>385.59999999999997</ele><time>2026-05-02T11:13:18Z</time></trkpt><trkpt lat="42.18613219099655" lon="13.823517283273652"><ele>388.0</ele><time>2026-05-02T11:13:20Z</time></trkpt><trkpt lat="42.18626724833209" lon="13.823530798130308"><ele>388.0</ele><time>2026-05-02T11:13:22Z</time></trkpt><trkpt lat="42.186341397321854" lon="13.823520483965215"><ele>388.0</ele><time>2026-05-02T11:13:23Z</time></trkpt><trkpt lat="42.186412088054965" lon="13.82347478049688"><ele>388.0</ele><time>2026-05-02T11:13:24Z</time></trkpt><trkpt lat="42.18644296319962" lon="13.823346905540252"><ele>388.0</ele><time>2026-05-02T11:13:25Z</time></trkpt><trkpt lat="42.18654271687775" lon="13.82340317423469"><ele>388.0</ele><time>2026-05-02T11:13:26Z</time></trkpt><trkpt lat="42.18665056255264" lon="13.823483047920154"><ele>390.4</ele><time>2026-05-02T11:13:28Z</time></trkpt><trkpt lat="42.18670058223568" lon="13.823614014207344"><ele>392.79999999999995</ele><time>2026-05-02T11:13:30Z</time></trkpt><trkpt lat="42.18675926807242" lon="13.823755451708976"><ele>395.2</ele><time>2026-05-02T11:13:32Z</time></trkpt><trkpt lat="42.186745426032985" lon="13.823871078199593"><ele>397.6</ele><time>2026-05-02T11:13:33Z</time></trkpt><trkpt lat="42.186744087214656" lon="13.823966841815055"><ele>400.0</ele><time>2026-05-02T11:13:33.999Z</time></trkpt><trkpt lat="42.186773080930735" lon="13.824055671511346"><ele>400.00000000000006</ele><time>2026-05-02T11:13:34.999Z</time></trkpt><trkpt lat="42.18683063477204" lon="13.824105007659552"><ele>400.0</ele><time>2026-05-02T11:13:35.999Z</time></trkpt><trkpt lat="42.18689648013331" lon="13.824126877399355"><ele>400.0</ele><time>2026-05-02T11:13:36.999Z</time></trkpt><trkpt lat="42.186986304457804" lon="13.824142572607617"><ele>400.0</ele><time>2026-05-02T11:13:37.999Z</time></trkpt><trkpt lat="42.187064733703195" lon="13.82415816419004"><ele>400.00000000000006</ele><time>2026-05-02T11:13:38.999Z</time></trkpt><trkpt lat="42.187161622978294" lon="13.82416982519622"><ele>400.0</ele><time>2026-05-02T11:13:39.999Z</time></trkpt><trkpt lat="42.187256692046795" lon="13.824170725920117"><ele>400.8</ele><time>2026-05-02T11:13:40.999Z</time></trkpt><trkpt lat="42.18734793486668" lon="13.824182819773947"><ele>401.6</ele><time>2026-05-02T11:13:41.999Z</time></trkpt><trkpt lat="42.18745518938507" lon="13.82420194304048"><ele>402.4</ele><time>2026-05-02T11:13:42.999Z</time></trkpt><trkpt lat="42.18755537230743" lon="13.824224527408594"><ele>403.2</ele><time>2026-05-02T11:13:43.999Z</time></trkpt><trkpt lat="42.18765513540838" lon="13.82425384396188"><ele>404.0</ele><time>2026-05-02T11:13:44.999Z</time></trkpt><trkpt lat="42.187752787448424" lon="13.824276952628994"><ele>404.0</ele><time>2026-05-02T11:13:45.999Z</time></trkpt><trkpt lat="42.18781952865025" lon="13.824296618067049"><ele>404.0</ele><time>2026-05-02T11:13:46.999Z</time></trkpt><trkpt lat="42.1878793115299" lon="13.824358685761801"><ele>404.0</ele><time>2026-05-02T11:13:47.999Z</time></trkpt><trkpt lat="42.187929462937014" lon="13.824500092588329"><ele>404.0</ele><time>2026-05-02T11:13:49.999Z</time></trkpt><trkpt lat="42.18800376443002" lon="13.824635592277"><ele>404.0</ele><time>2026-05-02T11:13:51.999Z</time></trkpt><trkpt lat="42.188079411548294" lon="13.824672252348988"><ele>406.75</ele><time>2026-05-02T11:13:52.999Z</time></trkpt><trkpt lat="42.18816274637089" lon="13.824708876400788"><ele>409.5</ele><time>2026-05-02T11:13:53.999Z</time></trkpt><trkpt lat="42.188268394341506" lon="13.82475638789627"><ele>412.25</ele><time>2026-05-02T11:13:54.999Z</time></trkpt><trkpt lat="42.18839074571157" lon="13.824800384496141"><ele>415.0</ele><time>2026-05-02T11:13:55.999Z</time></trkpt><trkpt lat="42.18856966762772" lon="13.82487333014955"><ele>417.33333333333337</ele><time>2026-05-02T11:13:56.999Z</time></trkpt><trkpt lat="42.188734919886414" lon="13.824943062782987"><ele>419.66666666666663</ele><time>2026-05-02T11:13:57.999Z</time></trkpt><trkpt lat="42.18888821965949" lon="13.825001701459747"><ele>422.0</ele><time>2026-05-02T11:13:58.999Z</time></trkpt><trkpt lat="42.18901576999739" lon="13.825045014632098"><ele>422.0</ele><time>2026-05-02T11:13:59.999Z</time></trkpt><trkpt lat="42.18912384087966" lon="13.825091926802479"><ele>422.0</ele><time>2026-05-02T11:14:00.999Z</time></trkpt><trkpt lat="42.18921293801995" lon="13.825133463224518"><ele>422.0</ele><time>2026-05-02T11:14:01.999Z</time></trkpt><trkpt lat="42.18931960726395" lon="13.82519316163016"><ele>422.0</ele><time>2026-05-02T11:14:02.999Z</time></trkpt><trkpt lat="42.189414129810416" lon="13.825274346419842"><ele>422.0</ele><time>2026-05-02T11:14:03.999Z</time></trkpt><trkpt lat="42.1894948202379" lon="13.825371154491856"><ele>425.75</ele><time>2026-05-02T11:14:04.999Z</time></trkpt><trkpt lat="42.18958435326662" lon="13.825486897673702"><ele>429.5</ele><time>2026-05-02T11:14:05.999Z</time></trkpt><trkpt lat="42.18970324056166" lon="13.825634356709042"><ele>433.25</ele><time>2026-05-02T11:14:06.999Z</time></trkpt><trkpt lat="42.189806965374714" lon="13.825755917578034"><ele>437.0</ele><time>2026-05-02T11:14:08Z</time></trkpt><trkpt lat="42.1899042437143" lon="13.825866942287638"><ele>437.0</ele><time>2026-05-02T11:14:09Z</time></trkpt><trkpt lat="42.190012397524036" lon="13.825970865113113"><ele>437.00000000000006</ele><time>2026-05-02T11:14:10Z</time></trkpt><trkpt lat="42.19010487403274" lon="13.82603415251352"><ele>437.00000000000006</ele><time>2026-05-02T11:14:11Z</time></trkpt><trkpt lat="42.190159487527" lon="13.826104895215105"><ele>437.0</ele><time>2026-05-02T11:14:12Z</time></trkpt><trkpt lat="42.19025904431469" lon="13.826174387822375"><ele>437.0</ele><time>2026-05-02T11:14:13Z</time></trkpt><trkpt lat="42.19036959532736" lon="13.82624306316025"><ele>439.20000000000005</ele><time>2026-05-02T11:14:14Z</time></trkpt><trkpt lat="42.190472422042234" lon="13.826299375434605"><ele>441.40000000000003</ele><time>2026-05-02T11:14:15Z</time></trkpt><trkpt lat="42.190561498408066" lon="13.82634336244488"><ele>443.59999999999997</ele><time>2026-05-02T11:14:16Z</time></trkpt><trkpt lat="42.1906389010366" lon="13.82640896073893"><ele>445.79999999999995</ele><time>2026-05-02T11:14:17Z</time></trkpt><trkpt lat="42.19073409903418" lon="13.826504337890988"><ele>448.0</ele><time>2026-05-02T11:14:18Z</time></trkpt><trkpt lat="42.19084439155995" lon="13.826602398534419"><ele>448.0</ele><time>2026-05-02T11:14:19Z</time></trkpt><trkpt lat="42.190955390776175" lon="13.826714849771232"><ele>447.99999999999994</ele><time>2026-05-02T11:14:20Z</time></trkpt><trkpt lat="42.191045923187296" lon="13.826810023981595"><ele>447.99999999999994</ele><time>2026-05-02T11:14:21Z</time></trkpt><trkpt lat="42.191115044316454" lon="13.826881804845767"><ele>448.0</ele><time>2026-05-02T11:14:22Z</time></trkpt><trkpt lat="42.19118368596478" lon="13.826944584562387"><ele>448.0</ele><time>2026-05-02T11:14:23Z</time></trkpt><trkpt lat="42.19124830992717" lon="13.827007959429817"><ele>448.50000000000006</ele><time>2026-05-02T11:14:24Z</time></trkpt><trkpt lat="42.19131166004937" lon="13.827052814118794"><ele>449.0</ele><time>2026-05-02T11:14:25Z</time></trkpt><trkpt lat="42.1913770596098" lon="13.827080274046194"><ele>449.5</ele><time>2026-05-02T11:14:26Z</time></trkpt><trkpt lat="42.19144461608923" lon="13.8270914448823"><ele>450.0</ele><time>2026-05-02T11:14:27Z</time></trkpt><trkpt lat="42.191521363704034" lon="13.827120958606994"><ele>450.50000000000006</ele><time>2026-05-02T11:14:28Z</time></trkpt><trkpt lat="42.191602066173324" lon="13.827157681818822"><ele>451.0</ele><time>2026-05-02T11:14:29Z</time></trkpt><trkpt lat="42.19169798712302" lon="13.82718417292838"><ele>451.00000000000006</ele><time>2026-05-02T11:14:30Z</time></trkpt><trkpt lat="42.19178824901107" lon="13.82720081079381"><ele>451.0</ele><time>2026-05-02T11:14:31Z</time></trkpt><trkpt lat="42.19186744434374" lon="13.827212403084237"><ele>451.0</ele><time>2026-05-02T11:14:32Z</time></trkpt><trkpt lat="42.191935736434516" lon="13.827220601978386"><ele>451.0</ele><time>2026-05-02T11:14:33Z</time></trkpt><trkpt lat="42.192003205735105" lon="13.82724387500829"><ele>451.00000000000006</ele><time>2026-05-02T11:14:34Z</time></trkpt><trkpt lat="42.19212360994354" lon="13.827253789330163"><ele>451.0</ele><time>2026-05-02T11:14:36Z</time></trkpt><trkpt lat="42.19220071443052" lon="13.827230255610896"><ele>451.00000000000006</ele><time>2026-05-02T11:14:37Z</time></trkpt><trkpt lat="42.19226392438734" lon="13.827207662115232"><ele>451.0</ele><time>2026-05-02T11:14:38Z</time></trkpt><trkpt lat="42.192325471936215" lon="13.82718747983908"><ele>451.0</ele><time>2026-05-02T11:14:39Z</time></trkpt><trkpt lat="42.19244809293192" lon="13.827163811055398"><ele>451.0</ele><time>2026-05-02T11:14:41Z</time></trkpt><trkpt lat="42.192512484689765" lon="13.827142678393367"><ele>451.00000000000006</ele><time>2026-05-02T11:14:42Z</time></trkpt><trkpt lat="42.19262626923697" lon="13.82710479486769"><ele>451.0</ele><time>2026-05-02T11:14:44Z</time></trkpt><trkpt lat="42.19268769404472" lon="13.827081753076564"><ele>450.5</ele><time>2026-05-02T11:14:45Z</time></trkpt><trkpt lat="42.19280408372848" lon="13.827040621306425"><ele>450.0</ele><time>2026-05-02T11:14:47Z</time></trkpt><trkpt lat="42.19291999774659" lon="13.826985997957543"><ele>449.5</ele><time>2026-05-02T11:14:49Z</time></trkpt><trkpt lat="42.19304060820031" lon="13.826943991159563"><ele>449.0</ele><time>2026-05-02T11:14:51Z</time></trkpt><trkpt lat="42.19315016906434" lon="13.826886508227433"><ele>447.6</ele><time>2026-05-02T11:14:53Z</time></trkpt><trkpt lat="42.19325898303483" lon="13.826821931972946"><ele>446.2</ele><time>2026-05-02T11:14:55Z</time></trkpt><trkpt lat="42.19335461546055" lon="13.826738241011997"><ele>444.80000000000007</ele><time>2026-05-02T11:14:57Z</time></trkpt><trkpt lat="42.19343339486261" lon="13.82666607812665"><ele>443.40000000000003</ele><time>2026-05-02T11:14:59Z</time></trkpt><trkpt lat="42.193524895246554" lon="13.826586581150103"><ele>442.0</ele><time>2026-05-02T11:15:01Z</time></trkpt><trkpt lat="42.19361117213791" lon="13.826530424681934"><ele>442.0</ele><time>2026-05-02T11:15:03Z</time></trkpt><trkpt lat="42.1936927188365" lon="13.826489461840021"><ele>442.00000000000006</ele><time>2026-05-02T11:15:05Z</time></trkpt><trkpt lat="42.193786017305506" lon="13.826445551185312"><ele>442.00000000000006</ele><time>2026-05-02T11:15:07Z</time></trkpt><trkpt lat="42.1939035110969" lon="13.826413711203191"><ele>442.0</ele><time>2026-05-02T11:15:09Z</time></trkpt><trkpt lat="42.19396569767222" lon="13.826395297049475"><ele>442.0</ele><time>2026-05-02T11:15:10Z</time></trkpt><trkpt lat="42.1940564686678" lon="13.826372559549768"><ele>440.6666666666667</ele><time>2026-05-02T11:15:12Z</time></trkpt><trkpt lat="42.194134551789894" lon="13.826364014265035"><ele>439.33333333333337</ele><time>2026-05-02T11:15:14Z</time></trkpt><trkpt lat="42.19420105648222" lon="13.826353427078713"><ele>438.0</ele><time>2026-05-02T11:15:17Z</time></trkpt><trkpt lat="42.19428348320163" lon="13.826338688743084"><ele>436.66666666666663</ele><time>2026-05-02T11:15:25Z</time></trkpt><trkpt lat="42.19436987998314" lon="13.826323121823284"><ele>435.3333333333333</ele><time>2026-05-02T11:15:28Z</time></trkpt><trkpt lat="42.19449113307808" lon="13.826331173270361"><ele>434.0</ele><time>2026-05-02T11:15:30Z</time></trkpt><trkpt lat="42.1945713813633" lon="13.826369656841164"><ele>434.0</ele><time>2026-05-02T11:15:32Z</time></trkpt><trkpt lat="42.19468116645419" lon="13.826428793343043"><ele>434.0</ele><time>2026-05-02T11:15:35Z</time></trkpt><trkpt lat="42.19480007453527" lon="13.826443409344202"><ele>434.0</ele><time>2026-05-02T11:15:36.999Z</time></trkpt><trkpt lat="42.194927498527896" lon="13.826423547593228"><ele>434.0</ele><time>2026-05-02T11:15:38.999Z</time></trkpt><trkpt lat="42.19500375737857" lon="13.826375089221052"><ele>433.99999999999994</ele><time>2026-05-02T11:15:39.999Z</time></trkpt><trkpt lat="42.19507360734643" lon="13.826324880017127"><ele>434.0</ele><time>2026-05-02T11:15:40.999Z</time></trkpt><trkpt lat="42.195137648662744" lon="13.826290207896289"><ele>434.0</ele><time>2026-05-02T11:15:41.999Z</time></trkpt><trkpt lat="42.195204171060794" lon="13.82624576783016"><ele>434.0</ele><time>2026-05-02T11:15:42.999Z</time></trkpt><trkpt lat="42.195262478432824" lon="13.826202186862421"><ele>433.99999999999994</ele><time>2026-05-02T11:15:43.999Z</time></trkpt><trkpt lat="42.19536509787836" lon="13.826127402721113"><ele>434.0</ele><time>2026-05-02T11:15:45.999Z</time></trkpt><trkpt lat="42.19546094855146" lon="13.82608549156646"><ele>433.99999999999994</ele><time>2026-05-02T11:15:47.999Z</time></trkpt><trkpt lat="42.195552585753674" lon="13.826077411019158"><ele>434.0</ele><time>2026-05-02T11:15:49.999Z</time></trkpt><trkpt lat="42.19561372000287" lon="13.82610655246947"><ele>434.0</ele><time>2026-05-02T11:15:50.999Z</time></trkpt><trkpt lat="42.19561644158935" lon="13.826247453200338"><ele>434.0</ele><time>2026-05-02T11:15:51.999Z</time></trkpt><trkpt lat="42.19562929888547" lon="13.826336985268942"><ele>433.99999999999994</ele><time>2026-05-02T11:15:52.999Z</time></trkpt><trkpt lat="42.195660911076686" lon="13.826416292420495"><ele>434.0</ele><time>2026-05-02T11:15:53.999Z</time></trkpt><trkpt lat="42.19571533893559" lon="13.826467042560536"><ele>434.0</ele><time>2026-05-02T11:15:54.999Z</time></trkpt><trkpt lat="42.19579072799511" lon="13.826515265037559"><ele>434.0</ele><time>2026-05-02T11:15:55.999Z</time></trkpt><trkpt lat="42.195871433353105" lon="13.82656647979746"><ele>434.0</ele><time>2026-05-02T11:15:56.999Z</time></trkpt><trkpt lat="42.195966685418426" lon="13.826620521574997"><ele>434.0</ele><time>2026-05-02T11:15:57.999Z</time></trkpt><trkpt lat="42.19606824608096" lon="13.826678811207744"><ele>434.0</ele><time>2026-05-02T11:15:58.999Z</time></trkpt><trkpt lat="42.19617844967028" lon="13.82674036321546"><ele>433.99999999999994</ele><time>2026-05-02T11:15:59.999Z</time></trkpt><trkpt lat="42.196279213541324" lon="13.826790460709962"><ele>434.0</ele><time>2026-05-02T11:16:00.999Z</time></trkpt><trkpt lat="42.19635536091593" lon="13.826834113142024"><ele>434.0</ele><time>2026-05-02T11:16:01.999Z</time></trkpt><trkpt lat="42.19643228878366" lon="13.826872018052514"><ele>434.0</ele><time>2026-05-02T11:16:02.999Z</time></trkpt><trkpt lat="42.196503520488335" lon="13.82690283247718"><ele>433.99999999999994</ele><time>2026-05-02T11:16:03.999Z</time></trkpt><trkpt lat="42.196574539966214" lon="13.82694334346541"><ele>434.0</ele><time>2026-05-02T11:16:04.999Z</time></trkpt><trkpt lat="42.196637103486594" lon="13.826997905292481"><ele>433.99999999999994</ele><time>2026-05-02T11:16:05.999Z</time></trkpt><trkpt lat="42.19669183041147" lon="13.827047966311778"><ele>434.0</ele><time>2026-05-02T11:16:06.999Z</time></trkpt><trkpt lat="42.196754765848894" lon="13.827080947278082"><ele>434.0</ele><time>2026-05-02T11:16:07.999Z</time></trkpt><trkpt lat="42.19681839243555" lon="13.827111588081786"><ele>434.0</ele><time>2026-05-02T11:16:08.999Z</time></trkpt><trkpt lat="42.19687903593104" lon="13.827140187468839"><ele>433.99999999999994</ele><time>2026-05-02T11:16:09.999Z</time></trkpt><trkpt lat="42.19694063141795" lon="13.827164436304335"><ele>434.0</ele><time>2026-05-02T11:16:10.999Z</time></trkpt><trkpt lat="42.19706066943264" lon="13.827202895580998"><ele>433.99999999999994</ele><time>2026-05-02T11:16:12.999Z</time></trkpt><trkpt lat="42.19719661372182" lon="13.827197114212664"><ele>434.0</ele><time>2026-05-02T11:16:15Z</time></trkpt><trkpt lat="42.19728068379082" lon="13.82718532942024"><ele>434.0</ele><time>2026-05-02T11:16:16Z</time></trkpt><trkpt lat="42.19735412396211" lon="13.827180193239485"><ele>434.0</ele><time>2026-05-02T11:16:17Z</time></trkpt><trkpt lat="42.1974246259095" lon="13.827187212683002"><ele>433.99999999999994</ele><time>2026-05-02T11:16:18Z</time></trkpt><trkpt lat="42.19749212823211" lon="13.827189914179465"><ele>434.0</ele><time>2026-05-02T11:16:19Z</time></trkpt><trkpt lat="42.19756316473558" lon="13.827193840294367"><ele>433.4</ele><time>2026-05-02T11:16:20Z</time></trkpt><trkpt lat="42.19764335054243" lon="13.827190494522837"><ele>432.79999999999995</ele><time>2026-05-02T11:16:21Z</time></trkpt><trkpt lat="42.19771948216305" lon="13.827178060027785"><ele>432.20000000000005</ele><time>2026-05-02T11:16:22Z</time></trkpt><trkpt lat="42.197786982528605" lon="13.827169892852917"><ele>431.6</ele><time>2026-05-02T11:16:23Z</time></trkpt><trkpt lat="42.19790882537498" lon="13.827195435385262"><ele>431.0</ele><time>2026-05-02T11:16:25Z</time></trkpt><trkpt lat="42.1980208977703" lon="13.827280134508703"><ele>430.99999999999994</ele><time>2026-05-02T11:16:27Z</time></trkpt><trkpt lat="42.19811176989038" lon="13.827340392405208"><ele>431.0</ele><time>2026-05-02T11:16:29Z</time></trkpt><trkpt lat="42.198172281017364" lon="13.827375235817742"><ele>431.0</ele><time>2026-05-02T11:16:31Z</time></trkpt><trkpt lat="42.198249304233194" lon="13.827405468210296"><ele>431.0</ele><time>2026-05-02T11:16:33Z</time></trkpt><trkpt lat="42.19831932307472" lon="13.827417714996466"><ele>430.99999999999994</ele><time>2026-05-02T11:16:34Z</time></trkpt><trkpt lat="42.198387024884816" lon="13.82740515450674"><ele>431.0</ele><time>2026-05-02T11:16:35Z</time></trkpt><trkpt lat="42.1984774268661" lon="13.827443334266446"><ele>431.0</ele><time>2026-05-02T11:16:37Z</time></trkpt><trkpt lat="42.1985594698839" lon="13.827556997799162"><ele>431.0</ele><time>2026-05-02T11:16:39Z</time></trkpt><trkpt lat="42.1986774732218" lon="13.82771025582522"><ele>431.0</ele><time>2026-05-02T11:16:41Z</time></trkpt><trkpt lat="42.19875247963928" lon="13.827790664013994"><ele>431.0</ele><time>2026-05-02T11:16:42Z</time></trkpt><trkpt lat="42.19882439096588" lon="13.827892162486927"><ele>432.4</ele><time>2026-05-02T11:16:43Z</time></trkpt><trkpt lat="42.19889759281451" lon="13.828017075881606"><ele>433.8</ele><time>2026-05-02T11:16:44Z</time></trkpt><trkpt lat="42.198957312871094" lon="13.82813657528472"><ele>435.19999999999993</ele><time>2026-05-02T11:16:45Z</time></trkpt><trkpt lat="42.19901616004918" lon="13.82824555152896"><ele>436.59999999999997</ele><time>2026-05-02T11:16:46Z</time></trkpt><trkpt lat="42.19907686628803" lon="13.828338461524869"><ele>438.0</ele><time>2026-05-02T11:16:47Z</time></trkpt><trkpt lat="42.19913746580145" lon="13.828427662733034"><ele>436.1666666666667</ele><time>2026-05-02T11:16:48Z</time></trkpt><trkpt lat="42.199185253362856" lon="13.828514439290537"><ele>434.33333333333337</ele><time>2026-05-02T11:16:49Z</time></trkpt><trkpt lat="42.19920967670669" lon="13.828594851476323"><ele>432.5</ele><time>2026-05-02T11:16:58Z</time></trkpt><trkpt lat="42.199284022047074" lon="13.828690673512256"><ele>430.6666666666667</ele><time>2026-05-02T11:17:01Z</time></trkpt><trkpt lat="42.19933831720259" lon="13.828748597207516"><ele>428.83333333333337</ele><time>2026-05-02T11:17:02Z</time></trkpt><trkpt lat="42.199442989443355" lon="13.828854684484176"><ele>427.0</ele><time>2026-05-02T11:17:04Z</time></trkpt><trkpt lat="42.19951082099261" lon="13.828940053654486"><ele>427.0</ele><time>2026-05-02T11:17:05Z</time></trkpt><trkpt lat="42.1995773345938" lon="13.829014572157748"><ele>427.00000000000006</ele><time>2026-05-02T11:17:06Z</time></trkpt><trkpt lat="42.199655679818974" lon="13.829088436493333"><ele>427.00000000000006</ele><time>2026-05-02T11:17:07Z</time></trkpt><trkpt lat="42.199740898913454" lon="13.829184359733768"><ele>427.0</ele><time>2026-05-02T11:17:08Z</time></trkpt><trkpt lat="42.19983710957981" lon="13.829284514115809"><ele>427.0</ele><time>2026-05-02T11:17:09Z</time></trkpt><trkpt lat="42.19992520804366" lon="13.829374545887955"><ele>428.6</ele><time>2026-05-02T11:17:10Z</time></trkpt><trkpt lat="42.1999994526426" lon="13.82944847240746"><ele>430.20000000000005</ele><time>2026-05-02T11:17:11Z</time></trkpt><trkpt lat="42.200096798124214" lon="13.829539222088522"><ele>431.8</ele><time>2026-05-02T11:17:12Z</time></trkpt><trkpt lat="42.20019283338633" lon="13.829632477204438"><ele>433.4</ele><time>2026-05-02T11:17:13Z</time></trkpt><trkpt lat="42.200285842409265" lon="13.829723793647647"><ele>435.0</ele><time>2026-05-02T11:17:14Z</time></trkpt><trkpt lat="42.20035422800619" lon="13.829801668948075"><ele>435.0</ele><time>2026-05-02T11:17:15Z</time></trkpt><trkpt lat="42.20041335638183" lon="13.829874611191102"><ele>435.0</ele><time>2026-05-02T11:17:16Z</time></trkpt><trkpt lat="42.20047055874111" lon="13.829946472594902"><ele>435.0</ele><time>2026-05-02T11:17:17Z</time></trkpt><trkpt lat="42.20052499107445" lon="13.830011342081875"><ele>435.0</ele><time>2026-05-02T11:17:18Z</time></trkpt><trkpt lat="42.20058071012993" lon="13.830080117487402"><ele>435.0</ele><time>2026-05-02T11:17:19Z</time></trkpt><trkpt lat="42.20064524657288" lon="13.83014413610355"><ele>435.0</ele><time>2026-05-02T11:17:20Z</time></trkpt><trkpt lat="42.20071411396484" lon="13.830200109256056"><ele>434.4</ele><time>2026-05-02T11:17:21Z</time></trkpt><trkpt lat="42.200794774183656" lon="13.830250967887647"><ele>433.8</ele><time>2026-05-02T11:17:22Z</time></trkpt><trkpt lat="42.20089555827453" lon="13.830290191171466"><ele>433.20000000000005</ele><time>2026-05-02T11:17:23Z</time></trkpt><trkpt lat="42.20100334838783" lon="13.830323950913868"><ele>432.6</ele><time>2026-05-02T11:17:24Z</time></trkpt><trkpt lat="42.201101166672615" lon="13.830353300485571"><ele>432.0</ele><time>2026-05-02T11:17:25Z</time></trkpt><trkpt lat="42.201183598440785" lon="13.830345232829494"><ele>432.0</ele><time>2026-05-02T11:17:26Z</time></trkpt><trkpt lat="42.20126111934367" lon="13.8303570663905"><ele>432.0</ele><time>2026-05-02T11:17:27Z</time></trkpt><trkpt lat="42.20134857639085" lon="13.830343731313782"><ele>432.0</ele><time>2026-05-02T11:17:28Z</time></trkpt><trkpt lat="42.20144978869837" lon="13.83031207721507"><ele>432.0</ele><time>2026-05-02T11:17:29Z</time></trkpt><trkpt lat="42.20154391227476" lon="13.830284516974563"><ele>432.0</ele><time>2026-05-02T11:17:30Z</time></trkpt><trkpt lat="42.20161780505904" lon="13.830278611355238"><ele>432.0</ele><time>2026-05-02T11:17:31Z</time></trkpt><trkpt lat="42.20172791831003" lon="13.830220891611472"><ele>433.5</ele><time>2026-05-02T11:17:33Z</time></trkpt><trkpt lat="42.20177970300347" lon="13.830168005995155"><ele>435.0</ele><time>2026-05-02T11:17:34Z</time></trkpt><trkpt lat="42.201828471041786" lon="13.830099181993026"><ele>436.5</ele><time>2026-05-02T11:17:35Z</time></trkpt><trkpt lat="42.20187710334944" lon="13.829932895968007"><ele>438.0</ele><time>2026-05-02T11:17:37Z</time></trkpt><trkpt lat="42.20189803144168" lon="13.829831486808262"><ele>439.5</ele><time>2026-05-02T11:17:38Z</time></trkpt><trkpt lat="42.20191706433242" lon="13.829738739612827"><ele>441.0</ele><time>2026-05-02T11:17:39Z</time></trkpt><trkpt lat="42.201940549954635" lon="13.829586226830834"><ele>441.6</ele><time>2026-05-02T11:17:41Z</time></trkpt><trkpt lat="42.20193136038757" lon="13.829494826573026"><ele>442.20000000000005</ele><time>2026-05-02T11:17:42Z</time></trkpt><trkpt lat="42.2019131058727" lon="13.829383907111012"><ele>442.79999999999995</ele><time>2026-05-02T11:17:43Z</time></trkpt><trkpt lat="42.201874736915364" lon="13.829259430966818"><ele>443.4</ele><time>2026-05-02T11:17:44Z</time></trkpt><trkpt lat="42.20183807168245" lon="13.82912414069054"><ele>444.0</ele><time>2026-05-02T11:17:45Z</time></trkpt><trkpt lat="42.20180223832188" lon="13.828997555928549"><ele>442.4</ele><time>2026-05-02T11:17:45.999Z</time></trkpt><trkpt lat="42.20177091054682" lon="13.828873775189551"><ele>440.79999999999995</ele><time>2026-05-02T11:17:46.999Z</time></trkpt><trkpt lat="42.20174610473303" lon="13.828760795888014"><ele>439.20000000000005</ele><time>2026-05-02T11:17:47.999Z</time></trkpt><trkpt lat="42.20171846546793" lon="13.82864296192417"><ele>437.6</ele><time>2026-05-02T11:17:48.999Z</time></trkpt><trkpt lat="42.20168837458109" lon="13.828519484237761"><ele>436.0</ele><time>2026-05-02T11:17:49.999Z</time></trkpt><trkpt lat="42.201650943150106" lon="13.82840494620706"><ele>435.33333333333337</ele><time>2026-05-02T11:17:50.999Z</time></trkpt><trkpt lat="42.201625088150635" lon="13.828290464122999"><ele>434.6666666666667</ele><time>2026-05-02T11:17:51.999Z</time></trkpt><trkpt lat="42.2015920454511" lon="13.828183900701628"><ele>434.0</ele><time>2026-05-02T11:17:52.999Z</time></trkpt><trkpt lat="42.20155975841086" lon="13.82808847327517"><ele>433.33333333333337</ele><time>2026-05-02T11:17:53.999Z</time></trkpt><trkpt lat="42.20154537425787" lon="13.827992456780681"><ele>432.6666666666667</ele><time>2026-05-02T11:17:54.999Z</time></trkpt><trkpt lat="42.2015435982895" lon="13.827898211976882"><ele>432.0</ele><time>2026-05-02T11:17:55.999Z</time></trkpt><trkpt lat="42.20154648663666" lon="13.827805493885961"><ele>432.0</ele><time>2026-05-02T11:17:56.999Z</time></trkpt><trkpt lat="42.201552913448786" lon="13.827709841000067"><ele>432.0</ele><time>2026-05-02T11:17:57.999Z</time></trkpt><trkpt lat="42.20156830062095" lon="13.827613567389744"><ele>432.0</ele><time>2026-05-02T11:17:58.999Z</time></trkpt><trkpt lat="42.20159073425645" lon="13.827520799891225"><ele>432.0</ele><time>2026-05-02T11:17:59.999Z</time></trkpt><trkpt lat="42.201628936456835" lon="13.827436582511424"><ele>432.0</ele><time>2026-05-02T11:18:00.999Z</time></trkpt><trkpt lat="42.20168045726642" lon="13.827373207366062"><ele>432.0</ele><time>2026-05-02T11:18:01.999Z</time></trkpt><trkpt lat="42.20173438369275" lon="13.82731619883555"><ele>432.0</ele><time>2026-05-02T11:18:02.999Z</time></trkpt><trkpt lat="42.20180007567069" lon="13.827274301706217"><ele>431.8</ele><time>2026-05-02T11:18:03.999Z</time></trkpt><trkpt lat="42.20187059524486" lon="13.827255888796248"><ele>431.6</ele><time>2026-05-02T11:18:04.999Z</time></trkpt><trkpt lat="42.20193956732478" lon="13.827256535548845"><ele>431.40000000000003</ele><time>2026-05-02T11:18:05.999Z</time></trkpt><trkpt lat="42.20204914087011" lon="13.827251218191224"><ele>431.20000000000005</ele><time>2026-05-02T11:18:07.999Z</time></trkpt><trkpt lat="42.2021246676896" lon="13.82718127195939"><ele>431.0</ele><time>2026-05-02T11:18:09.999Z</time></trkpt><trkpt lat="42.20218727403369" lon="13.827036847388577"><ele>431.0</ele><time>2026-05-02T11:18:11.999Z</time></trkpt><trkpt lat="42.20224692377702" lon="13.826895338208423"><ele>431.0</ele><time>2026-05-02T11:18:13.999Z</time></trkpt><trkpt lat="42.202295144395876" lon="13.826748439555399"><ele>431.0</ele><time>2026-05-02T11:18:15.999Z</time></trkpt><trkpt lat="42.20233379525695" lon="13.826605968251949"><ele>431.0</ele><time>2026-05-02T11:18:17.999Z</time></trkpt><trkpt lat="42.202405512930895" lon="13.826492700360754"><ele>428.8</ele><time>2026-05-02T11:18:20Z</time></trkpt><trkpt lat="42.20251265191146" lon="13.826434363632998"><ele>426.6</ele><time>2026-05-02T11:18:22Z</time></trkpt><trkpt lat="42.2026268721524" lon="13.826423774000675"><ele>424.4</ele><time>2026-05-02T11:18:24Z</time></trkpt><trkpt lat="42.20269245683264" lon="13.826425120937436"><ele>422.2</ele><time>2026-05-02T11:18:25Z</time></trkpt><trkpt lat="42.20281036294174" lon="13.826436271358212"><ele>420.0</ele><time>2026-05-02T11:18:27Z</time></trkpt><trkpt lat="42.202915564192224" lon="13.826457470050844"><ele>420.0</ele><time>2026-05-02T11:18:29Z</time></trkpt><trkpt lat="42.203026085618404" lon="13.826479655713287"><ele>420.0</ele><time>2026-05-02T11:18:31Z</time></trkpt><trkpt lat="42.20313937347235" lon="13.82649439037746"><ele>420.0</ele><time>2026-05-02T11:18:33Z</time></trkpt><trkpt lat="42.2032414025027" lon="13.8265166740747"><ele>420.0</ele><time>2026-05-02T11:18:35Z</time></trkpt><trkpt lat="42.20334892352859" lon="13.82655438675202"><ele>420.0</ele><time>2026-05-02T11:18:37Z</time></trkpt><trkpt lat="42.203450782359134" lon="13.826592056331643"><ele>417.6</ele><time>2026-05-02T11:18:39Z</time></trkpt><trkpt lat="42.203539649732996" lon="13.826649252822717"><ele>415.2</ele><time>2026-05-02T11:18:41Z</time></trkpt><trkpt lat="42.203669920266115" lon="13.826668668627942"><ele>412.79999999999995</ele><time>2026-05-02T11:18:44Z</time></trkpt><trkpt lat="42.20374804242685" lon="13.826698315510157"><ele>410.4</ele><time>2026-05-02T11:18:46Z</time></trkpt><trkpt lat="42.20380484251812" lon="13.826809184301423"><ele>408.0</ele><time>2026-05-02T11:18:48Z</time></trkpt><trkpt lat="42.2038546251313" lon="13.82692559019729"><ele>405.79999999999995</ele><time>2026-05-02T11:18:50Z</time></trkpt><trkpt lat="42.203914868753714" lon="13.827044793998759"><ele>403.6</ele><time>2026-05-02T11:18:52Z</time></trkpt><trkpt lat="42.20398437672171" lon="13.827165641136208"><ele>401.4</ele><time>2026-05-02T11:18:54Z</time></trkpt><trkpt lat="42.20405843530617" lon="13.827290771593557"><ele>399.20000000000005</ele><time>2026-05-02T11:18:56Z</time></trkpt><trkpt lat="42.204088771580764" lon="13.827366484459406"><ele>397.0</ele><time>2026-05-02T11:18:57Z</time></trkpt><trkpt lat="42.2041571985034" lon="13.827514682644331"><ele>396.0</ele><time>2026-05-02T11:18:59Z</time></trkpt><trkpt lat="42.20419543228456" lon="13.827593030318473"><ele>395.0</ele><time>2026-05-02T11:19:00Z</time></trkpt><trkpt lat="42.20423851456161" lon="13.827705109689257"><ele>394.0</ele><time>2026-05-02T11:19:02Z</time></trkpt><trkpt lat="42.20427468627841" lon="13.827786468483213"><ele>393.0</ele><time>2026-05-02T11:19:03Z</time></trkpt><trkpt lat="42.20433671894508" lon="13.82786376923495"><ele>392.0</ele><time>2026-05-02T11:19:05Z</time></trkpt><trkpt lat="42.20445797520005" lon="13.827748636265657"><ele>392.0</ele><time>2026-05-02T11:19:09Z</time></trkpt><trkpt lat="42.204510112440495" lon="13.82762885883401"><ele>392.0</ele><time>2026-05-02T11:19:11Z</time></trkpt><trkpt lat="42.20459751240754" lon="13.827535673373255"><ele>392.0</ele><time>2026-05-02T11:19:12Z</time></trkpt><trkpt lat="42.204641602166554" lon="13.827383447808657"><ele>392.0</ele><time>2026-05-02T11:19:13Z</time></trkpt><trkpt lat="42.20469242736492" lon="13.82725903145965"><ele>392.0</ele><time>2026-05-02T11:19:14Z</time></trkpt><trkpt lat="42.20473511606569" lon="13.82714976030664"><ele>391.99999999999994</ele><time>2026-05-02T11:19:15Z</time></trkpt><trkpt lat="42.20478053760579" lon="13.82704664190181"><ele>392.0</ele><time>2026-05-02T11:19:16Z</time></trkpt><trkpt lat="42.20482553312199" lon="13.826941533707387"><ele>392.0</ele><time>2026-05-02T11:19:17Z</time></trkpt><trkpt lat="42.20487623859576" lon="13.826834266359059"><ele>392.0</ele><time>2026-05-02T11:19:18Z</time></trkpt><trkpt lat="42.20492450910201" lon="13.826737934949978"><ele>391.99999999999994</ele><time>2026-05-02T11:19:19Z</time></trkpt><trkpt lat="42.20496710188813" lon="13.82663200956587"><ele>392.0</ele><time>2026-05-02T11:19:20Z</time></trkpt><trkpt lat="42.205011126515686" lon="13.826523608100068"><ele>389.49999999999994</ele><time>2026-05-02T11:19:21Z</time></trkpt><trkpt lat="42.205048347316335" lon="13.826430638374825"><ele>387.0</ele><time>2026-05-02T11:19:22Z</time></trkpt><trkpt lat="42.205093292557976" lon="13.826347783080909"><ele>384.5</ele><time>2026-05-02T11:19:23Z</time></trkpt><trkpt lat="42.20513739489364" lon="13.826268619012854"><ele>382.0</ele><time>2026-05-02T11:19:24Z</time></trkpt><trkpt lat="42.20519121385931" lon="13.826197520507991"><ele>379.5</ele><time>2026-05-02T11:19:25Z</time></trkpt><trkpt lat="42.205265208266304" lon="13.82613206213741"><ele>377.0</ele><time>2026-05-02T11:19:26Z</time></trkpt><trkpt lat="42.2053537213907" lon="13.826073806033515"><ele>377.0</ele><time>2026-05-02T11:19:27Z</time></trkpt><trkpt lat="42.20543981162507" lon="13.826014584763602"><ele>377.0</ele><time>2026-05-02T11:19:28Z</time></trkpt><trkpt lat="42.205521569787095" lon="13.825965132143153"><ele>377.0</ele><time>2026-05-02T11:19:29Z</time></trkpt><trkpt lat="42.205602434970025" lon="13.82591550869481"><ele>377.0</ele><time>2026-05-02T11:19:30Z</time></trkpt><trkpt lat="42.20567700586985" lon="13.825864728012062"><ele>377.0</ele><time>2026-05-02T11:19:31Z</time></trkpt><trkpt lat="42.20575469380815" lon="13.82581392124518"><ele>377.0</ele><time>2026-05-02T11:19:32Z</time></trkpt><trkpt lat="42.205823911474454" lon="13.825767928726721"><ele>375.71428571428567</ele><time>2026-05-02T11:19:33Z</time></trkpt><trkpt lat="42.20588372546401" lon="13.825722788279972"><ele>374.42857142857144</ele><time>2026-05-02T11:19:34Z</time></trkpt><trkpt lat="42.205948681817176" lon="13.825667630763315"><ele>373.1428571428571</ele><time>2026-05-02T11:19:35Z</time></trkpt><trkpt lat="42.206017643220456" lon="13.825610363777773"><ele>371.85714285714283</ele><time>2026-05-02T11:19:36Z</time></trkpt><trkpt lat="42.206077138745506" lon="13.825543789945112"><ele>370.57142857142856</ele><time>2026-05-02T11:19:37Z</time></trkpt><trkpt lat="42.206130905794254" lon="13.825483786409375"><ele>369.2857142857143</ele><time>2026-05-02T11:19:38Z</time></trkpt><trkpt lat="42.20618363896664" lon="13.825435493061162"><ele>368.0</ele><time>2026-05-02T11:19:39Z</time></trkpt><trkpt lat="42.2062671868304" lon="13.825358704251968"><ele>368.0</ele><time>2026-05-02T11:19:41Z</time></trkpt><trkpt lat="42.20631871475723" lon="13.825258477438211"><ele>368.0</ele><time>2026-05-02T11:19:43.999Z</time></trkpt><trkpt lat="42.206397644356926" lon="13.825219783202751"><ele>368.0</ele><time>2026-05-02T11:20:19.999Z</time></trkpt><trkpt lat="42.20639269024989" lon="13.82530634611583"><ele>368.0</ele><time>2026-05-02T11:20:22.999Z</time></trkpt><trkpt lat="42.206354915500185" lon="13.825379267198862"><ele>368.0</ele><time>2026-05-02T11:20:24.999Z</time></trkpt><trkpt lat="42.2062913750886" lon="13.825522848679107"><ele>368.0</ele><time>2026-05-02T11:20:27Z</time></trkpt><trkpt lat="42.20627212987422" lon="13.82560945180571"><ele>368.0</ele><time>2026-05-02T11:20:28Z</time></trkpt><trkpt lat="42.2062537798409" lon="13.82569815543692"><ele>368.0</ele><time>2026-05-02T11:20:29Z</time></trkpt><trkpt lat="42.20623945207668" lon="13.825854080721909"><ele>368.0</ele><time>2026-05-02T11:20:31Z</time></trkpt><trkpt lat="42.20622724186114" lon="13.825976276630042"><ele>368.0</ele><time>2026-05-02T11:20:33Z</time></trkpt><trkpt lat="42.206217885748565" lon="13.82609787535241"><ele>368.0</ele><time>2026-05-02T11:20:35Z</time></trkpt><trkpt lat="42.206229982161275" lon="13.826202624439379"><ele>368.0</ele><time>2026-05-02T11:20:38Z</time></trkpt><trkpt lat="42.20630961672456" lon="13.826237947110233"><ele>364.83333333333337</ele><time>2026-05-02T11:20:40Z</time></trkpt><trkpt lat="42.20638355572158" lon="13.826215188610423"><ele>361.6666666666667</ele><time>2026-05-02T11:20:42Z</time></trkpt><trkpt lat="42.20646012755121" lon="13.82615418089385"><ele>358.5</ele><time>2026-05-02T11:20:44Z</time></trkpt><trkpt lat="42.206537707279125" lon="13.826077557849018"><ele>355.3333333333333</ele><time>2026-05-02T11:20:46Z</time></trkpt><trkpt lat="42.206636568032714" lon="13.826001712590541"><ele>352.16666666666663</ele><time>2026-05-02T11:20:48Z</time></trkpt><trkpt lat="42.20669333376457" lon="13.825958640087423"><ele>349.0</ele><time>2026-05-02T11:20:49Z</time></trkpt><trkpt lat="42.2067889417726" lon="13.825870532773829"><ele>347.5</ele><time>2026-05-02T11:20:51Z</time></trkpt><trkpt lat="42.20684149548703" lon="13.825818188075072"><ele>346.0</ele><time>2026-05-02T11:20:52Z</time></trkpt><trkpt lat="42.206886691645906" lon="13.825756146190354"><ele>344.5</ele><time>2026-05-02T11:20:53Z</time></trkpt><trkpt lat="42.20696798928649" lon="13.825630443737106"><ele>343.0</ele><time>2026-05-02T11:20:55Z</time></trkpt><trkpt lat="42.20703317479434" lon="13.825550885552868"><ele>341.5</ele><time>2026-05-02T11:20:57Z</time></trkpt><trkpt lat="42.20710547648387" lon="13.825458786651758"><ele>340.0</ele><time>2026-05-02T11:20:59Z</time></trkpt><trkpt lat="42.20720725454546" lon="13.825358456085764"><ele>340.0</ele><time>2026-05-02T11:21:01Z</time></trkpt><trkpt lat="42.2073000613545" lon="13.825245206814659"><ele>340.0</ele><time>2026-05-02T11:21:03Z</time></trkpt><trkpt lat="42.207346465748046" lon="13.825177246161507"><ele>340.0</ele><time>2026-05-02T11:21:04Z</time></trkpt><trkpt lat="42.207426285973554" lon="13.825062147448769"><ele>340.0</ele><time>2026-05-02T11:21:06Z</time></trkpt><trkpt lat="42.207481477430015" lon="13.824985179052488"><ele>340.0</ele><time>2026-05-02T11:21:07Z</time></trkpt><trkpt lat="42.2075497547391" lon="13.824878297151795"><ele>337.25</ele><time>2026-05-02T11:21:08Z</time></trkpt><trkpt lat="42.20762165699449" lon="13.824753378261525"><ele>334.5</ele><time>2026-05-02T11:21:09Z</time></trkpt><trkpt lat="42.207689017172704" lon="13.82463270064921"><ele>331.75</ele><time>2026-05-02T11:21:10Z</time></trkpt><trkpt lat="42.20775532863558" lon="13.82451711818317"><ele>329.0</ele><time>2026-05-02T11:21:11Z</time></trkpt><trkpt lat="42.20783854096739" lon="13.82440040507443"><ele>326.5</ele><time>2026-05-02T11:21:12Z</time></trkpt><trkpt lat="42.20793049765234" lon="13.82428487124802"><ele>324.0</ele><time>2026-05-02T11:21:13Z</time></trkpt><trkpt lat="42.208026870962584" lon="13.824155970404838"><ele>321.5</ele><time>2026-05-02T11:21:14Z</time></trkpt><trkpt lat="42.20811229991382" lon="13.824039256952306"><ele>319.0</ele><time>2026-05-02T11:21:15Z</time></trkpt><trkpt lat="42.20820463728304" lon="13.823934661079287"><ele>319.0</ele><time>2026-05-02T11:21:16Z</time></trkpt><trkpt lat="42.20827206725113" lon="13.823858780700293"><ele>319.0</ele><time>2026-05-02T11:21:17Z</time></trkpt><trkpt lat="42.20833167502596" lon="13.823792226421649"><ele>319.0</ele><time>2026-05-02T11:21:18Z</time></trkpt><trkpt lat="42.20844517022643" lon="13.823703886958272"><ele>319.0</ele><time>2026-05-02T11:21:20Z</time></trkpt><trkpt lat="42.20851465566858" lon="13.823659568193053"><ele>319.0</ele><time>2026-05-02T11:21:21Z</time></trkpt><trkpt lat="42.20857840301792" lon="13.823619053095028"><ele>319.0</ele><time>2026-05-02T11:21:22Z</time></trkpt><trkpt lat="42.20864059440767" lon="13.82357376296108"><ele>319.0</ele><time>2026-05-02T11:21:23Z</time></trkpt><trkpt lat="42.20870234894989" lon="13.82352426511817"><ele>319.0</ele><time>2026-05-02T11:21:24Z</time></trkpt><trkpt lat="42.208757233393364" lon="13.823470420710757"><ele>319.0</ele><time>2026-05-02T11:21:25Z</time></trkpt><trkpt lat="42.208816775485694" lon="13.823418236516277"><ele>319.0</ele><time>2026-05-02T11:21:26Z</time></trkpt><trkpt lat="42.2089384261635" lon="13.823383725183888"><ele>319.0</ele><time>2026-05-02T11:21:28Z</time></trkpt><trkpt lat="42.209000584190335" lon="13.823365842877191"><ele>319.0</ele><time>2026-05-02T11:21:29Z</time></trkpt><trkpt lat="42.20907349895944" lon="13.823319325321767"><ele>318.59999999999997</ele><time>2026-05-02T11:21:31Z</time></trkpt><trkpt lat="42.20914272056445" lon="13.823259594647052"><ele>318.2</ele><time>2026-05-02T11:21:34Z</time></trkpt><trkpt lat="42.209239887695155" lon="13.823261777456878"><ele>317.79999999999995</ele><time>2026-05-02T11:21:37Z</time></trkpt><trkpt lat="42.20935088596374" lon="13.823167457990145"><ele>317.4</ele><time>2026-05-02T11:21:39Z</time></trkpt><trkpt lat="42.209453363893246" lon="13.823106504192685"><ele>317.0</ele><time>2026-05-02T11:21:40Z</time></trkpt><trkpt lat="42.20958907563921" lon="13.823041513229079"><ele>317.0</ele><time>2026-05-02T11:21:41Z</time></trkpt><trkpt lat="42.209756670782376" lon="13.82295282119045"><ele>317.0</ele><time>2026-05-02T11:21:42Z</time></trkpt><trkpt lat="42.20991704079612" lon="13.822857555559441"><ele>317.0</ele><time>2026-05-02T11:21:43Z</time></trkpt><trkpt lat="42.21008063987963" lon="13.822755883075256"><ele>315.0</ele><time>2026-05-02T11:21:44Z</time></trkpt><trkpt lat="42.21024801548004" lon="13.822656054226766"><ele>313.0</ele><time>2026-05-02T11:21:45Z</time></trkpt><trkpt lat="42.210418821762076" lon="13.822552145316287"><ele>311.0</ele><time>2026-05-02T11:21:46Z</time></trkpt><trkpt lat="42.21058687084587" lon="13.822448566660064"><ele>311.33333333333337</ele><time>2026-05-02T11:21:47Z</time></trkpt><trkpt lat="42.21074860608382" lon="13.822348702651599"><ele>311.6666666666667</ele><time>2026-05-02T11:21:48Z</time></trkpt><trkpt lat="42.210906535542854" lon="13.822253619885288"><ele>312.0</ele><time>2026-05-02T11:21:49Z</time></trkpt><trkpt lat="42.21105981201408" lon="13.822158929786752"><ele>312.0</ele><time>2026-05-02T11:21:50Z</time></trkpt><trkpt lat="42.211215978372834" lon="13.822062118783734"><ele>312.0</ele><time>2026-05-02T11:21:50.999Z</time></trkpt><trkpt lat="42.21137475517548" lon="13.821962586060861"><ele>312.0</ele><time>2026-05-02T11:21:51.999Z</time></trkpt><trkpt lat="42.211530964227954" lon="13.821861268260179"><ele>313.3333333333333</ele><time>2026-05-02T11:21:52.999Z</time></trkpt><trkpt lat="42.21168266827947" lon="13.821764986872234"><ele>314.66666666666663</ele><time>2026-05-02T11:21:53.999Z</time></trkpt><trkpt lat="42.211829040465595" lon="13.821672449777168"><ele>316.0</ele><time>2026-05-02T11:21:54.999Z</time></trkpt><trkpt lat="42.21196774133296" lon="13.821579443064842"><ele>316.0</ele><time>2026-05-02T11:21:55.999Z</time></trkpt><trkpt lat="42.212107790455974" lon="13.82148558968221"><ele>316.0</ele><time>2026-05-02T11:21:56.999Z</time></trkpt><trkpt lat="42.212249173177334" lon="13.821392260440726"><ele>316.0</ele><time>2026-05-02T11:21:57.999Z</time></trkpt><trkpt lat="42.21238877455477" lon="13.821304615518228"><ele>315.66666666666663</ele><time>2026-05-02T11:21:58.999Z</time></trkpt><trkpt lat="42.21252798886091" lon="13.821217733738933"><ele>315.3333333333333</ele><time>2026-05-02T11:21:59.999Z</time></trkpt><trkpt lat="42.212667193829745" lon="13.821130051768886"><ele>315.0</ele><time>2026-05-02T11:22:00.999Z</time></trkpt><trkpt lat="42.21280528349784" lon="13.821041342998123"><ele>315.0</ele><time>2026-05-02T11:22:01.999Z</time></trkpt><trkpt lat="42.21292942281701" lon="13.820964604290657"><ele>315.0</ele><time>2026-05-02T11:22:02.999Z</time></trkpt><trkpt lat="42.21304341803483" lon="13.820899686946092"><ele>315.0</ele><time>2026-05-02T11:22:03.999Z</time></trkpt><trkpt lat="42.21314709172252" lon="13.820832635071868"><ele>315.0</ele><time>2026-05-02T11:22:04.999Z</time></trkpt><trkpt lat="42.21324540954668" lon="13.820761736071624"><ele>315.0</ele><time>2026-05-02T11:22:05.999Z</time></trkpt><trkpt lat="42.213341423277946" lon="13.820700520799555"><ele>315.0</ele><time>2026-05-02T11:22:06.999Z</time></trkpt><trkpt lat="42.21343583693825" lon="13.820642052183686"><ele>315.0</ele><time>2026-05-02T11:22:07.999Z</time></trkpt><trkpt lat="42.21354053090319" lon="13.820573694840379"><ele>315.0</ele><time>2026-05-02T11:22:08.999Z</time></trkpt><trkpt lat="42.213664630350976" lon="13.820484952198717"><ele>315.0</ele><time>2026-05-02T11:22:09.999Z</time></trkpt><trkpt lat="42.21379121740185" lon="13.820404183377825"><ele>315.0</ele><time>2026-05-02T11:22:10.999Z</time></trkpt><trkpt lat="42.2139119815241" lon="13.820327873425436"><ele>315.0</ele><time>2026-05-02T11:22:11.999Z</time></trkpt><trkpt lat="42.21403134114718" lon="13.82025006216303"><ele>315.0</ele><time>2026-05-02T11:22:12.999Z</time></trkpt><trkpt lat="42.21414629231165" lon="13.820175121586665"><ele>317.25</ele><time>2026-05-02T11:22:13.999Z</time></trkpt><trkpt lat="42.21426067062233" lon="13.820096341987481"><ele>319.5</ele><time>2026-05-02T11:22:14.999Z</time></trkpt><trkpt lat="42.21436373909718" lon="13.820027529297768"><ele>321.75</ele><time>2026-05-02T11:22:15.999Z</time></trkpt><trkpt lat="42.21446845241493" lon="13.819958481156146"><ele>324.0</ele><time>2026-05-02T11:22:16.999Z</time></trkpt><trkpt lat="42.21456479363866" lon="13.81989477416357"><ele>324.0</ele><time>2026-05-02T11:22:17.999Z</time></trkpt><trkpt lat="42.214645986285724" lon="13.819839823580773"><ele>324.0</ele><time>2026-05-02T11:22:18.999Z</time></trkpt><trkpt lat="42.214727368313085" lon="13.819786825809716"><ele>324.0</ele><time>2026-05-02T11:22:19.999Z</time></trkpt><trkpt lat="42.214813031263034" lon="13.819726835018205"><ele>324.0</ele><time>2026-05-02T11:22:20.999Z</time></trkpt><trkpt lat="42.21490035694452" lon="13.819667415658683"><ele>324.0</ele><time>2026-05-02T11:22:21.999Z</time></trkpt><trkpt lat="42.21498300688059" lon="13.819606900724745"><ele>324.4</ele><time>2026-05-02T11:22:22.999Z</time></trkpt><trkpt lat="42.215061880964875" lon="13.819543801304022"><ele>324.79999999999995</ele><time>2026-05-02T11:22:23.999Z</time></trkpt><trkpt lat="42.21514033818613" lon="13.819478772387315"><ele>325.20000000000005</ele><time>2026-05-02T11:22:24.999Z</time></trkpt><trkpt lat="42.21521963186281" lon="13.819409074644541"><ele>325.6</ele><time>2026-05-02T11:22:25.999Z</time></trkpt><trkpt lat="42.21530227577176" lon="13.819332904086407"><ele>326.0</ele><time>2026-05-02T11:22:26.999Z</time></trkpt><trkpt lat="42.21538581107865" lon="13.819254561573045"><ele>326.0</ele><time>2026-05-02T11:22:27.999Z</time></trkpt><trkpt lat="42.2154648180596" lon="13.819170696469481"><ele>326.0</ele><time>2026-05-02T11:22:28.999Z</time></trkpt><trkpt lat="42.21554664512126" lon="13.819083631445366"><ele>326.0</ele><time>2026-05-02T11:22:29.999Z</time></trkpt><trkpt lat="42.21562901850222" lon="13.818988272262"><ele>326.0</ele><time>2026-05-02T11:22:30.999Z</time></trkpt><trkpt lat="42.21571154070349" lon="13.818889277494204"><ele>326.0</ele><time>2026-05-02T11:22:32Z</time></trkpt><trkpt lat="42.215794382364905" lon="13.818793604630638"><ele>325.4</ele><time>2026-05-02T11:22:33Z</time></trkpt><trkpt lat="42.215872542571425" lon="13.818696089170361"><ele>324.8</ele><time>2026-05-02T11:22:34Z</time></trkpt><trkpt lat="42.21595375843599" lon="13.818597372954027"><ele>324.2</ele><time>2026-05-02T11:22:35Z</time></trkpt><trkpt lat="42.21603984180798" lon="13.818511030047206"><ele>323.59999999999997</ele><time>2026-05-02T11:22:36Z</time></trkpt><trkpt lat="42.216101093260484" lon="13.818444978028248"><ele>323.0</ele><time>2026-05-02T11:22:37Z</time></trkpt><trkpt lat="42.2161681507715" lon="13.818424484589812"><ele>322.5</ele><time>2026-05-02T11:22:39Z</time></trkpt><trkpt lat="42.216151426946865" lon="13.818524680063845"><ele>322.0</ele><time>2026-05-02T11:22:43Z</time></trkpt><trkpt lat="42.216190191749966" lon="13.818633085943263"><ele>321.5</ele><time>2026-05-02T11:22:44Z</time></trkpt><trkpt lat="42.21620306764323" lon="13.818719744495965"><ele>321.0</ele><time>2026-05-02T11:22:46Z</time></trkpt><trkpt lat="42.21620961298984" lon="13.81882138156615"><ele>320.5</ele><time>2026-05-02T11:22:48Z</time></trkpt><trkpt lat="42.216194861272996" lon="13.81893444410463"><ele>320.0</ele><time>2026-05-02T11:22:50Z</time></trkpt><trkpt lat="42.21615942861157" lon="13.819037263210175"><ele>320.0</ele><time>2026-05-02T11:22:52Z</time></trkpt><trkpt lat="42.21611439721026" lon="13.819127993368417"><ele>320.0</ele><time>2026-05-02T11:22:54Z</time></trkpt></trkseg></trk></gpx>